
Distance (Route):
Temperature : 4.9°C
Humidity : 94.1%
Pressure : 790.1hPa| Receiver | Frames | First received | Last received |
|---|---|---|---|
| OE5MMP-10 | 459 | 2026-08-31 23:17:24 | 2026-09-01 01:13:25 |
| DO3MHA-11 | 451 | 2026-08-31 22:47:42 | 2026-09-01 01:11:27 |
| PETON7-10 | 195 | 2026-08-31 23:34:28 | 2026-09-01 00:49:44 |
| OE5DRO-10 | 184 | 2026-08-31 23:05:43 | 2026-09-01 01:09:50 |
| DM0DOS-11 | 171 | 2026-09-01 00:04:41 | 2026-09-01 00:49:52 |
| DL6DJ-15 | 159 | 2026-08-31 22:51:29 | 2026-09-01 00:54:17 |
| PG1ADW-2 | 153 | 2026-08-31 23:19:01 | 2026-09-01 01:05:44 |
| BAUMI2-15 | 146 | 2026-09-01 00:02:20 | 2026-09-01 00:43:28 |
| SONDE2-11 | 110 | 2026-08-31 23:12:27 | 2026-09-01 00:51:49 |
| OE5DXL-15 | 107 | 2026-08-31 22:59:27 | 2026-09-01 01:08:21 |
| EDDB2-11 | 100 | 2026-08-31 23:19:26 | 2026-09-01 00:46:21 |
| EDDB2-12 | 92 | 2026-08-31 23:23:05 | 2026-09-01 00:53:06 |
| SONCRA | 74 | 2026-08-31 23:15:35 | 2026-09-01 00:27:01 |
| OE5REO-15 | 70 | 2026-08-31 23:23:23 | 2026-09-01 00:36:58 |
| DO9HM | 63 | 2026-08-31 22:52:38 | 2026-08-31 23:23:14 |
| OE5WHR-10 | 60 | 2026-08-31 23:12:40 | 2026-08-31 23:56:30 |
| S52SK | 60 | 2026-08-31 23:28:23 | 2026-09-01 00:55:40 |
| HSKMA3-T | 56 | 2026-09-01 00:22:49 | 2026-09-01 00:40:07 |
| DO8TBO-1 | 55 | 2026-08-31 22:57:48 | 2026-09-01 00:50:34 |
| OE3OSB-13 | 53 | 2026-09-01 00:04:53 | 2026-09-01 00:52:32 |
| NBG1-10 | 44 | 2026-08-31 22:47:40 | 2026-09-01 01:06:33 |
| SP3BTT-10 | 41 | 2026-08-31 23:32:03 | 2026-09-01 00:51:47 |
| DL1JEZ-13 | 33 | 2026-08-31 23:19:13 | 2026-09-01 00:48:04 |
| AA1-15 | 28 | 2026-09-01 00:30:57 | 2026-09-01 00:39:24 |
| DF2AP-13 | 22 | 2026-08-31 23:04:45 | 2026-09-01 00:54:18 |
| DB0NH | 19 | 2026-08-31 22:48:27 | 2026-08-31 23:13:05 |
| ANDY1245 | 15 | 2026-08-31 23:18:55 | 2026-08-31 23:31:15 |
| DF8AY | 14 | 2026-08-31 23:51:35 | 2026-09-01 00:00:43 |
| DG1MFX-10 | 13 | 2026-08-31 23:31:39 | 2026-09-01 00:51:02 |
| OE3JTB-15 | 11 | 2026-08-31 23:05:38 | 2026-09-01 01:12:49 |
| DL3JIN-12 | 11 | 2026-08-31 23:37:40 | 2026-09-01 00:48:24 |
| AM1SDL-15 | 8 | 2026-08-31 23:18:06 | 2026-08-31 23:22:39 |
| DK5PH-5 | 8 | 2026-08-31 23:49:44 | 2026-09-01 00:45:43 |
| DF3TZ-5 | 2 | 2026-09-01 00:02:01 | 2026-09-01 00:51:57 |
| DL2RXE-15 | 2 | 2026-09-01 00:15:42 | 2026-09-01 00:21:28 |
| DF7PN | 2 | 2026-09-01 00:41:58 | 2026-09-01 00:53:52 |
| DB0UT-9 | 1 | 2026-08-31 23:46:44 | 2026-08-31 23:46:44 |
| DJTTGO | 1 | 2026-09-01 00:33:32 | 2026-09-01 00:33:32 |
| Receiver | Date | Latitude | Longitude | Direction | Speed | Altitude | Climb | Temperature | Humidity | Pressure | Voltage | Killtimer | Uptime | BKT | XDATA |
|---|---|---|---|---|---|---|---|---|---|---|---|---|---|---|---|
| OE5MMP-10 | 2026-09-01 01:13:25 | 49.35262 | 13.82225 | 104° | 60km/h | 2173m | -5.4m/s | 4.9°C | 94.1% | 790.1hPa | 2.7V | 00:00:00 | 03:07:49 | 00:00:00 | |
| OE5MMP-10 | 2026-09-01 01:13:12 | 49.35308 | 13.81936 | 104° | 62km/h | 2243m | -4.8m/s | 4.4°C | 94.8% | 783.2hPa | 2.7V | 02:54:00 | 03:07:36 | 00:00:00 | |
| OE3JTB-15 | 2026-09-01 01:12:49 | 49.35392 | 13.81384 | 105° | 62km/h | 2362m | -5.0m/s | 0°C | 0% | 0hPa | 2.7V | 00:00:00 | 03:07:13 | 00:00:00 | |
| OE5MMP-10 | 2026-09-01 01:12:24 | 49.35495 | 13.80786 | 106° | 60km/h | 2498m | -5.1m/s | 2.8°C | 93.1% | 758.9hPa | 2.7V | 00:00:00 | 03:06:48 | 00:00:00 | |
| OE5MMP-10 | 2026-09-01 01:12:13 | 49.35541 | 13.80540 | 108° | 58km/h | 2555m | -5.5m/s | 2.4°C | 94.0% | 753.7hPa | 2.7V | 00:00:00 | 03:06:37 | 00:00:00 | |
| OE3JTB-15 | 2026-09-01 01:12:05 | 49.35573 | 13.80367 | 104° | 57km/h | 2602m | -6.0m/s | 0°C | 0% | 0hPa | 2.7V | 00:00:00 | 00:00:00 | 00:00:00 | |
| OE5MMP-10 | 2026-09-01 01:12:00 | 49.35592 | 13.80256 | 106° | 60km/h | 2631m | -5.1m/s | 2.0°C | 94.8% | 746.5hPa | 2.7V | 02:55:00 | 03:06:24 | 00:00:00 | |
| OE5MMP-10 | 2026-09-01 01:11:48 | 49.35641 | 13.79981 | 106° | 62km/h | 2691m | -4.7m/s | 1.5°C | 97.2% | 741.0hPa | 2.7V | 00:00:00 | 03:06:12 | 00:00:00 | |
| OE5MMP-10 | 2026-09-01 01:11:38 | 49.35685 | 13.79747 | 107° | 64km/h | 2745m | -4.5m/s | 1.4°C | 92.1% | 736.1hPa | 2.7V | 00:00:00 | 03:06:02 | 00:00:00 | |
| OE5MMP-10 | 2026-09-01 01:11:28 | 49.35736 | 13.79509 | 110° | 66km/h | 2796m | -4.8m/s | 1.0°C | 92.6% | 731.3hPa | 2.7V | 02:55:00 | 03:05:52 | 00:00:00 | |
| DO3MHA-11 | 2026-09-01 01:11:27 | 49.35742 | 13.79485 | 109° | 66km/h | 2801m | -5.3m/s | 1.0°C | 91.3% | 731.0hPa | 2.7V | 02:55:00 | 03:05:51 | 00:00:00 | |
| DO3MHA-11 | 2026-09-01 01:11:22 | 49.35767 | 13.79365 | 109° | 68km/h | 2826m | -5.4m/s | 0.8°C | 90.3% | 728.5hPa | 2.7V | 00:00:00 | 03:05:46 | 00:00:00 | |
| OE5MMP-10 | 2026-09-01 01:11:18 | 49.35789 | 13.79266 | 109° | 69km/h | 2850m | -5.6m/s | 0.7°C | 85.9% | 726.3hPa | 2.7V | 00:00:00 | 03:05:42 | 00:00:00 | |
| OE5MMP-10 | 2026-09-01 01:11:08 | 49.35845 | 13.79008 | 108° | 71km/h | 2909m | -5.9m/s | 0°C | 0% | 0hPa | 2.7V | 00:00:00 | 03:05:32 | 00:00:00 | |
| OE5MMP-10 | 2026-09-01 01:10:58 | 49.35899 | 13.78748 | 107° | 69km/h | 2971m | -6.3m/s | 0.0°C | 81.8% | 715.6hPa | 2.7V | 02:56:00 | 03:05:22 | 00:00:00 | |
| OE5MMP-10 | 2026-09-01 01:10:48 | 49.35949 | 13.78492 | 106° | 68km/h | 3042m | -7.4m/s | -0.5°C | 85.3% | 709.5hPa | 2.6V | 00:00:00 | 03:05:12 | 00:00:00 | |
| OE5MMP-10 | 2026-09-01 01:10:38 | 49.35997 | 13.78240 | 107° | 69km/h | 3108m | -5.1m/s | -0.9°C | 91.8% | 703.6hPa | 2.6V | 00:00:00 | 03:05:02 | 00:00:00 | |
| OE5MMP-10 | 2026-09-01 01:10:28 | 49.36043 | 13.77981 | 104° | 68km/h | 3164m | -5.9m/s | -1.3°C | 91.5% | 698.7hPa | 2.6V | 02:56:00 | 03:04:52 | 00:00:00 | |
| OE5MMP-10 | 2026-09-01 01:10:18 | 49.36085 | 13.77724 | 104° | 69km/h | 3219m | -5.1m/s | -1.8°C | 91.8% | 693.9hPa | 2.7V | 00:00:00 | 03:04:42 | 00:00:00 | |
| DO3MHA-11 | 2026-09-01 01:10:11 | 49.36114 | 13.77542 | 105° | 68km/h | 3257m | -6.0m/s | -2.0°C | 89.5% | 690.6hPa | 2.7V | 00:00:00 | 03:04:35 | 00:00:00 | |
| OE5MMP-10 | 2026-09-01 01:10:08 | 49.36127 | 13.77465 | 104° | 69km/h | 3275m | -6.0m/s | -2.1°C | 89.6% | 689.1hPa | 2.7V | 00:00:00 | 03:04:32 | 00:00:00 | |
| DO3MHA-11 | 2026-09-01 01:10:06 | 49.36135 | 13.77414 | 104° | 69km/h | 3288m | -6.3m/s | -2.1°C | 90.1% | 688.0hPa | 2.7V | 02:57:00 | 03:04:30 | 00:00:00 | |
| DO3MHA-11 | 2026-09-01 01:10:01 | 49.36154 | 13.77281 | 102° | 68km/h | 3319m | -6.5m/s | -2.3°C | 91.1% | 685.3hPa | 2.6V | 00:00:00 | 03:04:25 | 00:00:00 | |
| OE5MMP-10 | 2026-09-01 01:09:58 | 49.36164 | 13.77204 | 102° | 66km/h | 3337m | -5.8m/s | -2.4°C | 91.4% | 683.8hPa | 2.6V | 02:57:00 | 03:04:22 | 00:00:00 | |
| DO3MHA-11 | 2026-09-01 01:09:56 | 49.36170 | 13.77153 | 101° | 66km/h | 3349m | -5.3m/s | -2.5°C | 92.1% | 682.7hPa | 2.7V | 00:00:00 | 03:04:20 | 00:00:00 | |
| OE5DRO-10 | 2026-09-01 01:09:50 | 49.36192 | 13.76982 | 104° | 60km/h | 3389m | -5.7m/s | -2.7°C | 92.8% | 679.3hPa | 2.7V | 00:00:00 | 00:00:00 | 00:00:00 | |
| OE5MMP-10 | 2026-09-01 01:09:48 | 49.36196 | 13.76957 | 104° | 64km/h | 3395m | -5.9m/s | -2.8°C | 93.2% | 678.8hPa | 2.7V | 00:00:00 | 03:04:12 | 00:00:00 | |
| OE5MMP-10 | 2026-09-01 01:09:38 | 49.36229 | 13.76722 | 102° | 58km/h | 3455m | -5.7m/s | -3.1°C | 94.8% | 673.7hPa | 2.7V | 00:00:00 | 03:04:02 | 00:00:00 | |
| OE5DRO-10 | 2026-09-01 01:09:34 | 49.36244 | 13.76590 | 98° | 62km/h | 3488m | -5.2m/s | -3.4°C | 95.2% | 670.9hPa | 2.7V | 00:00:00 | 00:00:00 | 00:00:00 | |
| OE5MMP-10 | 2026-09-01 01:09:28 | 49.36254 | 13.76498 | 100° | 62km/h | 3510m | -5.9m/s | -3.3°C | 93.1% | 668.9hPa | 2.7V | 02:57:00 | 03:03:52 | 00:00:00 | |
| OE5MMP-10 | 2026-09-01 01:09:17 | 49.36284 | 13.76237 | 101° | 68km/h | 3579m | -6.0m/s | -2.5°C | 87.1% | 663.3hPa | 2.6V | 00:00:00 | 03:03:41 | 00:00:00 | |
| DO3MHA-11 | 2026-09-01 01:09:07 | 49.36305 | 13.75981 | 99° | 69km/h | 3646m | -6.9m/s | -2.1°C | 51.5% | 657.7hPa | 2.6V | 02:58:00 | 03:03:31 | 00:00:00 | |
| DO3MHA-11 | 2026-09-01 01:09:02 | 49.36319 | 13.75849 | 99° | 69km/h | 3682m | -7.1m/s | -2.4°C | 53.2% | 654.6hPa | 2.6V | 00:00:00 | 03:03:26 | 00:00:00 | |
| OE5DRO-10 | 2026-09-01 01:09:00 | 49.36329 | 13.75744 | 98° | 69km/h | 3708m | -6.6m/s | -2.8°C | 57.3% | 652.4hPa | 2.6V | 00:00:00 | 00:00:00 | 00:00:00 | |
| DO3MHA-11 | 2026-09-01 01:08:57 | 49.36331 | 13.75717 | 98° | 75km/h | 3715m | -7.2m/s | -2.8°C | 58.1% | 652.0hPa | 2.6V | 00:00:00 | 03:03:21 | 00:00:00 | |
| OE5MMP-10 | 2026-09-01 01:08:56 | 49.36333 | 13.75690 | 98° | 69km/h | 3722m | -6.2m/s | -2.9°C | 58.7% | 651.4hPa | 2.6V | 02:58:00 | 03:03:20 | 00:00:00 | |
| OE5MMP-10 | 2026-09-01 01:08:46 | 49.36358 | 13.75423 | 97° | 71km/h | 3789m | -7.5m/s | -3.3°C | 51.1% | 645.9hPa | 2.6V | 00:00:00 | 03:03:10 | 00:00:00 | |
| OE5DRO-10 | 2026-09-01 01:08:44 | 49.36366 | 13.75313 | 97° | 69km/h | 3817m | -7.4m/s | -3.5°C | 49.2% | 643.6hPa | 2.6V | 00:00:00 | 00:00:00 | 00:00:00 | |
| OE5MMP-10 | 2026-09-01 01:08:36 | 49.36381 | 13.75151 | 100° | 69km/h | 3861m | -7.8m/s | -4.0°C | 50.5% | 639.9hPa | 2.6V | 00:00:00 | 03:03:00 | 00:00:00 | |
| OE5MMP-10 | 2026-09-01 01:08:26 | 49.36412 | 13.74888 | 101° | 69km/h | 3933m | -6.9m/s | -4.4°C | 43.6% | 634.2hPa | 2.6V | 02:58:00 | 03:02:50 | 00:00:00 | |
| OE5DXL-15 | 2026-09-01 01:08:21 | 49.36427 | 13.74753 | 100° | 71km/h | 3968m | -7.4m/s | -4.7°C | 47.3% | 631.3hPa | 2.5V | 00:00:00 | 00:00:00 | 00:00:00 | |
| OE5MMP-10 | 2026-09-01 01:08:16 | 49.36441 | 13.74620 | 99° | 71km/h | 4002m | -6.7m/s | -5.1°C | 60.4% | 628.6hPa | 2.5V | 00:00:00 | 03:02:40 | 00:00:00 | |
| OE5MMP-10 | 2026-09-01 01:08:06 | 49.36466 | 13.74349 | 99° | 71km/h | 4076m | -6.4m/s | -5.4°C | 46.2% | 622.7hPa | 2.5V | 00:00:00 | 03:02:30 | 00:00:00 | |
| OE5DRO-10 | 2026-09-01 01:08:04 | 49.36478 | 13.74240 | 102° | 73km/h | 4104m | -6.8m/s | -5.6°C | 43.3% | 620.5hPa | 2.5V | 00:00:00 | 00:00:00 | 00:00:00 | |
| OE5MMP-10 | 2026-09-01 01:07:56 | 49.36499 | 13.74079 | 101° | 73km/h | 4151m | -8.5m/s | -5.8°C | 39.7% | 616.8hPa | 2.5V | 02:59:00 | 03:02:20 | 00:00:00 | |
| OE5DXL-15 | 2026-09-01 01:07:51 | 49.36514 | 13.73939 | 99° | 75km/h | 4190m | -6.7m/s | -6.0°C | 37.2% | 613.8hPa | 2.6V | 02:59:00 | 00:00:00 | 00:00:00 | |
| OE5DRO-10 | 2026-09-01 01:07:48 | 49.36526 | 13.73826 | 101° | 75km/h | 4218m | -6.8m/s | -6.2°C | 41.4% | 611.5hPa | 2.6V | 00:00:00 | 00:00:00 | 00:00:00 | |
| OE5MMP-10 | 2026-09-01 01:07:46 | 49.36530 | 13.73798 | 102° | 75km/h | 4224m | -6.9m/s | -6.3°C | 41.3% | 611.1hPa | 2.6V | 00:00:00 | 03:02:10 | 00:00:00 | |
| OE5MMP-10 | 2026-09-01 01:07:36 | 49.36564 | 13.73515 | 98° | 75km/h | 4293m | -6.8m/s | -6.7°C | 40.2% | 605.7hPa | 2.6V | 00:00:00 | 03:02:00 | 00:00:00 | |
| OE5DRO-10 | 2026-09-01 01:07:32 | 49.36578 | 13.73369 | 100° | 77km/h | 4326m | -6.5m/s | -7.0°C | 38.4% | 603.1hPa | 2.6V | 02:59:00 | 00:00:00 | 00:00:00 | |
| OE5MMP-10 | 2026-09-01 01:07:26 | 49.36595 | 13.73225 | 100° | 77km/h | 4360m | -6.8m/s | -7.2°C | 32.3% | 600.4hPa | 2.6V | 02:59:00 | 03:01:50 | 00:00:00 | |
| OE5DXL-15 | 2026-09-01 01:07:21 | 49.36610 | 13.73079 | 99° | 77km/h | 4393m | -6.6m/s | -7.4°C | 30.4% | 597.9hPa | 2.6V | 00:00:00 | 00:00:00 | 00:00:00 | |
| OE5MMP-10 | 2026-09-01 01:07:16 | 49.36623 | 13.72934 | 98° | 75km/h | 4427m | -6.8m/s | -7.7°C | 30.2% | 595.3hPa | 2.6V | 00:00:00 | 03:01:40 | 00:00:00 | |
| OE5MMP-10 | 2026-09-01 01:07:06 | 49.36648 | 13.72645 | 99° | 77km/h | 4496m | -6.5m/s | -8.3°C | 35.5% | 590.1hPa | 2.6V | 03:00:00 | 03:01:30 | 00:00:00 | |
| OE5DRO-10 | 2026-09-01 01:07:00 | 49.36669 | 13.72439 | 98° | 78km/h | 4547m | -7.2m/s | -8.7°C | 34.7% | 586.4hPa | 2.6V | 00:00:00 | 00:00:00 | 00:00:00 | |
| OE5MMP-10 | 2026-09-01 01:06:56 | 49.36677 | 13.72349 | 98° | 80km/h | 4570m | -7.5m/s | -8.9°C | 33.4% | 584.5hPa | 2.6V | 00:00:00 | 03:01:20 | 00:00:00 | |
| OE5DXL-15 | 2026-09-01 01:06:51 | 49.36690 | 13.72195 | 98° | 78km/h | 4607m | -6.6m/s | -9.0°C | 32.7% | 581.7hPa | 2.6V | 00:00:00 | 00:00:00 | 00:00:00 | |
| OE5MMP-10 | 2026-09-01 01:06:46 | 49.36704 | 13.72042 | 98° | 78km/h | 4641m | -7.3m/s | -9.1°C | 29.6% | 579.1hPa | 2.6V | 00:00:00 | 03:01:10 | 00:00:00 | |
| OE5DRO-10 | 2026-09-01 01:06:44 | 49.36709 | 13.71982 | 99° | 80km/h | 4657m | -9.1m/s | -9.2°C | 28.9% | 578.2hPa | 2.6V | 00:00:00 | 00:00:00 | 00:00:00 | |
| OE5MMP-10 | 2026-09-01 01:06:36 | 49.36734 | 13.71741 | 98° | 80km/h | 4716m | -7.0m/s | -9.7°C | 28.0% | 573.7hPa | 2.6V | 00:00:00 | 03:01:00 | 00:00:00 | |
| NBG1-10 | 2026-09-01 01:06:33 | 49.36741 | 13.71648 | 98° | 80km/h | 4734m | -6.4m/s | -9.9°C | 28.1% | 572.3hPa | 2.6V | 00:00:00 | 03:00:57 | 00:00:00 | |
| OE5DRO-10 | 2026-09-01 01:06:28 | 49.36754 | 13.71493 | 98° | 77km/h | 4765m | -6.2m/s | -10.0°C | 27.9% | 570.0hPa | 2.6V | 00:00:00 | 00:00:00 | 00:00:00 | |
| OE5MMP-10 | 2026-09-01 01:06:26 | 49.36760 | 13.71433 | 100° | 77km/h | 4777m | -6.1m/s | -10.1°C | 27.7% | 569.1hPa | 2.6V | 03:00:00 | 03:00:50 | 00:00:00 | |
| OE5DXL-15 | 2026-09-01 01:06:21 | 49.36776 | 13.71286 | 100° | 75km/h | 4807m | -6.0m/s | -10.3°C | 28.0% | 566.8hPa | 2.6V | 03:01:00 | 00:00:00 | 00:00:00 | |
| OE5MMP-10 | 2026-09-01 01:06:16 | 49.36790 | 13.71142 | 98° | 75km/h | 4837m | -5.8m/s | -10.6°C | 29.3% | 564.6hPa | 2.5V | 00:00:00 | 03:00:40 | 00:00:00 | |
| OE5DRO-10 | 2026-09-01 01:06:12 | 49.36800 | 13.71026 | 98° | 75km/h | 4862m | -7.1m/s | -10.6°C | 34.5% | 562.9hPa | 2.5V | 03:01:00 | 00:00:00 | 00:00:00 | |
| OE5MMP-10 | 2026-09-01 01:06:06 | 49.36816 | 13.70851 | 100° | 75km/h | 4897m | -5.9m/s | -10.6°C | 24.0% | 560.2hPa | 2.5V | 00:00:00 | 03:00:30 | 00:00:00 | |
| OE5MMP-10 | 2026-09-01 01:05:56 | 49.36840 | 13.70562 | 97° | 75km/h | 4965m | -6.3m/s | -10.9°C | 22.6% | 555.3hPa | 2.5V | 00:00:00 | 03:00:20 | 00:00:00 | |
| OE5DXL-15 | 2026-09-01 01:05:51 | 49.36852 | 13.70418 | 98° | 73km/h | 4997m | -5.7m/s | -11.2°C | 25.1% | 553.1hPa | 2.5V | 00:00:00 | 00:00:00 | 00:00:00 | |
| OE5MMP-10 | 2026-09-01 01:05:46 | 49.36867 | 13.70274 | 101° | 75km/h | 5026m | -6.0m/s | -11.3°C | 19.9% | 550.9hPa | 2.5V | 03:01:00 | 03:00:10 | 00:00:00 | |
| PG1ADW-2 | 2026-09-01 01:05:44 | 49.36875 | 13.70217 | 102° | 73km/h | 5038m | -5.8m/s | -11.4°C | 18.2% | 550.1hPa | 2.5V | 03:01:00 | 00:00:00 | 00:00:00 | |
| OE5DRO-10 | 2026-09-01 01:05:40 | 49.36888 | 13.70103 | 101° | 73km/h | 5061m | -5.8m/s | -11.5°C | 18.0% | 548.4hPa | 2.5V | 00:00:00 | 00:00:00 | 00:00:00 | |
| OE5MMP-10 | 2026-09-01 01:05:36 | 49.36902 | 13.69991 | 101° | 73km/h | 5084m | -5.6m/s | -11.6°C | 16.3% | 546.8hPa | 2.5V | 00:00:00 | 03:00:00 | 00:00:00 | |
| OE5MMP-10 | 2026-09-01 01:05:26 | 49.36935 | 13.69715 | 103° | 73km/h | 5143m | -8.6m/s | -11.9°C | 13.5% | 542.7hPa | 2.5V | 00:00:00 | 02:59:50 | 00:00:00 | |
| OE5DRO-10 | 2026-09-01 01:05:24 | 49.36943 | 13.69659 | 103° | 73km/h | 5159m | -7.5m/s | -12.0°C | 13.7% | 541.5hPa | 2.5V | 00:00:00 | 00:00:00 | 00:00:00 | |
| OE5DXL-15 | 2026-09-01 01:05:21 | 49.36956 | 13.69577 | 104° | 75km/h | 5181m | -7.1m/s | -12.2°C | 13.7% | 540.0hPa | 2.5V | 00:00:00 | 00:00:00 | 00:00:00 | |
| PG1ADW-2 | 2026-09-01 01:05:20 | 49.36960 | 13.69550 | 104° | 73km/h | 5188m | -6.2m/s | -12.2°C | 13.5% | 539.5hPa | 2.5V | 00:00:00 | 00:00:00 | 00:00:00 | |
| OE5MMP-10 | 2026-09-01 01:05:16 | 49.36977 | 13.69440 | 103° | 75km/h | 5213m | -6.8m/s | -12.4°C | 14.3% | 537.8hPa | 2.5V | 00:00:00 | 02:59:40 | 00:00:00 | |
| OE5DRO-10 | 2026-09-01 01:05:08 | 49.37008 | 13.69214 | 102° | 75km/h | 5277m | -6.8m/s | -12.9°C | 14.6% | 533.3hPa | 2.5V | 03:02:00 | 00:00:00 | 00:00:00 | |
| OE5MMP-10 | 2026-09-01 01:05:06 | 49.37015 | 13.69157 | 102° | 73km/h | 5289m | -5.9m/s | -13.0°C | 15.0% | 532.4hPa | 2.5V | 03:02:00 | 02:59:30 | 00:00:00 | |
| PG1ADW-2 | 2026-09-01 01:05:00 | 49.37037 | 13.68990 | 101° | 75km/h | 5325m | -5.8m/s | -13.2°C | 11.8% | 529.8hPa | 2.5V | 00:00:00 | 02:59:24 | 00:00:00 | |
| OE5MMP-10 | 2026-09-01 01:04:56 | 49.37051 | 13.68876 | 101° | 75km/h | 5349m | -5.8m/s | -13.3°C | 12.0% | 528.2hPa | 2.5V | 00:00:00 | 02:59:20 | 00:00:00 | |
| OE5DRO-10 | 2026-09-01 01:04:52 | 49.37065 | 13.68762 | 102° | 75km/h | 5373m | -6.5m/s | -13.5°C | 11.6% | 526.5hPa | 2.5V | 00:00:00 | 00:00:00 | 00:00:00 | |
| OE5DXL-15 | 2026-09-01 01:04:51 | 49.37069 | 13.68734 | 102° | 75km/h | 5379m | -6.0m/s | -13.5°C | 11.4% | 526.1hPa | 2.5V | 00:00:00 | 00:00:00 | 00:00:00 | |
| OE5MMP-10 | 2026-09-01 01:04:46 | 49.37088 | 13.68592 | 103° | 75km/h | 5409m | -6.2m/s | -13.7°C | 9.0% | 524.0hPa | 2.5V | 00:00:00 | 02:59:10 | 00:00:00 | |
| PG1ADW-2 | 2026-09-01 01:04:40 | 49.37113 | 13.68423 | 103° | 75km/h | 5446m | -5.9m/s | -13.9°C | 10.6% | 521.5hPa | 2.5V | 00:00:00 | 00:00:00 | 00:00:00 | |
| OE5MMP-10 | 2026-09-01 01:04:36 | 49.37129 | 13.68310 | 103° | 75km/h | 5470m | -6.0m/s | -14.1°C | 10.1% | 519.9hPa | 2.5V | 00:00:00 | 02:59:00 | 00:00:00 | |
| OE5MMP-10 | 2026-09-01 01:04:26 | 49.37162 | 13.68025 | 100° | 77km/h | 5537m | -8.8m/s | -14.5°C | 8.6% | 515.4hPa | 2.5V | 03:02:00 | 02:58:50 | 00:00:00 | |
| OE5DXL-15 | 2026-09-01 01:04:21 | 49.37180 | 13.67880 | 103° | 78km/h | 5576m | -5.9m/s | -14.7°C | 8.6% | 512.6hPa | 2.5V | 03:03:00 | 00:00:00 | 00:00:00 | |
| OE5DRO-10 | 2026-09-01 01:04:20 | 49.37189 | 13.67823 | 103° | 78km/h | 5589m | -7.1m/s | -14.8°C | 8.5% | 511.8hPa | 2.5V | 00:00:00 | 00:00:00 | 00:00:00 | |
| OE5MMP-10 | 2026-09-01 01:04:16 | 49.37200 | 13.67736 | 102° | 78km/h | 5609m | -6.7m/s | -15.0°C | 8.5% | 510.4hPa | 2.5V | 00:00:00 | 02:58:40 | 00:00:00 | |
| OE5MMP-10 | 2026-09-01 01:04:06 | 49.37242 | 13.67438 | 103° | 78km/h | 5674m | -6.6m/s | -15.3°C | 7.4% | 505.9hPa | 2.5V | 00:00:00 | 02:58:30 | 00:00:00 | |
| OE5DRO-10 | 2026-09-01 01:04:01 | 49.37264 | 13.67290 | 104° | 78km/h | 5704m | -6.2m/s | -15.5°C | 7.8% | 504.0hPa | 2.5V | 03:03:00 | 00:00:00 | 00:00:00 | |
| PG1ADW-2 | 2026-09-01 01:04:00 | 49.37269 | 13.67260 | 103° | 78km/h | 5710m | -5.6m/s | -15.5°C | 7.7% | 503.6hPa | 2.5V | 00:00:00 | 00:00:00 | 00:00:00 | |
| OE5MMP-10 | 2026-09-01 01:03:56 | 49.37286 | 13.67140 | 103° | 78km/h | 5734m | -5.9m/s | -15.6°C | 7.2% | 501.9hPa | 2.5V | 00:00:00 | 02:58:20 | 00:00:00 | |
| OE5DXL-15 | 2026-09-01 01:03:51 | 49.37308 | 13.66991 | 104° | 80km/h | 5768m | -6.8m/s | -15.9°C | 7.0% | 499.8hPa | 2.5V | 00:00:00 | 00:00:00 | 00:00:00 | |
| OE5MMP-10 | 2026-09-01 01:03:46 | 49.37331 | 13.66841 | 103° | 80km/h | 5802m | -8.0m/s | -16.0°C | 6.6% | 497.4hPa | 2.5V | 03:03:00 | 02:58:10 | 00:00:00 | |
| OE5DRO-10 | 2026-09-01 01:03:42 | 49.37349 | 13.66723 | 104° | 80km/h | 5833m | -10.6m/s | -16.2°C | 6.0% | 495.6hPa | 2.5V | 00:00:00 | 00:00:00 | 00:00:00 | |
| PG1ADW-2 | 2026-09-01 01:03:40 | 49.37358 | 13.66662 | 103° | 80km/h | 5855m | -10.6m/s | -16.4°C | 5.8% | 494.4hPa | 2.5V | 00:00:00 | 02:58:04 | 00:00:00 | |
| OE5MMP-10 | 2026-09-01 01:03:36 | 49.37375 | 13.66537 | 102° | 80km/h | 5890m | -6.2m/s | -16.7°C | 5.6% | 491.8hPa | 2.5V | 00:00:00 | 02:58:00 | 00:00:00 | |
| OE5MMP-10 | 2026-09-01 01:03:26 | 49.37416 | 13.66230 | 104° | 78km/h | 5950m | -6.3m/s | -17.1°C | 5.6% | 487.9hPa | 2.5V | 00:00:00 | 02:57:50 | 00:00:00 | |
| OE5DRO-10 | 2026-09-01 01:03:23 | 49.37430 | 13.66142 | 104° | 80km/h | 5966m | -5.2m/s | -17.3°C | 5.7% | 486.8hPa | 2.6V | 00:00:00 | 00:00:00 | 00:00:00 | |
| OE5DXL-15 | 2026-09-01 01:03:21 | 49.37439 | 13.66081 | 103° | 82km/h | 5977m | -6.1m/s | -17.4°C | 5.7% | 486.0hPa | 2.6V | 00:00:00 | 00:00:00 | 00:00:00 | |
| PG1ADW-2 | 2026-09-01 01:03:20 | 49.37444 | 13.66051 | 103° | 82km/h | 5983m | -5.6m/s | -17.4°C | 5.7% | 485.6hPa | 2.5V | 00:00:00 | 00:00:00 | 00:00:00 | |
| OE5MMP-10 | 2026-09-01 01:03:16 | 49.37460 | 13.65931 | 102° | 82km/h | 6006m | -5.6m/s | -17.6°C | 5.8% | 484.1hPa | 2.6V | 00:00:00 | 02:57:40 | 00:00:00 | |
| DO3MHA-11 | 2026-09-01 01:03:15 | 49.37464 | 13.65901 | 102° | 86km/h | 6012m | -5.5m/s | -17.7°C | 5.8% | 483.8hPa | 2.6V | 03:04:00 | 02:57:39 | 00:00:00 | |
| OE5DRO-10 | 2026-09-01 01:03:04 | 49.37509 | 13.65558 | 102° | 88km/h | 6080m | -6.0m/s | -18.1°C | 5.6% | 479.4hPa | 2.6V | 00:00:00 | 00:00:00 | 00:00:00 | |
| PG1ADW-2 | 2026-09-01 01:03:00 | 49.37526 | 13.65432 | 102° | 89km/h | 6105m | -6.0m/s | -18.2°C | 5.3% | 477.8hPa | 2.6V | 03:04:00 | 00:00:00 | 00:00:00 | |
| OE5MMP-10 | 2026-09-01 01:02:56 | 49.37544 | 13.65303 | 103° | 88km/h | 6129m | -6.2m/s | -18.2°C | 4.6% | 476.2hPa | 2.6V | 00:00:00 | 02:57:20 | 00:00:00 | |
| OE5DXL-15 | 2026-09-01 01:02:51 | 49.37569 | 13.65140 | 104° | 95km/h | 6158m | -5.9m/s | -18.2°C | 4.1% | 474.3hPa | 2.5V | 00:00:00 | 00:00:00 | 00:00:00 | |
| OE5MMP-10 | 2026-09-01 01:02:46 | 49.37596 | 13.64968 | 105° | 93km/h | 6188m | -5.3m/s | -18.2°C | 3.8% | 472.5hPa | 2.5V | 00:00:00 | 02:57:10 | 00:00:00 | |
| OE5DRO-10 | 2026-09-01 01:02:45 | 49.37602 | 13.64933 | 105° | 95km/h | 6194m | -5.7m/s | -18.2°C | 3.7% | 472.1hPa | 2.5V | 03:04:00 | 00:00:00 | 00:00:00 | |
| DO3MHA-11 | 2026-09-01 01:02:43 | 49.37614 | 13.64864 | 105° | 104km/h | 6205m | -5.8m/s | -18.3°C | 3.7% | 471.4hPa | 2.5V | 00:00:00 | 02:57:07 | 00:00:00 | |
| PG1ADW-2 | 2026-09-01 01:02:40 | 49.37632 | 13.64760 | 106° | 97km/h | 6222m | -6.0m/s | -18.3°C | 3.5% | 470.2hPa | 2.5V | 00:00:00 | 00:00:00 | 00:00:00 | |
| OE5MMP-10 | 2026-09-01 01:02:36 | 49.37658 | 13.64620 | 107° | 97km/h | 6247m | -6.0m/s | -18.3°C | 3.3% | 468.8hPa | 2.5V | 00:00:00 | 02:57:00 | 00:00:00 | |
| OE5MMP-10 | 2026-09-01 01:02:26 | 49.37726 | 13.64260 | 106° | 97km/h | 6306m | -6.2m/s | -18.4°C | 3.0% | 465.0hPa | 2.5V | 03:04:00 | 02:56:50 | 00:00:00 | |
| OE5DXL-15 | 2026-09-01 01:02:21 | 49.37758 | 13.64078 | 106° | 100km/h | 6337m | -5.8m/s | -18.6°C | 3.0% | 463.1hPa | 2.5V | 03:05:00 | 00:00:00 | 00:00:00 | |
| PG1ADW-2 | 2026-09-01 01:02:20 | 49.37765 | 13.64042 | 105° | 99km/h | 6343m | -6.5m/s | -18.7°C | 3.0% | 462.7hPa | 2.5V | 00:00:00 | 02:56:44 | 00:00:00 | |
| OE5MMP-10 | 2026-09-01 01:02:16 | 49.37788 | 13.63897 | 104° | 99km/h | 6369m | -6.4m/s | -18.7°C | 2.8% | 461.1hPa | 2.5V | 00:00:00 | 02:56:40 | 00:00:00 | |
| OE5DRO-10 | 2026-09-01 01:02:07 | 49.37838 | 13.63561 | 103° | 106km/h | 6432m | -6.7m/s | -19.0°C | 3.0% | 457.3hPa | 2.5V | 00:00:00 | 00:00:00 | 00:00:00 | |
| OE5MMP-10 | 2026-09-01 01:02:06 | 49.37843 | 13.63522 | 104° | 104km/h | 6439m | -6.8m/s | -19.1°C | 3.0% | 456.8hPa | 2.5V | 00:00:00 | 02:56:30 | 00:00:00 | |
| PG1ADW-2 | 2026-09-01 01:02:00 | 49.37878 | 13.63289 | 103° | 110km/h | 6480m | -6.7m/s | -19.2°C | 3.5% | 454.2hPa | 2.5V | 00:00:00 | 00:00:00 | 00:00:00 | |
| OE5MMP-10 | 2026-09-01 01:01:56 | 49.37901 | 13.63130 | 103° | 110km/h | 6508m | -7.1m/s | -19.3°C | 3.9% | 452.5hPa | 2.5V | 00:00:00 | 02:56:20 | 00:00:00 | |
| OE5DXL-15 | 2026-09-01 01:01:51 | 49.37928 | 13.62925 | 101° | 110km/h | 6542m | -7.0m/s | -19.4°C | 4.4% | 450.4hPa | 2.5V | 00:00:00 | 00:00:00 | 00:00:00 | |
| OE5DRO-10 | 2026-09-01 01:01:48 | 49.37943 | 13.62798 | 100° | 110km/h | 6563m | -6.7m/s | -19.5°C | 4.6% | 449.2hPa | 2.6V | 00:00:00 | 00:00:00 | 00:00:00 | |
| OE5MMP-10 | 2026-09-01 01:01:46 | 49.37952 | 13.62714 | 100° | 111km/h | 6575m | -6.3m/s | -19.6°C | 4.8% | 448.3hPa | 2.6V | 03:05:00 | 02:56:10 | 00:00:00 | |
| PG1ADW-2 | 2026-09-01 01:01:40 | 49.37981 | 13.62458 | 102° | 110km/h | 6613m | -6.2m/s | -19.6°C | 5.0% | 446.1hPa | 2.6V | 03:05:00 | 00:00:00 | 00:00:00 | |
| OE5MMP-10 | 2026-09-01 01:01:36 | 49.38002 | 13.62289 | 101° | 110km/h | 6646m | -10.9m/s | -19.6°C | 5.0% | 444.3hPa | 2.6V | 00:00:00 | 02:56:00 | 00:00:00 | |
| OE5DRO-10 | 2026-09-01 01:01:29 | 49.38037 | 13.61997 | 101° | 110km/h | 6716m | -10.5m/s | -19.9°C | 5.9% | 440.0hPa | 2.6V | 03:05:00 | 00:00:00 | 00:00:00 | |
| OE5MMP-10 | 2026-09-01 01:01:26 | 49.38055 | 13.61872 | 102° | 108km/h | 6746m | -10.5m/s | -20.0°C | 6.6% | 438.2hPa | 2.5V | 00:00:00 | 02:55:50 | 00:00:00 | |
| OE5DXL-15 | 2026-09-01 01:01:21 | 49.38084 | 13.61667 | 103° | 111km/h | 6799m | -11.5m/s | -20.3°C | 7.1% | 435.1hPa | 2.5V | 00:00:00 | 00:00:00 | 00:00:00 | |
| PG1ADW-2 | 2026-09-01 01:01:20 | 49.38090 | 13.61626 | 102° | 110km/h | 6810m | -10.9m/s | -20.4°C | 7.3% | 434.5hPa | 2.5V | 00:00:00 | 00:00:00 | 00:00:00 | |
| OE5MMP-10 | 2026-09-01 01:01:16 | 49.38114 | 13.61463 | 103° | 110km/h | 6853m | -10.2m/s | -20.7°C | 8.0% | 432.0hPa | 2.6V | 00:00:00 | 02:55:40 | 00:00:00 | |
| OE5DRO-10 | 2026-09-01 01:01:10 | 49.38154 | 13.61216 | 103° | 113km/h | 6913m | -9.9m/s | -21.2°C | 7.7% | 428.3hPa | 2.6V | 00:00:00 | 00:00:00 | 00:00:00 | |
| OE5MMP-10 | 2026-09-01 01:01:06 | 49.38180 | 13.61049 | 103° | 111km/h | 6955m | -10.6m/s | -21.5°C | 7.8% | 425.9hPa | 2.6V | 03:06:00 | 02:55:30 | 00:00:00 | |
| PG1ADW-2 | 2026-09-01 01:01:00 | 49.38218 | 13.60797 | 104° | 120km/h | 7018m | -10.9m/s | -22.0°C | 8.0% | 422.3hPa | 2.6V | 00:00:00 | 02:55:24 | 00:00:00 | |
| OE5MMP-10 | 2026-09-01 01:00:56 | 49.38243 | 13.60625 | 102° | 115km/h | 7051m | -7.2m/s | -22.3°C | 8.4% | 420.2hPa | 2.6V | 00:00:00 | 02:55:20 | 00:00:00 | |
| OE5DRO-10 | 2026-09-01 01:00:51 | 49.38272 | 13.60405 | 103° | 119km/h | 7095m | -11.0m/s | -22.7°C | 8.5% | 418.0hPa | 2.6V | 00:00:00 | 00:00:00 | 00:00:00 | |
| OE5MMP-10 | 2026-09-01 01:00:46 | 49.38299 | 13.60185 | 100° | 120km/h | 7151m | -11.6m/s | -23.2°C | 8.7% | 415.0hPa | 2.6V | 00:00:00 | 02:55:10 | 00:00:00 | |
| OE5MMP-10 | 2026-09-01 01:00:36 | 49.38345 | 13.59726 | 98° | 122km/h | 7258m | -10.8m/s | -24.0°C | 9.2% | 408.8hPa | 2.6V | 00:00:00 | 02:55:00 | 00:00:00 | |
| OE5DRO-10 | 2026-09-01 01:00:32 | 49.38361 | 13.59538 | 99° | 122km/h | 7299m | -9.3m/s | -24.3°C | 9.5% | 406.4hPa | 2.6V | 00:00:00 | 00:00:00 | 00:00:00 | |
| OE5MMP-10 | 2026-09-01 01:00:26 | 49.38386 | 13.59254 | 99° | 122km/h | 7352m | -9.5m/s | -24.7°C | 9.6% | 403.4hPa | 2.5V | 03:06:00 | 02:54:50 | 00:00:00 | |
| PG1ADW-2 | 2026-09-01 01:00:24 | 49.38395 | 13.59160 | 99° | 124km/h | 7368m | -6.4m/s | -24.8°C | 9.7% | 402.5hPa | 2.5V | 00:00:00 | 00:00:00 | 00:00:00 | |
| OE5DXL-15 | 2026-09-01 01:00:20 | 49.38414 | 13.58927 | 98° | 126km/h | 7416m | -10.2m/s | -25.2°C | 9.8% | 400.0hPa | 2.5V | 03:07:00 | 00:00:00 | 00:00:00 | |
| OE5MMP-10 | 2026-09-01 01:00:16 | 49.38426 | 13.58785 | 98° | 124km/h | 7442m | -8.7m/s | -25.4°C | 10.2% | 398.5hPa | 2.6V | 00:00:00 | 02:54:40 | 00:00:00 | |
| OE5DRO-10 | 2026-09-01 01:00:13 | 49.38437 | 13.58642 | 97° | 126km/h | 7463m | -6.7m/s | -25.6°C | 10.9% | 397.3hPa | 2.6V | 03:07:00 | 00:00:00 | 00:00:00 | |
| OE5MMP-10 | 2026-09-01 01:00:06 | 49.38462 | 13.58306 | 96° | 128km/h | 7522m | -9.0m/s | -26.0°C | 12.7% | 394.2hPa | 2.6V | 00:00:00 | 02:54:30 | 00:00:00 | |
| PG1ADW-2 | 2026-09-01 01:00:04 | 49.38470 | 13.58208 | 98° | 128km/h | 7542m | -11.0m/s | -26.2°C | 13.5% | 393.2hPa | 2.6V | 03:07:00 | 00:00:00 | 00:00:00 | |
| OE5MMP-10 | 2026-09-01 00:59:56 | 49.38500 | 13.57816 | 99° | 128km/h | 7629m | -10.7m/s | -27.0°C | 16.8% | 388.4hPa | 2.6V | 00:00:00 | 02:54:20 | 00:00:00 | |
| OE5DRO-10 | 2026-09-01 00:59:54 | 49.38510 | 13.57717 | 98° | 128km/h | 7651m | -12.1m/s | -27.2°C | 18.0% | 387.2hPa | 2.5V | 00:00:00 | 00:00:00 | 00:00:00 | |
| OE5DXL-15 | 2026-09-01 00:59:51 | 49.38531 | 13.57471 | 98° | 128km/h | 7705m | -11.5m/s | -27.6°C | 20.7% | 384.2hPa | 2.5V | 00:00:00 | 00:00:00 | 00:00:00 | |
| OE5MMP-10 | 2026-09-01 00:59:46 | 49.38545 | 13.57325 | 98° | 130km/h | 7739m | -12.0m/s | -27.7°C | 22.0% | 382.5hPa | 2.5V | 03:07:00 | 02:54:10 | 00:00:00 | |
| PG1ADW-2 | 2026-09-01 00:59:44 | 49.38553 | 13.57227 | 98° | 128km/h | 7763m | -11.3m/s | -27.8°C | 21.9% | 381.3hPa | 2.5V | 00:00:00 | 00:00:00 | 00:00:00 | |
| OE5MMP-10 | 2026-09-01 00:59:36 | 49.38590 | 13.56831 | 100° | 128km/h | 7853m | -10.9m/s | -28.5°C | 21.7% | 376.6hPa | 2.5V | 00:00:00 | 02:54:00 | 00:00:00 | |
| OE5DRO-10 | 2026-09-01 00:59:35 | 49.38596 | 13.56782 | 100° | 128km/h | 7864m | -11.6m/s | -28.6°C | 21.3% | 376.0hPa | 2.5V | 00:00:00 | 00:00:00 | 00:00:00 | |
| OE5MMP-10 | 2026-09-01 00:59:26 | 49.38638 | 13.56343 | 99° | 130km/h | 7964m | -12.2m/s | -29.3°C | 21.8% | 370.7hPa | 2.5V | 00:00:00 | 02:53:50 | 00:00:00 | |
| PG1ADW-2 | 2026-09-01 00:59:24 | 49.38647 | 13.56244 | 99° | 130km/h | 7987m | -12.2m/s | -29.6°C | 22.3% | 369.6hPa | 2.5V | 00:00:00 | 02:53:48 | 00:00:00 | |
| OE5DXL-15 | 2026-09-01 00:59:21 | 49.38672 | 13.55996 | 101° | 128km/h | 8043m | -10.9m/s | -30.1°C | 23.6% | 366.5hPa | 2.5V | 00:00:00 | 00:00:00 | 00:00:00 | |
| OE5MMP-10 | 2026-09-01 00:59:16 | 49.38688 | 13.55849 | 100° | 130km/h | 8076m | -12.2m/s | -30.4°C | 23.9% | 364.8hPa | 2.5V | 00:00:00 | 02:53:40 | 00:00:00 | |
| DO3MHA-11 | 2026-09-01 00:59:11 | 49.38713 | 13.55601 | 99° | 130km/h | 8130m | -11.3m/s | -30.7°C | 21.9% | 361.9hPa | 2.5V | 00:00:00 | 02:53:35 | 00:00:00 | |
| OE5MMP-10 | 2026-09-01 00:59:06 | 49.38740 | 13.55352 | 100° | 130km/h | 8188m | -12.5m/s | -31.1°C | 22.4% | 359.1hPa | 2.5V | 03:08:00 | 02:53:30 | 00:00:00 | |
| PG1ADW-2 | 2026-09-01 00:59:04 | 49.38749 | 13.55253 | 98° | 128km/h | 8211m | -12.0m/s | -31.2°C | 21.4% | 358.0hPa | 2.5V | 00:00:00 | 00:00:00 | 00:00:00 | |
| OE5DRO-10 | 2026-09-01 00:58:57 | 49.38783 | 13.54906 | 101° | 128km/h | 8289m | -10.3m/s | -31.7°C | 22.5% | 354.0hPa | 2.5V | 03:08:00 | 00:00:00 | 00:00:00 | |
| OE5MMP-10 | 2026-09-01 00:58:56 | 49.38789 | 13.54857 | 101° | 128km/h | 8299m | -10.8m/s | -31.8°C | 22.7% | 353.5hPa | 2.5V | 00:00:00 | 02:53:20 | 00:00:00 | |
| DO3MHA-11 | 2026-09-01 00:58:55 | 49.38795 | 13.54808 | 100° | 128km/h | 8310m | -11.3m/s | -31.9°C | 23.0% | 352.9hPa | 2.5V | 00:00:00 | 02:53:19 | 00:00:00 | |
| OE5DXL-15 | 2026-09-01 00:58:51 | 49.38824 | 13.54515 | 98° | 128km/h | 8378m | -10.8m/s | -32.5°C | 20.9% | 349.7hPa | 2.5V | 00:00:00 | 00:00:00 | 00:00:00 | |
| OE5MMP-10 | 2026-09-01 00:58:46 | 49.38837 | 13.54367 | 99° | 126km/h | 8410m | -11.1m/s | -32.8°C | 20.5% | 348.1hPa | 2.6V | 00:00:00 | 02:53:10 | 00:00:00 | |
| DO3MHA-11 | 2026-09-01 00:58:45 | 49.38842 | 13.54318 | 100° | 126km/h | 8421m | -11.3m/s | -32.9°C | 20.4% | 347.5hPa | 2.6V | 03:08:00 | 02:53:09 | 00:00:00 | |
| PG1ADW-2 | 2026-09-01 00:58:44 | 49.38847 | 13.54269 | 99° | 126km/h | 8432m | -11.5m/s | -33.0°C | 20.4% | 347.0hPa | 2.6V | 03:08:00 | 00:00:00 | 00:00:00 | |
| OE5DRO-10 | 2026-09-01 00:58:38 | 49.38877 | 13.53978 | 98° | 126km/h | 8498m | -11.5m/s | -33.6°C | 20.9% | 343.7hPa | 2.6V | 00:00:00 | 00:00:00 | 00:00:00 | |
| OE5MMP-10 | 2026-09-01 00:58:36 | 49.38886 | 13.53881 | 98° | 126km/h | 8521m | -10.4m/s | -33.9°C | 21.2% | 342.7hPa | 2.5V | 00:00:00 | 02:53:00 | 00:00:00 | |
| DO3MHA-11 | 2026-09-01 00:58:35 | 49.38890 | 13.53832 | 98° | 126km/h | 8531m | -10.9m/s | -34.0°C | 21.4% | 342.1hPa | 2.5V | 00:00:00 | 02:52:59 | 00:00:00 | |
| OE5MMP-10 | 2026-09-01 00:58:26 | 49.38929 | 13.53394 | 98° | 128km/h | 8628m | -10.4m/s | -34.9°C | 24.1% | 337.5hPa | 2.5V | 03:08:00 | 02:52:50 | 00:00:00 | |
| DO3MHA-11 | 2026-09-01 00:58:25 | 49.38933 | 13.53345 | 99° | 128km/h | 8638m | -10.4m/s | -34.9°C | 24.2% | 337.0hPa | 2.5V | 00:00:00 | 02:52:49 | 00:00:00 | |
| PG1ADW-2 | 2026-09-01 00:58:24 | 49.38938 | 13.53296 | 98° | 128km/h | 8649m | -11.1m/s | -35.0°C | 24.4% | 336.5hPa | 2.5V | 00:00:00 | 00:00:00 | 00:00:00 | |
| OE5DXL-15 | 2026-09-01 00:58:20 | 49.38958 | 13.53050 | 98° | 128km/h | 8701m | -11.5m/s | -35.4°C | 23.7% | 334.0hPa | 2.5V | 03:09:00 | 00:00:00 | 00:00:00 | |
| OE5DRO-10 | 2026-09-01 00:58:19 | 49.38958 | 13.53050 | 98° | 128km/h | 8701m | -11.5m/s | -35.4°C | 23.7% | 334.0hPa | 2.5V | 00:00:00 | 00:00:00 | 00:00:00 | |
| OE5MMP-10 | 2026-09-01 00:58:16 | 49.38970 | 13.52903 | 97° | 128km/h | 8733m | -11.7m/s | -35.5°C | 21.1% | 332.4hPa | 2.5V | 00:00:00 | 02:52:40 | 00:00:00 | |
| DO3MHA-11 | 2026-09-01 00:58:08 | 49.38999 | 13.52508 | 96° | 128km/h | 8820m | -11.5m/s | -36.3°C | 20.2% | 328.4hPa | 2.5V | 00:00:00 | 02:52:32 | 00:00:00 | |
| OE5MMP-10 | 2026-09-01 00:58:06 | 49.39006 | 13.52408 | 96° | 128km/h | 8841m | -10.2m/s | -36.4°C | 20.0% | 327.4hPa | 2.5V | 00:00:00 | 02:52:30 | 00:00:00 | |
| PG1ADW-2 | 2026-09-01 00:58:04 | 49.39013 | 13.52308 | 97° | 128km/h | 8861m | -10.3m/s | -36.6°C | 20.4% | 326.4hPa | 2.5V | 00:00:00 | 02:52:28 | 00:00:00 | |
| OE5DRO-10 | 2026-09-01 00:58:00 | 49.39027 | 13.52111 | 96° | 128km/h | 8906m | -11.8m/s | -36.9°C | 21.2% | 324.3hPa | 2.5V | 00:00:00 | 00:00:00 | 00:00:00 | |
| DO3MHA-11 | 2026-09-01 00:57:58 | 49.39034 | 13.52011 | 96° | 130km/h | 8928m | -11.2m/s | -37.1°C | 21.7% | 323.4hPa | 2.5V | 03:09:00 | 02:52:22 | 00:00:00 | |
| OE5MMP-10 | 2026-09-01 00:57:56 | 49.39039 | 13.51910 | 97° | 128km/h | 8950m | -10.8m/s | -37.3°C | 22.1% | 322.3hPa | 2.5V | 00:00:00 | 02:52:20 | 00:00:00 | |
| OE5DXL-15 | 2026-09-01 00:57:50 | 49.39064 | 13.51564 | 98° | 128km/h | 9025m | -11.2m/s | -38.0°C | 21.9% | 318.7hPa | 2.5V | 00:00:00 | 00:00:00 | 00:00:00 | |
| OE5MMP-10 | 2026-09-01 00:57:46 | 49.39077 | 13.51418 | 97° | 128km/h | 9058m | -11.5m/s | -38.3°C | 23.0% | 317.3hPa | 2.5V | 03:09:00 | 02:52:10 | 00:00:00 | |
| PG1ADW-2 | 2026-09-01 00:57:44 | 49.39084 | 13.51320 | 97° | 128km/h | 9082m | -11.0m/s | -38.6°C | 23.7% | 316.2hPa | 2.5V | 00:00:00 | 00:00:00 | 00:00:00 | |
| OE5DRO-10 | 2026-09-01 00:57:41 | 49.39096 | 13.51173 | 98° | 128km/h | 9114m | -11.0m/s | -38.9°C | 24.4% | 314.6hPa | 2.5V | 03:09:00 | 00:00:00 | 00:00:00 | |
| OE5MMP-10 | 2026-09-01 00:57:36 | 49.39117 | 13.50927 | 98° | 128km/h | 9168m | -10.8m/s | -39.4°C | 25.0% | 312.2hPa | 2.6V | 00:00:00 | 02:52:00 | 00:00:00 | |
| OE5MMP-10 | 2026-09-01 00:57:26 | 49.39166 | 13.50436 | 100° | 128km/h | 9274m | -10.1m/s | -40.4°C | 27.9% | 307.3hPa | 2.6V | 00:00:00 | 02:51:50 | 00:00:00 | |
| DO3MHA-11 | 2026-09-01 00:57:24 | 49.39177 | 13.50338 | 100° | 126km/h | 9294m | -10.5m/s | -40.5°C | 27.8% | 306.4hPa | 2.5V | 00:00:00 | 02:51:48 | 00:00:00 | |
| OE5DRO-10 | 2026-09-01 00:57:22 | 49.39188 | 13.50242 | 100° | 128km/h | 9315m | -10.1m/s | -40.7°C | 27.5% | 305.6hPa | 2.5V | 00:00:00 | 00:00:00 | 00:00:00 | |
| OE5DXL-15 | 2026-09-01 00:57:20 | 49.39208 | 13.50047 | 101° | 131km/h | 9356m | -10.0m/s | -41.1°C | 26.8% | 303.6hPa | 2.5V | 00:00:00 | 00:00:00 | 00:00:00 | |
| OE5MMP-10 | 2026-09-01 00:57:16 | 49.39220 | 13.49951 | 103° | 128km/h | 9377m | -11.4m/s | -41.2°C | 26.2% | 302.8hPa | 2.6V | 00:00:00 | 02:51:40 | 00:00:00 | |
| DO3MHA-11 | 2026-09-01 00:57:14 | 49.39232 | 13.49855 | 100° | 128km/h | 9399m | -11.3m/s | -41.4°C | 25.7% | 301.8hPa | 2.6V | 00:00:00 | 02:51:38 | 00:00:00 | |
| OE5MMP-10 | 2026-09-01 00:57:06 | 49.39277 | 13.49463 | 99° | 131km/h | 9485m | -11.0m/s | -42.1°C | 25.1% | 298.0hPa | 2.6V | 03:10:00 | 02:51:30 | 00:00:00 | |
| DO3MHA-11 | 2026-09-01 00:57:04 | 49.39287 | 13.49362 | 99° | 133km/h | 9506m | -10.1m/s | -42.2°C | 25.4% | 297.0hPa | 2.6V | 00:00:00 | 02:51:28 | 00:00:00 | |
| OE5DRO-10 | 2026-09-01 00:57:03 | 49.39292 | 13.49312 | 99° | 135km/h | 9516m | -10.1m/s | -42.2°C | 25.6% | 296.6hPa | 2.6V | 00:00:00 | 00:00:00 | 00:00:00 | |
| NBG1-10 | 2026-09-01 00:57:01 | 49.39302 | 13.49210 | 99° | 66km/h | 9537m | -10.0m/s | -42.3°C | 26.0% | 295.7hPa | 2.6V | 00:00:00 | 02:51:25 | 00:00:00 | |
| OE5MMP-10 | 2026-09-01 00:56:56 | 49.39323 | 13.48953 | 97° | 135km/h | 9589m | -10.3m/s | -42.5°C | 25.6% | 293.4hPa | 2.6V | 00:00:00 | 02:51:20 | 00:00:00 | |
| OE5DXL-15 | 2026-09-01 00:56:50 | 49.39352 | 13.48533 | 95° | 137km/h | 9676m | -11.1m/s | -43.2°C | 27.5% | 289.7hPa | 2.5V | 00:00:00 | 00:00:00 | 00:00:00 | |
| OE5MMP-10 | 2026-09-01 00:56:46 | 49.39358 | 13.48428 | 96° | 137km/h | 9698m | -11.1m/s | -43.5°C | 28.3% | 288.7hPa | 2.5V | 00:00:00 | 02:51:10 | 00:00:00 | |
| OE5DRO-10 | 2026-09-01 00:56:44 | 49.39364 | 13.48323 | 98° | 137km/h | 9722m | -10.8m/s | -43.7°C | 29.0% | 287.8hPa | 2.5V | 00:00:00 | 00:00:00 | 00:00:00 | |
| OE5MMP-10 | 2026-09-01 00:56:36 | 49.39399 | 13.47901 | 98° | 139km/h | 9815m | -12.0m/s | -44.4°C | 32.3% | 283.8hPa | 2.5V | 00:00:00 | 02:51:00 | 00:00:00 | |
| OE5MMP-10 | 2026-09-01 00:56:26 | 49.39457 | 13.47373 | 100° | 139km/h | 9941m | -13.1m/s | -45.3°C | 39.8% | 278.5hPa | 2.5V | 03:10:00 | 02:50:50 | 00:00:00 | |
| OE5DRO-10 | 2026-09-01 00:56:25 | 49.39464 | 13.47320 | 100° | 139km/h | 9954m | -13.1m/s | -45.4°C | 40.1% | 278.0hPa | 2.6V | 03:11:00 | 00:00:00 | 00:00:00 | |
| OE5DXL-15 | 2026-09-01 00:56:20 | 49.39502 | 13.46949 | 100° | 139km/h | 10045m | -13.0m/s | -46.3°C | 44.0% | 274.3hPa | 2.6V | 03:11:00 | 00:00:00 | 00:00:00 | |
| OE5MMP-10 | 2026-09-01 00:56:16 | 49.39513 | 13.46843 | 100° | 139km/h | 10070m | -13.4m/s | -46.6°C | 45.0% | 273.3hPa | 2.6V | 00:00:00 | 02:50:40 | 00:00:00 | |
| OE5MMP-10 | 2026-09-01 00:56:06 | 49.39573 | 13.46311 | 101° | 139km/h | 10200m | -12.7m/s | -47.8°C | 50.2% | 267.9hPa | 2.6V | 00:00:00 | 02:50:30 | 00:00:00 | |
| OE5MMP-10 | 2026-09-01 00:55:56 | 49.39643 | 13.45781 | 101° | 137km/h | 10335m | -12.8m/s | -48.8°C | 47.3% | 262.4hPa | 2.6V | 00:00:00 | 02:50:20 | 00:00:00 | |
| OE5DXL-15 | 2026-09-01 00:55:50 | 49.39698 | 13.45366 | 101° | 133km/h | 10441m | -13.0m/s | -49.6°C | 38.6% | 258.2hPa | 2.6V | 00:00:00 | 00:00:00 | 00:00:00 | |
| OE5DRO-10 | 2026-09-01 00:55:47 | 49.39704 | 13.45315 | 101° | 135km/h | 10454m | -12.9m/s | -49.7°C | 37.6% | 257.7hPa | 2.5V | 00:00:00 | 00:00:00 | 00:00:00 | |
| OE5MMP-10 | 2026-09-01 00:55:46 | 49.39710 | 13.45264 | 102° | 135km/h | 10467m | -12.6m/s | -49.8°C | 36.8% | 257.2hPa | 2.5V | 03:11:00 | 02:50:10 | 00:00:00 | |
| S52SK | 2026-09-01 00:55:40 | 49.39745 | 13.45008 | 103° | 135km/h | 10533m | -12.9m/s | -50.1°C | 29.4% | 254.7hPa | 2.5V | 03:11:00 | 00:00:00 | 00:00:00 | |
| S52SK | 2026-09-01 00:55:35 | 49.39790 | 13.44702 | 103° | 131km/h | 10611m | -13.6m/s | -50.4°C | 28.5% | 251.7hPa | 2.5V | 00:00:00 | 00:00:00 | 00:00:00 | |
| OE5DRO-10 | 2026-09-01 00:55:28 | 49.39834 | 13.44347 | 100° | 130km/h | 10706m | -13.3m/s | -51.1°C | 33.6% | 247.9hPa | 2.5V | 00:00:00 | 00:00:00 | 00:00:00 | |
| OE5MMP-10 | 2026-09-01 00:55:25 | 49.39851 | 13.44198 | 100° | 130km/h | 10746m | -13.1m/s | -51.4°C | 33.5% | 246.4hPa | 2.5V | 00:00:00 | 02:49:49 | 00:00:00 | |
| OE5DXL-15 | 2026-09-01 00:55:20 | 49.39886 | 13.43848 | 100° | 130km/h | 10841m | -13.4m/s | -52.0°C | 34.0% | 242.9hPa | 2.5V | 00:00:00 | 00:00:00 | 00:00:00 | |
| OE5MMP-10 | 2026-09-01 00:55:15 | 49.39901 | 13.43700 | 98° | 128km/h | 10883m | -14.2m/s | -52.2°C | 34.0% | 241.2hPa | 2.5V | 00:00:00 | 02:49:39 | 00:00:00 | |
| OE5DRO-10 | 2026-09-01 00:55:09 | 49.39928 | 13.43356 | 97° | 131km/h | 10985m | -14.7m/s | -53.0°C | 34.7% | 237.6hPa | 2.5V | 03:12:00 | 00:00:00 | 00:00:00 | |
| OE5MMP-10 | 2026-09-01 00:55:05 | 49.39937 | 13.43205 | 95° | 130km/h | 11029m | -14.6m/s | -53.3°C | 34.4% | 236.0hPa | 2.5V | 03:12:00 | 02:49:29 | 00:00:00 | |
| OE5MMP-10 | 2026-09-01 00:54:55 | 49.39953 | 13.42698 | 91° | 133km/h | 11178m | -15.8m/s | -54.4°C | 33.9% | 230.5hPa | 2.5V | 00:00:00 | 02:49:19 | 00:00:00 | |
| OE5DRO-10 | 2026-09-01 00:54:50 | 49.39959 | 13.42335 | 92° | 133km/h | 11279m | -14.8m/s | -55.1°C | 34.0% | 226.9hPa | 2.5V | 00:00:00 | 00:00:00 | 00:00:00 | |
| OE5MMP-10 | 2026-09-01 00:54:45 | 49.39962 | 13.42178 | 94° | 137km/h | 11324m | -15.6m/s | -55.3°C | 33.1% | 225.4hPa | 2.5V | 00:00:00 | 02:49:09 | 00:00:00 | |
| OE5MMP-10 | 2026-09-01 00:54:35 | 49.39988 | 13.41652 | 96° | 130km/h | 11467m | -14.3m/s | -56.0°C | 29.2% | 220.3hPa | 2.5V | 00:00:00 | 02:48:59 | 00:00:00 | |
| OE5DRO-10 | 2026-09-01 00:54:28 | 49.40015 | 13.41206 | 94° | 131km/h | 11596m | -15.8m/s | -55.7°C | 23.4% | 215.8hPa | 2.5V | 00:00:00 | 00:00:00 | 00:00:00 | |
| OE5MMP-10 | 2026-09-01 00:54:25 | 49.40017 | 13.41158 | 94° | 124km/h | 11612m | -15.3m/s | -55.7°C | 23.0% | 215.4hPa | 2.5V | 03:13:00 | 02:48:49 | 00:00:00 | |
| PG1ADW-2 | 2026-09-01 00:54:19 | 49.40020 | 13.40871 | 90° | 120km/h | 11699m | -14.8m/s | -56.1°C | 21.2% | 212.4hPa | 2.6V | 00:00:00 | 02:48:43 | 00:00:00 | |
| DF2AP-13 | 2026-09-01 00:54:18 | 49.40020 | 13.40823 | 90° | 131km/h | 11714m | -14.9m/s | -56.2°C | 20.8% | 212.0hPa | 2.6V | 00:00:00 | 02:48:42 | 00:00:00 | |
| DL6DJ-15 | 2026-09-01 00:54:17 | 49.40019 | 13.40727 | 88° | 122km/h | 11744m | -15.3m/s | -56.4°C | 14.5% | 211.0hPa | 2.6V | 00:00:00 | 00:00:00 | 00:00:00 | |
| OE5MMP-10 | 2026-09-01 00:54:13 | 49.40014 | 13.40584 | 86° | 128km/h | 11790m | -15.7m/s | -56.6°C | 18.3% | 209.4hPa | 2.6V | 00:00:00 | 02:48:37 | 00:00:00 | |
| OE5MMP-10 | 2026-09-01 00:54:03 | 49.39974 | 13.40092 | 81° | 135km/h | 11937m | -13.7m/s | -55.8°C | 12.9% | 204.5hPa | 2.6V | 00:00:00 | 02:48:27 | 00:00:00 | |
| DF7PN | 2026-09-01 00:53:52 | 49.39925 | 13.39514 | 85° | 135km/h | 12107m | -14.8m/s | 0°C | -1.0% | -1.0hPa | 2.6V | 00:00:00 | 00:00:00 | 00:00:00 | |
| DL6DJ-15 | 2026-09-01 00:53:47 | 49.39915 | 13.39207 | 89° | 128km/h | 12197m | -14.1m/s | -53.9°C | 3.7% | 196.4hPa | 2.6V | 00:00:00 | 00:00:00 | 00:00:00 | |
| DO3MHA-11 | 2026-09-01 00:53:46 | 49.39915 | 13.39207 | 90° | 119km/h | 12197m | -14.0m/s | -53.8°C | 6.8% | 196.4hPa | 2.6V | 03:13:00 | 02:48:10 | 00:00:00 | |
| OE5MMP-10 | 2026-09-01 00:53:43 | 49.39914 | 13.39060 | 91° | 117km/h | 12240m | -15.2m/s | -53.2°C | 5.9% | 195.1hPa | 2.6V | 03:13:00 | 02:48:07 | 00:00:00 | |
| PG1ADW-2 | 2026-09-01 00:53:36 | 49.39919 | 13.38740 | 93° | 111km/h | 12348m | -16.2m/s | -53.3°C | 5.4% | 191.8hPa | 2.6V | 00:00:00 | 00:00:00 | 00:00:00 | |
| DO3MHA-11 | 2026-09-01 00:53:35 | 49.39920 | 13.38696 | 92° | 108km/h | 12364m | -15.8m/s | -53.3°C | 5.3% | 191.3hPa | 2.6V | 00:00:00 | 02:47:59 | 00:00:00 | |
| OE5MMP-10 | 2026-09-01 00:53:33 | 49.39921 | 13.38611 | 92° | 102km/h | 12395m | -15.1m/s | -53.3°C | 5.3% | 190.4hPa | 2.6V | 00:00:00 | 02:47:57 | 00:00:00 | |
| OE5DXL-15 | 2026-09-01 00:53:30 | 49.39924 | 13.38406 | 92° | 99km/h | 12471m | -16.1m/s | -53.1°C | 5.1% | 188.1hPa | 2.6V | 03:13:00 | 00:00:00 | 00:00:00 | |
| DO3MHA-11 | 2026-09-01 00:53:25 | 49.39925 | 13.38293 | 90° | 97km/h | 12519m | -16.0m/s | -53.1°C | 5.2% | 186.8hPa | 2.5V | 00:00:00 | 02:47:49 | 00:00:00 | |
| OE5MMP-10 | 2026-09-01 00:53:23 | 49.39925 | 13.38219 | 88° | 93km/h | 12550m | -15.5m/s | -53.2°C | 5.2% | 185.9hPa | 2.5V | 00:00:00 | 02:47:47 | 00:00:00 | |
| DF2AP-13 | 2026-09-01 00:53:18 | 49.39922 | 13.38040 | 89° | 106km/h | 12623m | -14.9m/s | -53.5°C | 5.3% | 183.8hPa | 2.6V | 00:00:00 | 02:47:42 | 00:00:00 | |
| DL6DJ-15 | 2026-09-01 00:53:15 | 49.39922 | 13.37933 | 88° | 93km/h | 12666m | -14.7m/s | -53.7°C | 2.8% | 182.6hPa | 2.6V | 00:00:00 | 00:00:00 | 00:00:00 | |
| OE5MMP-10 | 2026-09-01 00:53:13 | 49.39920 | 13.37860 | 88° | 97km/h | 12693m | -13.7m/s | -53.6°C | 5.7% | 181.7hPa | 2.6V | 00:00:00 | 02:47:37 | 00:00:00 | |
| DO3MHA-11 | 2026-09-01 00:53:09 | 49.39917 | 13.37713 | 88° | 99km/h | 12752m | -14.0m/s | -53.6°C | 5.7% | 180.2hPa | 2.6V | 00:00:00 | 02:47:33 | 00:00:00 | |
| EDDB2-12 | 2026-09-01 00:53:06 | 49.39911 | 13.37564 | 86° | 97km/h | 12806m | -13.2m/s | -53.7°C | 2.8% | 178.6hPa | 2.6V | 00:00:00 | 00:00:00 | 00:00:00 | |
| OE5MMP-10 | 2026-09-01 00:53:03 | 49.39908 | 13.37488 | 86° | 102km/h | 12832m | -12.2m/s | -53.6°C | 5.6% | 177.9hPa | 2.6V | 03:14:00 | 02:47:27 | 00:00:00 | |
| DL6DJ-15 | 2026-09-01 00:52:44 | 49.39843 | 13.36712 | 83° | 111km/h | 13116m | -15.2m/s | -53.6°C | 2.3% | 170.4hPa | 2.6V | 00:00:00 | 00:00:00 | 00:00:00 | |
| OE5MMP-10 | 2026-09-01 00:52:43 | 49.39839 | 13.36668 | 84° | 110km/h | 13132m | -16.7m/s | -53.5°C | 4.9% | 169.9hPa | 2.6V | 00:00:00 | 02:47:07 | 00:00:00 | |
| DF2AP-13 | 2026-09-01 00:52:41 | 49.39833 | 13.36580 | 86° | 106km/h | 13166m | -15.5m/s | -53.4°C | 4.9% | 169.0hPa | 2.6V | 00:00:00 | 02:47:05 | 00:00:00 | |
| DO3MHA-11 | 2026-09-01 00:52:39 | 49.39829 | 13.36495 | 85° | 110km/h | 13196m | -14.8m/s | -53.4°C | 4.8% | 168.2hPa | 2.6V | 00:00:00 | 02:47:03 | 00:00:00 | |
| PG1ADW-2 | 2026-09-01 00:52:37 | 49.39825 | 13.36412 | 85° | 104km/h | 13229m | -15.8m/s | -53.0°C | 4.6% | 167.5hPa | 2.5V | 03:14:00 | 00:00:00 | 00:00:00 | |
| EDDB2-12 | 2026-09-01 00:52:35 | 49.39819 | 13.36328 | 84° | 106km/h | 13261m | -16.4m/s | -53.0°C | 1.9% | 166.7hPa | 2.6V | 00:00:00 | 00:00:00 | 00:00:00 | |
| OE5MMP-10 | 2026-09-01 00:52:33 | 49.39814 | 13.36247 | 86° | 102km/h | 13294m | -17.0m/s | -53.1°C | 4.6% | 165.8hPa | 2.6V | 00:00:00 | 02:46:57 | 00:00:00 | |
| OE3OSB-13 | 2026-09-01 00:52:32 | 49.39809 | 13.36166 | 84° | 102km/h | 13328m | -16.6m/s | -53.3°C | 1.9% | 164.9hPa | 2.6V | 00:00:00 | 00:00:00 | 00:00:00 | |
| OE5MMP-10 | 2026-09-01 00:52:23 | 49.39788 | 13.35852 | 85° | 104km/h | 13461m | -16.4m/s | -54.0°C | 4.8% | 161.5hPa | 2.6V | 03:15:00 | 02:46:47 | 00:00:00 | |
| OE5DRO-10 | 2026-09-01 00:52:22 | 49.39780 | 13.35733 | 85° | 106km/h | 13510m | -16.9m/s | -54.0°C | 4.7% | 160.1hPa | 2.5V | 00:00:00 | 00:00:00 | 00:00:00 | |
| OE5MMP-10 | 2026-09-01 00:52:13 | 49.39761 | 13.35452 | 85° | 108km/h | 13625m | -15.9m/s | -53.3°C | 4.5% | 157.3hPa | 2.5V | 00:00:00 | 02:46:37 | 00:00:00 | |
| DF2AP-13 | 2026-09-01 00:52:10 | 49.39755 | 13.35326 | 87° | 106km/h | 13672m | -15.2m/s | -52.6°C | 4.2% | 156.1hPa | 2.5V | 00:00:00 | 02:46:34 | 00:00:00 | |
| DO3MHA-11 | 2026-09-01 00:52:09 | 49.39753 | 13.35284 | 86° | 100km/h | 13686m | -15.3m/s | -52.6°C | 4.2% | 155.8hPa | 2.5V | 00:00:00 | 02:46:33 | 00:00:00 | |
| OE5MMP-10 | 2026-09-01 00:52:03 | 49.39743 | 13.35035 | 89° | 108km/h | 13774m | -15.6m/s | -52.3°C | 4.2% | 153.7hPa | 2.5V | 00:00:00 | 02:46:27 | 00:00:00 | |
| OE3OSB-13 | 2026-09-01 00:52:01 | 49.39741 | 13.34910 | 88° | 110km/h | 13821m | -15.9m/s | -52.2°C | 1.6% | 152.6hPa | 2.5V | 00:00:00 | 00:00:00 | 00:00:00 | |
| DF3TZ-5 | 2026-09-01 00:51:57 | 49.39742 | 13.34409 | 92° | 102km/h | 14013m | -17.0m/s | 0°C | -1.0% | -1.0hPa | 2.5V | 00:00:00 | 00:00:00 | 00:00:00 | |
| SONDE2-11 | 2026-09-01 00:51:49 | 49.39743 | 13.34369 | 91° | 100km/h | 14031m | -18.0m/s | -52.1°C | 1.5% | 147.8hPa | 2.5V | 00:00:00 | 00:00:00 | 00:00:00 | |
| SP3BTT-10 | 2026-09-01 00:51:47 | 49.39743 | 13.34369 | 92° | 86km/h | 14031m | -17.9m/s | -52.1°C | 4.0% | 147.8hPa | 2.5V | 00:00:00 | 00:00:00 | 00:00:00 | |
| OE5DRO-10 | 2026-09-01 00:51:44 | 49.39745 | 13.34254 | 93° | 95km/h | 14084m | -16.2m/s | -52.3°C | 4.0% | 146.6hPa | 2.5V | 00:00:00 | 00:00:00 | 00:00:00 | |
| OE5MMP-10 | 2026-09-01 00:51:43 | 49.39745 | 13.34215 | 93° | 97km/h | 14101m | -17.1m/s | -52.2°C | 4.0% | 146.2hPa | 2.5V | 03:15:00 | 02:46:07 | 00:00:00 | |
| DL6DJ-15 | 2026-09-01 00:51:42 | 49.39746 | 13.34177 | 94° | 97km/h | 14118m | -16.4m/s | -52.3°C | 1.5% | 145.9hPa | 2.5V | 00:00:00 | 00:00:00 | 00:00:00 | |
| DF2AP-13 | 2026-09-01 00:51:39 | 49.39750 | 13.34064 | 93° | 78km/h | 14168m | -17.2m/s | -52.4°C | 4.0% | 144.6hPa | 2.5V | 03:15:00 | 02:46:03 | 00:00:00 | |
| PG1ADW-2 | 2026-09-01 00:51:33 | 49.39756 | 13.33842 | 93° | 64km/h | 14268m | -16.0m/s | -52.3°C | 4.0% | 142.4hPa | 2.5V | 00:00:00 | 00:00:00 | 00:00:00 | |
| DO3MHA-11 | 2026-09-01 00:51:32 | 49.39757 | 13.33806 | 93° | 91km/h | 14283m | -14.4m/s | -52.2°C | 4.0% | 142.0hPa | 2.5V | 03:15:00 | 02:45:56 | 00:00:00 | |
| OE3OSB-13 | 2026-09-01 00:51:30 | 49.39764 | 13.33487 | 94° | 84km/h | 14424m | -17.4m/s | -51.9°C | 1.4% | 139.1hPa | 2.5V | 00:00:00 | 00:00:00 | 00:00:00 | |
| OE5MMP-10 | 2026-09-01 00:51:23 | 49.39764 | 13.33487 | 95° | 82km/h | 14424m | -17.3m/s | -51.9°C | 4.0% | 139.0hPa | 2.5V | 00:00:00 | 02:45:47 | 00:00:00 | |
| DO3MHA-11 | 2026-09-01 00:51:22 | 49.39765 | 13.33454 | 93° | 71km/h | 14441m | -16.9m/s | -51.8°C | 3.9% | 138.6hPa | 2.5V | 00:00:00 | 02:45:46 | 00:00:00 | |
| OE5DRO-10 | 2026-09-01 00:51:15 | 49.39775 | 13.33229 | 95° | 62km/h | 14560m | -16.6m/s | -51.6°C | 3.8% | 136.2hPa | 2.6V | 00:00:00 | 00:00:00 | 00:00:00 | |
| OE5MMP-10 | 2026-09-01 00:51:13 | 49.39780 | 13.33168 | 98° | 73km/h | 14594m | -16.3m/s | -51.3°C | 3.7% | 135.5hPa | 2.6V | 00:00:00 | 02:45:37 | 00:00:00 | |
| DL6DJ-15 | 2026-09-01 00:51:11 | 49.39785 | 13.33109 | 99° | 75km/h | 14626m | -16.3m/s | -51.1°C | 1.2% | 134.8hPa | 2.6V | 00:00:00 | 00:00:00 | 00:00:00 | |
| OE5MMP-10 | 2026-09-01 00:51:03 | 49.39810 | 13.32889 | 100° | 60km/h | 14754m | -17.6m/s | -50.4°C | 3.5% | 132.2hPa | 2.6V | 03:16:00 | 02:45:27 | 00:00:00 | |
| DG1MFX-10 | 2026-09-01 00:51:02 | 49.39810 | 13.32889 | 100° | 68km/h | 14754m | -17.7m/s | -50.5°C | 1.2% | 132.2hPa | 2.6V | 03:16:00 | 00:00:00 | 00:00:00 | |
| OE3OSB-13 | 2026-09-01 00:50:58 | 49.39828 | 13.32639 | 90° | 53km/h | 14937m | -17.8m/s | -51.1°C | 1.2% | 128.6hPa | 2.6V | 00:00:00 | 00:00:00 | 00:00:00 | |
| S52SK | 2026-09-01 00:50:55 | 49.39823 | 13.32723 | 98° | 57km/h | 14871m | -15.1m/s | -50.9°C | 1.2% | 129.8hPa | 2.6V | 00:00:00 | 00:00:00 | 00:00:00 | |
| DO3MHA-11 | 2026-09-01 00:50:54 | 49.39827 | 13.32681 | 92° | 53km/h | 14903m | -17.7m/s | -51.0°C | 3.5% | 129.2hPa | 2.6V | 00:00:00 | 02:45:18 | 00:00:00 | |
| OE5MMP-10 | 2026-09-01 00:50:53 | 49.39827 | 13.32660 | 92° | 53km/h | 14920m | -16.8m/s | -51.0°C | 3.5% | 128.8hPa | 2.6V | 00:00:00 | 02:45:17 | 00:00:00 | |
| OE5DRO-10 | 2026-09-01 00:50:52 | 49.39827 | 13.32639 | 91° | 53km/h | 14937m | -17.7m/s | -51.1°C | 3.6% | 128.6hPa | 2.6V | 00:00:00 | 00:00:00 | 00:00:00 | |
| S52SK | 2026-09-01 00:50:50 | 49.39828 | 13.32618 | 88° | 53km/h | 14954m | -17.3m/s | -51.2°C | 1.2% | 128.2hPa | 2.6V | 00:00:00 | 00:00:00 | 00:00:00 | |
| DO3MHA-11 | 2026-09-01 00:50:44 | 49.39818 | 13.32476 | 83° | 49km/h | 15070m | -16.3m/s | -51.2°C | 3.6% | 125.9hPa | 2.6V | 00:00:00 | 02:45:08 | 00:00:00 | |
| OE5MMP-10 | 2026-09-01 00:50:43 | 49.39816 | 13.32456 | 79° | 53km/h | 15086m | -15.2m/s | -51.2°C | 3.6% | 125.5hPa | 2.6V | 00:00:00 | 02:45:07 | 00:00:00 | |
| DG1MFX-10 | 2026-09-01 00:50:41 | 49.39814 | 13.32436 | 81° | 51km/h | 15101m | -16.2m/s | -51.3°C | 1.2% | 125.3hPa | 2.6V | 03:16:00 | 00:00:00 | 00:00:00 | |
| DL6DJ-15 | 2026-09-01 00:50:40 | 49.39809 | 13.32397 | 81° | 51km/h | 15134m | -17.0m/s | -51.4°C | 1.2% | 124.7hPa | 2.6V | 00:00:00 | 00:00:00 | 00:00:00 | |
| DO8TBO-1 | 2026-09-01 00:50:34 | 49.39802 | 13.32275 | 88° | 60km/h | 15234m | -18.5m/s | -51.6°C | 3.6% | 122.7hPa | 2.6V | 03:16:00 | 02:44:58 | 00:00:00 | |
| OE5MMP-10 | 2026-09-01 00:50:33 | 49.39801 | 13.32255 | 86° | 53km/h | 15253m | -18.6m/s | -51.7°C | 3.6% | 122.4hPa | 2.5V | 00:00:00 | 02:44:57 | 00:00:00 | |
| OE3OSB-13 | 2026-09-01 00:50:27 | 49.39791 | 13.32133 | 79° | 51km/h | 15359m | -18.1m/s | -52.0°C | 1.2% | 120.5hPa | 2.5V | 00:00:00 | 00:00:00 | 00:00:00 | |
| OE5MMP-10 | 2026-09-01 00:50:23 | 49.39781 | 13.32053 | 83° | 49km/h | 15432m | -18.9m/s | -52.1°C | 3.7% | 119.1hPa | 2.5V | 03:17:00 | 02:44:47 | 00:00:00 | |
| DG1MFX-10 | 2026-09-01 00:50:21 | 49.39780 | 13.32035 | 82° | 47km/h | 15451m | -18.0m/s | -52.3°C | 1.3% | 118.4hPa | 2.5V | 03:17:00 | 00:00:00 | 00:00:00 | |
| OE5MMP-10 | 2026-09-01 00:50:13 | 49.39753 | 13.31872 | 69° | 53km/h | 15613m | -17.3m/s | -52.8°C | 3.9% | 115.8hPa | 2.5V | 00:00:00 | 02:44:37 | 00:00:00 | |
| DO3MHA-11 | 2026-09-01 00:50:12 | 49.39749 | 13.31854 | 71° | 53km/h | 15630m | -16.9m/s | -52.8°C | 3.9% | 115.5hPa | 2.5V | 03:17:00 | 02:44:36 | 00:00:00 | |
| OE5DRO-10 | 2026-09-01 00:50:11 | 49.39744 | 13.31836 | 72° | 60km/h | 15647m | -15.9m/s | -52.8°C | 3.9% | 115.2hPa | 2.5V | 00:00:00 | 00:00:00 | 00:00:00 | |
| DL6DJ-15 | 2026-09-01 00:50:09 | 49.39732 | 13.31780 | 69° | 49km/h | 15698m | -18.0m/s | -52.6°C | 1.2% | 114.3hPa | 2.5V | 00:00:00 | 00:00:00 | 00:00:00 | |
| OE5MMP-10 | 2026-09-01 00:50:03 | 49.39709 | 13.31680 | 71° | 66km/h | 15784m | -15.8m/s | -52.7°C | 4.0% | 112.7hPa | 2.5V | 00:00:00 | 02:44:27 | 00:00:00 | |
| DO3MHA-11 | 2026-09-01 00:50:02 | 49.39704 | 13.31658 | 72° | 66km/h | 15800m | -16.9m/s | -52.8°C | 4.0% | 112.5hPa | 2.5V | 00:00:00 | 02:44:26 | 00:00:00 | |
| EDDB2-12 | 2026-09-01 00:50:00 | 49.39677 | 13.31511 | 76° | 68km/h | 15902m | -17.4m/s | -53.2°C | 1.3% | 110.8hPa | 2.5V | 00:00:00 | 00:00:00 | 00:00:00 | |
| OE3OSB-13 | 2026-09-01 00:49:56 | 49.39677 | 13.31511 | 76° | 68km/h | 15902m | -17.4m/s | -53.2°C | 1.3% | 110.8hPa | 2.5V | 00:00:00 | 00:00:00 | 00:00:00 | |
| OE5MMP-10 | 2026-09-01 00:49:53 | 49.39666 | 13.31434 | 80° | 64km/h | 15954m | -16.9m/s | -53.2°C | 4.3% | 109.8hPa | 2.5V | 00:00:00 | 02:44:17 | 00:00:00 | |
| DM0DOS-11 | 2026-09-01 00:49:52 | 49.39655 | 13.31285 | 86° | 64km/h | 16050m | -17.4m/s | -52.8°C | 4.2% | 108.2hPa | 2.6V | 03:17:38 | 02:44:11 | 00:00:00 | |
| DO3MHA-11 | 2026-09-01 00:49:52 | 49.39662 | 13.31408 | 81° | 64km/h | 15971m | -16.0m/s | -53.0°C | 4.2% | 109.5hPa | 2.5V | 00:00:00 | 02:44:16 | 00:00:00 | |
| PETON7-10 | 2026-09-01 00:49:44 | 49.39652 | 13.31211 | 86° | 46km/h | 16100m | -15.9m/s | -52.7°C | 4.2% | 107.3hPa | 2.5V | 03:17:00 | 00:00:00 | 00:00:00 | |
| OE5MMP-10 | 2026-09-01 00:49:43 | 49.39651 | 13.31186 | 86° | 58km/h | 16115m | -16.4m/s | -52.6°C | 4.1% | 107.1hPa | 2.6V | 03:17:00 | 02:44:07 | 00:00:00 | |
| DO3MHA-11 | 2026-09-01 00:49:42 | 49.39650 | 13.31162 | 86° | 57km/h | 16132m | -16.5m/s | -52.3°C | 4.0% | 106.8hPa | 2.6V | 00:00:00 | 02:44:06 | 00:00:00 | |
| DG1MFX-10 | 2026-09-01 00:49:40 | 49.39649 | 13.31138 | 85° | 60km/h | 16149m | -16.6m/s | -51.9°C | 1.3% | 106.6hPa | 2.5V | 03:17:00 | 00:00:00 | 00:00:00 | |
| DL6DJ-15 | 2026-09-01 00:49:38 | 49.39644 | 13.31048 | 87° | 55km/h | 16214m | -17.7m/s | -51.7°C | 1.2% | 105.5hPa | 2.5V | 00:00:00 | 00:00:00 | 00:00:00 | |
| OE5MMP-10 | 2026-09-01 00:49:33 | 49.39644 | 13.30965 | 91° | 46km/h | 16286m | -19.9m/s | -50.3°C | 3.3% | 104.4hPa | 2.5V | 00:00:00 | 02:43:57 | 00:00:00 | |
| DO3MHA-11 | 2026-09-01 00:49:32 | 49.39644 | 13.30945 | 93° | 44km/h | 16305m | -19.2m/s | -50.4°C | 3.4% | 104.0hPa | 2.5V | 03:17:00 | 02:43:56 | 00:00:00 | |
| OE5MMP-10 | 2026-09-01 00:49:23 | 49.39653 | 13.30795 | 103° | 27km/h | 16468m | -18.3m/s | -50.5°C | 3.4% | 101.5hPa | 2.5V | 00:00:00 | 02:43:47 | 00:00:00 | |
| DO3MHA-11 | 2026-09-01 00:49:22 | 49.39656 | 13.30782 | 105° | 26km/h | 16486m | -19.9m/s | -50.2°C | 3.2% | 101.2hPa | 2.5V | 00:00:00 | 02:43:46 | 00:00:00 | |
| DG1MFX-10 | 2026-09-01 00:49:20 | 49.39657 | 13.30770 | 99° | 29km/h | 16506m | -19.0m/s | -50.2°C | 1.0% | 100.9hPa | 2.5V | 03:18:00 | 00:00:00 | 00:00:00 | |
| PETON7-10 | 2026-09-01 00:49:16 | 49.39660 | 13.30720 | 99° | 26km/h | 16603m | -20.0m/s | -50.8°C | 3.3% | 99.4hPa | 2.5V | 00:00:00 | 00:00:00 | 00:00:00 | |
| DM0DOS-11 | 2026-09-01 00:49:14 | 49.39660 | 13.30693 | 85° | 22km/h | 16664m | -20.5m/s | -51.3°C | 3.4% | 98.5hPa | 2.5V | 03:18:12 | 02:43:37 | 00:00:00 | |
| OE5DRO-10 | 2026-09-01 00:49:14 | 49.39660 | 13.30693 | 86° | 26km/h | 16665m | -20.4m/s | -51.3°C | 3.4% | 98.5hPa | 2.5V | 03:18:00 | 00:00:00 | 00:00:00 | |
| OE5MMP-10 | 2026-09-01 00:49:13 | 49.39660 | 13.30693 | 86° | 26km/h | 16665m | -20.4m/s | -51.3°C | 3.4% | 98.5hPa | 2.6V | 00:00:00 | 02:43:37 | 00:00:00 | |
| DO3MHA-11 | 2026-09-01 00:49:12 | 49.39659 | 13.30684 | 95° | 26km/h | 16684m | -20.4m/s | -51.5°C | 3.4% | 98.2hPa | 2.6V | 00:00:00 | 02:43:36 | 00:00:00 | |
| S52SK | 2026-09-01 00:49:09 | 49.39657 | 13.30657 | 87° | 24km/h | 16747m | -21.1m/s | -51.8°C | 1.1% | 97.3hPa | 2.5V | 00:00:00 | 00:00:00 | 00:00:00 | |
| DM0DOS-11 | 2026-09-01 00:49:08 | 49.39653 | 13.30595 | 79° | 26km/h | 16872m | -21.5m/s | -52.7°C | 3.7% | 95.5hPa | 2.5V | 03:18:22 | 02:43:27 | 00:00:00 | |
| DL6DJ-15 | 2026-09-01 00:49:07 | 49.39656 | 13.30626 | 91° | 26km/h | 16810m | -20.6m/s | -52.2°C | 1.1% | 96.4hPa | 2.5V | 00:00:00 | 00:00:00 | 00:00:00 | |
| OE5MMP-10 | 2026-09-01 00:49:03 | 49.39653 | 13.30595 | 80° | 29km/h | 16873m | -21.4m/s | -52.7°C | 3.7% | 95.4hPa | 2.5V | 03:18:00 | 02:43:27 | 00:00:00 | |
| DO3MHA-11 | 2026-09-01 00:49:02 | 49.39652 | 13.30586 | 77° | 31km/h | 16894m | -20.8m/s | -52.8°C | 3.8% | 95.1hPa | 2.5V | 00:00:00 | 02:43:26 | 00:00:00 | |
| PETON7-10 | 2026-09-01 00:49:01 | 49.39651 | 13.30577 | 70° | 35km/h | 16914m | -21.3m/s | -53.0°C | 3.8% | 94.8hPa | 2.5V | 00:00:00 | 02:43:25 | 00:00:00 | |
| DM0DOS-11 | 2026-09-01 00:48:58 | 49.39623 | 13.30493 | 62° | 37km/h | 17076m | -21.4m/s | -54.3°C | 4.2% | 92.5hPa | 2.5V | 03:18:32 | 02:43:17 | 00:00:00 | |
| OE5DRO-10 | 2026-09-01 00:48:55 | 49.39630 | 13.30517 | 66° | 44km/h | 17034m | -20.1m/s | -54.0°C | 4.2% | 93.0hPa | 2.5V | 00:00:00 | 00:00:00 | 00:00:00 | |
| OE5MMP-10 | 2026-09-01 00:48:53 | 49.39623 | 13.30493 | 63° | 44km/h | 17076m | -21.3m/s | -54.3°C | 4.2% | 92.4hPa | 2.5V | 00:00:00 | 02:43:17 | 00:00:00 | |
| PETON7-10 | 2026-09-01 00:48:46 | 49.39590 | 13.30392 | 71° | 46km/h | 17226m | -21.2m/s | -54.0°C | 4.2% | 90.3hPa | 2.6V | 00:00:00 | 00:00:00 | 00:00:00 | |
| OE5MMP-10 | 2026-09-01 00:48:43 | 49.39577 | 13.30338 | 73° | 46km/h | 17288m | -20.5m/s | -53.8°C | 4.2% | 89.4hPa | 2.5V | 00:00:00 | 02:43:07 | 00:00:00 | |
| DO8TBO-1 | 2026-09-01 00:48:39 | 49.39567 | 13.30267 | 85° | 35km/h | 17372m | -21.6m/s | -53.5°C | 4.0% | 88.3hPa | 2.5V | 00:00:00 | 02:43:03 | 00:00:00 | |
| DO3MHA-11 | 2026-09-01 00:48:37 | 49.39566 | 13.30230 | 88° | 40km/h | 17415m | -20.9m/s | -53.5°C | 4.1% | 87.7hPa | 2.6V | 03:18:00 | 02:43:01 | 00:00:00 | |
| OE5DRO-10 | 2026-09-01 00:48:36 | 49.39565 | 13.30213 | 91° | 31km/h | 17436m | -22.0m/s | -53.4°C | 4.1% | 87.4hPa | 2.6V | 00:00:00 | 00:00:00 | 00:00:00 | |
| DG1MFX-10 | 2026-09-01 00:48:35 | 49.39565 | 13.30213 | 92° | 44km/h | 17436m | -22.0m/s | -53.5°C | 1.3% | 87.4hPa | 2.6V | 00:00:00 | 00:00:00 | 00:00:00 | |
| OE5MMP-10 | 2026-09-01 00:48:33 | 49.39568 | 13.30163 | 98° | 35km/h | 17500m | -20.0m/s | -53.4°C | 4.1% | 86.5hPa | 2.6V | 00:00:00 | 02:42:57 | 00:00:00 | |
| PETON7-10 | 2026-09-01 00:48:31 | 49.39570 | 13.30132 | 100° | 26km/h | 17543m | -21.8m/s | -53.6°C | 4.1% | 85.9hPa | 2.6V | 03:18:00 | 00:00:00 | 00:00:00 | |
| DM0DOS-11 | 2026-09-01 00:48:30 | 49.39579 | 13.30079 | 101° | 31km/h | 17634m | -23m/s | -53.8°C | 4.1% | 84.8hPa | 2.6V | 03:18:58 | 02:42:51 | 00:00:00 | |
| DO3MHA-11 | 2026-09-01 00:48:27 | 49.39579 | 13.30079 | 102° | 22km/h | 17634m | -22.9m/s | -53.8°C | 4.1% | 84.8hPa | 2.6V | 00:00:00 | 02:42:51 | 00:00:00 | |
| DL3JIN-12 | 2026-09-01 00:48:24 | 49.39582 | 13.30058 | 102° | 27km/h | 17681m | -21.5m/s | -53.6°C | 1.2% | 84.2hPa | 2.5V | 03:19:00 | 00:00:00 | 00:00:00 | |
| OE5MMP-10 | 2026-09-01 00:48:23 | 49.39584 | 13.30039 | 97° | 18km/h | 17723m | -21.5m/s | -53.5°C | 4.0% | 83.5hPa | 2.5V | 03:19:00 | 02:42:47 | 00:00:00 | |
| DM0DOS-11 | 2026-09-01 00:48:20 | 49.39579 | 13.29978 | 69° | 18km/h | 17916m | -21.4m/s | -52.9°C | 3.8% | 81.1hPa | 2.5V | 03:19:11 | 02:42:38 | 00:00:00 | |
| DO3MHA-11 | 2026-09-01 00:48:17 | 49.39583 | 13.29999 | 78° | 26km/h | 17853m | -22.1m/s | -52.5°C | 3.7% | 81.9hPa | 2.5V | 00:00:00 | 02:42:41 | 00:00:00 | |
| PETON7-10 | 2026-09-01 00:48:16 | 49.39582 | 13.29992 | 75° | 24km/h | 17874m | -21.5m/s | -52.6°C | 3.7% | 81.6hPa | 2.5V | 00:00:00 | 02:42:40 | 00:00:00 | |
| DG1MFX-10 | 2026-09-01 00:48:14 | 49.39581 | 13.29984 | 74° | 20km/h | 17895m | -22.0m/s | -52.8°C | 1.1% | 81.4hPa | 2.5V | 00:00:00 | 00:00:00 | 00:00:00 | |
| OE5MMP-10 | 2026-09-01 00:48:13 | 49.39577 | 13.29971 | 61° | 26km/h | 17938m | -21.7m/s | -52.9°C | 3.9% | 80.8hPa | 2.5V | 00:00:00 | 02:42:37 | 00:00:00 | |
| SONDE2-11 | 2026-09-01 00:48:11 | 49.39568 | 13.29948 | 56° | 26km/h | 18001m | -20.8m/s | -53.1°C | 1.2% | 80.0hPa | 2.5V | 00:00:00 | 00:00:00 | 00:00:00 | |
| DO8TBO-1 | 2026-09-01 00:48:09 | 49.39565 | 13.29940 | 65° | 27km/h | 18022m | -20.5m/s | -53.2°C | 4.0% | 79.7hPa | 2.5V | 03:19:00 | 02:42:33 | 00:00:00 | |
| DL1JEZ-13 | 2026-09-01 00:48:04 | 49.39554 | 13.29903 | 63° | 27km/h | 18107m | -21.4m/s | -53.5°C | 1.2% | 78.8hPa | 2.5V | 03:19:00 | 00:00:00 | 00:00:00 | |
| DO3MHA-11 | 2026-09-01 00:48:03 | 49.39548 | 13.29885 | 63° | 24km/h | 18151m | -21.7m/s | -53.7°C | 4.0% | 78.2hPa | 2.5V | 00:00:00 | 02:42:27 | 00:00:00 | |
| OE3OSB-13 | 2026-09-01 00:47:52 | 49.39522 | 13.29799 | 68° | 16km/h | 18395m | -21.9m/s | -53.0°C | 1.1% | 75.3hPa | 2.5V | 00:00:00 | 00:00:00 | 00:00:00 | |
| DM0DOS-11 | 2026-09-01 00:47:47 | 49.39516 | 13.29757 | 82° | 16km/h | 18571m | -23.5m/s | -53.6°C | 3.9% | 73.3hPa | 2.5V | 03:19:41 | 02:42:08 | 00:00:00 | |
| PETON7-10 | 2026-09-01 00:47:45 | 49.39516 | 13.29764 | 88° | 26km/h | 18547m | -23.6m/s | -53.5°C | 3.9% | 73.5hPa | 2.5V | 00:00:00 | 00:00:00 | 00:00:00 | |
| DO3MHA-11 | 2026-09-01 00:47:43 | 49.39516 | 13.29750 | 83° | 26km/h | 18595m | -23.2m/s | -53.5°C | 3.9% | 73.0hPa | 2.5V | 00:00:00 | 02:42:07 | 00:00:00 | |
| SP3BTT-10 | 2026-09-01 00:47:40 | 49.39516 | 13.29721 | 100° | 20km/h | 18665m | -22.4m/s | -53.4°C | 3.8% | 72.2hPa | 2.5V | 03:19:00 | 00:00:00 | 00:00:00 | |
| OE5DRO-10 | 2026-09-01 00:47:39 | 49.39518 | 13.29702 | 97° | 29km/h | 18709m | -22.2m/s | -53.6°C | 3.9% | 71.8hPa | 2.5V | 00:00:00 | 00:00:00 | 00:00:00 | |
| OE5MMP-10 | 2026-09-01 00:47:33 | 49.39517 | 13.29649 | 80° | 29km/h | 18817m | -22.5m/s | -53.9°C | 4.1% | 70.5hPa | 2.5V | 00:00:00 | 02:41:57 | 00:00:00 | |
| PETON7-10 | 2026-09-01 00:47:30 | 49.39512 | 13.29616 | 74° | 27km/h | 18882m | -20.9m/s | -54.0°C | 4.2% | 69.7hPa | 2.5V | 03:19:00 | 02:41:54 | 00:00:00 | |
| DO8TBO-1 | 2026-09-01 00:47:28 | 49.39508 | 13.29595 | 70° | 20km/h | 18926m | -21.6m/s | -54.2°C | 4.2% | 69.3hPa | 2.5V | 00:00:00 | 02:41:52 | 00:00:00 | |
| PG1ADW-2 | 2026-09-01 00:47:26 | 49.39504 | 13.29574 | 74° | 24km/h | 18967m | -20.1m/s | -54.4°C | 4.4% | 68.8hPa | 2.5V | 03:19:00 | 00:00:00 | 00:00:00 | |
| EDDB2-12 | 2026-09-01 00:47:25 | 49.39501 | 13.29554 | 76° | 26km/h | 19009m | -20.2m/s | -54.4°C | 1.2% | 68.4hPa | 2.5V | 00:00:00 | 00:00:00 | 00:00:00 | |
| DO3MHA-11 | 2026-09-01 00:47:23 | 49.39500 | 13.29542 | 84° | 27km/h | 19030m | -21.3m/s | -54.2°C | 4.3% | 68.2hPa | 2.5V | 00:00:00 | 02:41:47 | 00:00:00 | |
| OE3OSB-13 | 2026-09-01 00:47:21 | 49.39499 | 13.29520 | 92° | 29km/h | 19071m | -19.9m/s | -54.1°C | 1.2% | 67.8hPa | 2.5V | 00:00:00 | 00:00:00 | 00:00:00 | |
| OE5DRO-10 | 2026-09-01 00:47:20 | 49.39501 | 13.29497 | 99° | 24km/h | 19112m | -21.7m/s | -54.0°C | 4.2% | 67.3hPa | 2.5V | 00:00:00 | 00:00:00 | 00:00:00 | |
| PETON7-10 | 2026-09-01 00:47:15 | 49.39501 | 13.29459 | 79° | 22km/h | 19199m | -21.3m/s | -54.2°C | 4.3% | 66.4hPa | 2.5V | 00:00:00 | 00:00:00 | 00:00:00 | |
| DO3MHA-11 | 2026-09-01 00:47:13 | 49.39499 | 13.29442 | 74° | 24km/h | 19242m | -21.2m/s | -53.8°C | 4.3% | 66.0hPa | 2.6V | 03:20:00 | 02:41:37 | 00:00:00 | |
| S52SK | 2026-09-01 00:47:10 | 49.39495 | 13.29428 | 58° | 22km/h | 19288m | -24.3m/s | -53.0°C | 1.1% | 65.6hPa | 2.6V | 03:20:00 | 00:00:00 | 00:00:00 | |
| SONDE2-11 | 2026-09-01 00:47:09 | 49.39488 | 13.29415 | 47° | 24km/h | 19337m | -24.5m/s | -52.6°C | 1.0% | 65.1hPa | 2.6V | 00:00:00 | 00:00:00 | 00:00:00 | |
| PG1ADW-2 | 2026-09-01 00:47:06 | 49.39476 | 13.29397 | 41° | 22km/h | 19409m | -23.6m/s | -53.0°C | 3.8% | 64.3hPa | 2.6V | 00:00:00 | 00:00:00 | 00:00:00 | |
| S52SK | 2026-09-01 00:47:04 | 49.39472 | 13.29391 | 46° | 24km/h | 19433m | -23.8m/s | -53.3°C | 1.1% | 64.1hPa | 2.5V | 00:00:00 | 00:00:00 | 00:00:00 | |
| DO3MHA-11 | 2026-09-01 00:47:03 | 49.39464 | 13.29378 | 50° | 11km/h | 19480m | -23.9m/s | -53.6°C | 4.0% | 63.6hPa | 2.5V | 00:00:00 | 02:41:27 | 00:00:00 | |
| DL6DJ-15 | 2026-09-01 00:47:02 | 49.39460 | 13.29372 | 50° | 18km/h | 19504m | -23.2m/s | -53.8°C | 1.1% | 63.4hPa | 2.5V | 00:00:00 | 00:00:00 | 00:00:00 | |
| OE3OSB-13 | 2026-09-01 00:46:50 | 49.39436 | 13.29346 | 22° | 16km/h | 19789m | -23.6m/s | -53.2°C | 1.1% | 60.6hPa | 2.5V | 00:00:00 | 00:00:00 | 00:00:00 | |
| PETON7-10 | 2026-09-01 00:46:45 | 49.39418 | 13.29324 | 55° | 18km/h | 19908m | -24.2m/s | -53.4°C | 4.0% | 59.5hPa | 2.5V | 00:00:00 | 02:41:09 | 00:00:00 | |
| OE5MMP-10 | 2026-09-01 00:46:43 | 49.39413 | 13.29311 | 62° | 18km/h | 19955m | -22.4m/s | -53.5°C | 4.1% | 59.0hPa | 2.5V | 00:00:00 | 02:41:07 | 00:00:00 | |
| DL3JIN-12 | 2026-09-01 00:46:42 | 49.39413 | 13.29311 | 62° | 18km/h | 19955m | -22.4m/s | -53.6°C | 1.2% | 59.1hPa | 2.5V | 03:21:00 | 00:00:00 | 00:00:00 | |
| DO3MHA-11 | 2026-09-01 00:46:40 | 49.39408 | 13.29290 | 74° | 18km/h | 20021m | -21.6m/s | -53.5°C | 4.1% | 58.4hPa | 2.5V | 00:00:00 | 02:41:04 | 00:00:00 | |
| DL1JEZ-13 | 2026-09-01 00:46:37 | 49.39405 | 13.29276 | 80° | 18km/h | 20065m | -22.3m/s | -53.5°C | 1.2% | 58.0hPa | 2.5V | 00:00:00 | 00:00:00 | 00:00:00 | |
| OE5MMP-10 | 2026-09-01 00:46:33 | 49.39399 | 13.29244 | 62° | 16km/h | 20174m | -22.1m/s | -53.7°C | 4.1% | 57.1hPa | 2.5V | 00:00:00 | 02:40:57 | 00:00:00 | |
| DL6DJ-15 | 2026-09-01 00:46:31 | 49.39395 | 13.29231 | 65° | 20km/h | 20219m | -22.0m/s | -53.8°C | 1.2% | 56.7hPa | 2.5V | 00:00:00 | 00:00:00 | 00:00:00 | |
| PETON7-10 | 2026-09-01 00:46:30 | 49.39393 | 13.29224 | 74° | 15km/h | 20240m | -20.7m/s | -53.8°C | 4.2% | 56.5hPa | 2.5V | 03:20:00 | 00:00:00 | 00:00:00 | |
| SP3BTT-10 | 2026-09-01 00:46:29 | 49.39392 | 13.29217 | 65° | 15km/h | 20261m | -21.4m/s | -53.8°C | 4.2% | 56.3hPa | 2.6V | 00:00:00 | 00:00:00 | 00:00:00 | |
| OE5MMP-10 | 2026-09-01 00:46:23 | 49.39392 | 13.29184 | 114° | 11km/h | 20388m | -20.5m/s | -53.7°C | 4.1% | 55.1hPa | 2.6V | 03:21:00 | 02:40:47 | 00:00:00 | |
| EDDB2-11 | 2026-09-01 00:46:21 | 49.39396 | 13.29174 | 125° | 13km/h | 20432m | -22.4m/s | -53.5°C | 1.1% | 54.8hPa | 2.5V | 00:00:00 | 00:00:00 | 00:00:00 | |
| PG1ADW-2 | 2026-09-01 00:46:20 | 49.39397 | 13.29169 | 114° | 7km/h | 20454m | -21.7m/s | -53.2°C | 4.0% | 54.6hPa | 2.5V | 00:00:00 | 02:40:44 | 00:00:00 | |
| PETON7-10 | 2026-09-01 00:46:15 | 49.39402 | 13.29150 | 115° | 7km/h | 20558m | -20.1m/s | -52.9°C | 3.9% | 53.7hPa | 2.5V | 00:00:00 | 00:00:00 | 00:00:00 | |
| OE5MMP-10 | 2026-09-01 00:46:13 | 49.39403 | 13.29144 | 117° | 5km/h | 20598m | -18.2m/s | -52.9°C | 3.8% | 53.3hPa | 2.5V | 00:00:00 | 02:40:37 | 00:00:00 | |
| OE5MMP-10 | 2026-09-01 00:46:03 | 49.39410 | 13.29128 | 77° | 9km/h | 20807m | -19.8m/s | -53.1°C | 3.8% | 51.7hPa | 2.5V | 00:00:00 | 02:40:27 | 00:00:00 | |
| DM0DOS-11 | 2026-09-01 00:46:01 | 49.39398 | 13.29118 | 0° | 9km/h | 20950m | -22.3m/s | -53.6°C | 4% | 50.5hPa | 2.5V | 03:21:29 | 02:40:20 | 00:00:00 | |
| DL6DJ-15 | 2026-09-01 00:46:00 | 49.39406 | 13.29122 | 17° | 9km/h | 20863m | -21.1m/s | -53.3°C | 1.0% | 51.3hPa | 2.5V | 00:00:00 | 00:00:00 | 00:00:00 | |
| EDDB2-12 | 2026-09-01 00:45:52 | 49.39389 | 13.29115 | 286° | 2km/h | 21087m | -17.2m/s | -54.3°C | 1.1% | 49.5hPa | 2.5V | 00:00:00 | 00:00:00 | 00:00:00 | |
| OE3OSB-13 | 2026-09-01 00:45:48 | 49.39389 | 13.29119 | 261° | 7km/h | 21127m | -21.5m/s | -54.2°C | 1.1% | 49.2hPa | 2.5V | 00:00:00 | 00:00:00 | 00:00:00 | |
| DM0DOS-11 | 2026-09-01 00:45:46 | 49.39388 | 13.29126 | 286° | 9km/h | 21168m | -20.6m/s | -54.3°C | 4.2% | 48.9hPa | 2.5V | 03:21:40 | 02:40:09 | 00:00:00 | |
| PETON7-10 | 2026-09-01 00:45:45 | 49.39388 | 13.29126 | 287° | 15km/h | 21169m | -20.6m/s | -54.2°C | 4.2% | 48.8hPa | 2.5V | 00:00:00 | 00:00:00 | 00:00:00 | |
| DK5PH-5 | 2026-09-01 00:45:43 | 49.39386 | 13.29132 | 296° | 15km/h | 21211m | -20.2m/s | 0°C | 0% | 0hPa | 2.6V | 00:00:00 | 02:40:07 | 00:00:00 | |
| DO3MHA-11 | 2026-09-01 00:45:40 | 49.39383 | 13.29140 | 321° | 16km/h | 21272m | -22.2m/s | -54.0°C | 4.1% | 48.1hPa | 2.6V | 00:00:00 | 02:40:04 | 00:00:00 | |
| PG1ADW-2 | 2026-09-01 00:45:39 | 49.39381 | 13.29142 | 342° | 18km/h | 21294m | -22.2m/s | -54.0°C | 4.2% | 47.9hPa | 2.6V | 03:21:00 | 00:00:00 | 00:00:00 | |
| OE5MMP-10 | 2026-09-01 00:45:33 | 49.39356 | 13.29142 | 2° | 22km/h | 21425m | -21.0m/s | -54.7°C | 4.5% | 46.9hPa | 2.5V | 00:00:00 | 02:39:57 | 00:00:00 | |
| DM0DOS-11 | 2026-09-01 00:45:30 | 49.39310 | 13.29119 | 34° | 22km/h | 21622m | -21m/s | -54°C | 4.3% | 45.5hPa | 2.5V | 03:22:01 | 02:39:48 | 00:00:00 | |
| DL6DJ-15 | 2026-09-01 00:45:29 | 49.39335 | 13.29137 | 15° | 22km/h | 21513m | -23.4m/s | -54.2°C | 1.1% | 46.3hPa | 2.5V | 00:00:00 | 00:00:00 | 00:00:00 | |
| OE5MMP-10 | 2026-09-01 00:45:23 | 49.39306 | 13.29114 | 35° | 18km/h | 21643m | -20.5m/s | -54.0°C | 4.2% | 45.3hPa | 2.5V | 00:00:00 | 02:39:47 | 00:00:00 | |
| EDDB2-12 | 2026-09-01 00:45:21 | 49.39293 | 13.29101 | 35° | 20km/h | 21701m | -20.6m/s | -53.7°C | 1.1% | 44.9hPa | 2.5V | 00:00:00 | 00:00:00 | 00:00:00 | |
| DO3MHA-11 | 2026-09-01 00:45:20 | 49.39293 | 13.29101 | 36° | 15km/h | 21701m | -20.6m/s | -53.6°C | 4.1% | 44.9hPa | 2.5V | 00:00:00 | 02:39:44 | 00:00:00 | |
| DM0DOS-11 | 2026-09-01 00:45:19 | 49.39270 | 13.29077 | 51° | 9km/h | 21848m | -21.8m/s | -53.4°C | 4% | 43.9hPa | 2.5V | 03:22:12 | 02:39:37 | 00:00:00 | |
| OE3OSB-13 | 2026-09-01 00:45:18 | 49.39278 | 13.29086 | 28° | 15km/h | 21786m | -21.4m/s | -53.5°C | 1.1% | 44.4hPa | 2.6V | 00:00:00 | 00:00:00 | 00:00:00 | |
| PETON7-10 | 2026-09-01 00:45:15 | 49.39275 | 13.29083 | 40° | 7km/h | 21807m | -20.7m/s | -53.4°C | 4.1% | 44.2hPa | 2.6V | 00:00:00 | 02:39:39 | 00:00:00 | |
| OE5MMP-10 | 2026-09-01 00:45:13 | 49.39270 | 13.29077 | 52° | 5km/h | 21848m | -21.7m/s | -53.4°C | 4.0% | 43.9hPa | 2.6V | 00:00:00 | 02:39:37 | 00:00:00 | |
| DK5PH-5 | 2026-09-01 00:45:11 | 49.39267 | 13.29072 | 65° | 13km/h | 21893m | -20.5m/s | 0°C | 0% | 0hPa | 2.6V | 00:00:00 | 02:39:35 | 00:00:00 | |
| DO3MHA-11 | 2026-09-01 00:45:10 | 49.39266 | 13.29071 | 43° | 5km/h | 21913m | -20.1m/s | -53.0°C | 3.9% | 43.4hPa | 2.6V | 00:00:00 | 02:39:34 | 00:00:00 | |
| DL1JEZ-13 | 2026-09-01 00:45:07 | 49.39265 | 13.29070 | 350° | 4km/h | 21954m | -21.4m/s | -53.1°C | 1.1% | 43.2hPa | 2.6V | 00:00:00 | 00:00:00 | 00:00:00 | |
| DM0DOS-11 | 2026-09-01 00:45:06 | 49.39255 | 13.29074 | 346° | 9km/h | 22111m | -19.9m/s | -53.4°C | 4% | 42.2hPa | 2.6V | 03:22:24 | 02:39:25 | 00:00:00 | |
| S52SK | 2026-09-01 00:45:05 | 49.39261 | 13.29071 | 327° | 7km/h | 22021m | -21.7m/s | -53.1°C | 1.0% | 42.8hPa | 2.5V | 00:00:00 | 00:00:00 | 00:00:00 | |
| DL6DJ-15 | 2026-09-01 00:44:58 | 49.39249 | 13.29073 | 36° | 11km/h | 22181m | -23.5m/s | -53.5°C | 1.1% | 41.8hPa | 2.5V | 00:00:00 | 00:00:00 | 00:00:00 | |
| PG1ADW-2 | 2026-09-01 00:44:55 | 49.39243 | 13.29062 | 59° | 15km/h | 22252m | -21.9m/s | -53.7°C | 4.2% | 41.3hPa | 2.5V | 00:00:00 | 02:39:19 | 00:00:00 | |
| OE5MMP-10 | 2026-09-01 00:44:53 | 49.39238 | 13.29054 | 46° | 16km/h | 22295m | -22.4m/s | -53.5°C | 4.2% | 40.9hPa | 2.5V | 00:00:00 | 02:39:17 | 00:00:00 | |
| DM0DOS-11 | 2026-09-01 00:44:51 | 49.39213 | 13.29033 | 25° | 16km/h | 22454m | -22.1m/s | -53.2°C | 4.1% | 40hPa | 2.5V | 03:22:39 | 02:39:10 | 00:00:00 | |
| EDDB2-12 | 2026-09-01 00:44:50 | 49.39213 | 13.29033 | 25° | 15km/h | 22454m | -22.1m/s | -53.2°C | 1.1% | 40.0hPa | 2.6V | 00:00:00 | 00:00:00 | 00:00:00 | |
| PETON7-10 | 2026-09-01 00:44:45 | 49.39209 | 13.29030 | 33° | 13km/h | 22477m | -21.6m/s | -53.1°C | 4.1% | 39.8hPa | 2.6V | 00:00:00 | 00:00:00 | 00:00:00 | |
| SP3BTT-10 | 2026-09-01 00:44:44 | 49.39206 | 13.29027 | 41° | 11km/h | 22498m | -21.2m/s | -53.0°C | 4.1% | 39.7hPa | 2.6V | 00:00:00 | 00:00:00 | 00:00:00 | |
| DO3MHA-11 | 2026-09-01 00:44:40 | 49.39201 | 13.29010 | 92° | 13km/h | 22590m | -24.4m/s | -52.9°C | 4.0% | 39.2hPa | 2.6V | 00:00:00 | 02:39:04 | 00:00:00 | |
| DL3JIN-12 | 2026-09-01 00:44:38 | 49.39202 | 13.29005 | 104° | 15km/h | 22614m | -23.3m/s | -52.9°C | 1.1% | 39.0hPa | 2.6V | 03:22:00 | 00:00:00 | 00:00:00 | |
| DK5PH-5 | 2026-09-01 00:44:36 | 49.39203 | 13.28990 | 94° | 11km/h | 22684m | -24.1m/s | 0°C | 0% | 0hPa | 2.6V | 00:00:00 | 02:39:00 | 00:00:00 | |
| PG1ADW-2 | 2026-09-01 00:44:35 | 49.39201 | 13.28976 | 73° | 11km/h | 22754m | -23.8m/s | -52.5°C | 3.8% | 38.1hPa | 2.6V | 00:00:00 | 00:00:00 | 00:00:00 | |
| SONDE2-11 | 2026-09-01 00:44:34 | 49.39200 | 13.28972 | 65° | 13km/h | 22778m | -24.7m/s | -52.5°C | 1.0% | 38.1hPa | 2.5V | 00:00:00 | 00:00:00 | 00:00:00 | |
| PETON7-10 | 2026-09-01 00:44:30 | 49.39197 | 13.28963 | 67° | 9km/h | 22828m | -25.4m/s | -52.4°C | 3.8% | 37.7hPa | 2.5V | 03:22:00 | 02:38:54 | 00:00:00 | |
| DL6DJ-15 | 2026-09-01 00:44:27 | 49.39194 | 13.28954 | 45° | 5km/h | 22900m | -23.7m/s | -52.4°C | 1.0% | 37.3hPa | 2.5V | 00:00:00 | 00:00:00 | 00:00:00 | |
| DM0DOS-11 | 2026-09-01 00:44:26 | 49.39191 | 13.28952 | 257° | 7km/h | 22993m | -25.2m/s | -52.5°C | 3.9% | 36.8hPa | 2.5V | 03:23:02 | 02:38:47 | 00:00:00 | |
| OE5DRO-10 | 2026-09-01 00:44:25 | 49.39191 | 13.28952 | 258° | 13km/h | 22993m | -25.1m/s | -52.5°C | 3.9% | 36.8hPa | 2.6V | 00:00:00 | 00:00:00 | 00:00:00 | |
| DO3MHA-11 | 2026-09-01 00:44:20 | 49.39193 | 13.28962 | 243° | 13km/h | 23063m | -24.2m/s | -52.3°C | 3.8% | 36.4hPa | 2.6V | 00:00:00 | 02:38:44 | 00:00:00 | |
| DL3JIN-12 | 2026-09-01 00:44:18 | 49.39194 | 13.28967 | 244° | 15km/h | 23087m | -25.3m/s | -52.3°C | 1.0% | 36.2hPa | 2.6V | 03:23:00 | 00:00:00 | 00:00:00 | |
| PG1ADW-2 | 2026-09-01 00:44:15 | 49.39199 | 13.28987 | 261° | 18km/h | 23189m | -25.0m/s | -52.0°C | 3.7% | 35.7hPa | 2.6V | 03:23:00 | 00:00:00 | 00:00:00 | |
| PETON7-10 | 2026-09-01 00:44:14 | 49.39199 | 13.28991 | 264° | 15km/h | 23214m | -26.1m/s | -51.9°C | 3.6% | 35.5hPa | 2.6V | 00:00:00 | 00:00:00 | 00:00:00 | |
| DO3MHA-11 | 2026-09-01 00:44:10 | 49.39199 | 13.29012 | 273° | 15km/h | 23322m | -27.1m/s | -52.2°C | 3.8% | 34.9hPa | 2.5V | 03:23:00 | 02:38:34 | 00:00:00 | |
| DM0DOS-11 | 2026-09-01 00:44:06 | 49.39208 | 13.29059 | 254° | 18km/h | 23549m | -23.1m/s | -52.3°C | 3.9% | 33.7hPa | 2.5V | 03:23:24 | 02:38:25 | 00:00:00 | |
| DK5PH-5 | 2026-09-01 00:44:06 | 49.39200 | 13.29032 | 250° | 15km/h | 23425m | -25.2m/s | 0°C | 0% | 0hPa | 2.6V | 00:00:00 | 02:38:30 | 00:00:00 | |
| DO3MHA-11 | 2026-09-01 00:44:00 | 49.39209 | 13.29065 | 263° | 20km/h | 23573m | -23.3m/s | -52.3°C | 3.9% | 33.5hPa | 2.6V | 00:00:00 | 02:38:24 | 00:00:00 | |
| PETON7-10 | 2026-09-01 00:43:59 | 49.39209 | 13.29072 | 273° | 20km/h | 23598m | -25.3m/s | -52.3°C | 3.9% | 33.4hPa | 2.6V | 00:00:00 | 00:00:00 | 00:00:00 | |
| DL3JIN-12 | 2026-09-01 00:43:57 | 49.39209 | 13.29080 | 285° | 22km/h | 23623m | -25.1m/s | -52.4°C | 1.0% | 33.4hPa | 2.6V | 03:23:00 | 00:00:00 | 00:00:00 | |
| DM0DOS-11 | 2026-09-01 00:43:56 | 49.39189 | 13.29128 | 305° | 16km/h | 23804m | -27.1m/s | -52.5°C | 4% | 32.5hPa | 2.6V | 03:23:34 | 02:38:15 | 00:00:00 | |
| DL6DJ-15 | 2026-09-01 00:43:56 | 49.39204 | 13.29095 | 302° | 22km/h | 23675m | -25.7m/s | -52.4°C | 1.0% | 33.1hPa | 2.6V | 00:00:00 | 00:00:00 | 00:00:00 | |
| OE5MMP-10 | 2026-09-01 00:43:53 | 49.39195 | 13.29117 | 312° | 20km/h | 23751m | -27.2m/s | -52.8°C | 4.1% | 32.7hPa | 2.6V | 00:00:00 | 02:38:17 | 00:00:00 | |
| DO3MHA-11 | 2026-09-01 00:43:50 | 49.39187 | 13.29134 | 292° | 22km/h | 23831m | -27.1m/s | -52.3°C | 4.0% | 32.3hPa | 2.6V | 00:00:00 | 02:38:14 | 00:00:00 | |
| OE5DRO-10 | 2026-09-01 00:43:47 | 49.39178 | 13.29168 | 291° | 20km/h | 23955m | -24.3m/s | -52.0°C | 3.9% | 31.6hPa | 2.6V | 00:00:00 | 00:00:00 | 00:00:00 | |
| PETON7-10 | 2026-09-01 00:43:44 | 49.39176 | 13.29177 | 295° | 26km/h | 23979m | -23.8m/s | -52.0°C | 3.9% | 31.5hPa | 2.6V | 00:00:00 | 02:38:08 | 00:00:00 | |
| OE5MMP-10 | 2026-09-01 00:43:43 | 49.39173 | 13.29185 | 300° | 26km/h | 24003m | -24.1m/s | -51.9°C | 3.9% | 31.4hPa | 2.6V | 00:00:00 | 02:38:07 | 00:00:00 | |
| DO3MHA-11 | 2026-09-01 00:43:40 | 49.39163 | 13.29210 | 311° | 26km/h | 24082m | -28.0m/s | -51.4°C | 3.7% | 31.1hPa | 2.6V | 00:00:00 | 02:38:04 | 00:00:00 | |
| DL3JIN-12 | 2026-09-01 00:43:36 | 49.39147 | 13.29229 | 325° | 24km/h | 24162m | -26.1m/s | -51.5°C | 1.0% | 30.7hPa | 2.6V | 03:24:00 | 00:00:00 | 00:00:00 | |
| PG1ADW-2 | 2026-09-01 00:43:35 | 49.39135 | 13.29239 | 332° | 15km/h | 24212m | -23.9m/s | -51.4°C | 3.7% | 30.4hPa | 2.6V | 00:00:00 | 02:37:59 | 00:00:00 | |
| OE5MMP-10 | 2026-09-01 00:43:33 | 49.39123 | 13.29247 | 338° | 24km/h | 24264m | -25.4m/s | -51.4°C | 3.7% | 30.2hPa | 2.5V | 03:23:00 | 02:37:57 | 00:00:00 | |
| DO3MHA-11 | 2026-09-01 00:43:30 | 49.39106 | 13.29259 | 336° | 20km/h | 24342m | -25.1m/s | -51.1°C | 3.6% | 29.8hPa | 2.6V | 03:23:00 | 02:37:54 | 00:00:00 | |
| PETON7-10 | 2026-09-01 00:43:29 | 49.39100 | 13.29263 | 339° | 20km/h | 24367m | -25.0m/s | -51.1°C | 3.6% | 29.7hPa | 2.6V | 03:23:00 | 00:00:00 | 00:00:00 | |
| BAUMI2-15 | 2026-09-01 00:43:28 | 49.39095 | 13.29267 | 340° | 24km/h | 24392m | -24.5m/s | -51.0°C | 3.6% | 29.6hPa | 2.6V | 00:00:00 | 02:37:52 | 00:00:00 | |
| DL6DJ-15 | 2026-09-01 00:43:25 | 49.39073 | 13.29278 | 342° | 20km/h | 24495m | -24.5m/s | -51.1°C | 0.9% | 29.2hPa | 2.5V | 00:00:00 | 00:00:00 | 00:00:00 | |
| BAUMI2-15 | 2026-09-01 00:43:23 | 49.39068 | 13.29279 | 356° | 18km/h | 24520m | -26.0m/s | -51.1°C | 3.6% | 29.0hPa | 2.5V | 03:24:00 | 02:37:47 | 00:00:00 | |
| BAUMI2-15 | 2026-09-01 00:43:18 | 49.39048 | 13.29270 | 45° | 18km/h | 24644m | -23.2m/s | -51.2°C | 3.6% | 28.5hPa | 2.5V | 00:00:00 | 02:37:42 | 00:00:00 | |
| S52SK | 2026-09-01 00:43:16 | 49.39046 | 13.29264 | 61° | 20km/h | 24668m | -22.0m/s | -51.3°C | 0.9% | 28.4hPa | 2.5V | 00:00:00 | 00:00:00 | 00:00:00 | |
| PETON7-10 | 2026-09-01 00:43:14 | 49.39037 | 13.29247 | 53° | 9km/h | 24739m | -26.1m/s | -51.3°C | 3.7% | 28.1hPa | 2.5V | 00:00:00 | 00:00:00 | 00:00:00 | |
| OE5MMP-10 | 2026-09-01 00:43:13 | 49.39035 | 13.29241 | 54° | 7km/h | 24766m | -26.3m/s | -51.3°C | 3.7% | 27.9hPa | 2.5V | 00:00:00 | 02:37:37 | 00:00:00 | |
| OE3OSB-13 | 2026-09-01 00:43:12 | 49.39033 | 13.29237 | 63° | 11km/h | 24792m | -26.5m/s | -51.3°C | 0.9% | 27.9hPa | 2.5V | 00:00:00 | 00:00:00 | 00:00:00 | |
| DM0DOS-11 | 2026-09-01 00:43:11 | 49.39031 | 13.29222 | 118° | 7km/h | 24963m | -24.1m/s | -51.4°C | 3.7% | 27.1hPa | 2.5V | 03:24:20 | 02:37:29 | 00:00:00 | |
| S52SK | 2026-09-01 00:43:10 | 49.39031 | 13.29233 | 55° | 7km/h | 24819m | -25.9m/s | -51.3°C | 0.9% | 27.8hPa | 2.5V | 00:00:00 | 00:00:00 | 00:00:00 | |
| BAUMI2-15 | 2026-09-01 00:43:08 | 49.39030 | 13.29227 | 108° | 5km/h | 24893m | -22.9m/s | -51.2°C | 3.7% | 27.4hPa | 2.5V | 00:00:00 | 02:37:32 | 00:00:00 | |
| OE5MMP-10 | 2026-09-01 00:43:03 | 49.39032 | 13.29217 | 101° | 13km/h | 25011m | -23.8m/s | -51.3°C | 3.7% | 26.9hPa | 2.5V | 00:00:00 | 02:37:27 | 00:00:00 | |
| SONDE2-11 | 2026-09-01 00:43:01 | 49.39029 | 13.29203 | 42° | 15km/h | 25113m | -25.1m/s | -51.3°C | 0.9% | 26.5hPa | 2.6V | 00:00:00 | 00:00:00 | 00:00:00 | |
| DL6DJ-15 | 2026-09-01 00:42:54 | 49.39016 | 13.29178 | 84° | 9km/h | 25277m | -30.5m/s | -51.4°C | 0.9% | 25.9hPa | 2.6V | 00:00:00 | 00:00:00 | 00:00:00 | |
| OE5MMP-10 | 2026-09-01 00:42:53 | 49.39016 | 13.29177 | 85° | 7km/h | 25277m | -30.4m/s | -51.4°C | 3.8% | 25.8hPa | 2.6V | 03:24:00 | 02:37:17 | 00:00:00 | |
| DM0DOS-11 | 2026-09-01 00:42:51 | 49.39024 | 13.29163 | 115° | 4km/h | 25529m | -26.5m/s | -50.6°C | 3.7% | 24.9hPa | 2.6V | 03:24:41 | 02:37:08 | 00:00:00 | |
| OE5MMP-10 | 2026-09-01 00:42:48 | 49.39024 | 13.29162 | 72° | 11km/h | 25556m | -27.9m/s | -50.3°C | 3.6% | 24.7hPa | 2.6V | 00:00:00 | 02:37:07 | 00:00:00 | |
| OE3OSB-13 | 2026-09-01 00:42:47 | 49.39024 | 13.29159 | 73° | 7km/h | 25615m | -31.8m/s | -50.2°C | 0.9% | 24.5hPa | 2.6V | 00:00:00 | 00:00:00 | 00:00:00 | |
| BAUMI2-15 | 2026-09-01 00:42:46 | 49.39023 | 13.29146 | 81° | 16km/h | 25710m | -30.3m/s | -50.1°C | 3.5% | 24.1hPa | 2.6V | 00:00:00 | 02:37:02 | 00:00:00 | |
| DL3JIN-12 | 2026-09-01 00:42:34 | 49.39021 | 13.29129 | 81° | 16km/h | 25801m | -30.5m/s | -49.8°C | 0.9% | 23.9hPa | 2.6V | 03:25:00 | 00:00:00 | 00:00:00 | |
| DM0DOS-11 | 2026-09-01 00:42:33 | 49.39020 | 13.29099 | 99° | 15km/h | 25949m | -28.6m/s | -49.8°C | 3.4% | 23.3hPa | 2.6V | 03:24:55 | 02:36:54 | 00:00:00 | |
| BAUMI2-15 | 2026-09-01 00:42:33 | 49.39019 | 13.29116 | 85° | 15km/h | 25862m | -29.6m/s | -49.6°C | 3.4% | 23.6hPa | 2.5V | 00:00:00 | 02:36:57 | 00:00:00 | |
| DO3MHA-11 | 2026-09-01 00:42:30 | 49.39019 | 13.29099 | 100° | 7km/h | 25950m | -28.5m/s | -49.8°C | 3.4% | 23.3hPa | 2.5V | 00:00:00 | 02:36:54 | 00:00:00 | |
| PETON7-10 | 2026-09-01 00:42:29 | 49.39021 | 13.29093 | 113° | 11km/h | 25978m | -29.1m/s | -49.7°C | 3.4% | 23.2hPa | 2.5V | 03:24:00 | 00:00:00 | 00:00:00 | |
| PG1ADW-2 | 2026-09-01 00:42:27 | 49.39026 | 13.29079 | 133° | 7km/h | 26068m | -30.8m/s | -49.6°C | 3.3% | 22.8hPa | 2.5V | 03:24:00 | 00:00:00 | 00:00:00 | |
| DL6DJ-15 | 2026-09-01 00:42:23 | 49.39037 | 13.29063 | 147° | 13km/h | 26182m | -26.7m/s | -49.5°C | 0.8% | 22.5hPa | 2.5V | 00:00:00 | 00:00:00 | 00:00:00 | |
| DM0DOS-11 | 2026-09-01 00:42:22 | 49.39042 | 13.29059 | 146° | 11km/h | 26234m | -25.5m/s | -49.3°C | 3.3% | 22.3hPa | 2.5V | 03:25:05 | 02:36:44 | 00:00:00 | |
| BAUMI2-15 | 2026-09-01 00:42:18 | 49.39046 | 13.29056 | 126° | 5km/h | 26285m | -23.7m/s | -49.4°C | 3.3% | 22.0hPa | 2.6V | 00:00:00 | 02:36:42 | 00:00:00 | |
| PETON7-10 | 2026-09-01 00:42:14 | 49.39043 | 13.29055 | 347° | 7km/h | 26384m | -26.2m/s | -49.6°C | 3.4% | 21.7hPa | 2.6V | 00:00:00 | 02:36:38 | 00:00:00 | |
| EDDB2-11 | 2026-09-01 00:42:13 | 49.39039 | 13.29058 | 347° | 7km/h | 26440m | -30.6m/s | -49.7°C | 0.8% | 21.6hPa | 2.6V | 00:00:00 | 00:00:00 | 00:00:00 | |
| OE3OSB-13 | 2026-09-01 00:42:10 | 49.39035 | 13.29058 | 356° | 9km/h | 26501m | -28.7m/s | -49.6°C | 0.8% | 21.4hPa | 2.6V | 00:00:00 | 00:00:00 | 00:00:00 | |
| BAUMI2-15 | 2026-09-01 00:42:08 | 49.39033 | 13.29058 | 59° | 4km/h | 26557m | -28.7m/s | -49.7°C | 3.5% | 21.1hPa | 2.6V | 00:00:00 | 02:36:32 | 00:00:00 | |
| PG1ADW-2 | 2026-09-01 00:42:04 | 49.39033 | 13.29051 | 98° | 9km/h | 26668m | -28.1m/s | -49.6°C | 3.4% | 20.8hPa | 2.6V | 00:00:00 | 00:00:00 | 00:00:00 | |
| BAUMI2-15 | 2026-09-01 00:42:03 | 49.39033 | 13.29049 | 98° | 7km/h | 26693m | -24.8m/s | -49.6°C | 3.4% | 20.7hPa | 2.6V | 03:25:00 | 02:36:27 | 00:00:00 | |
| DF7PN | 2026-09-01 00:41:58 | 49.39033 | 13.29032 | 100° | 9km/h | 26873m | -31.8m/s | 0°C | -1.0% | -1.0hPa | 2.6V | 00:00:00 | 00:00:00 | 00:00:00 | |
| DL6DJ-15 | 2026-09-01 00:41:52 | 49.39036 | 13.29011 | 100° | 7km/h | 27076m | -31.4m/s | -49.5°C | 0.8% | 19.6hPa | 2.6V | 00:00:00 | 00:00:00 | 00:00:00 | |
| BAUMI2-15 | 2026-09-01 00:41:48 | 49.39037 | 13.29001 | 115° | 9km/h | 27161m | -28.0m/s | -49.7°C | 3.4% | 19.3hPa | 2.6V | 00:00:00 | 02:36:12 | 00:00:00 | |
| PETON7-10 | 2026-09-01 00:41:44 | 49.39043 | 13.28993 | 167° | 9km/h | 27277m | -28.4m/s | -49.8°C | 3.6% | 18.9hPa | 2.6V | 00:00:00 | 00:00:00 | 00:00:00 | |
| DO3MHA-11 | 2026-09-01 00:41:43 | 49.39045 | 13.28993 | 188° | 9km/h | 27306m | -28.7m/s | -49.8°C | 3.6% | 18.8hPa | 2.6V | 00:00:00 | 02:36:07 | 00:00:00 | |
| OE3OSB-13 | 2026-09-01 00:41:39 | 49.39050 | 13.29004 | 260° | 11km/h | 27421m | -27.4m/s | -49.9°C | 0.9% | 18.5hPa | 2.6V | 00:00:00 | 00:00:00 | 00:00:00 | |
| BAUMI2-15 | 2026-09-01 00:41:38 | 49.39050 | 13.29009 | 270° | 9km/h | 27450m | -28.6m/s | -49.8°C | 3.6% | 18.4hPa | 2.6V | 00:00:00 | 02:36:02 | 00:00:00 | |
| DO3MHA-11 | 2026-09-01 00:41:33 | 49.39048 | 13.29024 | 1° | 5km/h | 27587m | -30.3m/s | -49.8°C | 3.7% | 18.1hPa | 2.6V | 00:00:00 | 02:35:57 | 00:00:00 | |
| PETON7-10 | 2026-09-01 00:41:29 | 49.39044 | 13.29016 | 81° | 4km/h | 27712m | -30.2m/s | -49.5°C | 3.7% | 17.7hPa | 2.6V | 03:25:00 | 02:35:53 | 00:00:00 | |
| DM0DOS-11 | 2026-09-01 00:41:27 | 49.39043 | 13.29007 | 84° | 5km/h | 27808m | -33.7m/s | -49°C | 3.6% | 17.5hPa | 2.6V | 03:25:59 | 02:35:50 | 00:00:00 | |
| PG1ADW-2 | 2026-09-01 00:41:24 | 49.39043 | 13.29004 | 56° | 7km/h | 27872m | -32.8m/s | -48.5°C | 3.5% | 17.3hPa | 2.5V | 00:00:00 | 00:00:00 | 00:00:00 | |
| DO3MHA-11 | 2026-09-01 00:41:23 | 49.39043 | 13.29003 | 116° | 2km/h | 27905m | -31.9m/s | -48.4°C | 3.4% | 17.2hPa | 2.5V | 00:00:00 | 02:35:47 | 00:00:00 | |
| DL6DJ-15 | 2026-09-01 00:41:20 | 49.39042 | 13.29004 | 294° | 4km/h | 27996m | -29.2m/s | -48.2°C | 0.8% | 17.0hPa | 2.5V | 00:00:00 | 00:00:00 | 00:00:00 | |
| DM0DOS-11 | 2026-09-01 00:41:17 | 49.39042 | 13.29009 | 263° | 2km/h | 28107m | -27.5m/s | -47.7°C | 3.3% | 16.6hPa | 2.5V | 03:26:09 | 02:35:40 | 00:00:00 | |
| PETON7-10 | 2026-09-01 00:41:14 | 49.39041 | 13.29010 | 342° | 11km/h | 28165m | -29.2m/s | -47.2°C | 3.2% | 16.5hPa | 2.6V | 00:00:00 | 00:00:00 | 00:00:00 | |
| DO3MHA-11 | 2026-09-01 00:41:13 | 49.39039 | 13.29011 | 12° | 9km/h | 28195m | -29.3m/s | -47.0°C | 3.2% | 16.4hPa | 2.5V | 03:26:00 | 02:35:37 | 00:00:00 | |
| SP3BTT-10 | 2026-09-01 00:41:12 | 49.39037 | 13.29010 | 13° | 13km/h | 28223m | -29.5m/s | -46.8°C | 3.1% | 16.3hPa | 2.5V | 00:00:00 | 00:00:00 | 00:00:00 | |
| OE3OSB-13 | 2026-09-01 00:41:08 | 49.39026 | 13.29001 | 42° | 15km/h | 28340m | -29.2m/s | -46.4°C | 0.7% | 16.1hPa | 2.5V | 00:00:00 | 00:00:00 | 00:00:00 | |
| DM0DOS-11 | 2026-09-01 00:41:07 | 49.39021 | 13.28990 | 79° | 9km/h | 28428m | -30.3m/s | -46.3°C | 3.1% | 15.9hPa | 2.5V | 03:26:20 | 02:35:29 | 00:00:00 | |
| PG1ADW-2 | 2026-09-01 00:41:04 | 49.39020 | 13.28986 | 97° | 7km/h | 28458m | -29.1m/s | -46.2°C | 3.0% | 15.8hPa | 2.5V | 03:26:00 | 00:00:00 | 00:00:00 | |
| OE5MMP-10 | 2026-09-01 00:41:03 | 49.39020 | 13.28982 | 98° | 9km/h | 28488m | -30.8m/s | -46.1°C | 3.0% | 15.7hPa | 2.5V | 00:00:00 | 02:35:27 | 00:00:00 | |
| S52SK | 2026-09-01 00:41:01 | 49.39020 | 13.28979 | 115° | 7km/h | 28519m | -31.7m/s | -46.0°C | 0.7% | 15.7hPa | 2.6V | 00:00:00 | 00:00:00 | 00:00:00 | |
| DG1MFX-10 | 2026-09-01 00:41:00 | 49.39020 | 13.28976 | 92° | 5km/h | 28551m | -32.3m/s | -45.9°C | 0.7% | 15.6hPa | 2.6V | 00:00:00 | 00:00:00 | 00:00:00 | |
| PETON7-10 | 2026-09-01 00:40:59 | 49.39020 | 13.28971 | 98° | 7km/h | 28613m | -30.5m/s | -45.9°C | 3.0% | 15.4hPa | 2.6V | 00:00:00 | 00:00:00 | 00:00:00 | |
| DM0DOS-11 | 2026-09-01 00:40:57 | 49.39016 | 13.28959 | 55° | 11km/h | 28742m | -34.8m/s | -45.9°C | 3% | 15.2hPa | 2.6V | 03:26:30 | 02:35:19 | 00:00:00 | |
| DL6DJ-15 | 2026-09-01 00:40:49 | 49.39009 | 13.28946 | 134° | 4km/h | 28946m | -31.3m/s | -45.3°C | 0.6% | 14.7hPa | 2.5V | 00:00:00 | 00:00:00 | 00:00:00 | |
| DM0DOS-11 | 2026-09-01 00:40:46 | 49.39013 | 13.28939 | 96° | 7km/h | 29070m | -32.9m/s | -44.8°C | 2.8% | 14.4hPa | 2.5V | 03:26:40 | 02:35:09 | 00:00:00 | |
| PETON7-10 | 2026-09-01 00:40:44 | 49.39013 | 13.28936 | 111° | 15km/h | 29104m | -33.2m/s | -44.7°C | 2.8% | 14.3hPa | 2.5V | 00:00:00 | 02:35:08 | 00:00:00 | |
| OE5MMP-10 | 2026-09-01 00:40:43 | 49.39014 | 13.28932 | 102° | 15km/h | 29136m | -31.7m/s | -44.7°C | 2.7% | 14.2hPa | 2.5V | 00:00:00 | 02:35:07 | 00:00:00 | |
| DM0DOS-11 | 2026-09-01 00:40:40 | 49.39029 | 13.28901 | 149° | 16km/h | 29380m | -29.2m/s | -44.6°C | 2.8% | 13.7hPa | 2.5V | 03:26:50 | 02:34:59 | 00:00:00 | |
| DG1MFX-10 | 2026-09-01 00:40:38 | 49.39018 | 13.28915 | 127° | 15km/h | 29258m | -29.7m/s | -44.8°C | 0.6% | 14.0hPa | 2.5V | 00:00:00 | 00:00:00 | 00:00:00 | |
| OE3OSB-13 | 2026-09-01 00:40:37 | 49.39023 | 13.28908 | 146° | 13km/h | 29320m | -31.0m/s | -44.6°C | 0.6% | 13.8hPa | 2.5V | 00:00:00 | 00:00:00 | 00:00:00 | |
| DL1JEZ-13 | 2026-09-01 00:40:33 | 49.39036 | 13.28895 | 149° | 18km/h | 29441m | -30.0m/s | -44.7°C | 0.6% | 13.6hPa | 2.5V | 00:00:00 | 00:00:00 | 00:00:00 | |
| DL3JIN-12 | 2026-09-01 00:40:31 | 49.39040 | 13.28891 | 146° | 16km/h | 29471m | -29.9m/s | -44.6°C | 0.7% | 13.5hPa | 2.5V | 03:27:00 | 00:00:00 | 00:00:00 | |
| PETON7-10 | 2026-09-01 00:40:29 | 49.39050 | 13.28880 | 140° | 11km/h | 29556m | -29.1m/s | -44.3°C | 2.8% | 13.3hPa | 2.5V | 03:26:00 | 00:00:00 | 00:00:00 | |
| OE5MMP-10 | 2026-09-01 00:40:23 | 49.39053 | 13.28858 | 78° | 13km/h | 29746m | -32.0m/s | -44.1°C | 2.8% | 12.9hPa | 2.6V | 00:00:00 | 02:34:47 | 00:00:00 | |
| DL6DJ-15 | 2026-09-01 00:40:18 | 49.39053 | 13.28834 | 116° | 13km/h | 29914m | -32.6m/s | -43.4°C | 0% | 12.7hPa | 2.6V | 00:00:00 | 00:00:00 | 00:00:00 | |
| DM0DOS-11 | 2026-09-01 00:40:16 | 49.39054 | 13.28793 | 65° | 22km/h | 30142m | -31.7m/s | -43.2°C | 2.7% | 12.2hPa | 2.6V | 03:27:14 | 02:34:35 | 00:00:00 | |
| HSKMA3-T | 2026-09-01 00:40:07 | 49.39047 | 13.28758 | 84° | 24km/h | 30266m | -31.8m/s | -43°C | 0% | 12hPa | 2.6V | 03:29:40 | 02:34:31 | 00:00:00 | |
| OE3OSB-13 | 2026-09-01 00:40:06 | 49.39047 | 13.28739 | 96° | 24km/h | 30334m | -34.4m/s | -42.7°C | 0.6% | 11.9hPa | 2.5V | 00:00:00 | 00:00:00 | 00:00:00 | |
| DM0DOS-11 | 2026-09-01 00:40:03 | 49.39071 | 13.28671 | 136° | 20km/h | 30598m | -32.9m/s | -41.7°C | 2.4% | 11.4hPa | 2.5V | 03:27:28 | 02:34:21 | 00:00:00 | |
| OE5MMP-10 | 2026-09-01 00:40:03 | 49.39050 | 13.28719 | 113° | 22km/h | 30400m | -34.2m/s | -42.3°C | 2.6% | 11.7hPa | 2.5V | 00:00:00 | 02:34:27 | 00:00:00 | |
| PETON7-10 | 2026-09-01 00:39:59 | 49.39064 | 13.28684 | 129° | 11km/h | 30530m | -33.3m/s | -41.7°C | 2.4% | 11.5hPa | 2.5V | 00:00:00 | 02:34:23 | 00:00:00 | |
| PG1ADW-2 | 2026-09-01 00:39:57 | 49.39071 | 13.28671 | 137° | 9km/h | 30598m | -32.9m/s | -41.7°C | 2.4% | 11.4hPa | 2.5V | 00:00:00 | 02:34:21 | 00:00:00 | |
| OE5MMP-10 | 2026-09-01 00:39:53 | 49.39083 | 13.28654 | 135° | 5km/h | 30726m | -32.8m/s | -41.1°C | 2.3% | 11.1hPa | 2.5V | 00:00:00 | 02:34:17 | 00:00:00 | |
| DM0DOS-11 | 2026-09-01 00:39:51 | 49.39088 | 13.28644 | 94° | 4km/h | 30885m | -35.1m/s | -41.2°C | 2.3% | 10.9hPa | 2.5V | 03:27:37 | 02:34:12 | 00:00:00 | |
| DL6DJ-15 | 2026-09-01 00:39:47 | 49.39088 | 13.28643 | 101° | 4km/h | 30921m | -35.4m/s | -41.3°C | 0.5% | 10.9hPa | 2.5V | 00:00:00 | 00:00:00 | 00:00:00 | |
| PETON7-10 | 2026-09-01 00:39:44 | 49.39087 | 13.28636 | 81° | 13km/h | 31021m | -33.0m/s | -41.4°C | 2.4% | 10.6hPa | 2.5V | 00:00:00 | 00:00:00 | 00:00:00 | |
| OE5MMP-10 | 2026-09-01 00:39:43 | 49.39087 | 13.28632 | 85° | 15km/h | 31054m | -33.0m/s | -41.5°C | 2.5% | 10.6hPa | 2.5V | 00:00:00 | 02:34:07 | 00:00:00 | |
| DM0DOS-11 | 2026-09-01 00:39:40 | 49.39090 | 13.28602 | 99° | 18km/h | 31221m | -33.9m/s | -41.7°C | 2.5% | 10.3hPa | 2.5V | 03:27:47 | 02:34:02 | 00:00:00 | |
| PG1ADW-2 | 2026-09-01 00:39:37 | 49.39090 | 13.28596 | 107° | 11km/h | 31256m | -35.4m/s | -41.7°C | 2.6% | 10.3hPa | 2.5V | 00:00:00 | 00:00:00 | 00:00:00 | |
| OE3OSB-13 | 2026-09-01 00:39:35 | 49.39094 | 13.28583 | 136° | 7km/h | 31353m | -28.9m/s | -41.2°C | 0.5% | 10.2hPa | 2.6V | 00:00:00 | 00:00:00 | 00:00:00 | |
| DM0DOS-11 | 2026-09-01 00:39:30 | 49.39108 | 13.28591 | 219° | 15km/h | 31559m | -38.3m/s | -39.9°C | 2.2% | 9.9hPa | 2.6V | 03:27:57 | 02:33:52 | 00:00:00 | |
| AA1-15 | 2026-09-01 00:39:24 | 49.39111 | 13.28601 | 300° | 5km/h | 31725m | -42m/s | 0°C | 0% | 0hPa | 2.5V | 03:32:13 | 02:33:48 | 00:00:00 | |
| DM0DOS-11 | 2026-09-01 00:39:20 | 49.39100 | 13.28607 | 359° | 11km/h | 31931m | -30.4m/s | -39.1°C | 2.1% | 9.3hPa | 2.5V | 03:28:07 | 02:33:42 | 00:00:00 | |
| HSKMA3-T | 2026-09-01 00:39:10 | 49.39070 | 13.28593 | 14° | 24km/h | 32167m | -28.7m/s | -39°C | 0% | 9hPa | 2.5V | 03:29:40 | 02:33:34 | 00:00:00 | |
| DM0DOS-11 | 2026-09-01 00:39:09 | 49.39058 | 13.28588 | 16° | 24km/h | 32226m | -29.8m/s | -38.9°C | 2.1% | 8.9hPa | 2.6V | 03:28:17 | 02:33:32 | 00:00:00 | |
| AA1-15 | 2026-09-01 00:39:05 | 49.39041 | 13.28579 | 33° | 22km/h | 32307m | -25.4m/s | 0°C | 0% | 0hPa | 2.5V | 03:32:13 | 02:33:29 | 00:00:00 | |
| S52SK | 2026-09-01 00:39:03 | 49.39037 | 13.28574 | 45° | 20km/h | 32331m | -23.6m/s | -39.0°C | 0.4% | 8.7hPa | 2.6V | 00:00:00 | 00:00:00 | 00:00:00 | |
| BAUMI2-15 | 2026-09-01 00:38:57 | 49.39012 | 13.28526 | 34° | 22km/h | 32512m | -28.6m/s | -38.5°C | 2.1% | 8.5hPa | 2.6V | 00:00:00 | 02:33:21 | 00:00:00 | |
| OE5MMP-10 | 2026-09-01 00:38:56 | 49.39007 | 13.28523 | 11° | 15km/h | 32541m | -30.4m/s | -38.5°C | 2.1% | 8.5hPa | 2.6V | 00:00:00 | 02:33:20 | 00:00:00 | |
| DM0DOS-11 | 2026-09-01 00:38:53 | 49.38980 | 13.28541 | 114° | 2km/h | 32743m | -23m/s | -38.2°C | 2% | 8.2hPa | 2.6V | 03:28:37 | 02:33:12 | 00:00:00 | |
| AA1-15 | 2026-09-01 00:38:47 | 49.38981 | 13.28538 | 108° | 11km/h | 32770m | -30.8m/s | 0°C | 0% | 0hPa | 2.6V | 03:32:13 | 02:33:11 | 00:00:00 | |
| DL6DJ-15 | 2026-09-01 00:38:45 | 49.38982 | 13.28527 | 96° | 15km/h | 32837m | -33.7m/s | -38.2°C | 0.4% | 8.2hPa | 2.6V | 00:00:00 | 00:00:00 | 00:00:00 | |
| PETON7-10 | 2026-09-01 00:38:44 | 49.38980 | 13.28525 | 350° | 15km/h | 32875m | -41.6m/s | -38.2°C | 2.0% | 8.0hPa | 2.6V | 00:00:00 | 00:00:00 | 00:00:00 | |
| BAUMI2-15 | 2026-09-01 00:38:42 | 49.38975 | 13.28529 | 336° | 15km/h | 32953m | -33.1m/s | -38.4°C | 2.0% | 7.9hPa | 2.6V | 00:00:00 | 02:33:06 | 00:00:00 | |
| BAUMI2-15 | 2026-09-01 00:38:37 | 49.38957 | 13.28541 | 337° | 16km/h | 33009m | 5.3m/s | -38.5°C | 2.0% | 7.8hPa | 2.6V | 00:00:00 | 02:33:01 | 00:00:00 | |
| EDDB2-11 | 2026-09-01 00:38:36 | 49.38950 | 13.28545 | 350° | 15km/h | 32997m | 5.7m/s | -38.7°C | 0.4% | 7.9hPa | 2.6V | 00:00:00 | 00:00:00 | 00:00:00 | |
| OE3OSB-13 | 2026-09-01 00:38:33 | 49.38938 | 13.28547 | 344° | 15km/h | 32981m | 5.5m/s | -38.8°C | 0.4% | 7.9hPa | 2.6V | 00:00:00 | 00:00:00 | 00:00:00 | |
| BAUMI2-15 | 2026-09-01 00:38:32 | 49.38938 | 13.28547 | 345° | 15km/h | 32981m | 5.4m/s | -38.7°C | 2.1% | 7.8hPa | 2.6V | 03:28:00 | 02:32:56 | 00:00:00 | |
| PETON7-10 | 2026-09-01 00:38:29 | 49.38929 | 13.28556 | 322° | 11km/h | 32964m | 4.9m/s | -38.8°C | 2.1% | 7.9hPa | 2.6V | 03:28:00 | 02:32:53 | 00:00:00 | |
| DM0DOS-11 | 2026-09-01 00:38:28 | 49.38921 | 13.28559 | 24° | 11km/h | 32947m | 6.6m/s | -38.9°C | 2.1% | 7.9hPa | 2.6V | 03:28:59 | 02:32:50 | 00:00:00 | |
| HSKMA3-T | 2026-09-01 00:38:27 | 49.38924 | 13.28560 | 356° | 9km/h | 32953m | 5.1m/s | -38.9°C | 0% | 7.9hPa | 2.6V | 03:29:40 | 02:32:51 | 00:00:00 | |
| AA1-15 | 2026-09-01 00:38:23 | 49.38915 | 13.28549 | 51° | 11km/h | 32931m | 4.6m/s | 0°C | 0% | 0hPa | 2.6V | 03:32:13 | 02:32:47 | 00:00:00 | |
| BAUMI2-15 | 2026-09-01 00:38:22 | 49.38913 | 13.28546 | 31° | 11km/h | 32926m | 5.4m/s | -38.8°C | 2.1% | 7.9hPa | 2.6V | 00:00:00 | 02:32:46 | 00:00:00 | |
| DM0DOS-11 | 2026-09-01 00:38:17 | 49.38907 | 13.28569 | 315° | 11km/h | 32890m | 6.3m/s | -38.7°C | 2.1% | 8hPa | 2.6V | 03:29:09 | 02:32:40 | 00:00:00 | |
| AA1-15 | 2026-09-01 00:38:13 | 49.38897 | 13.28569 | 16° | 9km/h | 32868m | 5.3m/s | 0°C | 0% | 0hPa | 2.6V | 03:32:13 | 02:32:36 | 00:00:00 | |
| BAUMI2-15 | 2026-09-01 00:38:12 | 49.38897 | 13.28569 | 17° | 5km/h | 32868m | 5.2m/s | -38.6°C | 2.1% | 8.0hPa | 2.6V | 03:29:00 | 02:32:36 | 00:00:00 | |
| BAUMI2-15 | 2026-09-01 00:38:07 | 49.38893 | 13.28573 | 263° | 7km/h | 32841m | 4.9m/s | -38.5°C | 2.1% | 8.0hPa | 2.6V | 00:00:00 | 02:32:31 | 00:00:00 | |
| DM0DOS-11 | 2026-09-01 00:38:06 | 49.38888 | 13.28567 | 30° | 13km/h | 32817m | 5.2m/s | -38.6°C | 2.1% | 8.1hPa | 2.6V | 03:29:22 | 02:32:27 | 00:00:00 | |
| AA1-15 | 2026-09-01 00:38:03 | 49.38885 | 13.28565 | 17° | 13km/h | 32812m | 5m/s | 0°C | 0% | 0hPa | 2.6V | 03:32:13 | 02:32:26 | 00:00:00 | |
| HSKMA3-T | 2026-09-01 00:37:58 | 49.38873 | 13.28572 | 316° | 13km/h | 32789m | 5.1m/s | -38.5°C | 0% | 8.1hPa | 2.6V | 03:29:40 | 02:32:22 | 00:00:00 | |
| BAUMI2-15 | 2026-09-01 00:37:57 | 49.38871 | 13.28575 | 328° | 15km/h | 32784m | 5.0m/s | -38.5°C | 2.1% | 8.1hPa | 2.6V | 00:00:00 | 02:32:21 | 00:00:00 | |
| DM0DOS-11 | 2026-09-01 00:37:56 | 49.38859 | 13.28569 | 44° | 16km/h | 32761m | 5.1m/s | -38.5°C | 2.1% | 8.2hPa | 2.6V | 03:29:32 | 02:32:17 | 00:00:00 | |
| AA1-15 | 2026-09-01 00:37:51 | 49.38853 | 13.28561 | 43° | 13km/h | 32750m | 5.9m/s | 0°C | 0% | 0hPa | 2.5V | 03:32:13 | 02:32:15 | 00:00:00 | |
| HSKMA3-T | 2026-09-01 00:37:44 | 49.38831 | 13.28563 | 4° | 22km/h | 32711m | 5.1m/s | -38.6°C | 0% | 8.2hPa | 2.5V | 03:32:13 | 02:32:08 | 00:00:00 | |
| PETON7-10 | 2026-09-01 00:37:44 | 49.38831 | 13.28563 | 4° | 16km/h | 32711m | 5.0m/s | -38.5°C | 2.1% | 8.2hPa | 2.6V | 00:00:00 | 02:32:08 | 00:00:00 | |
| DL6DJ-15 | 2026-09-01 00:37:43 | 49.38826 | 13.28562 | 6° | 22km/h | 32706m | 4.6m/s | -38.6°C | 0.5% | 8.2hPa | 2.6V | 00:00:00 | 00:00:00 | 00:00:00 | |
| BAUMI2-15 | 2026-09-01 00:37:42 | 49.38820 | 13.28562 | 6° | 15km/h | 32701m | 5.2m/s | -38.6°C | 2.1% | 8.2hPa | 2.6V | 00:00:00 | 02:32:06 | 00:00:00 | |
| DM0DOS-11 | 2026-09-01 00:37:41 | 49.38808 | 13.28560 | 6° | 11km/h | 32684m | 5.3m/s | -38.7°C | 2% | 8.3hPa | 2.6V | 03:29:46 | 02:32:03 | 00:00:00 | |
| AA1-15 | 2026-09-01 00:37:41 | 49.38816 | 13.28561 | 3° | 18km/h | 32695m | 6m/s | 0°C | 0% | 0hPa | 2.6V | 03:32:13 | 02:32:05 | 00:00:00 | |
| AA1-15 | 2026-09-01 00:37:31 | 49.38784 | 13.28523 | 6° | 7km/h | 32636m | 6.5m/s | 0°C | 0% | 0hPa | 2.6V | 03:32:13 | 02:31:54 | 00:00:00 | |
| OE3OSB-13 | 2026-09-01 00:37:30 | 49.38784 | 13.28523 | 6° | 5km/h | 32636m | 6.5m/s | -38.7°C | 0.4% | 8.3hPa | 2.6V | 00:00:00 | 00:00:00 | 00:00:00 | |
| PETON7-10 | 2026-09-01 00:37:29 | 49.38783 | 13.28524 | 308° | 18km/h | 32630m | 5.8m/s | -38.7°C | 2.1% | 8.3hPa | 2.6V | 03:29:00 | 00:00:00 | 00:00:00 | |
| DM0DOS-11 | 2026-09-01 00:37:26 | 49.38778 | 13.28533 | 340° | 11km/h | 32617m | 4.1m/s | -38.8°C | 2.1% | 8.3hPa | 2.6V | 03:29:59 | 02:31:50 | 00:00:00 | |
| OE5MMP-10 | 2026-09-01 00:37:26 | 49.38778 | 13.28533 | 341° | 22km/h | 32618m | 4.0m/s | -38.7°C | 2.1% | 8.3hPa | 2.6V | 00:00:00 | 02:31:50 | 00:00:00 | |
| S52SK | 2026-09-01 00:37:22 | 49.38764 | 13.28525 | 40° | 31km/h | 32600m | 6.2m/s | -38.9°C | 0.4% | 8.4hPa | 2.6V | 00:00:00 | 00:00:00 | 00:00:00 | |
| DM0DOS-11 | 2026-09-01 00:37:21 | 49.38747 | 13.28479 | 254° | 11km/h | 32565m | 4.8m/s | -39°C | 2.1% | 8.4hPa | 2.6V | 03:30:09 | 02:31:40 | 00:00:00 | |
| HSKMA3-T | 2026-09-01 00:37:19 | 49.38746 | 13.28486 | 75° | 22km/h | 32581m | 5.2m/s | -38.9°C | 0% | 8.4hPa | 2.6V | 03:32:13 | 02:31:43 | 00:00:00 | |
| HSKMA3-T | 2026-09-01 00:37:07 | 49.38702 | 13.28457 | 79° | 35km/h | 32522m | 4.7m/s | -39.1°C | 0% | 8.5hPa | 2.5V | 03:32:13 | 02:31:31 | 00:00:00 | |
| DM0DOS-11 | 2026-09-01 00:37:06 | 49.38702 | 13.28446 | 97° | 27km/h | 32518m | 4.6m/s | -39.1°C | 2.1% | 8.5hPa | 2.6V | 03:30:19 | 02:31:30 | 00:00:00 | |
| OE5MMP-10 | 2026-09-01 00:37:06 | 49.38701 | 13.28445 | 98° | 37km/h | 32518m | 4.5m/s | -39.0°C | 2.1% | 8.4hPa | 2.6V | 03:30:00 | 02:31:30 | 00:00:00 | |
| EDDB2-11 | 2026-09-01 00:37:02 | 49.38665 | 13.28460 | 25° | 44km/h | 32475m | 5.2m/s | -39.2°C | 0.5% | 8.5hPa | 2.6V | 00:00:00 | 00:00:00 | 00:00:00 | |
| DM0DOS-11 | 2026-09-01 00:37:01 | 49.38656 | 13.28451 | 43° | 46km/h | 32469m | 5.7m/s | -39.3°C | 2.1% | 8.5hPa | 2.6V | 03:30:29 | 02:31:20 | 00:00:00 | |
| PETON7-10 | 2026-09-01 00:36:59 | 49.38687 | 13.28465 | 350° | 35km/h | 32484m | 3.9m/s | -39.1°C | 2.1% | 8.5hPa | 2.6V | 00:00:00 | 02:31:23 | 00:00:00 | |
| OE5REO-15 | 2026-09-01 00:36:58 | 49.38687 | 13.28465 | 350° | 44km/h | 32484m | 3.9m/s | -39.2°C | 0.4% | 8.5hPa | 2.6V | 00:00:00 | 00:00:00 | 00:00:00 | |
| PG1ADW-2 | 2026-09-01 00:36:57 | 49.38665 | 13.28460 | 26° | 35km/h | 32475m | 5.1m/s | -39.2°C | 2.1% | 8.5hPa | 2.6V | 00:00:00 | 00:00:00 | 00:00:00 | |
| OE5MMP-10 | 2026-09-01 00:36:56 | 49.38656 | 13.28451 | 44° | 35km/h | 32470m | 5.7m/s | -39.2°C | 2.1% | 8.5hPa | 2.6V | 00:00:00 | 02:31:20 | 00:00:00 | |
| DG1MFX-10 | 2026-09-01 00:36:54 | 49.38649 | 13.28437 | 64° | 44km/h | 32464m | 5.6m/s | -39.3°C | 0.5% | 8.5hPa | 2.6V | 00:00:00 | 00:00:00 | 00:00:00 | |
| DM0DOS-11 | 2026-09-01 00:36:46 | 49.38611 | 13.28403 | 10° | 49km/h | 32415m | 4.8m/s | -39.4°C | 2.2% | 8.6hPa | 2.6V | 03:30:40 | 02:31:09 | 00:00:00 | |
| OE5MMP-10 | 2026-09-01 00:36:46 | 49.38623 | 13.28404 | 357° | 38km/h | 32420m | 4.1m/s | -39.3°C | 2.2% | 8.6hPa | 2.6V | 00:00:00 | 02:31:10 | 00:00:00 | |
| PETON7-10 | 2026-09-01 00:36:44 | 49.38599 | 13.28397 | 26° | 33km/h | 32411m | 5.2m/s | -39.3°C | 2.1% | 8.5hPa | 2.6V | 00:00:00 | 00:00:00 | 00:00:00 | |
| OE5REO-15 | 2026-09-01 00:36:42 | 49.38588 | 13.28386 | 41° | 51km/h | 32405m | 5.4m/s | -39.4°C | 0.5% | 8.6hPa | 2.6V | 03:31:00 | 00:00:00 | 00:00:00 | |
| DL6DJ-15 | 2026-09-01 00:36:41 | 49.38573 | 13.28357 | 64° | 44km/h | 32395m | 4.6m/s | -39.4°C | 0.5% | 8.6hPa | 2.6V | 00:00:00 | 00:00:00 | 00:00:00 | |
| DL1JEZ-13 | 2026-09-01 00:36:40 | 49.38573 | 13.28356 | 65° | 46km/h | 32395m | 4.6m/s | -39.4°C | 0.5% | 8.6hPa | 2.6V | 00:00:00 | 00:00:00 | 00:00:00 | |
| PG1ADW-2 | 2026-09-01 00:36:37 | 49.38563 | 13.28316 | 35° | 31km/h | 32377m | 5.1m/s | -39.2°C | 2.1% | 8.6hPa | 2.6V | 03:30:00 | 00:00:00 | 00:00:00 | |
| DM0DOS-11 | 2026-09-01 00:36:36 | 49.38555 | 13.28316 | 349° | 24km/h | 32366m | 5.4m/s | -39.2°C | 2.1% | 8.7hPa | 2.6V | 03:30:50 | 02:30:59 | 00:00:00 | |
| AA1-15 | 2026-09-01 00:36:26 | 49.38498 | 13.28272 | 69° | 29km/h | 32322m | 3.5m/s | 0°C | 0% | 0hPa | 2.6V | 03:32:13 | 02:30:50 | 00:00:00 | |
| DM0DOS-11 | 2026-09-01 00:36:26 | 49.38494 | 13.28262 | 58° | 27km/h | 32318m | 3.4m/s | -39.3°C | 2.1% | 8.8hPa | 2.5V | 03:31:00 | 02:30:49 | 00:00:00 | |
| AA1-15 | 2026-09-01 00:36:16 | 49.38432 | 13.28241 | 14° | 9km/h | 32276m | 5.9m/s | 0°C | 0% | 0hPa | 2.6V | 03:32:13 | 02:30:40 | 00:00:00 | |
| HSKMA3-T | 2026-09-01 00:36:07 | 49.38380 | 13.28202 | 11° | 33km/h | 32229m | 5m/s | -39.4°C | 0% | 8.8hPa | 2.6V | 03:32:13 | 02:30:30 | 00:00:00 | |
| DM0DOS-11 | 2026-09-01 00:36:06 | 49.38373 | 13.28200 | 11° | 24km/h | 32224m | 5.2m/s | -39.3°C | 2.2% | 8.9hPa | 2.6V | 03:31:20 | 02:30:29 | 00:00:00 | |
| AA1-15 | 2026-09-01 00:35:59 | 49.38356 | 13.28196 | 4° | 16km/h | 32194m | 5.1m/s | 0°C | 0% | 0hPa | 2.6V | 03:32:13 | 02:30:23 | 00:00:00 | |
| PETON7-10 | 2026-09-01 00:35:59 | 49.38356 | 13.28195 | 5° | 22km/h | 32195m | 5.1m/s | -39.3°C | 2.2% | 8.8hPa | 2.6V | 00:00:00 | 00:00:00 | 00:00:00 | |
| PG1ADW-2 | 2026-09-01 00:35:57 | 49.38345 | 13.28193 | 13° | 22km/h | 32185m | 4.3m/s | -39.2°C | 2.2% | 8.8hPa | 2.6V | 00:00:00 | 02:30:21 | 00:00:00 | |
| DM0DOS-11 | 2026-09-01 00:35:55 | 49.38333 | 13.28188 | 18° | 26km/h | 32175m | 5.6m/s | -39.3°C | 2.1% | 8.9hPa | 2.6V | 03:31:30 | 02:30:19 | 00:00:00 | |
| HSKMA3-T | 2026-09-01 00:35:54 | 49.38327 | 13.28185 | 20° | 24km/h | 32170m | 5m/s | -39.3°C | 0% | 8.9hPa | 2.6V | 03:32:13 | 02:30:18 | 00:00:00 | |
| DM0DOS-11 | 2026-09-01 00:35:50 | 49.38280 | 13.28188 | 335° | 7km/h | 32126m | 5.9m/s | -39.2°C | 2.1% | 9hPa | 2.6V | 03:31:40 | 02:30:09 | 00:00:00 | |
| AA1-15 | 2026-09-01 00:35:48 | 49.38290 | 13.28182 | 343° | 22km/h | 32141m | 4.2m/s | 0°C | 0% | 0hPa | 2.6V | 03:32:13 | 02:30:12 | 00:00:00 | |
| HSKMA3-T | 2026-09-01 00:35:43 | 49.38277 | 13.28187 | 39° | 7km/h | 32116m | 3.8m/s | -39.2°C | 0% | 9hPa | 2.6V | 03:32:13 | 02:30:07 | 00:00:00 | |
| OE5REO-15 | 2026-09-01 00:35:42 | 49.38277 | 13.28187 | 40° | 7km/h | 32116m | 3.8m/s | -39.2°C | 0.5% | 9.0hPa | 2.6V | 03:32:00 | 00:00:00 | 00:00:00 | |
| DL6DJ-15 | 2026-09-01 00:35:39 | 49.38256 | 13.28174 | 15° | 37km/h | 32096m | 5.2m/s | -39.3°C | 0.5% | 9.0hPa | 2.6V | 00:00:00 | 00:00:00 | 00:00:00 | |
| S52SK | 2026-09-01 00:35:38 | 49.38256 | 13.28173 | 16° | 38km/h | 32096m | 5.2m/s | -39.3°C | 0.5% | 9.0hPa | 2.6V | 00:00:00 | 00:00:00 | 00:00:00 | |
| PG1ADW-2 | 2026-09-01 00:35:37 | 49.38237 | 13.28168 | 8° | 15km/h | 32088m | 3.5m/s | -39.2°C | 2.1% | 9.0hPa | 2.6V | 00:00:00 | 00:00:00 | 00:00:00 | |
| DM0DOS-11 | 2026-09-01 00:35:36 | 49.38223 | 13.28167 | 352° | 20km/h | 32078m | 5.7m/s | -39.3°C | 2.1% | 9.1hPa | 2.6V | 03:31:50 | 02:29:59 | 00:00:00 | |
| HSKMA3-T | 2026-09-01 00:35:32 | 49.38218 | 13.28174 | 265° | 9km/h | 32062m | 4.5m/s | -39.4°C | 0% | 9.1hPa | 2.6V | 03:32:13 | 02:29:56 | 00:00:00 | |
| DM0DOS-11 | 2026-09-01 00:35:30 | 49.38193 | 13.28185 | 15° | 24km/h | 32028m | 4.9m/s | -39.5°C | 2.1% | 9.1hPa | 2.6V | 03:32:00 | 02:29:49 | 00:00:00 | |
| AA1-15 | 2026-09-01 00:35:23 | 49.38184 | 13.28180 | 34° | 15km/h | 32018m | 5.3m/s | 0°C | 0% | 0hPa | 2.6V | 03:32:13 | 02:29:47 | 00:00:00 | |
| HSKMA3-T | 2026-09-01 00:35:21 | 49.38180 | 13.28175 | 48° | 5km/h | 32008m | 4.8m/s | -39.5°C | 0% | 9.1hPa | 2.6V | 03:32:13 | 02:29:45 | 00:00:00 | |
| DM0DOS-11 | 2026-09-01 00:35:18 | 49.38165 | 13.28183 | 31° | 4km/h | 31968m | 5.9m/s | -39.8°C | 2.1% | 9.2hPa | 2.6V | 03:32:12 | 02:29:37 | 00:00:00 | |
| AA1-15 | 2026-09-01 00:35:12 | 49.38164 | 13.28181 | 99° | 7km/h | 31962m | 5.7m/s | 0°C | 0% | 0hPa | 2.6V | 03:32:13 | 02:29:36 | 00:00:00 | |
| HSKMA3-T | 2026-09-01 00:35:10 | 49.38165 | 13.28174 | 85° | 13km/h | 31952m | 4.1m/s | -40.1°C | 0% | 9.2hPa | 2.6V | 03:34:46 | 02:29:34 | 00:00:00 | |
| BAUMI2-15 | 2026-09-01 00:35:08 | 49.38162 | 13.28164 | 44° | 18km/h | 31943m | 5.9m/s | -40.2°C | 2.2% | 9.2hPa | 2.6V | 00:00:00 | 02:29:32 | 00:00:00 | |
| DM0DOS-11 | 2026-09-01 00:35:06 | 49.38142 | 13.28168 | 298° | 18km/h | 31917m | 6m/s | -40.5°C | 2.3% | 9.3hPa | 2.6V | 03:32:22 | 02:29:27 | 00:00:00 | |
| HSKMA3-T | 2026-09-01 00:35:00 | 49.38140 | 13.28187 | 272° | 15km/h | 31902m | 4.1m/s | -40.5°C | 0% | 9.3hPa | 2.6V | 03:34:46 | 02:29:24 | 00:00:00 | |
| AA1-15 | 2026-09-01 00:34:55 | 49.38133 | 13.28189 | 65° | 13km/h | 31876m | 4.5m/s | 0°C | 0% | 0hPa | 2.6V | 03:36:28 | 02:29:19 | 00:00:00 | |
| DM0DOS-11 | 2026-09-01 00:34:53 | 49.38133 | 13.28181 | 128° | 11km/h | 31866m | 6m/s | -40.5°C | 2.2% | 9.3hPa | 2.6V | 03:32:32 | 02:29:17 | 00:00:00 | |
| HSKMA3-T | 2026-09-01 00:34:50 | 49.38144 | 13.28182 | 212° | 18km/h | 31850m | 4.4m/s | -40.7°C | 0% | 9.4hPa | 2.6V | 03:34:46 | 02:29:14 | 00:00:00 | |
| DM0DOS-11 | 2026-09-01 00:34:48 | 49.38145 | 13.28214 | 273° | 4km/h | 31814m | 5.9m/s | -40.9°C | 2.3% | 9.4hPa | 2.6V | 03:32:42 | 02:29:07 | 00:00:00 | |
| HSKMA3-T | 2026-09-01 00:34:40 | 49.38151 | 13.28215 | 181° | 16km/h | 31797m | 4.7m/s | -40.8°C | 0% | 9.4hPa | 2.5V | 03:34:46 | 02:29:04 | 00:00:00 | |
| DL6DJ-15 | 2026-09-01 00:34:37 | 49.38161 | 13.28223 | 266° | 11km/h | 31776m | 5.8m/s | -40.7°C | 0.5% | 9.5hPa | 2.5V | 00:00:00 | 00:00:00 | 00:00:00 | |
| DM0DOS-11 | 2026-09-01 00:34:36 | 49.38161 | 13.28241 | 266° | 16km/h | 31761m | 4.9m/s | -40.7°C | 2.3% | 9.5hPa | 2.5V | 03:32:52 | 02:28:57 | 00:00:00 | |
| AA1-15 | 2026-09-01 00:34:30 | 49.38167 | 13.28257 | 213° | 18km/h | 31744m | 5.5m/s | 0°C | 0% | 0hPa | 2.6V | 03:36:28 | 02:28:54 | 00:00:00 | |
| HSKMA3-T | 2026-09-01 00:34:29 | 49.38172 | 13.28261 | 202° | 20km/h | 31739m | 5m/s | -40.6°C | 0% | 9.5hPa | 2.6V | 03:34:46 | 02:28:53 | 00:00:00 | |
| PETON7-10 | 2026-09-01 00:34:29 | 49.38171 | 13.28260 | 203° | 15km/h | 31739m | 4.9m/s | -40.6°C | 2.3% | 9.5hPa | 2.6V | 03:32:00 | 00:00:00 | 00:00:00 | |
| OE5MMP-10 | 2026-09-01 00:34:26 | 49.38183 | 13.28268 | 220° | 13km/h | 31724m | 6.1m/s | -40.5°C | 2.3% | 9.5hPa | 2.6V | 03:32:00 | 02:28:50 | 00:00:00 | |
| DM0DOS-11 | 2026-09-01 00:34:24 | 49.38194 | 13.28288 | 202° | 18km/h | 31689m | 5.6m/s | -40.8°C | 2.3% | 9.6hPa | 2.6V | 03:33:05 | 02:28:44 | 00:00:00 | |
| HSKMA3-T | 2026-09-01 00:34:19 | 49.38198 | 13.28290 | 196° | 20km/h | 31684m | 4.8m/s | -40.9°C | 0% | 9.6hPa | 2.6V | 03:34:46 | 02:28:43 | 00:00:00 | |
| BAUMI2-15 | 2026-09-01 00:34:18 | 49.38203 | 13.28292 | 193° | 13km/h | 31679m | 5.1m/s | -40.8°C | 2.3% | 9.6hPa | 2.6V | 00:00:00 | 02:28:42 | 00:00:00 | |
| PG1ADW-2 | 2026-09-01 00:34:17 | 49.38206 | 13.28293 | 191° | 15km/h | 31673m | 6.2m/s | -40.8°C | 2.3% | 9.6hPa | 2.6V | 00:00:00 | 00:00:00 | 00:00:00 | |
| OE5MMP-10 | 2026-09-01 00:34:15 | 49.38212 | 13.28294 | 175° | 11km/h | 31661m | 5.2m/s | -40.8°C | 2.3% | 9.6hPa | 2.6V | 00:00:00 | 02:28:39 | 00:00:00 | |
| PETON7-10 | 2026-09-01 00:34:14 | 49.38214 | 13.28293 | 159° | 15km/h | 31657m | 4.7m/s | -40.8°C | 2.3% | 9.6hPa | 2.6V | 00:00:00 | 00:00:00 | 00:00:00 | |
| DM0DOS-11 | 2026-09-01 00:34:13 | 49.38227 | 13.28284 | 157° | 18km/h | 31633m | 5.3m/s | -41°C | 2.3% | 9.7hPa | 2.6V | 03:33:15 | 02:28:34 | 00:00:00 | |
| AA1-15 | 2026-09-01 00:34:10 | 49.38227 | 13.28284 | 158° | 18km/h | 31633m | 5.3m/s | 0°C | 0% | 0hPa | 2.6V | 03:36:28 | 02:28:34 | 00:00:00 | |
| HSKMA3-T | 2026-09-01 00:34:09 | 49.38231 | 13.28282 | 163° | 16km/h | 31628m | 4.9m/s | -41°C | 0% | 9.7hPa | 2.6V | 03:34:46 | 02:28:33 | 00:00:00 | |
| BAUMI2-15 | 2026-09-01 00:34:08 | 49.38235 | 13.28280 | 170° | 9km/h | 31623m | 5.5m/s | -41.0°C | 2.3% | 9.7hPa | 2.6V | 03:33:00 | 02:28:32 | 00:00:00 | |
| DL6DJ-15 | 2026-09-01 00:34:06 | 49.38242 | 13.28281 | 198° | 5km/h | 31606m | 4.7m/s | -41.1°C | 0.5% | 9.7hPa | 2.6V | 00:00:00 | 00:00:00 | 00:00:00 | |
| OE5MMP-10 | 2026-09-01 00:34:04 | 49.38244 | 13.28281 | 188° | 15km/h | 31601m | 4.6m/s | -41.0°C | 2.3% | 9.7hPa | 2.6V | 00:00:00 | 02:28:28 | 00:00:00 | |
| DM0DOS-11 | 2026-09-01 00:34:03 | 49.38260 | 13.28279 | 170° | 22km/h | 31578m | 5m/s | -41°C | 2.3% | 9.8hPa | 2.6V | 03:33:25 | 02:28:24 | 00:00:00 | |
| HSKMA3-T | 2026-09-01 00:33:58 | 49.38270 | 13.28276 | 172° | 16km/h | 31568m | 6.5m/s | -41.1°C | 0% | 9.8hPa | 2.5V | 03:34:46 | 02:28:22 | 00:00:00 | |
| PG1ADW-2 | 2026-09-01 00:33:57 | 49.38273 | 13.28275 | 171° | 16km/h | 31562m | 6.4m/s | -41.0°C | 2.3% | 9.7hPa | 2.6V | 03:33:00 | 00:00:00 | 00:00:00 | |
| OE5MMP-10 | 2026-09-01 00:33:54 | 49.38280 | 13.28268 | 127° | 18km/h | 31544m | 5.6m/s | -41.1°C | 2.3% | 9.8hPa | 2.6V | 00:00:00 | 02:28:18 | 00:00:00 | |
| DM0DOS-11 | 2026-09-01 00:33:53 | 49.38293 | 13.28243 | 133° | 22km/h | 31521m | 4.1m/s | -41.2°C | 2.3% | 9.8hPa | 2.6V | 03:33:35 | 02:28:14 | 00:00:00 | |
| AA1-15 | 2026-09-01 00:33:51 | 49.38289 | 13.28249 | 128° | 24km/h | 31525m | 5.2m/s | 0°C | 0% | 0hPa | 2.5V | 03:36:28 | 02:28:15 | 00:00:00 | |
| HSKMA3-T | 2026-09-01 00:33:48 | 49.38299 | 13.28234 | 156° | 11km/h | 31511m | 6.2m/s | -41.2°C | 0% | 9.9hPa | 2.6V | 03:34:46 | 02:28:12 | 00:00:00 | |
| BAUMI2-15 | 2026-09-01 00:33:48 | 49.38299 | 13.28234 | 157° | 11km/h | 31511m | 6.2m/s | -41.2°C | 2.3% | 9.8hPa | 2.6V | 03:33:00 | 02:28:12 | 00:00:00 | |
| OE5MMP-10 | 2026-09-01 00:33:44 | 49.38306 | 13.28244 | 231° | 24km/h | 31487m | 4.5m/s | -41.2°C | 2.3% | 9.9hPa | 2.6V | 03:33:00 | 02:28:08 | 00:00:00 | |
| DM0DOS-11 | 2026-09-01 00:33:43 | 49.38320 | 13.28236 | 126° | 27km/h | 31462m | 6.1m/s | -41.4°C | 2.3% | 9.9hPa | 2.6V | 03:33:45 | 02:28:04 | 00:00:00 | |
| AA1-15 | 2026-09-01 00:33:40 | 49.38320 | 13.28236 | 126° | 27km/h | 31463m | 6.1m/s | 0°C | 0% | 0hPa | 2.6V | 03:36:28 | 02:28:04 | 00:00:00 | |
| HSKMA3-T | 2026-09-01 00:33:36 | 49.38328 | 13.28193 | 88° | 24km/h | 31438m | 5.8m/s | -41.4°C | 0% | 10hPa | 2.6V | 03:34:46 | 02:28:00 | 00:00:00 | |
| DL6DJ-15 | 2026-09-01 00:33:35 | 49.38328 | 13.28179 | 87° | 13km/h | 31427m | 5.6m/s | -41.4°C | 0.5% | 10.0hPa | 2.6V | 00:00:00 | 00:00:00 | 00:00:00 | |
| OE5MMP-10 | 2026-09-01 00:33:33 | 49.38328 | 13.28175 | 110° | 16km/h | 31422m | 6.5m/s | -41.4°C | 2.3% | 9.9hPa | 2.6V | 00:00:00 | 02:27:57 | 00:00:00 | |
| DJTTGO | 2026-09-01 00:33:32 | 49.38328 | 13.28175 | 110° | 11km/h | 31422m | 6.5m/s | 0°C | 0% | 0hPa | 2.6V | 00:00:00 | 00:00:00 | 00:00:00 | |
| PETON7-10 | 2026-09-01 00:33:29 | 49.38340 | 13.28168 | 176° | 20km/h | 31397m | 5.7m/s | -41.5°C | 2.3% | 10.0hPa | 2.6V | 03:33:00 | 00:00:00 | 00:00:00 | |
| DM0DOS-11 | 2026-09-01 00:33:28 | 49.38354 | 13.28163 | 135° | 15km/h | 31372m | 5.5m/s | -41.6°C | 2.4% | 10.1hPa | 2.6V | 03:34:00 | 02:27:49 | 00:00:00 | |
| HSKMA3-T | 2026-09-01 00:33:21 | 49.38365 | 13.28127 | 111° | 37km/h | 31346m | 6.1m/s | -41.6°C | 0% | 10.1hPa | 2.6V | 03:34:46 | 02:27:45 | 00:00:00 | |
| DL1JEZ-13 | 2026-09-01 00:33:20 | 49.38366 | 13.28127 | 112° | 37km/h | 31347m | 6.1m/s | -41.6°C | 0.5% | 10.1hPa | 2.6V | 00:00:00 | 00:00:00 | 00:00:00 | |
| PETON7-10 | 2026-09-01 00:33:14 | 49.38371 | 13.28087 | 286° | 18km/h | 31304m | 5.3m/s | -41.8°C | 2.4% | 10.1hPa | 2.6V | 00:00:00 | 02:27:38 | 00:00:00 | |
| DM0DOS-11 | 2026-09-01 00:33:13 | 49.38382 | 13.28060 | 100° | 29km/h | 31268m | 7.2m/s | -41.9°C | 2.4% | 10.2hPa | 2.6V | 03:34:17 | 02:27:32 | 00:00:00 | |
| HSKMA3-T | 2026-09-01 00:33:08 | 49.38382 | 13.28060 | 101° | 29km/h | 31268m | 7.2m/s | -41.9°C | 0% | 10.2hPa | 2.6V | 03:34:46 | 02:27:32 | 00:00:00 | |
| AA1-15 | 2026-09-01 00:33:05 | 49.38381 | 13.28027 | 76° | 26km/h | 31248m | 5.9m/s | 0°C | 0% | 0hPa | 2.6V | 03:36:28 | 02:27:29 | 00:00:00 | |
| DL6DJ-15 | 2026-09-01 00:33:03 | 49.38378 | 13.28011 | 82° | 15km/h | 31236m | 6.2m/s | -41.8°C | 0.5% | 10.3hPa | 2.6V | 00:00:00 | 00:00:00 | 00:00:00 | |
| S52SK | 2026-09-01 00:33:02 | 49.38378 | 13.28011 | 83° | 16km/h | 31236m | 6.2m/s | -41.8°C | 0.5% | 10.3hPa | 2.6V | 00:00:00 | 00:00:00 | 00:00:00 | |
| DM0DOS-11 | 2026-09-01 00:32:58 | 49.38386 | 13.27997 | 145° | 7km/h | 31205m | 6m/s | -41.7°C | 2.4% | 10.3hPa | 2.6V | 03:34:27 | 02:27:22 | 00:00:00 | |
| HSKMA3-T | 2026-09-01 00:32:57 | 49.38387 | 13.27995 | 97° | 5km/h | 31198m | 7m/s | -41.7°C | 0% | 10.3hPa | 2.6V | 03:34:46 | 02:27:21 | 00:00:00 | |
| HSKMA3-T | 2026-09-01 00:32:46 | 49.38395 | 13.27933 | 65° | 7km/h | 31127m | 7.3m/s | -41.6°C | 0% | 10.4hPa | 2.6V | 03:34:46 | 02:27:10 | 00:00:00 | |
| HSKMA3-T | 2026-09-01 00:32:36 | 49.38383 | 13.27878 | 97° | 18km/h | 31063m | 5.8m/s | -41.4°C | 0% | 10.6hPa | 2.6V | 03:35:37 | 02:27:00 | 00:00:00 | |
| OE5MMP-10 | 2026-09-01 00:32:34 | 49.38385 | 13.27867 | 126° | 11km/h | 31051m | 7.2m/s | -41.3°C | 2.4% | 10.6hPa | 2.6V | 03:34:00 | 02:26:58 | 00:00:00 | |
| DM0DOS-11 | 2026-09-01 00:32:33 | 49.38392 | 13.27863 | 294° | 2km/h | 31026m | 6.2m/s | -41.3°C | 2.4% | 10.6hPa | 2.6V | 03:34:55 | 02:26:54 | 00:00:00 | |
| AA1-15 | 2026-09-01 00:32:32 | 49.38390 | 13.27862 | 170° | 9km/h | 31037m | 5.7m/s | 0°C | 0% | 0hPa | 2.6V | 03:36:28 | 02:26:56 | 00:00:00 | |
| HSKMA3-T | 2026-09-01 00:32:26 | 49.38381 | 13.27851 | 77° | 16km/h | 30995m | 6.8m/s | -41.2°C | 0% | 10.7hPa | 2.6V | 03:35:37 | 02:26:49 | 00:00:00 | |
| HSKMA3-T | 2026-09-01 00:32:15 | 49.38397 | 13.27819 | 247° | 5km/h | 30934m | 6.4m/s | -41°C | 0% | 10.8hPa | 2.6V | 03:35:37 | 02:26:39 | 00:00:00 | |
| DM0DOS-11 | 2026-09-01 00:32:15 | 49.38406 | 13.27812 | 115° | 13km/h | 30902m | 6.9m/s | -41°C | 2.3% | 10.8hPa | 2.6V | 03:35:15 | 02:26:34 | 00:00:00 | |
| HSKMA3-T | 2026-09-01 00:32:04 | 49.38419 | 13.27778 | 151° | 20km/h | 30866m | 5.8m/s | -40.9°C | 0% | 10.9hPa | 2.6V | 03:35:37 | 02:26:28 | 00:00:00 | |
| DM0DOS-11 | 2026-09-01 00:32:04 | 49.38432 | 13.27779 | 249° | 11km/h | 30842m | 6.1m/s | -40.9°C | 2.3% | 10.9hPa | 2.6V | 03:35:25 | 02:26:24 | 00:00:00 | |
| AA1-15 | 2026-09-01 00:32:02 | 49.38427 | 13.27775 | 187° | 13km/h | 30855m | 5.8m/s | 0°C | 0% | 0hPa | 2.6V | 03:36:28 | 02:26:26 | 00:00:00 | |
| DL6DJ-15 | 2026-09-01 00:32:01 | 49.38430 | 13.27776 | 216° | 11km/h | 30849m | 7.1m/s | -40.9°C | 0.5% | 10.9hPa | 2.6V | 00:00:00 | 00:00:00 | 00:00:00 | |
| OE5MMP-10 | 2026-09-01 00:32:00 | 49.38431 | 13.27779 | 250° | 16km/h | 30842m | 6.1m/s | -40.9°C | 2.3% | 10.9hPa | 2.6V | 00:00:00 | 02:26:24 | 00:00:00 | |
| PETON7-10 | 2026-09-01 00:31:59 | 49.38432 | 13.27784 | 263° | 16km/h | 30837m | 4.6m/s | -40.9°C | 2.3% | 10.9hPa | 2.6V | 00:00:00 | 00:00:00 | 00:00:00 | |
| PG1ADW-2 | 2026-09-01 00:31:57 | 49.38436 | 13.27792 | 181° | 18km/h | 30822m | 6.2m/s | -40.8°C | 2.3% | 10.9hPa | 2.6V | 00:00:00 | 02:26:20 | 00:00:00 | |
| DM0DOS-11 | 2026-09-01 00:31:54 | 49.38457 | 13.27755 | 105° | 22km/h | 30786m | 5.4m/s | -40.8°C | 2.3% | 11hPa | 2.6V | 03:35:35 | 02:26:14 | 00:00:00 | |
| HSKMA3-T | 2026-09-01 00:31:53 | 49.38448 | 13.27780 | 132° | 26km/h | 30804m | 5.4m/s | -40.8°C | 0% | 11hPa | 2.5V | 03:35:37 | 02:26:17 | 00:00:00 | |
| AA1-15 | 2026-09-01 00:31:49 | 49.38458 | 13.27747 | 104° | 18km/h | 30781m | 5.5m/s | 0°C | 0% | 0hPa | 2.6V | 03:36:28 | 02:26:13 | 00:00:00 | |
| OE3OSB-13 | 2026-09-01 00:31:49 | 49.38460 | 13.27741 | 111° | 15km/h | 30775m | 6.1m/s | -40.7°C | 0.5% | 11.0hPa | 2.6V | 00:00:00 | 00:00:00 | 00:00:00 | |
| HSKMA3-T | 2026-09-01 00:31:42 | 49.38471 | 13.27735 | 224° | 4km/h | 30740m | 6m/s | -40.7°C | 0% | 11.1hPa | 2.6V | 03:36:28 | 02:26:06 | 00:00:00 | |
| AA1-15 | 2026-09-01 00:31:36 | 49.38490 | 13.27711 | 135° | 37km/h | 30707m | 4.7m/s | 0°C | 0% | 0hPa | 2.6V | 03:36:28 | 02:26:00 | 00:00:00 | |
| DM0DOS-11 | 2026-09-01 00:31:33 | 49.38506 | 13.27665 | 24° | 9km/h | 30677m | 5.2m/s | -40.7°C | 2.3% | 11.2hPa | 2.6V | 03:35:55 | 02:25:54 | 00:00:00 | |
| HSKMA3-T | 2026-09-01 00:31:32 | 49.38508 | 13.27673 | 102° | 18km/h | 30689m | 6.6m/s | -40.7°C | 0% | 11.2hPa | 2.6V | 03:36:28 | 02:25:56 | 00:00:00 | |
| AA1-15 | 2026-09-01 00:31:25 | 49.38522 | 13.27659 | 155° | 38km/h | 30646m | 4.9m/s | 0°C | 0% | 0hPa | 2.6V | 03:36:28 | 02:25:48 | 00:00:00 | |
| HSKMA3-T | 2026-09-01 00:31:22 | 49.38539 | 13.27643 | 139° | 40km/h | 30636m | 5.3m/s | -40.9°C | 0% | 11.3hPa | 2.6V | 03:36:28 | 02:25:46 | 00:00:00 | |
| HSKMA3-T | 2026-09-01 00:31:12 | 49.38571 | 13.27592 | 162° | 16km/h | 30585m | 4.4m/s | -41.3°C | 0% | 11.3hPa | 2.6V | 03:36:28 | 02:25:36 | 00:00:00 | |
| AA1-15 | 2026-09-01 00:31:08 | 49.38593 | 13.27552 | 122° | 42km/h | 30558m | 5.7m/s | 0°C | 0% | 0hPa | 2.6V | 03:36:28 | 02:25:31 | 00:00:00 | |
| HSKMA3-T | 2026-09-01 00:31:02 | 49.38619 | 13.27485 | 107° | 27km/h | 30536m | 5.7m/s | -41.2°C | 0% | 11.4hPa | 2.6V | 03:36:28 | 02:25:26 | 00:00:00 | |
| AA1-15 | 2026-09-01 00:30:57 | 49.38616 | 13.27460 | 112° | 11km/h | 30510m | 5m/s | 0°C | 0% | 0hPa | 2.6V | 03:36:28 | 02:25:21 | 00:00:00 | |
| DM0DOS-11 | 2026-09-01 00:30:57 | 49.38622 | 13.27447 | 129° | 31km/h | 30500m | 4.7m/s | -41.3°C | 2.4% | 11.5hPa | 2.6V | 03:36:30 | 02:25:19 | 00:00:00 | |
| HSKMA3-T | 2026-09-01 00:30:51 | 49.38643 | 13.27385 | 103° | 51km/h | 30479m | 4.9m/s | -41.3°C | 0% | 11.5hPa | 2.6V | 03:37:19 | 02:25:15 | 00:00:00 | |
| OE5MMP-10 | 2026-09-01 00:30:49 | 49.38645 | 13.27349 | 88° | 33km/h | 30471m | 4.3m/s | -41.2°C | 2.4% | 11.5hPa | 2.5V | 00:00:00 | 02:25:13 | 00:00:00 | |
| BAUMI2-15 | 2026-09-01 00:30:48 | 49.38644 | 13.27335 | 82° | 18km/h | 30467m | 4.8m/s | -41.2°C | 2.4% | 11.5hPa | 2.5V | 03:36:00 | 02:25:12 | 00:00:00 | |
| DM0DOS-11 | 2026-09-01 00:30:47 | 49.38643 | 13.27312 | 97° | 9km/h | 30449m | 5.2m/s | -41.2°C | 2.3% | 11.6hPa | 2.5V | 03:36:40 | 02:25:09 | 00:00:00 | |
| OE3OSB-13 | 2026-09-01 00:30:47 | 49.38642 | 13.27316 | 83° | 15km/h | 30455m | 6.3m/s | -41.2°C | 0.5% | 11.6hPa | 2.6V | 00:00:00 | 00:00:00 | 00:00:00 | |
| HSKMA3-T | 2026-09-01 00:30:40 | 49.38646 | 13.27282 | 95° | 33km/h | 30425m | 4.8m/s | -41.2°C | 0% | 11.7hPa | 2.6V | 03:37:19 | 02:25:04 | 00:00:00 | |
| OE5REO-15 | 2026-09-01 00:30:39 | 49.38646 | 13.27282 | 96° | 33km/h | 30426m | 4.8m/s | -41.2°C | 0.5% | 11.6hPa | 2.6V | 00:00:00 | 00:00:00 | 00:00:00 | |
| BAUMI2-15 | 2026-09-01 00:30:38 | 49.38649 | 13.27251 | 101° | 44km/h | 30416m | 4.7m/s | -41.2°C | 2.3% | 11.6hPa | 2.6V | 00:00:00 | 02:25:02 | 00:00:00 | |
| DM0DOS-11 | 2026-09-01 00:30:37 | 49.38666 | 13.27173 | 104° | 29km/h | 30393m | 4.4m/s | -41.4°C | 2.3% | 11.7hPa | 2.6V | 03:36:52 | 02:24:57 | 00:00:00 | |
| HSKMA3-T | 2026-09-01 00:30:30 | 49.38664 | 13.27149 | 45° | 18km/h | 30376m | 5.1m/s | -41.6°C | 0% | 11.7hPa | 2.6V | 03:37:19 | 02:24:54 | 00:00:00 | |
| PETON7-10 | 2026-09-01 00:30:29 | 49.38660 | 13.27145 | 36° | 29km/h | 30371m | 4.1m/s | -41.6°C | 2.4% | 11.7hPa | 2.6V | 03:36:00 | 00:00:00 | 00:00:00 | |
| BAUMI2-15 | 2026-09-01 00:30:28 | 49.38657 | 13.27141 | 40° | 20km/h | 30367m | 4.2m/s | -41.7°C | 2.4% | 11.7hPa | 2.6V | 03:36:00 | 02:24:52 | 00:00:00 | |
| DM0DOS-11 | 2026-09-01 00:30:27 | 49.38663 | 13.27081 | 94° | 47km/h | 30339m | 5.4m/s | -42°C | 2.4% | 11.8hPa | 2.6V | 03:37:03 | 02:24:46 | 00:00:00 | |
| HSKMA3-T | 2026-09-01 00:30:20 | 49.38661 | 13.27045 | 75° | 46km/h | 30330m | 3.8m/s | -42.1°C | 0% | 11.8hPa | 2.6V | 03:37:19 | 02:24:44 | 00:00:00 | |
| HSKMA3-T | 2026-09-01 00:30:10 | 49.38639 | 13.26953 | 79° | 40km/h | 30282m | 5.9m/s | -42.5°C | 0% | 11.9hPa | 2.6V | 03:37:19 | 02:24:34 | 00:00:00 | |
| HSKMA3-T | 2026-09-01 00:30:00 | 49.38613 | 13.26835 | 34° | 20km/h | 30232m | 6.1m/s | 0°C | 0% | 12hPa | 2.5V | 03:38:10 | 02:24:24 | 00:00:00 | |
| DL6DJ-15 | 2026-09-01 00:29:57 | 49.38598 | 13.26821 | 41° | 24km/h | 30217m | 4.2m/s | -43.3°C | 0.6% | 12.0hPa | 2.6V | 00:00:00 | 00:00:00 | 00:00:00 | |
| DM0DOS-11 | 2026-09-01 00:29:53 | 49.38588 | 13.26769 | 81° | 24km/h | 30185m | 6.1m/s | -43.4°C | 2.6% | 12.1hPa | 2.6V | 03:37:34 | 02:24:15 | 00:00:00 | |
| HSKMA3-T | 2026-09-01 00:29:49 | 49.38585 | 13.26752 | 69° | 22km/h | 30174m | 4.7m/s | 0°C | 0% | 0hPa | 2.6V | 03:38:10 | 02:24:13 | 00:00:00 | |
| BAUMI2-15 | 2026-09-01 00:29:48 | 49.38583 | 13.26745 | 69° | 15km/h | 30170m | 4.6m/s | -43.3°C | 2.6% | 12.1hPa | 2.6V | 03:37:00 | 02:24:12 | 00:00:00 | |
| PETON7-10 | 2026-09-01 00:29:44 | 49.38582 | 13.26724 | 95° | 20km/h | 30148m | 4.7m/s | -43.3°C | 2.6% | 12.1hPa | 2.6V | 00:00:00 | 00:00:00 | 00:00:00 | |
| DM0DOS-11 | 2026-09-01 00:29:43 | 49.38574 | 13.26701 | 49° | 26km/h | 30125m | 5.7m/s | -43.4°C | 2.6% | 12.2hPa | 2.6V | 03:37:45 | 02:24:04 | 00:00:00 | |
| BAUMI2-15 | 2026-09-01 00:29:43 | 49.38581 | 13.26719 | 82° | 20km/h | 30143m | 4.9m/s | -43.3°C | 2.6% | 12.1hPa | 2.6V | 00:00:00 | 02:24:07 | 00:00:00 | |
| OE5MMP-10 | 2026-09-01 00:29:40 | 49.38574 | 13.26701 | 50° | 22km/h | 30125m | 5.6m/s | -43.4°C | 2.6% | 12.1hPa | 2.6V | 03:37:00 | 02:24:04 | 00:00:00 | |
| S52SK | 2026-09-01 00:29:39 | 49.38574 | 13.26701 | 50° | 26km/h | 30125m | 5.7m/s | -43.4°C | 0.6% | 12.2hPa | 2.6V | 00:00:00 | 00:00:00 | 00:00:00 | |
| BAUMI2-15 | 2026-09-01 00:29:38 | 49.38566 | 13.26684 | 58° | 22km/h | 30115m | 4.4m/s | -43.4°C | 2.6% | 12.1hPa | 2.6V | 00:00:00 | 02:24:02 | 00:00:00 | |
| HSKMA3-T | 2026-09-01 00:29:38 | 49.38566 | 13.26684 | 58° | 27km/h | 30115m | 4.4m/s | 0°C | 0% | 0hPa | 2.6V | 03:38:10 | 02:24:02 | 00:00:00 | |
| SONDE2-11 | 2026-09-01 00:29:34 | 49.38564 | 13.26645 | 98° | 15km/h | 30088m | 4.7m/s | -43.4°C | 0.6% | 12.2hPa | 2.6V | 00:00:00 | 00:00:00 | 00:00:00 | |
| DM0DOS-11 | 2026-09-01 00:29:33 | 49.38558 | 13.26631 | 28° | 20km/h | 30070m | 5.8m/s | -43.5°C | 2.6% | 12.3hPa | 2.6V | 03:37:55 | 02:23:54 | 00:00:00 | |
| HSKMA3-T | 2026-09-01 00:29:28 | 49.38548 | 13.26624 | 23° | 24km/h | 30059m | 5.4m/s | 0°C | 0% | 0hPa | 2.6V | 03:38:10 | 02:23:52 | 00:00:00 | |
| DL6DJ-15 | 2026-09-01 00:29:26 | 49.38539 | 13.26616 | 38° | 18km/h | 30047m | 5.8m/s | -43.5°C | 0.6% | 12.3hPa | 2.6V | 00:00:00 | 00:00:00 | 00:00:00 | |
| DM0DOS-11 | 2026-09-01 00:29:23 | 49.38517 | 13.26572 | 57° | 22km/h | 30014m | 5m/s | -43.4°C | 2.6% | 12.4hPa | 2.6V | 03:38:05 | 02:23:44 | 00:00:00 | |
| HSKMA3-T | 2026-09-01 00:29:18 | 49.38512 | 13.26559 | 63° | 15km/h | 30002m | 6.5m/s | 0°C | 0% | 0hPa | 2.6V | 03:38:10 | 02:23:42 | 00:00:00 | |
| OE5REO-15 | 2026-09-01 00:29:15 | 49.38509 | 13.26552 | 39° | 11km/h | 29991m | 4.9m/s | -43.5°C | 0.6% | 12.4hPa | 2.6V | 03:38:00 | 00:00:00 | 00:00:00 | |
| PETON7-10 | 2026-09-01 00:29:14 | 49.38502 | 13.26548 | 13° | 18km/h | 29980m | 6.9m/s | -43.6°C | 2.6% | 12.4hPa | 2.6V | 00:00:00 | 00:00:00 | 00:00:00 | |
| OE3OSB-13 | 2026-09-01 00:29:13 | 49.38497 | 13.26546 | 10° | 24km/h | 29973m | 5.8m/s | -43.6°C | 0.6% | 12.5hPa | 2.6V | 00:00:00 | 00:00:00 | 00:00:00 | |
| DM0DOS-11 | 2026-09-01 00:29:10 | 49.38472 | 13.26528 | 75° | 15km/h | 29946m | 6.9m/s | -43.7°C | 2.6% | 12.5hPa | 2.6V | 03:38:17 | 02:23:32 | 00:00:00 | |
| HSKMA3-T | 2026-09-01 00:29:07 | 49.38472 | 13.26522 | 102° | 16km/h | 29939m | 6.1m/s | 0°C | 0% | 0hPa | 2.6V | 18:12:15 | 02:23:31 | 00:00:00 | |
| SP3BTT-10 | 2026-09-01 00:29:07 | 49.38472 | 13.26522 | 103° | 13km/h | 29940m | 6.1m/s | -43.7°C | 2.6% | 12.5hPa | 2.6V | 00:00:00 | 00:00:00 | 00:00:00 | |
| DO3MHA-11 | 2026-09-01 00:29:06 | 49.38473 | 13.26516 | 111° | 18km/h | 29934m | 5.5m/s | -43.7°C | 2.6% | 12.5hPa | 2.6V | 03:38:00 | 02:23:30 | 00:00:00 | |
| SONDE2-11 | 2026-09-01 00:29:02 | 49.38472 | 13.26487 | 46° | 13km/h | 29905m | 5.6m/s | -43.8°C | 0.6% | 12.6hPa | 2.6V | 00:00:00 | 00:00:00 | 00:00:00 | |
| DM0DOS-11 | 2026-09-01 00:29:00 | 49.38464 | 13.26478 | 36° | 13km/h | 29887m | 5.2m/s | -43.9°C | 2.6% | 12.6hPa | 2.6V | 03:38:27 | 02:23:22 | 00:00:00 | |
| HSKMA3-T | 2026-09-01 00:28:56 | 49.38458 | 13.26471 | 38° | 18km/h | 29876m | 7m/s | 0°C | 0% | 0hPa | 2.6V | 18:12:15 | 02:23:20 | 00:00:00 | |
| DL6DJ-15 | 2026-09-01 00:28:55 | 49.38450 | 13.26460 | 44° | 22km/h | 29864m | 5.2m/s | -43.9°C | 0.6% | 12.7hPa | 2.6V | 00:00:00 | 00:00:00 | 00:00:00 | |
| DM0DOS-11 | 2026-09-01 00:28:53 | 49.38436 | 13.26439 | 18° | 11km/h | 29829m | 6.2m/s | -44.1°C | 2.6% | 12.7hPa | 2.6V | 03:38:37 | 02:23:12 | 00:00:00 | |
| HSKMA3-T | 2026-09-01 00:28:46 | 49.38429 | 13.26435 | 18° | 20km/h | 29816m | 6.1m/s | 0°C | 0% | 0hPa | 2.6V | 18:12:15 | 02:23:10 | 00:00:00 | |
| PETON7-10 | 2026-09-01 00:28:44 | 49.38419 | 13.26430 | 23° | 11km/h | 29805m | 5.3m/s | -44.3°C | 2.7% | 12.7hPa | 2.6V | 00:00:00 | 02:23:08 | 00:00:00 | |
| OE3OSB-13 | 2026-09-01 00:28:43 | 49.38411 | 13.26423 | 35° | 13km/h | 29793m | 6.3m/s | -44.5°C | 0.7% | 12.8hPa | 2.6V | 00:00:00 | 00:00:00 | 00:00:00 | |
| DO3MHA-11 | 2026-09-01 00:28:41 | 49.38408 | 13.26420 | 49° | 13km/h | 29787m | 5.5m/s | -44.5°C | 2.7% | 12.8hPa | 2.6V | 00:00:00 | 02:23:05 | 00:00:00 | |
| DM0DOS-11 | 2026-09-01 00:28:40 | 49.38402 | 13.26406 | 53° | 15km/h | 29768m | 5.7m/s | -44.5°C | 2.7% | 12.8hPa | 2.6V | 03:38:47 | 02:23:02 | 00:00:00 | |
| HSKMA3-T | 2026-09-01 00:28:34 | 49.38397 | 13.26396 | 287° | 2km/h | 29744m | 7m/s | 0°C | 0% | 0hPa | 2.6V | 18:12:15 | 02:22:58 | 00:00:00 | |
| HSKMA3-T | 2026-09-01 00:28:23 | 49.38382 | 13.26369 | 95° | 16km/h | 29678m | 5.4m/s | 0°C | 0% | 0hPa | 2.6V | 18:12:15 | 02:22:47 | 00:00:00 | |
| DM0DOS-11 | 2026-09-01 00:28:23 | 49.38375 | 13.26346 | 38° | 11km/h | 29647m | 6.1m/s | -44.7°C | 2.8% | 13.1hPa | 2.6V | 03:39:07 | 02:22:42 | 00:00:00 | |
| HSKMA3-T | 2026-09-01 00:28:12 | 49.38367 | 13.26330 | 53° | 16km/h | 29610m | 6.6m/s | 0°C | 0% | 0hPa | 2.6V | 18:12:15 | 02:22:36 | 00:00:00 | |
| HSKMA3-T | 2026-09-01 00:28:01 | 49.38361 | 13.26296 | 341° | 9km/h | 29544m | 5.5m/s | 0°C | 0% | 0hPa | 2.6V | 18:12:15 | 02:22:25 | 00:00:00 | |
| SONDE2-11 | 2026-09-01 00:28:00 | 49.38359 | 13.26297 | 341° | 5km/h | 29538m | 6.1m/s | -45.1°C | 0.6% | 13.3hPa | 2.6V | 00:00:00 | 00:00:00 | 00:00:00 | |
| PETON7-10 | 2026-09-01 00:27:59 | 49.38358 | 13.26297 | 66° | 15km/h | 29532m | 6.4m/s | -45.1°C | 2.8% | 13.3hPa | 2.6V | 00:00:00 | 02:22:23 | 00:00:00 | |
| DM0DOS-11 | 2026-09-01 00:27:57 | 49.38364 | 13.26279 | 108° | 22km/h | 29508m | 7.3m/s | -45.2°C | 2.8% | 13.3hPa | 2.6V | 03:39:30 | 02:22:19 | 00:00:00 | |
| HSKMA3-T | 2026-09-01 00:27:51 | 49.38371 | 13.26251 | 130° | 11km/h | 29484m | 6.7m/s | 0°C | 0% | 0hPa | 2.6V | 18:12:15 | 02:22:15 | 00:00:00 | |
| EDDB2-12 | 2026-09-01 00:27:45 | 49.38363 | 13.26268 | 335° | 22km/h | 29448m | 4.5m/s | -45.2°C | 0.7% | 13.5hPa | 2.6V | 00:00:00 | 00:00:00 | 00:00:00 | |
| EDDB2-11 | 2026-09-01 00:27:44 | 49.38354 | 13.26271 | 0° | 11km/h | 29439m | 5.4m/s | -45.2°C | 0.7% | 13.5hPa | 2.6V | 00:00:00 | 00:00:00 | 00:00:00 | |
| DM0DOS-11 | 2026-09-01 00:27:42 | 49.38364 | 13.26229 | 103° | 29km/h | 29403m | 5.4m/s | -45.2°C | 2.8% | 13.6hPa | 2.6V | 03:39:48 | 02:22:01 | 00:00:00 | |
| HSKMA3-T | 2026-09-01 00:27:38 | 49.38362 | 13.26240 | 113° | 31km/h | 29409m | 6.2m/s | 0°C | 0% | 0hPa | 2.6V | 18:12:15 | 02:22:02 | 00:00:00 | |
| OE5MMP-10 | 2026-09-01 00:27:38 | 49.38362 | 13.26240 | 113° | 16km/h | 29409m | 6.2m/s | -45.1°C | 2.8% | 13.5hPa | 2.6V | 00:00:00 | 02:22:02 | 00:00:00 | |
| OE5DRO-10 | 2026-09-01 00:27:35 | 49.38365 | 13.26211 | 71° | 11km/h | 29393m | 4.8m/s | -45.2°C | 2.8% | 13.6hPa | 2.6V | 03:39:00 | 00:00:00 | 00:00:00 | |
| PG1ADW-2 | 2026-09-01 00:27:33 | 49.38360 | 13.26205 | 357° | 13km/h | 29382m | 6.7m/s | -45.2°C | 2.8% | 13.6hPa | 2.6V | 00:00:00 | 00:00:00 | 00:00:00 | |
| DM0DOS-11 | 2026-09-01 00:27:31 | 49.38334 | 13.26215 | 49° | 24km/h | 29342m | 5.3m/s | -45.5°C | 2.8% | 13.7hPa | 2.6V | 03:39:59 | 02:21:50 | 00:00:00 | |
| PETON7-10 | 2026-09-01 00:27:29 | 49.38346 | 13.26220 | 334° | 16km/h | 29359m | 4.3m/s | -45.4°C | 2.8% | 13.6hPa | 2.6V | 03:39:00 | 00:00:00 | 00:00:00 | |
| BAUMI2-15 | 2026-09-01 00:27:28 | 49.38342 | 13.26221 | 358° | 22km/h | 29354m | 5.8m/s | -45.4°C | 2.8% | 13.6hPa | 2.6V | 03:39:00 | 02:21:52 | 00:00:00 | |
| S52SK | 2026-09-01 00:27:27 | 49.38342 | 13.26221 | 359° | 18km/h | 29354m | 5.8m/s | -45.4°C | 0.7% | 13.7hPa | 2.6V | 00:00:00 | 00:00:00 | 00:00:00 | |
| BAUMI2-15 | 2026-09-01 00:27:23 | 49.38329 | 13.26188 | 99° | 16km/h | 29325m | 6.3m/s | -45.5°C | 2.9% | 13.7hPa | 2.6V | 00:00:00 | 02:21:47 | 00:00:00 | |
| DL6DJ-15 | 2026-09-01 00:27:22 | 49.38333 | 13.26172 | 123° | 16km/h | 29314m | 4.6m/s | -45.6°C | 0.7% | 13.8hPa | 2.6V | 00:00:00 | 00:00:00 | 00:00:00 | |
| DM0DOS-11 | 2026-09-01 00:27:21 | 49.38333 | 13.26162 | 0° | 11km/h | 29286m | 5.2m/s | -45.5°C | 2.8% | 13.8hPa | 2.6V | 03:40:09 | 02:21:40 | 00:00:00 | |
| BAUMI2-15 | 2026-09-01 00:27:18 | 49.38337 | 13.26163 | 43° | 7km/h | 29298m | 6.1m/s | -45.5°C | 2.9% | 13.8hPa | 2.6V | 00:00:00 | 02:21:42 | 00:00:00 | |
| PETON7-10 | 2026-09-01 00:27:14 | 49.38328 | 13.26162 | 2° | 11km/h | 29276m | 5.4m/s | -45.5°C | 2.8% | 13.8hPa | 2.6V | 00:00:00 | 02:21:38 | 00:00:00 | |
| BAUMI2-15 | 2026-09-01 00:27:13 | 49.38327 | 13.26162 | 85° | 11km/h | 29271m | 6.4m/s | -45.4°C | 2.8% | 13.8hPa | 2.6V | 00:00:00 | 02:21:37 | 00:00:00 | |
| EDDB2-11 | 2026-09-01 00:27:12 | 49.38330 | 13.26158 | 132° | 13km/h | 29259m | 5.5m/s | -45.5°C | 0.7% | 13.9hPa | 2.6V | 00:00:00 | 00:00:00 | 00:00:00 | |
| DM0DOS-11 | 2026-09-01 00:27:11 | 49.38339 | 13.26132 | 126° | 9km/h | 29232m | 5.8m/s | -45.4°C | 2.8% | 13.9hPa | 2.6V | 03:40:19 | 02:21:30 | 00:00:00 | |
| DO3MHA-11 | 2026-09-01 00:27:09 | 49.38334 | 13.26147 | 117° | 11km/h | 29246m | 5.9m/s | -45.4°C | 2.9% | 13.8hPa | 2.6V | 00:00:00 | 02:21:33 | 00:00:00 | |
| BAUMI2-15 | 2026-09-01 00:27:08 | 49.38336 | 13.26141 | 113° | 11km/h | 29241m | 4.4m/s | -45.4°C | 2.8% | 13.9hPa | 2.6V | 03:40:00 | 02:21:32 | 00:00:00 | |
| OE5REO-15 | 2026-09-01 00:27:05 | 49.38339 | 13.26132 | 128° | 9km/h | 29232m | 5.8m/s | -45.4°C | 0.6% | 13.9hPa | 2.6V | 03:40:00 | 00:00:00 | 00:00:00 | |
| BAUMI2-15 | 2026-09-01 00:27:03 | 49.38342 | 13.26133 | 283° | 9km/h | 29215m | 5.1m/s | -45.4°C | 2.8% | 13.9hPa | 2.6V | 00:00:00 | 02:21:27 | 00:00:00 | |
| SONCRA | 2026-09-01 00:27:01 | 49.38320 | 13.26120 | 12° | 7km/h | 29121m | 5.2m/s | -45.7°C | 0.7% | 14.2hPa | 2.6V | 00:00:00 | 00:00:00 | 00:00:00 | |
| DM0DOS-11 | 2026-09-01 00:26:59 | 49.38336 | 13.26132 | 94° | 13km/h | 29166m | 5.7m/s | -45.5°C | 2.8% | 14.1hPa | 2.6V | 03:40:31 | 02:21:18 | 00:00:00 | |
| SONDE2-11 | 2026-09-01 00:26:58 | 49.38333 | 13.26143 | 31° | 2km/h | 29188m | 6.2m/s | -45.5°C | 0.7% | 14.1hPa | 2.6V | 00:00:00 | 00:00:00 | 00:00:00 | |
| DL6DJ-15 | 2026-09-01 00:26:51 | 49.38329 | 13.26118 | 14° | 9km/h | 29145m | 5.2m/s | -45.6°C | 0.7% | 14.1hPa | 2.6V | 00:00:00 | 00:00:00 | 00:00:00 | |
| DO3MHA-11 | 2026-09-01 00:26:49 | 49.38326 | 13.26118 | 357° | 7km/h | 29140m | 6.0m/s | -45.5°C | 2.8% | 14.1hPa | 2.6V | 03:40:00 | 02:21:13 | 00:00:00 | |
| BAUMI2-15 | 2026-09-01 00:26:48 | 49.38325 | 13.26118 | 335° | 9km/h | 29134m | 5.0m/s | -45.6°C | 2.8% | 14.1hPa | 2.6V | 03:40:00 | 02:21:12 | 00:00:00 | |
| OE5REO-15 | 2026-09-01 00:26:47 | 49.38325 | 13.26118 | 336° | 7km/h | 29134m | 5.1m/s | -45.6°C | 0.7% | 14.2hPa | 2.6V | 03:40:00 | 00:00:00 | 00:00:00 | |
| DM0DOS-11 | 2026-09-01 00:26:44 | 49.38314 | 13.26115 | 34° | 16km/h | 29110m | 5.3m/s | -45.7°C | 2.8% | 14.2hPa | 2.6V | 03:40:42 | 02:21:07 | 00:00:00 | |
| PETON7-10 | 2026-09-01 00:26:44 | 49.38317 | 13.26119 | 28° | 11km/h | 29115m | 5.4m/s | -45.6°C | 2.8% | 14.2hPa | 2.6V | 00:00:00 | 00:00:00 | 00:00:00 | |
| BAUMI2-15 | 2026-09-01 00:26:43 | 49.38314 | 13.26115 | 35° | 15km/h | 29110m | 5.2m/s | -45.7°C | 2.8% | 14.2hPa | 2.6V | 00:00:00 | 02:21:07 | 00:00:00 | |
| EDDB2-11 | 2026-09-01 00:26:41 | 49.38307 | 13.26107 | 44° | 15km/h | 29100m | 4.4m/s | -45.8°C | 0.7% | 14.2hPa | 2.6V | 00:00:00 | 00:00:00 | 00:00:00 | |
| BAUMI2-15 | 2026-09-01 00:26:38 | 49.38303 | 13.26099 | 74° | 5km/h | 29084m | 4.9m/s | -45.8°C | 2.8% | 14.2hPa | 2.6V | 00:00:00 | 02:21:02 | 00:00:00 | |
| SP3BTT-10 | 2026-09-01 00:26:36 | 49.38302 | 13.26096 | 39° | 5km/h | 29074m | 5.7m/s | -45.9°C | 2.8% | 14.2hPa | 2.6V | 03:40:00 | 00:00:00 | 00:00:00 | |
| OE5DRO-10 | 2026-09-01 00:26:34 | 49.38299 | 13.26094 | 19° | 9km/h | 29064m | 4.4m/s | -46.1°C | 2.9% | 14.3hPa | 2.6V | 00:00:00 | 00:00:00 | 00:00:00 | |
| DM0DOS-11 | 2026-09-01 00:26:33 | 49.38293 | 13.26093 | 358° | 11km/h | 29054m | 5.2m/s | -46.2°C | 2.9% | 14.3hPa | 2.6V | 03:40:53 | 02:20:56 | 00:00:00 | |
| BAUMI2-15 | 2026-09-01 00:26:33 | 49.38296 | 13.26093 | 10° | 9km/h | 29059m | 4.4m/s | -46.1°C | 2.9% | 14.3hPa | 2.6V | 00:00:00 | 02:20:57 | 00:00:00 | |
| OE5REO-15 | 2026-09-01 00:26:31 | 49.38293 | 13.26092 | 360° | 11km/h | 29055m | 5.2m/s | -46.2°C | 0.7% | 14.3hPa | 2.6V | 00:00:00 | 00:00:00 | 00:00:00 | |
| SONCRA | 2026-09-01 00:26:30 | 49.38289 | 13.26094 | 337° | 7km/h | 29043m | 4.9m/s | -46.3°C | 0.7% | -1.0hPa | 2.6V | 00:00:00 | 00:00:00 | 00:00:00 | |
| PETON7-10 | 2026-09-01 00:26:29 | 49.38287 | 13.26095 | 349° | 9km/h | 29039m | 4.5m/s | -46.3°C | 2.9% | 14.3hPa | 2.6V | 03:40:00 | 02:20:53 | 00:00:00 | |
| BAUMI2-15 | 2026-09-01 00:26:28 | 49.38285 | 13.26095 | 8° | 15km/h | 29034m | 4.9m/s | -46.3°C | 2.9% | 14.3hPa | 2.6V | 03:40:00 | 02:20:52 | 00:00:00 | |
| SONDE2-11 | 2026-09-01 00:26:27 | 49.38282 | 13.26094 | 25° | 11km/h | 29029m | 5.7m/s | -46.4°C | 0.7% | 14.4hPa | 2.6V | 00:00:00 | 00:00:00 | 00:00:00 | |
| DM0DOS-11 | 2026-09-01 00:26:23 | 49.38269 | 13.26077 | 54° | 5km/h | 29005m | 5.8m/s | -46.4°C | 2.9% | 14.4hPa | 2.6V | 03:41:03 | 02:20:46 | 00:00:00 | |
| BAUMI2-15 | 2026-09-01 00:26:23 | 49.38271 | 13.26079 | 48° | 4km/h | 29011m | 5.0m/s | -46.4°C | 2.9% | 14.4hPa | 2.6V | 00:00:00 | 02:20:47 | 00:00:00 | |
| DL6DJ-15 | 2026-09-01 00:26:19 | 49.38269 | 13.26075 | 84° | 0km/h | 28991m | 4.4m/s | -46.5°C | 0.7% | 14.5hPa | 2.6V | 00:00:00 | 00:00:00 | 00:00:00 | |
| BAUMI2-15 | 2026-09-01 00:26:18 | 49.38269 | 13.26074 | 49° | 11km/h | 28986m | 5.6m/s | -46.5°C | 2.9% | 14.4hPa | 2.6V | 00:00:00 | 02:20:42 | 00:00:00 | |
| OE5REO-15 | 2026-09-01 00:26:16 | 49.38268 | 13.26073 | 39° | 9km/h | 28981m | 5.2m/s | -46.7°C | 0.7% | 14.5hPa | 2.6V | 00:00:00 | 00:00:00 | 00:00:00 | |
| OE5DRO-10 | 2026-09-01 00:26:15 | 49.38262 | 13.26068 | 23° | 7km/h | 28972m | 4.4m/s | -46.8°C | 3.0% | 14.5hPa | 2.6V | 03:41:00 | 00:00:00 | 00:00:00 | |
| PETON7-10 | 2026-09-01 00:26:14 | 49.38259 | 13.26066 | 15° | 7km/h | 28967m | 5.4m/s | -46.9°C | 3.0% | 14.5hPa | 2.6V | 00:00:00 | 00:00:00 | 00:00:00 | |
| BAUMI2-15 | 2026-09-01 00:26:13 | 49.38256 | 13.26065 | 1° | 7km/h | 28961m | 5.2m/s | -46.9°C | 3.0% | 14.5hPa | 2.6V | 00:00:00 | 02:20:37 | 00:00:00 | |
| EDDB2-12 | 2026-09-01 00:26:12 | 49.38253 | 13.26066 | 347° | 7km/h | 28956m | 4.7m/s | -47.0°C | 0.7% | 14.6hPa | 2.6V | 00:00:00 | 00:00:00 | 00:00:00 | |
| EDDB2-11 | 2026-09-01 00:26:10 | 49.38251 | 13.26066 | 42° | 2km/h | 28947m | 4.2m/s | -47.1°C | 0.7% | 14.6hPa | 2.6V | 00:00:00 | 00:00:00 | 00:00:00 | |
| BAUMI2-15 | 2026-09-01 00:26:08 | 49.38250 | 13.26061 | 92° | 9km/h | 28937m | 5.7m/s | -47.1°C | 3.0% | 14.5hPa | 2.6V | 03:41:00 | 02:20:32 | 00:00:00 | |
| OE3OSB-13 | 2026-09-01 00:26:07 | 49.38251 | 13.26057 | 103° | 11km/h | 28932m | 4.3m/s | -47.2°C | 0.8% | 14.6hPa | 2.6V | 00:00:00 | 00:00:00 | 00:00:00 | |
| DM0DOS-11 | 2026-09-01 00:26:03 | 49.38256 | 13.26050 | 26° | 5km/h | 28897m | 5m/s | -47.3°C | 3.1% | 14.7hPa | 2.6V | 03:41:25 | 02:20:24 | 00:00:00 | |
| BAUMI2-15 | 2026-09-01 00:26:03 | 49.38256 | 13.26049 | 202° | 4km/h | 28912m | 4.6m/s | -47.2°C | 3.1% | 14.6hPa | 2.6V | 00:00:00 | 02:20:27 | 00:00:00 | |
| OE5REO-15 | 2026-09-01 00:26:01 | 49.38257 | 13.26050 | 230° | 4km/h | 28907m | 4.5m/s | -47.3°C | 0.8% | 14.7hPa | 2.6V | 00:00:00 | 00:00:00 | 00:00:00 | |
| PETON7-10 | 2026-09-01 00:25:59 | 49.38255 | 13.26049 | 33° | 7km/h | 28893m | 3.9m/s | -47.3°C | 3.1% | 14.6hPa | 2.6V | 00:00:00 | 00:00:00 | 00:00:00 | |
| BAUMI2-15 | 2026-09-01 00:25:58 | 49.38253 | 13.26048 | 32° | 4km/h | 28888m | 4.1m/s | -47.3°C | 3.1% | 14.6hPa | 2.6V | 00:00:00 | 02:20:22 | 00:00:00 | |
| OE5DRO-10 | 2026-09-01 00:25:56 | 49.38252 | 13.26047 | 163° | 7km/h | 28878m | 5.2m/s | -47.3°C | 3.1% | 14.7hPa | 2.6V | 00:00:00 | 00:00:00 | 00:00:00 | |
| BAUMI2-15 | 2026-09-01 00:25:53 | 49.38255 | 13.26045 | 141° | 11km/h | 28863m | 5.8m/s | -47.3°C | 3.1% | 14.7hPa | 2.6V | 00:00:00 | 02:20:17 | 00:00:00 | |
| DM0DOS-11 | 2026-09-01 00:25:52 | 49.38264 | 13.26032 | 193° | 5km/h | 28838m | 5.9m/s | -47.4°C | 3.1% | 14.8hPa | 2.6V | 03:41:37 | 02:20:12 | 00:00:00 | |
| PG1ADW-2 | 2026-09-01 00:25:52 | 49.38257 | 13.26042 | 128° | 11km/h | 28858m | 5.9m/s | -47.3°C | 3.1% | 14.7hPa | 2.6V | 00:00:00 | 02:20:16 | 00:00:00 | |
| SP3BTT-10 | 2026-09-01 00:25:51 | 49.38259 | 13.26038 | 125° | 13km/h | 28852m | 4.6m/s | -47.3°C | 3.1% | 14.8hPa | 2.6V | 00:00:00 | 00:00:00 | 00:00:00 | |
| BAUMI2-15 | 2026-09-01 00:25:48 | 49.38264 | 13.26032 | 194° | 5km/h | 28838m | 5.8m/s | -47.3°C | 3.1% | 14.8hPa | 2.6V | 03:41:00 | 02:20:12 | 00:00:00 | |
| OE5REO-15 | 2026-09-01 00:25:45 | 49.38266 | 13.26036 | 264° | 9km/h | 28828m | 4.5m/s | -47.4°C | 0.7% | 14.9hPa | 2.6V | 03:42:00 | 00:00:00 | 00:00:00 | |
| PETON7-10 | 2026-09-01 00:25:44 | 49.38265 | 13.26041 | 315° | 13km/h | 28818m | 5.6m/s | -47.3°C | 3.1% | 14.8hPa | 2.6V | 00:00:00 | 02:20:08 | 00:00:00 | |
| BAUMI2-15 | 2026-09-01 00:25:43 | 49.38265 | 13.26041 | 51° | 9km/h | 28813m | 4.7m/s | -47.4°C | 3.1% | 14.8hPa | 2.6V | 00:00:00 | 02:20:07 | 00:00:00 | |
| DM0DOS-11 | 2026-09-01 00:25:42 | 49.38273 | 13.26027 | 158° | 18km/h | 28788m | 4.9m/s | -47.3°C | 3.2% | 14.9hPa | 2.6V | 03:41:47 | 02:20:02 | 00:00:00 | |
| EDDB2-12 | 2026-09-01 00:25:41 | 49.38265 | 13.26036 | 113° | 9km/h | 28804m | 4.1m/s | -47.4°C | 0.7% | 14.9hPa | 2.6V | 00:00:00 | 00:00:00 | 00:00:00 | |
| EDDB2-11 | 2026-09-01 00:25:39 | 49.38269 | 13.26030 | 151° | 13km/h | 28794m | 5.8m/s | -47.4°C | 0.8% | 14.9hPa | 2.6V | 00:00:00 | 00:00:00 | 00:00:00 | |
| BAUMI2-15 | 2026-09-01 00:25:38 | 49.38273 | 13.26027 | 159° | 20km/h | 28788m | 4.8m/s | -47.3°C | 3.2% | 14.9hPa | 2.6V | 00:00:00 | 02:20:02 | 00:00:00 | |
| OE5DRO-10 | 2026-09-01 00:25:37 | 49.38277 | 13.26025 | 158° | 13km/h | 28784m | 4.5m/s | -47.3°C | 3.1% | 14.9hPa | 2.6V | 00:00:00 | 00:00:00 | 00:00:00 | |
| OE3OSB-13 | 2026-09-01 00:25:36 | 49.38286 | 13.26017 | 139° | 20km/h | 28773m | 5.6m/s | -47.4°C | 0.8% | 14.9hPa | 2.6V | 00:00:00 | 00:00:00 | 00:00:00 | |
| BAUMI2-15 | 2026-09-01 00:25:33 | 49.38292 | 13.26006 | 126° | 11km/h | 28765m | 3.8m/s | -47.3°C | 3.1% | 14.9hPa | 2.6V | 00:00:00 | 02:19:57 | 00:00:00 | |
| PG1ADW-2 | 2026-09-01 00:25:32 | 49.38294 | 13.26001 | 128° | 9km/h | 28760m | 4.6m/s | -47.3°C | 3.1% | 15.0hPa | 2.6V | 00:00:00 | 00:00:00 | 00:00:00 | |
| S52SK | 2026-09-01 00:25:30 | 49.38296 | 13.25998 | 143° | 9km/h | 28755m | 6.0m/s | -47.3°C | 0.7% | 15.0hPa | 2.6V | 00:00:00 | 00:00:00 | 00:00:00 | |
| PETON7-10 | 2026-09-01 00:25:29 | 49.38299 | 13.25998 | 207° | 11km/h | 28744m | 4.3m/s | -47.3°C | 3.1% | 15.0hPa | 2.6V | 03:41:00 | 00:00:00 | 00:00:00 | |
| SONCRA | 2026-09-01 00:25:28 | 49.38300 | 13.25998 | 196° | 2km/h | 28740m | 4.1m/s | -47.4°C | -1.0% | -1.0hPa | 2.6V | 00:00:00 | 00:00:00 | 00:00:00 | |
| SONDE2-11 | 2026-09-01 00:25:25 | 49.38301 | 13.25991 | 91° | 13km/h | 28724m | 4.8m/s | -47.4°C | 0.8% | 15.1hPa | 2.6V | 00:00:00 | 00:00:00 | 00:00:00 | |
| DO3MHA-11 | 2026-09-01 00:25:23 | 49.38301 | 13.25979 | 99° | 11km/h | 28716m | 5.0m/s | -47.4°C | 3.1% | 15.1hPa | 2.6V | 00:00:00 | 02:19:47 | 00:00:00 | |
| OE5DRO-10 | 2026-09-01 00:25:18 | 49.38308 | 13.25960 | 116° | 15km/h | 28690m | 5.8m/s | -47.5°C | 3.1% | 15.1hPa | 2.6V | 00:00:00 | 00:00:00 | 00:00:00 | |
| DL6DJ-15 | 2026-09-01 00:25:17 | 49.38309 | 13.25956 | 96° | 9km/h | 28684m | 5.3m/s | -47.5°C | 0.7% | 15.2hPa | 2.6V | 00:00:00 | 00:00:00 | 00:00:00 | |
| PETON7-10 | 2026-09-01 00:25:14 | 49.38306 | 13.25947 | 28° | 16km/h | 28668m | 6.3m/s | -47.6°C | 3.1% | 15.2hPa | 2.6V | 00:00:00 | 00:00:00 | 00:00:00 | |
| OE5REO-15 | 2026-09-01 00:25:13 | 49.38307 | 13.25947 | 28° | 7km/h | 28668m | 6.4m/s | -47.6°C | 0.8% | 15.2hPa | 2.6V | 03:42:00 | 00:00:00 | 00:00:00 | |
| PG1ADW-2 | 2026-09-01 00:25:12 | 49.38302 | 13.25945 | 12° | 16km/h | 28658m | 4.0m/s | -47.6°C | 3.1% | 15.2hPa | 2.6V | 03:42:00 | 00:00:00 | 00:00:00 | |
| EDDB2-12 | 2026-09-01 00:25:10 | 49.38297 | 13.25940 | 48° | 15km/h | 28649m | 4.9m/s | -47.8°C | 0.7% | 15.3hPa | 2.6V | 00:00:00 | 00:00:00 | 00:00:00 | |
| DO3MHA-11 | 2026-09-01 00:25:09 | 49.38294 | 13.25934 | 64° | 20km/h | 28644m | 6.3m/s | -47.7°C | 3.1% | 15.2hPa | 2.6V | 00:00:00 | 02:19:33 | 00:00:00 | |
| EDDB2-11 | 2026-09-01 00:25:08 | 49.38292 | 13.25926 | 78° | 26km/h | 28637m | 5.6m/s | -47.8°C | 0.7% | 15.3hPa | 2.6V | 00:00:00 | 00:00:00 | 00:00:00 | |
| SP3BTT-10 | 2026-09-01 00:25:06 | 49.38292 | 13.25906 | 104° | 13km/h | 28628m | 4.2m/s | -47.8°C | 3.1% | 15.3hPa | 2.6V | 00:00:00 | 00:00:00 | 00:00:00 | |
| OE3OSB-13 | 2026-09-01 00:25:05 | 49.38297 | 13.25893 | 148° | 13km/h | 28619m | 5.5m/s | -47.9°C | 0.8% | 15.3hPa | 2.6V | 00:00:00 | 00:00:00 | 00:00:00 | |
| DO3MHA-11 | 2026-09-01 00:24:59 | 49.38299 | 13.25907 | 339° | 15km/h | 28593m | 5.5m/s | -47.9°C | 3.2% | 15.3hPa | 2.6V | 00:00:00 | 02:19:23 | 00:00:00 | |
| DM0DOS-11 | 2026-09-01 00:24:58 | 49.38289 | 13.25886 | 102° | 18km/h | 28566m | 5.8m/s | -47.9°C | 3.2% | 15.5hPa | 2.6V | 03:42:31 | 02:19:18 | 00:00:00 | |
| SONDE2-11 | 2026-09-01 00:24:54 | 49.38289 | 13.25886 | 102° | 16km/h | 28566m | 5.8m/s | -47.9°C | 0.8% | 15.5hPa | 2.6V | 00:00:00 | 00:00:00 | 00:00:00 | |
| PG1ADW-2 | 2026-09-01 00:24:52 | 49.38292 | 13.25875 | 132° | 7km/h | 28556m | 4.6m/s | -47.8°C | 3.2% | 15.4hPa | 2.6V | 00:00:00 | 00:00:00 | 00:00:00 | |
| DO3MHA-11 | 2026-09-01 00:24:49 | 49.38298 | 13.25868 | 130° | 5km/h | 28540m | 6.0m/s | -47.8°C | 3.2% | 15.5hPa | 2.6V | 03:42:00 | 02:19:13 | 00:00:00 | |
| DM0DOS-11 | 2026-09-01 00:24:48 | 49.38296 | 13.25878 | 248° | 9km/h | 28511m | 6.2m/s | -47.9°C | 3.2% | 15.6hPa | 2.6V | 03:42:41 | 02:19:08 | 00:00:00 | |
| DL6DJ-15 | 2026-09-01 00:24:46 | 49.38296 | 13.25871 | 296° | 7km/h | 28523m | 5.1m/s | -47.9°C | 0.8% | 15.5hPa | 2.6V | 00:00:00 | 00:00:00 | 00:00:00 | |
| PETON7-10 | 2026-09-01 00:24:44 | 49.38295 | 13.25878 | 249° | 7km/h | 28512m | 6.2m/s | -47.8°C | 3.2% | 15.5hPa | 2.6V | 00:00:00 | 00:00:00 | 00:00:00 | |
| OE5REO-15 | 2026-09-01 00:24:43 | 49.38296 | 13.25877 | 250° | 9km/h | 28512m | 6.2m/s | -47.9°C | 0.8% | 15.6hPa | 2.6V | 03:43:00 | 00:00:00 | 00:00:00 | |
| DO3MHA-11 | 2026-09-01 00:24:39 | 49.38300 | 13.25880 | 83° | 7km/h | 28484m | 5.4m/s | -47.9°C | 3.2% | 15.6hPa | 2.6V | 00:00:00 | 02:19:03 | 00:00:00 | |
| DM0DOS-11 | 2026-09-01 00:24:38 | 49.38303 | 13.25864 | 153° | 4km/h | 28456m | 5.1m/s | -47.9°C | 3.2% | 15.7hPa | 2.6V | 03:42:51 | 02:18:58 | 00:00:00 | |
| EDDB2-11 | 2026-09-01 00:24:37 | 49.38300 | 13.25872 | 93° | 11km/h | 28473m | 6.0m/s | -48.0°C | 0.8% | 15.7hPa | 2.6V | 00:00:00 | 00:00:00 | 00:00:00 | |
| OE3OSB-13 | 2026-09-01 00:24:34 | 49.38303 | 13.25864 | 229° | 0km/h | 28451m | 5.4m/s | -47.9°C | 0.8% | 15.7hPa | 2.6V | 00:00:00 | 00:00:00 | 00:00:00 | |
| PG1ADW-2 | 2026-09-01 00:24:32 | 49.38303 | 13.25864 | 316° | 9km/h | 28445m | 6.9m/s | -47.9°C | 3.2% | 15.7hPa | 2.6V | 00:00:00 | 02:18:56 | 00:00:00 | |
| PETON7-10 | 2026-09-01 00:24:29 | 49.38297 | 13.25872 | 305° | 9km/h | 28428m | 5.2m/s | -47.8°C | 3.2% | 15.7hPa | 2.6V | 03:42:00 | 00:00:00 | 00:00:00 | |
| OE5MMP-10 | 2026-09-01 00:24:28 | 49.38296 | 13.25877 | 289° | 9km/h | 28422m | 6.5m/s | -47.8°C | 3.2% | 15.7hPa | 2.6V | 03:42:00 | 02:18:52 | 00:00:00 | |
| OE5REO-15 | 2026-09-01 00:24:27 | 49.38296 | 13.25877 | 289° | 11km/h | 28422m | 6.6m/s | -47.9°C | 0.8% | 15.8hPa | 2.6V | 03:43:00 | 00:00:00 | 00:00:00 | |
| SONCRA | 2026-09-01 00:24:26 | 49.38297 | 13.25883 | 80° | 7km/h | 28392m | 6.2m/s | 0°C | -1.0% | -1.0hPa | 2.6V | 00:00:00 | 00:00:00 | 00:00:00 | |
| SONDE2-11 | 2026-09-01 00:24:23 | 49.38297 | 13.25883 | 80° | 7km/h | 28392m | 6.2m/s | -47.9°C | 0.8% | 15.9hPa | 2.6V | 00:00:00 | 00:00:00 | 00:00:00 | |
| OE5DRO-10 | 2026-09-01 00:24:21 | 49.38297 | 13.25866 | 129° | 15km/h | 28370m | 6.0m/s | -47.9°C | 3.2% | 15.9hPa | 2.6V | 00:00:00 | 00:00:00 | 00:00:00 | |
| DO3MHA-11 | 2026-09-01 00:24:19 | 49.38297 | 13.25866 | 129° | 11km/h | 28370m | 6.0m/s | -47.9°C | 3.2% | 15.9hPa | 2.6V | 00:00:00 | 02:18:43 | 00:00:00 | |
| OE5MMP-10 | 2026-09-01 00:24:18 | 49.38298 | 13.25865 | 174° | 13km/h | 28365m | 5.1m/s | -47.8°C | 3.2% | 15.9hPa | 2.6V | 00:00:00 | 02:18:42 | 00:00:00 | |
| DL6DJ-15 | 2026-09-01 00:24:15 | 49.38299 | 13.25872 | 300° | 11km/h | 28348m | 7.1m/s | -47.9°C | 0.8% | 16.0hPa | 2.6V | 00:00:00 | 00:00:00 | 00:00:00 | |
| PETON7-10 | 2026-09-01 00:24:14 | 49.38296 | 13.25877 | 312° | 11km/h | 28341m | 6.3m/s | -47.9°C | 3.2% | 16.0hPa | 2.6V | 00:00:00 | 02:18:38 | 00:00:00 | |
| PG1ADW-2 | 2026-09-01 00:24:12 | 49.38290 | 13.25887 | 308° | 11km/h | 28330m | 5.2m/s | -47.9°C | 3.1% | 16.0hPa | 2.6V | 00:00:00 | 00:00:00 | 00:00:00 | |
| OE5REO-15 | 2026-09-01 00:24:11 | 49.38290 | 13.25887 | 308° | 16km/h | 28330m | 5.3m/s | -47.9°C | 0.7% | 16.0hPa | 2.6V | 03:43:00 | 00:00:00 | 00:00:00 | |
| DO3MHA-11 | 2026-09-01 00:24:09 | 49.38288 | 13.25899 | 216° | 9km/h | 28312m | 5.8m/s | -47.8°C | 3.1% | 16.0hPa | 2.6V | 03:43:00 | 02:18:33 | 00:00:00 | |
| DM0DOS-11 | 2026-09-01 00:24:08 | 49.38295 | 13.25895 | 127° | 11km/h | 28293m | 6.5m/s | -47.9°C | 3.2% | 16.1hPa | 2.6V | 03:43:19 | 02:18:30 | 00:00:00 | |
| OE5MMP-10 | 2026-09-01 00:24:08 | 49.38290 | 13.25899 | 172° | 11km/h | 28306m | 5.7m/s | -47.8°C | 3.2% | 16.0hPa | 2.6V | 00:00:00 | 02:18:32 | 00:00:00 | |
| EDDB2-11 | 2026-09-01 00:24:06 | 49.38295 | 13.25895 | 127° | 11km/h | 28293m | 6.5m/s | -47.9°C | 0.8% | 16.1hPa | 2.6V | 00:00:00 | 00:00:00 | 00:00:00 | |
| SP3BTT-10 | 2026-09-01 00:24:05 | 49.38296 | 13.25892 | 118° | 11km/h | 28288m | 4.8m/s | -47.8°C | 3.2% | 16.1hPa | 2.6V | 00:00:00 | 00:00:00 | 00:00:00 | |
| OE3OSB-13 | 2026-09-01 00:24:03 | 49.38299 | 13.25889 | 231° | 7km/h | 28272m | 6.8m/s | -48.0°C | 0.8% | 16.2hPa | 2.6V | 00:00:00 | 00:00:00 | 00:00:00 | |
| PETON7-10 | 2026-09-01 00:23:59 | 49.38302 | 13.25906 | 274° | 11km/h | 28253m | 6.3m/s | -48.0°C | 3.2% | 16.2hPa | 2.6V | 00:00:00 | 00:00:00 | 00:00:00 | |
| DM0DOS-11 | 2026-09-01 00:23:58 | 49.38298 | 13.25924 | 292° | 13km/h | 28235m | 5.1m/s | -48.1°C | 3.2% | 16.2hPa | 2.6V | 03:43:29 | 02:18:20 | 00:00:00 | |
| SONCRA | 2026-09-01 00:23:55 | 49.38306 | 13.25934 | 183° | 15km/h | 28205m | 5.3m/s | 0°C | -1.0% | -1.0hPa | 2.6V | 00:00:00 | 00:00:00 | 00:00:00 | |
| PG1ADW-2 | 2026-09-01 00:23:52 | 49.38302 | 13.25934 | 189° | 13km/h | 28211m | 5.7m/s | -48.0°C | 3.2% | 16.3hPa | 2.6V | 03:43:00 | 00:00:00 | 00:00:00 | |
| DM0DOS-11 | 2026-09-01 00:23:48 | 49.38314 | 13.25938 | 259° | 7km/h | 28176m | 5.7m/s | -48.1°C | 3.2% | 16.4hPa | 2.6V | 03:43:39 | 02:18:10 | 00:00:00 | |
| OE5MMP-10 | 2026-09-01 00:23:48 | 49.38313 | 13.25935 | 205° | 13km/h | 28187m | 5.6m/s | -48.0°C | 3.2% | 16.3hPa | 2.6V | 03:43:00 | 02:18:12 | 00:00:00 | |
| PETON7-10 | 2026-09-01 00:23:44 | 49.38315 | 13.25946 | 252° | 13km/h | 28164m | 6.1m/s | -48.0°C | 3.2% | 16.4hPa | 2.6V | 00:00:00 | 00:00:00 | 00:00:00 | |
| OE5REO-15 | 2026-09-01 00:23:40 | 49.38319 | 13.25968 | 265° | 20km/h | 28146m | 6.7m/s | -48.1°C | 0.8% | 16.5hPa | 2.6V | 03:44:00 | 00:00:00 | 00:00:00 | |
| S52SK | 2026-09-01 00:23:39 | 49.38319 | 13.25981 | 265° | 13km/h | 28135m | 4.2m/s | -48.2°C | 0.8% | 16.5hPa | 2.6V | 00:00:00 | 00:00:00 | 00:00:00 | |
| OE5MMP-10 | 2026-09-01 00:23:38 | 49.38320 | 13.25985 | 243° | 9km/h | 28130m | 5.0m/s | -48.1°C | 3.2% | 16.5hPa | 2.6V | 00:00:00 | 02:18:02 | 00:00:00 | |
| DM0DOS-11 | 2026-09-01 00:23:37 | 49.38327 | 13.25986 | 158° | 13km/h | 28110m | 5.6m/s | -48.1°C | 3.2% | 16.6hPa | 2.6V | 03:43:50 | 02:17:59 | 00:00:00 | |
| EDDB2-12 | 2026-09-01 00:23:37 | 49.38327 | 13.25986 | 158° | 13km/h | 28110m | 5.6m/s | -48.1°C | 0.8% | 16.6hPa | 2.6V | 00:00:00 | 00:00:00 | 00:00:00 | |
| EDDB2-11 | 2026-09-01 00:23:35 | 49.38327 | 13.25986 | 158° | 13km/h | 28110m | 5.6m/s | -48.1°C | 0.8% | 16.6hPa | 2.6V | 00:00:00 | 00:00:00 | 00:00:00 | |
| DO3MHA-11 | 2026-09-01 00:23:33 | 49.38332 | 13.25982 | 149° | 13km/h | 28100m | 6.6m/s | -48.0°C | 3.2% | 16.5hPa | 2.6V | 00:00:00 | 02:17:57 | 00:00:00 | |
| PG1ADW-2 | 2026-09-01 00:23:32 | 49.38333 | 13.25981 | 177° | 11km/h | 28093m | 5.9m/s | -48.0°C | 3.2% | 16.6hPa | 2.6V | 00:00:00 | 00:00:00 | 00:00:00 | |
| PETON7-10 | 2026-09-01 00:23:29 | 49.38334 | 13.25990 | 254° | 13km/h | 28076m | 7.0m/s | -48.0°C | 3.1% | 16.6hPa | 2.6V | 03:43:00 | 02:17:53 | 00:00:00 | |
| OE5MMP-10 | 2026-09-01 00:23:28 | 49.38336 | 13.25995 | 248° | 13km/h | 28069m | 6.2m/s | -48.0°C | 3.2% | 16.6hPa | 2.6V | 00:00:00 | 02:17:52 | 00:00:00 | |
| DM0DOS-11 | 2026-09-01 00:23:27 | 49.38343 | 13.26026 | 300° | 0km/h | 28035m | 5.7m/s | -48.2°C | 3.2% | 16.8hPa | 2.6V | 03:44:03 | 02:17:46 | 00:00:00 | |
| OE5REO-15 | 2026-09-01 00:23:24 | 49.38342 | 13.26016 | 251° | 16km/h | 28054m | 5.7m/s | -48.1°C | 0.8% | 16.7hPa | 2.7V | 03:44:00 | 00:00:00 | 00:00:00 | |
| BAUMI2-15 | 2026-09-01 00:23:23 | 49.38343 | 13.26025 | 273° | 7km/h | 28042m | 6.1m/s | -48.1°C | 3.2% | 16.7hPa | 2.7V | 00:00:00 | 02:17:47 | 00:00:00 | |
| SONDE2-11 | 2026-09-01 00:23:21 | 49.38343 | 13.26026 | 121° | 5km/h | 28030m | 5.6m/s | -48.2°C | 0.8% | 16.8hPa | 2.7V | 00:00:00 | 00:00:00 | 00:00:00 | |
| SP3BTT-10 | 2026-09-01 00:23:20 | 49.38344 | 13.26023 | 133° | 13km/h | 28024m | 6.8m/s | -48.2°C | 3.2% | 16.7hPa | 2.7V | 03:44:00 | 00:00:00 | 00:00:00 | |
| BAUMI2-15 | 2026-09-01 00:23:18 | 49.38350 | 13.26016 | 146° | 11km/h | 28011m | 5.3m/s | -48.3°C | 3.2% | 16.8hPa | 2.7V | 00:00:00 | 02:17:42 | 00:00:00 | |
| DM0DOS-11 | 2026-09-01 00:23:17 | 49.38363 | 13.26012 | 243° | 11km/h | 27975m | 6.9m/s | -48.3°C | 3.2% | 16.9hPa | 2.7V | 03:44:13 | 02:17:36 | 00:00:00 | |
| PETON7-10 | 2026-09-01 00:23:14 | 49.38360 | 13.26007 | 202° | 15km/h | 27988m | 5.5m/s | -48.3°C | 3.2% | 16.8hPa | 2.6V | 00:00:00 | 00:00:00 | 00:00:00 | |
| DO3MHA-11 | 2026-09-01 00:23:13 | 49.38361 | 13.26009 | 239° | 13km/h | 27982m | 5.8m/s | -48.3°C | 3.2% | 16.9hPa | 2.6V | 03:44:00 | 02:17:37 | 00:00:00 | |
| PG1ADW-2 | 2026-09-01 00:23:12 | 49.38362 | 13.26012 | 244° | 15km/h | 27975m | 6.9m/s | -48.3°C | 3.2% | 16.9hPa | 2.6V | 00:00:00 | 02:17:36 | 00:00:00 | |
| OE5MMP-10 | 2026-09-01 00:23:08 | 49.38369 | 13.26025 | 188° | 18km/h | 27954m | 5.8m/s | -48.4°C | 3.2% | 16.9hPa | 2.6V | 03:44:00 | 02:17:32 | 00:00:00 | |
| EDDB2-12 | 2026-09-01 00:23:06 | 49.38371 | 13.26014 | 103° | 18km/h | 27935m | 5.3m/s | -48.5°C | 0.8% | 17.0hPa | 2.6V | 00:00:00 | 00:00:00 | 00:00:00 | |
| DM0DOS-11 | 2026-09-01 00:23:05 | 49.38384 | 13.25982 | 134° | 24km/h | 27911m | 5.4m/s | -48.4°C | 3.3% | 17.1hPa | 2.6V | 03:44:24 | 02:17:25 | 00:00:00 | |
| EDDB2-11 | 2026-09-01 00:23:04 | 49.38373 | 13.26006 | 112° | 24km/h | 27929m | 6.5m/s | -48.5°C | 0.8% | 17.1hPa | 2.6V | 00:00:00 | 00:00:00 | 00:00:00 | |
| DO3MHA-11 | 2026-09-01 00:23:03 | 49.38376 | 13.25997 | 123° | 16km/h | 27923m | 6.4m/s | -48.4°C | 3.3% | 17.0hPa | 2.6V | 00:00:00 | 02:17:27 | 00:00:00 | |
| OE3OSB-13 | 2026-09-01 00:23:00 | 49.38388 | 13.25976 | 136° | 18km/h | 27906m | 6.3m/s | -48.4°C | 0.8% | 17.1hPa | 2.6V | 00:00:00 | 00:00:00 | 00:00:00 | |
| PETON7-10 | 2026-09-01 00:22:59 | 49.38391 | 13.25971 | 137° | 13km/h | 27900m | 6.0m/s | -48.3°C | 3.2% | 17.1hPa | 2.6V | 00:00:00 | 00:00:00 | 00:00:00 | |
| BAUMI2-15 | 2026-09-01 00:22:58 | 49.38393 | 13.25968 | 140° | 9km/h | 27894m | 5.1m/s | -48.3°C | 3.2% | 17.1hPa | 2.6V | 00:00:00 | 02:17:22 | 00:00:00 | |
| OE5MMP-10 | 2026-09-01 00:22:57 | 49.38395 | 13.25966 | 151° | 13km/h | 27889m | 4.8m/s | -48.3°C | 3.2% | 17.1hPa | 2.6V | 00:00:00 | 02:17:21 | 00:00:00 | |
| DM0DOS-11 | 2026-09-01 00:22:53 | 49.38404 | 13.25948 | 69° | 16km/h | 27848m | 6.5m/s | -48.6°C | 3.3% | 17.3hPa | 2.6V | 03:44:35 | 02:17:14 | 00:00:00 | |
| HSKMA3-T | 2026-09-01 00:22:49 | 49.38403 | 13.25941 | 67° | 20km/h | 27842m | 5m/s | 0°C | 0% | 0hPa | 2.6V | 18:12:15 | 02:17:13 | 00:00:00 | |
| BAUMI2-15 | 2026-09-01 00:22:48 | 49.38401 | 13.25934 | 76° | 18km/h | 27838m | 4.1m/s | -48.6°C | 3.3% | 17.3hPa | 2.6V | 03:44:00 | 02:17:12 | 00:00:00 | |
| OE5MMP-10 | 2026-09-01 00:22:47 | 49.38401 | 13.25927 | 92° | 13km/h | 27833m | 5.1m/s | -48.6°C | 3.3% | 17.3hPa | 2.6V | 00:00:00 | 02:17:11 | 00:00:00 | |
| PETON7-10 | 2026-09-01 00:22:44 | 49.38408 | 13.25912 | 162° | 11km/h | 27816m | 5.0m/s | -48.7°C | 3.3% | 17.3hPa | 2.6V | 00:00:00 | 02:17:08 | 00:00:00 | |
| BAUMI2-15 | 2026-09-01 00:22:43 | 49.38413 | 13.25911 | 175° | 9km/h | 27811m | 4.6m/s | -48.7°C | 3.3% | 17.3hPa | 2.6V | 00:00:00 | 02:17:07 | 00:00:00 | |
| DL6DJ-15 | 2026-09-01 00:22:42 | 49.38416 | 13.25911 | 183° | 11km/h | 27806m | 5.4m/s | -48.8°C | 0.8% | 17.4hPa | 2.6V | 00:00:00 | 00:00:00 | 00:00:00 | |
| DM0DOS-11 | 2026-09-01 00:22:41 | 49.38417 | 13.25908 | 41° | 11km/h | 27789m | 5.5m/s | -48.8°C | 3.3% | 17.4hPa | 2.6V | 03:44:46 | 02:17:03 | 00:00:00 | |
| OE5DRO-10 | 2026-09-01 00:22:40 | 49.38412 | 13.25899 | 61° | 9km/h | 27778m | 5.9m/s | -48.7°C | 3.3% | 17.4hPa | 2.7V | 00:00:00 | 00:00:00 | 00:00:00 | |
| OE5MMP-10 | 2026-09-01 00:22:37 | 49.38412 | 13.25899 | 61° | 11km/h | 27778m | 5.9m/s | -48.7°C | 3.3% | 17.4hPa | 2.7V | 00:00:00 | 02:17:01 | 00:00:00 | |
| EDDB2-12 | 2026-09-01 00:22:35 | 49.38408 | 13.25878 | 84° | 13km/h | 27763m | 4.8m/s | -48.8°C | 0.8% | 17.5hPa | 2.7V | 00:00:00 | 00:00:00 | 00:00:00 | |
| DO3MHA-11 | 2026-09-01 00:22:33 | 49.38408 | 13.25874 | 87° | 7km/h | 27758m | 5.7m/s | -48.8°C | 3.3% | 17.5hPa | 2.7V | 03:44:00 | 02:16:57 | 00:00:00 | |
| PG1ADW-2 | 2026-09-01 00:22:32 | 49.38408 | 13.25871 | 81° | 7km/h | 27752m | 6.1m/s | -48.8°C | 3.3% | 17.5hPa | 2.7V | 03:44:00 | 00:00:00 | 00:00:00 | |
| DM0DOS-11 | 2026-09-01 00:22:31 | 49.38409 | 13.25875 | 225° | 7km/h | 27735m | 5.3m/s | -48.9°C | 3.3% | 17.5hPa | 2.6V | 03:44:56 | 02:16:53 | 00:00:00 | |
| PETON7-10 | 2026-09-01 00:22:29 | 49.38409 | 13.25875 | 226° | 7km/h | 27735m | 5.2m/s | -48.8°C | 3.3% | 17.5hPa | 2.6V | 03:44:00 | 00:00:00 | 00:00:00 | |
| BAUMI2-15 | 2026-09-01 00:22:28 | 49.38410 | 13.25876 | 198° | 7km/h | 27729m | 6.4m/s | -48.8°C | 3.3% | 17.5hPa | 2.6V | 03:44:00 | 02:16:52 | 00:00:00 | |
| OE5MMP-10 | 2026-09-01 00:22:27 | 49.38412 | 13.25876 | 166° | 9km/h | 27723m | 5.7m/s | -48.8°C | 3.3% | 17.5hPa | 2.7V | 03:44:00 | 02:16:51 | 00:00:00 | |
| BAUMI2-15 | 2026-09-01 00:22:23 | 49.38413 | 13.25868 | 33° | 11km/h | 27701m | 5.8m/s | -48.9°C | 3.3% | 17.6hPa | 2.7V | 00:00:00 | 02:16:47 | 00:00:00 | |
| DO3MHA-11 | 2026-09-01 00:22:22 | 49.38411 | 13.25866 | 23° | 9km/h | 27696m | 4.5m/s | -48.9°C | 3.3% | 17.6hPa | 2.7V | 00:00:00 | 02:16:46 | 00:00:00 | |
| DM0DOS-11 | 2026-09-01 00:22:21 | 49.38403 | 13.25859 | 50° | 7km/h | 27679m | 6.1m/s | -49°C | 3.3% | 17.7hPa | 2.6V | 03:45:06 | 02:16:43 | 00:00:00 | |
| SONDE2-11 | 2026-09-01 00:22:19 | 49.38403 | 13.25857 | 86° | 4km/h | 27674m | 5.7m/s | -49.1°C | 0.8% | 17.7hPa | 2.6V | 00:00:00 | 00:00:00 | 00:00:00 | |
| BAUMI2-15 | 2026-09-01 00:22:18 | 49.38403 | 13.25857 | 87° | 5km/h | 27674m | 5.6m/s | -49.0°C | 3.3% | 17.7hPa | 2.6V | 00:00:00 | 02:16:42 | 00:00:00 | |
| OE5MMP-10 | 2026-09-01 00:22:17 | 49.38403 | 13.25856 | 147° | 9km/h | 27668m | 5.5m/s | -49.1°C | 3.3% | 17.7hPa | 2.6V | 00:00:00 | 02:16:41 | 00:00:00 | |
| PETON7-10 | 2026-09-01 00:22:14 | 49.38407 | 13.25858 | 210° | 9km/h | 27651m | 4.4m/s | -49.1°C | 3.4% | 17.7hPa | 2.6V | 00:00:00 | 00:00:00 | 00:00:00 | |
| BAUMI2-15 | 2026-09-01 00:22:13 | 49.38410 | 13.25860 | 194° | 13km/h | 27646m | 4.5m/s | -49.1°C | 3.4% | 17.8hPa | 2.6V | 00:00:00 | 02:16:37 | 00:00:00 | |
| DO3MHA-11 | 2026-09-01 00:22:12 | 49.38412 | 13.25860 | 173° | 9km/h | 27641m | 6.1m/s | -49.2°C | 3.3% | 17.8hPa | 2.7V | 00:00:00 | 02:16:36 | 00:00:00 | |
| DM0DOS-11 | 2026-09-01 00:22:11 | 49.38421 | 13.25845 | 59° | 7km/h | 27612m | 6.1m/s | -49.3°C | 3.4% | 17.9hPa | 2.7V | 03:45:18 | 02:16:31 | 00:00:00 | |
| DL6DJ-15 | 2026-09-01 00:22:11 | 49.38419 | 13.25855 | 136° | 13km/h | 27629m | 5.0m/s | -49.3°C | 0.8% | 17.8hPa | 2.7V | 00:00:00 | 00:00:00 | 00:00:00 | |
| BAUMI2-15 | 2026-09-01 00:22:08 | 49.38421 | 13.25848 | 99° | 7km/h | 27619m | 6.1m/s | -49.3°C | 3.4% | 17.9hPa | 2.7V | 03:45:00 | 02:16:32 | 00:00:00 | |
| OE5MMP-10 | 2026-09-01 00:22:07 | 49.38421 | 13.25845 | 60° | 5km/h | 27613m | 6.1m/s | -49.3°C | 3.4% | 17.9hPa | 2.7V | 00:00:00 | 02:16:31 | 00:00:00 | |
| SP3BTT-10 | 2026-09-01 00:22:05 | 49.38418 | 13.25842 | 17° | 9km/h | 27603m | 4.6m/s | -49.4°C | 3.4% | 17.9hPa | 2.7V | 00:00:00 | 00:00:00 | 00:00:00 | |
| EDDB2-12 | 2026-09-01 00:22:04 | 49.38416 | 13.25839 | 61° | 4km/h | 27592m | 5.8m/s | -49.5°C | 0.9% | 17.9hPa | 2.7V | 00:00:00 | 00:00:00 | 00:00:00 | |
| BAUMI2-15 | 2026-09-01 00:22:03 | 49.38416 | 13.25839 | 62° | 4km/h | 27592m | 5.8m/s | -49.4°C | 3.5% | 17.9hPa | 2.7V | 00:00:00 | 02:16:27 | 00:00:00 | |
| EDDB2-11 | 2026-09-01 00:22:02 | 49.38416 | 13.25837 | 140° | 4km/h | 27581m | 4.9m/s | -49.4°C | 0.9% | 18.0hPa | 2.7V | 00:00:00 | 00:00:00 | 00:00:00 | |
| PETON7-10 | 2026-09-01 00:21:59 | 49.38418 | 13.25836 | 218° | 7km/h | 27570m | 6.1m/s | -49.4°C | 3.4% | 18.0hPa | 2.7V | 00:00:00 | 02:16:23 | 00:00:00 | |
| OE5MMP-10 | 2026-09-01 00:21:57 | 49.38421 | 13.25840 | 213° | 7km/h | 27560m | 4.5m/s | -49.4°C | 3.4% | 18.0hPa | 2.7V | 00:00:00 | 02:16:21 | 00:00:00 | |
| BAUMI2-15 | 2026-09-01 00:21:53 | 49.38430 | 13.25842 | 188° | 5km/h | 27538m | 5.3m/s | -49.4°C | 3.4% | 18.1hPa | 2.7V | 00:00:00 | 02:16:17 | 00:00:00 | |
| DO3MHA-11 | 2026-09-01 00:21:52 | 49.38431 | 13.25843 | 211° | 7km/h | 27532m | 6.2m/s | -49.4°C | 3.4% | 18.1hPa | 2.7V | 03:45:00 | 02:16:16 | 00:00:00 | |
| OE5REO-15 | 2026-09-01 00:21:49 | 49.38432 | 13.25846 | 300° | 5km/h | 27521m | 4.6m/s | -49.5°C | 0.9% | 18.2hPa | 2.6V | 03:45:00 | 00:00:00 | 00:00:00 | |
| S52SK | 2026-09-01 00:21:48 | 49.38430 | 13.25849 | 288° | 4km/h | 27512m | 5.0m/s | -49.5°C | 0.9% | 18.2hPa | 2.6V | 00:00:00 | 00:00:00 | 00:00:00 | |
| OE5MMP-10 | 2026-09-01 00:21:47 | 49.38431 | 13.25851 | 208° | 11km/h | 27507m | 5.7m/s | -49.4°C | 3.4% | 18.1hPa | 2.6V | 03:45:00 | 02:16:11 | 00:00:00 | |
| BAUMI2-15 | 2026-09-01 00:21:43 | 49.38440 | 13.25855 | 212° | 13km/h | 27486m | 6.0m/s | -49.3°C | 3.4% | 18.2hPa | 2.6V | 00:00:00 | 02:16:07 | 00:00:00 | |
| DO3MHA-11 | 2026-09-01 00:21:42 | 49.38443 | 13.25858 | 223° | 9km/h | 27480m | 5.1m/s | -49.3°C | 3.4% | 18.2hPa | 2.7V | 00:00:00 | 02:16:06 | 00:00:00 | |
| DL6DJ-15 | 2026-09-01 00:21:40 | 49.38448 | 13.25865 | 214° | 9km/h | 27471m | 5.2m/s | -49.3°C | 0.8% | 18.3hPa | 2.7V | 00:00:00 | 00:00:00 | 00:00:00 | |
| BAUMI2-15 | 2026-09-01 00:21:38 | 49.38452 | 13.25867 | 180° | 5km/h | 27460m | 5.2m/s | -49.3°C | 3.4% | 18.3hPa | 2.7V | 00:00:00 | 02:16:02 | 00:00:00 | |
| OE5MMP-10 | 2026-09-01 00:21:37 | 49.38454 | 13.25867 | 176° | 7km/h | 27455m | 4.8m/s | -49.3°C | 3.4% | 18.3hPa | 2.7V | 00:00:00 | 02:16:01 | 00:00:00 | |
| DM0DOS-11 | 2026-09-01 00:21:35 | 49.38456 | 13.25873 | 278° | 7km/h | 27434m | 4.1m/s | -49.3°C | 3.4% | 18.4hPa | 2.6V | 03:45:52 | 02:15:57 | 00:00:00 | |
| EDDB2-12 | 2026-09-01 00:21:33 | 49.38456 | 13.25876 | 264° | 5km/h | 27429m | 5.0m/s | -49.4°C | 0.8% | 18.4hPa | 2.7V | 00:00:00 | 00:00:00 | 00:00:00 | |
| DO3MHA-11 | 2026-09-01 00:21:32 | 49.38456 | 13.25876 | 265° | 11km/h | 27429m | 5.0m/s | -49.3°C | 3.4% | 18.4hPa | 2.7V | 00:00:00 | 02:15:56 | 00:00:00 | |
| EDDB2-11 | 2026-09-01 00:21:31 | 49.38457 | 13.25878 | 225° | 5km/h | 27423m | 6.0m/s | -49.4°C | 0.8% | 18.4hPa | 2.7V | 00:00:00 | 00:00:00 | 00:00:00 | |
| PETON7-10 | 2026-09-01 00:21:29 | 49.38460 | 13.25880 | 191° | 9km/h | 27413m | 4.6m/s | -49.3°C | 3.4% | 18.4hPa | 2.7V | 03:45:00 | 00:00:00 | 00:00:00 | |
| DL2RXE-15 | 2026-09-01 00:21:28 | 49.38460 | 13.25880 | 192° | 11km/h | 27413m | 4.6m/s | -49.4°C | 0% | 0hPa | 2.7V | 00:00:00 | 00:00:00 | 00:00:00 | |
| OE5MMP-10 | 2026-09-01 00:21:27 | 49.38466 | 13.25883 | 208° | 9km/h | 27402m | 6.0m/s | -49.3°C | 3.4% | 18.4hPa | 2.7V | 00:00:00 | 02:15:51 | 00:00:00 | |
| DO3MHA-11 | 2026-09-01 00:21:22 | 49.38481 | 13.25891 | 168° | 7km/h | 27376m | 4.7m/s | -49.2°C | 3.4% | 18.5hPa | 2.7V | 00:00:00 | 02:15:46 | 00:00:00 | |
| SP3BTT-10 | 2026-09-01 00:21:20 | 49.38484 | 13.25890 | 183° | 9km/h | 27367m | 5.2m/s | -49.3°C | 3.4% | 18.6hPa | 2.7V | 00:00:00 | 00:00:00 | 00:00:00 | |
| SONDE2-11 | 2026-09-01 00:21:19 | 49.38482 | 13.25895 | 240° | 4km/h | 27347m | 4.9m/s | -49.4°C | 0.8% | 18.7hPa | 2.7V | 00:00:00 | 00:00:00 | 00:00:00 | |
| PETON7-10 | 2026-09-01 00:21:18 | 49.38486 | 13.25895 | 171° | 11km/h | 27336m | 5.2m/s | -49.3°C | 3.4% | 18.6hPa | 2.7V | 00:00:00 | 02:15:38 | 00:00:00 | |
| DM0DOS-11 | 2026-09-01 00:21:15 | 49.38516 | 13.25897 | 181° | 9km/h | 27302m | 5.4m/s | -49.4°C | 3.4% | 18.8hPa | 2.7V | 03:46:18 | 02:15:31 | 00:00:00 | |
| DO3MHA-11 | 2026-09-01 00:21:14 | 49.38495 | 13.25893 | 175° | 13km/h | 27327m | 4.5m/s | -49.3°C | 3.4% | 18.7hPa | 2.7V | 03:46:00 | 02:15:36 | 00:00:00 | |
| DL6DJ-15 | 2026-09-01 00:21:09 | 49.38513 | 13.25896 | 193° | 11km/h | 27307m | 4.1m/s | -49.4°C | 0.8% | 18.8hPa | 2.7V | 00:00:00 | 00:00:00 | 00:00:00 | |
| OE5MMP-10 | 2026-09-01 00:21:07 | 49.38516 | 13.25897 | 182° | 7km/h | 27302m | 5.4m/s | -49.3°C | 3.4% | 18.7hPa | 2.7V | 03:46:00 | 02:15:31 | 00:00:00 | |
| EDDB2-12 | 2026-09-01 00:21:02 | 49.38525 | 13.25887 | 172° | 2km/h | 27270m | 4.9m/s | -49.3°C | 0.8% | 18.9hPa | 2.7V | 00:00:00 | 00:00:00 | 00:00:00 | |
| EDDB2-11 | 2026-09-01 00:21:00 | 49.38527 | 13.25887 | 157° | 5km/h | 27261m | 4.5m/s | -49.4°C | 0.9% | 18.9hPa | 2.7V | 00:00:00 | 00:00:00 | 00:00:00 | |
| OE3OSB-13 | 2026-09-01 00:20:56 | 49.38536 | 13.25877 | 142° | 20km/h | 27244m | 5.5m/s | -49.4°C | 0.8% | 19.0hPa | 2.7V | 00:00:00 | 00:00:00 | 00:00:00 | |
| SONDE2-11 | 2026-09-01 00:20:46 | 49.38559 | 13.25834 | 61° | 2km/h | 27186m | 4.6m/s | -49.5°C | 0.8% | 19.1hPa | 2.7V | 00:00:00 | 00:00:00 | 00:00:00 | |
| PETON7-10 | 2026-09-01 00:20:44 | 49.38558 | 13.25833 | 106° | 13km/h | 27182m | 4.0m/s | -49.5°C | 3.5% | 19.1hPa | 2.7V | 00:00:00 | 00:00:00 | 00:00:00 | |
| DO3MHA-11 | 2026-09-01 00:20:42 | 49.38560 | 13.25828 | 122° | 16km/h | 27172m | 5.7m/s | -49.5°C | 3.4% | 19.1hPa | 2.7V | 00:00:00 | 02:15:06 | 00:00:00 | |
| DL6DJ-15 | 2026-09-01 00:20:38 | 49.38569 | 13.25801 | 118° | 9km/h | 27147m | 5.6m/s | -49.5°C | 0.9% | 19.3hPa | 2.7V | 00:00:00 | 00:00:00 | 00:00:00 | |
| OE5MMP-10 | 2026-09-01 00:20:37 | 49.38569 | 13.25801 | 119° | 11km/h | 27147m | 5.5m/s | -49.4°C | 3.4% | 19.2hPa | 2.7V | 00:00:00 | 02:15:01 | 00:00:00 | |
| SP3BTT-10 | 2026-09-01 00:20:35 | 49.38572 | 13.25797 | 152° | 11km/h | 27137m | 4.1m/s | -49.4°C | 3.5% | 19.2hPa | 2.6V | 03:46:00 | 00:00:00 | 00:00:00 | |
| PG1ADW-2 | 2026-09-01 00:20:33 | 49.38579 | 13.25790 | 140° | 13km/h | 27121m | 5.2m/s | -49.3°C | 3.4% | 19.3hPa | 2.7V | 00:00:00 | 02:14:56 | 00:00:00 | |
| DO3MHA-11 | 2026-09-01 00:20:32 | 49.38579 | 13.25790 | 140° | 18km/h | 27121m | 5.2m/s | -49.3°C | 3.4% | 19.3hPa | 2.6V | 03:46:00 | 02:14:56 | 00:00:00 | |
| EDDB2-12 | 2026-09-01 00:20:30 | 49.38584 | 13.25781 | 116° | 15km/h | 27111m | 5.2m/s | -49.3°C | 0.8% | 19.4hPa | 2.6V | 00:00:00 | 00:00:00 | 00:00:00 | |
| PETON7-10 | 2026-09-01 00:20:29 | 49.38585 | 13.25776 | 101° | 13km/h | 27106m | 6.2m/s | -49.3°C | 3.4% | 19.3hPa | 2.6V | 03:46:00 | 02:14:53 | 00:00:00 | |
| OE5REO-15 | 2026-09-01 00:20:28 | 49.38585 | 13.25776 | 101° | 15km/h | 27106m | 6.3m/s | -49.3°C | 0.8% | 19.4hPa | 2.6V | 03:47:00 | 00:00:00 | 00:00:00 | |
| OE5MMP-10 | 2026-09-01 00:20:27 | 49.38584 | 13.25765 | 76° | 9km/h | 27095m | 4.4m/s | -49.2°C | 3.4% | 19.4hPa | 2.6V | 03:46:00 | 02:14:51 | 00:00:00 | |
| DM0DOS-11 | 2026-09-01 00:20:25 | 49.38583 | 13.25745 | 102° | 18km/h | 27078m | 5.8m/s | -49.3°C | 3.4% | 19.4hPa | 2.6V | 03:47:01 | 02:14:48 | 00:00:00 | |
| DO3MHA-11 | 2026-09-01 00:20:22 | 49.38587 | 13.25732 | 120° | 9km/h | 27069m | 4.3m/s | -49.2°C | 3.4% | 19.4hPa | 2.7V | 00:00:00 | 02:14:46 | 00:00:00 | |
| DM0DOS-11 | 2026-09-01 00:20:19 | 49.38587 | 13.25714 | 90° | 13km/h | 27026m | 4.7m/s | -49.2°C | 3.3% | 19.6hPa | 2.6V | 03:47:11 | 02:14:38 | 00:00:00 | |
| OE5MMP-10 | 2026-09-01 00:20:17 | 49.38588 | 13.25721 | 10° | 16km/h | 27042m | 4.3m/s | -49.3°C | 3.4% | 19.5hPa | 2.6V | 00:00:00 | 02:14:41 | 00:00:00 | |
| SONDE2-11 | 2026-09-01 00:20:15 | 49.38587 | 13.25714 | 90° | 13km/h | 27026m | 4.7m/s | -49.3°C | 0.8% | 19.6hPa | 2.6V | 00:00:00 | 00:00:00 | 00:00:00 | |
| PETON7-10 | 2026-09-01 00:20:14 | 49.38587 | 13.25714 | 91° | 13km/h | 27026m | 4.6m/s | -49.2°C | 3.3% | 19.6hPa | 2.6V | 00:00:00 | 00:00:00 | 00:00:00 | |
| DO3MHA-11 | 2026-09-01 00:20:12 | 49.38587 | 13.25701 | 84° | 15km/h | 27016m | 6.3m/s | -49.2°C | 3.3% | 19.6hPa | 2.6V | 00:00:00 | 02:14:36 | 00:00:00 | |
| OE5DRO-10 | 2026-09-01 00:20:09 | 49.38586 | 13.25666 | 119° | 9km/h | 26987m | 5.6m/s | -49.4°C | 3.4% | 19.7hPa | 2.6V | 00:00:00 | 00:00:00 | 00:00:00 | |
| DL6DJ-15 | 2026-09-01 00:20:07 | 49.38588 | 13.25662 | 137° | 9km/h | 26982m | 4.5m/s | -49.4°C | 0.8% | 19.8hPa | 2.6V | 00:00:00 | 00:00:00 | 00:00:00 | |
| OE5MMP-10 | 2026-09-01 00:20:06 | 49.38588 | 13.25662 | 138° | 9km/h | 26982m | 4.5m/s | -49.3°C | 3.4% | 19.7hPa | 2.6V | 00:00:00 | 02:14:30 | 00:00:00 | |
| DO3MHA-11 | 2026-09-01 00:20:02 | 49.38587 | 13.25663 | 343° | 13km/h | 26960m | 5.3m/s | -49.5°C | 3.4% | 19.8hPa | 2.7V | 00:00:00 | 02:14:26 | 00:00:00 | |
| EDDB2-12 | 2026-09-01 00:19:59 | 49.38579 | 13.25661 | 50° | 9km/h | 26946m | 5.6m/s | -49.6°C | 0.9% | 19.9hPa | 2.7V | 00:00:00 | 00:00:00 | 00:00:00 | |
| EDDB2-11 | 2026-09-01 00:19:58 | 49.38578 | 13.25653 | 100° | 13km/h | 26934m | 5.9m/s | -49.7°C | 0.9% | 19.9hPa | 2.7V | 00:00:00 | 00:00:00 | 00:00:00 | |
| OE5REO-15 | 2026-09-01 00:19:57 | 49.38578 | 13.25657 | 82° | 11km/h | 26940m | 5.9m/s | -49.6°C | 0.9% | 19.9hPa | 2.7V | 03:47:00 | 00:00:00 | 00:00:00 | |
| OE5MMP-10 | 2026-09-01 00:19:56 | 49.38579 | 13.25648 | 109° | 13km/h | 26928m | 5.9m/s | -49.6°C | 3.4% | 19.8hPa | 2.7V | 00:00:00 | 02:14:20 | 00:00:00 | |
| DO3MHA-11 | 2026-09-01 00:19:52 | 49.38582 | 13.25628 | 84° | 9km/h | 26907m | 5.5m/s | -49.7°C | 3.5% | 19.9hPa | 2.7V | 03:47:00 | 02:14:16 | 00:00:00 | |
| DM0DOS-11 | 2026-09-01 00:19:51 | 49.38579 | 13.25610 | 72° | 15km/h | 26889m | 4.6m/s | -49.8°C | 3.5% | 20hPa | 2.6V | 03:47:36 | 02:14:13 | 00:00:00 | |
| OE5DXL-15 | 2026-09-01 00:19:50 | 49.38578 | 13.25605 | 67° | 11km/h | 26885m | 4.8m/s | -49.7°C | 3.5% | 20.0hPa | 2.7V | 03:47:00 | 00:00:00 | 00:00:00 | |
| OE5MMP-10 | 2026-09-01 00:19:46 | 49.38576 | 13.25603 | 301° | 11km/h | 26872m | 6.3m/s | -49.7°C | 3.5% | 20.0hPa | 2.7V | 03:47:00 | 02:14:10 | 00:00:00 | |
| SONDE2-11 | 2026-09-01 00:19:44 | 49.38577 | 13.25607 | 175° | 4km/h | 26856m | 5.7m/s | -49.8°C | 0.8% | 20.1hPa | 2.7V | 00:00:00 | 00:00:00 | 00:00:00 | |
| DO3MHA-11 | 2026-09-01 00:19:42 | 49.38578 | 13.25606 | 126° | 13km/h | 26850m | 6.2m/s | -49.7°C | 3.5% | 20.1hPa | 2.7V | 00:00:00 | 02:14:06 | 00:00:00 | |
| OE5REO-15 | 2026-09-01 00:19:41 | 49.38578 | 13.25606 | 126° | 7km/h | 26850m | 6.2m/s | -49.8°C | 0.9% | 20.2hPa | 2.7V | 03:48:00 | 00:00:00 | 00:00:00 | |
| DM0DOS-11 | 2026-09-01 00:19:40 | 49.38584 | 13.25578 | 105° | 13km/h | 26821m | 5.8m/s | -49.7°C | 3.5% | 20.2hPa | 2.7V | 03:47:48 | 02:14:01 | 00:00:00 | |
| OE5MMP-10 | 2026-09-01 00:19:36 | 49.38585 | 13.25574 | 103° | 9km/h | 26816m | 5.5m/s | -49.6°C | 3.5% | 20.2hPa | 2.6V | 00:00:00 | 02:14:00 | 00:00:00 | |
| DL6DJ-15 | 2026-09-01 00:19:35 | 49.38585 | 13.25571 | 98° | 7km/h | 26811m | 5.4m/s | -49.7°C | 0.9% | 20.3hPa | 2.6V | 00:00:00 | 00:00:00 | 00:00:00 | |
| DO3MHA-11 | 2026-09-01 00:19:32 | 49.38585 | 13.25559 | 79° | 11km/h | 26793m | 5.3m/s | -49.6°C | 3.5% | 20.3hPa | 2.6V | 00:00:00 | 02:13:56 | 00:00:00 | |
| PETON7-10 | 2026-09-01 00:19:29 | 49.38581 | 13.25551 | 29° | 13km/h | 26776m | 6.0m/s | -49.6°C | 3.5% | 20.4hPa | 2.6V | 03:47:00 | 00:00:00 | 00:00:00 | |
| EDDB2-12 | 2026-09-01 00:19:28 | 49.38578 | 13.25547 | 59° | 7km/h | 26766m | 4.6m/s | -49.7°C | 0.9% | 20.4hPa | 2.7V | 00:00:00 | 00:00:00 | 00:00:00 | |
| EDDB2-11 | 2026-09-01 00:19:27 | 49.38578 | 13.25544 | 81° | 9km/h | 26760m | 6.5m/s | -49.6°C | 0.9% | 20.4hPa | 2.7V | 00:00:00 | 00:00:00 | 00:00:00 | |
| OE5MMP-10 | 2026-09-01 00:19:26 | 49.38577 | 13.25544 | 82° | 13km/h | 26760m | 6.5m/s | -49.6°C | 3.5% | 20.4hPa | 2.7V | 00:00:00 | 02:13:50 | 00:00:00 | |
| OE5REO-15 | 2026-09-01 00:19:25 | 49.38577 | 13.25544 | 83° | 11km/h | 26760m | 6.5m/s | -49.6°C | 0.9% | 20.4hPa | 2.7V | 03:48:00 | 00:00:00 | 00:00:00 | |
| OE3OSB-13 | 2026-09-01 00:19:23 | 49.38579 | 13.25525 | 98° | 18km/h | 26742m | 4.7m/s | -49.7°C | 0.9% | 20.5hPa | 2.7V | 00:00:00 | 00:00:00 | 00:00:00 | |
| DO3MHA-11 | 2026-09-01 00:19:22 | 49.38579 | 13.25518 | 95° | 13km/h | 26737m | 5.4m/s | -49.6°C | 3.5% | 20.5hPa | 2.7V | 00:00:00 | 02:13:46 | 00:00:00 | |
| BAUMI2-15 | 2026-09-01 00:19:17 | 49.38574 | 13.25500 | 48° | 15km/h | 26708m | 6.1m/s | -49.5°C | 3.4% | 20.6hPa | 2.7V | 00:00:00 | 02:13:41 | 00:00:00 | |
| OE5MMP-10 | 2026-09-01 00:19:16 | 49.38572 | 13.25496 | 62° | 11km/h | 26702m | 6.3m/s | -49.5°C | 3.4% | 20.6hPa | 2.7V | 00:00:00 | 02:13:40 | 00:00:00 | |
| PETON7-10 | 2026-09-01 00:19:14 | 49.38569 | 13.25485 | 67° | 9km/h | 26691m | 4.9m/s | -49.5°C | 3.4% | 20.6hPa | 2.7V | 00:00:00 | 00:00:00 | 00:00:00 | |
| SONDE2-11 | 2026-09-01 00:19:13 | 49.38565 | 13.25475 | 52° | 11km/h | 26679m | 6.4m/s | -49.5°C | 0.8% | 20.7hPa | 2.7V | 00:00:00 | 00:00:00 | 00:00:00 | |
| BAUMI2-15 | 2026-09-01 00:19:12 | 49.38565 | 13.25475 | 53° | 9km/h | 26679m | 6.3m/s | -49.5°C | 3.4% | 20.7hPa | 2.7V | 00:00:00 | 02:13:36 | 00:00:00 | |
| DM0DOS-11 | 2026-09-01 00:19:11 | 49.38561 | 13.25460 | 105° | 7km/h | 26644m | 5.4m/s | -49.8°C | 3.5% | 20.8hPa | 2.7V | 03:48:19 | 02:13:30 | 00:00:00 | |
| OE5REO-15 | 2026-09-01 00:19:10 | 49.38564 | 13.25472 | 45° | 9km/h | 26673m | 5.6m/s | -49.6°C | 0.9% | 20.7hPa | 2.7V | 03:48:00 | 00:00:00 | 00:00:00 | |
| BAUMI2-15 | 2026-09-01 00:19:07 | 49.38561 | 13.25463 | 102° | 5km/h | 26650m | 6.1m/s | -49.7°C | 3.4% | 20.7hPa | 2.7V | 03:48:00 | 02:13:31 | 00:00:00 | |
| OE5MMP-10 | 2026-09-01 00:19:06 | 49.38561 | 13.25460 | 106° | 13km/h | 26644m | 5.4m/s | -49.7°C | 3.5% | 20.7hPa | 2.7V | 03:48:00 | 02:13:30 | 00:00:00 | |
| PG1ADW-2 | 2026-09-01 00:19:05 | 49.38562 | 13.25458 | 105° | 15km/h | 26639m | 5.5m/s | -49.7°C | 3.5% | 20.8hPa | 2.7V | 00:00:00 | 02:13:29 | 00:00:00 | |
| DL6DJ-15 | 2026-09-01 00:19:04 | 49.38562 | 13.25457 | 342° | 2km/h | 26632m | 6.7m/s | -49.8°C | 0.9% | 20.9hPa | 2.7V | 00:00:00 | 00:00:00 | 00:00:00 | |
| DO3MHA-11 | 2026-09-01 00:19:02 | 49.38558 | 13.25460 | 340° | 15km/h | 26621m | 4.5m/s | -49.8°C | 3.5% | 20.8hPa | 2.7V | 00:00:00 | 02:13:26 | 00:00:00 | |
| EDDB2-12 | 2026-09-01 00:18:57 | 49.38534 | 13.25452 | 18° | 13km/h | 26586m | 6.4m/s | -49.8°C | 0.9% | 21.0hPa | 2.7V | 00:00:00 | 00:00:00 | 00:00:00 | |
| EDDB2-11 | 2026-09-01 00:18:55 | 49.38531 | 13.25451 | 9° | 11km/h | 26579m | 5.7m/s | -49.8°C | 0.9% | 21.0hPa | 2.7V | 00:00:00 | 00:00:00 | 00:00:00 | |
| OE5REO-15 | 2026-09-01 00:18:54 | 49.38531 | 13.25451 | 11° | 13km/h | 26579m | 5.7m/s | -49.8°C | 0.9% | 21.0hPa | 2.7V | 03:49:00 | 00:00:00 | 00:00:00 | |
| DO3MHA-11 | 2026-09-01 00:18:52 | 49.38525 | 13.25448 | 27° | 18km/h | 26562m | 6.1m/s | -49.8°C | 3.5% | 21.0hPa | 2.7V | 00:00:00 | 02:13:16 | 00:00:00 | |
| OE5MMP-10 | 2026-09-01 00:18:47 | 49.38499 | 13.25455 | 342° | 16km/h | 26528m | 4.9m/s | -49.7°C | 3.5% | 21.1hPa | 2.6V | 00:00:00 | 02:13:10 | 00:00:00 | |
| PG1ADW-2 | 2026-09-01 00:18:45 | 49.38493 | 13.25458 | 348° | 16km/h | 26523m | 5.2m/s | -49.8°C | 3.5% | 21.1hPa | 2.6V | 00:00:00 | 00:00:00 | 00:00:00 | |
| PETON7-10 | 2026-09-01 00:18:44 | 49.38487 | 13.25459 | 358° | 15km/h | 26517m | 6.4m/s | -49.8°C | 3.5% | 21.2hPa | 2.6V | 00:00:00 | 00:00:00 | 00:00:00 | |
| DO3MHA-11 | 2026-09-01 00:18:42 | 49.38478 | 13.25457 | 24° | 11km/h | 26506m | 5.0m/s | -49.8°C | 3.5% | 21.2hPa | 2.6V | 00:00:00 | 02:13:06 | 00:00:00 | |
| SONDE2-11 | 2026-09-01 00:18:41 | 49.38475 | 13.25454 | 25° | 11km/h | 26500m | 5.7m/s | -49.8°C | 0.9% | 21.3hPa | 2.6V | 00:00:00 | 00:00:00 | 00:00:00 | |
| DM0DOS-11 | 2026-09-01 00:18:40 | 49.38463 | 13.25458 | 332° | 11km/h | 26472m | 6m/s | -49.7°C | 3.5% | 21.3hPa | 2.6V | 03:48:49 | 02:13:00 | 00:00:00 | |
| OE5REO-15 | 2026-09-01 00:18:39 | 49.38472 | 13.25453 | 16° | 9km/h | 26494m | 6.1m/s | -49.8°C | 0.9% | 21.3hPa | 2.6V | 03:49:00 | 00:00:00 | 00:00:00 | |
| BAUMI2-15 | 2026-09-01 00:18:37 | 49.38465 | 13.25456 | 326° | 13km/h | 26478m | 4.8m/s | -49.7°C | 3.5% | 21.3hPa | 2.6V | 00:00:00 | 02:13:01 | 00:00:00 | |
| OE5MMP-10 | 2026-09-01 00:18:36 | 49.38463 | 13.25458 | 333° | 16km/h | 26472m | 6.0m/s | -49.7°C | 3.5% | 21.3hPa | 2.6V | 00:00:00 | 02:13:00 | 00:00:00 | |
| DL6DJ-15 | 2026-09-01 00:18:33 | 49.38454 | 13.25461 | 350° | 15km/h | 26455m | 5.0m/s | -49.7°C | 0.9% | 21.4hPa | 2.6V | 00:00:00 | 00:00:00 | 00:00:00 | |
| BAUMI2-15 | 2026-09-01 00:18:32 | 49.38449 | 13.25463 | 346° | 20km/h | 26449m | 6.3m/s | -49.6°C | 3.4% | 21.4hPa | 2.6V | 00:00:00 | 02:12:56 | 00:00:00 | |
| DM0DOS-11 | 2026-09-01 00:18:30 | 49.38422 | 13.25466 | 52° | 15km/h | 26415m | 5.9m/s | -49.7°C | 3.5% | 21.6hPa | 2.6V | 03:48:59 | 02:12:50 | 00:00:00 | |
| PETON7-10 | 2026-09-01 00:18:29 | 49.38434 | 13.25470 | 349° | 15km/h | 26433m | 4.4m/s | -49.6°C | 3.5% | 21.5hPa | 2.7V | 03:48:00 | 00:00:00 | 00:00:00 | |
| BAUMI2-15 | 2026-09-01 00:18:27 | 49.38425 | 13.25469 | 24° | 11km/h | 26422m | 6.6m/s | -49.6°C | 3.5% | 21.5hPa | 2.7V | 03:48:00 | 02:12:51 | 00:00:00 | |
| OE5MMP-10 | 2026-09-01 00:18:26 | 49.38422 | 13.25466 | 53° | 15km/h | 26415m | 5.8m/s | -49.6°C | 3.5% | 21.5hPa | 2.6V | 03:48:00 | 02:12:50 | 00:00:00 | |
| PG1ADW-2 | 2026-09-01 00:18:25 | 49.38420 | 13.25461 | 73° | 13km/h | 26410m | 4.9m/s | -49.6°C | 3.5% | 21.5hPa | 2.6V | 03:49:00 | 00:00:00 | 00:00:00 | |
| OE5REO-15 | 2026-09-01 00:18:24 | 49.38420 | 13.25461 | 73° | 13km/h | 26410m | 5.0m/s | -49.7°C | 0.9% | 21.6hPa | 2.7V | 03:49:00 | 00:00:00 | 00:00:00 | |
| DO3MHA-11 | 2026-09-01 00:18:22 | 49.38418 | 13.25453 | 359° | 15km/h | 26394m | 4.9m/s | -49.6°C | 3.4% | 21.6hPa | 2.7V | 00:00:00 | 02:12:46 | 00:00:00 | |
| OE3OSB-13 | 2026-09-01 00:18:21 | 49.38413 | 13.25455 | 346° | 15km/h | 26383m | 6.0m/s | -49.6°C | 0.8% | 21.7hPa | 2.7V | 00:00:00 | 00:00:00 | 00:00:00 | |
| SP3BTT-10 | 2026-09-01 00:18:19 | 49.38408 | 13.25456 | 353° | 18km/h | 26377m | 6.5m/s | -49.5°C | 3.4% | 21.6hPa | 2.7V | 00:00:00 | 00:00:00 | 00:00:00 | |
| BAUMI2-15 | 2026-09-01 00:18:17 | 49.38398 | 13.25457 | 359° | 16km/h | 26366m | 4.6m/s | -49.5°C | 3.4% | 21.7hPa | 2.7V | 00:00:00 | 02:12:41 | 00:00:00 | |
| OE5MMP-10 | 2026-09-01 00:18:16 | 49.38392 | 13.25457 | 358° | 11km/h | 26362m | 4.4m/s | -49.5°C | 3.4% | 21.7hPa | 2.7V | 00:00:00 | 02:12:40 | 00:00:00 | |
| DM0DOS-11 | 2026-09-01 00:18:14 | 49.38380 | 13.25463 | 316° | 4km/h | 26339m | 5.4m/s | -49.5°C | 3.5% | 21.8hPa | 2.7V | 03:49:13 | 02:12:36 | 00:00:00 | |
| PETON7-10 | 2026-09-01 00:18:14 | 49.38384 | 13.25459 | 342° | 9km/h | 26351m | 6.0m/s | -49.5°C | 3.5% | 21.7hPa | 2.7V | 00:00:00 | 02:12:38 | 00:00:00 | |
| DO3MHA-11 | 2026-09-01 00:18:12 | 49.38380 | 13.25462 | 317° | 7km/h | 26339m | 5.3m/s | -49.5°C | 3.5% | 21.8hPa | 2.7V | 00:00:00 | 02:12:36 | 00:00:00 | |
| SONDE2-11 | 2026-09-01 00:18:10 | 49.38379 | 13.25462 | 76° | 5km/h | 26328m | 6.4m/s | -49.5°C | 0.9% | 21.9hPa | 2.7V | 00:00:00 | 00:00:00 | 00:00:00 | |
| OE5REO-15 | 2026-09-01 00:18:08 | 49.38379 | 13.25458 | 79° | 11km/h | 26322m | 6.4m/s | -49.5°C | 0.9% | 21.9hPa | 2.7V | 03:50:00 | 00:00:00 | 00:00:00 | |
| BAUMI2-15 | 2026-09-01 00:18:07 | 49.38377 | 13.25449 | 75° | 7km/h | 26311m | 4.8m/s | -49.5°C | 3.4% | 21.9hPa | 2.7V | 03:49:00 | 02:12:31 | 00:00:00 | |
| OE5MMP-10 | 2026-09-01 00:18:06 | 49.38376 | 13.25445 | 69° | 7km/h | 26306m | 6.2m/s | -49.5°C | 3.4% | 21.9hPa | 2.7V | 00:00:00 | 02:12:30 | 00:00:00 | |
| PG1ADW-2 | 2026-09-01 00:18:05 | 49.38375 | 13.25443 | 40° | 11km/h | 26300m | 5.8m/s | -49.5°C | 3.4% | 21.9hPa | 2.7V | 00:00:00 | 00:00:00 | 00:00:00 | |
| DM0DOS-11 | 2026-09-01 00:18:03 | 49.38367 | 13.25443 | 1° | 11km/h | 26276m | 5.3m/s | -49.4°C | 3.3% | 22hPa | 2.7V | 03:49:24 | 02:12:25 | 00:00:00 | |
| DO3MHA-11 | 2026-09-01 00:18:02 | 49.38370 | 13.25443 | 356° | 11km/h | 26282m | 6.5m/s | -49.4°C | 3.4% | 21.9hPa | 2.6V | 00:00:00 | 02:12:26 | 00:00:00 | |
| PETON7-10 | 2026-09-01 00:17:59 | 49.38363 | 13.25443 | 354° | 13km/h | 26266m | 5.1m/s | -49.4°C | 3.3% | 22.0hPa | 2.6V | 00:00:00 | 00:00:00 | 00:00:00 | |
| BAUMI2-15 | 2026-09-01 00:17:57 | 49.38363 | 13.25443 | 163° | 15km/h | 26255m | 5.6m/s | -49.4°C | 3.3% | 22.1hPa | 2.7V | 00:00:00 | 02:12:21 | 00:00:00 | |
| OE5MMP-10 | 2026-09-01 00:17:56 | 49.38365 | 13.25442 | 144° | 15km/h | 26249m | 5.2m/s | -49.5°C | 3.4% | 22.1hPa | 2.6V | 00:00:00 | 02:12:20 | 00:00:00 | |
| DM0DOS-11 | 2026-09-01 00:17:53 | 49.38370 | 13.25405 | 65° | 13km/h | 26217m | 5.9m/s | -49.7°C | 3.5% | 22.2hPa | 2.6V | 03:49:35 | 02:12:14 | 00:00:00 | |
| OE3OSB-13 | 2026-09-01 00:17:50 | 49.38369 | 13.25402 | 39° | 9km/h | 26211m | 5.5m/s | -49.7°C | 0.9% | 22.2hPa | 2.6V | 00:00:00 | 00:00:00 | 00:00:00 | |
| BAUMI2-15 | 2026-09-01 00:17:47 | 49.38363 | 13.25399 | 17° | 13km/h | 26201m | 5.5m/s | -49.7°C | 3.5% | 22.2hPa | 2.6V | 03:49:00 | 02:12:11 | 00:00:00 | |
| OE5MMP-10 | 2026-09-01 00:17:46 | 49.38360 | 13.25397 | 26° | 16km/h | 26195m | 6.1m/s | -49.8°C | 3.5% | 22.2hPa | 2.6V | 03:49:00 | 02:12:10 | 00:00:00 | |
| PG1ADW-2 | 2026-09-01 00:17:45 | 49.38358 | 13.25394 | 41° | 15km/h | 26190m | 5.0m/s | -49.8°C | 3.4% | 22.3hPa | 2.6V | 00:00:00 | 02:12:09 | 00:00:00 | |
| PETON7-10 | 2026-09-01 00:17:44 | 49.38356 | 13.25390 | 62° | 16km/h | 26184m | 4.9m/s | -49.9°C | 3.5% | 22.3hPa | 2.6V | 00:00:00 | 00:00:00 | 00:00:00 | |
| DM0DOS-11 | 2026-09-01 00:17:43 | 49.38359 | 13.25372 | 117° | 18km/h | 26162m | 4.2m/s | -50°C | 3.5% | 22.4hPa | 2.6V | 03:49:45 | 02:12:04 | 00:00:00 | |
| DO3MHA-11 | 2026-09-01 00:17:42 | 49.38356 | 13.25382 | 116° | 18km/h | 26173m | 6.4m/s | -50.0°C | 3.5% | 22.3hPa | 2.6V | 00:00:00 | 02:12:06 | 00:00:00 | |
| SONDE2-11 | 2026-09-01 00:17:39 | 49.38362 | 13.25365 | 108° | 20km/h | 26157m | 5.8m/s | -50.0°C | 0.9% | 22.4hPa | 2.6V | 00:00:00 | 00:00:00 | 00:00:00 | |
| BAUMI2-15 | 2026-09-01 00:17:37 | 49.38363 | 13.25346 | 86° | 18km/h | 26146m | 5.0m/s | -49.9°C | 3.5% | 22.4hPa | 2.6V | 00:00:00 | 02:12:01 | 00:00:00 | |
| OE5MMP-10 | 2026-09-01 00:17:36 | 49.38362 | 13.25337 | 77° | 13km/h | 26141m | 4.8m/s | -49.9°C | 3.5% | 22.5hPa | 2.6V | 00:00:00 | 02:12:00 | 00:00:00 | |
| DM0DOS-11 | 2026-09-01 00:17:32 | 49.38344 | 13.25320 | 358° | 15km/h | 26106m | 5m/s | -50°C | 3.5% | 22.6hPa | 2.6V | 03:49:55 | 02:11:54 | 00:00:00 | |
| DO3MHA-11 | 2026-09-01 00:17:32 | 49.38352 | 13.25320 | 6° | 13km/h | 26118m | 5.6m/s | -49.9°C | 3.5% | 22.5hPa | 2.6V | 00:00:00 | 02:11:56 | 00:00:00 | |
| DL6DJ-15 | 2026-09-01 00:17:31 | 49.38348 | 13.25320 | 1° | 15km/h | 26112m | 6.4m/s | -50.0°C | 0.9% | 22.6hPa | 2.6V | 00:00:00 | 00:00:00 | 00:00:00 | |
| PETON7-10 | 2026-09-01 00:17:29 | 49.38341 | 13.25320 | 358° | 16km/h | 26102m | 4.6m/s | -50.0°C | 3.5% | 22.6hPa | 2.6V | 03:49:00 | 02:11:53 | 00:00:00 | |
| OE5MMP-10 | 2026-09-01 00:17:26 | 49.38341 | 13.25318 | 147° | 18km/h | 26084m | 5.1m/s | -50.0°C | 3.5% | 22.6hPa | 2.6V | 00:00:00 | 02:11:50 | 00:00:00 | |
| PG1ADW-2 | 2026-09-01 00:17:25 | 49.38344 | 13.25314 | 132° | 18km/h | 26080m | 4.7m/s | -50.1°C | 3.5% | 22.6hPa | 2.6V | 00:00:00 | 00:00:00 | 00:00:00 | |
| EDDB2-12 | 2026-09-01 00:17:24 | 49.38346 | 13.25309 | 114° | 18km/h | 26074m | 5.8m/s | -50.1°C | 0.9% | 22.7hPa | 2.6V | 00:00:00 | 00:00:00 | 00:00:00 | |
| DL1JEZ-13 | 2026-09-01 00:17:23 | 49.38346 | 13.25309 | 115° | 18km/h | 26074m | 5.8m/s | -50.1°C | 0.9% | 22.7hPa | 2.6V | 00:00:00 | 00:00:00 | 00:00:00 | |
| DM0DOS-11 | 2026-09-01 00:17:22 | 49.38340 | 13.25280 | 37° | 22km/h | 26054m | 5.8m/s | -50.2°C | 3.6% | 22.8hPa | 2.6V | 03:50:05 | 02:11:44 | 00:00:00 | |
| DO3MHA-11 | 2026-09-01 00:17:22 | 49.38346 | 13.25294 | 70° | 20km/h | 26064m | 4.3m/s | -50.1°C | 3.6% | 22.7hPa | 2.7V | 00:00:00 | 02:11:46 | 00:00:00 | |
| OE3OSB-13 | 2026-09-01 00:17:19 | 49.38330 | 13.25275 | 4° | 18km/h | 26042m | 5.4m/s | -50.2°C | 0.9% | 22.8hPa | 2.6V | 00:00:00 | 00:00:00 | 00:00:00 | |
| OE5MMP-10 | 2026-09-01 00:17:16 | 49.38321 | 13.25275 | 358° | 15km/h | 26033m | 4.5m/s | -50.2°C | 3.6% | 22.8hPa | 2.6V | 00:00:00 | 02:11:40 | 00:00:00 | |
| PETON7-10 | 2026-09-01 00:17:14 | 49.38314 | 13.25273 | 30° | 20km/h | 26022m | 5.5m/s | -50.2°C | 3.6% | 22.9hPa | 2.6V | 00:00:00 | 00:00:00 | 00:00:00 | |
| DM0DOS-11 | 2026-09-01 00:17:13 | 49.38308 | 13.25253 | 93° | 15km/h | 25999m | 6.3m/s | -50.3°C | 3.5% | 23hPa | 2.6V | 03:50:15 | 02:11:34 | 00:00:00 | |
| SONDE2-11 | 2026-09-01 00:17:08 | 49.38309 | 13.25242 | 94° | 15km/h | 25989m | 4.0m/s | -50.3°C | 0.9% | 23.0hPa | 2.7V | 00:00:00 | 00:00:00 | 00:00:00 | |
| S52SK | 2026-09-01 00:17:07 | 49.38309 | 13.25242 | 96° | 15km/h | 25990m | 4.0m/s | -50.3°C | 0.9% | 23.0hPa | 2.7V | 00:00:00 | 00:00:00 | 00:00:00 | |
| OE5MMP-10 | 2026-09-01 00:17:06 | 49.38308 | 13.25229 | 73° | 24km/h | 25979m | 5.9m/s | -50.2°C | 3.6% | 23.0hPa | 2.7V | 03:50:00 | 02:11:30 | 00:00:00 | |
| PG1ADW-2 | 2026-09-01 00:17:05 | 49.38306 | 13.25222 | 56° | 22km/h | 25974m | 4.7m/s | -50.2°C | 3.6% | 23.0hPa | 2.6V | 03:50:00 | 00:00:00 | 00:00:00 | |
| DM0DOS-11 | 2026-09-01 00:17:02 | 49.38276 | 13.25205 | 4° | 27km/h | 25946m | 4.3m/s | -50.1°C | 3.6% | 23.2hPa | 2.6V | 03:50:25 | 02:11:24 | 00:00:00 | |
| DO3MHA-11 | 2026-09-01 00:17:02 | 49.38290 | 13.25208 | 11° | 20km/h | 25957m | 6.4m/s | -50.1°C | 3.6% | 23.1hPa | 2.6V | 03:50:00 | 02:11:26 | 00:00:00 | |
| DL6DJ-15 | 2026-09-01 00:17:00 | 49.38276 | 13.25205 | 4° | 27km/h | 25946m | 4.4m/s | -50.1°C | 0.9% | 23.2hPa | 2.6V | 00:00:00 | 00:00:00 | 00:00:00 | |
| EDDB2-12 | 2026-09-01 00:16:53 | 49.38261 | 13.25179 | 113° | 11km/h | 25909m | 4.3m/s | -50.0°C | 0.9% | 23.3hPa | 2.6V | 00:00:00 | 00:00:00 | 00:00:00 | |
| DM0DOS-11 | 2026-09-01 00:16:52 | 49.38259 | 13.25162 | 49° | 22km/h | 25893m | 5.1m/s | -50°C | 3.5% | 23.4hPa | 2.6V | 03:50:35 | 02:11:14 | 00:00:00 | |
| EDDB2-11 | 2026-09-01 00:16:51 | 49.38261 | 13.25168 | 71° | 16km/h | 25899m | 5.8m/s | -50.0°C | 0.9% | 23.4hPa | 2.6V | 00:00:00 | 00:00:00 | 00:00:00 | |
| OE3OSB-13 | 2026-09-01 00:16:47 | 49.38240 | 13.25148 | 6° | 31km/h | 25878m | 5.9m/s | -50.0°C | 0.9% | 23.4hPa | 2.6V | 00:00:00 | 00:00:00 | 00:00:00 | |
| OE5DRO-10 | 2026-09-01 00:16:46 | 49.38226 | 13.25149 | 350° | 16km/h | 25868m | 3.6m/s | -49.9°C | 3.5% | 23.4hPa | 2.6V | 00:00:00 | 00:00:00 | 00:00:00 | |
| PG1ADW-2 | 2026-09-01 00:16:45 | 49.38226 | 13.25149 | 350° | 15km/h | 25868m | 3.6m/s | -49.9°C | 3.5% | 23.4hPa | 2.6V | 00:00:00 | 00:00:00 | 00:00:00 | |
| PETON7-10 | 2026-09-01 00:16:44 | 49.38221 | 13.25151 | 351° | 16km/h | 25864m | 4.4m/s | -49.9°C | 3.4% | 23.4hPa | 2.6V | 00:00:00 | 02:11:08 | 00:00:00 | |
| DM0DOS-11 | 2026-09-01 00:16:42 | 49.38215 | 13.25140 | 92° | 15km/h | 25842m | 5m/s | -49.9°C | 3.4% | 23.5hPa | 2.6V | 03:50:45 | 02:11:04 | 00:00:00 | |
| DO3MHA-11 | 2026-09-01 00:16:42 | 49.38215 | 13.25149 | 60° | 16km/h | 25853m | 6.1m/s | -49.8°C | 3.4% | 23.5hPa | 2.7V | 00:00:00 | 02:11:06 | 00:00:00 | |
| SONDE2-11 | 2026-09-01 00:16:37 | 49.38213 | 13.25125 | 45° | 11km/h | 25826m | 5.2m/s | -49.9°C | 0.9% | 23.6hPa | 2.6V | 00:00:00 | 00:00:00 | 00:00:00 | |
| OE5REO-15 | 2026-09-01 00:16:36 | 49.38210 | 13.25122 | 24° | 16km/h | 25821m | 5.1m/s | -49.9°C | 0.9% | 23.6hPa | 2.6V | 03:50:00 | 00:00:00 | 00:00:00 | |
| SP3BTT-10 | 2026-09-01 00:16:33 | 49.38195 | 13.25116 | 12° | 11km/h | 25805m | 5.4m/s | -49.9°C | 3.4% | 23.6hPa | 2.6V | 03:50:00 | 00:00:00 | 00:00:00 | |
| DM0DOS-11 | 2026-09-01 00:16:32 | 49.38179 | 13.25112 | 0° | 16km/h | 25790m | 5.6m/s | -50°C | 3.5% | 23.7hPa | 2.6V | 03:50:55 | 02:10:54 | 00:00:00 | |
| DO3MHA-11 | 2026-09-01 00:16:32 | 49.38188 | 13.25114 | 13° | 16km/h | 25800m | 4.7m/s | -49.9°C | 3.4% | 23.6hPa | 2.6V | 00:00:00 | 02:10:56 | 00:00:00 | |
| PETON7-10 | 2026-09-01 00:16:29 | 49.38175 | 13.25113 | 348° | 13km/h | 25784m | 6.4m/s | -50.0°C | 3.5% | 23.7hPa | 2.6V | 03:50:00 | 00:00:00 | 00:00:00 | |
| OE5DRO-10 | 2026-09-01 00:16:27 | 49.38170 | 13.25114 | 3° | 13km/h | 25774m | 4.2m/s | -50.0°C | 3.5% | 23.7hPa | 2.6V | 00:00:00 | 00:00:00 | 00:00:00 | |
| OE5MMP-10 | 2026-09-01 00:16:26 | 49.38169 | 13.25113 | 32° | 15km/h | 25769m | 5.9m/s | -50.1°C | 3.5% | 23.8hPa | 2.6V | 03:50:00 | 02:10:50 | 00:00:00 | |
| PG1ADW-2 | 2026-09-01 00:16:25 | 49.38166 | 13.25110 | 45° | 13km/h | 25764m | 5.5m/s | -50.1°C | 3.5% | 23.8hPa | 2.6V | 00:00:00 | 02:10:49 | 00:00:00 | |
| DM0DOS-11 | 2026-09-01 00:16:22 | 49.38148 | 13.25091 | 9° | 16km/h | 25737m | 5.2m/s | -50.4°C | 3.6% | 23.9hPa | 2.6V | 03:51:05 | 02:10:44 | 00:00:00 | |
| DO3MHA-11 | 2026-09-01 00:16:22 | 49.38156 | 13.25096 | 34° | 11km/h | 25748m | 5.7m/s | -50.1°C | 3.5% | 23.8hPa | 2.6V | 03:51:00 | 02:10:46 | 00:00:00 | |
| EDDB2-11 | 2026-09-01 00:16:20 | 49.38148 | 13.25091 | 9° | 15km/h | 25737m | 5.2m/s | -50.4°C | 0.9% | 23.9hPa | 2.6V | 00:00:00 | 00:00:00 | 00:00:00 | |
| OE5MMP-10 | 2026-09-01 00:16:16 | 49.38136 | 13.25089 | 8° | 11km/h | 25716m | 4.4m/s | -50.4°C | 3.6% | 24.0hPa | 2.6V | 00:00:00 | 02:10:40 | 00:00:00 | |
| PETON7-10 | 2026-09-01 00:16:14 | 49.38132 | 13.25090 | 331° | 11km/h | 25707m | 5.8m/s | -50.4°C | 3.6% | 24.0hPa | 2.6V | 00:00:00 | 00:00:00 | 00:00:00 | |
| DM0DOS-11 | 2026-09-01 00:16:12 | 49.38123 | 13.25099 | 347° | 13km/h | 25685m | 5.1m/s | -50.4°C | 3.5% | 24.1hPa | 2.6V | 03:51:15 | 02:10:34 | 00:00:00 | |
| DO3MHA-11 | 2026-09-01 00:16:10 | 49.38123 | 13.25099 | 348° | 13km/h | 25685m | 5.0m/s | -50.3°C | 3.5% | 24.1hPa | 2.6V | 00:00:00 | 02:10:34 | 00:00:00 | |
| OE5DRO-10 | 2026-09-01 00:16:08 | 49.38117 | 13.25097 | 33° | 9km/h | 25674m | 5.3m/s | -50.4°C | 3.5% | 24.1hPa | 2.6V | 03:51:00 | 00:00:00 | 00:00:00 | |
| OE5MMP-10 | 2026-09-01 00:16:06 | 49.38112 | 13.25092 | 30° | 11km/h | 25665m | 4.0m/s | -50.4°C | 3.6% | 24.1hPa | 2.7V | 00:00:00 | 02:10:30 | 00:00:00 | |
| PG1ADW-2 | 2026-09-01 00:16:05 | 49.38110 | 13.25091 | 5° | 7km/h | 25661m | 5.6m/s | -50.4°C | 3.5% | 24.2hPa | 2.6V | 00:00:00 | 00:00:00 | 00:00:00 | |
| OE5REO-15 | 2026-09-01 00:16:04 | 49.38110 | 13.25091 | 5° | 9km/h | 25661m | 5.6m/s | -50.4°C | 0.9% | 24.2hPa | 2.6V | 03:51:00 | 00:00:00 | 00:00:00 | |
| DM0DOS-11 | 2026-09-01 00:16:02 | 49.38101 | 13.25110 | 271° | 11km/h | 25633m | 5.6m/s | -50.5°C | 3.5% | 24.3hPa | 2.6V | 03:51:25 | 02:10:24 | 00:00:00 | |
| DO3MHA-11 | 2026-09-01 00:16:00 | 49.38101 | 13.25110 | 272° | 7km/h | 25633m | 5.6m/s | -50.4°C | 3.5% | 24.3hPa | 2.6V | 00:00:00 | 02:10:24 | 00:00:00 | |
| PETON7-10 | 2026-09-01 00:15:59 | 49.38101 | 13.25113 | 260° | 5km/h | 25628m | 4.6m/s | -50.4°C | 3.5% | 24.3hPa | 2.6V | 00:00:00 | 02:10:23 | 00:00:00 | |
| OE5DXL-15 | 2026-09-01 00:15:58 | 49.38103 | 13.25122 | 260° | 4km/h | 25612m | 5.1m/s | -50.4°C | 3.5% | 24.4hPa | 2.6V | 00:00:00 | 00:00:00 | 00:00:00 | |
| OE5MMP-10 | 2026-09-01 00:15:56 | 49.38103 | 13.25122 | 260° | 5km/h | 25612m | 5.1m/s | -50.4°C | 3.5% | 24.4hPa | 2.6V | 00:00:00 | 02:10:20 | 00:00:00 | |
| DM0DOS-11 | 2026-09-01 00:15:52 | 49.38102 | 13.25117 | 70° | 2km/h | 25582m | 5.1m/s | -50.5°C | 3.6% | 24.5hPa | 2.6V | 03:51:35 | 02:10:14 | 00:00:00 | |
| EDDB2-12 | 2026-09-01 00:15:51 | 49.38102 | 13.25118 | 78° | 5km/h | 25587m | 4.3m/s | -50.5°C | 0.9% | 24.5hPa | 2.6V | 00:00:00 | 00:00:00 | 00:00:00 | |
| DO3MHA-11 | 2026-09-01 00:15:50 | 49.38101 | 13.25117 | 71° | 5km/h | 25582m | 5.1m/s | -50.5°C | 3.6% | 24.5hPa | 2.6V | 00:00:00 | 02:10:14 | 00:00:00 | |
| OE5DRO-10 | 2026-09-01 00:15:49 | 49.38101 | 13.25117 | 262° | 5km/h | 25577m | 5.7m/s | -50.5°C | 3.6% | 24.5hPa | 2.6V | 00:00:00 | 00:00:00 | 00:00:00 | |
| OE5MMP-10 | 2026-09-01 00:15:46 | 49.38104 | 13.25125 | 234° | 4km/h | 25562m | 5.4m/s | -50.7°C | 3.6% | 24.6hPa | 2.6V | 03:51:00 | 02:10:10 | 00:00:00 | |
| DM0DOS-11 | 2026-09-01 00:15:45 | 49.38109 | 13.25130 | 264° | 4km/h | 25532m | 5.2m/s | -50.8°C | 3.6% | 24.7hPa | 2.6V | 03:51:45 | 02:10:04 | 00:00:00 | |
| PG1ADW-2 | 2026-09-01 00:15:45 | 49.38105 | 13.25127 | 216° | 4km/h | 25557m | 5.4m/s | -50.7°C | 3.6% | 24.6hPa | 2.6V | 03:51:00 | 00:00:00 | 00:00:00 | |
| PETON7-10 | 2026-09-01 00:15:44 | 49.38106 | 13.25128 | 198° | 5km/h | 25552m | 4.3m/s | -50.7°C | 3.6% | 24.6hPa | 2.6V | 00:00:00 | 00:00:00 | 00:00:00 | |
| DL2RXE-15 | 2026-09-01 00:15:42 | 49.38108 | 13.25128 | 183° | 4km/h | 25548m | 4.1m/s | 0°C | 0% | 0hPa | 2.6V | 00:00:00 | 00:00:00 | 00:00:00 | |
| DO3MHA-11 | 2026-09-01 00:15:40 | 49.38109 | 13.25130 | 265° | 5km/h | 25532m | 5.1m/s | -50.8°C | 3.6% | 24.7hPa | 2.6V | 03:51:00 | 02:10:04 | 00:00:00 | |
| OE5MMP-10 | 2026-09-01 00:15:36 | 49.38111 | 13.25129 | 134° | 5km/h | 25512m | 4.8m/s | -50.7°C | 3.6% | 24.7hPa | 2.7V | 00:00:00 | 02:10:00 | 00:00:00 | |
| SONDE2-11 | 2026-09-01 00:15:35 | 49.38112 | 13.25128 | 139° | 4km/h | 25507m | 4.4m/s | -50.8°C | 0.9% | 24.8hPa | 2.7V | 00:00:00 | 00:00:00 | 00:00:00 | |
| OE5REO-15 | 2026-09-01 00:15:33 | 49.38113 | 13.25127 | 192° | 2km/h | 25502m | 5.5m/s | -50.8°C | 0.9% | 24.8hPa | 2.7V | 03:52:00 | 00:00:00 | 00:00:00 | |
| DO3MHA-11 | 2026-09-01 00:15:30 | 49.38113 | 13.25137 | 271° | 4km/h | 25482m | 5.3m/s | -50.8°C | 3.7% | 24.9hPa | 2.7V | 00:00:00 | 02:09:54 | 00:00:00 | |
| PETON7-10 | 2026-09-01 00:15:29 | 49.38113 | 13.25139 | 264° | 5km/h | 25476m | 5.1m/s | -50.9°C | 3.7% | 24.9hPa | 2.7V | 03:51:00 | 00:00:00 | 00:00:00 | |
| S52SK | 2026-09-01 00:15:28 | 49.38113 | 13.25139 | 265° | 4km/h | 25476m | 5.2m/s | -50.9°C | 1.0% | 24.9hPa | 2.7V | 00:00:00 | 00:00:00 | 00:00:00 | |
| BAUMI2-15 | 2026-09-01 00:15:27 | 49.38113 | 13.25140 | 12° | 2km/h | 25467m | 4.5m/s | -50.9°C | 3.7% | 24.9hPa | 2.7V | 03:51:00 | 02:09:51 | 00:00:00 | |
| OE5MMP-10 | 2026-09-01 00:15:26 | 49.38113 | 13.25140 | 351° | 7km/h | 25462m | 5.7m/s | -50.9°C | 3.7% | 24.9hPa | 2.6V | 00:00:00 | 02:09:50 | 00:00:00 | |
| DM0DOS-11 | 2026-09-01 00:15:25 | 49.38119 | 13.25139 | 167° | 13km/h | 25431m | 4.1m/s | -50.8°C | 3.6% | 25.1hPa | 2.6V | 03:52:05 | 02:09:44 | 00:00:00 | |
| PG1ADW-2 | 2026-09-01 00:15:25 | 49.38112 | 13.25140 | 338° | 7km/h | 25457m | 5.0m/s | -50.9°C | 3.7% | 24.9hPa | 2.6V | 00:00:00 | 00:00:00 | 00:00:00 | |
| BAUMI2-15 | 2026-09-01 00:15:22 | 49.38114 | 13.25141 | 168° | 11km/h | 25442m | 6.3m/s | -50.8°C | 3.6% | 25.0hPa | 2.6V | 00:00:00 | 02:09:46 | 00:00:00 | |
| DO3MHA-11 | 2026-09-01 00:15:20 | 49.38119 | 13.25139 | 168° | 5km/h | 25432m | 4.1m/s | -50.7°C | 3.6% | 25.0hPa | 2.6V | 00:00:00 | 02:09:44 | 00:00:00 | |
| SP3BTT-10 | 2026-09-01 00:15:18 | 49.38124 | 13.25138 | 196° | 5km/h | 25422m | 5.6m/s | -50.7°C | 3.6% | 25.1hPa | 2.6V | 00:00:00 | 00:00:00 | 00:00:00 | |
| OE5MMP-10 | 2026-09-01 00:15:17 | 49.38125 | 13.25141 | 293° | 5km/h | 25411m | 4.9m/s | -50.7°C | 3.6% | 25.1hPa | 2.6V | 00:00:00 | 02:09:40 | 00:00:00 | |
| PETON7-10 | 2026-09-01 00:15:14 | 49.38123 | 13.25145 | 335° | 7km/h | 25402m | 4.6m/s | -50.7°C | 3.6% | 25.2hPa | 2.6V | 00:00:00 | 02:09:38 | 00:00:00 | |
| DM0DOS-11 | 2026-09-01 00:15:13 | 49.38123 | 13.25133 | 78° | 5km/h | 25370m | 5m/s | -50.9°C | 3.6% | 25.4hPa | 2.6V | 03:52:17 | 02:09:32 | 00:00:00 | |
| BAUMI2-15 | 2026-09-01 00:15:12 | 49.38122 | 13.25144 | 95° | 7km/h | 25391m | 5.4m/s | -50.8°C | 3.6% | 25.2hPa | 2.7V | 00:00:00 | 02:09:36 | 00:00:00 | |
| OE5DRO-10 | 2026-09-01 00:15:11 | 49.38122 | 13.25141 | 105° | 7km/h | 25386m | 4.6m/s | -50.8°C | 3.6% | 25.2hPa | 2.7V | 00:00:00 | 00:00:00 | 00:00:00 | |
| DO3MHA-11 | 2026-09-01 00:15:10 | 49.38123 | 13.25138 | 104° | 7km/h | 25382m | 5.0m/s | -50.8°C | 3.6% | 25.2hPa | 2.6V | 00:00:00 | 02:09:34 | 00:00:00 | |
| BAUMI2-15 | 2026-09-01 00:15:07 | 49.38122 | 13.25131 | 74° | 9km/h | 25366m | 4.2m/s | -50.8°C | 3.5% | 25.3hPa | 2.7V | 03:52:00 | 02:09:31 | 00:00:00 | |
| OE5MMP-10 | 2026-09-01 00:15:06 | 49.38122 | 13.25128 | 79° | 9km/h | 25361m | 5.1m/s | -50.8°C | 3.5% | 25.3hPa | 2.7V | 03:52:00 | 02:09:30 | 00:00:00 | |
| PG1ADW-2 | 2026-09-01 00:15:05 | 49.38121 | 13.25124 | 84° | 9km/h | 25356m | 5.9m/s | -50.9°C | 3.6% | 25.3hPa | 2.6V | 00:00:00 | 02:09:29 | 00:00:00 | |
| SONDE2-11 | 2026-09-01 00:15:04 | 49.38121 | 13.25120 | 86° | 9km/h | 25350m | 4.8m/s | -50.9°C | 0.9% | 25.4hPa | 2.6V | 00:00:00 | 00:00:00 | 00:00:00 | |
| DO3MHA-11 | 2026-09-01 00:15:00 | 49.38117 | 13.25112 | 346° | 7km/h | 25329m | 5.0m/s | -51.1°C | 3.6% | 25.5hPa | 2.6V | 03:52:00 | 02:09:24 | 00:00:00 | |
| PETON7-10 | 2026-09-01 00:14:59 | 49.38115 | 13.25113 | 344° | 9km/h | 25325m | 4.1m/s | -51.2°C | 3.6% | 25.5hPa | 2.6V | 00:00:00 | 00:00:00 | 00:00:00 | |
| DM0DOS-11 | 2026-09-01 00:14:57 | 49.38110 | 13.25112 | 74° | 5km/h | 25309m | 5.3m/s | -51.4°C | 3.7% | 25.6hPa | 2.7V | 03:52:29 | 02:09:20 | 00:00:00 | |
| BAUMI2-15 | 2026-09-01 00:14:57 | 49.38111 | 13.25114 | 24° | 5km/h | 25315m | 5.8m/s | -51.3°C | 3.6% | 25.5hPa | 2.7V | 00:00:00 | 02:09:21 | 00:00:00 | |
| OE5MMP-10 | 2026-09-01 00:14:56 | 49.38110 | 13.25112 | 75° | 7km/h | 25310m | 5.3m/s | -51.3°C | 3.7% | 25.5hPa | 2.7V | 00:00:00 | 02:09:20 | 00:00:00 | |
| BAUMI2-15 | 2026-09-01 00:14:52 | 49.38110 | 13.25103 | 72° | 7km/h | 25289m | 5.1m/s | -51.7°C | 3.8% | 25.6hPa | 2.7V | 00:00:00 | 02:09:16 | 00:00:00 | |
| DM0DOS-11 | 2026-09-01 00:14:51 | 49.38098 | 13.25091 | 13° | 20km/h | 25258m | 5.9m/s | -51.7°C | 3.8% | 25.8hPa | 2.7V | 03:52:39 | 02:09:10 | 00:00:00 | |
| EDDB2-12 | 2026-09-01 00:14:49 | 49.38107 | 13.25098 | 42° | 9km/h | 25273m | 5.7m/s | -51.7°C | 1.0% | 25.7hPa | 2.7V | 00:00:00 | 00:00:00 | 00:00:00 | |
| BAUMI2-15 | 2026-09-01 00:14:47 | 49.38102 | 13.25093 | 23° | 20km/h | 25264m | 4.2m/s | -51.6°C | 3.8% | 25.7hPa | 2.7V | 03:52:00 | 02:09:11 | 00:00:00 | |
| OE5MMP-10 | 2026-09-01 00:14:46 | 49.38098 | 13.25091 | 14° | 18km/h | 25258m | 5.9m/s | -51.6°C | 3.8% | 25.7hPa | 2.7V | 00:00:00 | 02:09:10 | 00:00:00 | |
| PG1ADW-2 | 2026-09-01 00:14:45 | 49.38093 | 13.25089 | 7° | 16km/h | 25252m | 6.3m/s | -51.6°C | 3.8% | 25.8hPa | 2.7V | 00:00:00 | 00:00:00 | 00:00:00 | |
| PETON7-10 | 2026-09-01 00:14:44 | 49.38087 | 13.25088 | 7° | 15km/h | 25247m | 5.1m/s | -51.6°C | 3.8% | 25.8hPa | 2.7V | 00:00:00 | 00:00:00 | 00:00:00 | |
| OE3OSB-13 | 2026-09-01 00:14:43 | 49.38081 | 13.25087 | 13° | 22km/h | 25241m | 5.1m/s | -51.7°C | 1.0% | 25.9hPa | 2.7V | 00:00:00 | 00:00:00 | 00:00:00 | |
| BAUMI2-15 | 2026-09-01 00:14:42 | 49.38076 | 13.25084 | 27° | 16km/h | 25236m | 6.2m/s | -51.7°C | 3.8% | 25.8hPa | 2.7V | 00:00:00 | 02:09:06 | 00:00:00 | |
| DM0DOS-11 | 2026-09-01 00:14:41 | 49.38062 | 13.25055 | 42° | 13km/h | 25205m | 4.4m/s | -51.7°C | 3.8% | 26hPa | 2.7V | 03:52:49 | 02:09:00 | 00:00:00 | |
| DO3MHA-11 | 2026-09-01 00:14:40 | 49.38070 | 13.25075 | 60° | 16km/h | 25226m | 4.0m/s | -51.7°C | 3.9% | 25.8hPa | 2.6V | 00:00:00 | 02:09:04 | 00:00:00 | |
| BAUMI2-15 | 2026-09-01 00:14:37 | 49.38064 | 13.25059 | 52° | 11km/h | 25211m | 5.1m/s | -51.7°C | 3.9% | 25.9hPa | 2.7V | 00:00:00 | 02:09:01 | 00:00:00 | |
| OE5MMP-10 | 2026-09-01 00:14:36 | 49.38062 | 13.25055 | 43° | 13km/h | 25206m | 4.3m/s | -51.7°C | 3.8% | 25.9hPa | 2.7V | 00:00:00 | 02:09:00 | 00:00:00 | |
| OE5DRO-10 | 2026-09-01 00:14:33 | 49.38055 | 13.25049 | 24° | 11km/h | 25190m | 5.4m/s | -51.6°C | 3.8% | 26.0hPa | 2.7V | 00:00:00 | 00:00:00 | 00:00:00 | |
| BAUMI2-15 | 2026-09-01 00:14:32 | 49.38053 | 13.25047 | 11° | 16km/h | 25185m | 4.7m/s | -51.6°C | 3.8% | 26.0hPa | 2.7V | 00:00:00 | 02:08:56 | 00:00:00 | |
| OE5REO-15 | 2026-09-01 00:14:31 | 49.38053 | 13.25047 | 11° | 11km/h | 25185m | 4.7m/s | -51.6°C | 1.0% | 26.1hPa | 2.7V | 03:53:00 | 00:00:00 | 00:00:00 | |
| DM0DOS-11 | 2026-09-01 00:14:29 | 49.38029 | 13.25051 | 353° | 7km/h | 25154m | 5.7m/s | -51.4°C | 3.9% | 26.2hPa | 2.7V | 03:52:59 | 02:08:50 | 00:00:00 | |
| PETON7-10 | 2026-09-01 00:14:29 | 49.38040 | 13.25048 | 351° | 11km/h | 25169m | 4.0m/s | -51.5°C | 3.8% | 26.1hPa | 2.7V | 03:52:00 | 02:08:53 | 00:00:00 | |
| BAUMI2-15 | 2026-09-01 00:14:27 | 49.38032 | 13.25051 | 348° | 7km/h | 25160m | 5.7m/s | -51.4°C | 3.8% | 26.1hPa | 2.7V | 03:52:00 | 02:08:51 | 00:00:00 | |
| OE5MMP-10 | 2026-09-01 00:14:26 | 49.38029 | 13.25051 | 354° | 7km/h | 25155m | 5.7m/s | -51.4°C | 3.9% | 26.1hPa | 2.6V | 03:52:00 | 02:08:50 | 00:00:00 | |
| PG1ADW-2 | 2026-09-01 00:14:25 | 49.38028 | 13.25051 | 21° | 7km/h | 25149m | 5.1m/s | -51.4°C | 3.8% | 26.2hPa | 2.6V | 03:53:00 | 00:00:00 | 00:00:00 | |
| BAUMI2-15 | 2026-09-01 00:14:22 | 49.38024 | 13.25045 | 47° | 9km/h | 25133m | 5.5m/s | -51.3°C | 3.7% | 26.2hPa | 2.7V | 00:00:00 | 02:08:46 | 00:00:00 | |
| DM0DOS-11 | 2026-09-01 00:14:21 | 49.38013 | 13.25036 | 358° | 11km/h | 25100m | 6.1m/s | -51.2°C | 3.7% | 26.4hPa | 2.7V | 03:53:09 | 02:08:40 | 00:00:00 | |
| DO3MHA-11 | 2026-09-01 00:14:21 | 49.38022 | 13.25043 | 44° | 9km/h | 25127m | 5.2m/s | -51.2°C | 3.7% | 26.3hPa | 2.6V | 00:00:00 | 02:08:45 | 00:00:00 | |
| EDDB2-12 | 2026-09-01 00:14:18 | 49.38016 | 13.25036 | 5° | 5km/h | 25105m | 4.6m/s | -51.2°C | 1.0% | 26.4hPa | 2.6V | 00:00:00 | 00:00:00 | 00:00:00 | |
| BAUMI2-15 | 2026-09-01 00:14:17 | 49.38016 | 13.25036 | 6° | 11km/h | 25106m | 4.6m/s | -51.2°C | 3.7% | 26.4hPa | 2.6V | 00:00:00 | 02:08:41 | 00:00:00 | |
| OE5MMP-10 | 2026-09-01 00:14:16 | 49.38014 | 13.25036 | 359° | 7km/h | 25100m | 6.0m/s | -51.2°C | 3.7% | 26.4hPa | 2.6V | 00:00:00 | 02:08:40 | 00:00:00 | |
| OE5REO-15 | 2026-09-01 00:14:15 | 49.38013 | 13.25036 | 360° | 11km/h | 25100m | 6.1m/s | -51.2°C | 1.0% | 26.4hPa | 2.6V | 03:53:00 | 00:00:00 | 00:00:00 | |
| PETON7-10 | 2026-09-01 00:14:14 | 49.38007 | 13.25037 | 351° | 5km/h | 25089m | 4.6m/s | -51.2°C | 3.7% | 26.4hPa | 2.6V | 00:00:00 | 00:00:00 | 00:00:00 | |
| BAUMI2-15 | 2026-09-01 00:14:12 | 49.38002 | 13.25039 | 330° | 4km/h | 25078m | 6.2m/s | -51.2°C | 3.7% | 26.5hPa | 2.7V | 00:00:00 | 02:08:36 | 00:00:00 | |
| DM0DOS-11 | 2026-09-01 00:14:11 | 49.37999 | 13.25041 | 13° | 7km/h | 25047m | 4.7m/s | -51.2°C | 3.8% | 26.7hPa | 2.7V | 03:53:19 | 02:08:30 | 00:00:00 | |
| DO3MHA-11 | 2026-09-01 00:14:11 | 49.38001 | 13.25040 | 293° | 11km/h | 25073m | 5.2m/s | -51.2°C | 3.7% | 26.5hPa | 2.7V | 03:53:00 | 02:08:35 | 00:00:00 | |
| DL1JEZ-13 | 2026-09-01 00:14:10 | 49.38001 | 13.25040 | 293° | 4km/h | 25073m | 5.2m/s | -51.3°C | 1.0% | 26.5hPa | 2.7V | 00:00:00 | 00:00:00 | 00:00:00 | |
| BAUMI2-15 | 2026-09-01 00:14:07 | 49.38000 | 13.25042 | 13° | 5km/h | 25052m | 5.5m/s | -51.2°C | 3.8% | 26.6hPa | 2.7V | 03:53:00 | 02:08:31 | 00:00:00 | |
| OE5MMP-10 | 2026-09-01 00:14:06 | 49.37998 | 13.25041 | 14° | 4km/h | 25047m | 4.6m/s | -51.2°C | 3.8% | 26.6hPa | 2.7V | 00:00:00 | 02:08:30 | 00:00:00 | |
| PG1ADW-2 | 2026-09-01 00:14:05 | 49.37997 | 13.25040 | 16° | 5km/h | 25043m | 4.0m/s | -51.2°C | 3.8% | 26.6hPa | 2.6V | 00:00:00 | 00:00:00 | 00:00:00 | |
| SP3BTT-10 | 2026-09-01 00:14:04 | 49.37995 | 13.25040 | 17° | 4km/h | 25038m | 4.9m/s | -51.2°C | 3.7% | 26.6hPa | 2.6V | 00:00:00 | 00:00:00 | 00:00:00 | |
| BAUMI2-15 | 2026-09-01 00:14:02 | 49.37995 | 13.25040 | 190° | 4km/h | 25027m | 5.1m/s | -51.1°C | 3.7% | 26.7hPa | 2.6V | 00:00:00 | 02:08:26 | 00:00:00 | |
| OE5REO-15 | 2026-09-01 00:14:00 | 49.37996 | 13.25040 | 200° | 4km/h | 25023m | 4.5m/s | -51.2°C | 1.0% | 26.7hPa | 2.6V | 03:53:00 | 00:00:00 | 00:00:00 | |
| DM0DOS-11 | 2026-09-01 00:13:59 | 49.37992 | 13.25046 | 285° | 5km/h | 24984m | 5.1m/s | -51.1°C | 3.7% | 26.9hPa | 2.6V | 03:53:31 | 02:08:18 | 00:00:00 | |
| DL6DJ-15 | 2026-09-01 00:13:54 | 49.37991 | 13.25049 | 297° | 5km/h | 24979m | 5.3m/s | -51.1°C | 1.0% | 26.9hPa | 2.6V | 00:00:00 | 00:00:00 | 00:00:00 | |
| S52SK | 2026-09-01 00:13:53 | 49.37992 | 13.25046 | 286° | 5km/h | 24984m | 5.1m/s | -51.1°C | 0.9% | 26.9hPa | 2.6V | 00:00:00 | 00:00:00 | 00:00:00 | |
| BAUMI2-15 | 2026-09-01 00:13:52 | 49.37990 | 13.25051 | 318° | 5km/h | 24973m | 6.3m/s | -51.0°C | 3.7% | 26.9hPa | 2.6V | 00:00:00 | 02:08:16 | 00:00:00 | |
| DM0DOS-11 | 2026-09-01 00:13:49 | 49.37986 | 13.25045 | 66° | 7km/h | 24931m | 5.7m/s | -51°C | 3.6% | 27.1hPa | 2.6V | 03:53:41 | 02:08:08 | 00:00:00 | |
| S52SK | 2026-09-01 00:13:48 | 49.37986 | 13.25052 | 20° | 4km/h | 24958m | 5.1m/s | -51.1°C | 1.0% | 27.0hPa | 2.7V | 00:00:00 | 00:00:00 | 00:00:00 | |
| BAUMI2-15 | 2026-09-01 00:13:47 | 49.37986 | 13.25051 | 123° | 5km/h | 24947m | 5.1m/s | -51.0°C | 3.7% | 27.0hPa | 2.7V | 03:53:00 | 02:08:11 | 00:00:00 | |
| OE5MMP-10 | 2026-09-01 00:13:46 | 49.37986 | 13.25049 | 118° | 5km/h | 24942m | 4.7m/s | -51.0°C | 3.7% | 27.0hPa | 2.7V | 03:53:00 | 02:08:10 | 00:00:00 | |
| PG1ADW-2 | 2026-09-01 00:13:45 | 49.37986 | 13.25047 | 96° | 7km/h | 24937m | 6.0m/s | -51.0°C | 3.7% | 27.0hPa | 2.7V | 00:00:00 | 02:08:09 | 00:00:00 | |
| PETON7-10 | 2026-09-01 00:13:44 | 49.37986 | 13.25045 | 67° | 5km/h | 24931m | 5.6m/s | -50.9°C | 3.6% | 27.1hPa | 2.7V | 00:00:00 | 02:08:08 | 00:00:00 | |
| BAUMI2-15 | 2026-09-01 00:13:42 | 49.37984 | 13.25040 | 32° | 5km/h | 24921m | 4.6m/s | -50.9°C | 3.7% | 27.1hPa | 2.7V | 00:00:00 | 02:08:06 | 00:00:00 | |
| OE3OSB-13 | 2026-09-01 00:13:41 | 49.37983 | 13.25040 | 12° | 2km/h | 24916m | 5.5m/s | -50.9°C | 0.9% | 27.2hPa | 2.7V | 00:00:00 | 00:00:00 | 00:00:00 | |
| BAUMI2-15 | 2026-09-01 00:13:37 | 49.37981 | 13.25047 | 291° | 5km/h | 24894m | 5.9m/s | -50.9°C | 3.7% | 27.2hPa | 2.7V | 00:00:00 | 02:08:01 | 00:00:00 | |
| OE5MMP-10 | 2026-09-01 00:13:36 | 49.37980 | 13.25049 | 316° | 7km/h | 24889m | 5.2m/s | -50.8°C | 3.7% | 27.3hPa | 2.7V | 00:00:00 | 02:08:00 | 00:00:00 | |
| DM0DOS-11 | 2026-09-01 00:13:34 | 49.37976 | 13.25042 | 72° | 7km/h | 24858m | 4.5m/s | -50.9°C | 3.7% | 27.4hPa | 2.6V | 03:53:55 | 02:07:54 | 00:00:00 | |
| SONCRA | 2026-09-01 00:13:34 | 49.37977 | 13.25050 | 58° | 4km/h | 24874m | 5.8m/s | -50.9°C | 0.9% | 27.4hPa | 2.6V | 00:00:00 | 00:00:00 | 00:00:00 | |
| BAUMI2-15 | 2026-09-01 00:13:32 | 49.37977 | 13.25048 | 92° | 13km/h | 24869m | 5.5m/s | -50.8°C | 3.6% | 27.3hPa | 2.6V | 00:00:00 | 02:07:56 | 00:00:00 | |
| SONDE2-11 | 2026-09-01 00:13:31 | 49.37976 | 13.25042 | 72° | 7km/h | 24859m | 4.5m/s | -50.9°C | 1.0% | 27.4hPa | 2.6V | 00:00:00 | 00:00:00 | 00:00:00 | |
| OE5REO-15 | 2026-09-01 00:13:30 | 49.37976 | 13.25042 | 73° | 7km/h | 24859m | 4.5m/s | -50.9°C | 1.0% | 27.4hPa | 2.6V | 03:54:00 | 00:00:00 | 00:00:00 | |
| PETON7-10 | 2026-09-01 00:13:29 | 49.37975 | 13.25040 | 46° | 9km/h | 24853m | 6.1m/s | -50.8°C | 3.7% | 27.4hPa | 2.6V | 03:53:00 | 00:00:00 | 00:00:00 | |
| DL1JEZ-13 | 2026-09-01 00:13:27 | 49.37970 | 13.25035 | 19° | 15km/h | 24842m | 4.8m/s | -50.9°C | 1.0% | 27.5hPa | 2.6V | 00:00:00 | 00:00:00 | 00:00:00 | |
| OE5MMP-10 | 2026-09-01 00:13:26 | 49.37967 | 13.25034 | 15° | 7km/h | 24837m | 5.2m/s | -50.8°C | 3.6% | 27.5hPa | 2.6V | 00:00:00 | 02:07:50 | 00:00:00 | |
| PG1ADW-2 | 2026-09-01 00:13:25 | 49.37964 | 13.25032 | 12° | 11km/h | 24831m | 6.0m/s | -50.8°C | 3.6% | 27.5hPa | 2.6V | 00:00:00 | 00:00:00 | 00:00:00 | |
| DL6DJ-15 | 2026-09-01 00:13:23 | 49.37958 | 13.25031 | 5° | 5km/h | 24817m | 5.1m/s | -50.8°C | 0.9% | 27.6hPa | 2.6V | 00:00:00 | 00:00:00 | 00:00:00 | |
| DM0DOS-11 | 2026-09-01 00:13:21 | 49.37955 | 13.25031 | 0° | 9km/h | 24805m | 5.3m/s | -50.9°C | 3.6% | 27.7hPa | 2.6V | 03:54:05 | 02:07:44 | 00:00:00 | |
| OE5MMP-10 | 2026-09-01 00:13:16 | 49.37949 | 13.25025 | 86° | 16km/h | 24785m | 5.3m/s | -50.9°C | 3.7% | 27.7hPa | 2.6V | 00:00:00 | 02:07:40 | 00:00:00 | |
| DM0DOS-11 | 2026-09-01 00:13:14 | 49.37932 | 13.24997 | 30° | 22km/h | 24754m | 5.1m/s | -51°C | 3.7% | 27.9hPa | 2.6V | 03:54:15 | 02:07:34 | 00:00:00 | |
| PETON7-10 | 2026-09-01 00:13:14 | 49.37947 | 13.25016 | 63° | 16km/h | 24774m | 5.1m/s | -51.0°C | 3.8% | 27.8hPa | 2.7V | 00:00:00 | 00:00:00 | 00:00:00 | |
| OE5REO-15 | 2026-09-01 00:13:13 | 49.37947 | 13.25016 | 63° | 13km/h | 24774m | 5.1m/s | -51.0°C | 1.0% | 27.8hPa | 2.7V | 03:54:00 | 00:00:00 | 00:00:00 | |
| OE3OSB-13 | 2026-09-01 00:13:10 | 49.37928 | 13.24993 | 31° | 18km/h | 24749m | 5.7m/s | -51.0°C | 0.9% | 27.9hPa | 2.7V | 00:00:00 | 00:00:00 | 00:00:00 | |
| OE5MMP-10 | 2026-09-01 00:13:06 | 49.37918 | 13.24984 | 15° | 15km/h | 24734m | 4.5m/s | -50.9°C | 3.7% | 27.9hPa | 2.7V | 03:54:00 | 02:07:30 | 00:00:00 | |
| PG1ADW-2 | 2026-09-01 00:13:04 | 49.37911 | 13.24984 | 351° | 18km/h | 24722m | 5.7m/s | -50.9°C | 3.7% | 28.0hPa | 2.7V | 03:54:00 | 00:00:00 | 00:00:00 | |
| SONCRA | 2026-09-01 00:13:03 | 49.37903 | 13.24986 | 357° | 15km/h | 24713m | 4.7m/s | -51.0°C | 1.0% | 28.1hPa | 2.7V | 00:00:00 | 00:00:00 | 00:00:00 | |
| SONDE2-11 | 2026-09-01 00:13:00 | 49.37894 | 13.24981 | 37° | 15km/h | 24696m | 4.5m/s | -51.0°C | 0.9% | 28.1hPa | 2.7V | 00:00:00 | 00:00:00 | 00:00:00 | |
| OE5REO-15 | 2026-09-01 00:12:59 | 49.37894 | 13.24981 | 39° | 15km/h | 24696m | 4.5m/s | -51.0°C | 0.9% | 28.1hPa | 2.7V | 03:55:00 | 00:00:00 | 00:00:00 | |
| DM0DOS-11 | 2026-09-01 00:12:57 | 49.37859 | 13.24960 | 0° | 16km/h | 24660m | 4.9m/s | -51°C | 3.7% | 0hPa | 2.7V | 03:54:33 | 02:07:16 | 00:00:00 | |
| DL6DJ-15 | 2026-09-01 00:12:52 | 49.37855 | 13.24961 | 346° | 15km/h | 24655m | 4.4m/s | -51.0°C | 0.9% | 28.3hPa | 2.6V | 00:00:00 | 00:00:00 | 00:00:00 | |
| EDDB2-12 | 2026-09-01 00:12:45 | 49.37826 | 13.24974 | 7° | 13km/h | 24620m | 5.0m/s | -51.2°C | 1.0% | 28.5hPa | 2.6V | 00:00:00 | 00:00:00 | 00:00:00 | |
| PETON7-10 | 2026-09-01 00:12:44 | 49.37826 | 13.24974 | 8° | 20km/h | 24620m | 4.9m/s | -51.1°C | 3.7% | 28.4hPa | 2.6V | 00:00:00 | 00:00:00 | 00:00:00 | |
| OE5REO-15 | 2026-09-01 00:12:43 | 49.37823 | 13.24973 | 6° | 15km/h | 24615m | 4.4m/s | -51.3°C | 1.0% | 28.5hPa | 2.7V | 03:55:00 | 00:00:00 | 00:00:00 | |
| DM0DOS-11 | 2026-09-01 00:12:40 | 49.37792 | 13.24987 | 334° | 20km/h | 24583m | 5.9m/s | -51.2°C | 3.7% | 0hPa | 2.7V | 03:54:48 | 02:07:01 | 00:00:00 | |
| OE3OSB-13 | 2026-09-01 00:12:39 | 49.37797 | 13.24983 | 335° | 22km/h | 24589m | 5.4m/s | -51.3°C | 1.0% | 28.6hPa | 2.7V | 00:00:00 | 00:00:00 | 00:00:00 | |
| OE5DRO-10 | 2026-09-01 00:12:38 | 49.37787 | 13.24990 | 335° | 24km/h | 24578m | 4.9m/s | -51.2°C | 3.7% | 28.6hPa | 2.7V | 00:00:00 | 00:00:00 | 00:00:00 | |
| OE5MMP-10 | 2026-09-01 00:12:36 | 49.37787 | 13.24990 | 335° | 18km/h | 24578m | 4.9m/s | -51.2°C | 3.7% | 28.6hPa | 2.7V | 00:00:00 | 02:07:00 | 00:00:00 | |
| SONCRA | 2026-09-01 00:12:32 | 49.37765 | 13.25000 | 350° | 20km/h | 24552m | 4.4m/s | -51.3°C | 1.0% | 28.8hPa | 2.6V | 00:00:00 | 00:00:00 | 00:00:00 | |
| DM0DOS-11 | 2026-09-01 00:12:29 | 49.37731 | 13.25020 | 324° | 29km/h | 24514m | 5.3m/s | -51.3°C | 3.7% | 0hPa | 2.6V | 03:55:01 | 02:06:48 | 00:00:00 | |
| SONDE2-11 | 2026-09-01 00:12:29 | 49.37751 | 13.25004 | 344° | 15km/h | 24536m | 4.9m/s | -51.3°C | 1.0% | 28.9hPa | 2.6V | 00:00:00 | 00:00:00 | 00:00:00 | |
| OE5REO-15 | 2026-09-01 00:12:28 | 49.37751 | 13.25004 | 346° | 16km/h | 24536m | 4.9m/s | -51.3°C | 1.0% | 28.9hPa | 2.6V | 03:55:00 | 00:00:00 | 00:00:00 | |
| OE5MMP-10 | 2026-09-01 00:12:26 | 49.37742 | 13.25010 | 335° | 27km/h | 24526m | 6.0m/s | -51.3°C | 3.8% | 28.8hPa | 2.6V | 03:54:00 | 02:06:50 | 00:00:00 | |
| DL6DJ-15 | 2026-09-01 00:12:21 | 49.37711 | 13.25050 | 311° | 26km/h | 24493m | 4.4m/s | -51.3°C | 1.0% | 29.0hPa | 2.6V | 00:00:00 | 00:00:00 | 00:00:00 | |
| DM0DOS-11 | 2026-09-01 00:12:18 | 49.37677 | 13.25082 | 339° | 16km/h | 24454m | 4.6m/s | -51.4°C | 3.7% | 0hPa | 2.6V | 03:55:12 | 02:06:37 | 00:00:00 | |
| OE5MMP-10 | 2026-09-01 00:12:16 | 49.37690 | 13.25073 | 335° | 22km/h | 24471m | 5.1m/s | -51.3°C | 3.7% | 29.1hPa | 2.7V | 00:00:00 | 02:06:40 | 00:00:00 | |
| EDDB2-12 | 2026-09-01 00:12:14 | 49.37677 | 13.25082 | 339° | 15km/h | 24455m | 4.6m/s | -51.4°C | 1.0% | 29.2hPa | 2.7V | 00:00:00 | 00:00:00 | 00:00:00 | |
| EDDB2-11 | 2026-09-01 00:12:12 | 49.37673 | 13.25084 | 338° | 18km/h | 24450m | 5.4m/s | -51.4°C | 1.0% | 29.2hPa | 2.7V | 00:00:00 | 00:00:00 | 00:00:00 | |
| PG1ADW-2 | 2026-09-01 00:12:11 | 49.37669 | 13.25087 | 338° | 29km/h | 24444m | 6.1m/s | -51.4°C | 3.7% | 29.2hPa | 2.7V | 00:00:00 | 02:06:35 | 00:00:00 | |
| OE3OSB-13 | 2026-09-01 00:12:08 | 49.37646 | 13.25109 | 318° | 26km/h | 24422m | 5.5m/s | -51.5°C | 1.0% | 29.4hPa | 2.7V | 00:00:00 | 00:00:00 | 00:00:00 | |
| OE5MMP-10 | 2026-09-01 00:12:06 | 49.37641 | 13.25116 | 319° | 27km/h | 24418m | 4.4m/s | -51.4°C | 3.8% | 29.3hPa | 2.7V | 00:00:00 | 02:06:30 | 00:00:00 | |
| SONCRA | 2026-09-01 00:12:01 | 49.37601 | 13.25142 | 351° | 26km/h | 24387m | 6.1m/s | -51.6°C | 1.0% | 29.6hPa | 2.6V | 00:00:00 | 00:00:00 | 00:00:00 | |
| DM0DOS-11 | 2026-09-01 00:12:00 | 49.37595 | 13.25144 | 350° | 22km/h | 24381m | 5.3m/s | -51.6°C | 3.8% | 0hPa | 2.6V | 03:55:26 | 02:06:23 | 00:00:00 | |
| DL6DJ-15 | 2026-09-01 00:11:50 | 49.37537 | 13.25209 | 314° | 33km/h | 24328m | 6.3m/s | -51.5°C | 1.0% | 29.8hPa | 2.6V | 00:00:00 | 00:00:00 | 00:00:00 | |
| PG1ADW-2 | 2026-09-01 00:11:47 | 49.37525 | 13.25227 | 321° | 31km/h | 24317m | 4.7m/s | -51.4°C | 3.7% | 29.8hPa | 2.6V | 00:00:00 | 00:00:00 | 00:00:00 | |
| OE5MMP-10 | 2026-09-01 00:11:46 | 49.37519 | 13.25234 | 323° | 31km/h | 24312m | 5.7m/s | -51.3°C | 3.7% | 29.8hPa | 2.6V | 03:55:00 | 02:06:10 | 00:00:00 | |
| PETON7-10 | 2026-09-01 00:11:44 | 49.37508 | 13.25245 | 327° | 33km/h | 24300m | 4.9m/s | -51.3°C | 3.7% | 29.9hPa | 2.6V | 00:00:00 | 00:00:00 | 00:00:00 | |
| EDDB2-12 | 2026-09-01 00:11:43 | 49.37498 | 13.25256 | 322° | 26km/h | 24290m | 5.9m/s | -51.2°C | 1.0% | 30.0hPa | 2.6V | 00:00:00 | 00:00:00 | 00:00:00 | |
| EDDB2-11 | 2026-09-01 00:11:41 | 49.37493 | 13.25263 | 317° | 29km/h | 24284m | 5.3m/s | -51.2°C | 1.0% | 30.0hPa | 2.6V | 00:00:00 | 00:00:00 | 00:00:00 | |
| DM0DOS-11 | 2026-09-01 00:11:40 | 49.37476 | 13.25294 | 300° | 37km/h | 24268m | 6.5m/s | -51.2°C | 3.6% | 0hPa | 2.6V | 03:55:47 | 02:06:02 | 00:00:00 | |
| OE5DRO-10 | 2026-09-01 00:11:38 | 49.37476 | 13.25294 | 301° | 31km/h | 24268m | 6.4m/s | -51.2°C | 3.6% | 30.0hPa | 2.7V | 00:00:00 | 00:00:00 | 00:00:00 | |
| OE3OSB-13 | 2026-09-01 00:11:37 | 49.37468 | 13.25320 | 297° | 38km/h | 24258m | 4.3m/s | -51.4°C | 0.9% | 30.1hPa | 2.7V | 00:00:00 | 00:00:00 | 00:00:00 | |
| OE5MMP-10 | 2026-09-01 00:11:36 | 49.37468 | 13.25320 | 298° | 31km/h | 24258m | 4.3m/s | -51.3°C | 3.6% | 30.1hPa | 2.7V | 00:00:00 | 02:06:00 | 00:00:00 | |
| DM0DOS-11 | 2026-09-01 00:11:30 | 49.37422 | 13.25388 | 332° | 20km/h | 24216m | 4.4m/s | -51.5°C | 3.7% | 0hPa | 2.6V | 03:55:57 | 02:05:52 | 00:00:00 | |
| SP3BTT-10 | 2026-09-01 00:11:30 | 49.37431 | 13.25380 | 329° | 20km/h | 24227m | 5.9m/s | -51.5°C | 3.8% | 30.2hPa | 2.6V | 00:00:00 | 00:00:00 | 00:00:00 | |
| PETON7-10 | 2026-09-01 00:11:29 | 49.37426 | 13.25385 | 333° | 29km/h | 24221m | 5.0m/s | -51.5°C | 3.8% | 30.2hPa | 2.6V | 03:55:00 | 02:05:53 | 00:00:00 | |
| SONDE2-11 | 2026-09-01 00:11:27 | 49.37412 | 13.25397 | 325° | 24km/h | 24206m | 5.2m/s | -51.6°C | 1.0% | 30.4hPa | 2.6V | 00:00:00 | 00:00:00 | 00:00:00 | |
| OE5MMP-10 | 2026-09-01 00:11:26 | 49.37412 | 13.25397 | 326° | 33km/h | 24206m | 5.1m/s | -51.5°C | 3.7% | 30.3hPa | 2.6V | 00:00:00 | 02:05:50 | 00:00:00 | |
| OE5REO-15 | 2026-09-01 00:11:25 | 49.37412 | 13.25397 | 326° | 24km/h | 24206m | 5.2m/s | -51.6°C | 1.0% | 30.4hPa | 2.6V | 03:56:00 | 00:00:00 | 00:00:00 | |
| BAUMI2-15 | 2026-09-01 00:11:23 | 49.37397 | 13.25420 | 304° | 35km/h | 24192m | 5.9m/s | -51.6°C | 3.7% | 30.4hPa | 2.6V | 03:56:00 | 02:05:47 | 00:00:00 | |
| DM0DOS-11 | 2026-09-01 00:11:20 | 49.37378 | 13.25480 | 299° | 37km/h | 24165m | 4.8m/s | -51.6°C | 3.7% | 0hPa | 2.6V | 03:56:07 | 02:05:42 | 00:00:00 | |
| OE5DRO-10 | 2026-09-01 00:11:19 | 49.37382 | 13.25467 | 298° | 26km/h | 24171m | 5.9m/s | -51.6°C | 3.7% | 30.5hPa | 2.6V | 00:00:00 | 00:00:00 | 00:00:00 | |
| BAUMI2-15 | 2026-09-01 00:11:18 | 49.37378 | 13.25480 | 300° | 29km/h | 24165m | 4.8m/s | -51.6°C | 3.7% | 30.5hPa | 2.6V | 00:00:00 | 02:05:42 | 00:00:00 | |
| OE5MMP-10 | 2026-09-01 00:11:16 | 49.37370 | 13.25502 | 297° | 24km/h | 24155m | 6.1m/s | -51.7°C | 3.8% | 30.6hPa | 2.6V | 00:00:00 | 02:05:40 | 00:00:00 | |
| PETON7-10 | 2026-09-01 00:11:14 | 49.37365 | 13.25520 | 291° | 22km/h | 24144m | 4.8m/s | -51.8°C | 3.8% | 30.6hPa | 2.6V | 00:00:00 | 00:00:00 | 00:00:00 | |
| BAUMI2-15 | 2026-09-01 00:11:13 | 49.37363 | 13.25527 | 293° | 24km/h | 24139m | 5.4m/s | -51.9°C | 3.8% | 30.7hPa | 2.6V | 00:00:00 | 02:05:37 | 00:00:00 | |
| EDDB2-12 | 2026-09-01 00:11:12 | 49.37359 | 13.25543 | 295° | 22km/h | 24128m | 4.7m/s | -51.9°C | 1.0% | 30.7hPa | 2.6V | 00:00:00 | 00:00:00 | 00:00:00 | |
| OE5REO-15 | 2026-09-01 00:11:10 | 49.37356 | 13.25551 | 293° | 24km/h | 24124m | 4.3m/s | -52.0°C | 1.0% | 30.8hPa | 2.6V | 03:56:00 | 00:00:00 | 00:00:00 | |
| BAUMI2-15 | 2026-09-01 00:11:08 | 49.37353 | 13.25569 | 279° | 26km/h | 24113m | 6.1m/s | -52.0°C | 3.8% | 30.8hPa | 2.6V | 00:00:00 | 02:05:32 | 00:00:00 | |
| PG1ADW-2 | 2026-09-01 00:11:07 | 49.37352 | 13.25579 | 278° | 22km/h | 24107m | 4.7m/s | -52.0°C | 3.9% | 30.8hPa | 2.7V | 00:00:00 | 00:00:00 | 00:00:00 | |
| OE3OSB-13 | 2026-09-01 00:11:06 | 49.37349 | 13.25598 | 289° | 24km/h | 24097m | 6.1m/s | -52.2°C | 1.0% | 30.9hPa | 2.6V | 00:00:00 | 00:00:00 | 00:00:00 | |
| BAUMI2-15 | 2026-09-01 00:11:03 | 49.37344 | 13.25614 | 304° | 18km/h | 24087m | 4.0m/s | -52.1°C | 3.9% | 30.9hPa | 2.6V | 03:56:00 | 02:05:27 | 00:00:00 | |
| SONCRA | 2026-09-01 00:10:58 | 49.37337 | 13.25648 | 275° | 18km/h | 24062m | 4.6m/s | -52.2°C | 1.0% | 31.1hPa | 2.6V | 00:00:00 | 00:00:00 | 00:00:00 | |
| SONDE2-11 | 2026-09-01 00:10:56 | 49.37331 | 13.25673 | 299° | 26km/h | 24046m | 5.0m/s | -52.2°C | 1.1% | 31.1hPa | 2.6V | 00:00:00 | 00:00:00 | 00:00:00 | |
| DM0DOS-11 | 2026-09-01 00:10:55 | 49.37317 | 13.25714 | 298° | 20km/h | 24020m | 4.7m/s | -52.3°C | 3.8% | 0hPa | 2.6V | 03:56:35 | 02:05:14 | 00:00:00 | |
| OE5REO-15 | 2026-09-01 00:10:54 | 49.37331 | 13.25673 | 300° | 26km/h | 24046m | 5.0m/s | -52.2°C | 1.1% | 31.1hPa | 2.6V | 03:56:00 | 00:00:00 | 00:00:00 | |
| BAUMI2-15 | 2026-09-01 00:10:53 | 49.37325 | 13.25690 | 299° | 22km/h | 24036m | 5.8m/s | -52.2°C | 3.9% | 31.1hPa | 2.6V | 00:00:00 | 02:05:17 | 00:00:00 | |
| BAUMI2-15 | 2026-09-01 00:10:48 | 49.37312 | 13.25725 | 313° | 13km/h | 24009m | 5.2m/s | -52.3°C | 3.8% | 31.3hPa | 2.6V | 00:00:00 | 02:05:12 | 00:00:00 | |
| PG1ADW-2 | 2026-09-01 00:10:47 | 49.37309 | 13.25730 | 315° | 16km/h | 24005m | 4.5m/s | -52.3°C | 3.9% | 31.3hPa | 2.6V | 00:00:00 | 02:05:11 | 00:00:00 | |
| OE5MMP-10 | 2026-09-01 00:10:46 | 49.37307 | 13.25734 | 307° | 16km/h | 24000m | 4.1m/s | -52.3°C | 3.9% | 31.3hPa | 2.6V | 00:00:00 | 02:05:10 | 00:00:00 | |
| PETON7-10 | 2026-09-01 00:10:44 | 49.37305 | 13.25742 | 267° | 18km/h | 23989m | 5.7m/s | -52.3°C | 3.9% | 31.3hPa | 2.6V | 00:00:00 | 02:05:08 | 00:00:00 | |
| BAUMI2-15 | 2026-09-01 00:10:43 | 49.37305 | 13.25746 | 262° | 16km/h | 23984m | 4.1m/s | -52.3°C | 3.9% | 31.4hPa | 2.6V | 03:56:00 | 02:05:07 | 00:00:00 | |
| EDDB2-12 | 2026-09-01 00:10:41 | 49.37304 | 13.25764 | 292° | 18km/h | 23969m | 5.0m/s | -52.4°C | 1.0% | 31.5hPa | 2.6V | 00:00:00 | 00:00:00 | 00:00:00 | |
| EDDB2-11 | 2026-09-01 00:10:39 | 49.37302 | 13.25771 | 293° | 20km/h | 23964m | 4.8m/s | -52.3°C | 1.0% | 31.5hPa | 2.6V | 00:00:00 | 00:00:00 | 00:00:00 | |
| DM0DOS-11 | 2026-09-01 00:10:39 | 49.37297 | 13.25787 | 292° | 22km/h | 23952m | 5.2m/s | -52.3°C | 0% | 0hPa | 2.6V | 03:56:48 | 02:05:01 | 00:00:00 | |
| BAUMI2-15 | 2026-09-01 00:10:38 | 49.37299 | 13.25779 | 292° | 22km/h | 23958m | 6.0m/s | -52.3°C | 3.9% | 31.5hPa | 2.6V | 00:00:00 | 02:05:02 | 00:00:00 | |
| OE5MMP-10 | 2026-09-01 00:10:36 | 49.37295 | 13.25795 | 296° | 20km/h | 23948m | 4.5m/s | -52.3°C | 3.9% | 31.6hPa | 2.7V | 00:00:00 | 02:05:00 | 00:00:00 | |
| OE3OSB-13 | 2026-09-01 00:10:35 | 49.37289 | 13.25810 | 309° | 22km/h | 23937m | 6.1m/s | -52.3°C | 1.1% | 31.7hPa | 2.6V | 00:00:00 | 00:00:00 | 00:00:00 | |
| BAUMI2-15 | 2026-09-01 00:10:33 | 49.37285 | 13.25816 | 315° | 16km/h | 23932m | 4.7m/s | -52.3°C | 3.9% | 31.6hPa | 2.6V | 00:00:00 | 02:04:57 | 00:00:00 | |
| DM0DOS-11 | 2026-09-01 00:10:30 | 49.37288 | 13.25850 | 243° | 26km/h | 23904m | 3.7m/s | -52.3°C | 0% | 0hPa | 2.6V | 03:56:58 | 02:04:51 | 00:00:00 | |
| SP3BTT-10 | 2026-09-01 00:10:30 | 49.37280 | 13.25830 | 260° | 22km/h | 23919m | 6.1m/s | -52.2°C | 3.9% | 31.7hPa | 2.7V | 00:00:00 | 00:00:00 | 00:00:00 | |
| PETON7-10 | 2026-09-01 00:10:29 | 49.37282 | 13.25835 | 237° | 24km/h | 23913m | 5.5m/s | -52.2°C | 3.8% | 31.7hPa | 2.7V | 03:56:00 | 00:00:00 | 00:00:00 | |
| BAUMI2-15 | 2026-09-01 00:10:28 | 49.37284 | 13.25842 | 236° | 27km/h | 23908m | 3.8m/s | -52.2°C | 3.8% | 31.8hPa | 2.7V | 00:00:00 | 02:04:52 | 00:00:00 | |
| PG1ADW-2 | 2026-09-01 00:10:27 | 49.37288 | 13.25849 | 244° | 22km/h | 23904m | 3.6m/s | -52.2°C | 3.8% | 31.8hPa | 2.7V | 00:00:00 | 00:00:00 | 00:00:00 | |
| OE5MMP-10 | 2026-09-01 00:10:26 | 49.37290 | 13.25859 | 257° | 26km/h | 23900m | 5.1m/s | -52.3°C | 3.8% | 31.8hPa | 2.7V | 03:56:00 | 02:04:50 | 00:00:00 | |
| S52SK | 2026-09-01 00:10:25 | 49.37290 | 13.25869 | 276° | 27km/h | 23894m | 5.5m/s | -52.3°C | 1.0% | 31.9hPa | 2.7V | 00:00:00 | 00:00:00 | 00:00:00 | |
| BAUMI2-15 | 2026-09-01 00:10:23 | 49.37285 | 13.25891 | 304° | 27km/h | 23884m | 4.9m/s | -52.3°C | 3.9% | 31.9hPa | 2.7V | 03:57:00 | 02:04:47 | 00:00:00 | |
| OE5DRO-10 | 2026-09-01 00:10:22 | 49.37280 | 13.25901 | 312° | 22km/h | 23879m | 4.5m/s | -52.3°C | 3.9% | 31.9hPa | 2.6V | 00:00:00 | 00:00:00 | 00:00:00 | |
| S52SK | 2026-09-01 00:10:19 | 49.37270 | 13.25918 | 312° | 24km/h | 23869m | 5.3m/s | -52.4°C | 1.1% | 32.0hPa | 2.7V | 00:00:00 | 00:00:00 | 00:00:00 | |
| BAUMI2-15 | 2026-09-01 00:10:18 | 49.37265 | 13.25930 | 284° | 18km/h | 23859m | 4.5m/s | -52.5°C | 4.0% | 32.0hPa | 2.7V | 00:00:00 | 02:04:42 | 00:00:00 | |
| OE5MMP-10 | 2026-09-01 00:10:16 | 49.37264 | 13.25943 | 269° | 20km/h | 23848m | 5.7m/s | -52.5°C | 4.1% | 32.1hPa | 2.7V | 00:00:00 | 02:04:40 | 00:00:00 | |
| PETON7-10 | 2026-09-01 00:10:14 | 49.37264 | 13.25959 | 278° | 20km/h | 23838m | 4.5m/s | -52.5°C | 4.0% | 32.1hPa | 2.7V | 00:00:00 | 00:00:00 | 00:00:00 | |
| BAUMI2-15 | 2026-09-01 00:10:13 | 49.37263 | 13.25967 | 282° | 18km/h | 23833m | 4.6m/s | -52.5°C | 4.0% | 32.1hPa | 2.7V | 00:00:00 | 02:04:37 | 00:00:00 | |
| EDDB2-12 | 2026-09-01 00:10:10 | 49.37257 | 13.25993 | 297° | 16km/h | 23813m | 4.2m/s | -52.5°C | 1.1% | 32.3hPa | 2.7V | 00:00:00 | 00:00:00 | 00:00:00 | |
| BAUMI2-15 | 2026-09-01 00:10:08 | 49.37255 | 13.25999 | 299° | 24km/h | 23809m | 5.2m/s | -52.4°C | 4.0% | 32.3hPa | 2.7V | 00:00:00 | 02:04:32 | 00:00:00 | |
| PG1ADW-2 | 2026-09-01 00:10:07 | 49.37252 | 13.26007 | 298° | 24km/h | 23803m | 6.1m/s | -52.4°C | 4.0% | 32.3hPa | 2.6V | 03:57:00 | 00:00:00 | 00:00:00 | |
| OE5MMP-10 | 2026-09-01 00:10:06 | 49.37249 | 13.26016 | 297° | 22km/h | 23797m | 5.2m/s | -52.3°C | 4.0% | 32.3hPa | 2.6V | 00:00:00 | 02:04:30 | 00:00:00 | |
| OE3OSB-13 | 2026-09-01 00:10:04 | 49.37242 | 13.26041 | 286° | 18km/h | 23780m | 5.2m/s | -52.2°C | 1.0% | 32.4hPa | 2.7V | 00:00:00 | 00:00:00 | 00:00:00 | |
| BAUMI2-15 | 2026-09-01 00:10:03 | 49.37242 | 13.26041 | 287° | 20km/h | 23780m | 5.1m/s | -52.2°C | 3.9% | 32.4hPa | 2.7V | 03:57:00 | 02:04:27 | 00:00:00 | |
| SONCRA | 2026-09-01 00:09:56 | 49.37240 | 13.26101 | 265° | 24km/h | 23746m | 5.5m/s | -51.9°C | 1.0% | 32.6hPa | 2.7V | 00:00:00 | 00:00:00 | 00:00:00 | |
| SONDE2-11 | 2026-09-01 00:09:54 | 49.37242 | 13.26127 | 268° | 22km/h | 23731m | 4.2m/s | -51.8°C | 1.0% | 32.7hPa | 2.7V | 00:00:00 | 00:00:00 | 00:00:00 | |
| BAUMI2-15 | 2026-09-01 00:09:53 | 49.37242 | 13.26127 | 269° | 26km/h | 23732m | 4.2m/s | -51.8°C | 3.8% | 32.6hPa | 2.7V | 00:00:00 | 02:04:17 | 00:00:00 | |
| OE5REO-15 | 2026-09-01 00:09:50 | 49.37240 | 13.26146 | 283° | 27km/h | 23721m | 5.1m/s | -51.7°C | 1.0% | 32.8hPa | 2.7V | 00:00:00 | 00:00:00 | 00:00:00 | |
| BAUMI2-15 | 2026-09-01 00:09:48 | 49.37235 | 13.26174 | 286° | 20km/h | 23707m | 6.0m/s | -51.7°C | 3.8% | 32.8hPa | 2.7V | 00:00:00 | 02:04:12 | 00:00:00 | |
| PG1ADW-2 | 2026-09-01 00:09:47 | 49.37234 | 13.26181 | 284° | 20km/h | 23702m | 5.0m/s | -51.7°C | 3.9% | 32.8hPa | 2.7V | 00:00:00 | 00:00:00 | 00:00:00 | |
| OE5MMP-10 | 2026-09-01 00:09:46 | 49.37233 | 13.26188 | 283° | 22km/h | 23697m | 4.3m/s | -51.7°C | 3.9% | 32.8hPa | 2.7V | 03:57:00 | 02:04:10 | 00:00:00 | |
| SP3BTT-10 | 2026-09-01 00:09:45 | 49.37232 | 13.26195 | 283° | 15km/h | 23692m | 5.7m/s | -51.7°C | 3.8% | 32.9hPa | 2.7V | 00:00:00 | 00:00:00 | 00:00:00 | |
| PETON7-10 | 2026-09-01 00:09:44 | 49.37231 | 13.26203 | 282° | 22km/h | 23686m | 5.7m/s | -51.8°C | 3.8% | 32.9hPa | 2.7V | 00:00:00 | 00:00:00 | 00:00:00 | |
| BAUMI2-15 | 2026-09-01 00:09:43 | 49.37230 | 13.26212 | 278° | 22km/h | 23681m | 4.5m/s | -51.8°C | 3.9% | 32.9hPa | 2.7V | 03:57:00 | 02:04:07 | 00:00:00 | |
| BAUMI2-15 | 2026-09-01 00:09:39 | 49.37235 | 13.26253 | 248° | 26km/h | 23655m | 4.8m/s | -51.8°C | 3.8% | 33.0hPa | 2.7V | 00:00:00 | 02:04:02 | 00:00:00 | |
| EDDB2-11 | 2026-09-01 00:09:37 | 49.37237 | 13.26262 | 251° | 24km/h | 23649m | 6.0m/s | -51.9°C | 1.0% | 33.1hPa | 2.7V | 00:00:00 | 00:00:00 | 00:00:00 | |
| OE5MMP-10 | 2026-09-01 00:09:36 | 49.37239 | 13.26272 | 261° | 18km/h | 23644m | 4.9m/s | -51.8°C | 3.8% | 33.1hPa | 2.7V | 00:00:00 | 02:04:00 | 00:00:00 | |
| OE5REO-15 | 2026-09-01 00:09:35 | 49.37240 | 13.26282 | 266° | 27km/h | 23639m | 4.1m/s | -51.8°C | 1.0% | 33.2hPa | 2.7V | 03:58:00 | 00:00:00 | 00:00:00 | |
| BAUMI2-15 | 2026-09-01 00:09:33 | 49.37240 | 13.26301 | 271° | 16km/h | 23630m | 5.6m/s | -51.7°C | 3.7% | 33.1hPa | 2.7V | 00:00:00 | 02:03:57 | 00:00:00 | |
| OE5DXL-15 | 2026-09-01 00:09:32 | 49.37240 | 13.26319 | 266° | 15km/h | 23614m | 4.7m/s | -51.6°C | 3.8% | 33.3hPa | 2.7V | 00:00:00 | 00:00:00 | 00:00:00 | |
| PETON7-10 | 2026-09-01 00:09:29 | 49.37240 | 13.26324 | 268° | 13km/h | 23609m | 5.8m/s | -51.6°C | 3.8% | 33.3hPa | 2.7V | 03:57:00 | 00:00:00 | 00:00:00 | |
| PG1ADW-2 | 2026-09-01 00:09:27 | 49.37242 | 13.26335 | 255° | 13km/h | 23600m | 3.8m/s | -51.6°C | 3.8% | 33.3hPa | 2.7V | 00:00:00 | 02:03:51 | 00:00:00 | |
| OE5MMP-10 | 2026-09-01 00:09:26 | 49.37243 | 13.26340 | 243° | 13km/h | 23595m | 4.5m/s | -51.5°C | 3.8% | 33.3hPa | 2.7V | 00:00:00 | 02:03:50 | 00:00:00 | |
| OE5DRO-10 | 2026-09-01 00:09:25 | 49.37244 | 13.26344 | 233° | 13km/h | 23590m | 5.8m/s | -51.5°C | 3.7% | 33.4hPa | 2.7V | 00:00:00 | 00:00:00 | 00:00:00 | |
| SONDE2-11 | 2026-09-01 00:09:22 | 49.37251 | 13.26354 | 233° | 13km/h | 23575m | 4.7m/s | -51.6°C | 1.0% | 33.5hPa | 2.6V | 00:00:00 | 00:00:00 | 00:00:00 | |
| OE5REO-15 | 2026-09-01 00:09:20 | 49.37253 | 13.26364 | 261° | 18km/h | 23566m | 4.4m/s | -51.7°C | 1.0% | 33.5hPa | 2.6V | 03:58:00 | 00:00:00 | 00:00:00 | |
| OE5MMP-10 | 2026-09-01 00:09:15 | 49.37255 | 13.26392 | 262° | 11km/h | 23542m | 5.0m/s | -51.8°C | 3.9% | 33.6hPa | 2.6V | 00:00:00 | 02:03:39 | 00:00:00 | |
| PETON7-10 | 2026-09-01 00:09:14 | 49.37256 | 13.26395 | 256° | 11km/h | 23536m | 5.3m/s | -51.8°C | 3.9% | 33.6hPa | 2.6V | 00:00:00 | 02:03:38 | 00:00:00 | |
| PG1ADW-2 | 2026-09-01 00:09:07 | 49.37273 | 13.26394 | 190° | 15km/h | 23503m | 5.3m/s | -51.7°C | 3.8% | 33.8hPa | 2.6V | 00:00:00 | 00:00:00 | 00:00:00 | |
| EDDB2-11 | 2026-09-01 00:09:06 | 49.37277 | 13.26398 | 241° | 7km/h | 23492m | 4.8m/s | -51.7°C | 1.0% | 33.9hPa | 2.7V | 00:00:00 | 00:00:00 | 00:00:00 | |
| OE5MMP-10 | 2026-09-01 00:09:05 | 49.37277 | 13.26398 | 242° | 9km/h | 23492m | 4.7m/s | -51.6°C | 3.8% | 33.9hPa | 2.7V | 03:58:00 | 02:03:29 | 00:00:00 | |
| OE5REO-15 | 2026-09-01 00:09:03 | 49.37278 | 13.26404 | 291° | 7km/h | 23482m | 4.6m/s | -51.6°C | 1.0% | 34.0hPa | 2.7V | 03:58:00 | 00:00:00 | 00:00:00 | |
| DL1JEZ-13 | 2026-09-01 00:09:02 | 49.37278 | 13.26404 | 291° | 7km/h | 23482m | 4.6m/s | -51.6°C | 1.0% | 34.0hPa | 2.7V | 03:58:00 | 00:00:00 | 00:00:00 | |
| OE3OSB-13 | 2026-09-01 00:09:01 | 49.37275 | 13.26410 | 305° | 11km/h | 23474m | 4.6m/s | -51.6°C | 1.0% | 34.0hPa | 2.7V | 00:00:00 | 00:00:00 | 00:00:00 | |
| SONCRA | 2026-09-01 00:08:54 | 49.37285 | 13.26426 | 187° | 16km/h | 23442m | 3.5m/s | -51.7°C | 1.1% | 34.2hPa | 2.7V | 00:00:00 | 00:00:00 | 00:00:00 | |
| PG1ADW-2 | 2026-09-01 00:08:47 | 49.37298 | 13.26468 | 277° | 15km/h | 23408m | 4.3m/s | -51.4°C | 3.8% | 34.3hPa | 2.7V | 03:58:00 | 00:00:00 | 00:00:00 | |
| OE5MMP-10 | 2026-09-01 00:08:45 | 49.37298 | 13.26480 | 263° | 15km/h | 23400m | 4.7m/s | 0°C | 0% | 0hPa | 2.7V | 00:00:00 | 02:03:09 | 00:00:00 | |
| PETON7-10 | 2026-09-01 00:08:44 | 49.37299 | 13.26486 | 252° | 15km/h | 23395m | 5.2m/s | -51.3°C | 3.8% | 34.4hPa | 2.7V | 00:00:00 | 00:00:00 | 00:00:00 | |
| DL6DJ-15 | 2026-09-01 00:08:43 | 49.37301 | 13.26492 | 242° | 16km/h | 23390m | 4.5m/s | -51.3°C | 1.0% | 34.5hPa | 2.7V | 00:00:00 | 00:00:00 | 00:00:00 | |
| DL1JEZ-13 | 2026-09-01 00:08:41 | 49.37303 | 13.26497 | 236° | 16km/h | 23385m | 4.4m/s | -51.3°C | 1.1% | 34.5hPa | 2.7V | 00:00:00 | 00:00:00 | 00:00:00 | |
| EDDB2-12 | 2026-09-01 00:08:36 | 49.37314 | 13.26523 | 251° | 16km/h | 23356m | 5.5m/s | -51.0°C | 0.9% | 34.7hPa | 2.7V | 00:00:00 | 00:00:00 | 00:00:00 | |
| EDDB2-11 | 2026-09-01 00:08:35 | 49.37316 | 13.26537 | 264° | 18km/h | 23347m | 4.0m/s | -51.0°C | 1.0% | 34.7hPa | 2.7V | 00:00:00 | 00:00:00 | 00:00:00 | |
| S52SK | 2026-09-01 00:08:31 | 49.37317 | 13.26549 | 276° | 11km/h | 23337m | 5.6m/s | -50.9°C | 1.0% | 34.8hPa | 2.7V | 00:00:00 | 00:00:00 | 00:00:00 | |
| OE3OSB-13 | 2026-09-01 00:08:30 | 49.37316 | 13.26556 | 282° | 5km/h | 23327m | 4.5m/s | -50.9°C | 0.9% | 34.8hPa | 2.7V | 00:00:00 | 00:00:00 | 00:00:00 | |
| PETON7-10 | 2026-09-01 00:08:29 | 49.37316 | 13.26559 | 266° | 9km/h | 23322m | 5.3m/s | -50.9°C | 3.6% | 34.8hPa | 2.7V | 03:58:00 | 02:02:53 | 00:00:00 | |
| OE5DRO-10 | 2026-09-01 00:08:28 | 49.37316 | 13.26563 | 257° | 7km/h | 23317m | 5.6m/s | -50.9°C | 3.5% | 34.8hPa | 2.7V | 03:58:00 | 00:00:00 | 00:00:00 | |
| PG1ADW-2 | 2026-09-01 00:08:27 | 49.37317 | 13.26568 | 252° | 9km/h | 23312m | 4.6m/s | -51.0°C | 3.5% | 34.8hPa | 2.6V | 00:00:00 | 00:00:00 | 00:00:00 | |
| S52SK | 2026-09-01 00:08:26 | 49.37317 | 13.26568 | 252° | 15km/h | 23312m | 4.7m/s | -51.0°C | 0.9% | 34.9hPa | 2.6V | 00:00:00 | 00:00:00 | 00:00:00 | |
| OE5MMP-10 | 2026-09-01 00:08:25 | 49.37320 | 13.26577 | 239° | 7km/h | 23303m | 5.0m/s | -51.0°C | 3.5% | 34.9hPa | 2.6V | 03:59:00 | 02:02:49 | 00:00:00 | |
| SONCRA | 2026-09-01 00:08:23 | 49.37323 | 13.26583 | 207° | 7km/h | 23291m | 5.3m/s | -51.2°C | 1.0% | 35.0hPa | 2.6V | 00:00:00 | 00:00:00 | 00:00:00 | |
| SONDE2-11 | 2026-09-01 00:08:20 | 49.37329 | 13.26589 | 231° | 7km/h | 23271m | 4.2m/s | -51.3°C | 1.0% | 35.1hPa | 2.6V | 00:00:00 | 00:00:00 | 00:00:00 | |
| PETON7-10 | 2026-09-01 00:08:15 | 49.37334 | 13.26590 | 104° | 7km/h | 23246m | 4.3m/s | -51.6°C | 3.6% | 35.2hPa | 2.6V | 00:00:00 | 00:00:00 | 00:00:00 | |
| OE5REO-15 | 2026-09-01 00:08:13 | 49.37334 | 13.26590 | 105° | 5km/h | 23246m | 4.4m/s | -51.7°C | 1.0% | 35.2hPa | 2.7V | 03:59:00 | 00:00:00 | 00:00:00 | |
| DL6DJ-15 | 2026-09-01 00:08:12 | 49.37333 | 13.26587 | 25° | 2km/h | 23236m | 5.5m/s | -51.9°C | 1.0% | 35.3hPa | 2.7V | 00:00:00 | 00:00:00 | 00:00:00 | |
| OE5DRO-10 | 2026-09-01 00:08:09 | 49.37328 | 13.26588 | 1° | 5km/h | 23222m | 5.3m/s | -52.0°C | 3.8% | 35.3hPa | 2.7V | 00:00:00 | 00:00:00 | 00:00:00 | |
| PG1ADW-2 | 2026-09-01 00:08:07 | 49.37322 | 13.26585 | 24° | 5km/h | 23211m | 4.6m/s | -52.1°C | 3.8% | 35.4hPa | 2.7V | 00:00:00 | 02:02:31 | 00:00:00 | |
| OE5MMP-10 | 2026-09-01 00:08:05 | 49.37317 | 13.26582 | 18° | 4km/h | 23203m | 4.8m/s | -52.2°C | 3.8% | 35.4hPa | 2.6V | 00:00:00 | 02:02:29 | 00:00:00 | |
| EDDB2-11 | 2026-09-01 00:08:04 | 49.37315 | 13.26582 | 302° | 2km/h | 23193m | 4.5m/s | -52.5°C | 1.0% | 35.5hPa | 2.7V | 00:00:00 | 00:00:00 | 00:00:00 | |
| OE3OSB-13 | 2026-09-01 00:07:59 | 49.37317 | 13.26582 | 124° | 4km/h | 23173m | 4.7m/s | -52.6°C | 1.0% | 35.6hPa | 2.7V | 00:00:00 | 00:00:00 | 00:00:00 | |
| SONCRA | 2026-09-01 00:07:52 | 49.37313 | 13.26585 | 24° | 5km/h | 23138m | 4.6m/s | -52.9°C | 1.0% | 35.9hPa | 2.7V | 00:00:00 | 00:00:00 | 00:00:00 | |
| SONDE2-11 | 2026-09-01 00:07:49 | 49.37309 | 13.26582 | 16° | 2km/h | 23125m | 5.2m/s | -53.0°C | 1.1% | 36.0hPa | 2.7V | 00:00:00 | 00:00:00 | 00:00:00 | |
| PG1ADW-2 | 2026-09-01 00:07:47 | 49.37309 | 13.26581 | 160° | 11km/h | 23115m | 4.2m/s | -53.1°C | 4.0% | 35.9hPa | 2.7V | 00:00:00 | 00:00:00 | 00:00:00 | |
| OE5MMP-10 | 2026-09-01 00:07:45 | 49.37311 | 13.26578 | 111° | 13km/h | 23105m | 5.1m/s | -53.3°C | 4.1% | 36.0hPa | 2.7V | 03:59:00 | 02:02:09 | 00:00:00 | |
| PETON7-10 | 2026-09-01 00:07:44 | 49.37311 | 13.26575 | 86° | 11km/h | 23101m | 4.0m/s | -53.3°C | 4.1% | 36.0hPa | 2.7V | 00:00:00 | 02:02:08 | 00:00:00 | |
| OE5REO-15 | 2026-09-01 00:07:42 | 49.37311 | 13.26573 | 59° | 7km/h | 23097m | 4.3m/s | -53.3°C | 1.1% | 36.1hPa | 2.7V | 04:00:00 | 00:00:00 | 00:00:00 | |
| DL6DJ-15 | 2026-09-01 00:07:41 | 49.37306 | 13.26569 | 6° | 13km/h | 23086m | 4.8m/s | -53.3°C | 1.1% | 36.2hPa | 2.7V | 00:00:00 | 00:00:00 | 00:00:00 | |
| DL1JEZ-13 | 2026-09-01 00:07:35 | 49.37286 | 13.26564 | 16° | 11km/h | 23063m | 4.5m/s | -53.4°C | 1.2% | 36.3hPa | 2.7V | 00:00:00 | 00:00:00 | 00:00:00 | |
| OE5MMP-10 | 2026-09-01 00:07:34 | 49.37282 | 13.26563 | 358° | 13km/h | 23054m | 4.5m/s | -53.4°C | 4.1% | 36.3hPa | 2.7V | 00:00:00 | 02:01:58 | 00:00:00 | |
| EDDB2-11 | 2026-09-01 00:07:33 | 49.37280 | 13.26561 | 53° | 5km/h | 23045m | 4.6m/s | -53.4°C | 1.1% | 36.4hPa | 2.6V | 00:00:00 | 00:00:00 | 00:00:00 | |
| OE5DRO-10 | 2026-09-01 00:07:31 | 49.37279 | 13.26558 | 64° | 16km/h | 23040m | 5.6m/s | -53.4°C | 4.1% | 36.3hPa | 2.6V | 00:00:00 | 00:00:00 | 00:00:00 | |
| PETON7-10 | 2026-09-01 00:07:29 | 49.37275 | 13.26548 | 52° | 16km/h | 23030m | 4.2m/s | -53.4°C | 4.1% | 36.4hPa | 2.7V | 03:59:00 | 00:00:00 | 00:00:00 | |
| BAUMI2-15 | 2026-09-01 00:07:28 | 49.37271 | 13.26543 | 43° | 20km/h | 23025m | 5.6m/s | -53.4°C | 4.1% | 36.4hPa | 2.6V | 00:00:00 | 02:01:52 | 00:00:00 | |
| PG1ADW-2 | 2026-09-01 00:07:27 | 49.37268 | 13.26538 | 34° | 16km/h | 23020m | 4.6m/s | -53.4°C | 4.1% | 36.4hPa | 2.6V | 03:59:00 | 00:00:00 | 00:00:00 | |
| BAUMI2-15 | 2026-09-01 00:07:23 | 49.37250 | 13.26521 | 40° | 9km/h | 23001m | 4.0m/s | -53.4°C | 4.1% | 36.6hPa | 2.6V | 00:00:00 | 02:01:47 | 00:00:00 | |
| SONCRA | 2026-09-01 00:07:21 | 49.37244 | 13.26513 | 57° | 4km/h | 22986m | 4.4m/s | -53.5°C | 1.1% | 36.7hPa | 2.7V | 00:00:00 | 00:00:00 | 00:00:00 | |
| DM0DOS-11 | 2026-09-01 00:07:19 | 49.37241 | 13.26489 | 70° | 20km/h | 22964m | 4m/s | -53.6°C | 0% | 0hPa | 2.7V | 04:00:10 | 02:01:39 | 00:00:00 | |
| BAUMI2-15 | 2026-09-01 00:07:18 | 49.37244 | 13.26508 | 90° | 16km/h | 22977m | 5.4m/s | -53.5°C | 4.1% | 36.7hPa | 2.6V | 04:00:00 | 02:01:42 | 00:00:00 | |
| DO3MHA-11 | 2026-09-01 00:07:17 | 49.37243 | 13.26503 | 85° | 18km/h | 22972m | 4.8m/s | -53.6°C | 4.1% | 36.7hPa | 2.6V | 00:00:00 | 02:01:41 | 00:00:00 | |
| DL1JEZ-13 | 2026-09-01 00:07:15 | 49.37241 | 13.26489 | 72° | 20km/h | 22964m | 4.0m/s | -53.6°C | 1.1% | 36.8hPa | 2.6V | 00:00:00 | 00:00:00 | 00:00:00 | |
| PETON7-10 | 2026-09-01 00:07:14 | 49.37239 | 13.26482 | 62° | 18km/h | 22959m | 5.1m/s | -53.6°C | 4.1% | 36.8hPa | 2.6V | 00:00:00 | 00:00:00 | 00:00:00 | |
| BAUMI2-15 | 2026-09-01 00:07:13 | 49.37237 | 13.26476 | 53° | 18km/h | 22954m | 4.7m/s | -53.6°C | 4.1% | 36.9hPa | 2.6V | 00:00:00 | 02:01:37 | 00:00:00 | |
| OE5REO-15 | 2026-09-01 00:07:12 | 49.37234 | 13.26470 | 46° | 18km/h | 22950m | 4.4m/s | -53.7°C | 1.1% | 36.9hPa | 2.6V | 04:00:00 | 00:00:00 | 00:00:00 | |
| DL6DJ-15 | 2026-09-01 00:07:10 | 49.37227 | 13.26461 | 43° | 18km/h | 22940m | 5.5m/s | -53.6°C | 1.1% | 37.0hPa | 2.6V | 00:00:00 | 00:00:00 | 00:00:00 | |
| OE5MMP-10 | 2026-09-01 00:07:08 | 49.37221 | 13.26451 | 42° | 18km/h | 22931m | 3.9m/s | -53.6°C | 4.1% | 37.0hPa | 2.6V | 00:00:00 | 02:01:32 | 00:00:00 | |
| NBG1-10 | 2026-09-01 00:07:07 | 49.37218 | 13.26448 | 36° | 20km/h | 22926m | 5.1m/s | -53.6°C | 4.0% | 37.0hPa | 2.6V | 04:00:00 | 02:01:31 | 00:00:00 | |
| EDDB2-11 | 2026-09-01 00:07:02 | 49.37205 | 13.26417 | 76° | 26km/h | 22898m | 4.4m/s | -53.9°C | 1.1% | 37.2hPa | 2.6V | 00:00:00 | 00:00:00 | 00:00:00 | |
| OE3OSB-13 | 2026-09-01 00:06:57 | 49.37196 | 13.26371 | 68° | 24km/h | 22874m | 5.8m/s | -53.9°C | 1.1% | 37.3hPa | 2.6V | 00:00:00 | 00:00:00 | 00:00:00 | |
| OE5REO-15 | 2026-09-01 00:06:55 | 49.37196 | 13.26371 | 70° | 24km/h | 22874m | 5.8m/s | -53.9°C | 1.1% | 37.3hPa | 2.6V | 04:01:00 | 00:00:00 | 00:00:00 | |
| BAUMI2-15 | 2026-09-01 00:06:53 | 49.37188 | 13.26349 | 51° | 16km/h | 22860m | 5.3m/s | -53.8°C | 4.2% | 37.4hPa | 2.6V | 04:00:00 | 02:01:17 | 00:00:00 | |
| DM0DOS-11 | 2026-09-01 00:06:52 | 49.37177 | 13.26330 | 57° | 20km/h | 22841m | 5.5m/s | 0°C | 0% | 0hPa | 2.7V | 04:00:36 | 02:01:13 | 00:00:00 | |
| SONCRA | 2026-09-01 00:06:50 | 49.37172 | 13.26313 | 74° | 27km/h | 22831m | 3.8m/s | -54.1°C | 1.1% | 37.6hPa | 2.7V | 00:00:00 | 00:00:00 | 00:00:00 | |
| S52SK | 2026-09-01 00:06:49 | 49.37180 | 13.26336 | 50° | 16km/h | 22846m | 3.7m/s | -54.0°C | 1.1% | 37.5hPa | 2.7V | 00:00:00 | 00:00:00 | 00:00:00 | |
| OE5MMP-10 | 2026-09-01 00:06:48 | 49.37175 | 13.26323 | 68° | 18km/h | 22836m | 5.0m/s | -54.0°C | 4.2% | 37.5hPa | 2.7V | 00:00:00 | 02:01:12 | 00:00:00 | |
| PG1ADW-2 | 2026-09-01 00:06:47 | 49.37172 | 13.26313 | 75° | 22km/h | 22831m | 3.7m/s | -54.0°C | 4.1% | 37.6hPa | 2.7V | 00:00:00 | 02:01:11 | 00:00:00 | |
| S52SK | 2026-09-01 00:06:44 | 49.37170 | 13.26282 | 97° | 22km/h | 22818m | 4.8m/s | -54.3°C | 1.1% | 37.7hPa | 2.7V | 00:00:00 | 00:00:00 | 00:00:00 | |
| BAUMI2-15 | 2026-09-01 00:06:43 | 49.37171 | 13.26274 | 104° | 15km/h | 22814m | 4.4m/s | -54.3°C | 4.2% | 37.7hPa | 2.7V | 00:00:00 | 02:01:07 | 00:00:00 | |
| DM0DOS-11 | 2026-09-01 00:06:42 | 49.37172 | 13.26254 | 49° | 11km/h | 22794m | 4.2m/s | 0°C | 0% | 0hPa | 2.7V | 04:00:46 | 02:01:03 | 00:00:00 | |
| OE5REO-15 | 2026-09-01 00:06:40 | 49.37173 | 13.26257 | 80° | 11km/h | 22800m | 5.0m/s | -54.4°C | 1.2% | 37.8hPa | 2.6V | 04:01:00 | 00:00:00 | 00:00:00 | |
| DL6DJ-15 | 2026-09-01 00:06:39 | 49.37172 | 13.26253 | 49° | 11km/h | 22795m | 4.2m/s | -54.4°C | 1.1% | 37.8hPa | 2.6V | 00:00:00 | 00:00:00 | 00:00:00 | |
| BAUMI2-15 | 2026-09-01 00:06:38 | 49.37169 | 13.26250 | 28° | 20km/h | 22791m | 4.2m/s | -54.3°C | 4.3% | 37.8hPa | 2.6V | 00:00:00 | 02:01:02 | 00:00:00 | |
| OE5MMP-10 | 2026-09-01 00:06:37 | 49.37165 | 13.26248 | 16° | 24km/h | 22786m | 5.7m/s | -54.3°C | 4.3% | 37.8hPa | 2.7V | 00:00:00 | 02:01:01 | 00:00:00 | |
| OE5DRO-10 | 2026-09-01 00:06:35 | 49.37149 | 13.26242 | 25° | 20km/h | 22771m | 4.1m/s | -54.3°C | 4.3% | 37.9hPa | 2.7V | 00:00:00 | 00:00:00 | 00:00:00 | |
| BAUMI2-15 | 2026-09-01 00:06:34 | 49.37144 | 13.26237 | 38° | 26km/h | 22766m | 5.7m/s | -54.3°C | 4.2% | 37.9hPa | 2.7V | 00:00:00 | 02:00:57 | 00:00:00 | |
| DM0DOS-11 | 2026-09-01 00:06:32 | 49.37130 | 13.26203 | 68° | 20km/h | 22748m | 5.2m/s | 0°C | 0% | 0hPa | 2.7V | 04:00:56 | 02:00:53 | 00:00:00 | |
| EDDB2-12 | 2026-09-01 00:06:32 | 49.37139 | 13.26229 | 51° | 27km/h | 22761m | 4.6m/s | -54.4°C | 1.2% | 38.0hPa | 2.6V | 00:00:00 | 00:00:00 | 00:00:00 | |
| EDDB2-11 | 2026-09-01 00:06:31 | 49.37132 | 13.26211 | 66° | 24km/h | 22753m | 4.5m/s | -54.4°C | 1.1% | 38.1hPa | 2.6V | 00:00:00 | 00:00:00 | 00:00:00 | |
| PETON7-10 | 2026-09-01 00:06:29 | 49.37130 | 13.26203 | 69° | 18km/h | 22748m | 5.2m/s | -54.3°C | 4.2% | 38.0hPa | 2.6V | 00:00:00 | 00:00:00 | 00:00:00 | |
| BAUMI2-15 | 2026-09-01 00:06:28 | 49.37128 | 13.26197 | 64° | 13km/h | 22743m | 4.8m/s | -54.3°C | 0% | 38.1hPa | 2.6V | 04:00:00 | 02:00:52 | 00:00:00 | |
| OE5MMP-10 | 2026-09-01 00:06:27 | 49.37126 | 13.26193 | 51° | 16km/h | 22739m | 4.0m/s | -54.3°C | 4.3% | 38.1hPa | 2.6V | 04:00:00 | 02:00:51 | 00:00:00 | |
| DO3MHA-11 | 2026-09-01 00:06:25 | 49.37121 | 13.26188 | 21° | 18km/h | 22730m | 5.0m/s | -54.3°C | 4.2% | 38.1hPa | 2.7V | 00:00:00 | 02:00:49 | 00:00:00 | |
| BAUMI2-15 | 2026-09-01 00:06:23 | 49.37114 | 13.26184 | 16° | 18km/h | 22720m | 4.8m/s | 0°C | 0% | 0hPa | 2.7V | 00:00:00 | 02:00:47 | 00:00:00 | |
| OE5REO-15 | 2026-09-01 00:06:22 | 49.37114 | 13.26184 | 16° | 18km/h | 22720m | 4.9m/s | -54.4°C | 1.2% | 38.3hPa | 2.7V | 04:01:00 | 00:00:00 | 00:00:00 | |
| SONCRA | 2026-09-01 00:06:19 | 49.37091 | 13.26176 | 29° | 18km/h | 22695m | 5.5m/s | -54.3°C | 1.1% | 38.4hPa | 2.7V | 00:00:00 | 00:00:00 | 00:00:00 | |
| BAUMI2-15 | 2026-09-01 00:06:18 | 49.37090 | 13.26176 | 30° | 20km/h | 22695m | 5.4m/s | 0°C | 0% | 0hPa | 2.7V | 00:00:00 | 02:00:42 | 00:00:00 | |
| SONDE2-11 | 2026-09-01 00:06:16 | 49.37082 | 13.26166 | 44° | 22km/h | 22684m | 4.7m/s | -54.4°C | 1.1% | 38.5hPa | 2.7V | 00:00:00 | 00:00:00 | 00:00:00 | |
| DO3MHA-11 | 2026-09-01 00:06:15 | 49.37079 | 13.26160 | 47° | 11km/h | 22680m | 5.0m/s | -54.3°C | 4.2% | 38.5hPa | 2.7V | 00:00:00 | 02:00:39 | 00:00:00 | |
| BAUMI2-15 | 2026-09-01 00:06:13 | 49.37073 | 13.26151 | 40° | 13km/h | 22669m | 5.2m/s | 0°C | 0% | 0hPa | 2.7V | 00:00:00 | 02:00:37 | 00:00:00 | |
| DM0DOS-11 | 2026-09-01 00:06:12 | 49.37064 | 13.26145 | 18° | 15km/h | 22655m | 5.4m/s | 0°C | 0% | 0hPa | 2.7V | 04:01:15 | 02:00:34 | 00:00:00 | |
| OE5REO-15 | 2026-09-01 00:06:08 | 49.37052 | 13.26138 | 16° | 20km/h | 22640m | 4.4m/s | -54.4°C | 1.1% | 38.8hPa | 2.7V | 04:01:00 | 00:00:00 | 00:00:00 | |
| BAUMI2-15 | 2026-09-01 00:06:03 | 49.37033 | 13.26134 | 10° | 20km/h | 22620m | 4.6m/s | 0°C | 0% | 0hPa | 2.7V | 04:01:00 | 02:00:27 | 00:00:00 | |
| DM0DOS-11 | 2026-09-01 00:06:02 | 49.36970 | 13.26111 | 357° | 15km/h | 22546m | 4.7m/s | 0°C | 0% | 0hPa | 2.7V | 04:01:36 | 02:00:13 | 00:00:00 | |
| EDDB2-12 | 2026-09-01 00:06:01 | 49.37024 | 13.26131 | 20° | 20km/h | 22609m | 5.3m/s | -54.6°C | 1.2% | 39.0hPa | 2.7V | 00:00:00 | 00:00:00 | 00:00:00 | |
| EDDB2-11 | 2026-09-01 00:06:00 | 49.37014 | 13.26126 | 16° | 18km/h | 22598m | 6.0m/s | -54.6°C | 1.2% | 39.0hPa | 2.7V | 00:00:00 | 00:00:00 | 00:00:00 | |
| PETON7-10 | 2026-09-01 00:05:59 | 49.37014 | 13.26125 | 17° | 18km/h | 22598m | 6.0m/s | -54.6°C | 4.3% | 39.0hPa | 2.7V | 00:00:00 | 00:00:00 | 00:00:00 | |
| BAUMI2-15 | 2026-09-01 00:05:58 | 49.37010 | 13.26124 | 11° | 18km/h | 22592m | 5.6m/s | 0°C | 0% | 0hPa | 2.7V | 00:00:00 | 02:00:22 | 00:00:00 | |
| DM0DOS-11 | 2026-09-01 00:05:57 | 49.36944 | 13.26104 | 15° | 24km/h | 22520m | 5.4m/s | 0°C | 0% | 0hPa | 2.7V | 04:01:41 | 02:00:08 | 00:00:00 | |
| OE3OSB-13 | 2026-09-01 00:05:55 | 49.36991 | 13.26118 | 18° | 22km/h | 22572m | 4.9m/s | -54.5°C | 1.2% | 39.2hPa | 2.6V | 00:00:00 | 00:00:00 | 00:00:00 | |
| SONCRA | 2026-09-01 00:05:48 | 49.36961 | 13.26110 | 7° | 18km/h | 22536m | 6.2m/s | -54.4°C | 1.2% | 39.4hPa | 2.6V | 00:00:00 | 00:00:00 | 00:00:00 | |
| SONDE2-11 | 2026-09-01 00:05:46 | 49.36950 | 13.26106 | 15° | 24km/h | 22525m | 4.6m/s | -54.6°C | 1.2% | 39.5hPa | 2.6V | 00:00:00 | 00:00:00 | 00:00:00 | |
| PETON7-10 | 2026-09-01 00:05:45 | 49.36944 | 13.26104 | 16° | 18km/h | 22520m | 5.3m/s | -54.5°C | 4.3% | 39.4hPa | 2.6V | 04:01:00 | 00:00:00 | 00:00:00 | |
| BAUMI2-15 | 2026-09-01 00:05:43 | 49.36938 | 13.26101 | 15° | 22km/h | 22515m | 5.5m/s | 0°C | 0% | 0hPa | 2.6V | 00:00:00 | 02:00:07 | 00:00:00 | |
| BAUMI2-15 | 2026-09-01 00:05:39 | 49.36912 | 13.26095 | 8° | 13km/h | 22489m | 5.3m/s | 0°C | 0% | 0hPa | 2.6V | 04:01:00 | 02:00:02 | 00:00:00 | |
| OE5MMP-10 | 2026-09-01 00:05:38 | 49.36908 | 13.26094 | 9° | 16km/h | 22483m | 6.3m/s | -54.5°C | 4.4% | 39.7hPa | 2.6V | 04:01:00 | 02:00:01 | 00:00:00 | |
| OE5REO-15 | 2026-09-01 00:05:37 | 49.36905 | 13.26093 | 11° | 11km/h | 22477m | 5.6m/s | -54.6°C | 1.2% | 39.7hPa | 2.6V | 04:01:00 | 00:00:00 | 00:00:00 | |
| DM0DOS-11 | 2026-09-01 00:05:34 | 49.36887 | 13.26084 | 23° | 22km/h | 22451m | 4.7m/s | 0°C | 0% | 0hPa | 2.6V | 04:01:54 | 01:59:55 | 00:00:00 | |
| BAUMI2-15 | 2026-09-01 00:05:33 | 49.36896 | 13.26090 | 19° | 18km/h | 22463m | 6.2m/s | 0°C | 0% | 0hPa | 2.6V | 00:00:00 | 01:59:57 | 00:00:00 | |
| DL1JEZ-13 | 2026-09-01 00:05:31 | 49.36886 | 13.26084 | 25° | 22km/h | 22452m | 4.7m/s | -54.5°C | 1.2% | 39.9hPa | 2.6V | 00:00:00 | 00:00:00 | 00:00:00 | |
| EDDB2-12 | 2026-09-01 00:05:30 | 49.36882 | 13.26080 | 26° | 22km/h | 22447m | 5.2m/s | -54.5°C | 1.2% | 39.9hPa | 2.6V | 00:00:00 | 00:00:00 | 00:00:00 | |
| EDDB2-11 | 2026-09-01 00:05:29 | 49.36872 | 13.26072 | 32° | 16km/h | 22435m | 5.5m/s | -54.5°C | 1.2% | 40.0hPa | 2.6V | 00:00:00 | 00:00:00 | 00:00:00 | |
| OE5MMP-10 | 2026-09-01 00:05:27 | 49.36869 | 13.26069 | 30° | 15km/h | 22431m | 4.6m/s | -54.4°C | 4.3% | 40.0hPa | 2.6V | 00:00:00 | 01:59:51 | 00:00:00 | |
| OE3OSB-13 | 2026-09-01 00:05:24 | 49.36854 | 13.26067 | 338° | 16km/h | 22410m | 4.3m/s | 0°C | -1.0% | 40.2hPa | 2.6V | 00:00:00 | 00:00:00 | 00:00:00 | |
| DM0DOS-11 | 2026-09-01 00:05:22 | 49.36847 | 13.26073 | 321° | 13km/h | 22399m | 5.9m/s | 0°C | 0% | 0hPa | 2.6V | 04:02:04 | 01:59:45 | 00:00:00 | |
| OE5REO-15 | 2026-09-01 00:05:21 | 49.36845 | 13.26076 | 323° | 13km/h | 22394m | 4.6m/s | -54.4°C | 1.2% | 40.3hPa | 2.6V | 04:02:00 | 00:00:00 | 00:00:00 | |
| OE5MMP-10 | 2026-09-01 00:05:18 | 49.36834 | 13.26083 | 353° | 18km/h | 22379m | 5.6m/s | -54.3°C | 4.3% | 40.3hPa | 2.6V | 00:00:00 | 01:59:41 | 00:00:00 | |
| S52SK | 2026-09-01 00:05:17 | 49.36834 | 13.26083 | 353° | 20km/h | 22379m | 5.6m/s | -54.3°C | 1.2% | 40.4hPa | 2.6V | 00:00:00 | 00:00:00 | 00:00:00 | |
| DM0DOS-11 | 2026-09-01 00:05:16 | 49.36804 | 13.26073 | 14° | 20km/h | 22346m | 5.8m/s | 0°C | 0% | 0hPa | 2.6V | 04:02:14 | 01:59:35 | 00:00:00 | |
| PETON7-10 | 2026-09-01 00:05:14 | 49.36818 | 13.26080 | 19° | 16km/h | 22361m | 5.9m/s | -54.1°C | 4.3% | 40.4hPa | 2.7V | 00:00:00 | 00:00:00 | 00:00:00 | |
| S52SK | 2026-09-01 00:05:11 | 49.36809 | 13.26075 | 22° | 20km/h | 22352m | 4.5m/s | -54.1°C | 1.2% | 40.5hPa | 2.6V | 00:00:00 | 00:00:00 | 00:00:00 | |
| DL1JEZ-13 | 2026-09-01 00:05:09 | 49.36799 | 13.26071 | 4° | 18km/h | 22341m | 4.8m/s | -54.1°C | 1.2% | 40.6hPa | 2.6V | 00:00:00 | 00:00:00 | 00:00:00 | |
| S52SK | 2026-09-01 00:05:07 | 49.36790 | 13.26076 | 312° | 11km/h | 22325m | 5.8m/s | -54.1°C | 1.1% | 40.7hPa | 2.6V | 00:00:00 | 00:00:00 | 00:00:00 | |
| DK5PH-5 | 2026-09-01 00:05:06 | 49.36786 | 13.26084 | 303° | 15km/h | 22314m | 5.6m/s | 0°C | 0% | 0hPa | 2.6V | 00:00:00 | 01:59:29 | 00:00:00 | |
| DM0DOS-11 | 2026-09-01 00:05:04 | 49.36774 | 13.26098 | 345° | 15km/h | 22293m | 6m/s | 0°C | 0% | 0hPa | 2.6V | 04:02:24 | 01:59:25 | 00:00:00 | |
| EDDB2-12 | 2026-09-01 00:05:00 | 49.36766 | 13.26098 | 10° | 16km/h | 22282m | 5.0m/s | -54.1°C | 1.2% | 41.0hPa | 2.6V | 00:00:00 | 00:00:00 | 00:00:00 | |
| EDDB2-11 | 2026-09-01 00:04:58 | 49.36757 | 13.26095 | 11° | 20km/h | 22271m | 4.9m/s | -54.1°C | 1.1% | 41.0hPa | 2.6V | 00:00:00 | 00:00:00 | 00:00:00 | |
| OE3OSB-13 | 2026-09-01 00:04:53 | 49.36743 | 13.26096 | 280° | 7km/h | 22246m | 4.5m/s | 0°C | -1.0% | -1.0hPa | 2.6V | 00:00:00 | 00:00:00 | 00:00:00 | |
| DM0DOS-11 | 2026-09-01 00:04:52 | 49.36743 | 13.26099 | 286° | 9km/h | 22241m | 5.9m/s | 0°C | 0% | 0hPa | 2.6V | 04:02:34 | 01:59:15 | 00:00:00 | |
| SONCRA | 2026-09-01 00:04:49 | 49.36730 | 13.26112 | 6° | 13km/h | 22210m | 4.6m/s | -54.0°C | 1.2% | 41.5hPa | 2.6V | 00:00:00 | 00:00:00 | 00:00:00 | |
| PETON7-10 | 2026-09-01 00:04:45 | 49.36726 | 13.26112 | 7° | 9km/h | 22205m | 5.7m/s | -53.9°C | 4.3% | 41.4hPa | 2.6V | 00:00:00 | 01:59:08 | 00:00:00 | |
| SONDE2-11 | 2026-09-01 00:04:44 | 49.36722 | 13.26111 | 3° | 16km/h | 22199m | 5.8m/s | -53.9°C | 1.2% | 41.5hPa | 2.6V | 00:00:00 | 00:00:00 | 00:00:00 | |
| DM0DOS-11 | 2026-09-01 00:04:41 | 49.36707 | 13.26113 | 282° | 7km/h | 22163m | 5.5m/s | 0°C | 0% | 0hPa | 2.6V | 04:02:49 | 01:59:00 | 00:00:00 | |
| OE5DRO-10 | 2026-09-01 00:04:40 | 49.36711 | 13.26110 | 10° | 7km/h | 22184m | 5.8m/s | -53.8°C | 4.3% | 41.6hPa | 2.7V | 04:02:00 | 00:00:00 | 00:00:00 | |
| OE5MMP-10 | 2026-09-01 00:04:37 | 49.36708 | 13.26111 | 285° | 7km/h | 22169m | 5.8m/s | -53.7°C | 4.3% | 41.7hPa | 2.7V | 00:00:00 | 01:59:01 | 00:00:00 | |
| DL6DJ-15 | 2026-09-01 00:04:36 | 49.36707 | 13.26119 | 278° | 5km/h | 22153m | 4.8m/s | -53.7°C | 1.2% | 41.8hPa | 2.7V | 00:00:00 | 00:00:00 | 00:00:00 | |
| OE5REO-15 | 2026-09-01 00:04:32 | 49.36705 | 13.26125 | 323° | 5km/h | 22138m | 4.7m/s | -53.6°C | 1.1% | 41.9hPa | 2.7V | 04:03:00 | 00:00:00 | 00:00:00 | |
| PETON7-10 | 2026-09-01 00:04:29 | 49.36701 | 13.26129 | 331° | 7km/h | 22127m | 5.2m/s | -53.5°C | 4.1% | 41.9hPa | 2.7V | 04:02:00 | 00:00:00 | 00:00:00 | |
| SP3BTT-10 | 2026-09-01 00:04:28 | 49.36698 | 13.26131 | 334° | 11km/h | 22122m | 4.2m/s | -53.4°C | 4.1% | 42.0hPa | 2.6V | 00:00:00 | 00:00:00 | 00:00:00 | |
| OE5MMP-10 | 2026-09-01 00:04:27 | 49.36695 | 13.26133 | 340° | 5km/h | 22118m | 4.3m/s | -53.4°C | 4.1% | 42.0hPa | 2.6V | 00:00:00 | 01:58:51 | 00:00:00 | |
| EDDB2-11 | 2026-09-01 00:04:26 | 49.36692 | 13.26134 | 347° | 9km/h | 22113m | 6.0m/s | -53.4°C | 1.1% | 42.1hPa | 2.6V | 00:00:00 | 00:00:00 | 00:00:00 | |
| DO3MHA-11 | 2026-09-01 00:04:25 | 49.36690 | 13.26135 | 360° | 5km/h | 22107m | 5.3m/s | -53.3°C | 4.1% | 42.1hPa | 2.6V | 00:00:00 | 01:58:49 | 00:00:00 | |
| OE5DRO-10 | 2026-09-01 00:04:21 | 49.36689 | 13.26139 | 248° | 7km/h | 22086m | 4.4m/s | -53.3°C | 4.1% | 42.2hPa | 2.6V | 00:00:00 | 00:00:00 | 00:00:00 | |
| OE5MMP-10 | 2026-09-01 00:04:17 | 49.36691 | 13.26143 | 333° | 7km/h | 22066m | 4.9m/s | -53.3°C | 4.1% | 42.4hPa | 2.6V | 00:00:00 | 01:58:41 | 00:00:00 | |
| OE5REO-15 | 2026-09-01 00:04:16 | 49.36690 | 13.26144 | 338° | 7km/h | 22061m | 5.8m/s | -53.4°C | 1.1% | 42.4hPa | 2.6V | 04:03:00 | 00:00:00 | 00:00:00 | |
| SONCRA | 2026-09-01 00:04:15 | 49.36685 | 13.26147 | 340° | 13km/h | 22050m | 4.0m/s | -53.4°C | 1.2% | 42.5hPa | 2.6V | 00:00:00 | 00:00:00 | 00:00:00 | |
| PETON7-10 | 2026-09-01 00:04:14 | 49.36685 | 13.26147 | 341° | 9km/h | 22050m | 4.0m/s | -53.3°C | 4.2% | 42.5hPa | 2.6V | 00:00:00 | 00:00:00 | 00:00:00 | |
| SONDE2-11 | 2026-09-01 00:04:12 | 49.36679 | 13.26150 | 357° | 11km/h | 22040m | 5.6m/s | -53.4°C | 1.1% | 42.5hPa | 2.6V | 00:00:00 | 00:00:00 | 00:00:00 | |
| OE5MMP-10 | 2026-09-01 00:04:07 | 49.36676 | 13.26152 | 221° | 11km/h | 22015m | 4.3m/s | -53.4°C | 4.1% | 42.7hPa | 2.6V | 00:00:00 | 01:58:31 | 00:00:00 | |
| DL6DJ-15 | 2026-09-01 00:04:04 | 49.36681 | 13.26155 | 40° | 4km/h | 21996m | 4.2m/s | -53.4°C | 1.1% | 42.9hPa | 2.6V | 00:00:00 | 00:00:00 | 00:00:00 | |
| DO3MHA-11 | 2026-09-01 00:04:02 | 49.36679 | 13.26153 | 17° | 13km/h | 21992m | 4.8m/s | -53.3°C | 4.1% | 42.8hPa | 2.6V | 04:03:00 | 01:58:26 | 00:00:00 | |
| EDDB2-12 | 2026-09-01 00:03:57 | 49.36658 | 13.26151 | 15° | 15km/h | 21966m | 5.1m/s | -53.4°C | 1.1% | 43.1hPa | 2.6V | 00:00:00 | 00:00:00 | 00:00:00 | |
| EDDB2-11 | 2026-09-01 00:03:55 | 49.36652 | 13.26148 | 18° | 7km/h | 21956m | 4.7m/s | -53.4°C | 1.1% | 43.1hPa | 2.6V | 00:00:00 | 00:00:00 | 00:00:00 | |
| DO3MHA-11 | 2026-09-01 00:03:53 | 49.36650 | 13.26150 | 264° | 9km/h | 21940m | 4.2m/s | -53.3°C | 4.1% | 43.2hPa | 2.6V | 00:00:00 | 01:58:16 | 00:00:00 | |
| OE5MMP-10 | 2026-09-01 00:03:50 | 49.36645 | 13.26149 | 1° | 11km/h | 21915m | 5.7m/s | -53.3°C | 4.1% | 43.3hPa | 2.6V | 00:00:00 | 01:58:11 | 00:00:00 | |
| SONCRA | 2026-09-01 00:03:48 | 49.36630 | 13.26146 | 23° | 15km/h | 21895m | 4.4m/s | -53.4°C | 1.1% | 43.6hPa | 2.6V | 00:00:00 | 00:00:00 | 00:00:00 | |
| OE5DRO-10 | 2026-09-01 00:03:47 | 49.36630 | 13.26146 | 24° | 11km/h | 21896m | 4.3m/s | -53.3°C | 4.1% | 43.5hPa | 2.6V | 00:00:00 | 00:00:00 | 00:00:00 | |
| DO3MHA-11 | 2026-09-01 00:03:46 | 49.36627 | 13.26143 | 27° | 7km/h | 21891m | 3.6m/s | -53.4°C | 4.1% | 43.5hPa | 2.6V | 00:00:00 | 01:58:06 | 00:00:00 | |
| S52SK | 2026-09-01 00:03:45 | 49.36625 | 13.26142 | 21° | 7km/h | 21887m | 4.9m/s | -53.5°C | 1.1% | 43.6hPa | 2.6V | 00:00:00 | 00:00:00 | 00:00:00 | |
| DF2AP-13 | 2026-09-01 00:03:43 | 49.36622 | 13.26143 | 283° | 7km/h | 21873m | 3.6m/s | -53.5°C | 4.1% | 43.6hPa | 2.6V | 00:00:00 | 01:58:02 | 00:00:00 | |
| OE5MMP-10 | 2026-09-01 00:03:42 | 49.36622 | 13.26144 | 77° | 13km/h | 21869m | 4.7m/s | -53.5°C | 4.1% | 43.7hPa | 2.6V | 00:00:00 | 01:58:01 | 00:00:00 | |
| DO3MHA-11 | 2026-09-01 00:03:41 | 49.36617 | 13.26125 | 48° | 15km/h | 21845m | 5.6m/s | -53.5°C | 4.1% | 43.8hPa | 2.6V | 00:00:00 | 01:57:56 | 00:00:00 | |
| S52SK | 2026-09-01 00:03:40 | 49.36611 | 13.26120 | 14° | 15km/h | 21834m | 4.5m/s | -53.6°C | 1.1% | 44.0hPa | 2.6V | 00:00:00 | 00:00:00 | 00:00:00 | |
| OE5MMP-10 | 2026-09-01 00:03:39 | 49.36599 | 13.26117 | 12° | 15km/h | 21820m | 4.7m/s | -53.5°C | 4.1% | 44.0hPa | 2.6V | 00:00:00 | 01:57:51 | 00:00:00 | |
| EDDB2-12 | 2026-09-01 00:03:38 | 49.36595 | 13.26116 | 11° | 15km/h | 21815m | 4.2m/s | -53.6°C | 1.1% | 44.1hPa | 2.7V | 00:00:00 | 00:00:00 | 00:00:00 | |
| OE5DRO-10 | 2026-09-01 00:03:37 | 49.36588 | 13.26114 | 9° | 15km/h | 21805m | 5.7m/s | -53.6°C | 4.1% | 44.1hPa | 2.7V | 00:00:00 | 00:00:00 | 00:00:00 | |
| DO3MHA-11 | 2026-09-01 00:03:36 | 49.36582 | 13.26112 | 34° | 15km/h | 21796m | 4.6m/s | -53.6°C | 4.1% | 44.2hPa | 2.7V | 00:00:00 | 01:57:46 | 00:00:00 | |
| OE5DXL-15 | 2026-09-01 00:03:34 | 49.36567 | 13.26080 | 34° | 13km/h | 21763m | 4.0m/s | -53.6°C | 4.1% | 44.4hPa | 2.7V | 00:00:00 | 00:00:00 | 00:00:00 | |
| BAUMI2-15 | 2026-09-01 00:03:33 | 49.36567 | 13.26080 | 34° | 15km/h | 21763m | 4.0m/s | 0°C | 0% | 0hPa | 2.6V | 00:00:00 | 01:57:39 | 00:00:00 | |
| OE5REO-15 | 2026-09-01 00:03:32 | 49.36564 | 13.26077 | 33° | 15km/h | 21758m | 5.2m/s | -53.7°C | 1.1% | 44.5hPa | 2.6V | 04:04:00 | 00:00:00 | 00:00:00 | |
| SONCRA | 2026-09-01 00:03:30 | 49.36557 | 13.26070 | 32° | 18km/h | 21748m | 4.2m/s | -53.9°C | 1.2% | 44.6hPa | 2.6V | 00:00:00 | 00:00:00 | 00:00:00 | |
| BAUMI2-15 | 2026-09-01 00:03:28 | 49.36549 | 13.26064 | 21° | 15km/h | 21740m | 5.5m/s | 0°C | 0% | 0hPa | 2.6V | 04:04:00 | 01:57:34 | 00:00:00 | |
| OE5MMP-10 | 2026-09-01 00:03:26 | 49.36539 | 13.26060 | 20° | 15km/h | 21724m | 5.2m/s | -54.0°C | 4.2% | 44.7hPa | 2.6V | 04:04:00 | 01:57:31 | 00:00:00 | |
| DF2AP-13 | 2026-09-01 00:03:25 | 49.36536 | 13.26058 | 33° | 11km/h | 21719m | 5.3m/s | -54.0°C | 4.2% | 44.7hPa | 2.6V | 00:00:00 | 01:57:30 | 00:00:00 | |
| OE5DRO-10 | 2026-09-01 00:03:24 | 49.36533 | 13.26055 | 40° | 13km/h | 21714m | 4.1m/s | -54.0°C | 4.2% | 44.8hPa | 2.7V | 04:04:00 | 00:00:00 | 00:00:00 | |
| DO3MHA-11 | 2026-09-01 00:03:23 | 49.36525 | 13.26046 | 29° | 15km/h | 21700m | 4.1m/s | -54.1°C | 4.3% | 44.8hPa | 2.7V | 00:00:00 | 01:57:26 | 00:00:00 | |
| PETON7-10 | 2026-09-01 00:03:18 | 49.36515 | 13.26036 | 38° | 15km/h | 21686m | 4.4m/s | -54.1°C | 4.3% | 44.9hPa | 2.7V | 00:00:00 | 00:00:00 | 00:00:00 | |
| BAUMI2-15 | 2026-09-01 00:03:16 | 49.36504 | 13.26027 | 9° | 11km/h | 21671m | 4.8m/s | 0°C | 0% | 0hPa | 2.6V | 00:00:00 | 01:57:20 | 00:00:00 | |
| EDDB2-12 | 2026-09-01 00:03:15 | 49.36500 | 13.26026 | 2° | 13km/h | 21666m | 4.2m/s | -54.0°C | 1.2% | 45.1hPa | 2.6V | 00:00:00 | 00:00:00 | 00:00:00 | |
| EDDB2-11 | 2026-09-01 00:03:14 | 49.36494 | 13.26025 | 15° | 9km/h | 21656m | 5.3m/s | -54.0°C | 1.1% | 45.2hPa | 2.6V | 00:00:00 | 00:00:00 | 00:00:00 | |
| BAUMI2-15 | 2026-09-01 00:03:13 | 49.36490 | 13.26023 | 25° | 9km/h | 21648m | 4.4m/s | 0°C | 0% | 0hPa | 2.6V | 00:00:00 | 01:57:15 | 00:00:00 | |
| OE5MMP-10 | 2026-09-01 00:03:08 | 49.36481 | 13.26016 | 39° | 16km/h | 21627m | 5.8m/s | -53.9°C | 4.1% | 45.4hPa | 2.6V | 00:00:00 | 01:57:11 | 00:00:00 | |
| BAUMI2-15 | 2026-09-01 00:03:07 | 49.36477 | 13.26011 | 42° | 20km/h | 21622m | 4.8m/s | 0°C | 0% | 0hPa | 2.6V | 00:00:00 | 01:57:10 | 00:00:00 | |
| PETON7-10 | 2026-09-01 00:03:02 | 49.36469 | 13.26001 | 31° | 13km/h | 21614m | 4.8m/s | -54.1°C | 4.1% | 45.5hPa | 2.6V | 00:00:00 | 00:00:00 | 00:00:00 | |
| OE5REO-15 | 2026-09-01 00:02:59 | 49.36464 | 13.25998 | 20° | 20km/h | 21608m | 5.4m/s | -54.2°C | 1.2% | 45.5hPa | 2.6V | 00:00:00 | 00:00:00 | 00:00:00 | |
| SONCRA | 2026-09-01 00:02:58 | 49.36445 | 13.26002 | 304° | 7km/h | 21573m | 4.8m/s | -54.8°C | 1.2% | 45.8hPa | 2.6V | 00:00:00 | 00:00:00 | 00:00:00 | |
| BAUMI2-15 | 2026-09-01 00:02:57 | 49.36455 | 13.25996 | 359° | 11km/h | 21599m | 4.7m/s | 0°C | 0% | 0hPa | 2.6V | 00:00:00 | 01:57:05 | 00:00:00 | |
| SONDE2-11 | 2026-09-01 00:02:52 | 49.36448 | 13.25998 | 326° | 5km/h | 21583m | 4.7m/s | -54.4°C | 1.1% | 45.7hPa | 2.6V | 00:00:00 | 00:00:00 | 00:00:00 | |
| OE5MMP-10 | 2026-09-01 00:02:48 | 49.36446 | 13.26000 | 309° | 13km/h | 21578m | 5.9m/s | -54.6°C | 4.3% | 45.7hPa | 2.6V | 00:00:00 | 01:57:01 | 00:00:00 | |
| BAUMI2-15 | 2026-09-01 00:02:47 | 49.36445 | 13.26002 | 305° | 9km/h | 21573m | 4.7m/s | 0°C | 0% | 0hPa | 2.6V | 00:00:00 | 01:57:00 | 00:00:00 | |
| BAUMI2-15 | 2026-09-01 00:02:44 | 49.36436 | 13.25998 | 31° | 18km/h | 21549m | 5.2m/s | 0°C | 0% | 0hPa | 2.6V | 00:00:00 | 01:56:55 | 00:00:00 | |
| PETON7-10 | 2026-09-01 00:02:42 | 49.36427 | 13.25993 | 15° | 15km/h | 21540m | 4.1m/s | 0°C | 0% | 0hPa | 2.6V | 00:00:00 | 01:56:53 | 00:00:00 | |
| SP3BTT-10 | 2026-09-01 00:02:41 | 49.36423 | 13.25991 | 13° | 9km/h | 21535m | 3.9m/s | -54.8°C | 4.4% | 46.0hPa | 2.6V | 00:00:00 | 00:00:00 | 00:00:00 | |
| DO3MHA-11 | 2026-09-01 00:02:40 | 49.36423 | 13.25991 | 13° | 11km/h | 21535m | 3.9m/s | -54.8°C | 4.4% | 46.0hPa | 2.6V | 00:00:00 | 01:56:52 | 00:00:00 | |
| OE5DRO-10 | 2026-09-01 00:02:38 | 49.36418 | 13.25989 | 18° | 11km/h | 21531m | 5.3m/s | -54.8°C | 4.4% | 46.0hPa | 2.6V | 00:00:00 | 00:00:00 | 00:00:00 | |
| OE5MMP-10 | 2026-09-01 00:02:37 | 49.36418 | 13.25989 | 18° | 13km/h | 21531m | 5.3m/s | -54.8°C | 4.4% | 46.0hPa | 2.6V | 00:00:00 | 01:56:51 | 00:00:00 | |
| OE5REO-15 | 2026-09-01 00:02:36 | 49.36418 | 13.25989 | 18° | 16km/h | 21531m | 5.3m/s | -54.9°C | 1.2% | 46.1hPa | 2.7V | 00:00:00 | 00:00:00 | 00:00:00 | |
| EDDB2-12 | 2026-09-01 00:02:32 | 49.36406 | 13.25983 | 1° | 9km/h | 21511m | 5.1m/s | -54.8°C | 1.2% | 46.2hPa | 2.7V | 00:00:00 | 00:00:00 | 00:00:00 | |
| EDDB2-11 | 2026-09-01 00:02:29 | 49.36403 | 13.25983 | 345° | 11km/h | 21505m | 5.8m/s | -54.9°C | 1.2% | 46.3hPa | 2.7V | 00:00:00 | 00:00:00 | 00:00:00 | |
| BAUMI2-15 | 2026-09-01 00:02:27 | 49.36399 | 13.25985 | 340° | 15km/h | 21501m | 4.4m/s | 0°C | 0% | 0hPa | 2.7V | 00:00:00 | 01:56:45 | 00:00:00 | |
| DL1JEZ-13 | 2026-09-01 00:02:25 | 49.36399 | 13.25985 | 341° | 15km/h | 21501m | 4.5m/s | -54.9°C | 1.3% | 46.3hPa | 2.7V | 04:05:00 | 00:00:00 | 00:00:00 | |
| BAUMI2-15 | 2026-09-01 00:02:20 | 49.36384 | 13.25984 | 26° | 7km/h | 21477m | 4.0m/s | 0°C | 0% | 0hPa | 2.7V | 00:00:00 | 01:56:40 | 00:00:00 | |
| PETON7-10 | 2026-09-01 00:02:17 | 49.36379 | 13.25982 | 356° | 9km/h | 21467m | 5.1m/s | -54.8°C | 4.5% | 46.5hPa | 2.7V | 00:00:00 | 00:00:00 | 00:00:00 | |
| OE5REO-15 | 2026-09-01 00:02:14 | 49.36375 | 13.25985 | 310° | 4km/h | 21453m | 5.6m/s | -54.8°C | 1.2% | 46.7hPa | 2.7V | 00:00:00 | 00:00:00 | 00:00:00 | |
| SONCRA | 2026-09-01 00:02:13 | 49.36374 | 13.25986 | 309° | 2km/h | 21448m | 5.3m/s | -54.7°C | 1.2% | 46.7hPa | 2.7V | 00:00:00 | 00:00:00 | 00:00:00 | |
| OE5DRO-10 | 2026-09-01 00:02:09 | 49.36373 | 13.25988 | 328° | 9km/h | 21439m | 4.1m/s | -54.6°C | 4.3% | 46.7hPa | 2.7V | 00:00:00 | 00:00:00 | 00:00:00 | |
| OE5MMP-10 | 2026-09-01 00:02:08 | 49.36371 | 13.25989 | 327° | 11km/h | 21434m | 5.7m/s | -54.6°C | 4.3% | 46.8hPa | 2.7V | 00:00:00 | 01:56:31 | 00:00:00 | |
| DF3TZ-5 | 2026-09-01 00:02:01 | 49.36358 | 13.26043 | 216° | 9km/h | 21317m | 4.8m/s | 0°C | -1.0% | -1.0hPa | 2.7V | 00:00:00 | 00:00:00 | 00:00:00 | |
| PETON7-10 | 2026-09-01 00:02:00 | 49.36357 | 13.26041 | 237° | 15km/h | 21322m | 4.3m/s | -54.3°C | 4.4% | 47.6hPa | 2.7V | 00:00:00 | 01:56:08 | 00:00:00 | |
| SP3BTT-10 | 2026-09-01 00:01:59 | 49.36361 | 13.26045 | 202° | 13km/h | 21311m | 6.2m/s | -54.2°C | 4.4% | 47.7hPa | 2.7V | 00:00:00 | 00:00:00 | 00:00:00 | |
| OE5DXL-15 | 2026-09-01 00:01:58 | 49.36369 | 13.26049 | 197° | 15km/h | 21301m | 4.6m/s | -54.1°C | 4.4% | 47.7hPa | 2.7V | 04:05:00 | 00:00:00 | 00:00:00 | |
| DO3MHA-11 | 2026-09-01 00:01:56 | 49.36364 | 13.26047 | 196° | 15km/h | 21306m | 5.0m/s | -54.2°C | 4.4% | 47.7hPa | 2.7V | 04:05:00 | 01:56:05 | 00:00:00 | |
| SONCRA | 2026-09-01 00:01:54 | 49.36374 | 13.26051 | 201° | 18km/h | 21295m | 6.3m/s | -54.1°C | 1.2% | 47.8hPa | 2.7V | 00:00:00 | 00:00:00 | 00:00:00 | |
| OE5MMP-10 | 2026-09-01 00:01:49 | 49.36382 | 13.26058 | 208° | 13km/h | 21285m | 4.0m/s | -54.0°C | 4.4% | 47.8hPa | 2.7V | 00:00:00 | 01:56:01 | 00:00:00 | |
| SONDE2-11 | 2026-09-01 00:01:48 | 49.36386 | 13.26060 | 201° | 16km/h | 21280m | 5.5m/s | -54.0°C | 1.2% | 47.9hPa | 2.7V | 00:00:00 | 00:00:00 | 00:00:00 | |
| OE5DRO-10 | 2026-09-01 00:01:40 | 49.36402 | 13.26071 | 214° | 15km/h | 21249m | 5.4m/s | -53.6°C | 4.3% | 48.1hPa | 2.7V | 04:05:00 | 00:00:00 | 00:00:00 | |
| PETON7-10 | 2026-09-01 00:01:39 | 49.36404 | 13.26073 | 203° | 15km/h | 21244m | 5.9m/s | -53.6°C | 4.3% | 48.2hPa | 2.7V | 00:00:00 | 00:00:00 | 00:00:00 | |
| OE5MMP-10 | 2026-09-01 00:01:37 | 49.36411 | 13.26077 | 204° | 16km/h | 21234m | 4.7m/s | -53.5°C | 4.2% | 48.2hPa | 2.6V | 04:05:00 | 01:55:51 | 00:00:00 | |
| DK5PH-5 | 2026-09-01 00:01:34 | 49.36418 | 13.26082 | 210° | 16km/h | 21223m | 4.8m/s | 0°C | 0% | 0hPa | 2.7V | 00:00:00 | 01:55:49 | 00:00:00 | |
| DL6DJ-15 | 2026-09-01 00:01:32 | 49.36425 | 13.26087 | 194° | 16km/h | 21213m | 5.9m/s | -53.4°C | 1.2% | 48.5hPa | 2.7V | 00:00:00 | 00:00:00 | 00:00:00 | |
| EDDB2-12 | 2026-09-01 00:01:29 | 49.36438 | 13.26092 | 201° | 16km/h | 21198m | 6.0m/s | -53.2°C | 1.2% | 48.6hPa | 2.7V | 00:00:00 | 00:00:00 | 00:00:00 | |
| EDDB2-11 | 2026-09-01 00:01:28 | 49.36438 | 13.26092 | 201° | 16km/h | 21198m | 6.0m/s | -53.2°C | 1.2% | 48.6hPa | 2.7V | 00:00:00 | 00:00:00 | 00:00:00 | |
| OE5MMP-10 | 2026-09-01 00:01:22 | 49.36448 | 13.26100 | 204° | 13km/h | 21184m | 5.6m/s | -53.0°C | 4.2% | 48.6hPa | 2.7V | 00:00:00 | 01:55:41 | 00:00:00 | |
| NBG1-10 | 2026-09-01 00:01:20 | 49.36455 | 13.26103 | 198° | 13km/h | 21173m | 4.6m/s | -52.9°C | 4.1% | 48.7hPa | 2.7V | 00:00:00 | 01:55:39 | 00:00:00 | |
| OE5DXL-15 | 2026-09-01 00:01:17 | 49.36469 | 13.26116 | 203° | 13km/h | 21148m | 5.8m/s | -52.7°C | 4.1% | 48.9hPa | 2.7V | 00:00:00 | 00:00:00 | 00:00:00 | |
| DO3MHA-11 | 2026-09-01 00:01:14 | 49.36466 | 13.26114 | 213° | 16km/h | 21153m | 4.7m/s | -52.7°C | 4.1% | 48.9hPa | 2.6V | 00:00:00 | 01:55:35 | 00:00:00 | |
| SONCRA | 2026-09-01 00:01:12 | 49.36476 | 13.26119 | 198° | 15km/h | 21138m | 4.0m/s | -52.7°C | 1.1% | 49.0hPa | 2.6V | 00:00:00 | 00:00:00 | 00:00:00 | |
| OE5MMP-10 | 2026-09-01 00:01:10 | 49.36479 | 13.26121 | 205° | 16km/h | 21134m | 5.3m/s | -52.6°C | 4.0% | 49.0hPa | 2.6V | 00:00:00 | 01:55:31 | 00:00:00 | |
| SONDE2-11 | 2026-09-01 00:01:08 | 49.36490 | 13.26131 | 207° | 15km/h | 21118m | 5.3m/s | -52.6°C | 1.1% | 49.2hPa | 2.6V | 00:00:00 | 00:00:00 | 00:00:00 | |
| OE5MMP-10 | 2026-09-01 00:01:02 | 49.36517 | 13.26144 | 208° | 11km/h | 21085m | 4.4m/s | -52.4°C | 3.8% | 49.4hPa | 2.6V | 00:00:00 | 01:55:21 | 00:00:00 | |
| OE5DRO-10 | 2026-09-01 00:00:59 | 49.36529 | 13.26150 | 210° | 11km/h | 21061m | 5.1m/s | -52.4°C | 3.8% | 49.5hPa | 2.6V | 00:00:00 | 00:00:00 | 00:00:00 | |
| EDDB2-12 | 2026-09-01 00:00:57 | 49.36536 | 13.26157 | 204° | 9km/h | 21049m | 3.8m/s | -52.5°C | 1.1% | 49.7hPa | 2.6V | 00:00:00 | 00:00:00 | 00:00:00 | |
| EDDB2-11 | 2026-09-01 00:00:54 | 49.36536 | 13.26157 | 204° | 9km/h | 21049m | 3.8m/s | -52.5°C | 1.1% | 49.7hPa | 2.6V | 00:00:00 | 00:00:00 | 00:00:00 | |
| DO3MHA-11 | 2026-09-01 00:00:52 | 49.36538 | 13.26158 | 180° | 15km/h | 21044m | 5.3m/s | -52.5°C | 3.9% | 49.7hPa | 2.6V | 00:00:00 | 01:55:12 | 00:00:00 | |
| PETON7-10 | 2026-09-01 00:00:45 | 49.36546 | 13.26149 | 154° | 11km/h | 21026m | 4.3m/s | -52.9°C | 3.9% | 49.8hPa | 2.6V | 00:00:00 | 00:00:00 | 00:00:00 | |
| NBG1-10 | 2026-09-01 00:00:44 | 49.36554 | 13.26147 | 173° | 11km/h | 21017m | 4.4m/s | -53.1°C | 3.9% | 49.9hPa | 2.6V | 00:00:00 | 01:55:06 | 00:00:00 | |
| DF8AY | 2026-09-01 00:00:43 | 49.36564 | 13.26145 | 173° | 20km/h | 21007m | 4.1m/s | 0°C | 0% | 0hPa | 2.7V | 18:12:15 | 01:55:04 | 00:00:00 | |
| DO3MHA-11 | 2026-09-01 00:00:40 | 49.36571 | 13.26143 | 172° | 7km/h | 20999m | 4.9m/s | -53.1°C | 4.0% | 50.0hPa | 2.6V | 00:00:00 | 01:55:02 | 00:00:00 | |
| OE5MMP-10 | 2026-09-01 00:00:38 | 49.36573 | 13.26143 | 174° | 7km/h | 20994m | 5.2m/s | -53.1°C | 4.0% | 50.1hPa | 2.6V | 04:06:00 | 01:55:01 | 00:00:00 | |
| SONDE2-11 | 2026-09-01 00:00:35 | 49.36572 | 13.26143 | 24° | 2km/h | 20979m | 5.3m/s | -53.2°C | 1.1% | 50.2hPa | 2.6V | 00:00:00 | 00:00:00 | 00:00:00 | |
| OE5DRO-10 | 2026-09-01 00:00:33 | 49.36572 | 13.26142 | 98° | 11km/h | 20974m | 4.8m/s | -53.2°C | 4.0% | 50.2hPa | 2.6V | 00:00:00 | 00:00:00 | 00:00:00 | |
| DF8AY | 2026-09-01 00:00:32 | 49.36573 | 13.26136 | 97° | 11km/h | 20965m | 4.3m/s | 0°C | 0% | 0hPa | 2.6V | 18:12:15 | 01:54:55 | 00:00:00 | |
| PETON7-10 | 2026-09-01 00:00:30 | 49.36573 | 13.26126 | 87° | 11km/h | 20956m | 4.2m/s | -53.2°C | 4.0% | 50.4hPa | 2.6V | 00:00:00 | 00:00:00 | 00:00:00 | |
| OE5MMP-10 | 2026-09-01 00:00:29 | 49.36573 | 13.26114 | 93° | 11km/h | 20948m | 5.0m/s | -53.2°C | 4.0% | 50.4hPa | 2.6V | 00:00:00 | 01:54:51 | 00:00:00 | |
| PG1ADW-2 | 2026-09-01 00:00:28 | 49.36573 | 13.26108 | 92° | 11km/h | 20943m | 4.3m/s | -53.3°C | 4.1% | 50.5hPa | 2.7V | 00:00:00 | 00:00:00 | 00:00:00 | |
| S52SK | 2026-09-01 00:00:27 | 49.36570 | 13.26097 | 41° | 11km/h | 20931m | 4.9m/s | -53.4°C | 0% | 50.6hPa | 2.7V | 04:07:00 | 00:00:00 | 00:00:00 | |
| DL6DJ-15 | 2026-09-01 00:00:26 | 49.36565 | 13.26092 | 30° | 11km/h | 20923m | 3.4m/s | -53.4°C | 1.2% | 50.7hPa | 2.7V | 00:00:00 | 00:00:00 | 00:00:00 | |
| EDDB2-12 | 2026-09-01 00:00:25 | 49.36562 | 13.26087 | 63° | 7km/h | 20914m | 4.8m/s | -53.4°C | 1.2% | 50.8hPa | 2.7V | 00:00:00 | 00:00:00 | 00:00:00 | |
| DO3MHA-11 | 2026-09-01 00:00:24 | 49.36561 | 13.26084 | 78° | 11km/h | 20909m | 3.8m/s | -53.4°C | 4.1% | 50.7hPa | 2.7V | 00:00:00 | 01:54:42 | 00:00:00 | |
| OE5MMP-10 | 2026-09-01 00:00:23 | 49.36560 | 13.26080 | 74° | 11km/h | 20905m | 4.3m/s | -53.4°C | 4.0% | 50.8hPa | 2.7V | 00:00:00 | 01:54:41 | 00:00:00 | |
| DF8AY | 2026-09-01 00:00:22 | 49.36556 | 13.26070 | 50° | 9km/h | 20891m | 4.4m/s | 0°C | 0% | 0hPa | 2.7V | 18:12:15 | 01:54:38 | 00:00:00 | |
| PETON7-10 | 2026-09-01 00:00:19 | 49.36556 | 13.26070 | 51° | 13km/h | 20891m | 4.3m/s | -53.4°C | 4.1% | 50.9hPa | 2.6V | 00:00:00 | 01:54:38 | 00:00:00 | |
| NBG1-10 | 2026-09-01 00:00:09 | 49.36549 | 13.26053 | 47° | 99km/h | 20868m | 5.1m/s | -53.6°C | 4.1% | 51.1hPa | 2.6V | 00:00:00 | 01:54:33 | 00:00:00 | |
| DO3MHA-11 | 2026-09-01 00:00:08 | 49.36546 | 13.26048 | 44° | 15km/h | 20864m | 3.6m/s | -53.6°C | 4.2% | 51.1hPa | 2.6V | 00:00:00 | 01:54:32 | 00:00:00 | |
| SONCRA | 2026-09-01 00:00:07 | 49.36540 | 13.26039 | 55° | 15km/h | 20856m | 4.7m/s | -53.7°C | 1.2% | 51.2hPa | 2.7V | 00:00:00 | 00:00:00 | 00:00:00 | |
| PG1ADW-2 | 2026-09-01 00:00:06 | 49.36540 | 13.26039 | 56° | 11km/h | 20857m | 4.6m/s | -53.6°C | 4.2% | 51.1hPa | 2.7V | 00:00:00 | 01:54:30 | 00:00:00 | |
| DF8AY | 2026-09-01 00:00:05 | 49.36537 | 13.26005 | 100° | 13km/h | 20824m | 5.2m/s | 0°C | 0% | 0hPa | 2.7V | 18:12:15 | 01:54:23 | 00:00:00 | |
| SONDE2-11 | 2026-09-01 00:00:04 | 49.36538 | 13.26024 | 88° | 13km/h | 20843m | 4.1m/s | -53.7°C | 1.1% | 51.3hPa | 2.6V | 00:00:00 | 00:00:00 | 00:00:00 | |
| DO3MHA-11 | 2026-08-31 23:59:58 | 49.36538 | 13.26000 | 109° | 11km/h | 20819m | 5.0m/s | -53.6°C | 4.2% | 51.5hPa | 2.6V | 00:00:00 | 01:54:22 | 00:00:00 | |
| OE5MMP-10 | 2026-08-31 23:59:57 | 49.36539 | 13.25995 | 109° | 11km/h | 20814m | 3.9m/s | -53.6°C | 4.2% | 51.5hPa | 2.6V | 00:00:00 | 01:54:21 | 00:00:00 | |
| OE5DRO-10 | 2026-08-31 23:59:55 | 49.36540 | 13.25986 | 86° | 9km/h | 20806m | 5.3m/s | -53.6°C | 4.1% | 51.6hPa | 2.7V | 04:07:00 | 00:00:00 | 00:00:00 | |
| OE5DXL-15 | 2026-08-31 23:59:53 | 49.36537 | 13.25969 | 76° | 11km/h | 20786m | 5.3m/s | -53.6°C | 4.1% | 51.7hPa | 2.6V | 00:00:00 | 00:00:00 | 00:00:00 | |
| DF8AY | 2026-08-31 23:59:51 | 49.36537 | 13.25969 | 76° | 7km/h | 20786m | 5.4m/s | 0°C | 0% | 0hPa | 2.6V | 18:12:15 | 01:54:15 | 00:00:00 | |
| DL6DJ-15 | 2026-08-31 23:59:50 | 49.36536 | 13.25967 | 74° | 5km/h | 20782m | 4.0m/s | -53.6°C | 1.2% | 51.8hPa | 2.6V | 00:00:00 | 00:00:00 | 00:00:00 | |
| EDDB2-12 | 2026-08-31 23:59:49 | 49.36535 | 13.25962 | 49° | 7km/h | 20772m | 5.0m/s | -53.7°C | 1.1% | 51.9hPa | 2.6V | 00:00:00 | 00:00:00 | 00:00:00 | |
| DO3MHA-11 | 2026-08-31 23:59:48 | 49.36534 | 13.25962 | 50° | 7km/h | 20772m | 5.0m/s | -53.6°C | 4.1% | 51.8hPa | 2.6V | 00:00:00 | 01:54:12 | 00:00:00 | |
| OE5MMP-10 | 2026-08-31 23:59:47 | 49.36533 | 13.25960 | 52° | 7km/h | 20768m | 4.1m/s | -53.7°C | 4.2% | 51.9hPa | 2.6V | 04:07:00 | 01:54:11 | 00:00:00 | |
| PETON7-10 | 2026-08-31 23:59:44 | 49.36533 | 13.25956 | 139° | 9km/h | 20753m | 4.0m/s | -53.7°C | 4.2% | 52.0hPa | 2.6V | 00:00:00 | 00:00:00 | 00:00:00 | |
| DO3MHA-11 | 2026-08-31 23:59:38 | 49.36535 | 13.25937 | 110° | 11km/h | 20725m | 5.1m/s | -53.6°C | 4.2% | 52.2hPa | 2.6V | 04:07:00 | 01:54:02 | 00:00:00 | |
| OE5MMP-10 | 2026-08-31 23:59:37 | 49.36536 | 13.25933 | 115° | 11km/h | 20720m | 4.5m/s | -53.6°C | 4.1% | 52.3hPa | 2.6V | 00:00:00 | 01:54:01 | 00:00:00 | |
| OE5DRO-10 | 2026-08-31 23:59:36 | 49.36537 | 13.25929 | 111° | 11km/h | 20716m | 4.8m/s | -53.6°C | 4.1% | 52.3hPa | 2.6V | 00:00:00 | 00:00:00 | 00:00:00 | |
| SONCRA | 2026-08-31 23:59:35 | 49.36538 | 13.25925 | 99° | 9km/h | 20710m | 5.8m/s | -53.7°C | 1.2% | 52.4hPa | 2.6V | 00:00:00 | 00:00:00 | 00:00:00 | |
| SONDE2-11 | 2026-08-31 23:59:32 | 49.36538 | 13.25913 | 104° | 9km/h | 20696m | 5.4m/s | -53.7°C | 1.2% | 52.5hPa | 2.6V | 00:00:00 | 00:00:00 | 00:00:00 | |
| DF8AY | 2026-08-31 23:59:30 | 49.36543 | 13.25898 | 108° | 11km/h | 20676m | 5.5m/s | 0°C | 0% | 0hPa | 2.6V | 18:12:15 | 01:53:52 | 00:00:00 | |
| PETON7-10 | 2026-08-31 23:59:29 | 49.36542 | 13.25901 | 119° | 13km/h | 20682m | 4.7m/s | -53.6°C | 4.2% | 52.6hPa | 2.6V | 04:07:00 | 01:53:53 | 00:00:00 | |
| DO3MHA-11 | 2026-08-31 23:59:28 | 49.36543 | 13.25897 | 108° | 11km/h | 20676m | 5.4m/s | -53.6°C | 4.2% | 52.6hPa | 2.6V | 00:00:00 | 01:53:52 | 00:00:00 | |
| OE5MMP-10 | 2026-08-31 23:59:27 | 49.36544 | 13.25894 | 102° | 11km/h | 20672m | 4.4m/s | -53.6°C | 4.2% | 52.7hPa | 2.6V | 00:00:00 | 01:53:51 | 00:00:00 | |
| PG1ADW-2 | 2026-08-31 23:59:24 | 49.36547 | 13.25883 | 130° | 13km/h | 20656m | 4.6m/s | -53.6°C | 4.3% | 52.8hPa | 2.7V | 00:00:00 | 00:00:00 | 00:00:00 | |
| DL6DJ-15 | 2026-08-31 23:59:19 | 49.36554 | 13.25863 | 111° | 11km/h | 20633m | 4.7m/s | -53.5°C | 1.2% | 53.0hPa | 2.7V | 00:00:00 | 00:00:00 | 00:00:00 | |
| DF8AY | 2026-08-31 23:59:18 | 49.36566 | 13.25824 | 126° | 9km/h | 20590m | 4.8m/s | 0°C | 0% | 0hPa | 2.7V | 18:12:15 | 01:53:34 | 00:00:00 | |
| OE5MMP-10 | 2026-08-31 23:59:17 | 49.36558 | 13.25854 | 130° | 11km/h | 20624m | 4.7m/s | -53.4°C | 4.2% | 53.1hPa | 2.7V | 00:00:00 | 01:53:41 | 00:00:00 | |
| EDDB2-11 | 2026-08-31 23:59:16 | 49.36560 | 13.25850 | 126° | 13km/h | 20619m | 4.3m/s | -53.4°C | 1.2% | 53.1hPa | 2.7V | 00:00:00 | 00:00:00 | 00:00:00 | |
| PETON7-10 | 2026-08-31 23:59:14 | 49.36563 | 13.25840 | 106° | 11km/h | 20609m | 5.0m/s | -53.2°C | 4.1% | 53.2hPa | 2.7V | 00:00:00 | 00:00:00 | 00:00:00 | |
| OE5MMP-10 | 2026-08-31 23:59:07 | 49.36569 | 13.25814 | 107° | 11km/h | 20576m | 4.9m/s | -53.0°C | 4.1% | 53.5hPa | 2.6V | 00:00:00 | 01:53:31 | 00:00:00 | |
| PG1ADW-2 | 2026-08-31 23:59:04 | 49.36573 | 13.25800 | 122° | 11km/h | 20561m | 4.9m/s | -52.9°C | 4.0% | 53.6hPa | 2.6V | 04:08:00 | 00:00:00 | 00:00:00 | |
| DO3MHA-11 | 2026-08-31 23:59:02 | 49.36576 | 13.25791 | 112° | 13km/h | 20552m | 4.5m/s | -52.8°C | 4.0% | 53.7hPa | 2.6V | 00:00:00 | 01:53:26 | 00:00:00 | |
| DF8AY | 2026-08-31 23:58:56 | 49.36585 | 13.25757 | 108° | 13km/h | 20506m | 4.2m/s | 0°C | 0% | 0hPa | 2.6V | 18:12:15 | 01:53:16 | 00:00:00 | |
| DF8AY | 2026-08-31 23:58:47 | 49.36591 | 13.25734 | 118° | 18km/h | 20469m | 4.2m/s | 0°C | 0% | 0hPa | 2.7V | 18:12:15 | 01:53:08 | 00:00:00 | |
| EDDB2-12 | 2026-08-31 23:58:46 | 49.36587 | 13.25743 | 126° | 9km/h | 20479m | 5.1m/s | -52.7°C | 1.1% | 54.3hPa | 2.6V | 00:00:00 | 00:00:00 | 00:00:00 | |
| EDDB2-11 | 2026-08-31 23:58:45 | 49.36589 | 13.25739 | 121° | 15km/h | 20474m | 4.7m/s | -52.7°C | 1.1% | 54.4hPa | 2.6V | 00:00:00 | 00:00:00 | 00:00:00 | |
| DF8AY | 2026-08-31 23:58:33 | 49.36618 | 13.25676 | 137° | 20km/h | 20412m | 5.2m/s | 0°C | 0% | 0hPa | 2.6V | 18:12:15 | 01:52:56 | 00:00:00 | |
| SONCRA | 2026-08-31 23:58:33 | 49.36615 | 13.25681 | 142° | 18km/h | 20417m | 3.7m/s | -53.1°C | 1.2% | 54.9hPa | 2.7V | 00:00:00 | 00:00:00 | 00:00:00 | |
| SONDE2-11 | 2026-08-31 23:58:30 | 49.36626 | 13.25663 | 123° | 22km/h | 20403m | 4.1m/s | -53.3°C | 1.2% | 55.0hPa | 2.7V | 00:00:00 | 00:00:00 | 00:00:00 | |
| PETON7-10 | 2026-08-31 23:58:29 | 49.36628 | 13.25656 | 120° | 18km/h | 20398m | 4.9m/s | -53.2°C | 4.1% | 54.9hPa | 2.7V | 00:00:00 | 00:00:00 | 00:00:00 | |
| OE5MMP-10 | 2026-08-31 23:58:27 | 49.36632 | 13.25644 | 106° | 18km/h | 20388m | 4.3m/s | -53.2°C | 4.0% | 55.0hPa | 2.6V | 00:00:00 | 01:52:51 | 00:00:00 | |
| OE5DRO-10 | 2026-08-31 23:58:20 | 49.36638 | 13.25597 | 112° | 15km/h | 20354m | 4.5m/s | -53.1°C | 4.0% | 55.3hPa | 2.6V | 04:09:00 | 00:00:00 | 00:00:00 | |
| OE5MMP-10 | 2026-08-31 23:58:17 | 49.36642 | 13.25576 | 99° | 16km/h | 20340m | 4.8m/s | -53.1°C | 4.0% | 55.5hPa | 2.6V | 00:00:00 | 01:52:41 | 00:00:00 | |
| EDDB2-12 | 2026-08-31 23:58:15 | 49.36642 | 13.25563 | 79° | 15km/h | 20330m | 5.8m/s | -53.2°C | 1.1% | 55.6hPa | 2.6V | 00:00:00 | 00:00:00 | 00:00:00 | |
| DO3MHA-11 | 2026-08-31 23:58:14 | 49.36641 | 13.25558 | 71° | 15km/h | 20325m | 4.6m/s | -53.2°C | 4.1% | 55.6hPa | 2.6V | 00:00:00 | 01:52:38 | 00:00:00 | |
| SP3BTT-10 | 2026-08-31 23:58:11 | 49.36637 | 13.25543 | 78° | 15km/h | 20311m | 5.0m/s | -53.2°C | 4.1% | 55.7hPa | 2.6V | 00:00:00 | 00:00:00 | 00:00:00 | |
| DO8TBO-1 | 2026-08-31 23:58:09 | 49.36636 | 13.25530 | 81° | 13km/h | 20302m | 3.8m/s | -53.1°C | 4.1% | 55.8hPa | 2.7V | 04:09:00 | 01:52:33 | 00:00:00 | |
| DK5PH-5 | 2026-08-31 23:58:08 | 49.36635 | 13.25523 | 77° | 22km/h | 20298m | 4.3m/s | 0°C | 0% | 0hPa | 2.6V | 00:00:00 | 01:52:32 | 00:00:00 | |
| OE5MMP-10 | 2026-08-31 23:58:07 | 49.36634 | 13.25518 | 70° | 13km/h | 20294m | 5.1m/s | -53.1°C | 4.0% | 55.9hPa | 2.6V | 04:09:00 | 01:52:31 | 00:00:00 | |
| DO3MHA-11 | 2026-08-31 23:58:04 | 49.36630 | 13.25505 | 62° | 13km/h | 20280m | 4.3m/s | -53.1°C | 4.0% | 56.0hPa | 2.6V | 04:09:00 | 01:52:28 | 00:00:00 | |
| SONCRA | 2026-08-31 23:58:02 | 49.36628 | 13.25496 | 81° | 13km/h | 20270m | 4.8m/s | -53.2°C | 1.1% | 56.1hPa | 2.6V | 00:00:00 | 00:00:00 | 00:00:00 | |
| SONDE2-11 | 2026-08-31 23:57:59 | 49.36626 | 13.25480 | 74° | 13km/h | 20256m | 5.0m/s | -53.3°C | 1.2% | 56.2hPa | 2.6V | 00:00:00 | 00:00:00 | 00:00:00 | |
| DL6DJ-15 | 2026-08-31 23:57:46 | 49.36627 | 13.25414 | 93° | 11km/h | 20191m | 3.8m/s | -53.3°C | 1.1% | 56.8hPa | 2.6V | 00:00:00 | 00:00:00 | 00:00:00 | |
| PETON7-10 | 2026-08-31 23:57:44 | 49.36627 | 13.25410 | 93° | 18km/h | 20187m | 3.6m/s | -53.2°C | 4.0% | 56.8hPa | 2.6V | 00:00:00 | 00:00:00 | 00:00:00 | |
| EDDB2-11 | 2026-08-31 23:57:43 | 49.36628 | 13.25405 | 96° | 13km/h | 20182m | 5.2m/s | -53.3°C | 1.1% | 56.9hPa | 2.7V | 00:00:00 | 00:00:00 | 00:00:00 | |
| OE5DRO-10 | 2026-08-31 23:57:42 | 49.36628 | 13.25399 | 102° | 20km/h | 20177m | 4.7m/s | -53.2°C | 4.0% | 56.9hPa | 2.7V | 00:00:00 | 00:00:00 | 00:00:00 | |
| SP3BTT-10 | 2026-08-31 23:57:41 | 49.36629 | 13.25392 | 101° | 15km/h | 20173m | 4.3m/s | -53.2°C | 4.0% | 56.9hPa | 2.7V | 00:00:00 | 00:00:00 | 00:00:00 | |
| DO8TBO-1 | 2026-08-31 23:57:39 | 49.36630 | 13.25380 | 94° | 7km/h | 20163m | 4.6m/s | -53.2°C | 4.0% | 57.0hPa | 2.7V | 00:00:00 | 01:52:03 | 00:00:00 | |
| OE5MMP-10 | 2026-08-31 23:57:37 | 49.36630 | 13.25368 | 95° | 20km/h | 20155m | 4.5m/s | -53.2°C | 4.0% | 57.1hPa | 2.7V | 00:00:00 | 01:52:01 | 00:00:00 | |
| DO3MHA-11 | 2026-08-31 23:57:34 | 49.36633 | 13.25342 | 101° | 20km/h | 20142m | 3.2m/s | -53.2°C | 4.0% | 57.2hPa | 2.7V | 00:00:00 | 01:51:58 | 00:00:00 | |
| SONCRA | 2026-08-31 23:57:31 | 49.36636 | 13.25304 | 97° | 18km/h | 20119m | 4.7m/s | -53.4°C | 1.2% | 57.5hPa | 2.7V | 00:00:00 | 00:00:00 | 00:00:00 | |
| PETON7-10 | 2026-08-31 23:57:29 | 49.36636 | 13.25304 | 98° | 24km/h | 20119m | 4.7m/s | -53.3°C | 4.1% | 57.4hPa | 2.7V | 00:00:00 | 00:00:00 | 00:00:00 | |
| SONDE2-11 | 2026-08-31 23:57:28 | 49.36637 | 13.25296 | 91° | 20km/h | 20115m | 3.2m/s | -53.4°C | 1.2% | 57.5hPa | 2.7V | 00:00:00 | 00:00:00 | 00:00:00 | |
| OE5MMP-10 | 2026-08-31 23:57:27 | 49.36636 | 13.25288 | 83° | 24km/h | 20111m | 4.0m/s | -53.3°C | 4.1% | 57.5hPa | 2.7V | 00:00:00 | 01:51:51 | 00:00:00 | |
| DO3MHA-11 | 2026-08-31 23:57:24 | 49.36632 | 13.25266 | 70° | 24km/h | 20098m | 4.5m/s | -53.2°C | 4.0% | 57.6hPa | 2.6V | 00:00:00 | 01:51:48 | 00:00:00 | |
| OE5DRO-10 | 2026-08-31 23:57:23 | 49.36630 | 13.25257 | 76° | 24km/h | 20093m | 4.7m/s | -53.2°C | 4.0% | 57.6hPa | 2.6V | 00:00:00 | 00:00:00 | 00:00:00 | |
| PG1ADW-2 | 2026-08-31 23:57:20 | 49.36625 | 13.25230 | 74° | 20km/h | 20081m | 5.1m/s | -53.2°C | 4.0% | 57.7hPa | 2.6V | 00:00:00 | 00:00:00 | 00:00:00 | |
| OE5MMP-10 | 2026-08-31 23:57:17 | 49.36621 | 13.25201 | 87° | 24km/h | 20068m | 5.0m/s | -53.2°C | 4.0% | 57.9hPa | 2.6V | 04:10:00 | 01:51:41 | 00:00:00 | |
| DL1JEZ-13 | 2026-08-31 23:57:16 | 49.36621 | 13.25201 | 87° | 26km/h | 20068m | 5.0m/s | -53.2°C | 1.2% | 57.9hPa | 2.6V | 00:00:00 | 00:00:00 | 00:00:00 | |
| DL6DJ-15 | 2026-08-31 23:57:15 | 49.36620 | 13.25174 | 73° | 22km/h | 20056m | 4.7m/s | -53.2°C | 1.1% | 58.0hPa | 2.6V | 00:00:00 | 00:00:00 | 00:00:00 | |
| DO3MHA-11 | 2026-08-31 23:57:14 | 49.36619 | 13.25174 | 74° | 24km/h | 20056m | 4.6m/s | -53.2°C | 4.0% | 57.9hPa | 2.6V | 04:10:00 | 01:51:38 | 00:00:00 | |
| EDDB2-12 | 2026-08-31 23:57:13 | 49.36618 | 13.25166 | 61° | 22km/h | 20051m | 4.4m/s | -53.2°C | 1.1% | 58.0hPa | 2.6V | 00:00:00 | 00:00:00 | 00:00:00 | |
| EDDB2-11 | 2026-08-31 23:57:12 | 49.36614 | 13.25159 | 53° | 22km/h | 20047m | 3.5m/s | -53.2°C | 1.1% | 58.1hPa | 2.6V | 00:00:00 | 00:00:00 | 00:00:00 | |
| S52SK | 2026-08-31 23:57:09 | 49.36607 | 13.25143 | 57° | 26km/h | 20039m | 4.9m/s | -53.2°C | 0% | 58.2hPa | 2.6V | 00:00:00 | 00:00:00 | 00:00:00 | |
| OE5MMP-10 | 2026-08-31 23:57:07 | 49.36598 | 13.25117 | 64° | 20km/h | 20027m | 3.8m/s | -53.2°C | 3.9% | 58.2hPa | 2.6V | 00:00:00 | 01:51:31 | 00:00:00 | |
| DO3MHA-11 | 2026-08-31 23:57:04 | 49.36589 | 13.25095 | 56° | 20km/h | 20014m | 4.0m/s | -53.5°C | 4.0% | 58.3hPa | 2.6V | 00:00:00 | 01:51:28 | 00:00:00 | |
| S52SK | 2026-08-31 23:57:03 | 49.36589 | 13.25095 | 56° | 18km/h | 20014m | 4.0m/s | -53.5°C | 0% | 58.4hPa | 2.6V | 00:00:00 | 00:00:00 | 00:00:00 | |
| SONCRA | 2026-08-31 23:57:00 | 49.36562 | 13.25043 | 43° | 20km/h | 19975m | 4.6m/s | -54.0°C | 1.2% | 58.8hPa | 2.6V | 00:00:00 | 00:00:00 | 00:00:00 | |
| PETON7-10 | 2026-08-31 23:56:59 | 49.36579 | 13.25065 | 51° | 18km/h | 19993m | 4.9m/s | -53.7°C | 4.0% | 58.5hPa | 2.6V | 04:10:00 | 00:00:00 | 00:00:00 | |
| PG1ADW-2 | 2026-08-31 23:56:58 | 49.36575 | 13.25060 | 42° | 15km/h | 19988m | 4.4m/s | -53.7°C | 4.0% | 58.6hPa | 2.6V | 00:00:00 | 00:00:00 | 00:00:00 | |
| OE5MMP-10 | 2026-08-31 23:56:57 | 49.36571 | 13.25054 | 38° | 18km/h | 19984m | 4.1m/s | -53.8°C | 4.0% | 58.6hPa | 2.6V | 00:00:00 | 01:51:21 | 00:00:00 | |
| DO3MHA-11 | 2026-08-31 23:56:54 | 49.36558 | 13.25038 | 47° | 16km/h | 19971m | 3.6m/s | -54.1°C | 4.1% | 58.7hPa | 2.6V | 00:00:00 | 01:51:18 | 00:00:00 | |
| OE5MMP-10 | 2026-08-31 23:56:47 | 49.36539 | 13.25006 | 61° | 11km/h | 19939m | 4.7m/s | -54.3°C | 4.3% | 59.0hPa | 2.7V | 00:00:00 | 01:51:11 | 00:00:00 | |
| OE5DRO-10 | 2026-08-31 23:56:45 | 49.36534 | 13.24995 | 49° | 7km/h | 19929m | 4.7m/s | -54.2°C | 4.3% | 59.1hPa | 2.7V | 04:10:00 | 00:00:00 | 00:00:00 | |
| DL6DJ-15 | 2026-08-31 23:56:44 | 49.36529 | 13.24987 | 41° | 13km/h | 19921m | 3.3m/s | -54.2°C | 1.2% | 59.2hPa | 2.7V | 00:00:00 | 00:00:00 | 00:00:00 | |
| EDDB2-12 | 2026-08-31 23:56:42 | 49.36527 | 13.24984 | 46° | 9km/h | 19917m | 5.1m/s | -54.2°C | 1.2% | 59.3hPa | 2.7V | 00:00:00 | 00:00:00 | 00:00:00 | |
| SP3BTT-10 | 2026-08-31 23:56:41 | 49.36525 | 13.24982 | 61° | 5km/h | 19913m | 4.9m/s | -54.1°C | 4.3% | 59.3hPa | 2.7V | 00:00:00 | 00:00:00 | 00:00:00 | |
| PG1ADW-2 | 2026-08-31 23:56:38 | 49.36523 | 13.24980 | 325° | 5km/h | 19899m | 5.4m/s | -54.1°C | 4.3% | 59.4hPa | 2.7V | 00:00:00 | 00:00:00 | 00:00:00 | |
| OE5MMP-10 | 2026-08-31 23:56:37 | 49.36523 | 13.24981 | 324° | 5km/h | 19894m | 4.3m/s | -54.1°C | 4.3% | 59.5hPa | 2.6V | 00:00:00 | 01:51:01 | 00:00:00 | |
| DO3MHA-11 | 2026-08-31 23:56:34 | 49.36520 | 13.24982 | 21° | 7km/h | 19880m | 3.9m/s | -54.0°C | 4.3% | 59.6hPa | 2.6V | 00:00:00 | 01:50:58 | 00:00:00 | |
| OE5WHR-10 | 2026-08-31 23:56:30 | 49.36513 | 13.24981 | 2° | 5km/h | 19861m | 4.0m/s | -53.9°C | 4.3% | 59.8hPa | 2.6V | 00:00:00 | 00:00:00 | 00:00:00 | |
| PETON7-10 | 2026-08-31 23:56:29 | 49.36511 | 13.24980 | 13° | 5km/h | 19857m | 4.7m/s | -53.8°C | 4.3% | 59.8hPa | 2.6V | 00:00:00 | 01:50:53 | 00:00:00 | |
| OE5MMP-10 | 2026-08-31 23:56:27 | 49.36510 | 13.24978 | 87° | 4km/h | 19846m | 4.3m/s | -53.7°C | 4.3% | 59.9hPa | 2.6V | 04:10:00 | 01:50:51 | 00:00:00 | |
| OE5DRO-10 | 2026-08-31 23:56:26 | 49.36510 | 13.24977 | 86° | 5km/h | 19842m | 4.3m/s | -53.7°C | 4.2% | 59.9hPa | 2.7V | 00:00:00 | 00:00:00 | 00:00:00 | |
| DO3MHA-11 | 2026-08-31 23:56:24 | 49.36509 | 13.24974 | 56° | 4km/h | 19832m | 4.4m/s | -53.6°C | 4.2% | 60.1hPa | 2.7V | 04:11:00 | 01:50:48 | 00:00:00 | |
| PG1ADW-2 | 2026-08-31 23:56:18 | 49.36507 | 13.24980 | 304° | 7km/h | 19803m | 4.1m/s | -53.6°C | 4.1% | 60.3hPa | 2.6V | 04:11:00 | 01:50:42 | 00:00:00 | |
| OE5MMP-10 | 2026-08-31 23:56:17 | 49.36506 | 13.24984 | 305° | 5km/h | 19799m | 3.6m/s | -53.6°C | 4.1% | 60.3hPa | 2.6V | 00:00:00 | 01:50:41 | 00:00:00 | |
| PETON7-10 | 2026-08-31 23:56:14 | 49.36504 | 13.24989 | 146° | 7km/h | 19784m | 4.5m/s | -53.6°C | 4.1% | 60.5hPa | 2.6V | 00:00:00 | 00:00:00 | 00:00:00 | |
| DL6DJ-15 | 2026-08-31 23:56:12 | 49.36507 | 13.24986 | 142° | 5km/h | 19776m | 4.5m/s | -53.6°C | 1.1% | 60.6hPa | 2.6V | 00:00:00 | 00:00:00 | 00:00:00 | |
| EDDB2-12 | 2026-08-31 23:56:11 | 49.36508 | 13.24984 | 141° | 4km/h | 19771m | 5.6m/s | -53.5°C | 1.2% | 60.7hPa | 2.6V | 00:00:00 | 00:00:00 | 00:00:00 | |
| EDDB2-11 | 2026-08-31 23:56:10 | 49.36508 | 13.24983 | 13° | 2km/h | 19761m | 4.2m/s | -53.4°C | 1.2% | 60.7hPa | 2.6V | 00:00:00 | 00:00:00 | 00:00:00 | |
| DO8TBO-1 | 2026-08-31 23:56:09 | 49.36508 | 13.24983 | 14° | 7km/h | 19761m | 4.2m/s | -53.4°C | 4.1% | 60.7hPa | 2.6V | 00:00:00 | 01:50:33 | 00:00:00 | |
| DO3MHA-11 | 2026-08-31 23:56:08 | 49.36507 | 13.24982 | 15° | 7km/h | 19757m | 4.6m/s | -53.4°C | 4.1% | 60.8hPa | 2.6V | 00:00:00 | 01:50:32 | 00:00:00 | |
| OE5MMP-10 | 2026-08-31 23:56:07 | 49.36506 | 13.24982 | 30° | 7km/h | 19751m | 5.5m/s | -53.3°C | 4.1% | 60.8hPa | 2.6V | 00:00:00 | 01:50:31 | 00:00:00 | |
| OE5WHR-10 | 2026-08-31 23:56:06 | 49.36504 | 13.24980 | 45° | 7km/h | 19746m | 6.0m/s | -53.3°C | 4.0% | 60.9hPa | 2.6V | 00:00:00 | 01:50:30 | 00:00:00 | |
| DL1JEZ-13 | 2026-08-31 23:56:05 | 49.36504 | 13.24980 | 45° | 9km/h | 19746m | 6.0m/s | -53.4°C | 1.2% | 60.9hPa | 2.6V | 04:11:00 | 00:00:00 | 00:00:00 | |
| SONCRA | 2026-08-31 23:55:58 | 49.36495 | 13.24966 | 155° | 2km/h | 19700m | 5.8m/s | -53.4°C | 1.1% | 61.3hPa | 2.6V | 00:00:00 | 00:00:00 | 00:00:00 | |
| SONDE2-11 | 2026-08-31 23:55:55 | 49.36495 | 13.24965 | 67° | 2km/h | 19690m | 4.2m/s | -53.6°C | 1.2% | 61.4hPa | 2.6V | 00:00:00 | 00:00:00 | 00:00:00 | |
| DO3MHA-11 | 2026-08-31 23:55:48 | 49.36489 | 13.24942 | 48° | 9km/h | 19654m | 4.0m/s | -53.6°C | 4.1% | 61.7hPa | 2.6V | 00:00:00 | 01:50:12 | 00:00:00 | |
| OE5MMP-10 | 2026-08-31 23:55:47 | 49.36487 | 13.24937 | 54° | 11km/h | 19649m | 5.1m/s | -53.6°C | 4.1% | 61.8hPa | 2.7V | 00:00:00 | 01:50:11 | 00:00:00 | |
| PETON7-10 | 2026-08-31 23:55:44 | 49.36484 | 13.24925 | 90° | 15km/h | 19634m | 4.3m/s | -53.8°C | 4.1% | 61.9hPa | 2.7V | 04:11:00 | 01:50:08 | 00:00:00 | |
| DL6DJ-15 | 2026-08-31 23:55:41 | 49.36483 | 13.24918 | 43° | 5km/h | 19618m | 4.3m/s | -53.8°C | 1.2% | 62.1hPa | 2.7V | 00:00:00 | 00:00:00 | 00:00:00 | |
| EDDB2-12 | 2026-08-31 23:55:40 | 49.36481 | 13.24916 | 46° | 7km/h | 19614m | 4.3m/s | -53.8°C | 1.2% | 62.1hPa | 2.7V | 00:00:00 | 00:00:00 | 00:00:00 | |
| DO8TBO-1 | 2026-08-31 23:55:39 | 49.36480 | 13.24913 | 54° | 18km/h | 19609m | 5.7m/s | -53.7°C | 4.1% | 62.2hPa | 2.7V | 00:00:00 | 01:50:03 | 00:00:00 | |
| DO3MHA-11 | 2026-08-31 23:55:38 | 49.36477 | 13.24908 | 57° | 18km/h | 19604m | 5.2m/s | -53.7°C | 4.1% | 62.2hPa | 2.7V | 00:00:00 | 01:50:02 | 00:00:00 | |
| OE5MMP-10 | 2026-08-31 23:55:37 | 49.36475 | 13.24902 | 56° | 18km/h | 19599m | 4.7m/s | -53.7°C | 4.0% | 62.2hPa | 2.7V | 04:11:00 | 01:50:01 | 00:00:00 | |
| OE5WHR-10 | 2026-08-31 23:55:34 | 49.36464 | 13.24883 | 49° | 29km/h | 19583m | 4.3m/s | -53.8°C | 4.1% | 62.4hPa | 2.7V | 00:00:00 | 00:00:00 | 00:00:00 | |
| PETON7-10 | 2026-08-31 23:55:29 | 49.36455 | 13.24852 | 69° | 15km/h | 19559m | 5.5m/s | -54.2°C | 4.3% | 62.6hPa | 2.7V | 00:00:00 | 00:00:00 | 00:00:00 | |
| DO3MHA-11 | 2026-08-31 23:55:28 | 49.36453 | 13.24847 | 52° | 16km/h | 19553m | 5.1m/s | -54.1°C | 4.3% | 62.7hPa | 2.7V | 04:11:00 | 01:49:52 | 00:00:00 | |
| OE5MMP-10 | 2026-08-31 23:55:27 | 49.36451 | 13.24843 | 42° | 16km/h | 19549m | 4.3m/s | -54.1°C | 4.3% | 62.7hPa | 2.7V | 00:00:00 | 01:49:51 | 00:00:00 | |
| SONCRA | 2026-08-31 23:55:26 | 49.36448 | 13.24839 | 37° | 15km/h | 19544m | 4.2m/s | -54.2°C | 1.2% | 62.8hPa | 2.7V | 00:00:00 | 00:00:00 | 00:00:00 | |
| S52SK | 2026-08-31 23:55:25 | 49.36445 | 13.24835 | 41° | 16km/h | 19540m | 5.4m/s | -54.1°C | 0% | 62.9hPa | 2.7V | 00:00:00 | 00:00:00 | 00:00:00 | |
| SONDE2-11 | 2026-08-31 23:55:24 | 49.36442 | 13.24831 | 45° | 16km/h | 19534m | 5.0m/s | -54.1°C | 1.2% | 62.9hPa | 2.7V | 00:00:00 | 00:00:00 | 00:00:00 | |
| S52SK | 2026-08-31 23:55:19 | 49.36430 | 13.24815 | 35° | 15km/h | 19515m | 4.3m/s | -54.1°C | 0% | 63.1hPa | 2.7V | 00:00:00 | 00:00:00 | 00:00:00 | |
| DO3MHA-11 | 2026-08-31 23:55:18 | 49.36424 | 13.24808 | 51° | 11km/h | 19506m | 5.8m/s | -54.0°C | 4.3% | 63.2hPa | 2.7V | 00:00:00 | 01:49:42 | 00:00:00 | |
| OE5MMP-10 | 2026-08-31 23:55:17 | 49.36422 | 13.24803 | 63° | 11km/h | 19500m | 5.0m/s | -53.9°C | 4.2% | 63.2hPa | 2.6V | 00:00:00 | 01:49:41 | 00:00:00 | |
| PETON7-10 | 2026-08-31 23:55:14 | 49.36418 | 13.24791 | 47° | 13km/h | 19485m | 5.1m/s | -53.9°C | 4.2% | 63.4hPa | 2.6V | 00:00:00 | 00:00:00 | 00:00:00 | |
| OE5DRO-10 | 2026-08-31 23:55:10 | 49.36411 | 13.24777 | 74° | 13km/h | 19466m | 4.7m/s | -53.8°C | 4.1% | 63.6hPa | 2.6V | 04:12:00 | 00:00:00 | 00:00:00 | |
| EDDB2-12 | 2026-08-31 23:55:09 | 49.36411 | 13.24774 | 70° | 9km/h | 19461m | 4.0m/s | -53.8°C | 1.2% | 63.6hPa | 2.6V | 00:00:00 | 00:00:00 | 00:00:00 | |
| DO3MHA-11 | 2026-08-31 23:55:08 | 49.36409 | 13.24770 | 60° | 13km/h | 19457m | 5.1m/s | -53.7°C | 4.1% | 63.7hPa | 2.6V | 00:00:00 | 01:49:32 | 00:00:00 | |
| OE5MMP-10 | 2026-08-31 23:55:07 | 49.36408 | 13.24767 | 48° | 15km/h | 19451m | 5.1m/s | -53.7°C | 4.1% | 63.7hPa | 2.6V | 00:00:00 | 01:49:31 | 00:00:00 | |
| SONCRA | 2026-08-31 23:54:55 | 49.36396 | 13.24698 | 90° | 9km/h | 19383m | 4.7m/s | -54.0°C | 1.2% | 64.4hPa | 2.6V | 00:00:00 | 00:00:00 | 00:00:00 | |
| SONDE2-11 | 2026-08-31 23:54:53 | 49.36396 | 13.24698 | 90° | 9km/h | 19383m | 4.7m/s | -54.0°C | 1.2% | 64.4hPa | 2.6V | 00:00:00 | 00:00:00 | 00:00:00 | |
| OE5DRO-10 | 2026-08-31 23:54:51 | 49.36396 | 13.24690 | 96° | 18km/h | 19374m | 5.3m/s | -53.9°C | 4.1% | 64.5hPa | 2.6V | 00:00:00 | 00:00:00 | 00:00:00 | |
| DO3MHA-11 | 2026-08-31 23:54:48 | 49.36399 | 13.24669 | 106° | 20km/h | 19360m | 3.7m/s | -53.9°C | 4.1% | 64.6hPa | 2.6V | 00:00:00 | 01:49:12 | 00:00:00 | |
| OE5MMP-10 | 2026-08-31 23:54:47 | 49.36401 | 13.24662 | 104° | 20km/h | 19356m | 5.2m/s | -53.9°C | 4.1% | 64.7hPa | 2.7V | 04:12:00 | 01:49:11 | 00:00:00 | |
| PETON7-10 | 2026-08-31 23:54:44 | 49.36404 | 13.24640 | 109° | 18km/h | 19341m | 5.2m/s | -54.0°C | 4.1% | 64.8hPa | 2.7V | 00:00:00 | 00:00:00 | 00:00:00 | |
| DL6DJ-15 | 2026-08-31 23:54:40 | 49.36416 | 13.24604 | 116° | 16km/h | 19317m | 4.0m/s | -54.2°C | 1.2% | 65.1hPa | 2.6V | 00:00:00 | 00:00:00 | 00:00:00 | |
| DO3MHA-11 | 2026-08-31 23:54:38 | 49.36418 | 13.24598 | 120° | 18km/h | 19313m | 3.8m/s | -54.2°C | 4.1% | 65.1hPa | 2.6V | 04:12:00 | 01:49:02 | 00:00:00 | |
| EDDB2-11 | 2026-08-31 23:54:37 | 49.36423 | 13.24587 | 124° | 16km/h | 19304m | 4.5m/s | -54.2°C | 1.2% | 65.2hPa | 2.6V | 00:00:00 | 00:00:00 | 00:00:00 | |
| DL1JEZ-13 | 2026-08-31 23:54:33 | 49.36427 | 13.24575 | 113° | 16km/h | 19295m | 4.9m/s | -54.3°C | 1.2% | 65.3hPa | 2.6V | 04:13:00 | 00:00:00 | 00:00:00 | |
| OE5DRO-10 | 2026-08-31 23:54:32 | 49.36429 | 13.24562 | 99° | 22km/h | 19286m | 3.9m/s | -54.4°C | 4.2% | 65.4hPa | 2.6V | 00:00:00 | 00:00:00 | 00:00:00 | |
| DF8AY | 2026-08-31 23:54:14 | 49.36438 | 13.24410 | 91° | 26km/h | 19207m | 3.7m/s | 0°C | 0% | 0hPa | 2.6V | 18:12:15 | 01:48:38 | 00:00:00 | |
| PETON7-10 | 2026-08-31 23:54:14 | 49.36438 | 13.24410 | 92° | 24km/h | 19207m | 3.6m/s | -54.5°C | 4.3% | 66.2hPa | 2.6V | 00:00:00 | 01:48:38 | 00:00:00 | |
| DF8AY | 2026-08-31 23:53:57 | 49.36414 | 13.24259 | 75° | 20km/h | 19123m | 3.5m/s | 0°C | 0% | 0hPa | 2.6V | 18:12:15 | 01:48:20 | 00:00:00 | |
| SONCRA | 2026-08-31 23:53:53 | 49.36403 | 13.24233 | 53° | 22km/h | 19105m | 5.2m/s | -54.2°C | 1.2% | 67.3hPa | 2.7V | 00:00:00 | 00:00:00 | 00:00:00 | |
| SONDE2-11 | 2026-08-31 23:53:51 | 49.36400 | 13.24225 | 55° | 24km/h | 19100m | 4.4m/s | -54.2°C | 1.2% | 67.3hPa | 2.7V | 00:00:00 | 00:00:00 | 00:00:00 | |
| DF8AY | 2026-08-31 23:53:43 | 49.36377 | 13.24169 | 79° | 18km/h | 19065m | 3.6m/s | 0°C | 0% | 0hPa | 2.7V | 18:12:15 | 01:48:07 | 00:00:00 | |
| PG1ADW-2 | 2026-08-31 23:53:38 | 49.36367 | 13.24140 | 54° | 22km/h | 19042m | 4.8m/s | -54.0°C | 4.1% | 67.9hPa | 2.7V | 00:00:00 | 01:48:02 | 00:00:00 | |
| OE5MMP-10 | 2026-08-31 23:53:37 | 49.36364 | 13.24133 | 55° | 22km/h | 19038m | 4.0m/s | -54.1°C | 4.2% | 68.0hPa | 2.6V | 00:00:00 | 01:48:01 | 00:00:00 | |
| EDDB2-12 | 2026-08-31 23:53:36 | 49.36361 | 13.24126 | 52° | 22km/h | 19033m | 4.1m/s | -54.3°C | 1.2% | 68.0hPa | 2.6V | 00:00:00 | 00:00:00 | 00:00:00 | |
| EDDB2-11 | 2026-08-31 23:53:35 | 49.36354 | 13.24112 | 52° | 22km/h | 19024m | 3.8m/s | -54.4°C | 1.2% | 68.1hPa | 2.6V | 00:00:00 | 00:00:00 | 00:00:00 | |
| DO3MHA-11 | 2026-08-31 23:53:31 | 49.36346 | 13.24088 | 76° | 20km/h | 19011m | 4.2m/s | -54.3°C | 4.3% | 68.2hPa | 2.6V | 00:00:00 | 01:47:55 | 00:00:00 | |
| PETON7-10 | 2026-08-31 23:53:29 | 49.36344 | 13.24072 | 84° | 20km/h | 19002m | 5.0m/s | -54.2°C | 4.3% | 68.4hPa | 2.6V | 00:00:00 | 01:47:53 | 00:00:00 | |
| OE5MMP-10 | 2026-08-31 23:53:27 | 49.36343 | 13.24058 | 90° | 20km/h | 18994m | 3.4m/s | -54.2°C | 4.2% | 68.4hPa | 2.6V | 00:00:00 | 01:47:51 | 00:00:00 | |
| OE5DXL-15 | 2026-08-31 23:53:24 | 49.36339 | 13.24019 | 65° | 20km/h | 18973m | 4.7m/s | -54.1°C | 4.2% | 68.6hPa | 2.7V | 00:00:00 | 00:00:00 | 00:00:00 | |
| SONCRA | 2026-08-31 23:53:22 | 49.36339 | 13.24019 | 64° | 20km/h | 18973m | 4.8m/s | -54.1°C | 1.2% | 68.7hPa | 2.7V | 00:00:00 | 00:00:00 | 00:00:00 | |
| DO3MHA-11 | 2026-08-31 23:53:20 | 49.36333 | 13.24006 | 49° | 20km/h | 18964m | 3.4m/s | -54.0°C | 4.2% | 68.7hPa | 2.7V | 00:00:00 | 01:47:44 | 00:00:00 | |
| PG1ADW-2 | 2026-08-31 23:53:18 | 49.36327 | 13.23992 | 58° | 20km/h | 18956m | 4.9m/s | -54.0°C | 4.3% | 68.8hPa | 2.6V | 00:00:00 | 00:00:00 | 00:00:00 | |
| OE5MMP-10 | 2026-08-31 23:53:17 | 49.36324 | 13.23985 | 66° | 18km/h | 18952m | 4.2m/s | -54.0°C | 4.2% | 68.9hPa | 2.6V | 00:00:00 | 01:47:41 | 00:00:00 | |
| OE5DRO-10 | 2026-08-31 23:53:16 | 49.36322 | 13.23976 | 70° | 20km/h | 18947m | 3.9m/s | -54.0°C | 4.2% | 68.9hPa | 2.6V | 00:00:00 | 00:00:00 | 00:00:00 | |
| PETON7-10 | 2026-08-31 23:53:14 | 49.36318 | 13.23962 | 68° | 20km/h | 18938m | 4.9m/s | -53.9°C | 4.2% | 69.0hPa | 2.7V | 04:14:00 | 00:00:00 | 00:00:00 | |
| DO3MHA-11 | 2026-08-31 23:53:10 | 49.36311 | 13.23937 | 69° | 20km/h | 18921m | 4.2m/s | -53.8°C | 4.2% | 69.2hPa | 2.6V | 00:00:00 | 01:47:34 | 00:00:00 | |
| SP3BTT-10 | 2026-08-31 23:53:09 | 49.36309 | 13.23930 | 67° | 24km/h | 18917m | 3.9m/s | -53.8°C | 4.2% | 69.2hPa | 2.6V | 00:00:00 | 00:00:00 | 00:00:00 | |
| OE5MMP-10 | 2026-08-31 23:53:07 | 49.36305 | 13.23918 | 57° | 22km/h | 18908m | 4.0m/s | -53.7°C | 4.1% | 69.4hPa | 2.6V | 04:14:00 | 01:47:31 | 00:00:00 | |
| DL6DJ-15 | 2026-08-31 23:53:06 | 49.36302 | 13.23912 | 56° | 18km/h | 18903m | 3.6m/s | -53.8°C | 1.2% | 69.4hPa | 2.6V | 00:00:00 | 00:00:00 | 00:00:00 | |
| DO8TBO-1 | 2026-08-31 23:53:05 | 49.36299 | 13.23905 | 59° | 22km/h | 18899m | 5.3m/s | -53.7°C | 4.1% | 69.4hPa | 2.6V | 00:00:00 | 01:47:29 | 00:00:00 | |
| EDDB2-11 | 2026-08-31 23:53:04 | 49.36293 | 13.23890 | 59° | 22km/h | 18890m | 4.0m/s | -53.8°C | 1.2% | 69.6hPa | 2.6V | 00:00:00 | 00:00:00 | 00:00:00 | |
| SONCRA | 2026-08-31 23:52:51 | 49.36265 | 13.23805 | 69° | 20km/h | 18838m | 4.0m/s | -53.6°C | 1.2% | 70.2hPa | 2.6V | 00:00:00 | 00:00:00 | 00:00:00 | |
| SONDE2-11 | 2026-08-31 23:52:49 | 49.36262 | 13.23790 | 68° | 18km/h | 18829m | 5.1m/s | -53.5°C | 1.2% | 70.3hPa | 2.6V | 00:00:00 | 00:00:00 | 00:00:00 | |
| OE5MMP-10 | 2026-08-31 23:52:47 | 49.36258 | 13.23776 | 72° | 22km/h | 18821m | 3.8m/s | -53.5°C | 4.1% | 70.3hPa | 2.6V | 00:00:00 | 01:47:11 | 00:00:00 | |
| PETON7-10 | 2026-08-31 23:52:44 | 49.36255 | 13.23751 | 85° | 24km/h | 18807m | 3.7m/s | -53.5°C | 4.1% | 70.5hPa | 2.6V | 00:00:00 | 01:47:08 | 00:00:00 | |
| DL1JEZ-13 | 2026-08-31 23:52:41 | 49.36254 | 13.23725 | 85° | 20km/h | 18795m | 3.8m/s | -53.5°C | 1.2% | 70.7hPa | 2.6V | 00:00:00 | 00:00:00 | 00:00:00 | |
| DO3MHA-11 | 2026-08-31 23:52:40 | 49.36253 | 13.23717 | 84° | 26km/h | 18791m | 3.3m/s | -53.5°C | 4.1% | 70.6hPa | 2.6V | 00:00:00 | 01:47:04 | 00:00:00 | |
| PG1ADW-2 | 2026-08-31 23:52:38 | 49.36251 | 13.23699 | 79° | 27km/h | 18782m | 4.1m/s | -53.5°C | 4.2% | 70.7hPa | 2.6V | 00:00:00 | 00:00:00 | 00:00:00 | |
| OE5MMP-10 | 2026-08-31 23:52:37 | 49.36250 | 13.23689 | 76° | 26km/h | 18778m | 3.9m/s | -53.5°C | 4.2% | 70.8hPa | 2.7V | 00:00:00 | 01:47:01 | 00:00:00 | |
| DO8TBO-1 | 2026-08-31 23:52:35 | 49.36246 | 13.23671 | 72° | 27km/h | 18770m | 4.1m/s | -53.5°C | 4.2% | 70.8hPa | 2.7V | 00:00:00 | 01:46:59 | 00:00:00 | |
| EDDB2-12 | 2026-08-31 23:52:34 | 49.36245 | 13.23662 | 71° | 22km/h | 18766m | 3.7m/s | -53.6°C | 1.2% | 70.9hPa | 2.7V | 00:00:00 | 00:00:00 | 00:00:00 | |
| EDDB2-11 | 2026-08-31 23:52:32 | 49.36241 | 13.23643 | 78° | 26km/h | 18757m | 4.8m/s | -53.5°C | 1.2% | 71.1hPa | 2.7V | 00:00:00 | 00:00:00 | 00:00:00 | |
| DO3MHA-11 | 2026-08-31 23:52:30 | 49.36240 | 13.23622 | 88° | 27km/h | 18750m | 3.4m/s | -53.5°C | 4.1% | 71.1hPa | 2.7V | 00:00:00 | 01:46:54 | 00:00:00 | |
| PETON7-10 | 2026-08-31 23:52:28 | 49.36240 | 13.23603 | 99° | 27km/h | 18741m | 4.0m/s | -53.4°C | 4.1% | 71.2hPa | 2.7V | 00:00:00 | 00:00:00 | 00:00:00 | |
| OE5MMP-10 | 2026-08-31 23:52:27 | 49.36241 | 13.23593 | 101° | 27km/h | 18738m | 3.5m/s | -53.4°C | 4.1% | 71.2hPa | 2.7V | 00:00:00 | 01:46:51 | 00:00:00 | |
| DO3MHA-11 | 2026-08-31 23:52:20 | 49.36245 | 13.23519 | 89° | 27km/h | 18710m | 4.1m/s | -53.3°C | 4.0% | 71.5hPa | 2.6V | 00:00:00 | 01:46:44 | 00:00:00 | |
| OE5DRO-10 | 2026-08-31 23:52:19 | 49.36245 | 13.23508 | 89° | 26km/h | 18706m | 4.3m/s | -53.2°C | 4.0% | 71.6hPa | 2.6V | 00:00:00 | 00:00:00 | 00:00:00 | |
| PG1ADW-2 | 2026-08-31 23:52:18 | 49.36245 | 13.23495 | 90° | 26km/h | 18702m | 3.5m/s | -53.2°C | 4.0% | 71.6hPa | 2.7V | 00:00:00 | 01:46:42 | 00:00:00 | |
| OE5MMP-10 | 2026-08-31 23:52:17 | 49.36245 | 13.23483 | 90° | 26km/h | 18698m | 3.9m/s | -53.2°C | 4.0% | 71.7hPa | 2.7V | 04:15:00 | 01:46:41 | 00:00:00 | |
| PETON7-10 | 2026-08-31 23:52:13 | 49.36243 | 13.23441 | 83° | 26km/h | 18682m | 4.8m/s | -53.1°C | 4.0% | 71.8hPa | 2.7V | 00:00:00 | 00:00:00 | 00:00:00 | |
| DO3MHA-11 | 2026-08-31 23:52:10 | 49.36240 | 13.23411 | 82° | 24km/h | 18670m | 5.0m/s | -53.1°C | 4.0% | 72.0hPa | 2.7V | 00:00:00 | 01:46:34 | 00:00:00 | |
| OE5MMP-10 | 2026-08-31 23:52:07 | 49.36238 | 13.23384 | 87° | 26km/h | 18658m | 4.7m/s | -53.1°C | 4.0% | 72.1hPa | 2.7V | 00:00:00 | 01:46:31 | 00:00:00 | |
| DO8TBO-1 | 2026-08-31 23:52:05 | 49.36238 | 13.23363 | 90° | 22km/h | 18650m | 3.0m/s | -53.1°C | 4.0% | 72.2hPa | 2.7V | 00:00:00 | 01:46:29 | 00:00:00 | |
| DL6DJ-15 | 2026-08-31 23:52:04 | 49.36238 | 13.23352 | 90° | 26km/h | 18646m | 3.8m/s | -53.2°C | 1.2% | 72.3hPa | 2.6V | 00:00:00 | 00:00:00 | 00:00:00 | |
| EDDB2-12 | 2026-08-31 23:52:03 | 49.36238 | 13.23342 | 91° | 24km/h | 18642m | 4.3m/s | -53.2°C | 1.2% | 72.3hPa | 2.6V | 00:00:00 | 00:00:00 | 00:00:00 | |
| EDDB2-11 | 2026-08-31 23:52:02 | 49.36238 | 13.23325 | 90° | 20km/h | 18634m | 3.4m/s | -53.3°C | 1.2% | 72.4hPa | 2.6V | 00:00:00 | 00:00:00 | 00:00:00 | |
| SONCRA | 2026-08-31 23:51:49 | 49.36234 | 13.23217 | 76° | 16km/h | 18587m | 4.3m/s | -53.5°C | 1.2% | 73.0hPa | 2.6V | 00:00:00 | 00:00:00 | 00:00:00 | |
| SONDE2-11 | 2026-08-31 23:51:47 | 49.36231 | 13.23198 | 74° | 18km/h | 18575m | 4.3m/s | -53.5°C | 1.2% | 73.1hPa | 2.6V | 00:00:00 | 00:00:00 | 00:00:00 | |
| DF8AY | 2026-08-31 23:51:35 | 49.36211 | 13.23099 | 79° | 16km/h | 18523m | 3.7m/s | 0°C | 0% | 0hPa | 2.6V | 18:12:15 | 01:45:57 | 00:00:00 | |
| DL6DJ-15 | 2026-08-31 23:51:33 | 49.36211 | 13.23099 | 79° | 16km/h | 18523m | 3.7m/s | -53.2°C | 1.2% | 73.7hPa | 2.7V | 00:00:00 | 00:00:00 | 00:00:00 | |
| EDDB2-11 | 2026-08-31 23:51:31 | 49.36208 | 13.23082 | 76° | 13km/h | 18511m | 3.1m/s | -53.3°C | 1.2% | 73.8hPa | 2.7V | 00:00:00 | 00:00:00 | 00:00:00 | |
| PETON7-10 | 2026-08-31 23:51:28 | 49.36207 | 13.23069 | 85° | 24km/h | 18503m | 4.6m/s | -53.3°C | 4.1% | 73.8hPa | 2.7V | 00:00:00 | 00:00:00 | 00:00:00 | |
| OE5MMP-10 | 2026-08-31 23:51:27 | 49.36206 | 13.23060 | 85° | 24km/h | 18499m | 3.4m/s | -53.3°C | 4.1% | 73.9hPa | 2.7V | 04:15:00 | 01:45:51 | 00:00:00 | |
| OE5DRO-10 | 2026-08-31 23:51:22 | 49.36204 | 13.23011 | 90° | 26km/h | 18478m | 4.6m/s | -53.3°C | 4.1% | 74.2hPa | 2.7V | 00:00:00 | 00:00:00 | 00:00:00 | |
| PG1ADW-2 | 2026-08-31 23:51:18 | 49.36205 | 13.22977 | 90° | 26km/h | 18461m | 2.5m/s | -53.3°C | 4.1% | 74.3hPa | 2.7V | 04:16:00 | 00:00:00 | 00:00:00 | |
| OE5MMP-10 | 2026-08-31 23:51:17 | 49.36205 | 13.22971 | 82° | 27km/h | 18459m | 3.3m/s | -53.2°C | 4.1% | 74.4hPa | 2.7V | 00:00:00 | 01:45:41 | 00:00:00 | |
| SONDE2-11 | 2026-08-31 23:51:16 | 49.36202 | 13.22955 | 73° | 24km/h | 18450m | 4.0m/s | -53.2°C | 1.2% | 74.5hPa | 2.7V | 00:00:00 | 00:00:00 | 00:00:00 | |
| PETON7-10 | 2026-08-31 23:51:13 | 49.36199 | 13.22935 | 76° | 27km/h | 18443m | 4.3m/s | -53.2°C | 4.0% | 74.6hPa | 2.7V | 00:00:00 | 01:45:37 | 00:00:00 | |
| OE5MMP-10 | 2026-08-31 23:51:07 | 49.36190 | 13.22865 | 81° | 26km/h | 18419m | 3.2m/s | -53.1°C | 4.0% | 74.8hPa | 2.7V | 00:00:00 | 01:45:31 | 00:00:00 | |
| DO8TBO-1 | 2026-08-31 23:51:05 | 49.36188 | 13.22844 | 85° | 27km/h | 18411m | 3.5m/s | -53.0°C | 4.0% | 74.9hPa | 2.7V | 00:00:00 | 01:45:29 | 00:00:00 | |
| OE5DRO-10 | 2026-08-31 23:51:03 | 49.36186 | 13.22827 | 75° | 26km/h | 18404m | 4.0m/s | -53.0°C | 4.0% | 75.0hPa | 2.7V | 00:00:00 | 00:00:00 | 00:00:00 | |
| DL6DJ-15 | 2026-08-31 23:51:02 | 49.36185 | 13.22820 | 68° | 22km/h | 18400m | 4.2m/s | -53.0°C | 1.2% | 75.1hPa | 2.7V | 00:00:00 | 00:00:00 | 00:00:00 | |
| EDDB2-12 | 2026-08-31 23:51:01 | 49.36182 | 13.22811 | 66° | 24km/h | 18397m | 3.0m/s | -53.0°C | 1.2% | 75.1hPa | 2.7V | 00:00:00 | 00:00:00 | 00:00:00 | |
| EDDB2-11 | 2026-08-31 23:51:00 | 49.36178 | 13.22793 | 75° | 26km/h | 18389m | 4.6m/s | -53.0°C | 1.2% | 75.2hPa | 2.7V | 00:00:00 | 00:00:00 | 00:00:00 | |
| SONCRA | 2026-08-31 23:50:47 | 49.36152 | 13.22660 | 63° | 20km/h | 18337m | 4.8m/s | -53.4°C | 1.2% | 75.8hPa | 2.7V | 00:00:00 | 00:00:00 | 00:00:00 | |
| SONDE2-11 | 2026-08-31 23:50:45 | 49.36147 | 13.22645 | 64° | 22km/h | 18329m | 2.9m/s | -53.4°C | 1.2% | 75.9hPa | 2.7V | 00:00:00 | 00:00:00 | 00:00:00 | |
| OE5DRO-10 | 2026-08-31 23:50:44 | 49.36147 | 13.22645 | 65° | 29km/h | 18330m | 2.8m/s | -53.3°C | 3.9% | 75.9hPa | 2.7V | 00:00:00 | 00:00:00 | 00:00:00 | |
| PETON7-10 | 2026-08-31 23:50:43 | 49.36145 | 13.22636 | 62° | 31km/h | 18326m | 4.4m/s | -53.4°C | 3.9% | 75.9hPa | 2.7V | 04:16:00 | 00:00:00 | 00:00:00 | |
| OE5MMP-10 | 2026-08-31 23:50:38 | 49.36126 | 13.22569 | 73° | 31km/h | 18302m | 3.7m/s | -54.2°C | 4.1% | 76.2hPa | 2.7V | 04:16:00 | 01:45:01 | 00:00:00 | |
| EDDB2-12 | 2026-08-31 23:50:37 | 49.36101 | 13.22483 | 57° | 27km/h | 18269m | 4.7m/s | -55.0°C | 1.3% | 76.6hPa | 2.7V | 00:00:00 | 00:00:00 | 00:00:00 | |
| OE5MMP-10 | 2026-08-31 23:50:36 | 49.36092 | 13.22464 | 56° | 31km/h | 18261m | 4.0m/s | -54.9°C | 4.5% | 76.7hPa | 2.7V | 00:00:00 | 01:44:51 | 00:00:00 | |
| OE5DRO-10 | 2026-08-31 23:50:35 | 49.36085 | 13.22445 | 62° | 31km/h | 18252m | 3.8m/s | -54.9°C | 4.5% | 76.8hPa | 2.6V | 04:17:00 | 00:00:00 | 00:00:00 | |
| PG1ADW-2 | 2026-08-31 23:50:18 | 49.36061 | 13.22367 | 64° | 27km/h | 18222m | 3.6m/s | -54.9°C | 4.4% | 77.2hPa | 2.6V | 00:00:00 | 00:00:00 | 00:00:00 | |
| OE5MMP-10 | 2026-08-31 23:50:17 | 49.36057 | 13.22357 | 63° | 29km/h | 18218m | 4.7m/s | -54.9°C | 4.4% | 77.2hPa | 2.6V | 00:00:00 | 01:44:41 | 00:00:00 | |
| SONCRA | 2026-08-31 23:50:16 | 49.36054 | 13.22347 | 60° | 29km/h | 18212m | 4.6m/s | -54.9°C | 1.3% | 77.3hPa | 2.6V | 00:00:00 | 00:00:00 | 00:00:00 | |
| SONDE2-11 | 2026-08-31 23:50:14 | 49.36043 | 13.22319 | 62° | 24km/h | 18199m | 4.7m/s | -54.9°C | 1.3% | 77.5hPa | 2.6V | 00:00:00 | 00:00:00 | 00:00:00 | |
| PETON7-10 | 2026-08-31 23:50:13 | 49.36043 | 13.22319 | 63° | 27km/h | 18199m | 4.6m/s | -54.8°C | 4.4% | 77.4hPa | 2.6V | 00:00:00 | 00:00:00 | 00:00:00 | |
| OE5MMP-10 | 2026-08-31 23:50:07 | 49.36031 | 13.22253 | 81° | 26km/h | 18172m | 5.1m/s | -54.7°C | 4.4% | 77.8hPa | 2.7V | 00:00:00 | 01:44:31 | 00:00:00 | |
| OE5DRO-10 | 2026-08-31 23:50:06 | 49.36030 | 13.22242 | 82° | 26km/h | 18168m | 3.9m/s | -54.6°C | 4.4% | 77.8hPa | 2.7V | 00:00:00 | 00:00:00 | 00:00:00 | |
| DL6DJ-15 | 2026-08-31 23:50:00 | 49.36017 | 13.22176 | 70° | 22km/h | 18137m | 3.4m/s | -54.4°C | 1.3% | 78.2hPa | 2.7V | 00:00:00 | 00:00:00 | 00:00:00 | |
| EDDB2-12 | 2026-08-31 23:49:59 | 49.36015 | 13.22167 | 70° | 24km/h | 18133m | 5.1m/s | -54.4°C | 1.3% | 78.3hPa | 2.7V | 00:00:00 | 00:00:00 | 00:00:00 | |
| EDDB2-11 | 2026-08-31 23:49:57 | 49.36013 | 13.22157 | 76° | 27km/h | 18129m | 4.2m/s | -54.4°C | 1.3% | 78.3hPa | 2.7V | 00:00:00 | 00:00:00 | 00:00:00 | |
| SONCRA | 2026-08-31 23:49:45 | 49.36008 | 13.22031 | 91° | 20km/h | 18072m | 3.7m/s | -54.0°C | 1.3% | 79.1hPa | 2.7V | 00:00:00 | 00:00:00 | 00:00:00 | |
| DK5PH-5 | 2026-08-31 23:49:44 | 49.36008 | 13.22031 | 92° | 22km/h | 18072m | 3.6m/s | 0°C | 0% | 0hPa | 2.7V | 00:00:00 | 01:44:08 | 00:00:00 | |
| SONDE2-11 | 2026-08-31 23:49:43 | 49.36007 | 13.22015 | 74° | 20km/h | 18063m | 5.3m/s | -53.9°C | 1.3% | 79.2hPa | 2.7V | 00:00:00 | 00:00:00 | 00:00:00 | |
| DL1JEZ-13 | 2026-08-31 23:49:41 | 49.36006 | 13.22015 | 76° | 22km/h | 18063m | 5.3m/s | -53.9°C | 1.3% | 79.2hPa | 2.7V | 00:00:00 | 00:00:00 | 00:00:00 | |
| PG1ADW-2 | 2026-08-31 23:49:38 | 49.36000 | 13.21985 | 82° | 20km/h | 18044m | 5.0m/s | -53.7°C | 4.2% | 79.3hPa | 2.7V | 04:17:00 | 01:44:02 | 00:00:00 | |
| OE5MMP-10 | 2026-08-31 23:49:37 | 49.35999 | 13.21978 | 89° | 22km/h | 18040m | 4.0m/s | -53.7°C | 4.2% | 79.4hPa | 2.6V | 00:00:00 | 01:44:01 | 00:00:00 | |
| DO3MHA-11 | 2026-08-31 23:49:36 | 49.35999 | 13.21970 | 90° | 22km/h | 18036m | 4.5m/s | -53.7°C | 4.2% | 79.5hPa | 2.6V | 00:00:00 | 01:44:00 | 00:00:00 | |
| OE5DXL-15 | 2026-08-31 23:49:31 | 49.36001 | 13.21908 | 88° | 18km/h | 18001m | 5.1m/s | -53.5°C | 4.0% | 79.9hPa | 2.6V | 00:00:00 | 00:00:00 | 00:00:00 | |
| DL6DJ-15 | 2026-08-31 23:49:29 | 49.36000 | 13.21900 | 85° | 22km/h | 17997m | 4.2m/s | -53.6°C | 1.2% | 80.0hPa | 2.6V | 00:00:00 | 00:00:00 | 00:00:00 | |
| PETON7-10 | 2026-08-31 23:49:28 | 49.36000 | 13.21899 | 86° | 18km/h | 17997m | 4.1m/s | -53.5°C | 4.1% | 79.9hPa | 2.6V | 04:17:00 | 00:00:00 | 00:00:00 | |
| OE5MMP-10 | 2026-08-31 23:49:27 | 49.36000 | 13.21891 | 87° | 16km/h | 17992m | 5.5m/s | -53.6°C | 4.1% | 80.0hPa | 2.6V | 00:00:00 | 01:43:51 | 00:00:00 | |
| DO3MHA-11 | 2026-08-31 23:49:26 | 49.35999 | 13.21883 | 90° | 15km/h | 17987m | 5.0m/s | -53.7°C | 4.1% | 80.0hPa | 2.6V | 00:00:00 | 01:43:50 | 00:00:00 | |
| PG1ADW-2 | 2026-08-31 23:49:18 | 49.35996 | 13.21836 | 102° | 18km/h | 17950m | 3.1m/s | -54.0°C | 4.2% | 80.5hPa | 2.6V | 00:00:00 | 00:00:00 | 00:00:00 | |
| OE5MMP-10 | 2026-08-31 23:49:17 | 49.35997 | 13.21831 | 101° | 20km/h | 17946m | 4.9m/s | -54.0°C | 4.2% | 80.6hPa | 2.6V | 00:00:00 | 01:43:41 | 00:00:00 | |
| DO3MHA-11 | 2026-08-31 23:49:16 | 49.35997 | 13.21825 | 97° | 22km/h | 17941m | 5.0m/s | -54.0°C | 4.2% | 80.6hPa | 2.6V | 04:18:00 | 01:43:40 | 00:00:00 | |
| SP3BTT-10 | 2026-08-31 23:49:14 | 49.35999 | 13.21808 | 99° | 35km/h | 17932m | 4.1m/s | -54.0°C | 4.3% | 80.8hPa | 2.6V | 00:00:00 | 00:00:00 | 00:00:00 | |
| PETON7-10 | 2026-08-31 23:49:13 | 49.36000 | 13.21799 | 103° | 18km/h | 17927m | 5.2m/s | -54.0°C | 4.3% | 80.8hPa | 2.6V | 00:00:00 | 00:00:00 | 00:00:00 | |
| SONDE2-11 | 2026-08-31 23:49:12 | 49.36003 | 13.21782 | 106° | 20km/h | 17917m | 4.2m/s | -54.1°C | 1.3% | 81.0hPa | 2.6V | 00:00:00 | 00:00:00 | 00:00:00 | |
| OE5DRO-10 | 2026-08-31 23:49:09 | 49.36005 | 13.21767 | 98° | 20km/h | 17908m | 5.8m/s | -54.2°C | 4.4% | 81.1hPa | 2.6V | 00:00:00 | 00:00:00 | 00:00:00 | |
| OE5MMP-10 | 2026-08-31 23:49:07 | 49.36006 | 13.21754 | 100° | 18km/h | 17898m | 3.9m/s | -54.2°C | 4.3% | 81.2hPa | 2.6V | 00:00:00 | 01:43:31 | 00:00:00 | |
| DF2AP-13 | 2026-08-31 23:49:06 | 49.36006 | 13.21749 | 111° | 24km/h | 17894m | 5.4m/s | -54.2°C | 4.3% | 81.2hPa | 2.6V | 04:18:00 | 01:43:30 | 00:00:00 | |
| DL6DJ-15 | 2026-08-31 23:48:58 | 49.36021 | 13.21687 | 88° | 24km/h | 17853m | 3.9m/s | -53.9°C | 1.3% | 81.8hPa | 2.7V | 00:00:00 | 00:00:00 | 00:00:00 | |
| EDDB2-12 | 2026-08-31 23:48:57 | 49.36021 | 13.21677 | 85° | 26km/h | 17848m | 5.8m/s | -53.9°C | 1.3% | 81.8hPa | 2.7V | 00:00:00 | 00:00:00 | 00:00:00 | |
| DO3MHA-11 | 2026-08-31 23:48:56 | 49.36021 | 13.21677 | 86° | 27km/h | 17848m | 5.7m/s | -53.8°C | 4.2% | 81.8hPa | 2.7V | 00:00:00 | 01:43:20 | 00:00:00 | |
| S52SK | 2026-08-31 23:48:55 | 49.36020 | 13.21667 | 85° | 27km/h | 17843m | 5.7m/s | -53.8°C | 0% | 81.9hPa | 2.7V | 00:00:00 | 00:00:00 | 00:00:00 | |
| OE5DRO-10 | 2026-08-31 23:48:50 | 49.36025 | 13.21622 | 124° | 26km/h | 17818m | 5.3m/s | -53.6°C | 4.2% | 82.2hPa | 2.7V | 04:18:00 | 00:00:00 | 00:00:00 | |
| OE5MMP-10 | 2026-08-31 23:48:47 | 49.36036 | 13.21597 | 126° | 27km/h | 17802m | 5.1m/s | -53.5°C | 4.2% | 82.4hPa | 2.7V | 00:00:00 | 01:43:11 | 00:00:00 | |
| PETON7-10 | 2026-08-31 23:48:43 | 49.36046 | 13.21559 | 97° | 27km/h | 17782m | 5.8m/s | -53.4°C | 4.2% | 82.7hPa | 2.7V | 00:00:00 | 00:00:00 | 00:00:00 | |
| SONDE2-11 | 2026-08-31 23:48:41 | 49.36047 | 13.21525 | 91° | 26km/h | 17769m | 5.6m/s | -53.5°C | 1.3% | 82.8hPa | 2.7V | 00:00:00 | 00:00:00 | 00:00:00 | |
| PG1ADW-2 | 2026-08-31 23:48:38 | 49.36049 | 13.21507 | 113° | 33km/h | 17758m | 4.5m/s | -53.4°C | 4.2% | 82.9hPa | 2.7V | 00:00:00 | 00:00:00 | 00:00:00 | |
| OE5MMP-10 | 2026-08-31 23:48:37 | 49.36051 | 13.21500 | 123° | 27km/h | 17753m | 4.5m/s | -53.5°C | 4.2% | 83.0hPa | 2.7V | 00:00:00 | 01:43:01 | 00:00:00 | |
| DF2AP-13 | 2026-08-31 23:48:34 | 49.36062 | 13.21475 | 118° | 100km/h | 17738m | 4.6m/s | -53.5°C | 4.1% | 83.2hPa | 2.7V | 00:00:00 | 01:42:58 | 00:00:00 | |
| DL1JEZ-13 | 2026-08-31 23:48:32 | 49.36065 | 13.21465 | 112° | 29km/h | 17734m | 3.9m/s | -53.6°C | 1.3% | 83.3hPa | 2.7V | 00:00:00 | 00:00:00 | 00:00:00 | |
| OE5DRO-10 | 2026-08-31 23:48:31 | 49.36069 | 13.21444 | 99° | 38km/h | 17724m | 5.8m/s | -53.5°C | 4.1% | 83.3hPa | 2.7V | 00:00:00 | 00:00:00 | 00:00:00 | |
| PETON7-10 | 2026-08-31 23:48:28 | 49.36071 | 13.21412 | 101° | 40km/h | 17709m | 5.6m/s | -53.4°C | 4.1% | 83.6hPa | 2.6V | 00:00:00 | 00:00:00 | 00:00:00 | |
| OE5MMP-10 | 2026-08-31 23:48:27 | 49.36073 | 13.21400 | 108° | 40km/h | 17703m | 5.9m/s | -53.4°C | 4.1% | 83.7hPa | 2.6V | 00:00:00 | 01:42:51 | 00:00:00 | |
| EDDB2-12 | 2026-08-31 23:48:26 | 49.36080 | 13.21375 | 115° | 37km/h | 17692m | 5.2m/s | -53.4°C | 1.3% | 83.9hPa | 2.6V | 00:00:00 | 00:00:00 | 00:00:00 | |
| EDDB2-11 | 2026-08-31 23:48:24 | 49.36084 | 13.21361 | 114° | 37km/h | 17686m | 6.2m/s | -53.4°C | 1.3% | 83.9hPa | 2.6V | 00:00:00 | 00:00:00 | 00:00:00 | |
| PG1ADW-2 | 2026-08-31 23:48:18 | 49.36103 | 13.21269 | 106° | 47km/h | 17656m | 4.8m/s | -53.4°C | 4.2% | 84.3hPa | 2.6V | 00:00:00 | 01:42:42 | 00:00:00 | |
| OE5MMP-10 | 2026-08-31 23:48:17 | 49.36106 | 13.21253 | 105° | 46km/h | 17650m | 6.2m/s | -53.4°C | 4.2% | 84.4hPa | 2.6V | 00:00:00 | 01:42:41 | 00:00:00 | |
| PETON7-10 | 2026-08-31 23:48:13 | 49.36119 | 13.21190 | 112° | 49km/h | 17629m | 5.2m/s | -53.3°C | 4.2% | 84.6hPa | 2.6V | 04:19:00 | 01:42:37 | 00:00:00 | |
| SONCRA | 2026-08-31 23:48:12 | 49.36128 | 13.21155 | 109° | 49km/h | 17621m | 4.5m/s | -53.3°C | 1.3% | 84.8hPa | 2.6V | 00:00:00 | 00:00:00 | 00:00:00 | |
| SONDE2-11 | 2026-08-31 23:48:10 | 49.36134 | 13.21118 | 101° | 47km/h | 17610m | 5.3m/s | -53.2°C | 1.3% | 85.0hPa | 2.6V | 00:00:00 | 00:00:00 | 00:00:00 | |
| OE5MMP-10 | 2026-08-31 23:48:07 | 49.36139 | 13.21080 | 101° | 49km/h | 17600m | 5.7m/s | -53.1°C | 4.1% | 85.0hPa | 2.6V | 04:19:00 | 01:42:31 | 00:00:00 | |
| DL6DJ-15 | 2026-08-31 23:47:56 | 49.36165 | 13.20855 | 98° | 47km/h | 17540m | 4.3m/s | -53.0°C | 1.2% | 85.8hPa | 2.6V | 00:00:00 | 00:00:00 | 00:00:00 | |
| EDDB2-12 | 2026-08-31 23:47:55 | 49.36167 | 13.20836 | 99° | 49km/h | 17535m | 5.8m/s | -53.0°C | 1.2% | 85.9hPa | 2.6V | 00:00:00 | 00:00:00 | 00:00:00 | |
| OE5DRO-10 | 2026-08-31 23:47:53 | 49.36169 | 13.20817 | 100° | 49km/h | 17530m | 4.6m/s | -52.9°C | 4.0% | 85.9hPa | 2.6V | 00:00:00 | 00:00:00 | 00:00:00 | |
| OE5DXL-15 | 2026-08-31 23:47:50 | 49.36173 | 13.20724 | 92° | 49km/h | 17505m | 5.1m/s | -52.7°C | 4.0% | 86.3hPa | 2.6V | 00:00:00 | 00:00:00 | 00:00:00 | |
| OE5MMP-10 | 2026-08-31 23:47:47 | 49.36173 | 13.20706 | 94° | 47km/h | 17500m | 5.5m/s | -52.6°C | 4.0% | 86.4hPa | 2.6V | 00:00:00 | 01:42:11 | 00:00:00 | |
| PETON7-10 | 2026-08-31 23:47:43 | 49.36177 | 13.20631 | 92° | 49km/h | 17481m | 5.5m/s | -52.5°C | 4.0% | 86.6hPa | 2.6V | 00:00:00 | 00:00:00 | 00:00:00 | |
| SONDE2-11 | 2026-08-31 23:47:39 | 49.36178 | 13.20540 | 90° | 47km/h | 17457m | 4.5m/s | -52.5°C | 1.2% | 87.0hPa | 2.6V | 00:00:00 | 00:00:00 | 00:00:00 | |
| PG1ADW-2 | 2026-08-31 23:47:38 | 49.36178 | 13.20540 | 91° | 49km/h | 17457m | 4.5m/s | -52.4°C | 3.9% | 86.9hPa | 2.6V | 00:00:00 | 00:00:00 | 00:00:00 | |
| OE5MMP-10 | 2026-08-31 23:47:37 | 49.36178 | 13.20521 | 89° | 51km/h | 17452m | 5.6m/s | -52.4°C | 3.9% | 87.0hPa | 2.7V | 00:00:00 | 01:42:01 | 00:00:00 | |
| OE5DRO-10 | 2026-08-31 23:47:34 | 49.36177 | 13.20460 | 91° | 49km/h | 17439m | 5.3m/s | -52.3°C | 3.8% | 87.2hPa | 2.7V | 00:00:00 | 00:00:00 | 00:00:00 | |
| PETON7-10 | 2026-08-31 23:47:28 | 49.36175 | 13.20344 | 88° | 49km/h | 17410m | 5.4m/s | -52.5°C | 3.9% | 87.5hPa | 2.7V | 00:00:00 | 01:41:52 | 00:00:00 | |
| OE5MMP-10 | 2026-08-31 23:47:27 | 49.36174 | 13.20325 | 88° | 47km/h | 17405m | 4.4m/s | -52.6°C | 3.9% | 87.6hPa | 2.7V | 00:00:00 | 01:41:51 | 00:00:00 | |
| DL6DJ-15 | 2026-08-31 23:47:25 | 49.36170 | 13.20271 | 79° | 47km/h | 17391m | 4.8m/s | -52.7°C | 1.2% | 87.9hPa | 2.7V | 00:00:00 | 00:00:00 | 00:00:00 | |
| S52SK | 2026-08-31 23:47:23 | 49.36171 | 13.20271 | 80° | 47km/h | 17391m | 4.8m/s | -52.7°C | 0% | 87.9hPa | 2.7V | 00:00:00 | 00:00:00 | 00:00:00 | |
| EDDB2-11 | 2026-08-31 23:47:22 | 49.36166 | 13.20234 | 80° | 46km/h | 17382m | 4.8m/s | -52.8°C | 1.2% | 88.0hPa | 2.7V | 00:00:00 | 00:00:00 | 00:00:00 | |
| PG1ADW-2 | 2026-08-31 23:47:18 | 49.36162 | 13.20160 | 85° | 51km/h | 17365m | 4.9m/s | -52.9°C | 3.9% | 88.2hPa | 2.7V | 00:00:00 | 00:00:00 | 00:00:00 | |
| OE5MMP-10 | 2026-08-31 23:47:17 | 49.36160 | 13.20141 | 81° | 55km/h | 17360m | 4.5m/s | -52.9°C | 4.0% | 88.2hPa | 2.7V | 04:20:00 | 01:41:41 | 00:00:00 | |
| OE5DRO-10 | 2026-08-31 23:47:15 | 49.36155 | 13.20101 | 79° | 55km/h | 17352m | 4.4m/s | -53.0°C | 3.9% | 88.3hPa | 2.7V | 04:20:00 | 00:00:00 | 00:00:00 | |
| PETON7-10 | 2026-08-31 23:47:13 | 49.36150 | 13.20062 | 81° | 55km/h | 17342m | 4.6m/s | -53.1°C | 3.9% | 88.5hPa | 2.7V | 00:00:00 | 00:00:00 | 00:00:00 | |
| SONCRA | 2026-08-31 23:47:10 | 49.36140 | 13.19975 | 80° | 60km/h | 17325m | 3.7m/s | -53.5°C | 1.3% | 88.8hPa | 2.6V | 00:00:00 | 00:00:00 | 00:00:00 | |
| SONDE2-11 | 2026-08-31 23:47:08 | 49.36136 | 13.19928 | 83° | 58km/h | 17317m | 4.9m/s | -53.6°C | 1.3% | 88.9hPa | 2.6V | 00:00:00 | 00:00:00 | 00:00:00 | |
| OE5MMP-10 | 2026-08-31 23:47:07 | 49.36136 | 13.19928 | 84° | 53km/h | 17317m | 4.9m/s | -53.6°C | 4.2% | 88.8hPa | 2.6V | 00:00:00 | 01:41:31 | 00:00:00 | |
| DO3MHA-11 | 2026-08-31 23:47:03 | 49.36130 | 13.19849 | 79° | 53km/h | 17300m | 4.3m/s | -53.6°C | 4.1% | 89.0hPa | 2.6V | 00:00:00 | 01:41:27 | 00:00:00 | |
| DL6DJ-15 | 2026-08-31 23:46:54 | 49.36091 | 13.19645 | 75° | 55km/h | 17258m | 3.3m/s | -54.0°C | 1.4% | 89.7hPa | 2.7V | 00:00:00 | 00:00:00 | 00:00:00 | |
| EDDB2-12 | 2026-08-31 23:46:52 | 49.36088 | 13.19624 | 77° | 55km/h | 17254m | 5.0m/s | -54.0°C | 1.3% | 89.8hPa | 2.7V | 00:00:00 | 00:00:00 | 00:00:00 | |
| EDDB2-11 | 2026-08-31 23:46:51 | 49.36085 | 13.19602 | 79° | 57km/h | 17250m | 4.1m/s | -54.0°C | 1.4% | 89.8hPa | 2.7V | 00:00:00 | 00:00:00 | 00:00:00 | |
| OE5MMP-10 | 2026-08-31 23:46:47 | 49.36071 | 13.19517 | 74° | 51km/h | 17234m | 3.5m/s | -53.9°C | 4.3% | 90.0hPa | 2.7V | 00:00:00 | 01:41:11 | 00:00:00 | |
| DB0UT-9 | 2026-08-31 23:46:44 | 49.36064 | 13.19478 | 77° | 51km/h | 17225m | 4.3m/s | 0°C | 0% | 0hPa | 2.7V | 04:20:00 | 00:00:00 | 00:00:00 | |
| PETON7-10 | 2026-08-31 23:46:43 | 49.36058 | 13.19441 | 74° | 49km/h | 17218m | 3.8m/s | -53.8°C | 4.3% | 90.2hPa | 2.7V | 00:00:00 | 01:41:07 | 00:00:00 | |
| DO3MHA-11 | 2026-08-31 23:46:41 | 49.36050 | 13.19405 | 71° | 51km/h | 17210m | 3.6m/s | -53.7°C | 4.2% | 90.3hPa | 2.7V | 00:00:00 | 01:41:05 | 00:00:00 | |
| SONCRA | 2026-08-31 23:46:38 | 49.36033 | 13.19308 | 75° | 53km/h | 17189m | 4.2m/s | -53.6°C | 1.3% | 90.6hPa | 2.7V | 00:00:00 | 00:00:00 | 00:00:00 | |
| SONDE2-11 | 2026-08-31 23:46:37 | 49.36033 | 13.19308 | 75° | 53km/h | 17189m | 4.2m/s | -53.6°C | 1.3% | 90.6hPa | 2.7V | 00:00:00 | 00:00:00 | 00:00:00 | |
| DO3MHA-11 | 2026-08-31 23:46:31 | 49.36014 | 13.19214 | 77° | 49km/h | 17168m | 3.9m/s | -53.5°C | 4.2% | 90.9hPa | 2.7V | 04:20:00 | 01:40:55 | 00:00:00 | |
| PETON7-10 | 2026-08-31 23:46:28 | 49.36005 | 13.19162 | 71° | 49km/h | 17155m | 4.2m/s | -53.4°C | 4.2% | 91.1hPa | 2.6V | 00:00:00 | 00:00:00 | 00:00:00 | |
| OE5MMP-10 | 2026-08-31 23:46:27 | 49.36001 | 13.19144 | 71° | 51km/h | 17151m | 3.3m/s | -53.4°C | 4.2% | 91.1hPa | 2.6V | 04:20:00 | 01:40:51 | 00:00:00 | |
| DL1JEZ-13 | 2026-08-31 23:46:25 | 49.35993 | 13.19108 | 75° | 49km/h | 17143m | 3.5m/s | -53.3°C | 1.3% | 91.3hPa | 2.6V | 00:00:00 | 00:00:00 | 00:00:00 | |
| DL6DJ-15 | 2026-08-31 23:46:22 | 49.35981 | 13.19050 | 72° | 53km/h | 17132m | 3.6m/s | -53.2°C | 1.3% | 91.5hPa | 2.6V | 00:00:00 | 00:00:00 | 00:00:00 | |
| DO3MHA-11 | 2026-08-31 23:46:21 | 49.35977 | 13.19030 | 74° | 47km/h | 17128m | 3.6m/s | -53.2°C | 4.1% | 91.5hPa | 2.6V | 00:00:00 | 01:40:45 | 00:00:00 | |
| EDDB2-11 | 2026-08-31 23:46:20 | 49.35974 | 13.19011 | 76° | 51km/h | 17124m | 4.8m/s | -53.2°C | 1.3% | 91.6hPa | 2.6V | 00:00:00 | 00:00:00 | 00:00:00 | |
| OE5DXL-15 | 2026-08-31 23:46:19 | 49.35968 | 13.18974 | 76° | 46km/h | 17115m | 3.5m/s | -53.1°C | 4.1% | 91.7hPa | 2.6V | 00:00:00 | 00:00:00 | 00:00:00 | |
| OE5DRO-10 | 2026-08-31 23:46:18 | 49.35968 | 13.18974 | 76° | 47km/h | 17115m | 3.5m/s | -53.1°C | 4.1% | 91.7hPa | 2.6V | 00:00:00 | 00:00:00 | 00:00:00 | |
| OE5MMP-10 | 2026-08-31 23:46:17 | 49.35965 | 13.18956 | 74° | 46km/h | 17111m | 4.4m/s | -53.1°C | 4.1% | 91.7hPa | 2.6V | 00:00:00 | 01:40:41 | 00:00:00 | |
| PG1ADW-2 | 2026-08-31 23:46:14 | 49.35953 | 13.18905 | 70° | 47km/h | 17099m | 4.3m/s | -53.1°C | 4.1% | 91.9hPa | 2.6V | 00:00:00 | 00:00:00 | 00:00:00 | |
| PETON7-10 | 2026-08-31 23:46:13 | 49.35949 | 13.18889 | 68° | 47km/h | 17095m | 3.4m/s | -53.1°C | 4.1% | 91.9hPa | 2.7V | 00:00:00 | 00:00:00 | 00:00:00 | |
| DO3MHA-11 | 2026-08-31 23:46:11 | 49.35940 | 13.18856 | 66° | 47km/h | 17088m | 3.9m/s | -53.0°C | 4.1% | 92.0hPa | 2.7V | 00:00:00 | 01:40:35 | 00:00:00 | |
| OE5MMP-10 | 2026-08-31 23:46:07 | 49.35923 | 13.18789 | 74° | 47km/h | 17073m | 4.0m/s | -53.0°C | 4.1% | 92.3hPa | 2.7V | 00:00:00 | 01:40:31 | 00:00:00 | |
| SONDE2-11 | 2026-08-31 23:46:05 | 49.35917 | 13.18756 | 73° | 44km/h | 17066m | 3.4m/s | -53.0°C | 1.3% | 92.4hPa | 2.7V | 00:00:00 | 00:00:00 | 00:00:00 | |
| DL1JEZ-13 | 2026-08-31 23:46:04 | 49.35913 | 13.18739 | 72° | 47km/h | 17062m | 4.6m/s | -53.0°C | 1.3% | 92.5hPa | 2.7V | 00:00:00 | 00:00:00 | 00:00:00 | |
| DL6DJ-15 | 2026-08-31 23:45:51 | 49.35861 | 13.18520 | 66° | 44km/h | 17011m | 3.6m/s | -52.7°C | 1.2% | 93.2hPa | 2.7V | 00:00:00 | 00:00:00 | 00:00:00 | |
| EDDB2-12 | 2026-08-31 23:45:50 | 49.35856 | 13.18504 | 65° | 46km/h | 17007m | 5.1m/s | -52.7°C | 1.2% | 93.2hPa | 2.7V | 00:00:00 | 00:00:00 | 00:00:00 | |
| OE5DXL-15 | 2026-08-31 23:45:49 | 49.35851 | 13.18487 | 64° | 42km/h | 17002m | 4.1m/s | -52.7°C | 3.9% | 93.2hPa | 2.7V | 00:00:00 | 00:00:00 | 00:00:00 | |
| PETON7-10 | 2026-08-31 23:45:43 | 49.35817 | 13.18390 | 64° | 44km/h | 16979m | 3.2m/s | -53.0°C | 4.1% | 93.6hPa | 2.7V | 04:21:00 | 00:00:00 | 00:00:00 | |
| DO3MHA-11 | 2026-08-31 23:45:41 | 49.35807 | 13.18359 | 63° | 44km/h | 16970m | 4.5m/s | -52.9°C | 4.0% | 93.7hPa | 2.6V | 04:21:00 | 01:40:05 | 00:00:00 | |
| OE5DRO-10 | 2026-08-31 23:45:40 | 49.35802 | 13.18345 | 62° | 40km/h | 16966m | 3.9m/s | -52.9°C | 4.0% | 93.8hPa | 2.6V | 04:21:00 | 00:00:00 | 00:00:00 | |
| OE5MMP-10 | 2026-08-31 23:45:37 | 49.35786 | 13.18301 | 61° | 42km/h | 16955m | 2.6m/s | -52.8°C | 4.0% | 94.0hPa | 2.7V | 04:21:00 | 01:40:01 | 00:00:00 | |
| SONCRA | 2026-08-31 23:45:36 | 49.35781 | 13.18286 | 60° | 42km/h | 16951m | 4.2m/s | -52.9°C | 1.2% | 94.1hPa | 2.7V | 00:00:00 | 00:00:00 | 00:00:00 | |
| PG1ADW-2 | 2026-08-31 23:45:34 | 49.35771 | 13.18258 | 62° | 40km/h | 16942m | 3.6m/s | -52.8°C | 4.0% | 94.1hPa | 2.7V | 00:00:00 | 00:00:00 | 00:00:00 | |
| OE5MMP-10 | 2026-08-31 23:45:27 | 49.35736 | 13.18159 | 61° | 37km/h | 16914m | 3.5m/s | -52.9°C | 4.1% | 94.6hPa | 2.7V | 00:00:00 | 01:39:51 | 00:00:00 | |
| OE5DRO-10 | 2026-08-31 23:45:21 | 49.35709 | 13.18089 | 59° | 37km/h | 16891m | 3.1m/s | -53.1°C | 4.1% | 94.9hPa | 2.7V | 00:00:00 | 00:00:00 | 00:00:00 | |
| DL6DJ-15 | 2026-08-31 23:45:20 | 49.35704 | 13.18077 | 58° | 37km/h | 16887m | 4.7m/s | -53.1°C | 1.3% | 95.0hPa | 2.7V | 00:00:00 | 00:00:00 | 00:00:00 | |
| OE5DXL-15 | 2026-08-31 23:45:19 | 49.35699 | 13.18064 | 61° | 35km/h | 16883m | 4.1m/s | -53.1°C | 4.1% | 95.0hPa | 2.7V | 04:22:00 | 00:00:00 | 00:00:00 | |
| OE5MMP-10 | 2026-08-31 23:45:18 | 49.35688 | 13.18037 | 55° | 38km/h | 16875m | 4.7m/s | -53.1°C | 4.1% | 95.2hPa | 2.6V | 00:00:00 | 01:39:41 | 00:00:00 | |
| PG1ADW-2 | 2026-08-31 23:45:14 | 49.35669 | 13.17995 | 59° | 35km/h | 16865m | 3.7m/s | -53.0°C | 4.1% | 95.3hPa | 2.6V | 00:00:00 | 01:39:38 | 00:00:00 | |
| PETON7-10 | 2026-08-31 23:45:13 | 49.35664 | 13.17980 | 65° | 35km/h | 16861m | 3.8m/s | -53.0°C | 4.1% | 95.3hPa | 2.7V | 00:00:00 | 01:39:37 | 00:00:00 | |
| OE5MMP-10 | 2026-08-31 23:45:07 | 49.35646 | 13.17908 | 69° | 37km/h | 16837m | 4.3m/s | -52.8°C | 4.2% | 95.7hPa | 2.7V | 00:00:00 | 01:39:31 | 00:00:00 | |
| SONDE2-11 | 2026-08-31 23:45:03 | 49.35630 | 13.17865 | 56° | 35km/h | 16820m | 3.4m/s | -52.7°C | 1.3% | 96.0hPa | 2.7V | 00:00:00 | 00:00:00 | 00:00:00 | |
| DL6DJ-15 | 2026-08-31 23:44:49 | 49.35597 | 13.17702 | 70° | 31km/h | 16759m | 5.8m/s | -52.2°C | 1.3% | 96.9hPa | 2.7V | 00:00:00 | 00:00:00 | 00:00:00 | |
| EDDB2-12 | 2026-08-31 23:44:48 | 49.35594 | 13.17689 | 68° | 37km/h | 16753m | 4.5m/s | -52.1°C | 1.2% | 97.0hPa | 2.7V | 00:00:00 | 00:00:00 | 00:00:00 | |
| OE5MMP-10 | 2026-08-31 23:44:47 | 49.35591 | 13.17675 | 70° | 35km/h | 16749m | 3.7m/s | -52.0°C | 3.9% | 97.1hPa | 2.7V | 04:22:00 | 01:39:11 | 00:00:00 | |
| PETON7-10 | 2026-08-31 23:44:43 | 49.35579 | 13.17620 | 76° | 33km/h | 16731m | 3.5m/s | -51.9°C | 4.0% | 97.3hPa | 2.7V | 00:00:00 | 00:00:00 | 00:00:00 | |
| OE5MMP-10 | 2026-08-31 23:44:37 | 49.35569 | 13.17545 | 81° | 35km/h | 16701m | 4.4m/s | -51.6°C | 3.9% | 97.8hPa | 2.7V | 00:00:00 | 01:39:01 | 00:00:00 | |
| OE5WHR-10 | 2026-08-31 23:44:34 | 49.35564 | 13.17502 | 82° | 33km/h | 16686m | 4.5m/s | -51.5°C | 3.9% | 98.0hPa | 2.7V | 04:22:00 | 01:38:58 | 00:00:00 | |
| SONDE2-11 | 2026-08-31 23:44:32 | 49.35563 | 13.17478 | 85° | 29km/h | 16677m | 4.8m/s | -51.5°C | 1.3% | 98.2hPa | 2.7V | 00:00:00 | 00:00:00 | 00:00:00 | |
| PETON7-10 | 2026-08-31 23:44:28 | 49.35562 | 13.17429 | 92° | 33km/h | 16659m | 5.1m/s | -51.3°C | 3.8% | 98.4hPa | 2.7V | 04:22:00 | 01:38:52 | 00:00:00 | |
| OE5MMP-10 | 2026-08-31 23:44:27 | 49.35562 | 13.17417 | 90° | 35km/h | 16653m | 4.9m/s | -51.3°C | 3.8% | 98.5hPa | 2.7V | 00:00:00 | 01:38:51 | 00:00:00 | |
| OE5DRO-10 | 2026-08-31 23:44:24 | 49.35560 | 13.17379 | 82° | 33km/h | 16640m | 5.2m/s | -51.3°C | 3.8% | 98.7hPa | 2.7V | 00:00:00 | 00:00:00 | 00:00:00 | |
| OE5DXL-15 | 2026-08-31 23:44:19 | 49.35550 | 13.17310 | 85° | 35km/h | 16616m | 5.5m/s | -51.1°C | 3.8% | 99.0hPa | 2.7V | 00:00:00 | 00:00:00 | 00:00:00 | |
| DL6DJ-15 | 2026-08-31 23:44:18 | 49.35550 | 13.17296 | 92° | 33km/h | 16611m | 4.6m/s | -51.1°C | 1.3% | 99.2hPa | 2.7V | 00:00:00 | 00:00:00 | 00:00:00 | |
| OE5MMP-10 | 2026-08-31 23:44:17 | 49.35551 | 13.17284 | 101° | 33km/h | 16607m | 3.8m/s | -51.0°C | 3.8% | 99.2hPa | 2.7V | 00:00:00 | 01:38:41 | 00:00:00 | |
| EDDB2-11 | 2026-08-31 23:44:16 | 49.35553 | 13.17272 | 106° | 29km/h | 16603m | 4.8m/s | -51.0°C | 1.2% | 99.3hPa | 2.7V | 00:00:00 | 00:00:00 | 00:00:00 | |
| S52SK | 2026-08-31 23:44:15 | 49.35553 | 13.17272 | 108° | 31km/h | 16603m | 4.8m/s | -51.0°C | 0% | 0hPa | 2.7V | 04:23:00 | 00:00:00 | 00:00:00 | |
| PG1ADW-2 | 2026-08-31 23:44:14 | 49.35558 | 13.17251 | 111° | 35km/h | 16594m | 3.1m/s | -50.9°C | 3.7% | 99.4hPa | 2.7V | 04:23:00 | 00:00:00 | 00:00:00 | |
| PETON7-10 | 2026-08-31 23:44:13 | 49.35560 | 13.17241 | 105° | 33km/h | 16591m | 3.1m/s | -50.9°C | 3.8% | 99.5hPa | 2.7V | 00:00:00 | 00:00:00 | 00:00:00 | |
| S52SK | 2026-08-31 23:44:09 | 49.35563 | 13.17202 | 92° | 38km/h | 16575m | 5.3m/s | -50.8°C | 0% | 0hPa | 2.6V | 00:00:00 | 00:00:00 | 00:00:00 | |
| OE5MMP-10 | 2026-08-31 23:44:07 | 49.35562 | 13.17160 | 92° | 33km/h | 16559m | 6.7m/s | -50.8°C | 3.7% | 100.0hPa | 2.6V | 00:00:00 | 01:38:31 | 00:00:00 | |
| OE5DRO-10 | 2026-08-31 23:44:05 | 49.35563 | 13.17138 | 94° | 37km/h | 16547m | 4.7m/s | -50.9°C | 3.6% | 100.1hPa | 2.6V | 04:23:00 | 00:00:00 | 00:00:00 | |
| SONDE2-11 | 2026-08-31 23:44:01 | 49.35563 | 13.17095 | 89° | 37km/h | 16527m | 4.3m/s | -50.9°C | 1.2% | 100.5hPa | 2.6V | 00:00:00 | 00:00:00 | 00:00:00 | |
| DL6DJ-15 | 2026-08-31 23:43:47 | 49.35588 | 13.16889 | 106° | 35km/h | 16460m | 4.6m/s | -50.8°C | 1.2% | 101.6hPa | 2.6V | 00:00:00 | 00:00:00 | 00:00:00 | |
| EDDB2-12 | 2026-08-31 23:43:46 | 49.35591 | 13.16876 | 108° | 37km/h | 16455m | 4.1m/s | -50.8°C | 1.2% | 101.7hPa | 2.6V | 00:00:00 | 00:00:00 | 00:00:00 | |
| EDDB2-11 | 2026-08-31 23:43:45 | 49.35598 | 13.16847 | 112° | 40km/h | 16445m | 5.1m/s | -50.7°C | 1.2% | 101.7hPa | 2.6V | 00:00:00 | 00:00:00 | 00:00:00 | |
| PETON7-10 | 2026-08-31 23:43:43 | 49.35602 | 13.16832 | 111° | 40km/h | 16441m | 4.1m/s | -50.6°C | 3.7% | 101.8hPa | 2.6V | 00:00:00 | 01:38:07 | 00:00:00 | |
| OE5MMP-10 | 2026-08-31 23:43:37 | 49.35616 | 13.16737 | 100° | 40km/h | 16412m | 4.1m/s | -50.4°C | 3.7% | 102.2hPa | 2.6V | 00:00:00 | 01:38:01 | 00:00:00 | |
| OE5WHR-10 | 2026-08-31 23:43:30 | 49.35634 | 13.16637 | 118° | 46km/h | 16380m | 5.2m/s | -50.3°C | 3.6% | 102.7hPa | 2.6V | 00:00:00 | 01:37:54 | 00:00:00 | |
| PETON7-10 | 2026-08-31 23:43:28 | 49.35643 | 13.16608 | 118° | 46km/h | 16371m | 3.7m/s | -50.5°C | 3.6% | 102.9hPa | 2.6V | 00:00:00 | 00:00:00 | 00:00:00 | |
| OE5MMP-10 | 2026-08-31 23:43:27 | 49.35649 | 13.16592 | 118° | 44km/h | 16366m | 4.9m/s | -50.5°C | 3.6% | 102.9hPa | 2.6V | 00:00:00 | 01:37:51 | 00:00:00 | |
| SP3BTT-10 | 2026-08-31 23:43:21 | 49.35666 | 13.16497 | 93° | 57km/h | 16340m | 4.5m/s | -50.6°C | 3.6% | 103.4hPa | 2.6V | 00:00:00 | 00:00:00 | 00:00:00 | |
| OE5DXL-15 | 2026-08-31 23:43:19 | 49.35667 | 13.16464 | 94° | 53km/h | 16330m | 4.2m/s | -50.5°C | 3.6% | 103.6hPa | 2.6V | 00:00:00 | 00:00:00 | 00:00:00 | |
| OE5MMP-10 | 2026-08-31 23:43:17 | 49.35669 | 13.16428 | 99° | 49km/h | 16320m | 5.4m/s | -50.7°C | 3.8% | 103.6hPa | 2.6V | 00:00:00 | 01:37:41 | 00:00:00 | |
| DL6DJ-15 | 2026-08-31 23:43:16 | 49.35671 | 13.16410 | 103° | 47km/h | 16315m | 3.3m/s | -50.8°C | 1.3% | 103.8hPa | 2.6V | 00:00:00 | 00:00:00 | 00:00:00 | |
| EDDB2-12 | 2026-08-31 23:43:15 | 49.35674 | 13.16392 | 104° | 47km/h | 16312m | 2.9m/s | -50.8°C | 1.2% | 103.8hPa | 2.6V | 00:00:00 | 00:00:00 | 00:00:00 | |
| EDDB2-11 | 2026-08-31 23:43:14 | 49.35683 | 13.16356 | 114° | 51km/h | 16306m | 4.4m/s | -50.9°C | 1.2% | 103.9hPa | 2.6V | 00:00:00 | 00:00:00 | 00:00:00 | |
| PETON7-10 | 2026-08-31 23:43:13 | 49.35683 | 13.16356 | 115° | 49km/h | 16306m | 4.3m/s | -50.8°C | 3.7% | 103.9hPa | 2.6V | 04:24:00 | 00:00:00 | 00:00:00 | |
| OE5WHR-10 | 2026-08-31 23:43:09 | 49.35708 | 13.16284 | 119° | 57km/h | 16286m | 4.1m/s | -50.7°C | 3.6% | 104.2hPa | 2.6V | 00:00:00 | 00:00:00 | 00:00:00 | |
| OE5DRO-10 | 2026-08-31 23:43:08 | 49.35714 | 13.16268 | 115° | 55km/h | 16281m | 5.4m/s | -50.8°C | 3.6% | 104.3hPa | 2.7V | 00:00:00 | 00:00:00 | 00:00:00 | |
| OE5MMP-10 | 2026-08-31 23:43:07 | 49.35718 | 13.16253 | 113° | 49km/h | 16275m | 6.2m/s | -50.9°C | 3.6% | 104.4hPa | 2.7V | 04:24:00 | 01:37:31 | 00:00:00 | |
| SONCRA | 2026-08-31 23:43:02 | 49.35737 | 13.16155 | 100° | 49km/h | 16226m | 5.9m/s | -51.2°C | 1.2% | 105.2hPa | 2.7V | 00:00:00 | 00:00:00 | 00:00:00 | |
| SONDE2-11 | 2026-08-31 23:42:59 | 49.35741 | 13.16113 | 95° | 58km/h | 16215m | 6.7m/s | -51.3°C | 1.2% | 105.4hPa | 2.7V | 00:00:00 | 00:00:00 | 00:00:00 | |
| DL6DJ-15 | 2026-08-31 23:42:45 | 49.35751 | 13.15753 | 89° | 75km/h | 16136m | 5.9m/s | -51.6°C | 1.3% | 106.7hPa | 2.7V | 00:00:00 | 00:00:00 | 00:00:00 | |
| EDDB2-12 | 2026-08-31 23:42:44 | 49.35751 | 13.15724 | 88° | 75km/h | 16130m | 5.3m/s | -51.7°C | 1.3% | 106.8hPa | 2.7V | 00:00:00 | 00:00:00 | 00:00:00 | |
| PETON7-10 | 2026-08-31 23:42:43 | 49.35750 | 13.15695 | 89° | 75km/h | 16125m | 4.4m/s | -51.6°C | 3.8% | 106.8hPa | 2.7V | 00:00:00 | 00:00:00 | 00:00:00 | |
| S52SK | 2026-08-31 23:42:41 | 49.35750 | 13.15665 | 90° | 77km/h | 16121m | 5.7m/s | -51.7°C | 0% | 0hPa | 2.7V | 00:00:00 | 00:00:00 | 00:00:00 | |
| DO3MHA-11 | 2026-08-31 23:42:39 | 49.35750 | 13.15576 | 92° | 73km/h | 16105m | 5.1m/s | -51.7°C | 3.9% | 107.1hPa | 2.7V | 00:00:00 | 01:37:03 | 00:00:00 | |
| OE5MMP-10 | 2026-08-31 23:42:37 | 49.35751 | 13.15519 | 92° | 73km/h | 16094m | 4.9m/s | -51.6°C | 3.9% | 107.3hPa | 2.7V | 00:00:00 | 01:37:01 | 00:00:00 | |
| PG1ADW-2 | 2026-08-31 23:42:34 | 49.35753 | 13.15434 | 93° | 73km/h | 16079m | 3.7m/s | -51.4°C | 3.8% | 107.6hPa | 2.7V | 04:24:00 | 01:36:58 | 00:00:00 | |
| OE5DRO-10 | 2026-08-31 23:42:30 | 49.35753 | 13.15323 | 89° | 73km/h | 16059m | 5.7m/s | -51.4°C | 3.8% | 107.9hPa | 2.7V | 04:24:00 | 00:00:00 | 00:00:00 | |
| DO3MHA-11 | 2026-08-31 23:42:29 | 49.35753 | 13.15294 | 90° | 75km/h | 16053m | 5.4m/s | -51.4°C | 3.8% | 108.0hPa | 2.7V | 00:00:00 | 01:36:53 | 00:00:00 | |
| PETON7-10 | 2026-08-31 23:42:28 | 49.35753 | 13.15265 | 90° | 73km/h | 16048m | 4.6m/s | -51.4°C | 3.7% | 108.1hPa | 2.7V | 00:00:00 | 00:00:00 | 00:00:00 | |
| OE5WHR-10 | 2026-08-31 23:42:27 | 49.35753 | 13.15236 | 92° | 73km/h | 16043m | 5.8m/s | -51.4°C | 3.7% | 108.2hPa | 2.7V | 00:00:00 | 01:36:51 | 00:00:00 | |
| DL1JEZ-13 | 2026-08-31 23:42:23 | 49.35753 | 13.15149 | 92° | 75km/h | 16027m | 5.9m/s | -51.5°C | 1.3% | 108.5hPa | 2.7V | 00:00:00 | 00:00:00 | 00:00:00 | |
| OE5DXL-15 | 2026-08-31 23:42:19 | 49.35756 | 13.15007 | 94° | 75km/h | 16001m | 4.4m/s | -52.0°C | 3.9% | 108.9hPa | 2.7V | 00:00:00 | 00:00:00 | 00:00:00 | |
| DO3MHA-11 | 2026-08-31 23:42:17 | 49.35758 | 13.14952 | 94° | 73km/h | 15992m | 5.3m/s | -52.1°C | 4.0% | 109.1hPa | 2.7V | 04:25:00 | 01:36:41 | 00:00:00 | |
| DL6DJ-15 | 2026-08-31 23:42:14 | 49.35761 | 13.14870 | 91° | 69km/h | 15977m | 5.0m/s | -52.2°C | 1.4% | 109.3hPa | 2.7V | 00:00:00 | 00:00:00 | 00:00:00 | |
| PETON7-10 | 2026-08-31 23:42:13 | 49.35761 | 13.14843 | 91° | 77km/h | 15972m | 4.4m/s | -52.2°C | 4.0% | 109.4hPa | 2.7V | 00:00:00 | 01:36:37 | 00:00:00 | |
| EDDB2-11 | 2026-08-31 23:42:12 | 49.35761 | 13.14786 | 88° | 75km/h | 15961m | 5.5m/s | -52.3°C | 1.4% | 109.6hPa | 2.7V | 00:00:00 | 00:00:00 | 00:00:00 | |
| OE5DRO-10 | 2026-08-31 23:42:11 | 49.35761 | 13.14786 | 89° | 77km/h | 15962m | 5.4m/s | -52.3°C | 4.0% | 109.5hPa | 2.7V | 00:00:00 | 00:00:00 | 00:00:00 | |
| DO8TBO-1 | 2026-08-31 23:42:09 | 49.35759 | 13.14726 | 87° | 77km/h | 15952m | 5.3m/s | -52.3°C | 4.0% | 109.7hPa | 2.7V | 00:00:00 | 01:36:33 | 00:00:00 | |
| DO3MHA-11 | 2026-08-31 23:42:07 | 49.35757 | 13.14668 | 87° | 77km/h | 15942m | 4.7m/s | -52.3°C | 4.0% | 109.9hPa | 2.7V | 00:00:00 | 01:36:31 | 00:00:00 | |
| OE5WHR-10 | 2026-08-31 23:42:06 | 49.35756 | 13.14639 | 87° | 77km/h | 15936m | 5.7m/s | -52.3°C | 4.0% | 110.0hPa | 2.7V | 00:00:00 | 00:00:00 | 00:00:00 | |
| SONCRA | 2026-08-31 23:41:59 | 49.35742 | 13.14402 | 80° | 80km/h | 15894m | 5.1m/s | -52.6°C | 1.4% | 110.7hPa | 2.6V | 00:00:00 | 00:00:00 | 00:00:00 | |
| PETON7-10 | 2026-08-31 23:41:58 | 49.35742 | 13.14402 | 81° | 77km/h | 15894m | 5.0m/s | -52.5°C | 4.1% | 110.7hPa | 2.6V | 04:25:00 | 00:00:00 | 00:00:00 | |
| OE5MMP-10 | 2026-08-31 23:41:57 | 49.35739 | 13.14372 | 81° | 77km/h | 15889m | 5.9m/s | -52.6°C | 4.2% | 110.8hPa | 2.7V | 00:00:00 | 01:36:21 | 00:00:00 | |
| PG1ADW-2 | 2026-08-31 23:41:53 | 49.35725 | 13.14253 | 80° | 77km/h | 15868m | 5.0m/s | -52.6°C | 4.2% | 111.1hPa | 2.6V | 00:00:00 | 00:00:00 | 00:00:00 | |
| OE5DRO-10 | 2026-08-31 23:41:52 | 49.35721 | 13.14224 | 81° | 77km/h | 15864m | 4.2m/s | -52.6°C | 4.2% | 111.2hPa | 2.6V | 00:00:00 | 00:00:00 | 00:00:00 | |
| SP3BTT-10 | 2026-08-31 23:41:51 | 49.35718 | 13.14195 | 82° | 75km/h | 15859m | 5.9m/s | -52.5°C | 4.1% | 111.3hPa | 2.6V | 00:00:00 | 00:00:00 | 00:00:00 | |
| OE5DXL-15 | 2026-08-31 23:41:49 | 49.35712 | 13.14139 | 81° | 75km/h | 15848m | 4.8m/s | -52.5°C | 4.1% | 111.4hPa | 2.6V | 00:00:00 | 00:00:00 | 00:00:00 | |
| DO3MHA-11 | 2026-08-31 23:41:47 | 49.35705 | 13.14080 | 80° | 77km/h | 15838m | 4.4m/s | -52.6°C | 4.1% | 111.6hPa | 2.6V | 00:00:00 | 01:36:11 | 00:00:00 | |
| PETON7-10 | 2026-08-31 23:41:43 | 49.35688 | 13.13963 | 76° | 77km/h | 15817m | 5.5m/s | -52.4°C | 4.1% | 112.0hPa | 2.6V | 00:00:00 | 00:00:00 | 00:00:00 | |
| EDDB2-12 | 2026-08-31 23:41:42 | 49.35683 | 13.13934 | 75° | 77km/h | 15812m | 4.5m/s | -52.5°C | 1.4% | 112.1hPa | 2.6V | 00:00:00 | 00:00:00 | 00:00:00 | |
| EDDB2-11 | 2026-08-31 23:41:41 | 49.35673 | 13.13877 | 75° | 73km/h | 15801m | 5.4m/s | -52.4°C | 1.4% | 112.3hPa | 2.6V | 00:00:00 | 00:00:00 | 00:00:00 | |
| DO8TBO-1 | 2026-08-31 23:41:39 | 49.35668 | 13.13849 | 74° | 75km/h | 15797m | 3.7m/s | -52.3°C | 4.1% | 112.4hPa | 2.6V | 00:00:00 | 01:36:03 | 00:00:00 | |
| OE5MMP-10 | 2026-08-31 23:41:37 | 49.35657 | 13.13794 | 74° | 75km/h | 15788m | 4.8m/s | -52.3°C | 4.1% | 112.5hPa | 2.6V | 00:00:00 | 01:36:01 | 00:00:00 | |
| PG1ADW-2 | 2026-08-31 23:41:33 | 49.35637 | 13.13681 | 75° | 73km/h | 15769m | 4.0m/s | -52.1°C | 4.2% | 112.8hPa | 2.6V | 00:00:00 | 00:00:00 | 00:00:00 | |
| DO3MHA-11 | 2026-08-31 23:41:28 | 49.35607 | 13.13512 | 75° | 71km/h | 15743m | 3.9m/s | -51.9°C | 4.0% | 113.3hPa | 2.6V | 04:25:00 | 01:35:51 | 00:00:00 | |
| SONDE2-11 | 2026-08-31 23:41:27 | 49.35602 | 13.13486 | 73° | 71km/h | 15738m | 4.9m/s | -52.0°C | 1.4% | 113.4hPa | 2.6V | 00:00:00 | 00:00:00 | 00:00:00 | |
| OE5WHR-10 | 2026-08-31 23:41:24 | 49.35592 | 13.13430 | 76° | 73km/h | 15730m | 3.9m/s | -51.9°C | 4.0% | 113.5hPa | 2.6V | 00:00:00 | 01:35:48 | 00:00:00 | |
| S52SK | 2026-08-31 23:41:22 | 49.35587 | 13.13402 | 77° | 73km/h | 15725m | 5.1m/s | -51.9°C | 0% | 0hPa | 2.6V | 00:00:00 | 00:00:00 | 00:00:00 | |
| SP3BTT-10 | 2026-08-31 23:41:21 | 49.35579 | 13.13348 | 77° | 71km/h | 15716m | 3.5m/s | -51.9°C | 4.0% | 113.8hPa | 2.6V | 04:26:00 | 00:00:00 | 00:00:00 | |
| OE5DXL-15 | 2026-08-31 23:41:19 | 49.35570 | 13.13295 | 76° | 75km/h | 15707m | 4.3m/s | -51.8°C | 3.9% | 113.9hPa | 2.6V | 00:00:00 | 00:00:00 | 00:00:00 | |
| OE5MMP-10 | 2026-08-31 23:41:17 | 49.35561 | 13.13240 | 75° | 73km/h | 15698m | 4.9m/s | -51.8°C | 4.0% | 114.1hPa | 2.6V | 00:00:00 | 01:35:41 | 00:00:00 | |
| OE5DRO-10 | 2026-08-31 23:41:14 | 49.35547 | 13.13160 | 75° | 75km/h | 15686m | 3.8m/s | -51.8°C | 3.9% | 114.3hPa | 2.6V | 00:00:00 | 00:00:00 | 00:00:00 | |
| PETON7-10 | 2026-08-31 23:41:13 | 49.35542 | 13.13132 | 76° | 75km/h | 15682m | 4.8m/s | -51.8°C | 3.9% | 114.4hPa | 2.6V | 00:00:00 | 00:00:00 | 00:00:00 | |
| DL6DJ-15 | 2026-08-31 23:41:12 | 49.35533 | 13.13075 | 75° | 75km/h | 15673m | 3.7m/s | -52.0°C | 1.3% | 114.6hPa | 2.6V | 00:00:00 | 00:00:00 | 00:00:00 | |
| EDDB2-12 | 2026-08-31 23:41:11 | 49.35533 | 13.13075 | 75° | 75km/h | 15673m | 3.7m/s | -52.0°C | 1.3% | 114.6hPa | 2.6V | 00:00:00 | 00:00:00 | 00:00:00 | |
| EDDB2-11 | 2026-08-31 23:41:10 | 49.35523 | 13.13020 | 73° | 69km/h | 15665m | 3.8m/s | -52.0°C | 1.3% | 114.8hPa | 2.6V | 00:00:00 | 00:00:00 | 00:00:00 | |
| DO8TBO-1 | 2026-08-31 23:41:09 | 49.35523 | 13.13020 | 74° | 77km/h | 15665m | 3.7m/s | -51.9°C | 3.9% | 114.7hPa | 2.6V | 04:26:00 | 01:35:33 | 00:00:00 | |
| OE5MMP-10 | 2026-08-31 23:41:07 | 49.35511 | 13.12967 | 71° | 75km/h | 15657m | 4.9m/s | -52.0°C | 3.9% | 114.8hPa | 2.6V | 00:00:00 | 01:35:31 | 00:00:00 | |
| OE5WHR-10 | 2026-08-31 23:41:03 | 49.35486 | 13.12857 | 71° | 77km/h | 15638m | 5.0m/s | -52.0°C | 3.9% | 115.1hPa | 2.6V | 04:26:00 | 00:00:00 | 00:00:00 | |
| SONDE2-11 | 2026-08-31 23:40:55 | 49.35425 | 13.12610 | 66° | 77km/h | 15602m | 4.3m/s | -52.2°C | 1.4% | 115.8hPa | 2.6V | 00:00:00 | 00:00:00 | 00:00:00 | |
| PG1ADW-2 | 2026-08-31 23:40:53 | 49.35417 | 13.12583 | 65° | 77km/h | 15598m | 3.4m/s | -52.1°C | 4.0% | 115.9hPa | 2.6V | 04:26:00 | 00:00:00 | 00:00:00 | |
| OE5DXL-15 | 2026-08-31 23:40:49 | 49.35383 | 13.12478 | 63° | 73km/h | 15583m | 3.1m/s | -52.4°C | 4.0% | 116.2hPa | 2.6V | 00:00:00 | 00:00:00 | 00:00:00 | |
| OE5MMP-10 | 2026-08-31 23:40:47 | 49.35364 | 13.12425 | 62° | 77km/h | 15574m | 3.8m/s | -52.5°C | 4.1% | 116.3hPa | 2.7V | 00:00:00 | 01:35:11 | 00:00:00 | |
| PETON7-10 | 2026-08-31 23:40:43 | 49.35325 | 13.12318 | 62° | 73km/h | 15560m | 3.1m/s | -52.5°C | 4.0% | 116.6hPa | 2.7V | 04:26:00 | 01:35:07 | 00:00:00 | |
| OE5WHR-10 | 2026-08-31 23:40:42 | 49.35315 | 13.12292 | 62° | 73km/h | 15556m | 4.4m/s | -52.5°C | 4.0% | 116.6hPa | 2.7V | 00:00:00 | 00:00:00 | 00:00:00 | |
| DL6DJ-15 | 2026-08-31 23:40:41 | 49.35297 | 13.12239 | 61° | 75km/h | 15549m | 2.5m/s | -52.5°C | 1.4% | 116.8hPa | 2.7V | 00:00:00 | 00:00:00 | 00:00:00 | |
| EDDB2-12 | 2026-08-31 23:40:40 | 49.35297 | 13.12239 | 61° | 75km/h | 15549m | 2.5m/s | -52.5°C | 1.4% | 116.8hPa | 2.7V | 00:00:00 | 00:00:00 | 00:00:00 | |
| EDDB2-11 | 2026-08-31 23:40:39 | 49.35278 | 13.12189 | 59° | 69km/h | 15541m | 5.1m/s | -52.5°C | 1.4% | 116.9hPa | 2.7V | 00:00:00 | 00:00:00 | 00:00:00 | |
| OE5MMP-10 | 2026-08-31 23:40:37 | 49.35269 | 13.12166 | 58° | 71km/h | 15537m | 3.6m/s | -52.5°C | 4.1% | 117.0hPa | 2.7V | 04:26:00 | 01:35:01 | 00:00:00 | |
| OE5DRO-10 | 2026-08-31 23:40:36 | 49.35260 | 13.12144 | 59° | 71km/h | 15533m | 3.4m/s | -52.4°C | 4.1% | 117.0hPa | 2.7V | 00:00:00 | 00:00:00 | 00:00:00 | |
| PG1ADW-2 | 2026-08-31 23:40:30 | 49.35207 | 13.11999 | 59° | 69km/h | 15510m | 3.0m/s | -52.3°C | 4.1% | 117.5hPa | 2.7V | 00:00:00 | 00:00:00 | 00:00:00 | |
| PETON7-10 | 2026-08-31 23:40:28 | 49.35187 | 13.11953 | 56° | 71km/h | 15502m | 4.7m/s | -52.2°C | 4.1% | 117.6hPa | 2.7V | 00:00:00 | 00:00:00 | 00:00:00 | |
| OE5MMP-10 | 2026-08-31 23:40:27 | 49.35177 | 13.11929 | 56° | 69km/h | 15498m | 3.6m/s | -52.2°C | 4.1% | 117.6hPa | 2.7V | 00:00:00 | 01:34:51 | 00:00:00 | |
| SP3BTT-10 | 2026-08-31 23:40:21 | 49.35127 | 13.11790 | 65° | 64km/h | 15473m | 4.2m/s | -52.0°C | 4.0% | 118.1hPa | 2.7V | 00:00:00 | 00:00:00 | 00:00:00 | |
| OE5DXL-15 | 2026-08-31 23:40:19 | 49.35112 | 13.11740 | 65° | 66km/h | 15465m | 4.7m/s | -52.0°C | 3.9% | 118.3hPa | 2.7V | 04:27:00 | 00:00:00 | 00:00:00 | |
| OE5MMP-10 | 2026-08-31 23:40:17 | 49.35096 | 13.11690 | 64° | 68km/h | 15457m | 3.6m/s | -52.0°C | 4.0% | 118.4hPa | 2.7V | 00:00:00 | 01:34:41 | 00:00:00 | |
| PETON7-10 | 2026-08-31 23:40:13 | 49.35060 | 13.11593 | 58° | 66km/h | 15443m | 4.3m/s | -51.9°C | 4.1% | 118.7hPa | 2.7V | 00:00:00 | 00:00:00 | 00:00:00 | |
| DL6DJ-15 | 2026-08-31 23:40:10 | 49.35024 | 13.11513 | 53° | 60km/h | 15425m | 4.9m/s | -51.8°C | 1.4% | 119.1hPa | 2.7V | 00:00:00 | 00:00:00 | 00:00:00 | |
| DO8TBO-1 | 2026-08-31 23:40:09 | 49.35024 | 13.11512 | 54° | 64km/h | 15425m | 4.8m/s | -51.8°C | 4.0% | 119.0hPa | 2.7V | 00:00:00 | 01:34:33 | 00:00:00 | |
| EDDB2-11 | 2026-08-31 23:40:08 | 49.35006 | 13.11474 | 56° | 60km/h | 15417m | 4.3m/s | -51.8°C | 1.4% | 119.2hPa | 2.7V | 00:00:00 | 00:00:00 | 00:00:00 | |
| OE5MMP-10 | 2026-08-31 23:40:07 | 49.35006 | 13.11474 | 57° | 68km/h | 15417m | 4.2m/s | -51.8°C | 4.0% | 119.2hPa | 2.7V | 00:00:00 | 01:34:31 | 00:00:00 | |
| S52SK | 2026-08-31 23:40:05 | 49.34998 | 13.11454 | 58° | 60km/h | 15413m | 4.7m/s | -51.8°C | 0% | 0hPa | 2.7V | 00:00:00 | 00:00:00 | 00:00:00 | |
| SONDE2-11 | 2026-08-31 23:39:53 | 49.34873 | 13.11161 | 45° | 55km/h | 15350m | 4.1m/s | -51.4°C | 1.3% | 120.5hPa | 2.7V | 00:00:00 | 00:00:00 | 00:00:00 | |
| OE5DXL-15 | 2026-08-31 23:39:49 | 49.34842 | 13.11112 | 50° | 57km/h | 15337m | 5.0m/s | -51.2°C | 4.0% | 120.7hPa | 2.7V | 00:00:00 | 00:00:00 | 00:00:00 | |
| PG1ADW-2 | 2026-08-31 23:39:48 | 49.34832 | 13.11091 | 55° | 53km/h | 15333m | 3.7m/s | -51.1°C | 3.9% | 120.7hPa | 2.7V | 00:00:00 | 01:34:12 | 00:00:00 | |
| OE5MMP-10 | 2026-08-31 23:39:47 | 49.34822 | 13.11069 | 57° | 60km/h | 15329m | 4.6m/s | -51.1°C | 4.0% | 120.8hPa | 2.7V | 04:27:00 | 01:34:11 | 00:00:00 | |
| PETON7-10 | 2026-08-31 23:39:43 | 49.34793 | 13.10977 | 65° | 49km/h | 15311m | 4.4m/s | -50.9°C | 4.1% | 121.1hPa | 2.7V | 00:00:00 | 00:00:00 | 00:00:00 | |
| OE5WHR-10 | 2026-08-31 23:39:39 | 49.34763 | 13.10904 | 53° | 58km/h | 15291m | 6.6m/s | -50.8°C | 3.9% | 121.5hPa | 2.7V | 00:00:00 | 00:00:00 | 00:00:00 | |
| EDDB2-12 | 2026-08-31 23:39:38 | 49.34748 | 13.10872 | 56° | 49km/h | 15274m | 7.8m/s | -50.7°C | 1.3% | 121.9hPa | 2.7V | 00:00:00 | 00:00:00 | 00:00:00 | |
| EDDB2-11 | 2026-08-31 23:39:37 | 49.34741 | 13.10856 | 57° | 47km/h | 15267m | 5.8m/s | -50.6°C | 1.3% | 122.0hPa | 2.7V | 00:00:00 | 00:00:00 | 00:00:00 | |
| PETON7-10 | 2026-08-31 23:39:28 | 49.34684 | 13.10752 | 50° | 58km/h | 15203m | 5.9m/s | -50.0°C | 3.7% | 123.1hPa | 2.7V | 04:27:00 | 00:00:00 | 00:00:00 | |
| OE5MMP-10 | 2026-08-31 23:39:27 | 49.34673 | 13.10732 | 52° | 58km/h | 15197m | 5.9m/s | -50.0°C | 3.7% | 123.2hPa | 2.7V | 00:00:00 | 01:33:51 | 00:00:00 | |
| DL1JEZ-13 | 2026-08-31 23:39:26 | 49.34673 | 13.10732 | 52° | 71km/h | 15197m | 6.0m/s | -50.0°C | 0% | 0hPa | 2.6V | 00:00:00 | 00:00:00 | 00:00:00 | |
| SONCRA | 2026-08-31 23:39:24 | 49.34636 | 13.10644 | 65° | 58km/h | 15171m | 5.5m/s | -49.7°C | 1.3% | 123.8hPa | 2.6V | 00:00:00 | 00:00:00 | 00:00:00 | |
| SONDE2-11 | 2026-08-31 23:39:22 | 49.34626 | 13.10603 | 71° | 51km/h | 15160m | 6.7m/s | -49.7°C | 1.3% | 124.0hPa | 2.6V | 00:00:00 | 00:00:00 | 00:00:00 | |
| SP3BTT-10 | 2026-08-31 23:39:20 | 49.34622 | 13.10584 | 77° | 58km/h | 15154m | 5.7m/s | -49.6°C | 3.6% | 124.0hPa | 2.6V | 00:00:00 | 00:00:00 | 00:00:00 | |
| OE5DXL-15 | 2026-08-31 23:39:19 | 49.34619 | 13.10565 | 73° | 64km/h | 15149m | 4.1m/s | -49.6°C | 3.6% | 124.1hPa | 2.6V | 00:00:00 | 00:00:00 | 00:00:00 | |
| OE5MMP-10 | 2026-08-31 23:39:17 | 49.34610 | 13.10530 | 65° | 62km/h | 15137m | 6.3m/s | -49.7°C | 3.6% | 124.4hPa | 2.7V | 00:00:00 | 01:33:41 | 00:00:00 | |
| PETON7-10 | 2026-08-31 23:39:13 | 49.34577 | 13.10464 | 51° | 71km/h | 15112m | 6.2m/s | -49.5°C | 3.6% | 124.8hPa | 2.7V | 00:00:00 | 01:33:37 | 00:00:00 | |
| DO8TBO-1 | 2026-08-31 23:39:09 | 49.34543 | 13.10371 | 73° | 64km/h | 15083m | 8.4m/s | -49.3°C | 3.4% | 125.4hPa | 2.7V | 00:00:00 | 01:33:33 | 00:00:00 | |
| OE5MMP-10 | 2026-08-31 23:39:07 | 49.34535 | 13.10315 | 82° | 71km/h | 15067m | 6.7m/s | -49.2°C | 3.5% | 125.7hPa | 2.7V | 00:00:00 | 01:33:31 | 00:00:00 | |
| EDDB2-11 | 2026-08-31 23:39:06 | 49.34530 | 13.10261 | 83° | 69km/h | 15056m | 5.1m/s | -49.3°C | 1.2% | 126.0hPa | 2.7V | 00:00:00 | 00:00:00 | 00:00:00 | |
| SONCRA | 2026-08-31 23:38:53 | 49.34475 | 13.09955 | 73° | 60km/h | 14980m | 4.9m/s | -49.1°C | 1.2% | 127.4hPa | 2.7V | 00:00:00 | 00:00:00 | 00:00:00 | |
| SONDE2-11 | 2026-08-31 23:38:51 | 49.34466 | 13.09907 | 75° | 66km/h | 14968m | 7.0m/s | -49.2°C | 1.2% | 127.6hPa | 2.7V | 00:00:00 | 00:00:00 | 00:00:00 | |
| OE5DXL-15 | 2026-08-31 23:38:49 | 49.34462 | 13.09882 | 78° | 69km/h | 14960m | 8.8m/s | -49.1°C | 3.3% | 127.7hPa | 2.7V | 00:00:00 | 00:00:00 | 00:00:00 | |
| OE5MMP-10 | 2026-08-31 23:38:47 | 49.34457 | 13.09832 | 84° | 60km/h | 14944m | 7.4m/s | -49.5°C | 3.5% | 128.0hPa | 2.7V | 00:00:00 | 01:33:11 | 00:00:00 | |
| DL3JIN-12 | 2026-08-31 23:38:45 | 49.34454 | 13.09786 | 87° | 57km/h | 14930m | 5.8m/s | 0°C | 0% | 128.4hPa | 2.7V | 00:00:00 | 00:00:00 | 00:00:00 | |
| PETON7-10 | 2026-08-31 23:38:43 | 49.34451 | 13.09742 | 82° | 68km/h | 14919m | 4.7m/s | -49.9°C | 3.6% | 128.6hPa | 2.7V | 00:00:00 | 00:00:00 | 00:00:00 | |
| OE5WHR-10 | 2026-08-31 23:38:42 | 49.34449 | 13.09720 | 82° | 71km/h | 14914m | 4.6m/s | -50.0°C | 3.6% | 128.6hPa | 2.7V | 00:00:00 | 00:00:00 | 00:00:00 | |
| S52SK | 2026-08-31 23:38:41 | 49.34449 | 13.09720 | 82° | 58km/h | 14914m | 4.7m/s | -50.0°C | 0% | 0hPa | 2.6V | 00:00:00 | 00:00:00 | 00:00:00 | |
| DO8TBO-1 | 2026-08-31 23:38:39 | 49.34443 | 13.09652 | 87° | 77km/h | 14897m | 5.6m/s | -50.2°C | 3.6% | 129.0hPa | 2.6V | 04:28:00 | 01:33:03 | 00:00:00 | |
| DO3MHA-11 | 2026-08-31 23:38:37 | 49.34442 | 13.09602 | 90° | 75km/h | 14886m | 6.3m/s | -50.2°C | 3.6% | 129.2hPa | 2.6V | 00:00:00 | 01:33:01 | 00:00:00 | |
| EDDB2-12 | 2026-08-31 23:38:36 | 49.34442 | 13.09548 | 89° | 71km/h | 14875m | 4.6m/s | -50.2°C | 1.3% | 129.5hPa | 2.6V | 00:00:00 | 00:00:00 | 00:00:00 | |
| EDDB2-11 | 2026-08-31 23:38:35 | 49.34442 | 13.09520 | 88° | 71km/h | 14869m | 5.5m/s | -50.2°C | 1.3% | 129.6hPa | 2.6V | 00:00:00 | 00:00:00 | 00:00:00 | |
| PETON7-10 | 2026-08-31 23:38:28 | 49.34443 | 13.09343 | 94° | 78km/h | 14839m | 4.9m/s | -50.4°C | 3.6% | 130.2hPa | 2.6V | 00:00:00 | 01:32:52 | 00:00:00 | |
| OE5MMP-10 | 2026-08-31 23:38:27 | 49.34445 | 13.09313 | 93° | 77km/h | 14833m | 5.5m/s | -50.4°C | 3.7% | 130.2hPa | 2.6V | 00:00:00 | 01:32:51 | 00:00:00 | |
| DO3MHA-11 | 2026-08-31 23:38:26 | 49.34445 | 13.09282 | 93° | 77km/h | 14829m | 4.5m/s | -50.4°C | 3.6% | 130.3hPa | 2.6V | 00:00:00 | 01:32:50 | 00:00:00 | |
| OE5DRO-10 | 2026-08-31 23:38:23 | 49.34448 | 13.09191 | 92° | 78km/h | 14813m | 4.5m/s | -50.5°C | 3.6% | 130.7hPa | 2.6V | 00:00:00 | 00:00:00 | 00:00:00 | |
| SONCRA | 2026-08-31 23:38:22 | 49.34448 | 13.09132 | 89° | 75km/h | 14802m | 4.7m/s | -50.6°C | 1.4% | 130.9hPa | 2.6V | 00:00:00 | 00:00:00 | 00:00:00 | |
| OE5WHR-10 | 2026-08-31 23:38:21 | 49.34448 | 13.09132 | 90° | 82km/h | 14803m | 4.6m/s | -50.5°C | 3.7% | 130.8hPa | 2.6V | 00:00:00 | 00:00:00 | 00:00:00 | |
| OE5DXL-15 | 2026-08-31 23:38:19 | 49.34449 | 13.09074 | 93° | 89km/h | 14793m | 5.4m/s | -50.6°C | 3.7% | 131.1hPa | 2.6V | 00:00:00 | 00:00:00 | 00:00:00 | |
| OE5MMP-10 | 2026-08-31 23:38:17 | 49.34451 | 13.09015 | 94° | 82km/h | 14784m | 4.2m/s | -50.7°C | 3.8% | 131.2hPa | 2.6V | 00:00:00 | 01:32:41 | 00:00:00 | |
| DO3MHA-11 | 2026-08-31 23:38:16 | 49.34452 | 13.08985 | 94° | 82km/h | 14779m | 5.8m/s | -50.9°C | 3.9% | 131.4hPa | 2.6V | 00:00:00 | 01:32:40 | 00:00:00 | |
| PETON7-10 | 2026-08-31 23:38:13 | 49.34457 | 13.08890 | 97° | 86km/h | 14765m | 5.6m/s | -51.3°C | 4.0% | 131.6hPa | 2.7V | 04:29:00 | 00:00:00 | 00:00:00 | |
| DO8TBO-1 | 2026-08-31 23:38:09 | 49.34465 | 13.08760 | 92° | 95km/h | 14745m | 4.4m/s | -51.8°C | 4.0% | 132.0hPa | 2.6V | 00:00:00 | 01:32:33 | 00:00:00 | |
| OE5MMP-10 | 2026-08-31 23:38:07 | 49.34466 | 13.08699 | 92° | 88km/h | 14736m | 4.8m/s | -51.9°C | 4.0% | 132.2hPa | 2.6V | 04:29:00 | 01:32:31 | 00:00:00 | |
| DO3MHA-11 | 2026-08-31 23:38:06 | 49.34466 | 13.08670 | 93° | 91km/h | 14732m | 5.1m/s | -52.0°C | 4.0% | 132.3hPa | 2.6V | 00:00:00 | 01:32:30 | 00:00:00 | |
| EDDB2-12 | 2026-08-31 23:38:05 | 49.34469 | 13.08609 | 95° | 80km/h | 14722m | 4.6m/s | -52.0°C | 1.6% | 132.5hPa | 2.6V | 00:00:00 | 00:00:00 | 00:00:00 | |
| OE5DRO-10 | 2026-08-31 23:38:04 | 49.34469 | 13.08609 | 96° | 99km/h | 14722m | 4.6m/s | -51.9°C | 4.0% | 132.5hPa | 2.6V | 00:00:00 | 00:00:00 | 00:00:00 | |
| EDDB2-11 | 2026-08-31 23:38:03 | 49.34471 | 13.08578 | 94° | 84km/h | 14717m | 6.3m/s | -52.0°C | 1.6% | 132.6hPa | 2.6V | 00:00:00 | 00:00:00 | 00:00:00 | |
| DL3JIN-12 | 2026-08-31 23:38:01 | 49.34473 | 13.08544 | 97° | 91km/h | 14711m | 5.4m/s | 0°C | 0% | 0hPa | 2.6V | 04:30:00 | 00:00:00 | 00:00:00 | |
| SONCRA | 2026-08-31 23:37:51 | 49.34508 | 13.08078 | 94° | 99km/h | 14656m | 5.2m/s | -53.2°C | 1.8% | 133.9hPa | 2.6V | 00:00:00 | 00:00:00 | 00:00:00 | |
| SONDE2-11 | 2026-08-31 23:37:49 | 49.34511 | 13.08002 | 93° | 95km/h | 14647m | 3.6m/s | -53.4°C | 1.9% | 134.1hPa | 2.6V | 00:00:00 | 00:00:00 | 00:00:00 | |
| OE5MMP-10 | 2026-08-31 23:37:47 | 49.34513 | 13.07965 | 95° | 100km/h | 14644m | 4.7m/s | -53.4°C | 4.5% | 134.1hPa | 2.6V | 00:00:00 | 01:32:11 | 00:00:00 | |
| DO3MHA-11 | 2026-08-31 23:37:46 | 49.34515 | 13.07928 | 95° | 100km/h | 14639m | 4.0m/s | -53.4°C | 4.5% | 134.3hPa | 2.6V | 00:00:00 | 01:32:10 | 00:00:00 | |
| OE5DRO-10 | 2026-08-31 23:37:45 | 49.34517 | 13.07891 | 95° | 102km/h | 14635m | 4.4m/s | -53.5°C | 4.5% | 134.3hPa | 2.7V | 04:29:00 | 00:00:00 | 00:00:00 | |
| PETON7-10 | 2026-08-31 23:37:43 | 49.34520 | 13.07816 | 94° | 102km/h | 14626m | 3.5m/s | -53.5°C | 4.6% | 134.5hPa | 2.7V | 00:00:00 | 01:32:07 | 00:00:00 | |
| DL3JIN-12 | 2026-08-31 23:37:40 | 49.34525 | 13.07699 | 95° | 104km/h | 14613m | 3.4m/s | 0°C | 0% | 0hPa | 2.7V | 04:30:00 | 00:00:00 | 00:00:00 | |
| OE5WHR-10 | 2026-08-31 23:37:39 | 49.34527 | 13.07659 | 93° | 102km/h | 14609m | 5.2m/s | -53.6°C | 4.6% | 134.9hPa | 2.7V | 00:00:00 | 00:00:00 | 00:00:00 | |
| OE5MMP-10 | 2026-08-31 23:37:37 | 49.34528 | 13.07579 | 92° | 104km/h | 14600m | 4.5m/s | -53.7°C | 4.7% | 135.1hPa | 2.6V | 00:00:00 | 01:32:01 | 00:00:00 | |
| DO3MHA-11 | 2026-08-31 23:37:36 | 49.34529 | 13.07539 | 93° | 104km/h | 14596m | 4.2m/s | -53.8°C | 4.7% | 135.2hPa | 2.6V | 00:00:00 | 01:32:00 | 00:00:00 | |
| SP3BTT-10 | 2026-08-31 23:37:35 | 49.34530 | 13.07499 | 92° | 100km/h | 14591m | 3.8m/s | -53.8°C | 4.7% | 135.2hPa | 2.6V | 00:00:00 | 00:00:00 | 00:00:00 | |
| DL6DJ-15 | 2026-08-31 23:37:34 | 49.34531 | 13.07460 | 91° | 100km/h | 14587m | 4.8m/s | -53.9°C | 2.0% | 135.4hPa | 2.6V | 00:00:00 | 00:00:00 | 00:00:00 | |
| S52SK | 2026-08-31 23:37:33 | 49.34530 | 13.07460 | 92° | 102km/h | 14587m | 4.8m/s | -53.9°C | 0% | 0hPa | 2.6V | 00:00:00 | 00:00:00 | 00:00:00 | |
| EDDB2-11 | 2026-08-31 23:37:32 | 49.34532 | 13.07381 | 92° | 102km/h | 14579m | 4.4m/s | -54.0°C | 2.0% | 135.6hPa | 2.6V | 00:00:00 | 00:00:00 | 00:00:00 | |
| DO8TBO-1 | 2026-08-31 23:37:29 | 49.34535 | 13.07260 | 92° | 102km/h | 14568m | 4.5m/s | -54.0°C | 4.8% | 135.8hPa | 2.6V | 00:00:00 | 01:31:53 | 00:00:00 | |
| PETON7-10 | 2026-08-31 23:37:28 | 49.34536 | 13.07220 | 92° | 102km/h | 14563m | 3.4m/s | -54.1°C | 4.9% | 135.9hPa | 2.6V | 00:00:00 | 00:00:00 | 00:00:00 | |
| OE5MMP-10 | 2026-08-31 23:37:27 | 49.34536 | 13.07180 | 92° | 102km/h | 14560m | 3.5m/s | -54.3°C | 5.0% | 135.9hPa | 2.6V | 00:00:00 | 01:31:51 | 00:00:00 | |
| DO3MHA-11 | 2026-08-31 23:37:26 | 49.34537 | 13.07140 | 93° | 102km/h | 14556m | 4.2m/s | -54.5°C | 5.0% | 136.0hPa | 2.6V | 00:00:00 | 01:31:50 | 00:00:00 | |
| SONCRA | 2026-08-31 23:37:20 | 49.34542 | 13.06863 | 90° | 102km/h | 14530m | 3.2m/s | -54.7°C | 2.2% | 136.6hPa | 2.6V | 00:00:00 | 00:00:00 | 00:00:00 | |
| OE5DXL-15 | 2026-08-31 23:37:19 | 49.34542 | 13.06863 | 91° | 102km/h | 14530m | 3.1m/s | -54.7°C | 5.2% | 136.6hPa | 2.6V | 00:00:00 | 00:00:00 | 00:00:00 | |
| OE5MMP-10 | 2026-08-31 23:37:17 | 49.34542 | 13.06783 | 88° | 106km/h | 14522m | 3.8m/s | -54.7°C | 5.2% | 136.7hPa | 2.6V | 04:30:00 | 01:31:41 | 00:00:00 | |
| DO3MHA-11 | 2026-08-31 23:37:16 | 49.34541 | 13.06743 | 88° | 106km/h | 14519m | 3.1m/s | -54.7°C | 5.2% | 136.8hPa | 2.6V | 00:00:00 | 01:31:40 | 00:00:00 | |
| PETON7-10 | 2026-08-31 23:37:13 | 49.34538 | 13.06623 | 90° | 102km/h | 14508m | 3.3m/s | -54.7°C | 5.2% | 137.1hPa | 2.6V | 00:00:00 | 00:00:00 | 00:00:00 | |
| OE5MMP-10 | 2026-08-31 23:37:07 | 49.34537 | 13.06376 | 90° | 99km/h | 14486m | 2.1m/s | -54.9°C | 5.2% | 137.5hPa | 2.6V | 00:00:00 | 01:31:31 | 00:00:00 | |
| DO3MHA-11 | 2026-08-31 23:37:06 | 49.34536 | 13.06335 | 89° | 99km/h | 14483m | 3.9m/s | -54.9°C | 5.3% | 137.6hPa | 2.6V | 04:30:00 | 01:31:30 | 00:00:00 | |
| EDDB2-12 | 2026-08-31 23:37:03 | 49.34533 | 13.06180 | 88° | 95km/h | 14469m | 3.5m/s | -55.2°C | 2.2% | 137.9hPa | 2.6V | 00:00:00 | 00:00:00 | 00:00:00 | |
| EDDB2-11 | 2026-08-31 23:37:02 | 49.34532 | 13.06143 | 89° | 93km/h | 14466m | 3.2m/s | -55.2°C | 2.3% | 138.0hPa | 2.6V | 00:00:00 | 00:00:00 | 00:00:00 | |
| SONCRA | 2026-08-31 23:36:49 | 49.34541 | 13.05651 | 88° | 95km/h | 14423m | 3.7m/s | -55.2°C | 2.3% | 139.0hPa | 2.6V | 00:00:00 | 00:00:00 | 00:00:00 | |
| SONDE2-11 | 2026-08-31 23:36:46 | 49.34541 | 13.05576 | 91° | 97km/h | 14416m | 3.8m/s | -55.1°C | 2.3% | 139.1hPa | 2.6V | 00:00:00 | 00:00:00 | 00:00:00 | |
| OE3JTB-15 | 2026-08-31 23:36:44 | 49.34543 | 13.05499 | 95° | 102km/h | 14410m | 2.3m/s | 0°C | 0% | 0hPa | 2.6V | 00:00:00 | 00:00:00 | 00:00:00 | |
| PETON7-10 | 2026-08-31 23:36:43 | 49.34545 | 13.05459 | 95° | 102km/h | 14408m | 3.1m/s | -55.1°C | 5.3% | 139.3hPa | 2.6V | 00:00:00 | 00:00:00 | 00:00:00 | |
| OE5MMP-10 | 2026-08-31 23:36:37 | 49.34553 | 13.05217 | 92° | 100km/h | 14389m | 3.2m/s | -55.0°C | 5.3% | 139.7hPa | 2.7V | 00:00:00 | 01:31:01 | 00:00:00 | |
| SP3BTT-10 | 2026-08-31 23:36:34 | 49.34553 | 13.05098 | 90° | 102km/h | 14379m | 2.6m/s | 0°C | 0% | 0hPa | 2.7V | 04:30:00 | 00:00:00 | 00:00:00 | |
| EDDB2-12 | 2026-08-31 23:36:32 | 49.34554 | 13.04983 | 91° | 99km/h | 14369m | 2.7m/s | -55.0°C | 2.2% | 140.2hPa | 2.7V | 00:00:00 | 00:00:00 | 00:00:00 | |
| EDDB2-11 | 2026-08-31 23:36:30 | 49.34555 | 13.04945 | 91° | 100km/h | 14366m | 3.5m/s | -55.0°C | 2.2% | 140.2hPa | 2.7V | 00:00:00 | 00:00:00 | 00:00:00 | |
| OE5DRO-10 | 2026-08-31 23:36:29 | 49.34556 | 13.04905 | 92° | 102km/h | 14362m | 3.7m/s | -55.0°C | 5.2% | 140.3hPa | 2.7V | 00:00:00 | 00:00:00 | 00:00:00 | |
| DO3MHA-11 | 2026-08-31 23:36:28 | 49.34556 | 13.04865 | 92° | 102km/h | 14359m | 3.1m/s | -55.0°C | 5.2% | 140.3hPa | 2.7V | 00:00:00 | 01:30:52 | 00:00:00 | |
| OE5MMP-10 | 2026-08-31 23:36:27 | 49.34558 | 13.04825 | 93° | 102km/h | 14355m | 3.3m/s | -55.0°C | 5.2% | 140.4hPa | 2.7V | 04:30:00 | 01:30:51 | 00:00:00 | |
| DO8TBO-1 | 2026-08-31 23:36:26 | 49.34558 | 13.04785 | 93° | 104km/h | 14352m | 4.2m/s | -55.1°C | 5.2% | 140.5hPa | 2.6V | 00:00:00 | 01:30:50 | 00:00:00 | |
| OE5DXL-15 | 2026-08-31 23:36:19 | 49.34566 | 13.04510 | 92° | 104km/h | 14327m | 2.9m/s | -55.1°C | 5.2% | 141.1hPa | 2.6V | 00:00:00 | 00:00:00 | 00:00:00 | |
| DO3MHA-11 | 2026-08-31 23:36:18 | 49.34566 | 13.04471 | 91° | 102km/h | 14323m | 3.8m/s | -55.1°C | 5.2% | 141.1hPa | 2.6V | 00:00:00 | 01:30:42 | 00:00:00 | |
| OE5WHR-10 | 2026-08-31 23:36:17 | 49.34566 | 13.04432 | 91° | 104km/h | 14320m | 4.2m/s | -55.1°C | 5.2% | 141.2hPa | 2.6V | 04:31:00 | 00:00:00 | 00:00:00 | |
| SONDE2-11 | 2026-08-31 23:36:15 | 49.34567 | 13.04353 | 89° | 100km/h | 14313m | 3.2m/s | -55.1°C | 2.2% | 141.4hPa | 2.6V | 00:00:00 | 00:00:00 | 00:00:00 | |
| PETON7-10 | 2026-08-31 23:36:13 | 49.34566 | 13.04275 | 90° | 104km/h | 14306m | 3.1m/s | 0°C | 0% | 0hPa | 2.6V | 00:00:00 | 01:30:37 | 00:00:00 | |
| OE3JTB-15 | 2026-08-31 23:36:10 | 49.34566 | 13.04156 | 90° | 119km/h | 14295m | 3.3m/s | 0°C | 0% | 0hPa | 2.6V | 04:31:00 | 01:30:34 | 00:00:00 | |
| OE5MMP-10 | 2026-08-31 23:36:08 | 49.34565 | 13.04037 | 89° | 106km/h | 14284m | 3.5m/s | -55.1°C | 5.1% | 142.0hPa | 2.6V | 00:00:00 | 01:30:31 | 00:00:00 | |
| S52SK | 2026-08-31 23:36:06 | 49.34565 | 13.03998 | 90° | 102km/h | 14280m | 3.7m/s | -55.1°C | 0% | 0hPa | 2.6V | 00:00:00 | 00:00:00 | 00:00:00 | |
| SP3BTT-10 | 2026-08-31 23:36:04 | 49.34565 | 13.03918 | 91° | 104km/h | 14271m | 3.5m/s | 0°C | 0% | 0hPa | 2.6V | 00:00:00 | 00:00:00 | 00:00:00 | |
| EDDB2-12 | 2026-08-31 23:36:01 | 49.34565 | 13.03754 | 89° | 106km/h | 14256m | 3.1m/s | -55.2°C | 2.2% | 142.7hPa | 2.6V | 00:00:00 | 00:00:00 | 00:00:00 | |
| EDDB2-11 | 2026-08-31 23:35:59 | 49.34565 | 13.03713 | 89° | 108km/h | 14252m | 4.7m/s | -55.2°C | 2.2% | 142.8hPa | 2.6V | 00:00:00 | 00:00:00 | 00:00:00 | |
| SONCRA | 2026-08-31 23:35:46 | 49.34559 | 13.03184 | 85° | 104km/h | 14203m | 3.4m/s | -55.0°C | 2.1% | 143.9hPa | 2.6V | 00:00:00 | 00:00:00 | 00:00:00 | |
| SONDE2-11 | 2026-08-31 23:35:44 | 49.34555 | 13.03104 | 86° | 102km/h | 14195m | 4.1m/s | -54.9°C | 2.1% | 144.1hPa | 2.6V | 00:00:00 | 00:00:00 | 00:00:00 | |
| PETON7-10 | 2026-08-31 23:35:43 | 49.34553 | 13.03064 | 88° | 104km/h | 14191m | 3.5m/s | 0°C | 0% | 0hPa | 2.6V | 00:00:00 | 00:00:00 | 00:00:00 | |
| DO3MHA-11 | 2026-08-31 23:35:38 | 49.34551 | 13.02859 | 89° | 102km/h | 14170m | 4.0m/s | -54.7°C | 5.0% | 144.6hPa | 2.6V | 00:00:00 | 01:30:02 | 00:00:00 | |
| OE5MMP-10 | 2026-08-31 23:35:37 | 49.34551 | 13.02819 | 89° | 104km/h | 14166m | 3.9m/s | -54.7°C | 5.0% | 144.7hPa | 2.6V | 04:31:00 | 01:30:01 | 00:00:00 | |
| OE5WHR-10 | 2026-08-31 23:35:35 | 49.34548 | 13.02740 | 87° | 102km/h | 14157m | 3.9m/s | -54.7°C | 5.0% | 144.9hPa | 2.6V | 00:00:00 | 00:00:00 | 00:00:00 | |
| OE5DRO-10 | 2026-08-31 23:35:32 | 49.34542 | 13.02621 | 86° | 104km/h | 14145m | 3.0m/s | -54.7°C | 5.0% | 145.2hPa | 2.7V | 00:00:00 | 00:00:00 | 00:00:00 | |
| DL6DJ-15 | 2026-08-31 23:35:30 | 49.34538 | 13.02540 | 86° | 106km/h | 14136m | 4.2m/s | -54.7°C | 2.1% | 145.4hPa | 2.7V | 00:00:00 | 00:00:00 | 00:00:00 | |
| EDDB2-12 | 2026-08-31 23:35:29 | 49.34537 | 13.02498 | 86° | 106km/h | 14133m | 3.3m/s | -54.7°C | 2.1% | 145.5hPa | 2.7V | 00:00:00 | 00:00:00 | 00:00:00 | |
| EDDB2-11 | 2026-08-31 23:35:28 | 49.34535 | 13.02457 | 87° | 106km/h | 14129m | 5.1m/s | -54.7°C | 2.1% | 145.6hPa | 2.7V | 00:00:00 | 00:00:00 | 00:00:00 | |
| OE5MMP-10 | 2026-08-31 23:35:27 | 49.34534 | 13.02416 | 89° | 102km/h | 14124m | 4.4m/s | -54.7°C | 5.0% | 145.7hPa | 2.7V | 00:00:00 | 01:29:51 | 00:00:00 | |
| PETON7-10 | 2026-08-31 23:35:26 | 49.34534 | 13.02377 | 90° | 104km/h | 14120m | 3.7m/s | 0°C | 0% | 0hPa | 2.6V | 00:00:00 | 01:29:50 | 00:00:00 | |
| OE5DXL-15 | 2026-08-31 23:35:19 | 49.34535 | 13.02102 | 90° | 102km/h | 14090m | 5.0m/s | -54.6°C | 5.0% | 146.4hPa | 2.6V | 04:32:00 | 00:00:00 | 00:00:00 | |
| OE5MMP-10 | 2026-08-31 23:35:17 | 49.34534 | 13.02022 | 89° | 106km/h | 14082m | 3.4m/s | -54.5°C | 5.0% | 146.6hPa | 2.6V | 00:00:00 | 01:29:41 | 00:00:00 | |
| SONCRA | 2026-08-31 23:35:15 | 49.34532 | 13.01941 | 86° | 104km/h | 14073m | 4.5m/s | -54.6°C | 2.1% | 146.9hPa | 2.6V | 00:00:00 | 00:00:00 | 00:00:00 | |
| OE5DRO-10 | 2026-08-31 23:35:13 | 49.34530 | 13.01858 | 88° | 104km/h | 14064m | 5.1m/s | -54.5°C | 4.9% | 147.0hPa | 2.6V | 00:00:00 | 00:00:00 | 00:00:00 | |
| PETON7-10 | 2026-08-31 23:35:11 | 49.34529 | 13.01774 | 90° | 104km/h | 14056m | 3.5m/s | 0°C | 0% | 0hPa | 2.6V | 00:00:00 | 00:00:00 | 00:00:00 | |
| OE5MMP-10 | 2026-08-31 23:35:07 | 49.34527 | 13.01613 | 89° | 102km/h | 14038m | 5.1m/s | -54.5°C | 5.0% | 147.6hPa | 2.6V | 00:00:00 | 01:29:31 | 00:00:00 | |
| SP3BTT-10 | 2026-08-31 23:35:03 | 49.34522 | 13.01456 | 87° | 95km/h | 14020m | 4.5m/s | 0°C | 0% | 0hPa | 2.6V | 00:00:00 | 00:00:00 | 00:00:00 | |
| S52SK | 2026-08-31 23:35:01 | 49.34521 | 13.01417 | 88° | 102km/h | 14016m | 3.9m/s | -54.4°C | 0% | 0hPa | 2.6V | 04:32:00 | 00:00:00 | 00:00:00 | |
| DL6DJ-15 | 2026-08-31 23:34:59 | 49.34517 | 13.01296 | 87° | 104km/h | 14003m | 4.6m/s | -54.4°C | 2.0% | 148.5hPa | 2.6V | 00:00:00 | 00:00:00 | 00:00:00 | |
| EDDB2-12 | 2026-08-31 23:34:58 | 49.34516 | 13.01256 | 87° | 100km/h | 13998m | 4.7m/s | -54.5°C | 2.0% | 148.6hPa | 2.6V | 00:00:00 | 00:00:00 | 00:00:00 | |
| EDDB2-11 | 2026-08-31 23:34:57 | 49.34515 | 13.01216 | 87° | 100km/h | 13994m | 4.0m/s | -54.5°C | 2.0% | 148.7hPa | 2.6V | 00:00:00 | 00:00:00 | 00:00:00 | |
| SONCRA | 2026-08-31 23:34:44 | 49.34501 | 13.00711 | 84° | 100km/h | 13935m | 5.5m/s | -54.4°C | 2.2% | 150.1hPa | 2.6V | 00:00:00 | 00:00:00 | 00:00:00 | |
| DO3MHA-11 | 2026-08-31 23:34:43 | 49.34499 | 13.00671 | 84° | 100km/h | 13930m | 4.4m/s | -54.4°C | 5.1% | 150.2hPa | 2.6V | 00:00:00 | 01:29:07 | 00:00:00 | |
| SONDE2-11 | 2026-08-31 23:34:42 | 49.34496 | 13.00633 | 84° | 100km/h | 13925m | 4.5m/s | -54.4°C | 2.2% | 150.4hPa | 2.7V | 00:00:00 | 00:00:00 | 00:00:00 | |
| PG1ADW-2 | 2026-08-31 23:34:41 | 49.34493 | 13.00594 | 85° | 97km/h | 13921m | 5.1m/s | -54.3°C | 5.2% | 150.4hPa | 2.7V | 00:00:00 | 00:00:00 | 00:00:00 | |
| OE5MMP-10 | 2026-08-31 23:34:37 | 49.34486 | 13.00440 | 87° | 97km/h | 13902m | 4.6m/s | -54.3°C | 5.1% | 150.9hPa | 2.7V | 00:00:00 | 01:29:01 | 00:00:00 | |
| OE5DRO-10 | 2026-08-31 23:34:35 | 49.34484 | 13.00363 | 89° | 95km/h | 13892m | 4.1m/s | -54.4°C | 5.1% | 151.1hPa | 2.7V | 04:32:00 | 00:00:00 | 00:00:00 | |
| DO3MHA-11 | 2026-08-31 23:34:34 | 49.34482 | 13.00287 | 87° | 95km/h | 13882m | 5.5m/s | -54.5°C | 5.1% | 151.3hPa | 2.7V | 00:00:00 | 01:28:57 | 00:00:00 | |
| PETON7-10 | 2026-08-31 23:34:28 | 49.34472 | 13.00101 | 84° | 93km/h | 13859m | 5.1m/s | 0°C | 0% | 0hPa | 2.7V | 00:00:00 | 01:28:52 | 00:00:00 | |
| OE5MMP-10 | 2026-08-31 23:34:27 | 49.34469 | 13.00065 | 84° | 91km/h | 13854m | 5.0m/s | -54.3°C | 5.1% | 152.0hPa | 2.7V | 00:00:00 | 01:28:51 | 00:00:00 | |
| OE5WHR-10 | 2026-08-31 23:34:26 | 49.34466 | 13.00029 | 84° | 91km/h | 13849m | 3.9m/s | -54.3°C | 5.1% | 152.1hPa | 2.6V | 00:00:00 | 01:28:50 | 00:00:00 | |
| DO3MHA-11 | 2026-08-31 23:34:23 | 49.34460 | 12.99923 | 86° | 91km/h | 13835m | 4.4m/s | -54.2°C | 5.0% | 152.4hPa | 2.6V | 04:33:00 | 01:28:47 | 00:00:00 | |
| PG1ADW-2 | 2026-08-31 23:34:21 | 49.34456 | 12.99852 | 86° | 91km/h | 13825m | 4.4m/s | -54.2°C | 5.0% | 152.7hPa | 2.6V | 00:00:00 | 00:00:00 | 00:00:00 | |
| OE5DXL-15 | 2026-08-31 23:34:19 | 49.34453 | 12.99781 | 87° | 91km/h | 13815m | 5.2m/s | -54.1°C | 5.0% | 152.9hPa | 2.6V | 00:00:00 | 00:00:00 | 00:00:00 | |
| SP3BTT-10 | 2026-08-31 23:34:18 | 49.34451 | 12.99746 | 86° | 102km/h | 13810m | 4.8m/s | 0°C | 0% | 0hPa | 2.6V | 00:00:00 | 00:00:00 | 00:00:00 | |
| OE5MMP-10 | 2026-08-31 23:34:17 | 49.34449 | 12.99711 | 85° | 91km/h | 13805m | 5.8m/s | -54.1°C | 5.0% | 153.1hPa | 2.6V | 00:00:00 | 01:28:41 | 00:00:00 | |
| OE5DRO-10 | 2026-08-31 23:34:16 | 49.34447 | 12.99675 | 84° | 91km/h | 13800m | 4.3m/s | -54.0°C | 5.0% | 153.2hPa | 2.6V | 00:00:00 | 00:00:00 | 00:00:00 | |
| DO8TBO-1 | 2026-08-31 23:34:15 | 49.34444 | 12.99639 | 83° | 91km/h | 13796m | 4.0m/s | -54.0°C | 5.0% | 153.4hPa | 2.6V | 00:00:00 | 01:28:39 | 00:00:00 | |
| DO3MHA-11 | 2026-08-31 23:34:13 | 49.34438 | 12.99569 | 84° | 91km/h | 13786m | 3.6m/s | -53.9°C | 5.0% | 153.6hPa | 2.7V | 00:00:00 | 01:28:37 | 00:00:00 | |
| SONDE2-11 | 2026-08-31 23:34:11 | 49.34434 | 12.99499 | 84° | 89km/h | 13777m | 4.9m/s | -53.8°C | 2.0% | 153.9hPa | 2.6V | 00:00:00 | 00:00:00 | 00:00:00 | |
| OE5MMP-10 | 2026-08-31 23:34:07 | 49.34427 | 12.99361 | 86° | 91km/h | 13758m | 3.8m/s | -53.6°C | 4.8% | 154.3hPa | 2.6V | 00:00:00 | 01:28:31 | 00:00:00 | |
| OE5WHR-10 | 2026-08-31 23:34:05 | 49.34423 | 12.99290 | 85° | 91km/h | 13748m | 4.4m/s | -53.5°C | 4.8% | 154.5hPa | 2.6V | 04:33:00 | 00:00:00 | 00:00:00 | |
| DO3MHA-11 | 2026-08-31 23:34:02 | 49.34417 | 12.99184 | 86° | 91km/h | 13734m | 4.1m/s | -53.4°C | 4.7% | 154.9hPa | 2.7V | 00:00:00 | 01:28:26 | 00:00:00 | |
| EDDB2-12 | 2026-08-31 23:33:57 | 49.34402 | 12.98972 | 84° | 89km/h | 13706m | 3.9m/s | -53.3°C | 1.8% | 155.6hPa | 2.7V | 00:00:00 | 00:00:00 | 00:00:00 | |
| EDDB2-11 | 2026-08-31 23:33:55 | 49.34399 | 12.98937 | 83° | 91km/h | 13701m | 5.5m/s | -53.2°C | 1.8% | 155.7hPa | 2.7V | 00:00:00 | 00:00:00 | 00:00:00 | |
| DL1JEZ-13 | 2026-08-31 23:33:53 | 49.34397 | 12.98901 | 84° | 93km/h | 13696m | 4.7m/s | -53.2°C | 0% | 0hPa | 2.7V | 00:00:00 | 00:00:00 | 00:00:00 | |
| DO3MHA-11 | 2026-08-31 23:33:52 | 49.34391 | 12.98830 | 85° | 91km/h | 13686m | 5.4m/s | -53.1°C | 4.5% | 156.0hPa | 2.7V | 00:00:00 | 01:28:16 | 00:00:00 | |
| OE5DXL-15 | 2026-08-31 23:33:49 | 49.34385 | 12.98724 | 85° | 97km/h | 13673m | 4.4m/s | -53.0°C | 4.5% | 156.3hPa | 2.7V | 00:00:00 | 00:00:00 | 00:00:00 | |
| OE5MMP-10 | 2026-08-31 23:33:47 | 49.34380 | 12.98653 | 83° | 93km/h | 13664m | 4.3m/s | -53.0°C | 4.5% | 156.5hPa | 2.7V | 00:00:00 | 01:28:11 | 00:00:00 | |
| DO8TBO-1 | 2026-08-31 23:33:45 | 49.34373 | 12.98582 | 84° | 100km/h | 13655m | 5.3m/s | -52.9°C | 4.5% | 156.7hPa | 2.7V | 00:00:00 | 01:28:09 | 00:00:00 | |
| OE5WHR-10 | 2026-08-31 23:33:44 | 49.34371 | 12.98547 | 84° | 97km/h | 13650m | 4.0m/s | -52.9°C | 4.5% | 156.8hPa | 2.7V | 00:00:00 | 00:00:00 | 00:00:00 | |
| S52SK | 2026-08-31 23:33:43 | 49.34371 | 12.98547 | 84° | 91km/h | 13650m | 4.1m/s | -52.9°C | 0% | 0hPa | 2.7V | 00:00:00 | 00:00:00 | 00:00:00 | |
| DO3MHA-11 | 2026-08-31 23:33:42 | 49.34365 | 12.98476 | 83° | 97km/h | 13641m | 5.1m/s | -52.8°C | 4.4% | 157.0hPa | 2.7V | 00:00:00 | 01:28:06 | 00:00:00 | |
| PG1ADW-2 | 2026-08-31 23:33:41 | 49.34362 | 12.98440 | 83° | 99km/h | 13637m | 4.0m/s | -52.8°C | 4.5% | 157.2hPa | 2.7V | 04:33:00 | 00:00:00 | 00:00:00 | |
| SONDE2-11 | 2026-08-31 23:33:40 | 49.34359 | 12.98403 | 83° | 95km/h | 13632m | 4.0m/s | -52.9°C | 1.8% | 157.3hPa | 2.7V | 00:00:00 | 00:00:00 | 00:00:00 | |
| OE5DRO-10 | 2026-08-31 23:33:38 | 49.34354 | 12.98329 | 86° | 100km/h | 13624m | 3.9m/s | -52.9°C | 4.5% | 157.5hPa | 2.7V | 00:00:00 | 00:00:00 | 00:00:00 | |
| OE5MMP-10 | 2026-08-31 23:33:37 | 49.34351 | 12.98292 | 86° | 97km/h | 13619m | 4.1m/s | -52.9°C | 4.5% | 157.6hPa | 2.7V | 00:00:00 | 01:28:01 | 00:00:00 | |
| DO3MHA-11 | 2026-08-31 23:33:32 | 49.34340 | 12.98100 | 86° | 99km/h | 13597m | 4.0m/s | -52.9°C | 4.5% | 158.1hPa | 2.7V | 04:33:00 | 01:27:56 | 00:00:00 | |
| OE5MMP-10 | 2026-08-31 23:33:27 | 49.34326 | 12.97916 | 84° | 104km/h | 13575m | 4.7m/s | -52.9°C | 4.5% | 158.7hPa | 2.7V | 00:00:00 | 01:27:51 | 00:00:00 | |
| DL6DJ-15 | 2026-08-31 23:33:26 | 49.34321 | 12.97840 | 82° | 100km/h | 13566m | 3.4m/s | -52.9°C | 1.8% | 159.0hPa | 2.6V | 00:00:00 | 00:00:00 | 00:00:00 | |
| EDDB2-12 | 2026-08-31 23:33:25 | 49.34321 | 12.97840 | 82° | 100km/h | 13566m | 3.4m/s | -52.9°C | 1.8% | 159.0hPa | 2.6V | 00:00:00 | 00:00:00 | 00:00:00 | |
| EDDB2-11 | 2026-08-31 23:33:24 | 49.34317 | 12.97801 | 81° | 102km/h | 13562m | 4.8m/s | -52.8°C | 1.9% | 159.1hPa | 2.6V | 00:00:00 | 00:00:00 | 00:00:00 | |
| OE5WHR-10 | 2026-08-31 23:33:23 | 49.34313 | 12.97761 | 82° | 106km/h | 13558m | 4.8m/s | -52.8°C | 4.5% | 159.1hPa | 2.6V | 00:00:00 | 01:27:47 | 00:00:00 | |
| DG1MFX-10 | 2026-08-31 23:33:22 | 49.34309 | 12.97720 | 82° | 108km/h | 13553m | 3.8m/s | -52.8°C | 1.9% | 159.3hPa | 2.6V | 04:34:00 | 00:00:00 | 00:00:00 | |
| PG1ADW-2 | 2026-08-31 23:33:21 | 49.34305 | 12.97679 | 82° | 106km/h | 13549m | 4.7m/s | -52.7°C | 4.5% | 159.3hPa | 2.6V | 00:00:00 | 00:00:00 | 00:00:00 | |
| OE5DRO-10 | 2026-08-31 23:33:19 | 49.34298 | 12.97596 | 85° | 106km/h | 13540m | 4.0m/s | -52.7°C | 4.5% | 159.5hPa | 2.6V | 00:00:00 | 00:00:00 | 00:00:00 | |
| OE5MMP-10 | 2026-08-31 23:33:17 | 49.34293 | 12.97514 | 84° | 106km/h | 13532m | 4.1m/s | -52.8°C | 4.5% | 159.7hPa | 2.7V | 00:00:00 | 01:27:41 | 00:00:00 | |
| DO8TBO-1 | 2026-08-31 23:33:14 | 49.34282 | 12.97394 | 82° | 104km/h | 13519m | 3.6m/s | -52.7°C | 4.5% | 160.0hPa | 2.7V | 00:00:00 | 01:27:38 | 00:00:00 | |
| DO3MHA-11 | 2026-08-31 23:33:12 | 49.34275 | 12.97313 | 84° | 108km/h | 13510m | 4.3m/s | -52.7°C | 4.4% | 160.3hPa | 2.7V | 00:00:00 | 01:27:36 | 00:00:00 | |
| SONCRA | 2026-08-31 23:33:11 | 49.34272 | 12.97273 | 83° | 106km/h | 13505m | 4.2m/s | -52.7°C | 1.8% | 160.4hPa | 2.7V | 00:00:00 | 00:00:00 | 00:00:00 | |
| SONDE2-11 | 2026-08-31 23:33:09 | 49.34265 | 12.97191 | 81° | 108km/h | 13496m | 3.9m/s | -52.6°C | 1.8% | 160.7hPa | 2.7V | 00:00:00 | 00:00:00 | 00:00:00 | |
| OE5MMP-10 | 2026-08-31 23:33:07 | 49.34257 | 12.97108 | 82° | 106km/h | 13487m | 4.8m/s | -52.5°C | 4.4% | 160.8hPa | 2.7V | 04:34:00 | 01:27:31 | 00:00:00 | |
| SP3BTT-10 | 2026-08-31 23:33:03 | 49.34238 | 12.96943 | 79° | 106km/h | 13469m | 3.8m/s | 0°C | 0% | 0hPa | 2.7V | 00:00:00 | 00:00:00 | 00:00:00 | |
| DO3MHA-11 | 2026-08-31 23:33:02 | 49.34233 | 12.96903 | 80° | 106km/h | 13465m | 5.0m/s | -52.3°C | 4.4% | 161.4hPa | 2.7V | 00:00:00 | 01:27:26 | 00:00:00 | |
| DG1MFX-10 | 2026-08-31 23:33:01 | 49.34233 | 12.96903 | 81° | 106km/h | 13465m | 5.0m/s | -52.4°C | 1.8% | 161.4hPa | 2.7V | 04:35:00 | 00:00:00 | 00:00:00 | |
| DL6DJ-15 | 2026-08-31 23:32:55 | 49.34196 | 12.96582 | 80° | 106km/h | 13432m | 3.4m/s | -52.2°C | 1.8% | 162.3hPa | 2.7V | 00:00:00 | 00:00:00 | 00:00:00 | |
| EDDB2-12 | 2026-08-31 23:32:54 | 49.34196 | 12.96582 | 80° | 106km/h | 13432m | 3.4m/s | -52.2°C | 1.8% | 162.3hPa | 2.7V | 00:00:00 | 00:00:00 | 00:00:00 | |
| EDDB2-11 | 2026-08-31 23:32:53 | 49.34191 | 12.96541 | 79° | 108km/h | 13428m | 4.0m/s | -52.2°C | 1.8% | 162.4hPa | 2.7V | 00:00:00 | 00:00:00 | 00:00:00 | |
| DO3MHA-11 | 2026-08-31 23:32:52 | 49.34186 | 12.96500 | 79° | 106km/h | 13424m | 4.7m/s | -52.1°C | 4.3% | 162.4hPa | 2.7V | 00:00:00 | 01:27:16 | 00:00:00 | |
| OE5DXL-15 | 2026-08-31 23:32:49 | 49.34168 | 12.96377 | 78° | 104km/h | 13411m | 4.7m/s | -52.1°C | 4.4% | 162.7hPa | 2.7V | 04:34:00 | 00:00:00 | 00:00:00 | |
| OE5MMP-10 | 2026-08-31 23:32:47 | 49.34156 | 12.96297 | 77° | 102km/h | 13403m | 4.2m/s | -52.1°C | 4.4% | 162.9hPa | 2.7V | 00:00:00 | 01:27:11 | 00:00:00 | |
| DO3MHA-11 | 2026-08-31 23:32:42 | 49.34128 | 12.96101 | 79° | 102km/h | 13382m | 3.3m/s | -52.0°C | 4.4% | 163.5hPa | 2.7V | 04:34:00 | 01:27:06 | 00:00:00 | |
| OE5DRO-10 | 2026-08-31 23:32:41 | 49.34123 | 12.96064 | 79° | 104km/h | 13378m | 4.5m/s | -52.0°C | 4.3% | 163.6hPa | 2.7V | 00:00:00 | 00:00:00 | 00:00:00 | |
| OE5WHR-10 | 2026-08-31 23:32:40 | 49.34118 | 12.96025 | 78° | 104km/h | 13374m | 4.1m/s | -52.0°C | 4.3% | 163.7hPa | 2.7V | 00:00:00 | 00:00:00 | 00:00:00 | |
| DO8TBO-1 | 2026-08-31 23:32:38 | 49.34106 | 12.95949 | 78° | 104km/h | 13365m | 4.7m/s | -51.9°C | 4.3% | 163.9hPa | 2.7V | 04:34:00 | 01:27:02 | 00:00:00 | |
| OE5MMP-10 | 2026-08-31 23:32:37 | 49.34101 | 12.95911 | 79° | 104km/h | 13360m | 4.7m/s | -51.9°C | 4.3% | 164.0hPa | 2.7V | 00:00:00 | 01:27:01 | 00:00:00 | |
| DO3MHA-11 | 2026-08-31 23:32:32 | 49.34073 | 12.95711 | 77° | 104km/h | 13340m | 4.5m/s | -51.7°C | 4.4% | 164.5hPa | 2.7V | 00:00:00 | 01:26:56 | 00:00:00 | |
| S52SK | 2026-08-31 23:32:27 | 49.34039 | 12.95516 | 75° | 104km/h | 13319m | 3.5m/s | -51.8°C | 0% | 0hPa | 2.7V | 04:35:00 | 00:00:00 | 00:00:00 | |
| DL6DJ-15 | 2026-08-31 23:32:24 | 49.34013 | 12.95362 | 76° | 102km/h | 13303m | 4.6m/s | -51.7°C | 1.8% | 165.4hPa | 2.7V | 00:00:00 | 00:00:00 | 00:00:00 | |
| EDDB2-12 | 2026-08-31 23:32:23 | 49.34013 | 12.95362 | 76° | 102km/h | 13303m | 4.6m/s | -51.7°C | 1.8% | 165.4hPa | 2.7V | 00:00:00 | 00:00:00 | 00:00:00 | |
| DO3MHA-11 | 2026-08-31 23:32:22 | 49.34006 | 12.95323 | 76° | 108km/h | 13299m | 4.1m/s | -51.7°C | 4.4% | 165.5hPa | 2.7V | 00:00:00 | 01:26:46 | 00:00:00 | |
| PG1ADW-2 | 2026-08-31 23:32:21 | 49.34000 | 12.95284 | 77° | 106km/h | 13295m | 4.0m/s | -51.7°C | 4.3% | 165.6hPa | 2.7V | 00:00:00 | 00:00:00 | 00:00:00 | |
| S52SK | 2026-08-31 23:32:20 | 49.34000 | 12.95284 | 77° | 106km/h | 13295m | 4.1m/s | 0°C | 0% | 0hPa | 2.7V | 04:35:00 | 00:00:00 | 00:00:00 | |
| OE5WHR-10 | 2026-08-31 23:32:19 | 49.33987 | 12.95204 | 76° | 106km/h | 13287m | 3.7m/s | -51.7°C | 4.4% | 165.9hPa | 2.7V | 04:35:00 | 01:26:43 | 00:00:00 | |
| OE5MMP-10 | 2026-08-31 23:32:17 | 49.33972 | 12.95124 | 74° | 108km/h | 13278m | 4.0m/s | -51.8°C | 4.4% | 166.1hPa | 2.7V | 04:35:00 | 01:26:41 | 00:00:00 | |
| S52SK | 2026-08-31 23:32:15 | 49.33964 | 12.95084 | 74° | 108km/h | 13274m | 3.4m/s | 0°C | 0% | 0hPa | 2.7V | 00:00:00 | 00:00:00 | 00:00:00 | |
| DO3MHA-11 | 2026-08-31 23:32:12 | 49.33933 | 12.94924 | 74° | 106km/h | 13258m | 4.3m/s | -51.7°C | 4.3% | 166.6hPa | 2.7V | 00:00:00 | 01:26:36 | 00:00:00 | |
| SONCRA | 2026-08-31 23:32:09 | 49.33905 | 12.94765 | 75° | 106km/h | 13241m | 4.0m/s | -51.7°C | 1.9% | 167.1hPa | 2.6V | 00:00:00 | 00:00:00 | 00:00:00 | |
| OE5MMP-10 | 2026-08-31 23:32:07 | 49.33898 | 12.94725 | 75° | 104km/h | 13237m | 3.9m/s | -51.6°C | 4.3% | 167.1hPa | 2.6V | 00:00:00 | 01:26:31 | 00:00:00 | |
| SP3BTT-10 | 2026-08-31 23:32:03 | 49.33871 | 12.94571 | 75° | 102km/h | 13222m | 3.1m/s | 0°C | 0% | 0hPa | 2.6V | 00:00:00 | 00:00:00 | 00:00:00 | |
| DO3MHA-11 | 2026-08-31 23:32:02 | 49.33864 | 12.94533 | 74° | 102km/h | 13218m | 4.3m/s | -51.7°C | 4.3% | 167.6hPa | 2.6V | 00:00:00 | 01:26:26 | 00:00:00 | |
| DL6DJ-15 | 2026-08-31 23:31:53 | 49.33788 | 12.94153 | 71° | 97km/h | 13180m | 4.3m/s | -51.9°C | 1.9% | 168.6hPa | 2.6V | 00:00:00 | 00:00:00 | 00:00:00 | |
| EDDB2-12 | 2026-08-31 23:31:52 | 49.33788 | 12.94153 | 71° | 97km/h | 13180m | 4.3m/s | -51.9°C | 1.9% | 168.6hPa | 2.6V | 00:00:00 | 00:00:00 | 00:00:00 | |
| EDDB2-11 | 2026-08-31 23:31:51 | 49.33780 | 12.94117 | 70° | 99km/h | 13177m | 3.5m/s | -51.9°C | 1.9% | 168.7hPa | 2.6V | 00:00:00 | 00:00:00 | 00:00:00 | |
| OE5DXL-15 | 2026-08-31 23:31:49 | 49.33764 | 12.94044 | 73° | 100km/h | 13169m | 4.3m/s | -51.8°C | 4.4% | 168.8hPa | 2.6V | 00:00:00 | 00:00:00 | 00:00:00 | |
| OE5MMP-10 | 2026-08-31 23:31:47 | 49.33749 | 12.93970 | 74° | 102km/h | 13162m | 3.7m/s | -51.7°C | 4.4% | 169.1hPa | 2.7V | 00:00:00 | 01:26:11 | 00:00:00 | |
| OE5DRO-10 | 2026-08-31 23:31:44 | 49.33727 | 12.93855 | 75° | 100km/h | 13151m | 4.0m/s | -51.7°C | 4.4% | 169.3hPa | 2.7V | 00:00:00 | 00:00:00 | 00:00:00 | |
| DO3MHA-11 | 2026-08-31 23:31:42 | 49.33714 | 12.93778 | 75° | 99km/h | 13144m | 3.1m/s | -51.6°C | 4.4% | 169.5hPa | 2.7V | 00:00:00 | 01:26:06 | 00:00:00 | |
| PG1ADW-2 | 2026-08-31 23:31:41 | 49.33707 | 12.93740 | 74° | 100km/h | 13140m | 4.2m/s | -51.6°C | 4.4% | 169.6hPa | 2.7V | 00:00:00 | 00:00:00 | 00:00:00 | |
| DG1MFX-10 | 2026-08-31 23:31:39 | 49.33700 | 12.93703 | 74° | 100km/h | 13136m | 3.1m/s | -51.7°C | 0% | 169.7hPa | 2.7V | 04:35:00 | 00:00:00 | 00:00:00 | |
| OE5WHR-10 | 2026-08-31 23:31:37 | 49.33679 | 12.93593 | 75° | 100km/h | 13125m | 2.3m/s | -51.6°C | 4.4% | 170.0hPa | 2.7V | 00:00:00 | 00:00:00 | 00:00:00 | |
| SONDE2-11 | 2026-08-31 23:31:36 | 49.33666 | 12.93521 | 73° | 97km/h | 13118m | 3.3m/s | -51.6°C | 1.9% | 170.2hPa | 2.7V | 00:00:00 | 00:00:00 | 00:00:00 | |
| DO3MHA-11 | 2026-08-31 23:31:32 | 49.33646 | 12.93409 | 77° | 102km/h | 13109m | 3.3m/s | -51.6°C | 4.4% | 170.4hPa | 2.7V | 00:00:00 | 01:25:56 | 00:00:00 | |
| DO8TBO-1 | 2026-08-31 23:31:30 | 49.33634 | 12.93332 | 76° | 99km/h | 13101m | 3.9m/s | -51.6°C | 4.4% | 170.6hPa | 2.7V | 00:00:00 | 01:25:54 | 00:00:00 | |
| OE5MMP-10 | 2026-08-31 23:31:27 | 49.33615 | 12.93216 | 78° | 100km/h | 13090m | 3.8m/s | -51.6°C | 4.5% | 170.9hPa | 2.7V | 04:35:00 | 01:25:51 | 00:00:00 | |
| OE5DRO-10 | 2026-08-31 23:31:25 | 49.33604 | 12.93140 | 78° | 100km/h | 13084m | 2.8m/s | -51.6°C | 4.4% | 171.1hPa | 2.7V | 04:36:00 | 00:00:00 | 00:00:00 | |
| DL6DJ-15 | 2026-08-31 23:31:22 | 49.33578 | 12.92989 | 75° | 100km/h | 13072m | 3.7m/s | -51.7°C | 1.9% | 171.4hPa | 2.7V | 00:00:00 | 00:00:00 | 00:00:00 | |
| PG1ADW-2 | 2026-08-31 23:31:21 | 49.33578 | 12.92989 | 76° | 99km/h | 13072m | 3.7m/s | -51.6°C | 4.4% | 171.4hPa | 2.7V | 00:00:00 | 01:25:45 | 00:00:00 | |
| EDDB2-11 | 2026-08-31 23:31:20 | 49.33572 | 12.92950 | 76° | 102km/h | 13068m | 3.3m/s | -51.7°C | 2.0% | 171.6hPa | 2.7V | 00:00:00 | 00:00:00 | 00:00:00 | |
| OE5DXL-15 | 2026-08-31 23:31:19 | 49.33566 | 12.92911 | 78° | 99km/h | 13065m | 3.1m/s | -51.7°C | 4.5% | 171.5hPa | 2.7V | 00:00:00 | 00:00:00 | 00:00:00 | |
| OE5MMP-10 | 2026-08-31 23:31:17 | 49.33555 | 12.92836 | 79° | 99km/h | 13058m | 2.7m/s | -51.9°C | 4.6% | 171.7hPa | 2.7V | 00:00:00 | 01:25:41 | 00:00:00 | |
| OE5WHR-10 | 2026-08-31 23:31:16 | 49.33550 | 12.92798 | 79° | 99km/h | 13056m | 2.7m/s | -52.0°C | 4.6% | 171.8hPa | 2.7V | 00:00:00 | 01:25:40 | 00:00:00 | |
| ANDY1245 | 2026-08-31 23:31:15 | 49.33550 | 12.92798 | 80° | 99km/h | 13056m | 2.8m/s | -52.0°C | 0% | 0hPa | 2.7V | 00:00:00 | 00:00:00 | 00:00:00 | |
| DO3MHA-11 | 2026-08-31 23:31:12 | 49.33530 | 12.92649 | 78° | 99km/h | 13041m | 3.6m/s | -52.2°C | 4.7% | 172.2hPa | 2.7V | 00:00:00 | 01:25:36 | 00:00:00 | |
| ANDY1245 | 2026-08-31 23:31:08 | 49.33515 | 12.92538 | 80° | 100km/h | 13031m | 3.6m/s | -52.2°C | 0% | 0hPa | 2.7V | 00:00:00 | 00:00:00 | 00:00:00 | |
| OE5MMP-10 | 2026-08-31 23:31:07 | 49.33506 | 12.92460 | 82° | 97km/h | 13024m | 4.3m/s | -52.2°C | 4.8% | 172.7hPa | 2.7V | 00:00:00 | 01:25:31 | 00:00:00 | |
| OE5DRO-10 | 2026-08-31 23:31:06 | 49.33503 | 12.92423 | 83° | 99km/h | 13020m | 4.3m/s | -52.2°C | 4.9% | 172.8hPa | 2.7V | 00:00:00 | 00:00:00 | 00:00:00 | |
| S52SK | 2026-08-31 23:31:04 | 49.33500 | 12.92385 | 84° | 97km/h | 13016m | 2.8m/s | 0°C | 0% | 0hPa | 2.7V | 00:00:00 | 00:00:00 | 00:00:00 | |
| DO3MHA-11 | 2026-08-31 23:31:02 | 49.33492 | 12.92272 | 85° | 99km/h | 13006m | 2.9m/s | -52.2°C | 4.9% | 173.1hPa | 2.7V | 04:36:00 | 01:25:26 | 00:00:00 | |
| DL6DJ-15 | 2026-08-31 23:30:51 | 49.33459 | 12.91817 | 88° | 102km/h | 12968m | 3.1m/s | -52.1°C | 2.4% | 174.2hPa | 2.7V | 00:00:00 | 00:00:00 | 00:00:00 | |
| EDDB2-12 | 2026-08-31 23:30:50 | 49.33459 | 12.91817 | 88° | 102km/h | 12968m | 3.1m/s | -52.1°C | 2.4% | 174.2hPa | 2.7V | 00:00:00 | 00:00:00 | 00:00:00 | |
| OE5DXL-15 | 2026-08-31 23:30:49 | 49.33459 | 12.91777 | 90° | 106km/h | 12966m | 2.9m/s | -52.0°C | 5.0% | 174.2hPa | 2.7V | 00:00:00 | 00:00:00 | 00:00:00 | |
| OE5MMP-10 | 2026-08-31 23:30:47 | 49.33458 | 12.91699 | 89° | 100km/h | 12959m | 2.3m/s | -52.1°C | 5.0% | 174.5hPa | 2.7V | 00:00:00 | 01:25:11 | 00:00:00 | |
| DO3MHA-11 | 2026-08-31 23:30:42 | 49.33449 | 12.91504 | 86° | 102km/h | 12944m | 3.7m/s | -52.2°C | 5.1% | 174.8hPa | 2.7V | 00:00:00 | 01:25:06 | 00:00:00 | |
| PG1ADW-2 | 2026-08-31 23:30:41 | 49.33448 | 12.91466 | 87° | 108km/h | 12941m | 2.8m/s | -52.2°C | 5.1% | 174.9hPa | 2.7V | 00:00:00 | 00:00:00 | 00:00:00 | |
| OE5MMP-10 | 2026-08-31 23:30:37 | 49.33443 | 12.91311 | 90° | 108km/h | 12928m | 3.0m/s | -52.2°C | 5.2% | 175.2hPa | 2.7V | 04:36:00 | 01:25:01 | 00:00:00 | |
| OE5WHR-10 | 2026-08-31 23:30:34 | 49.33444 | 12.91187 | 91° | 110km/h | 12919m | 2.1m/s | -52.2°C | 5.2% | 175.5hPa | 2.7V | 04:36:00 | 00:00:00 | 00:00:00 | |
| DL1JEZ-13 | 2026-08-31 23:30:30 | 49.33443 | 12.91063 | 90° | 106km/h | 12909m | 3.3m/s | -52.2°C | 0% | 0hPa | 2.7V | 00:00:00 | 00:00:00 | 00:00:00 | |
| OE5DRO-10 | 2026-08-31 23:30:28 | 49.33441 | 12.90939 | 89° | 110km/h | 12899m | 1.9m/s | -52.2°C | 5.4% | 176.0hPa | 2.7V | 00:00:00 | 00:00:00 | 00:00:00 | |
| OE5MMP-10 | 2026-08-31 23:30:27 | 49.33440 | 12.90897 | 88° | 111km/h | 12896m | 3.9m/s | -52.2°C | 5.4% | 176.1hPa | 2.7V | 00:00:00 | 01:24:51 | 00:00:00 | |
| DO8TBO-1 | 2026-08-31 23:30:26 | 49.33438 | 12.90854 | 87° | 113km/h | 12892m | 3.2m/s | -52.2°C | 5.5% | 176.2hPa | 2.7V | 00:00:00 | 01:24:50 | 00:00:00 | |
| DO3MHA-11 | 2026-08-31 23:30:22 | 49.33429 | 12.90680 | 86° | 110km/h | 12880m | 3.2m/s | -52.3°C | 5.6% | 176.5hPa | 2.7V | 00:00:00 | 01:24:46 | 00:00:00 | |
| PG1ADW-2 | 2026-08-31 23:30:21 | 49.33427 | 12.90637 | 86° | 111km/h | 12877m | 3.8m/s | -52.3°C | 5.7% | 176.6hPa | 2.7V | 04:37:00 | 00:00:00 | 00:00:00 | |
| OE5DXL-15 | 2026-08-31 23:30:19 | 49.33423 | 12.90553 | 87° | 115km/h | 12870m | 4.2m/s | -52.4°C | 5.8% | 176.8hPa | 2.7V | 04:37:00 | 00:00:00 | 00:00:00 | |
| EDDB2-11 | 2026-08-31 23:30:18 | 49.33420 | 12.90470 | 86° | 106km/h | 12863m | 2.8m/s | -52.5°C | 3.2% | 177.0hPa | 2.7V | 00:00:00 | 00:00:00 | 00:00:00 | |
| OE5MMP-10 | 2026-08-31 23:30:17 | 49.33420 | 12.90470 | 87° | 111km/h | 12863m | 2.7m/s | -52.5°C | 5.9% | 177.0hPa | 2.7V | 00:00:00 | 01:24:41 | 00:00:00 | |
| OE5WHR-10 | 2026-08-31 23:30:13 | 49.33412 | 12.90302 | 87° | 115km/h | 12850m | 3.9m/s | -52.7°C | 6.0% | 177.4hPa | 2.7V | 00:00:00 | 01:24:37 | 00:00:00 | |
| DO3MHA-11 | 2026-08-31 23:30:12 | 49.33411 | 12.90259 | 87° | 113km/h | 12847m | 2.7m/s | -52.7°C | 6.0% | 177.4hPa | 2.7V | 04:37:00 | 01:24:36 | 00:00:00 | |
| OE5DRO-10 | 2026-08-31 23:30:09 | 49.33405 | 12.90129 | 87° | 117km/h | 12837m | 2.7m/s | -52.8°C | 6.1% | 177.7hPa | 2.7V | 00:00:00 | 00:00:00 | 00:00:00 | |
| OE5MMP-10 | 2026-08-31 23:30:07 | 49.33401 | 12.90041 | 88° | 115km/h | 12830m | 2.6m/s | -52.9°C | 6.1% | 177.9hPa | 2.7V | 00:00:00 | 01:24:31 | 00:00:00 | |
| SONCRA | 2026-08-31 23:30:05 | 49.33394 | 12.89869 | 85° | 111km/h | 12818m | 3.0m/s | -53.0°C | 3.3% | 178.3hPa | 2.7V | 00:00:00 | 00:00:00 | 00:00:00 | |
| DO3MHA-11 | 2026-08-31 23:30:02 | 49.33392 | 12.89824 | 87° | 119km/h | 12814m | 3.9m/s | -53.0°C | 6.1% | 178.3hPa | 2.7V | 00:00:00 | 01:24:26 | 00:00:00 | |
| EDDB2-12 | 2026-08-31 23:29:48 | 49.33360 | 12.89183 | 86° | 117km/h | 12767m | 3.8m/s | -53.5°C | 3.5% | 179.8hPa | 2.7V | 00:00:00 | 00:00:00 | 00:00:00 | |
| OE5MMP-10 | 2026-08-31 23:29:47 | 49.33358 | 12.89137 | 87° | 117km/h | 12764m | 2.8m/s | -53.5°C | 6.4% | 179.7hPa | 2.7V | 04:37:00 | 01:24:11 | 00:00:00 | |
| S52SK | 2026-08-31 23:29:46 | 49.33358 | 12.89137 | 88° | 119km/h | 12764m | 2.9m/s | 0°C | 0% | 0hPa | 2.7V | 04:37:00 | 00:00:00 | 00:00:00 | |
| DO3MHA-11 | 2026-08-31 23:29:42 | 49.33349 | 12.88909 | 86° | 115km/h | 12747m | 3.0m/s | -53.5°C | 6.5% | 180.2hPa | 2.7V | 00:00:00 | 01:24:06 | 00:00:00 | |
| PG1ADW-2 | 2026-08-31 23:29:41 | 49.33347 | 12.88864 | 86° | 115km/h | 12744m | 3.5m/s | -53.5°C | 6.5% | 180.3hPa | 2.7V | 00:00:00 | 00:00:00 | 00:00:00 | |
| S52SK | 2026-08-31 23:29:40 | 49.33347 | 12.88864 | 86° | 115km/h | 12744m | 3.5m/s | 0°C | 0% | 0hPa | 2.7V | 00:00:00 | 00:00:00 | 00:00:00 | |
| OE5MMP-10 | 2026-08-31 23:29:37 | 49.33338 | 12.88688 | 85° | 115km/h | 12728m | 3.3m/s | -53.7°C | 6.7% | 180.7hPa | 2.7V | 00:00:00 | 01:24:01 | 00:00:00 | |
| SONCRA | 2026-08-31 23:29:33 | 49.33325 | 12.88463 | 84° | 117km/h | 12712m | 4.2m/s | -53.8°C | 3.9% | 181.2hPa | 2.7V | 00:00:00 | 00:00:00 | 00:00:00 | |
| SONDE2-11 | 2026-08-31 23:29:32 | 49.33322 | 12.88419 | 84° | 115km/h | 12708m | 3.1m/s | -53.8°C | 3.9% | 181.3hPa | 2.7V | 00:00:00 | 00:00:00 | 00:00:00 | |
| OE5WHR-10 | 2026-08-31 23:29:31 | 49.33322 | 12.88419 | 85° | 113km/h | 12708m | 3.0m/s | -53.7°C | 7.0% | 181.3hPa | 2.7V | 00:00:00 | 00:00:00 | 00:00:00 | |
| OE5MMP-10 | 2026-08-31 23:29:27 | 49.33314 | 12.88244 | 86° | 113km/h | 12694m | 4.1m/s | -53.8°C | 7.1% | 181.7hPa | 2.7V | 00:00:00 | 01:23:51 | 00:00:00 | |
| DL1JEZ-13 | 2026-08-31 23:29:23 | 49.33307 | 12.88116 | 86° | 113km/h | 12683m | 4.5m/s | -53.9°C | 0% | 0hPa | 2.7V | 00:00:00 | 00:00:00 | 00:00:00 | |
| DO3MHA-11 | 2026-08-31 23:29:22 | 49.33301 | 12.88027 | 85° | 115km/h | 12676m | 2.5m/s | -53.9°C | 7.4% | 182.2hPa | 2.7V | 04:38:00 | 01:23:46 | 00:00:00 | |
| PG1ADW-2 | 2026-08-31 23:29:21 | 49.33298 | 12.87983 | 84° | 113km/h | 12673m | 3.9m/s | -54.0°C | 7.5% | 182.3hPa | 2.7V | 00:00:00 | 00:00:00 | 00:00:00 | |
| OE5DXL-15 | 2026-08-31 23:29:19 | 49.33291 | 12.87896 | 83° | 113km/h | 12665m | 2.5m/s | -54.1°C | 7.6% | 182.5hPa | 2.7V | 00:00:00 | 00:00:00 | 00:00:00 | |
| OE5MMP-10 | 2026-08-31 23:29:17 | 49.33284 | 12.87808 | 84° | 111km/h | 12658m | 3.8m/s | -54.1°C | 7.6% | 182.7hPa | 2.7V | 00:00:00 | 01:23:41 | 00:00:00 | |
| EDDB2-11 | 2026-08-31 23:29:16 | 49.33277 | 12.87719 | 84° | 113km/h | 12651m | 3.4m/s | -54.2°C | 4.4% | 182.9hPa | 2.7V | 00:00:00 | 00:00:00 | 00:00:00 | |
| DO3MHA-11 | 2026-08-31 23:29:12 | 49.33268 | 12.87588 | 85° | 111km/h | 12640m | 4.4m/s | -54.2°C | 7.6% | 183.2hPa | 2.7V | 00:00:00 | 01:23:36 | 00:00:00 | |
| OE5WHR-10 | 2026-08-31 23:29:10 | 49.33262 | 12.87503 | 84° | 113km/h | 12633m | 3.9m/s | -54.2°C | 7.5% | 183.5hPa | 2.7V | 00:00:00 | 01:23:34 | 00:00:00 | |
| DO8TBO-1 | 2026-08-31 23:29:09 | 49.33259 | 12.87461 | 84° | 113km/h | 12629m | 4.0m/s | -54.2°C | 7.5% | 183.5hPa | 2.7V | 00:00:00 | 01:23:33 | 00:00:00 | |
| OE5MMP-10 | 2026-08-31 23:29:07 | 49.33253 | 12.87377 | 85° | 115km/h | 12621m | 4.6m/s | -54.1°C | 7.5% | 183.8hPa | 2.7V | 00:00:00 | 01:23:31 | 00:00:00 | |
| DO3MHA-11 | 2026-08-31 23:29:02 | 49.33235 | 12.87160 | 82° | 115km/h | 12603m | 3.7m/s | -54.0°C | 7.3% | 184.3hPa | 2.7V | 00:00:00 | 01:23:26 | 00:00:00 | |
| SONDE2-11 | 2026-08-31 23:29:00 | 49.33227 | 12.87071 | 82° | 115km/h | 12595m | 3.2m/s | -54.0°C | 4.2% | 184.6hPa | 2.7V | 00:00:00 | 00:00:00 | 00:00:00 | |
| EDDB2-12 | 2026-08-31 23:28:47 | 49.33178 | 12.86465 | 83° | 110km/h | 12541m | 3.5m/s | -53.9°C | 3.8% | 186.1hPa | 2.7V | 00:00:00 | 00:00:00 | 00:00:00 | |
| EDDB2-11 | 2026-08-31 23:28:45 | 49.33172 | 12.86379 | 84° | 111km/h | 12533m | 4.0m/s | -54.0°C | 3.8% | 186.3hPa | 2.7V | 00:00:00 | 00:00:00 | 00:00:00 | |
| DO3MHA-11 | 2026-08-31 23:28:42 | 49.33166 | 12.86292 | 85° | 108km/h | 12526m | 4.4m/s | -53.9°C | 6.7% | 186.5hPa | 2.7V | 00:00:00 | 01:23:06 | 00:00:00 | |
| PG1ADW-2 | 2026-08-31 23:28:41 | 49.33164 | 12.86250 | 85° | 108km/h | 12522m | 4.0m/s | -53.9°C | 6.8% | 186.6hPa | 2.7V | 04:38:00 | 01:23:05 | 00:00:00 | |
| DO8TBO-1 | 2026-08-31 23:28:39 | 49.33159 | 12.86166 | 86° | 106km/h | 12514m | 4.7m/s | -53.9°C | 6.7% | 186.8hPa | 2.7V | 00:00:00 | 01:23:03 | 00:00:00 | |
| OE5MMP-10 | 2026-08-31 23:28:37 | 49.33155 | 12.86084 | 86° | 106km/h | 12506m | 4.5m/s | -53.9°C | 6.6% | 187.1hPa | 2.7V | 00:00:00 | 01:23:01 | 00:00:00 | |
| OE5DRO-10 | 2026-08-31 23:28:34 | 49.33149 | 12.85962 | 87° | 108km/h | 12495m | 4.6m/s | -53.9°C | 6.6% | 187.4hPa | 2.7V | 00:00:00 | 00:00:00 | 00:00:00 | |
| DO3MHA-11 | 2026-08-31 23:28:32 | 49.33145 | 12.85879 | 85° | 106km/h | 12487m | 4.0m/s | -53.9°C | 6.6% | 187.6hPa | 2.7V | 04:38:00 | 01:22:56 | 00:00:00 | |
| SONCRA | 2026-08-31 23:28:31 | 49.33138 | 12.85755 | 85° | 106km/h | 12474m | 4.7m/s | -54.0°C | 3.8% | 188.1hPa | 2.7V | 00:00:00 | 00:00:00 | 00:00:00 | |
| SONDE2-11 | 2026-08-31 23:28:29 | 49.33138 | 12.85755 | 85° | 106km/h | 12474m | 4.7m/s | -54.0°C | 3.8% | 188.1hPa | 2.7V | 00:00:00 | 00:00:00 | 00:00:00 | |
| S52SK | 2026-08-31 23:28:28 | 49.33138 | 12.85755 | 87° | 108km/h | 12475m | 4.7m/s | 0°C | 0% | 0hPa | 2.7V | 00:00:00 | 00:00:00 | 00:00:00 | |
| OE5WHR-10 | 2026-08-31 23:28:27 | 49.33134 | 12.85672 | 86° | 108km/h | 12467m | 3.5m/s | -54.0°C | 7.1% | 188.2hPa | 2.7V | 00:00:00 | 00:00:00 | 00:00:00 | |
| S52SK | 2026-08-31 23:28:23 | 49.33127 | 12.85551 | 85° | 106km/h | 12456m | 3.7m/s | 0°C | 0% | 0hPa | 2.7V | 00:00:00 | 00:00:00 | 00:00:00 | |
| DO3MHA-11 | 2026-08-31 23:28:22 | 49.33121 | 12.85468 | 84° | 110km/h | 12448m | 3.4m/s | -54.1°C | 7.5% | 188.8hPa | 2.7V | 00:00:00 | 01:22:46 | 00:00:00 | |
| PG1ADW-2 | 2026-08-31 23:28:21 | 49.33118 | 12.85427 | 83° | 104km/h | 12444m | 4.4m/s | -54.2°C | 7.6% | 188.9hPa | 2.7V | 00:00:00 | 00:00:00 | 00:00:00 | |
| OE5DXL-15 | 2026-08-31 23:28:19 | 49.33111 | 12.85343 | 83° | 102km/h | 12436m | 3.8m/s | -54.3°C | 7.6% | 189.1hPa | 2.7V | 00:00:00 | 00:00:00 | 00:00:00 | |
| OE5MMP-10 | 2026-08-31 23:28:17 | 49.33104 | 12.85257 | 85° | 108km/h | 12429m | 3.1m/s | -54.4°C | 7.7% | 189.4hPa | 2.7V | 00:00:00 | 01:22:41 | 00:00:00 | |
| OE5DRO-10 | 2026-08-31 23:28:15 | 49.33098 | 12.85171 | 84° | 102km/h | 12422m | 4.6m/s | -54.5°C | 7.7% | 189.5hPa | 2.7V | 04:39:00 | 00:00:00 | 00:00:00 | |
| EDDB2-11 | 2026-08-31 23:28:14 | 49.33092 | 12.85087 | 82° | 108km/h | 12414m | 3.5m/s | -54.5°C | 4.5% | 189.8hPa | 2.7V | 00:00:00 | 00:00:00 | 00:00:00 | |
| DO3MHA-11 | 2026-08-31 23:28:12 | 49.33088 | 12.85045 | 84° | 100km/h | 12410m | 4.7m/s | -54.5°C | 7.7% | 189.9hPa | 2.7V | 00:00:00 | 01:22:36 | 00:00:00 | |
| OE5REO-15 | 2026-08-31 23:28:09 | 49.33082 | 12.84963 | 84° | 104km/h | 12403m | 3.4m/s | -54.6°C | 4.6% | 190.2hPa | 2.7V | 04:39:00 | 00:00:00 | 00:00:00 | |
| DO8TBO-1 | 2026-08-31 23:28:08 | 49.33075 | 12.84885 | 82° | 99km/h | 12394m | 3.7m/s | -54.5°C | 7.9% | 190.4hPa | 2.7V | 00:00:00 | 01:22:32 | 00:00:00 | |
| OE5MMP-10 | 2026-08-31 23:28:07 | 49.33072 | 12.84848 | 83° | 99km/h | 12390m | 4.4m/s | -54.5°C | 7.9% | 190.5hPa | 2.7V | 04:39:00 | 01:22:31 | 00:00:00 | |
| OE5WHR-10 | 2026-08-31 23:28:06 | 49.33069 | 12.84811 | 84° | 99km/h | 12386m | 3.9m/s | -54.5°C | 8.0% | 190.6hPa | 2.7V | 00:00:00 | 01:22:30 | 00:00:00 | |
| DO3MHA-11 | 2026-08-31 23:28:02 | 49.33059 | 12.84663 | 86° | 99km/h | 12371m | 2.5m/s | -54.5°C | 8.2% | 191.1hPa | 2.7V | 00:00:00 | 01:22:26 | 00:00:00 | |
| SONCRA | 2026-08-31 23:28:00 | 49.33056 | 12.84585 | 87° | 102km/h | 12364m | 3.7m/s | -54.5°C | 4.9% | 191.4hPa | 2.7V | 00:00:00 | 00:00:00 | 00:00:00 | |
| SONDE2-11 | 2026-08-31 23:27:58 | 49.33055 | 12.84506 | 89° | 99km/h | 12357m | 4.5m/s | -54.5°C | 4.9% | 191.6hPa | 2.7V | 00:00:00 | 00:00:00 | 00:00:00 | |
| EDDB2-12 | 2026-08-31 23:27:44 | 49.33045 | 12.83975 | 91° | 95km/h | 12302m | 3.3m/s | -54.1°C | 5.2% | 193.3hPa | 2.7V | 00:00:00 | 00:00:00 | 00:00:00 | |
| EDDB2-11 | 2026-08-31 23:27:43 | 49.33044 | 12.83899 | 85° | 99km/h | 12294m | 5.0m/s | -54.0°C | 5.1% | 193.5hPa | 2.7V | 00:00:00 | 00:00:00 | 00:00:00 | |
| DO3MHA-11 | 2026-08-31 23:27:42 | 49.33044 | 12.83899 | 86° | 99km/h | 12294m | 5.0m/s | -53.9°C | 8.5% | 193.5hPa | 2.7V | 04:39:00 | 01:22:06 | 00:00:00 | |
| PG1ADW-2 | 2026-08-31 23:27:41 | 49.33041 | 12.83861 | 82° | 100km/h | 12290m | 3.4m/s | -53.9°C | 8.5% | 193.6hPa | 2.7V | 00:00:00 | 00:00:00 | 00:00:00 | |
| OE5REO-15 | 2026-08-31 23:27:38 | 49.33034 | 12.83784 | 84° | 102km/h | 12283m | 4.1m/s | -53.9°C | 5.2% | 193.9hPa | 2.7V | 00:00:00 | 00:00:00 | 00:00:00 | |
| OE5MMP-10 | 2026-08-31 23:27:37 | 49.33030 | 12.83705 | 86° | 99km/h | 12276m | 4.1m/s | -53.8°C | 8.4% | 194.0hPa | 2.7V | 00:00:00 | 01:22:01 | 00:00:00 | |
| DO3MHA-11 | 2026-08-31 23:27:32 | 49.33023 | 12.83518 | 87° | 99km/h | 12241m | 7.3m/s | -53.6°C | 8.2% | 195.1hPa | 2.7V | 00:00:00 | 01:21:56 | 00:00:00 | |
| SONCRA | 2026-08-31 23:27:29 | 49.33021 | 12.83401 | 90° | 102km/h | 12223m | 4.8m/s | -53.5°C | 5.3% | 195.7hPa | 2.7V | 00:00:00 | 00:00:00 | 00:00:00 | |
| DO8TBO-1 | 2026-08-31 23:27:28 | 49.33021 | 12.83362 | 92° | 110km/h | 12218m | 4.7m/s | -53.4°C | 8.4% | 195.8hPa | 2.7V | 00:00:00 | 01:21:52 | 00:00:00 | |
| OE5MMP-10 | 2026-08-31 23:27:27 | 49.33023 | 12.83323 | 94° | 106km/h | 12212m | 6.6m/s | -53.4°C | 8.5% | 195.9hPa | 2.7V | 00:00:00 | 01:21:51 | 00:00:00 | |
| OE5WHR-10 | 2026-08-31 23:27:24 | 49.33030 | 12.83210 | 95° | 108km/h | 12199m | 2.6m/s | -53.2°C | 8.7% | 196.4hPa | 2.7V | 00:00:00 | 00:00:00 | 00:00:00 | |
| DO3MHA-11 | 2026-08-31 23:27:22 | 49.33034 | 12.83132 | 95° | 113km/h | 12188m | 6.4m/s | -53.2°C | 8.8% | 196.7hPa | 2.7V | 00:00:00 | 01:21:46 | 00:00:00 | |
| PG1ADW-2 | 2026-08-31 23:27:21 | 49.33036 | 12.83090 | 93° | 108km/h | 12183m | 4.6m/s | -53.1°C | 8.9% | 196.8hPa | 2.7V | 00:00:00 | 01:21:45 | 00:00:00 | |
| OE5DXL-15 | 2026-08-31 23:27:19 | 49.33037 | 12.83001 | 90° | 110km/h | 12172m | 5.6m/s | -53.0°C | 9.0% | 197.1hPa | 2.7V | 00:00:00 | 00:00:00 | 00:00:00 | |
| OE5DRO-10 | 2026-08-31 23:27:18 | 49.33036 | 12.82957 | 87° | 110km/h | 12167m | 3.7m/s | -53.0°C | 9.0% | 197.3hPa | 2.7V | 00:00:00 | 00:00:00 | 00:00:00 | |
| OE5MMP-10 | 2026-08-31 23:27:17 | 49.33034 | 12.82913 | 87° | 108km/h | 12164m | 2.5m/s | -53.0°C | 9.1% | 197.4hPa | 2.7V | 04:40:00 | 01:21:41 | 00:00:00 | |
| DL1JEZ-13 | 2026-08-31 23:27:15 | 49.33031 | 12.82869 | 84° | 113km/h | 12159m | 5.8m/s | -53.0°C | 0% | 0hPa | 2.7V | 00:00:00 | 00:00:00 | 00:00:00 | |
| ANDY1245 | 2026-08-31 23:27:13 | 49.33024 | 12.82740 | 91° | 110km/h | 12144m | 4.3m/s | -52.9°C | 0% | 0hPa | 2.7V | 00:00:00 | 00:00:00 | 00:00:00 | |
| EDDB2-11 | 2026-08-31 23:27:12 | 49.33028 | 12.82658 | 98° | 102km/h | 12135m | 6.0m/s | -52.8°C | 6.1% | 198.3hPa | 2.7V | 00:00:00 | 00:00:00 | 00:00:00 | |
| OE5MMP-10 | 2026-08-31 23:27:07 | 49.33049 | 12.82506 | 101° | 108km/h | 12108m | 6.0m/s | -52.8°C | 9.6% | 199.0hPa | 2.7V | 00:00:00 | 01:21:31 | 00:00:00 | |
| OE5REO-15 | 2026-08-31 23:27:06 | 49.33049 | 12.82506 | 102° | 100km/h | 12108m | 6.0m/s | 0°C | 0% | 199.0hPa | 2.7V | 04:41:00 | 00:00:00 | 00:00:00 | |
| OE5WHR-10 | 2026-08-31 23:27:03 | 49.33054 | 12.82348 | 88° | 117km/h | 12085m | 5.0m/s | -52.7°C | 10.3% | 199.7hPa | 2.7V | 04:40:00 | 01:21:27 | 00:00:00 | |
| DO3MHA-11 | 2026-08-31 23:27:02 | 49.33053 | 12.82307 | 88° | 113km/h | 12080m | 6.0m/s | -52.7°C | 10.6% | 199.9hPa | 2.7V | 00:00:00 | 01:21:26 | 00:00:00 | |
| SONDE2-11 | 2026-08-31 23:26:57 | 49.33064 | 12.82043 | 93° | 111km/h | 12045m | 8.2m/s | -52.7°C | 7.9% | 201.0hPa | 2.7V | 00:00:00 | 00:00:00 | 00:00:00 | |
| OE5REO-15 | 2026-08-31 23:26:52 | 49.33062 | 12.81871 | 90° | 110km/h | 12021m | 4.4m/s | 0°C | 0% | 201.7hPa | 2.7V | 04:41:00 | 00:00:00 | 00:00:00 | |
| OE5DXL-15 | 2026-08-31 23:26:49 | 49.33068 | 12.81739 | 98° | 130km/h | 12008m | 6.7m/s | -53.1°C | 12.6% | 202.1hPa | 2.7V | 00:00:00 | 00:00:00 | 00:00:00 | |
| OE5MMP-10 | 2026-08-31 23:26:47 | 49.33076 | 12.81646 | 98° | 130km/h | 11994m | 7.0m/s | -53.2°C | 13.1% | 202.5hPa | 2.7V | 00:00:00 | 01:21:11 | 00:00:00 | |
| DO3MHA-11 | 2026-08-31 23:26:42 | 49.33080 | 12.81401 | 89° | 131km/h | 11968m | 4.8m/s | -53.1°C | 13.9% | 203.4hPa | 2.7V | 00:00:00 | 01:21:06 | 00:00:00 | |
| EDDB2-11 | 2026-08-31 23:26:41 | 49.33079 | 12.81299 | 90° | 133km/h | 11958m | 3.5m/s | -53.2°C | 10.4% | 203.8hPa | 2.7V | 00:00:00 | 00:00:00 | 00:00:00 | |
| OE5DRO-10 | 2026-08-31 23:26:40 | 49.33079 | 12.81299 | 91° | 131km/h | 11958m | 3.5m/s | -53.2°C | 14.4% | 203.7hPa | 2.7V | 04:40:00 | 00:00:00 | 00:00:00 | |
| OE5MMP-10 | 2026-08-31 23:26:37 | 49.33082 | 12.81145 | 93° | 131km/h | 11945m | 3.8m/s | -53.2°C | 14.8% | 204.1hPa | 2.7V | 00:00:00 | 01:21:01 | 00:00:00 | |
| OE5REO-15 | 2026-08-31 23:26:36 | 49.33082 | 12.81145 | 93° | 131km/h | 11945m | 3.8m/s | 0°C | 0% | 204.2hPa | 2.7V | 04:41:00 | 00:00:00 | 00:00:00 | |
| DO3MHA-11 | 2026-08-31 23:26:32 | 49.33086 | 12.80891 | 92° | 133km/h | 11925m | 4.4m/s | -53.5°C | 16.0% | 204.7hPa | 2.7V | 00:00:00 | 01:20:56 | 00:00:00 | |
| OE5MMP-10 | 2026-08-31 23:26:27 | 49.33086 | 12.80635 | 90° | 133km/h | 11905m | 4.7m/s | -53.8°C | 17.2% | 205.4hPa | 2.7V | 04:40:00 | 01:20:51 | 00:00:00 | |
| SONDE2-11 | 2026-08-31 23:26:25 | 49.33086 | 12.80532 | 89° | 131km/h | 11898m | 2.7m/s | -54.0°C | 13.3% | 205.7hPa | 2.7V | 00:00:00 | 00:00:00 | 00:00:00 | |
| DO3MHA-11 | 2026-08-31 23:26:22 | 49.33083 | 12.80377 | 88° | 131km/h | 11886m | 3.0m/s | -54.0°C | 18.5% | 206.0hPa | 2.7V | 00:00:00 | 01:20:46 | 00:00:00 | |
| PG1ADW-2 | 2026-08-31 23:26:21 | 49.33082 | 12.80326 | 89° | 131km/h | 11883m | 4.5m/s | -54.0°C | 18.6% | 206.1hPa | 2.7V | 00:00:00 | 00:00:00 | 00:00:00 | |
| OE5REO-15 | 2026-08-31 23:26:20 | 49.33082 | 12.80326 | 89° | 131km/h | 11883m | 4.6m/s | 0°C | 0% | 206.1hPa | 2.7V | 04:41:00 | 00:00:00 | 00:00:00 | |
| OE5DXL-15 | 2026-08-31 23:26:19 | 49.33080 | 12.80224 | 89° | 130km/h | 11875m | 2.7m/s | -54.1°C | 19.2% | 206.4hPa | 2.7V | 00:00:00 | 00:00:00 | 00:00:00 | |
| OE5MMP-10 | 2026-08-31 23:26:17 | 49.33077 | 12.80123 | 87° | 133km/h | 11868m | 3.8m/s | -54.1°C | 19.5% | 206.6hPa | 2.7V | 00:00:00 | 01:20:41 | 00:00:00 | |
| DO3MHA-11 | 2026-08-31 23:26:12 | 49.33066 | 12.79867 | 86° | 131km/h | 11848m | 4.6m/s | -54.1°C | 20.1% | 207.2hPa | 2.7V | 00:00:00 | 01:20:36 | 00:00:00 | |
| EDDB2-12 | 2026-08-31 23:26:11 | 49.33062 | 12.79764 | 86° | 131km/h | 11841m | 3.6m/s | -54.4°C | 15.8% | 207.5hPa | 2.7V | 00:00:00 | 00:00:00 | 00:00:00 | |
| EDDB2-11 | 2026-08-31 23:26:09 | 49.33060 | 12.79713 | 86° | 131km/h | 11837m | 4.0m/s | -54.6°C | 16.2% | 207.6hPa | 2.7V | 00:00:00 | 00:00:00 | 00:00:00 | |
| OE5MMP-10 | 2026-08-31 23:26:07 | 49.33055 | 12.79612 | 86° | 130km/h | 11830m | 4.5m/s | -54.6°C | 21.2% | 207.8hPa | 2.7V | 00:00:00 | 01:20:31 | 00:00:00 | |
| ANDY1245 | 2026-08-31 23:26:06 | 49.33055 | 12.79612 | 86° | 130km/h | 11830m | 4.5m/s | -54.6°C | 0% | 0hPa | 2.7V | 04:41:00 | 00:00:00 | 00:00:00 | |
| OE5REO-15 | 2026-08-31 23:26:03 | 49.33045 | 12.79463 | 85° | 130km/h | 11818m | 4.3m/s | 0°C | 0% | 0hPa | 2.7V | 00:00:00 | 00:00:00 | 00:00:00 | |
| DO3MHA-11 | 2026-08-31 23:26:02 | 49.33039 | 12.79362 | 85° | 128km/h | 11811m | 2.8m/s | -54.5°C | 21.8% | 208.4hPa | 2.7V | 04:41:00 | 01:20:26 | 00:00:00 | |
| SONCRA | 2026-08-31 23:25:56 | 49.33022 | 12.79015 | 86° | 126km/h | 11785m | 3.9m/s | -54.6°C | 18.1% | 209.3hPa | 2.7V | 00:00:00 | 00:00:00 | 00:00:00 | |
| SONDE2-11 | 2026-08-31 23:25:54 | 49.33020 | 12.78967 | 87° | 124km/h | 11782m | 3.4m/s | -54.6°C | 18.3% | 209.5hPa | 2.7V | 00:00:00 | 00:00:00 | 00:00:00 | |
| DO3MHA-11 | 2026-08-31 23:25:52 | 49.33018 | 12.78869 | 89° | 126km/h | 11774m | 3.5m/s | -54.6°C | 24.0% | 209.7hPa | 2.7V | 00:00:00 | 01:20:16 | 00:00:00 | |
| OE5DXL-15 | 2026-08-31 23:25:49 | 49.33013 | 12.78725 | 87° | 124km/h | 11763m | 2.6m/s | -54.6°C | 24.0% | 210.0hPa | 2.7V | 00:00:00 | 00:00:00 | 00:00:00 | |
| OE5MMP-10 | 2026-08-31 23:25:47 | 49.33009 | 12.78628 | 87° | 126km/h | 11756m | 4.0m/s | -54.5°C | 23.8% | 210.3hPa | 2.7V | 00:00:00 | 01:20:11 | 00:00:00 | |
| OE5DRO-10 | 2026-08-31 23:25:43 | 49.33001 | 12.78431 | 87° | 124km/h | 11741m | 3.5m/s | -54.4°C | 24.2% | 210.8hPa | 2.7V | 00:00:00 | 00:00:00 | 00:00:00 | |
| DO3MHA-11 | 2026-08-31 23:25:42 | 49.32999 | 12.78383 | 87° | 124km/h | 11737m | 3.9m/s | -54.4°C | 24.4% | 210.9hPa | 2.7V | 00:00:00 | 01:20:06 | 00:00:00 | |
| PG1ADW-2 | 2026-08-31 23:25:41 | 49.32997 | 12.78335 | 88° | 124km/h | 11733m | 4.3m/s | -54.4°C | 24.7% | 211.0hPa | 2.7V | 00:00:00 | 00:00:00 | 00:00:00 | |
| DO8TBO-1 | 2026-08-31 23:25:40 | 49.32996 | 12.78287 | 89° | 126km/h | 11729m | 3.2m/s | -54.5°C | 25.2% | 211.1hPa | 2.7V | 00:00:00 | 01:20:04 | 00:00:00 | |
| EDDB2-11 | 2026-08-31 23:25:39 | 49.32995 | 12.78192 | 89° | 120km/h | 11722m | 4.2m/s | -54.5°C | 19.9% | 211.4hPa | 2.7V | 00:00:00 | 00:00:00 | 00:00:00 | |
| OE5MMP-10 | 2026-08-31 23:25:37 | 49.32995 | 12.78145 | 90° | 126km/h | 11718m | 3.4m/s | -54.5°C | 25.6% | 211.5hPa | 2.7V | 04:41:00 | 01:20:01 | 00:00:00 | |
| DO3MHA-11 | 2026-08-31 23:25:32 | 49.32995 | 12.77903 | 92° | 122km/h | 11697m | 4.7m/s | -54.6°C | 27.0% | 212.2hPa | 2.7V | 00:00:00 | 01:19:56 | 00:00:00 | |
| ANDY1245 | 2026-08-31 23:25:31 | 49.32995 | 12.77903 | 92° | 126km/h | 11697m | 4.7m/s | 0°C | 0% | 0hPa | 2.7V | 04:41:00 | 00:00:00 | 00:00:00 | |
| OE5MMP-10 | 2026-08-31 23:25:27 | 49.32999 | 12.77659 | 91° | 120km/h | 11677m | 4.6m/s | -55.2°C | 28.7% | 212.9hPa | 2.7V | 00:00:00 | 01:19:51 | 00:00:00 | |
| ANDY1245 | 2026-08-31 23:25:25 | 49.33000 | 12.77612 | 92° | 120km/h | 11673m | 4.0m/s | 0°C | 0% | 0hPa | 2.7V | 00:00:00 | 00:00:00 | 00:00:00 | |
| SONDE2-11 | 2026-08-31 23:25:23 | 49.32998 | 12.77475 | 87° | 119km/h | 11663m | 3.9m/s | -55.3°C | 22.9% | 213.4hPa | 2.7V | 00:00:00 | 00:00:00 | 00:00:00 | |
| DO3MHA-11 | 2026-08-31 23:25:22 | 49.32997 | 12.77428 | 89° | 126km/h | 11660m | 2.9m/s | -55.2°C | 29.2% | 213.5hPa | 2.7V | 00:00:00 | 01:19:46 | 00:00:00 | |
| PG1ADW-2 | 2026-08-31 23:25:21 | 49.32997 | 12.77381 | 91° | 126km/h | 11656m | 3.8m/s | -55.2°C | 29.0% | 213.6hPa | 2.7V | 04:42:00 | 00:00:00 | 00:00:00 | |
| OE5DXL-15 | 2026-08-31 23:25:19 | 49.33000 | 12.77283 | 94° | 128km/h | 11647m | 4.2m/s | -55.2°C | 29.1% | 213.8hPa | 2.7V | 04:42:00 | 00:00:00 | 00:00:00 | |
| OE5WHR-10 | 2026-08-31 23:25:18 | 49.33002 | 12.77234 | 96° | 126km/h | 11644m | 3.0m/s | -55.2°C | 29.3% | 214.0hPa | 2.7V | 04:42:00 | 00:00:00 | 00:00:00 | |
| OE5MMP-10 | 2026-08-31 23:25:17 | 49.33005 | 12.77186 | 96° | 126km/h | 11641m | 3.7m/s | -55.2°C | 29.4% | 214.1hPa | 2.7V | 00:00:00 | 01:19:41 | 00:00:00 | |
| OE5DRO-10 | 2026-08-31 23:25:16 | 49.33008 | 12.77137 | 96° | 126km/h | 11637m | 3.9m/s | -55.2°C | 29.6% | 214.2hPa | 2.7V | 00:00:00 | 00:00:00 | 00:00:00 | |
| OE5REO-15 | 2026-08-31 23:25:15 | 49.33008 | 12.77137 | 97° | 124km/h | 11637m | 4.0m/s | 0°C | 0% | 0hPa | 2.7V | 00:00:00 | 00:00:00 | 00:00:00 | |
| DO3MHA-11 | 2026-08-31 23:25:12 | 49.33016 | 12.76944 | 92° | 126km/h | 11621m | 3.6m/s | -55.5°C | 31.6% | 214.8hPa | 2.7V | 04:42:00 | 01:19:36 | 00:00:00 | |
| EDDB2-12 | 2026-08-31 23:25:09 | 49.33018 | 12.76749 | 90° | 126km/h | 11605m | 4.8m/s | -55.5°C | 25.2% | 215.3hPa | 2.7V | 00:00:00 | 00:00:00 | 00:00:00 | |
| EDDB2-11 | 2026-08-31 23:25:08 | 49.33018 | 12.76699 | 91° | 128km/h | 11600m | 4.2m/s | -55.5°C | 25.2% | 215.5hPa | 2.7V | 00:00:00 | 00:00:00 | 00:00:00 | |
| DO3MHA-11 | 2026-08-31 23:25:02 | 49.33026 | 12.76453 | 94° | 128km/h | 11581m | 4.2m/s | -55.4°C | 31.5% | 216.1hPa | 2.7V | 00:00:00 | 01:19:26 | 00:00:00 | |
| SONCRA | 2026-08-31 23:24:54 | 49.33022 | 12.76009 | 87° | 128km/h | 11542m | 4.3m/s | -55.4°C | 25.4% | 217.4hPa | 2.7V | 00:00:00 | 00:00:00 | 00:00:00 | |
| DO3MHA-11 | 2026-08-31 23:24:52 | 49.33020 | 12.75959 | 88° | 128km/h | 11539m | 3.1m/s | -55.4°C | 31.8% | 217.5hPa | 2.7V | 00:00:00 | 01:19:16 | 00:00:00 | |
| OE5MMP-10 | 2026-08-31 23:24:49 | 49.33015 | 12.75809 | 88° | 126km/h | 11527m | 4.4m/s | -55.4°C | 0% | 217.9hPa | 2.7V | 00:00:00 | 01:19:13 | 00:00:00 | |
| ANDY1245 | 2026-08-31 23:24:48 | 49.33015 | 12.75809 | 88° | 128km/h | 11527m | 4.4m/s | 0°C | 0% | 0hPa | 2.7V | 00:00:00 | 00:00:00 | 00:00:00 | |
| DO3MHA-11 | 2026-08-31 23:24:42 | 49.33006 | 12.75469 | 91° | 128km/h | 11500m | 4.0m/s | -55.4°C | 33.1% | 218.8hPa | 2.7V | 00:00:00 | 01:19:06 | 00:00:00 | |
| PG1ADW-2 | 2026-08-31 23:24:41 | 49.33006 | 12.75420 | 91° | 128km/h | 11497m | 2.7m/s | -55.4°C | 33.1% | 218.9hPa | 2.7V | 00:00:00 | 01:19:05 | 00:00:00 | |
| OE5MMP-10 | 2026-08-31 23:24:39 | 49.33006 | 12.75320 | 90° | 128km/h | 11489m | 3.8m/s | 0°C | 0% | 0hPa | 2.7V | 04:42:00 | 01:19:03 | 00:00:00 | |
| DL6DJ-15 | 2026-08-31 23:24:38 | 49.33005 | 12.75218 | 89° | 130km/h | 11482m | 3.9m/s | -55.3°C | 26.2% | 219.5hPa | 2.7V | 00:00:00 | 00:00:00 | 00:00:00 | |
| EDDB2-11 | 2026-08-31 23:24:36 | 49.33005 | 12.75168 | 89° | 128km/h | 11478m | 4.2m/s | -55.3°C | 26.2% | 219.6hPa | 2.7V | 00:00:00 | 00:00:00 | 00:00:00 | |
| OE5WHR-10 | 2026-08-31 23:24:35 | 49.33004 | 12.75119 | 90° | 126km/h | 11475m | 3.4m/s | -55.2°C | 32.5% | 219.7hPa | 2.7V | 00:00:00 | 00:00:00 | 00:00:00 | |
| DO3MHA-11 | 2026-08-31 23:24:32 | 49.33001 | 12.74973 | 87° | 126km/h | 11464m | 3.8m/s | -55.2°C | 32.4% | 220.1hPa | 2.7V | 00:00:00 | 01:18:56 | 00:00:00 | |
| OE3JTB-15 | 2026-08-31 23:24:30 | 49.32997 | 12.74873 | 88° | 126km/h | 11456m | 4.5m/s | 0°C | 0% | 0hPa | 2.7V | 00:00:00 | 00:00:00 | 00:00:00 | |
| OE5MMP-10 | 2026-08-31 23:24:27 | 49.32996 | 12.74727 | 91° | 126km/h | 11444m | 3.6m/s | 0°C | 0% | 0hPa | 2.7V | 00:00:00 | 01:18:51 | 00:00:00 | |
| DO3MHA-11 | 2026-08-31 23:24:22 | 49.32997 | 12.74486 | 91° | 128km/h | 11425m | 3.7m/s | -55.1°C | 33.3% | 221.5hPa | 2.7V | 04:43:00 | 01:18:46 | 00:00:00 | |
| PG1ADW-2 | 2026-08-31 23:24:21 | 49.32997 | 12.74438 | 91° | 126km/h | 11421m | 4.6m/s | -55.1°C | 33.4% | 221.6hPa | 2.7V | 00:00:00 | 00:00:00 | 00:00:00 | |
| OE5DXL-15 | 2026-08-31 23:24:19 | 49.32997 | 12.74340 | 89° | 126km/h | 11414m | 2.5m/s | -55.0°C | 33.0% | 221.8hPa | 2.7V | 00:00:00 | 00:00:00 | 00:00:00 | |
| OE5MMP-10 | 2026-08-31 23:24:17 | 49.32996 | 12.74241 | 90° | 126km/h | 11406m | 3.8m/s | 0°C | 0% | 0hPa | 2.7V | 00:00:00 | 01:18:41 | 00:00:00 | |
| ANDY1245 | 2026-08-31 23:24:15 | 49.32995 | 12.74191 | 90° | 130km/h | 11403m | 4.0m/s | 0°C | 0% | 0hPa | 2.7V | 00:00:00 | 00:00:00 | 00:00:00 | |
| OE5WHR-10 | 2026-08-31 23:24:14 | 49.32992 | 12.74091 | 88° | 126km/h | 11394m | 3.3m/s | -54.8°C | 32.6% | 222.5hPa | 2.7V | 00:00:00 | 00:00:00 | 00:00:00 | |
| DO3MHA-11 | 2026-08-31 23:24:12 | 49.32991 | 12.73991 | 90° | 124km/h | 11387m | 4.7m/s | -54.8°C | 32.5% | 222.7hPa | 2.7V | 00:00:00 | 01:18:36 | 00:00:00 | |
| ANDY1245 | 2026-08-31 23:24:10 | 49.32991 | 12.73942 | 92° | 126km/h | 11383m | 3.9m/s | 0°C | 0% | 0hPa | 2.7V | 00:00:00 | 00:00:00 | 00:00:00 | |
| EDDB2-12 | 2026-08-31 23:24:07 | 49.32999 | 12.73704 | 93° | 122km/h | 11362m | 5.6m/s | -54.6°C | 25.5% | 223.7hPa | 2.7V | 00:00:00 | 00:00:00 | 00:00:00 | |
| DL6DJ-15 | 2026-08-31 23:24:06 | 49.32999 | 12.73704 | 93° | 122km/h | 11362m | 5.6m/s | -54.6°C | 25.5% | 223.7hPa | 2.7V | 00:00:00 | 00:00:00 | 00:00:00 | |
| EDDB2-11 | 2026-08-31 23:24:05 | 49.33001 | 12.73656 | 93° | 124km/h | 11356m | 5.3m/s | -54.6°C | 25.8% | 223.9hPa | 2.7V | 00:00:00 | 00:00:00 | 00:00:00 | |
| DO3MHA-11 | 2026-08-31 23:24:02 | 49.33006 | 12.73508 | 93° | 124km/h | 11346m | 5.8m/s | -54.5°C | 31.5% | 224.2hPa | 2.7V | 00:00:00 | 01:18:26 | 00:00:00 | |
| SONCRA | 2026-08-31 23:23:52 | 49.33022 | 12.72931 | 91° | 128km/h | 11296m | 4.1m/s | -54.4°C | 25.5% | 225.9hPa | 2.7V | 00:00:00 | 00:00:00 | 00:00:00 | |
| SONDE2-11 | 2026-08-31 23:23:50 | 49.33022 | 12.72931 | 91° | 128km/h | 11296m | 4.1m/s | -54.4°C | 25.5% | 225.9hPa | 2.7V | 00:00:00 | 00:00:00 | 00:00:00 | |
| OE5DXL-15 | 2026-08-31 23:23:49 | 49.33023 | 12.72882 | 91° | 122km/h | 11293m | 3.3m/s | -54.3°C | 31.8% | 226.1hPa | 2.7V | 00:00:00 | 00:00:00 | 00:00:00 | |
| OE5WHR-10 | 2026-08-31 23:23:48 | 49.33023 | 12.72832 | 91° | 124km/h | 11290m | 3.2m/s | -54.3°C | 31.6% | 226.1hPa | 2.7V | 00:00:00 | 01:18:12 | 00:00:00 | |
| DO3MHA-11 | 2026-08-31 23:23:42 | 49.33028 | 12.72547 | 93° | 120km/h | 11269m | 3.8m/s | -54.1°C | 31.2% | 226.9hPa | 2.7V | 00:00:00 | 01:18:06 | 00:00:00 | |
| OE5DRO-10 | 2026-08-31 23:23:41 | 49.33030 | 12.72503 | 93° | 122km/h | 11264m | 4.2m/s | -54.1°C | 31.4% | 227.0hPa | 2.7V | 00:00:00 | 00:00:00 | 00:00:00 | |
| OE5REO-15 | 2026-08-31 23:23:40 | 49.33030 | 12.72503 | 94° | 115km/h | 11264m | 4.3m/s | 0°C | 0% | 0hPa | 2.7V | 00:00:00 | 00:00:00 | 00:00:00 | |
| OE5MMP-10 | 2026-08-31 23:23:39 | 49.33033 | 12.72413 | 94° | 124km/h | 11257m | 4.0m/s | 0°C | 0% | 0hPa | 2.7V | 00:00:00 | 01:18:03 | 00:00:00 | |
| EDDB2-12 | 2026-08-31 23:23:36 | 49.33040 | 12.72228 | 93° | 122km/h | 11241m | 3.3m/s | -54.0°C | 26.4% | 227.9hPa | 2.7V | 00:00:00 | 00:00:00 | 00:00:00 | |
| DL6DJ-15 | 2026-08-31 23:23:35 | 49.33040 | 12.72228 | 93° | 122km/h | 11241m | 3.3m/s | -54.0°C | 26.4% | 227.9hPa | 2.7V | 00:00:00 | 00:00:00 | 00:00:00 | |
| EDDB2-11 | 2026-08-31 23:23:34 | 49.33043 | 12.72180 | 94° | 126km/h | 11237m | 3.7m/s | -54.0°C | 26.1% | 228.0hPa | 2.7V | 00:00:00 | 00:00:00 | 00:00:00 | |
| DO3MHA-11 | 2026-08-31 23:23:32 | 49.33048 | 12.72078 | 96° | 124km/h | 11229m | 3.4m/s | -53.9°C | 32.7% | 228.3hPa | 2.7V | 04:43:00 | 01:17:56 | 00:00:00 | |
| OE5MMP-10 | 2026-08-31 23:23:28 | 49.33061 | 12.71880 | 96° | 122km/h | 11213m | 4.0m/s | 0°C | 0% | 0hPa | 2.7V | 04:43:00 | 01:17:52 | 00:00:00 | |
| OE5WHR-10 | 2026-08-31 23:23:27 | 49.33064 | 12.71835 | 96° | 122km/h | 11207m | 8.1m/s | -53.7°C | 30.9% | 229.0hPa | 2.7V | 04:43:00 | 00:00:00 | 00:00:00 | |
| OE5REO-15 | 2026-08-31 23:23:23 | 49.33073 | 12.71700 | 95° | 122km/h | 11184m | 5.6m/s | 0°C | 0% | 0hPa | 2.7V | 00:00:00 | 00:00:00 | 00:00:00 | |
| DO3MHA-11 | 2026-08-31 23:23:22 | 49.33076 | 12.71603 | 93° | 122km/h | 11176m | 3.0m/s | -53.7°C | 31.4% | 230.1hPa | 2.7V | 00:00:00 | 01:17:46 | 00:00:00 | |
| PG1ADW-2 | 2026-08-31 23:23:21 | 49.33078 | 12.71553 | 93° | 124km/h | 11173m | 3.8m/s | -53.7°C | 31.2% | 230.3hPa | 2.7V | 00:00:00 | 01:17:45 | 00:00:00 | |
| OE3JTB-15 | 2026-08-31 23:23:19 | 49.33081 | 12.71456 | 94° | 126km/h | 11165m | 4.4m/s | 0°C | 0% | 0hPa | 2.7V | 00:00:00 | 01:17:43 | 00:00:00 | |
| OE5MMP-10 | 2026-08-31 23:23:18 | 49.33083 | 12.71409 | 95° | 122km/h | 11161m | 3.9m/s | 0°C | 0% | 0hPa | 2.7V | 00:00:00 | 01:17:42 | 00:00:00 | |
| DO9HM | 2026-08-31 23:23:14 | 49.33099 | 12.71225 | 101° | 122km/h | 11145m | 4.6m/s | -53.7°C | 24.8% | 231.3hPa | 2.7V | 04:44:00 | 00:00:00 | 00:00:00 | |
| DO3MHA-11 | 2026-08-31 23:23:12 | 49.33111 | 12.71131 | 102° | 126km/h | 11137m | 3.7m/s | -53.7°C | 30.9% | 231.5hPa | 2.7V | 00:00:00 | 01:17:36 | 00:00:00 | |
| OE5MMP-10 | 2026-08-31 23:23:07 | 49.33138 | 12.70892 | 98° | 126km/h | 11119m | 2.9m/s | 0°C | 0% | 0hPa | 2.7V | 00:00:00 | 01:17:31 | 00:00:00 | |
| OE5WHR-10 | 2026-08-31 23:23:06 | 49.33142 | 12.70843 | 98° | 126km/h | 11115m | 4.4m/s | -53.8°C | 31.2% | 232.4hPa | 2.7V | 00:00:00 | 00:00:00 | 00:00:00 | |
| EDDB2-12 | 2026-08-31 23:23:05 | 49.33151 | 12.70745 | 98° | 126km/h | 11108m | 3.5m/s | -53.8°C | 25.2% | 232.7hPa | 2.7V | 00:00:00 | 00:00:00 | 00:00:00 | |
| DL6DJ-15 | 2026-08-31 23:23:04 | 49.33151 | 12.70745 | 98° | 126km/h | 11108m | 3.5m/s | -53.8°C | 25.2% | 232.7hPa | 2.7V | 00:00:00 | 00:00:00 | 00:00:00 | |
| OE5DRO-10 | 2026-08-31 23:23:03 | 49.33156 | 12.70696 | 99° | 126km/h | 11104m | 4.0m/s | -53.8°C | 31.3% | 232.8hPa | 2.7V | 00:00:00 | 00:00:00 | 00:00:00 | |
| DO3MHA-11 | 2026-08-31 23:23:02 | 49.33160 | 12.70648 | 99° | 126km/h | 11100m | 3.0m/s | -53.7°C | 31.3% | 232.9hPa | 2.7V | 00:00:00 | 01:17:26 | 00:00:00 | |
| SONDE2-11 | 2026-08-31 23:22:48 | 49.33225 | 12.69971 | 97° | 126km/h | 11051m | 4.4m/s | -53.4°C | 24.3% | 234.8hPa | 2.7V | 00:00:00 | 00:00:00 | 00:00:00 | |
| OE5MMP-10 | 2026-08-31 23:22:45 | 49.33239 | 12.69827 | 99° | 122km/h | 11039m | 4.3m/s | 0°C | 0% | 0hPa | 2.7V | 00:00:00 | 01:17:09 | 00:00:00 | |
| OE5DRO-10 | 2026-08-31 23:22:44 | 49.33244 | 12.69780 | 100° | 124km/h | 11036m | 2.7m/s | -53.3°C | 30.3% | 235.2hPa | 2.7V | 00:00:00 | 00:00:00 | 00:00:00 | |
| DO3MHA-11 | 2026-08-31 23:22:42 | 49.33253 | 12.69686 | 98° | 126km/h | 11029m | 4.3m/s | -53.3°C | 29.9% | 235.5hPa | 2.7V | 04:44:00 | 01:17:06 | 00:00:00 | |
| PG1ADW-2 | 2026-08-31 23:22:41 | 49.33257 | 12.69638 | 98° | 124km/h | 11025m | 3.5m/s | -53.2°C | 30.0% | 235.6hPa | 2.7V | 00:00:00 | 00:00:00 | 00:00:00 | |
| OE5WHR-10 | 2026-08-31 23:22:40 | 49.33261 | 12.69590 | 97° | 124km/h | 11022m | 2.7m/s | -53.2°C | 29.8% | 235.8hPa | 2.7V | 00:00:00 | 01:17:04 | 00:00:00 | |
| AM1SDL-15 | 2026-08-31 23:22:39 | 49.33265 | 12.69543 | 98° | 124km/h | 11019m | 3.6m/s | 0°C | 0% | 0hPa | 2.7V | 00:00:00 | 01:17:03 | 00:00:00 | |
| DO9HM | 2026-08-31 23:22:38 | 49.33264 | 12.69543 | 98° | 124km/h | 11019m | 3.7m/s | -53.2°C | 23.9% | 235.9hPa | 2.7V | 04:45:00 | 00:00:00 | 00:00:00 | |
| OE5MMP-10 | 2026-08-31 23:22:35 | 49.33284 | 12.69356 | 100° | 124km/h | 11004m | 4.0m/s | 0°C | 0% | 0hPa | 2.7V | 04:44:00 | 01:16:59 | 00:00:00 | |
| DO8TBO-1 | 2026-08-31 23:22:34 | 49.33289 | 12.69308 | 100° | 124km/h | 11001m | 4.0m/s | -53.0°C | 29.4% | 236.5hPa | 2.7V | 00:00:00 | 01:16:58 | 00:00:00 | |
| DL6DJ-15 | 2026-08-31 23:22:33 | 49.33294 | 12.69260 | 98° | 126km/h | 10997m | 3.1m/s | -53.0°C | 23.7% | 236.7hPa | 2.7V | 00:00:00 | 00:00:00 | 00:00:00 | |
| DO3MHA-11 | 2026-08-31 23:22:32 | 49.33299 | 12.69211 | 100° | 126km/h | 10994m | 3.6m/s | -53.0°C | 29.3% | 236.8hPa | 2.7V | 00:00:00 | 01:16:56 | 00:00:00 | |
| OE5MMP-10 | 2026-08-31 23:22:25 | 49.33336 | 12.68876 | 100° | 124km/h | 10968m | 4.4m/s | 0°C | 0% | 0hPa | 2.7V | 00:00:00 | 01:16:49 | 00:00:00 | |
| DO3MHA-11 | 2026-08-31 23:22:22 | 49.33353 | 12.68734 | 100° | 126km/h | 10956m | 4.7m/s | -52.7°C | 28.2% | 238.1hPa | 2.7V | 00:00:00 | 01:16:46 | 00:00:00 | |
| PG1ADW-2 | 2026-08-31 23:22:21 | 49.33358 | 12.68687 | 100° | 124km/h | 10952m | 3.7m/s | -52.6°C | 28.4% | 238.3hPa | 2.7V | 00:00:00 | 00:00:00 | 00:00:00 | |
| OE5WHR-10 | 2026-08-31 23:22:19 | 49.33369 | 12.68592 | 101° | 124km/h | 10944m | 4.8m/s | -52.6°C | 28.2% | 238.6hPa | 2.7V | 00:00:00 | 00:00:00 | 00:00:00 | |
| DO9HM | 2026-08-31 23:22:18 | 49.33370 | 12.68592 | 102° | 124km/h | 10944m | 4.9m/s | -52.6°C | 22.8% | 238.7hPa | 2.7V | 04:45:00 | 00:00:00 | 00:00:00 | |
| SONDE2-11 | 2026-08-31 23:22:17 | 49.33382 | 12.68497 | 100° | 124km/h | 10936m | 3.9m/s | -52.6°C | 22.6% | 238.9hPa | 2.7V | 00:00:00 | 00:00:00 | 00:00:00 | |
| DL1JEZ-13 | 2026-08-31 23:22:13 | 49.33399 | 12.68353 | 102° | 126km/h | 10925m | 4.2m/s | 0°C | 0% | 0hPa | 2.7V | 00:00:00 | 00:00:00 | 00:00:00 | |
| DO3MHA-11 | 2026-08-31 23:22:12 | 49.33411 | 12.68258 | 101° | 122km/h | 10917m | 3.7m/s | -52.4°C | 27.6% | 239.6hPa | 2.7V | 00:00:00 | 01:16:36 | 00:00:00 | |
| AM1SDL-15 | 2026-08-31 23:22:11 | 49.33417 | 12.68212 | 101° | 122km/h | 10913m | 4.5m/s | 0°C | 0% | 0hPa | 2.7V | 00:00:00 | 01:16:35 | 00:00:00 | |
| OE5DRO-10 | 2026-08-31 23:22:06 | 49.33445 | 12.67980 | 101° | 124km/h | 10893m | 4.6m/s | -52.2°C | 27.6% | 240.5hPa | 2.7V | 00:00:00 | 00:00:00 | 00:00:00 | |
| ANDY1245 | 2026-08-31 23:22:05 | 49.33445 | 12.67980 | 102° | 124km/h | 10893m | 4.7m/s | 0°C | 0% | 0hPa | 2.7V | 04:45:00 | 00:00:00 | 00:00:00 | |
| DO8TBO-1 | 2026-08-31 23:22:04 | 49.33457 | 12.67885 | 101° | 126km/h | 10885m | 3.9m/s | -52.2°C | 27.8% | 240.8hPa | 2.7V | 00:00:00 | 01:16:28 | 00:00:00 | |
| DO3MHA-11 | 2026-08-31 23:22:02 | 49.33469 | 12.67790 | 102° | 122km/h | 10877m | 3.1m/s | -52.1°C | 27.8% | 241.1hPa | 2.7V | 00:00:00 | 01:16:26 | 00:00:00 | |
| EDDB2-11 | 2026-08-31 23:22:01 | 49.33475 | 12.67743 | 100° | 124km/h | 10873m | 4.4m/s | -52.2°C | 22.3% | 241.3hPa | 2.7V | 00:00:00 | 00:00:00 | 00:00:00 | |
| SONDE2-11 | 2026-08-31 23:21:46 | 49.33575 | 12.67029 | 105° | 130km/h | 10815m | 3.5m/s | -51.8°C | 22.4% | 243.5hPa | 2.7V | 00:00:00 | 00:00:00 | 00:00:00 | |
| OE3JTB-15 | 2026-08-31 23:21:44 | 49.33591 | 12.66932 | 104° | 128km/h | 10808m | 4.4m/s | 0°C | 0% | 0hPa | 2.7V | 00:00:00 | 00:00:00 | 00:00:00 | |
| DO3MHA-11 | 2026-08-31 23:21:42 | 49.33606 | 12.66837 | 103° | 126km/h | 10800m | 3.7m/s | -51.7°C | 26.7% | 244.0hPa | 2.7V | 00:00:00 | 01:16:06 | 00:00:00 | |
| PG1ADW-2 | 2026-08-31 23:21:41 | 49.33612 | 12.66791 | 103° | 128km/h | 10796m | 4.4m/s | -51.7°C | 26.6% | 244.1hPa | 2.7V | 00:00:00 | 00:00:00 | 00:00:00 | |
| OE5WHR-10 | 2026-08-31 23:21:36 | 49.33652 | 12.66557 | 106° | 131km/h | 10777m | 3.7m/s | -51.6°C | 27.2% | 244.8hPa | 2.7V | 04:45:00 | 01:16:00 | 00:00:00 | |
| DO8TBO-1 | 2026-08-31 23:21:34 | 49.33670 | 12.66460 | 106° | 133km/h | 10769m | 4.7m/s | -51.5°C | 27.1% | 245.1hPa | 2.7V | 00:00:00 | 01:15:58 | 00:00:00 | |
| ANDY1245 | 2026-08-31 23:21:33 | 49.33669 | 12.66460 | 107° | 130km/h | 10769m | 4.7m/s | 0°C | 0% | 0hPa | 2.7V | 00:00:00 | 00:00:00 | 00:00:00 | |
| DO3MHA-11 | 2026-08-31 23:21:32 | 49.33688 | 12.66364 | 106° | 131km/h | 10762m | 3.6m/s | -51.5°C | 27.0% | 245.4hPa | 2.7V | 00:00:00 | 01:15:56 | 00:00:00 | |
| DL6DJ-15 | 2026-08-31 23:21:31 | 49.33697 | 12.66316 | 105° | 130km/h | 10757m | 4.9m/s | -51.5°C | 22.1% | 245.6hPa | 2.7V | 00:00:00 | 00:00:00 | 00:00:00 | |
| EDDB2-11 | 2026-08-31 23:21:30 | 49.33705 | 12.66266 | 104° | 131km/h | 10753m | 3.2m/s | -51.5°C | 22.3% | 245.8hPa | 2.7V | 00:00:00 | 00:00:00 | 00:00:00 | |
| OE5DRO-10 | 2026-08-31 23:21:28 | 49.33721 | 12.66167 | 105° | 131km/h | 10746m | 4.6m/s | -51.4°C | 27.4% | 246.1hPa | 2.7V | 00:00:00 | 00:00:00 | 00:00:00 | |
| OE5MMP-10 | 2026-08-31 23:21:22 | 49.33774 | 12.65876 | 107° | 133km/h | 10723m | 4.7m/s | 0°C | 0% | 0hPa | 2.7V | 04:46:00 | 01:15:46 | 00:00:00 | |
| PG1ADW-2 | 2026-08-31 23:21:21 | 49.33783 | 12.65828 | 107° | 133km/h | 10719m | 3.6m/s | -51.2°C | 27.6% | 247.0hPa | 2.7V | 00:00:00 | 00:00:00 | 00:00:00 | |
| OE5DXL-15 | 2026-08-31 23:21:19 | 49.33802 | 12.65731 | 107° | 135km/h | 10710m | 4.2m/s | -51.2°C | 27.8% | 247.4hPa | 2.7V | 00:00:00 | 00:00:00 | 00:00:00 | |
| OE5WHR-10 | 2026-08-31 23:21:15 | 49.33840 | 12.65534 | 107° | 135km/h | 10695m | 2.9m/s | -51.0°C | 27.4% | 247.9hPa | 2.7V | 00:00:00 | 00:00:00 | 00:00:00 | |
| OE3JTB-15 | 2026-08-31 23:21:13 | 49.33858 | 12.65433 | 106° | 124km/h | 10688m | 3.7m/s | 0°C | 0% | 0hPa | 2.7V | 04:46:00 | 00:00:00 | 00:00:00 | |
| OE5MMP-10 | 2026-08-31 23:21:12 | 49.33867 | 12.65383 | 105° | 133km/h | 10683m | 4.5m/s | 0°C | 0% | 0hPa | 2.7V | 00:00:00 | 01:15:36 | 00:00:00 | |
| OE5DRO-10 | 2026-08-31 23:21:09 | 49.33892 | 12.65233 | 105° | 137km/h | 10672m | 5.0m/s | -50.9°C | 27.0% | 248.8hPa | 2.7V | 00:00:00 | 00:00:00 | 00:00:00 | |
| DL1JEZ-13 | 2026-08-31 23:21:05 | 49.33918 | 12.65083 | 107° | 133km/h | 10662m | 4.1m/s | 0°C | 0% | 0hPa | 2.7V | 00:00:00 | 00:00:00 | 00:00:00 | |
| DO8TBO-1 | 2026-08-31 23:21:04 | 49.33938 | 12.64984 | 109° | 142km/h | 10654m | 3.3m/s | -50.8°C | 27.0% | 249.5hPa | 2.7V | 00:00:00 | 01:15:28 | 00:00:00 | |
| DO3MHA-11 | 2026-08-31 23:21:02 | 49.33960 | 12.64884 | 109° | 139km/h | 10645m | 4.5m/s | -50.7°C | 27.1% | 249.8hPa | 2.7V | 04:46:00 | 01:15:26 | 00:00:00 | |
| DL6DJ-15 | 2026-08-31 23:21:00 | 49.33982 | 12.64782 | 108° | 139km/h | 10637m | 5.0m/s | -50.7°C | 21.9% | 250.1hPa | 2.7V | 00:00:00 | 00:00:00 | 00:00:00 | |
| EDDB2-11 | 2026-08-31 23:20:59 | 49.33993 | 12.64731 | 108° | 137km/h | 10632m | 4.5m/s | -50.7°C | 22.1% | 250.3hPa | 2.7V | 00:00:00 | 00:00:00 | 00:00:00 | |
| AM1SDL-15 | 2026-08-31 23:20:58 | 49.34004 | 12.64681 | 108° | 139km/h | 10629m | 2.4m/s | 0°C | 0% | 0hPa | 2.7V | 00:00:00 | 01:15:22 | 00:00:00 | |
| OE5WHR-10 | 2026-08-31 23:20:54 | 49.34044 | 12.64475 | 107° | 141km/h | 10614m | 5.3m/s | -50.5°C | 25.9% | 251.0hPa | 2.7V | 00:00:00 | 00:00:00 | 00:00:00 | |
| DO3MHA-11 | 2026-08-31 23:20:52 | 49.34065 | 12.64373 | 108° | 141km/h | 10605m | 3.8m/s | -50.4°C | 25.8% | 251.4hPa | 2.7V | 00:00:00 | 01:15:16 | 00:00:00 | |
| OE5DRO-10 | 2026-08-31 23:20:50 | 49.34086 | 12.64271 | 108° | 142km/h | 10596m | 3.7m/s | -50.3°C | 26.1% | 251.7hPa | 2.7V | 00:00:00 | 00:00:00 | 00:00:00 | |
| OE5DXL-15 | 2026-08-31 23:20:49 | 49.34097 | 12.64219 | 108° | 142km/h | 10593m | 3.0m/s | -50.3°C | 25.9% | 251.8hPa | 2.7V | 00:00:00 | 00:00:00 | 00:00:00 | |
| DO9HM | 2026-08-31 23:20:48 | 49.34097 | 12.64219 | 108° | 141km/h | 10593m | 3.1m/s | -50.3°C | 21.1% | 251.9hPa | 2.7V | 00:00:00 | 00:00:00 | 00:00:00 | |
| AM1SDL-15 | 2026-08-31 23:20:45 | 49.34139 | 12.64011 | 107° | 142km/h | 10578m | 4.4m/s | 0°C | 0% | 0hPa | 2.7V | 00:00:00 | 01:15:09 | 00:00:00 | |
| SONDE2-11 | 2026-08-31 23:20:44 | 49.34160 | 12.63905 | 106° | 141km/h | 10570m | 4.8m/s | -50.1°C | 20.6% | 252.8hPa | 2.7V | 00:00:00 | 00:00:00 | 00:00:00 | |
| DO3MHA-11 | 2026-08-31 23:20:42 | 49.34170 | 12.63852 | 107° | 142km/h | 10566m | 4.3m/s | -50.0°C | 25.5% | 252.9hPa | 2.7V | 00:00:00 | 01:15:06 | 00:00:00 | |
| OE5MMP-10 | 2026-08-31 23:20:41 | 49.34180 | 12.63799 | 107° | 142km/h | 10563m | 2.7m/s | 0°C | 0% | 0hPa | 2.7V | 00:00:00 | 01:15:05 | 00:00:00 | |
| OE5WHR-10 | 2026-08-31 23:20:33 | 49.34264 | 12.63380 | 108° | 142km/h | 10532m | 4.5m/s | -49.7°C | 24.8% | 254.1hPa | 2.7V | 00:00:00 | 01:14:57 | 00:00:00 | |
| DO3MHA-11 | 2026-08-31 23:20:32 | 49.34275 | 12.63327 | 108° | 141km/h | 10528m | 3.5m/s | -49.7°C | 24.7% | 254.3hPa | 2.7V | 00:00:00 | 01:14:56 | 00:00:00 | |
| OE5DRO-10 | 2026-08-31 23:20:31 | 49.34286 | 12.63275 | 108° | 142km/h | 10524m | 4.2m/s | -49.7°C | 24.7% | 254.4hPa | 2.7V | 00:00:00 | 00:00:00 | 00:00:00 | |
| DO9HM | 2026-08-31 23:20:29 | 49.34308 | 12.63172 | 109° | 141km/h | 10516m | 3.0m/s | -49.7°C | 20.2% | 254.8hPa | 2.7V | 00:00:00 | 00:00:00 | 00:00:00 | |
| EDDB2-11 | 2026-08-31 23:20:28 | 49.34319 | 12.63120 | 107° | 139km/h | 10513m | 4.5m/s | -49.7°C | 20.0% | 254.9hPa | 2.7V | 00:00:00 | 00:00:00 | 00:00:00 | |
| OE5MMP-10 | 2026-08-31 23:20:27 | 49.34329 | 12.63068 | 107° | 142km/h | 10509m | 3.3m/s | 0°C | 0% | 0hPa | 2.7V | 04:46:00 | 01:14:51 | 00:00:00 | |
| DO3MHA-11 | 2026-08-31 23:20:22 | 49.34381 | 12.62806 | 107° | 142km/h | 10491m | 4.6m/s | -49.5°C | 24.2% | 255.8hPa | 2.7V | 00:00:00 | 01:14:46 | 00:00:00 | |
| PG1ADW-2 | 2026-08-31 23:20:21 | 49.34392 | 12.62753 | 107° | 142km/h | 10486m | 3.4m/s | -49.4°C | 24.4% | 256.0hPa | 2.7V | 04:47:00 | 00:00:00 | 00:00:00 | |
| AM1SDL-15 | 2026-08-31 23:20:20 | 49.34402 | 12.62700 | 108° | 144km/h | 10483m | 3.9m/s | 0°C | 0% | 0hPa | 2.7V | 00:00:00 | 01:14:44 | 00:00:00 | |
| OE5DXL-15 | 2026-08-31 23:20:19 | 49.34413 | 12.62647 | 108° | 142km/h | 10479m | 3.8m/s | -49.4°C | 24.4% | 256.2hPa | 2.7V | 04:47:00 | 00:00:00 | 00:00:00 | |
| OE5MMP-10 | 2026-08-31 23:20:17 | 49.34436 | 12.62540 | 109° | 142km/h | 10472m | 4.2m/s | 0°C | 0% | 0hPa | 2.7V | 00:00:00 | 01:14:41 | 00:00:00 | |
| SONCRA | 2026-08-31 23:20:14 | 49.34470 | 12.62384 | 108° | 141km/h | 10459m | 4.7m/s | -49.3°C | 0% | 257.0hPa | 2.7V | 00:00:00 | 00:00:00 | 00:00:00 | |
| SONDE2-11 | 2026-08-31 23:20:13 | 49.34493 | 12.62280 | 108° | 141km/h | 10451m | 4.7m/s | -49.3°C | 20.1% | 257.3hPa | 2.7V | 00:00:00 | 00:00:00 | 00:00:00 | |
| DO3MHA-11 | 2026-08-31 23:20:12 | 49.34492 | 12.62280 | 109° | 144km/h | 10451m | 4.6m/s | -49.2°C | 24.5% | 257.3hPa | 2.7V | 04:47:00 | 01:14:36 | 00:00:00 | |
| DO9HM | 2026-08-31 23:20:08 | 49.34537 | 12.62069 | 110° | 146km/h | 10436m | 3.4m/s | -49.3°C | 20.4% | 257.9hPa | 2.7V | 00:00:00 | 00:00:00 | 00:00:00 | |
| OE5MMP-10 | 2026-08-31 23:20:07 | 49.34549 | 12.62016 | 110° | 144km/h | 10433m | 3.0m/s | 0°C | 0% | 0hPa | 2.7V | 00:00:00 | 01:14:31 | 00:00:00 | |
| DO3MHA-11 | 2026-08-31 23:20:02 | 49.34613 | 12.61755 | 111° | 142km/h | 10414m | 4.1m/s | -49.1°C | 24.6% | 258.7hPa | 2.7V | 00:00:00 | 01:14:26 | 00:00:00 | |
| DL6DJ-15 | 2026-08-31 23:19:58 | 49.34660 | 12.61551 | 108° | 137km/h | 10399m | 3.3m/s | -49.0°C | 20.1% | 259.3hPa | 2.7V | 00:00:00 | 00:00:00 | 00:00:00 | |
| EDDB2-11 | 2026-08-31 23:19:57 | 49.34672 | 12.61500 | 108° | 139km/h | 10396m | 3.8m/s | -49.0°C | 19.9% | 259.5hPa | 2.7V | 00:00:00 | 00:00:00 | 00:00:00 | |
| OE5MMP-10 | 2026-08-31 23:19:56 | 49.34683 | 12.61447 | 108° | 142km/h | 10392m | 4.3m/s | 0°C | 0% | 0hPa | 2.7V | 00:00:00 | 01:14:20 | 00:00:00 | |
| OE5DRO-10 | 2026-08-31 23:19:53 | 49.34716 | 12.61287 | 109° | 141km/h | 10381m | 3.3m/s | -48.8°C | 24.2% | 260.0hPa | 2.7V | 00:00:00 | 00:00:00 | 00:00:00 | |
| DO3MHA-11 | 2026-08-31 23:19:52 | 49.34727 | 12.61234 | 109° | 141km/h | 10378m | 2.9m/s | -48.8°C | 24.1% | 260.2hPa | 2.7V | 00:00:00 | 01:14:16 | 00:00:00 | |
| OE5WHR-10 | 2026-08-31 23:19:51 | 49.34739 | 12.61181 | 109° | 141km/h | 10374m | 4.3m/s | -48.8°C | 23.9% | 260.3hPa | 2.7V | 04:47:00 | 00:00:00 | 00:00:00 | |
| OE5DXL-15 | 2026-08-31 23:19:49 | 49.34762 | 12.61078 | 109° | 139km/h | 10366m | 3.2m/s | -48.7°C | 24.0% | 260.7hPa | 2.7V | 00:00:00 | 00:00:00 | 00:00:00 | |
| DO9HM | 2026-08-31 23:19:47 | 49.34773 | 12.61027 | 109° | 139km/h | 10362m | 4.4m/s | -48.7°C | 19.5% | 260.9hPa | 2.7V | 00:00:00 | 00:00:00 | 00:00:00 | |
| AM1SDL-15 | 2026-08-31 23:19:44 | 49.34816 | 12.60822 | 109° | 141km/h | 10346m | 3.4m/s | 0°C | 0% | 0hPa | 2.7V | 00:00:00 | 01:14:08 | 00:00:00 | |
| DO3MHA-11 | 2026-08-31 23:19:42 | 49.34839 | 12.60719 | 109° | 141km/h | 10338m | 4.1m/s | -48.4°C | 23.3% | 261.8hPa | 2.7V | 00:00:00 | 01:14:06 | 00:00:00 | |
| PG1ADW-2 | 2026-08-31 23:19:41 | 49.34850 | 12.60668 | 109° | 139km/h | 10335m | 3.3m/s | 0°C | 0% | 0hPa | 2.7V | 00:00:00 | 00:00:00 | 00:00:00 | |
| OE5MMP-10 | 2026-08-31 23:19:40 | 49.34862 | 12.60616 | 109° | 141km/h | 10331m | 4.5m/s | 0°C | 0% | 0hPa | 2.7V | 00:00:00 | 01:14:04 | 00:00:00 | |
| OE5DRO-10 | 2026-08-31 23:19:34 | 49.34927 | 12.60306 | 108° | 141km/h | 10307m | 4.1m/s | -48.2°C | 22.8% | 263.0hPa | 2.7V | 00:00:00 | 00:00:00 | 00:00:00 | |
| DO3MHA-11 | 2026-08-31 23:19:32 | 49.34949 | 12.60204 | 110° | 139km/h | 10300m | 4.0m/s | -48.1°C | 22.7% | 263.3hPa | 2.7V | 00:00:00 | 01:13:56 | 00:00:00 | |
| OE5WHR-10 | 2026-08-31 23:19:30 | 49.34972 | 12.60100 | 108° | 139km/h | 10292m | 2.7m/s | -48.1°C | 22.8% | 263.6hPa | 2.7V | 00:00:00 | 01:13:54 | 00:00:00 | |
| DL6DJ-15 | 2026-08-31 23:19:27 | 49.35003 | 12.59946 | 107° | 135km/h | 10281m | 3.4m/s | -48.0°C | 18.4% | 264.1hPa | 2.7V | 00:00:00 | 00:00:00 | 00:00:00 | |
| EDDB2-11 | 2026-08-31 23:19:26 | 49.35014 | 12.59896 | 107° | 135km/h | 10277m | 4.3m/s | 0°C | -1.0% | 264.2hPa | 2.7V | 00:00:00 | 00:00:00 | 00:00:00 | |
| DO3MHA-11 | 2026-08-31 23:19:22 | 49.35055 | 12.59692 | 107° | 141km/h | 10261m | 4.2m/s | -47.8°C | 22.8% | 264.8hPa | 2.7V | 04:48:00 | 01:13:46 | 00:00:00 | |
| PG1ADW-2 | 2026-08-31 23:19:21 | 49.35065 | 12.59641 | 106° | 139km/h | 10258m | 2.5m/s | 0°C | 0% | 0hPa | 2.7V | 00:00:00 | 01:13:45 | 00:00:00 | |
| ANDY1245 | 2026-08-31 23:19:20 | 49.35065 | 12.59641 | 107° | 139km/h | 10258m | 2.5m/s | 0°C | 0% | 0hPa | 2.7V | 00:00:00 | 00:00:00 | 00:00:00 | |
| OE5MMP-10 | 2026-08-31 23:19:19 | 49.35084 | 12.59536 | 107° | 141km/h | 10251m | 4.4m/s | 0°C | 0% | 0hPa | 2.7V | 00:00:00 | 01:13:43 | 00:00:00 | |
| OE5DRO-10 | 2026-08-31 23:19:15 | 49.35126 | 12.59324 | 108° | 139km/h | 10235m | 3.5m/s | -47.6°C | 22.6% | 265.8hPa | 2.7V | 00:00:00 | 00:00:00 | 00:00:00 | |
| ANDY1245 | 2026-08-31 23:19:14 | 49.35126 | 12.59324 | 109° | 141km/h | 10235m | 3.5m/s | 0°C | 0% | 0hPa | 2.7V | 00:00:00 | 00:00:00 | 00:00:00 | |
| DL1JEZ-13 | 2026-08-31 23:19:13 | 49.35137 | 12.59272 | 109° | 141km/h | 10231m | 5.2m/s | 0°C | 0% | 0hPa | 2.7V | 00:00:00 | 00:00:00 | 00:00:00 | |
| DO3MHA-11 | 2026-08-31 23:19:12 | 49.35158 | 12.59169 | 108° | 139km/h | 10223m | 3.4m/s | -47.5°C | 22.7% | 266.3hPa | 2.7V | 00:00:00 | 01:13:36 | 00:00:00 | |
| SONDE2-11 | 2026-08-31 23:19:11 | 49.35178 | 12.59068 | 105° | 135km/h | 10214m | 3.5m/s | -47.6°C | 18.9% | 266.7hPa | 2.7V | 00:00:00 | 00:00:00 | 00:00:00 | |
| OE5WHR-10 | 2026-08-31 23:19:09 | 49.35186 | 12.59017 | 105° | 139km/h | 10211m | 3.7m/s | -47.5°C | 22.8% | 266.8hPa | 2.7V | 00:00:00 | 00:00:00 | 00:00:00 | |
| ANDY1245 | 2026-08-31 23:19:08 | 49.35186 | 12.59017 | 106° | 137km/h | 10211m | 3.7m/s | 0°C | 0% | 0hPa | 2.7V | 00:00:00 | 00:00:00 | 00:00:00 | |
| AM1SDL-15 | 2026-08-31 23:19:06 | 49.35213 | 12.58860 | 105° | 137km/h | 10200m | 3.0m/s | 0°C | 0% | 0hPa | 2.7V | 00:00:00 | 01:13:30 | 00:00:00 | |
| DO9HM | 2026-08-31 23:19:04 | 49.35222 | 12.58807 | 105° | 141km/h | 10196m | 4.7m/s | -47.5°C | 18.8% | 267.5hPa | 2.7V | 04:48:00 | 00:00:00 | 00:00:00 | |
| DO3MHA-11 | 2026-08-31 23:19:02 | 49.35248 | 12.58653 | 106° | 135km/h | 10183m | 3.4m/s | -47.4°C | 23.1% | 267.9hPa | 2.7V | 00:00:00 | 01:13:26 | 00:00:00 | |
| PG1ADW-2 | 2026-08-31 23:19:01 | 49.35257 | 12.58602 | 107° | 139km/h | 10179m | 4.3m/s | 0°C | 0% | 0hPa | 2.7V | 00:00:00 | 00:00:00 | 00:00:00 | |
| OE5MMP-10 | 2026-08-31 23:18:59 | 49.35278 | 12.58501 | 109° | 141km/h | 10172m | 2.8m/s | 0°C | 0% | 0hPa | 2.7V | 00:00:00 | 01:13:23 | 00:00:00 | |
| OE5DRO-10 | 2026-08-31 23:18:56 | 49.35313 | 12.58353 | 112° | 139km/h | 10159m | 3.5m/s | -47.2°C | 22.9% | 268.9hPa | 2.7V | 00:00:00 | 00:00:00 | 00:00:00 | |
| ANDY1245 | 2026-08-31 23:18:55 | 49.35313 | 12.58353 | 112° | 133km/h | 10159m | 3.6m/s | 0°C | 0% | 0hPa | 2.7V | 00:00:00 | 00:00:00 | 00:00:00 | |
| DO3MHA-11 | 2026-08-31 23:18:52 | 49.35360 | 12.58154 | 107° | 141km/h | 10142m | 4.3m/s | -47.1°C | 23.8% | 269.6hPa | 2.7V | 00:00:00 | 01:13:16 | 00:00:00 | |
| OE5DXL-15 | 2026-08-31 23:18:49 | 49.35388 | 12.57993 | 105° | 139km/h | 10129m | 5.1m/s | -47.0°C | 23.9% | 270.1hPa | 2.7V | 00:00:00 | 00:00:00 | 00:00:00 | |
| OE5WHR-10 | 2026-08-31 23:18:48 | 49.35398 | 12.57940 | 106° | 137km/h | 10125m | 4.1m/s | -47.0°C | 24.2% | 270.3hPa | 2.7V | 00:00:00 | 00:00:00 | 00:00:00 | |
| DO9HM | 2026-08-31 23:18:44 | 49.35429 | 12.57788 | 110° | 137km/h | 10111m | 5.3m/s | -46.9°C | 19.6% | 270.9hPa | 2.7V | 04:48:00 | 00:00:00 | 00:00:00 | |
| DO3MHA-11 | 2026-08-31 23:18:42 | 49.35463 | 12.57637 | 111° | 139km/h | 10095m | 7.1m/s | -46.7°C | 23.5% | 271.6hPa | 2.7V | 00:00:00 | 01:13:06 | 00:00:00 | |
| SONCRA | 2026-08-31 23:18:41 | 49.35475 | 12.57586 | 109° | 141km/h | 10089m | 3.7m/s | -46.7°C | 19.7% | 271.8hPa | 2.7V | 00:00:00 | 00:00:00 | 00:00:00 | |
| SONDE2-11 | 2026-08-31 23:18:40 | 49.35499 | 12.57483 | 108° | 141km/h | 10077m | 5.2m/s | -46.7°C | 19.7% | 272.3hPa | 2.7V | 00:00:00 | 00:00:00 | 00:00:00 | |
| OE5DRO-10 | 2026-08-31 23:18:37 | 49.35519 | 12.57378 | 106° | 137km/h | 10066m | 6.1m/s | -46.5°C | 24.2% | 272.7hPa | 2.7V | 04:48:00 | 00:00:00 | 00:00:00 | |
| OE5MMP-10 | 2026-08-31 23:18:33 | 49.35553 | 12.57175 | 105° | 139km/h | 10044m | 6.3m/s | 0°C | 0% | 0hPa | 2.7V | 00:00:00 | 01:12:57 | 00:00:00 | |
| DO3MHA-11 | 2026-08-31 23:18:32 | 49.35562 | 12.57125 | 105° | 139km/h | 10039m | 5.4m/s | -46.6°C | 27.5% | 273.9hPa | 2.7V | 04:48:00 | 01:12:56 | 00:00:00 | |
| OE5WHR-10 | 2026-08-31 23:18:26 | 49.35617 | 12.56817 | 106° | 137km/h | 10009m | 3.3m/s | -46.6°C | 30.1% | 275.1hPa | 2.7V | 00:00:00 | 01:12:50 | 00:00:00 | |
| DL6DJ-15 | 2026-08-31 23:18:25 | 49.35635 | 12.56709 | 104° | 141km/h | 10000m | 4.2m/s | -46.7°C | 26.3% | 275.6hPa | 2.7V | 00:00:00 | 00:00:00 | 00:00:00 | |
| DO9HM | 2026-08-31 23:18:24 | 49.35635 | 12.56709 | 105° | 141km/h | 10000m | 4.2m/s | -46.7°C | 26.3% | 275.6hPa | 2.7V | 04:49:00 | 00:00:00 | 00:00:00 | |
| DO3MHA-11 | 2026-08-31 23:18:22 | 49.35652 | 12.56605 | 105° | 139km/h | 9992m | 3.8m/s | -46.6°C | 31.2% | 275.9hPa | 2.7V | 00:00:00 | 01:12:46 | 00:00:00 | |
| OE5MMP-10 | 2026-08-31 23:18:20 | 49.35669 | 12.56504 | 105° | 139km/h | 9983m | 6.0m/s | 0°C | 0% | 0hPa | 2.7V | 00:00:00 | 01:12:44 | 00:00:00 | |
| OE5DXL-15 | 2026-08-31 23:18:19 | 49.35678 | 12.56453 | 105° | 133km/h | 9976m | 6.9m/s | -46.6°C | 30.1% | 276.5hPa | 2.7V | 00:00:00 | 00:00:00 | 00:00:00 | |
| OE5DRO-10 | 2026-08-31 23:18:18 | 49.35686 | 12.56400 | 105° | 133km/h | 9971m | 3.7m/s | -46.6°C | 30.2% | 276.7hPa | 2.7V | 00:00:00 | 00:00:00 | 00:00:00 | |
| DO3MHA-11 | 2026-08-31 23:18:12 | 49.35741 | 12.56088 | 106° | 131km/h | 9940m | 5.9m/s | -46.4°C | 30.4% | 278.1hPa | 2.7V | 00:00:00 | 01:12:36 | 00:00:00 | |
| OE5MMP-10 | 2026-08-31 23:18:10 | 49.35759 | 12.55991 | 105° | 131km/h | 9928m | 3.9m/s | 0°C | 0% | 0hPa | 2.7V | 00:00:00 | 01:12:34 | 00:00:00 | |
| SONDE2-11 | 2026-08-31 23:18:09 | 49.35775 | 12.55892 | 103° | 135km/h | 9916m | 5.5m/s | -46.3°C | 25.1% | 279.1hPa | 2.7V | 00:00:00 | 00:00:00 | 00:00:00 | |
| AM1SDL-15 | 2026-08-31 23:18:06 | 49.35790 | 12.55790 | 103° | 135km/h | 9906m | 6.5m/s | 0°C | 0% | 0hPa | 2.7V | 00:00:00 | 01:12:30 | 00:00:00 | |
| OE5WHR-10 | 2026-08-31 23:18:05 | 49.35797 | 12.55740 | 104° | 131km/h | 9901m | 3.7m/s | -46.1°C | 29.9% | 279.6hPa | 2.7V | 04:49:00 | 00:00:00 | 00:00:00 | |
| DO9HM | 2026-08-31 23:18:03 | 49.35814 | 12.55641 | 106° | 130km/h | 9892m | 5.8m/s | -46.1°C | 24.9% | 280.1hPa | 2.9V | 04:49:00 | 00:00:00 | 00:00:00 | |
| DO3MHA-11 | 2026-08-31 23:18:02 | 49.35823 | 12.55593 | 107° | 131km/h | 9886m | 4.8m/s | -46.0°C | 29.2% | 280.3hPa | 2.9V | 00:00:00 | 01:12:26 | 00:00:00 | |
| DL6DJ-15 | 2026-08-31 23:17:54 | 49.35915 | 12.55155 | 107° | 133km/h | 9836m | 6.5m/s | -45.6°C | 25.1% | 282.4hPa | 2.9V | 00:00:00 | 00:00:00 | 00:00:00 | |
| DO3MHA-11 | 2026-08-31 23:17:52 | 49.35925 | 12.55105 | 107° | 130km/h | 9831m | 4.7m/s | -45.5°C | 29.6% | 282.6hPa | 2.9V | 00:00:00 | 01:12:16 | 00:00:00 | |
| OE5DXL-15 | 2026-08-31 23:17:49 | 49.35953 | 12.54957 | 108° | 131km/h | 9816m | 4.5m/s | -45.4°C | 29.3% | 283.1hPa | 2.9V | 04:49:00 | 00:00:00 | 00:00:00 | |
| OE5MMP-10 | 2026-08-31 23:17:47 | 49.35973 | 12.54862 | 110° | 130km/h | 9806m | 6.0m/s | 0°C | 0% | 0hPa | 2.9V | 00:00:00 | 01:12:11 | 00:00:00 | |
| DO3MHA-11 | 2026-08-31 23:17:42 | 49.36023 | 12.54625 | 105° | 131km/h | 9785m | 5.8m/s | -45.1°C | 28.3% | 284.6hPa | 2.9V | 04:49:00 | 01:12:06 | 00:00:00 | |
| OE5DRO-10 | 2026-08-31 23:17:40 | 49.36040 | 12.54527 | 106° | 131km/h | 9773m | 4.6m/s | -45.0°C | 27.7% | 285.1hPa | 2.7V | 00:00:00 | 00:00:00 | 00:00:00 | |
| SONCRA | 2026-08-31 23:17:39 | 49.36049 | 12.54480 | 105° | 126km/h | 9767m | 7.1m/s | -45.0°C | 23.5% | 285.3hPa | 2.7V | 00:00:00 | 00:00:00 | 00:00:00 | |
| SONDE2-11 | 2026-08-31 23:17:38 | 49.36067 | 12.54383 | 106° | 130km/h | 9756m | 4.7m/s | -44.9°C | 23.1% | 285.8hPa | 2.7V | 00:00:00 | 00:00:00 | 00:00:00 | |
| DO3MHA-11 | 2026-08-31 23:17:32 | 49.36111 | 12.54135 | 103° | 133km/h | 9731m | 3.4m/s | -44.6°C | 26.4% | 286.8hPa | 2.7V | 00:00:00 | 01:11:56 | 00:00:00 | |
| OE5MMP-10 | 2026-08-31 23:17:24 | 49.36182 | 12.53739 | 105° | 135km/h | 9692m | 5.9m/s | 0°C | 0% | 0hPa | 2.7V | 00:00:00 | 01:11:48 | 00:00:00 | |
| OE5WHR-10 | 2026-08-31 23:17:23 | 49.36191 | 12.53688 | 104° | 133km/h | 9686m | 5.7m/s | -44.2°C | 26.0% | 288.7hPa | 2.7V | 00:00:00 | 01:11:47 | 00:00:00 | |
| DO9HM | 2026-08-31 23:17:22 | 49.36191 | 12.53688 | 105° | 135km/h | 9686m | 5.8m/s | -44.2°C | 22.2% | 288.7hPa | 2.7V | 00:00:00 | 00:00:00 | 00:00:00 | |
| OE5DRO-10 | 2026-08-31 23:17:21 | 49.36206 | 12.53587 | 103° | 133km/h | 9675m | 7.6m/s | -44.0°C | 25.7% | 289.3hPa | 2.7V | 00:00:00 | 00:00:00 | 00:00:00 | |
| OE5DXL-15 | 2026-08-31 23:17:19 | 49.36220 | 12.53484 | 102° | 133km/h | 9664m | 4.7m/s | -43.9°C | 25.8% | 289.8hPa | 2.7V | 00:00:00 | 00:00:00 | 00:00:00 | |
| DO3MHA-11 | 2026-08-31 23:17:12 | 49.36285 | 12.53139 | 110° | 133km/h | 9626m | 3.6m/s | -43.6°C | 25.9% | 291.4hPa | 2.7V | 00:00:00 | 01:11:36 | 00:00:00 | |
| SONCRA | 2026-08-31 23:17:08 | 49.36324 | 12.52939 | 103° | 137km/h | 9608m | 4.4m/s | -43.5°C | 22.2% | 292.2hPa | 2.9V | 00:00:00 | 00:00:00 | 00:00:00 | |
| SONDE2-11 | 2026-08-31 23:17:06 | 49.36340 | 12.52837 | 103° | 133km/h | 9598m | 4.4m/s | -43.4°C | 22.5% | 292.6hPa | 2.9V | 00:00:00 | 00:00:00 | 00:00:00 | |
| DO3MHA-11 | 2026-08-31 23:17:02 | 49.36377 | 12.52640 | 107° | 131km/h | 9579m | 6.4m/s | -43.2°C | 26.4% | 293.3hPa | 2.9V | 00:00:00 | 01:11:26 | 00:00:00 | |
| DL6DJ-15 | 2026-08-31 23:16:51 | 49.36479 | 12.52101 | 104° | 133km/h | 9514m | 5.4m/s | -42.7°C | 22.4% | 296.2hPa | 2.9V | 00:00:00 | 00:00:00 | 00:00:00 | |
| OE5DXL-15 | 2026-08-31 23:16:49 | 49.36495 | 12.51999 | 103° | 133km/h | 9504m | 6.4m/s | -42.6°C | 26.1% | 296.6hPa | 2.9V | 00:00:00 | 00:00:00 | 00:00:00 | |
| DF2AP-13 | 2026-08-31 23:16:43 | 49.36549 | 12.51694 | 111° | 133km/h | 9473m | 4.7m/s | -42.4°C | 26.7% | 298.0hPa | 2.9V | 00:00:00 | 01:11:07 | 00:00:00 | |
| DO3MHA-11 | 2026-08-31 23:16:42 | 49.36561 | 12.51646 | 111° | 133km/h | 9468m | 4.5m/s | -42.4°C | 26.7% | 298.2hPa | 2.9V | 00:00:00 | 01:11:06 | 00:00:00 | |
| DO9HM | 2026-08-31 23:16:41 | 49.36573 | 12.51598 | 111° | 131km/h | 9463m | 5.5m/s | -42.4°C | 22.9% | 298.4hPa | 2.9V | 04:51:00 | 00:00:00 | 00:00:00 | |
| SONCRA | 2026-08-31 23:16:37 | 49.36614 | 12.51401 | 105° | 133km/h | 9448m | 2.9m/s | 0°C | -1.0% | -1.0hPa | 2.9V | 00:00:00 | 00:00:00 | 00:00:00 | |
| SONDE2-11 | 2026-08-31 23:16:36 | 49.36632 | 12.51301 | 105° | 131km/h | 9438m | 4.5m/s | -42.2°C | 22.3% | 299.5hPa | 2.9V | 00:00:00 | 00:00:00 | 00:00:00 | |
| DO3MHA-11 | 2026-08-31 23:16:32 | 49.36659 | 12.51156 | 106° | 133km/h | 9426m | 3.2m/s | -42.0°C | 25.8% | 300.1hPa | 2.9V | 00:00:00 | 01:10:56 | 00:00:00 | |
| OE5DRO-10 | 2026-08-31 23:16:24 | 49.36739 | 12.50764 | 109° | 133km/h | 9391m | 2.4m/s | -41.7°C | 25.4% | 301.6hPa | 2.9V | 00:00:00 | 00:00:00 | 00:00:00 | |
| DO3MHA-11 | 2026-08-31 23:16:22 | 49.36760 | 12.50666 | 108° | 135km/h | 9383m | 3.2m/s | -41.6°C | 25.0% | 302.0hPa | 2.9V | 00:00:00 | 01:10:46 | 00:00:00 | |
| OE5WHR-10 | 2026-08-31 23:16:20 | 49.36779 | 12.50567 | 106° | 135km/h | 9371m | 5.3m/s | -41.5°C | 24.6% | 302.5hPa | 2.9V | 04:51:00 | 01:10:44 | 00:00:00 | |
| OE5DXL-15 | 2026-08-31 23:16:19 | 49.36788 | 12.50517 | 105° | 137km/h | 9367m | 4.4m/s | -41.4°C | 24.5% | 302.8hPa | 2.9V | 00:00:00 | 00:00:00 | 00:00:00 | |
| DF2AP-13 | 2026-08-31 23:16:13 | 49.36838 | 12.50213 | 107° | 137km/h | 9337m | 4.8m/s | -41.2°C | 24.7% | 304.1hPa | 2.9V | 00:00:00 | 01:10:37 | 00:00:00 | |
| DO3MHA-11 | 2026-08-31 23:16:12 | 49.36848 | 12.50163 | 107° | 133km/h | 9333m | 4.1m/s | -41.2°C | 24.4% | 304.3hPa | 2.9V | 00:00:00 | 01:10:36 | 00:00:00 | |
| SONCRA | 2026-08-31 23:16:06 | 49.36906 | 12.49870 | 108° | 131km/h | 9304m | 2.8m/s | 0°C | -1.0% | -1.0hPa | 2.9V | 00:00:00 | 00:00:00 | 00:00:00 | |
| OE5DRO-10 | 2026-08-31 23:16:05 | 49.36916 | 12.49821 | 108° | 139km/h | 9300m | 6.0m/s | -40.8°C | 23.5% | 305.7hPa | 2.9V | 00:00:00 | 00:00:00 | 00:00:00 | |
| SONDE2-11 | 2026-08-31 23:16:04 | 49.36926 | 12.49771 | 106° | 137km/h | 9295m | 4.3m/s | -40.8°C | 20.1% | 306.0hPa | 2.9V | 00:00:00 | 00:00:00 | 00:00:00 | |
| DO3MHA-11 | 2026-08-31 23:16:02 | 49.36945 | 12.49666 | 105° | 141km/h | 9286m | 5.5m/s | -40.7°C | 22.9% | 306.4hPa | 2.9V | 04:51:00 | 01:10:26 | 00:00:00 | |
| OE5WHR-10 | 2026-08-31 23:15:59 | 49.36973 | 12.49507 | 106° | 133km/h | 9273m | 3.7m/s | -40.6°C | 22.6% | 307.0hPa | 2.9V | 00:00:00 | 00:00:00 | 00:00:00 | |
| DO3MHA-11 | 2026-08-31 23:15:52 | 49.37042 | 12.49143 | 107° | 135km/h | 9241m | 5.6m/s | -40.3°C | 22.5% | 308.5hPa | 2.9V | 00:00:00 | 01:10:16 | 00:00:00 | |
| OE5DXL-15 | 2026-08-31 23:15:49 | 49.37073 | 12.48990 | 107° | 135km/h | 9224m | 4.8m/s | -40.1°C | 22.2% | 309.2hPa | 2.9V | 00:00:00 | 00:00:00 | 00:00:00 | |
| OE5DRO-10 | 2026-08-31 23:15:46 | 49.37102 | 12.48838 | 107° | 135km/h | 9208m | 5.6m/s | -40.0°C | 21.6% | 309.9hPa | 2.9V | 00:00:00 | 00:00:00 | 00:00:00 | |
| DF2AP-13 | 2026-08-31 23:15:43 | 49.37133 | 12.48692 | 110° | 133km/h | 9192m | 4.0m/s | -39.8°C | 21.4% | 310.7hPa | 2.9V | 00:00:00 | 01:10:07 | 00:00:00 | |
| DO3MHA-11 | 2026-08-31 23:15:42 | 49.37144 | 12.48645 | 110° | 137km/h | 9187m | 5.7m/s | -39.7°C | 21.3% | 310.9hPa | 2.9V | 00:00:00 | 01:10:06 | 00:00:00 | |
| DO9HM | 2026-08-31 23:15:38 | 49.37175 | 12.48504 | 108° | 131km/h | 9172m | 7.1m/s | -39.6°C | 18.5% | 311.7hPa | 2.9V | 04:52:00 | 00:00:00 | 00:00:00 | |
| OE5WHR-10 | 2026-08-31 23:15:36 | 49.37203 | 12.48350 | 106° | 137km/h | 9155m | 6.6m/s | -39.4°C | 21.1% | 312.3hPa | 2.9V | 00:00:00 | 00:00:00 | 00:00:00 | |
| SONCRA | 2026-08-31 23:15:35 | 49.37213 | 12.48296 | 104° | 144km/h | 9150m | 4.4m/s | 0°C | -1.0% | -1.0hPa | 2.9V | 00:00:00 | 00:00:00 | 00:00:00 | |
| DO3MHA-11 | 2026-08-31 23:15:32 | 49.37241 | 12.48137 | 107° | 131km/h | 9137m | 3.6m/s | -39.3°C | 21.8% | 313.2hPa | 2.9V | 00:00:00 | 01:09:56 | 00:00:00 | |
| OE5DRO-10 | 2026-08-31 23:15:26 | 49.37299 | 12.47845 | 108° | 133km/h | 9105m | 5.5m/s | -39.0°C | 22.2% | 314.7hPa | 2.9V | 04:51:00 | 00:00:00 | 00:00:00 | |
| DO3MHA-11 | 2026-08-31 23:15:22 | 49.37339 | 12.47649 | 108° | 135km/h | 9085m | 3.8m/s | -38.8°C | 22.2% | 315.6hPa | 2.9V | 00:00:00 | 01:09:46 | 00:00:00 | |
| OE5DXL-15 | 2026-08-31 23:15:19 | 49.37368 | 12.47495 | 105° | 133km/h | 9068m | 5.8m/s | -38.6°C | 21.7% | 316.3hPa | 2.9V | 04:52:00 | 00:00:00 | 00:00:00 | |
| DL6DJ-15 | 2026-08-31 23:15:18 | 49.37376 | 12.47446 | 103° | 130km/h | 9062m | 5.1m/s | -38.6°C | 18.9% | 316.6hPa | 2.9V | 00:00:00 | 00:00:00 | 00:00:00 | |
| DO9HM | 2026-08-31 23:15:17 | 49.37376 | 12.47446 | 104° | 131km/h | 9063m | 5.1m/s | -38.6°C | 18.9% | 316.6hPa | 2.9V | 04:52:00 | 00:00:00 | 00:00:00 | |
| OE5WHR-10 | 2026-08-31 23:15:15 | 49.37399 | 12.47298 | 104° | 135km/h | 9046m | 4.8m/s | -38.4°C | 22.4% | 317.4hPa | 2.9V | 00:00:00 | 01:09:39 | 00:00:00 | |
| DF2AP-13 | 2026-08-31 23:15:13 | 49.37417 | 12.47198 | 109° | 135km/h | 9037m | 4.3m/s | -38.4°C | 22.6% | 317.8hPa | 2.9V | 04:52:00 | 01:09:37 | 00:00:00 | |
| DO3MHA-11 | 2026-08-31 23:15:12 | 49.37428 | 12.47148 | 110° | 135km/h | 9031m | 6.5m/s | -38.3°C | 22.5% | 318.0hPa | 2.9V | 04:52:00 | 01:09:36 | 00:00:00 | |
| OE5DRO-10 | 2026-08-31 23:15:07 | 49.37482 | 12.46901 | 106° | 135km/h | 9007m | 5.3m/s | -38.1°C | 22.7% | 319.1hPa | 2.9V | 00:00:00 | 00:00:00 | 00:00:00 | |
| DO3MHA-11 | 2026-08-31 23:15:02 | 49.37523 | 12.46648 | 104° | 131km/h | 8979m | 3.1m/s | -37.9°C | 22.9% | 320.4hPa | 2.9V | 00:00:00 | 01:09:26 | 00:00:00 | |
| DL6DJ-15 | 2026-08-31 23:14:47 | 49.37659 | 12.45901 | 107° | 135km/h | 8903m | 6.2m/s | -37.4°C | 20.3% | 323.9hPa | 2.9V | 00:00:00 | 00:00:00 | 00:00:00 | |
| DF2AP-13 | 2026-08-31 23:14:43 | 49.37698 | 12.45695 | 104° | 142km/h | 8882m | 4.9m/s | -37.2°C | 23.1% | 325.0hPa | 2.9V | 00:00:00 | 01:09:07 | 00:00:00 | |
| DO3MHA-11 | 2026-08-31 23:14:42 | 49.37706 | 12.45641 | 103° | 135km/h | 8876m | 5.0m/s | -37.1°C | 23.0% | 325.1hPa | 2.9V | 00:00:00 | 01:09:06 | 00:00:00 | |
| DO9HM | 2026-08-31 23:14:35 | 49.37762 | 12.45331 | 108° | 128km/h | 8850m | 5.8m/s | -36.9°C | 19.4% | 326.4hPa | 2.9V | 04:52:00 | 00:00:00 | 00:00:00 | |
| DO3MHA-11 | 2026-08-31 23:14:32 | 49.37797 | 12.45142 | 106° | 139km/h | 8833m | 4.3m/s | -36.7°C | 21.9% | 327.2hPa | 2.9V | 00:00:00 | 01:08:56 | 00:00:00 | |
| SONDE2-11 | 2026-08-31 23:14:31 | 49.37806 | 12.45094 | 106° | 130km/h | 8827m | 6.8m/s | -36.7°C | 19.2% | 327.5hPa | 2.9V | 00:00:00 | 00:00:00 | 00:00:00 | |
| OE5WHR-10 | 2026-08-31 23:14:29 | 49.37825 | 12.44993 | 106° | 139km/h | 8816m | 3.8m/s | -36.6°C | 21.5% | 328.0hPa | 2.9V | 04:52:00 | 00:00:00 | 00:00:00 | |
| DO3MHA-11 | 2026-08-31 23:14:22 | 49.37894 | 12.44621 | 104° | 139km/h | 8783m | 5.6m/s | -36.4°C | 20.9% | 329.5hPa | 2.9V | 04:53:00 | 01:08:46 | 00:00:00 | |
| OE5DXL-15 | 2026-08-31 23:14:19 | 49.37916 | 12.44459 | 101° | 133km/h | 8768m | 4.4m/s | -36.3°C | 20.3% | 330.3hPa | 2.9V | 00:00:00 | 00:00:00 | 00:00:00 | |
| DL6DJ-15 | 2026-08-31 23:14:16 | 49.37937 | 12.44302 | 103° | 135km/h | 8753m | 6.2m/s | -36.2°C | 17.1% | 331.1hPa | 2.9V | 00:00:00 | 00:00:00 | 00:00:00 | |
| DO9HM | 2026-08-31 23:14:14 | 49.37945 | 12.44251 | 105° | 133km/h | 8748m | 4.2m/s | -36.2°C | 16.9% | 331.3hPa | 2.9V | 04:53:00 | 00:00:00 | 00:00:00 | |
| DO3MHA-11 | 2026-08-31 23:14:12 | 49.37969 | 12.44101 | 104° | 135km/h | 8731m | 3.3m/s | -36.1°C | 18.1% | 332.1hPa | 2.9V | 00:00:00 | 01:08:36 | 00:00:00 | |
| OE5DRO-10 | 2026-08-31 23:14:10 | 49.37985 | 12.43997 | 103° | 133km/h | 8722m | 3.1m/s | -36.0°C | 17.7% | 332.5hPa | 2.7V | 00:00:00 | 00:00:00 | 00:00:00 | |
| OE5WHR-10 | 2026-08-31 23:14:08 | 49.38000 | 12.43890 | 103° | 135km/h | 8713m | 5.4m/s | -35.9°C | 17.3% | 332.9hPa | 2.7V | 00:00:00 | 01:08:32 | 00:00:00 | |
| DO3MHA-11 | 2026-08-31 23:14:02 | 49.38048 | 12.43589 | 105° | 130km/h | 8686m | 5.2m/s | -35.7°C | 17.1% | 334.2hPa | 2.7V | 00:00:00 | 01:08:26 | 00:00:00 | |
| SONDE2-11 | 2026-08-31 23:14:00 | 49.38065 | 12.43489 | 103° | 133km/h | 8678m | 4.3m/s | -35.7°C | 14.7% | 334.7hPa | 2.7V | 00:00:00 | 00:00:00 | 00:00:00 | |
| DL6DJ-15 | 2026-08-31 23:13:45 | 49.38171 | 12.42735 | 100° | 131km/h | 8605m | 3.5m/s | -35.0°C | 13.5% | 338.1hPa | 2.7V | 00:00:00 | 00:00:00 | 00:00:00 | |
| OE5WHR-10 | 2026-08-31 23:13:43 | 49.38184 | 12.42634 | 103° | 135km/h | 8594m | 5.6m/s | 0°C | 0% | 0hPa | 2.7V | 00:00:00 | 00:00:00 | 00:00:00 | |
| DO3MHA-11 | 2026-08-31 23:13:42 | 49.38192 | 12.42583 | 105° | 135km/h | 8589m | 4.2m/s | -34.7°C | 15.2% | 338.8hPa | 2.7V | 00:00:00 | 01:08:06 | 00:00:00 | |
| DO9HM | 2026-08-31 23:13:33 | 49.38253 | 12.42173 | 100° | 135km/h | 8552m | 3.8m/s | -34.5°C | 12.5% | 340.7hPa | 2.7V | 04:54:00 | 00:00:00 | 00:00:00 | |
| DO3MHA-11 | 2026-08-31 23:13:32 | 49.38265 | 12.42069 | 101° | 135km/h | 8542m | 4.6m/s | -34.4°C | 14.3% | 341.1hPa | 2.7V | 04:53:00 | 01:07:56 | 00:00:00 | |
| SONDE2-11 | 2026-08-31 23:13:29 | 49.38306 | 12.41754 | 103° | 131km/h | 8510m | 4.5m/s | 0°C | -1.0% | 342.8hPa | 2.7V | 00:00:00 | 00:00:00 | 00:00:00 | |
| DO3MHA-11 | 2026-08-31 23:13:22 | 49.38340 | 12.41562 | 106° | 131km/h | 8490m | 5.8m/s | -34.0°C | 14.8% | 343.7hPa | 2.7V | 00:00:00 | 01:07:46 | 00:00:00 | |
| OE5DXL-15 | 2026-08-31 23:13:19 | 49.38364 | 12.41412 | 103° | 139km/h | 8475m | 6.8m/s | -33.8°C | 15.1% | 344.5hPa | 2.7V | 00:00:00 | 00:00:00 | 00:00:00 | |
| DL6DJ-15 | 2026-08-31 23:13:14 | 49.38397 | 12.41163 | 100° | 130km/h | 8448m | 3.3m/s | -33.7°C | 14.8% | 345.8hPa | 2.7V | 00:00:00 | 00:00:00 | 00:00:00 | |
| OE5DRO-10 | 2026-08-31 23:13:13 | 49.38403 | 12.41112 | 102° | 139km/h | 8443m | 6.6m/s | -33.7°C | 17.3% | 346.0hPa | 2.7V | 00:00:00 | 00:00:00 | 00:00:00 | |
| DO3MHA-11 | 2026-08-31 23:13:12 | 49.38410 | 12.41060 | 101° | 139km/h | 8437m | 5.2m/s | -33.6°C | 17.6% | 346.3hPa | 2.9V | 00:00:00 | 01:07:36 | 00:00:00 | |
| DB0NH | 2026-08-31 23:13:05 | 49.38460 | 12.40686 | 105° | 142km/h | 8403m | 5.8m/s | -33.3°C | 18.1% | 347.9hPa | 2.9V | 00:00:00 | 01:07:29 | 00:00:00 | |
| DO3MHA-11 | 2026-08-31 23:13:02 | 49.38488 | 12.40534 | 105° | 141km/h | 8387m | 5.2m/s | -33.2°C | 18.5% | 348.8hPa | 2.9V | 00:00:00 | 01:07:26 | 00:00:00 | |
| SONDE2-11 | 2026-08-31 23:12:58 | 49.38527 | 12.40216 | 99° | 144km/h | 8356m | 7.1m/s | 0°C | -1.0% | 350.4hPa | 2.9V | 00:00:00 | 00:00:00 | 00:00:00 | |
| DO3MHA-11 | 2026-08-31 23:12:52 | 49.38556 | 12.39995 | 104° | 141km/h | 8335m | 4.9m/s | -32.8°C | 19.4% | 351.3hPa | 2.9V | 00:00:00 | 01:07:16 | 00:00:00 | |
| OE5DXL-15 | 2026-08-31 23:12:49 | 49.38582 | 12.39835 | 104° | 141km/h | 8318m | 6.1m/s | -32.6°C | 19.7% | 352.1hPa | 2.9V | 04:54:00 | 00:00:00 | 00:00:00 | |
| DL6DJ-15 | 2026-08-31 23:12:43 | 49.38630 | 12.39521 | 102° | 139km/h | 8281m | 4.5m/s | -32.4°C | 18.3% | 354.0hPa | 2.9V | 00:00:00 | 00:00:00 | 00:00:00 | |
| DO3MHA-11 | 2026-08-31 23:12:42 | 49.38637 | 12.39467 | 102° | 141km/h | 8276m | 4.8m/s | -32.3°C | 20.7% | 354.3hPa | 2.9V | 04:54:00 | 01:07:06 | 00:00:00 | |
| OE5WHR-10 | 2026-08-31 23:12:40 | 49.38651 | 12.39357 | 102° | 142km/h | 8266m | 5.4m/s | 0°C | 0% | 0hPa | 2.9V | 00:00:00 | 00:00:00 | 00:00:00 | |
| OE5DRO-10 | 2026-08-31 23:12:35 | 49.38692 | 12.39088 | 105° | 141km/h | 8234m | 5.2m/s | -32.0°C | 21.1% | 356.3hPa | 2.9V | 00:00:00 | 00:00:00 | 00:00:00 | |
| DO9HM | 2026-08-31 23:12:32 | 49.38708 | 12.38989 | 104° | 131km/h | 8225m | 6.2m/s | -32.0°C | 19.4% | 356.9hPa | 2.9V | 04:55:00 | 00:00:00 | 00:00:00 | |
| SONDE2-11 | 2026-08-31 23:12:27 | 49.38745 | 12.38665 | 99° | 142km/h | 8195m | 6.2m/s | 0°C | -1.0% | -1.0hPa | 2.9V | 00:00:00 | 00:00:00 | 00:00:00 | |
| DO3MHA-11 | 2026-08-31 23:12:22 | 49.38787 | 12.38402 | 106° | 144km/h | 8172m | 6.1m/s | -31.5°C | 20.1% | 359.5hPa | 2.9V | 00:00:00 | 01:06:46 | 00:00:00 | |
| OE5DXL-15 | 2026-08-31 23:12:19 | 49.38809 | 12.38240 | 100° | 137km/h | 8156m | 6.4m/s | -31.4°C | 19.0% | 360.3hPa | 2.9V | 00:00:00 | 00:00:00 | 00:00:00 | |
| OE5DRO-10 | 2026-08-31 23:12:16 | 49.38825 | 12.38074 | 100° | 137km/h | 8140m | 6.5m/s | -31.3°C | 18.0% | 361.2hPa | 2.9V | 04:55:00 | 00:00:00 | 00:00:00 | |
| DO3MHA-11 | 2026-08-31 23:12:12 | 49.38858 | 12.37854 | 106° | 137km/h | 8117m | 4.1m/s | -31.1°C | 16.1% | 362.2hPa | 2.9V | 00:00:00 | 01:06:36 | 00:00:00 | |
| DO9HM | 2026-08-31 23:12:11 | 49.38868 | 12.37801 | 107° | 142km/h | 8112m | 6.1m/s | -31.1°C | 14.2% | 362.5hPa | 2.9V | 04:55:00 | 00:00:00 | 00:00:00 | |
| DB0NH | 2026-08-31 23:12:06 | 49.38907 | 12.37539 | 102° | 137km/h | 8088m | 6.2m/s | -30.8°C | 15.0% | 363.8hPa | 2.9V | 00:00:00 | 01:06:30 | 00:00:00 | |
| DO3MHA-11 | 2026-08-31 23:12:02 | 49.38937 | 12.37339 | 104° | 131km/h | 8066m | 4.4m/s | -30.6°C | 15.0% | 364.9hPa | 2.9V | 00:00:00 | 01:06:26 | 00:00:00 | |
| OE5DRO-10 | 2026-08-31 23:11:57 | 49.38975 | 12.37088 | 103° | 139km/h | 8039m | 6.2m/s | -30.4°C | 14.4% | 366.2hPa | 2.9V | 00:00:00 | 00:00:00 | 00:00:00 | |
| DO3MHA-11 | 2026-08-31 23:11:52 | 49.39003 | 12.36837 | 99° | 144km/h | 8014m | 4.7m/s | -30.1°C | 13.9% | 367.6hPa | 2.9V | 04:55:00 | 01:06:16 | 00:00:00 | |
| DO9HM | 2026-08-31 23:11:50 | 49.39009 | 12.36784 | 100° | 139km/h | 8009m | 5.7m/s | -30.1°C | 12.1% | 367.9hPa | 2.9V | 04:56:00 | 00:00:00 | 00:00:00 | |
| OE5DXL-15 | 2026-08-31 23:11:49 | 49.39021 | 12.36677 | 102° | 137km/h | 7998m | 6.2m/s | -30.0°C | 13.3% | 368.6hPa | 2.9V | 00:00:00 | 00:00:00 | 00:00:00 | |
| DO3MHA-11 | 2026-08-31 23:11:42 | 49.39074 | 12.36291 | 102° | 133km/h | 7959m | 6.8m/s | -29.7°C | 11.9% | 370.5hPa | 2.9V | 00:00:00 | 01:06:06 | 00:00:00 | |
| DL6DJ-15 | 2026-08-31 23:11:41 | 49.39087 | 12.36191 | 101° | 130km/h | 7948m | 7.6m/s | -29.6°C | 10.1% | 371.1hPa | 2.7V | 00:00:00 | 00:00:00 | 00:00:00 | |
| OE5DRO-10 | 2026-08-31 23:11:38 | 49.39100 | 12.36091 | 101° | 133km/h | 7936m | 4.8m/s | -29.5°C | 11.4% | 371.8hPa | 2.7V | 00:00:00 | 00:00:00 | 00:00:00 | |
| DB0NH | 2026-08-31 23:11:36 | 49.39110 | 12.35990 | 99° | 89km/h | 7925m | 4.5m/s | -29.4°C | 11.3% | 372.2hPa | 2.7V | 00:00:00 | 01:06:00 | 00:00:00 | |
| DO3MHA-11 | 2026-08-31 23:11:32 | 49.39129 | 12.35784 | 98° | 137km/h | 7904m | 5.3m/s | -29.2°C | 11.2% | 373.3hPa | 2.7V | 00:00:00 | 01:05:56 | 00:00:00 | |
| DO9HM | 2026-08-31 23:11:30 | 49.39134 | 12.35731 | 99° | 139km/h | 7898m | 6.8m/s | -29.2°C | 9.9% | 373.8hPa | 2.7V | 04:56:00 | 00:00:00 | 00:00:00 | |
| DO3MHA-11 | 2026-08-31 23:11:22 | 49.39190 | 12.35264 | 103° | 141km/h | 7838m | 5.7m/s | -28.7°C | 11.1% | 376.9hPa | 2.7V | 00:00:00 | 01:05:46 | 00:00:00 | |
| OE5DXL-15 | 2026-08-31 23:11:19 | 49.39209 | 12.35106 | 101° | 135km/h | 7820m | 4.3m/s | -28.6°C | 10.5% | 377.8hPa | 2.7V | 00:00:00 | 00:00:00 | 00:00:00 | |
| OE5DRO-10 | 2026-08-31 23:11:15 | 49.39234 | 12.34888 | 100° | 137km/h | 7796m | 7.3m/s | -28.4°C | 9.9% | 379.0hPa | 2.7V | 00:00:00 | 00:00:00 | 00:00:00 | |
| DO3MHA-11 | 2026-08-31 23:11:12 | 49.39255 | 12.34728 | 104° | 137km/h | 7781m | 6.7m/s | -28.2°C | 9.6% | 379.8hPa | 2.9V | 00:00:00 | 01:05:36 | 00:00:00 | |
| DL6DJ-15 | 2026-08-31 23:11:10 | 49.39282 | 12.34570 | 105° | 141km/h | 7763m | 5.1m/s | -28.1°C | 8.4% | 380.9hPa | 2.7V | 00:00:00 | 00:00:00 | 00:00:00 | |
| DO9HM | 2026-08-31 23:11:07 | 49.39292 | 12.34518 | 107° | 139km/h | 7758m | 4.1m/s | -28.1°C | 8.5% | 381.2hPa | 2.7V | 04:56:00 | 00:00:00 | 00:00:00 | |
| DO3MHA-11 | 2026-08-31 23:11:02 | 49.39333 | 12.34218 | 99° | 130km/h | 7726m | 5.1m/s | -27.7°C | 9.3% | 382.8hPa | 2.7V | 04:56:00 | 01:05:26 | 00:00:00 | |
| DO3MHA-11 | 2026-08-31 23:10:52 | 49.39393 | 12.33722 | 103° | 135km/h | 7671m | 6.2m/s | -27.4°C | 9.1% | 385.7hPa | 2.7V | 00:00:00 | 01:05:16 | 00:00:00 | |
| OE5DXL-15 | 2026-08-31 23:10:49 | 49.39417 | 12.33565 | 102° | 124km/h | 7650m | 5.1m/s | -27.4°C | 9.4% | 386.8hPa | 2.7V | 00:00:00 | 00:00:00 | 00:00:00 | |
| DO9HM | 2026-08-31 23:10:47 | 49.39423 | 12.33515 | 103° | 130km/h | 7644m | 6.5m/s | -27.4°C | 8.4% | 387.2hPa | 2.7V | 04:57:00 | 00:00:00 | 00:00:00 | |
| DO3MHA-11 | 2026-08-31 23:10:42 | 49.39453 | 12.33211 | 96° | 124km/h | 7608m | 4.2m/s | -27.2°C | 9.8% | 389.1hPa | 2.7V | 00:00:00 | 01:05:06 | 00:00:00 | |
| DL6DJ-15 | 2026-08-31 23:10:39 | 49.39471 | 12.33018 | 103° | 119km/h | 7586m | 6.4m/s | -27.1°C | 8.6% | 390.3hPa | 2.9V | 00:00:00 | 00:00:00 | 00:00:00 | |
| DO3MHA-11 | 2026-08-31 23:10:32 | 49.39523 | 12.32745 | 103° | 120km/h | 7547m | 8.2m/s | -26.6°C | 9.5% | 392.4hPa | 2.9V | 00:00:00 | 01:04:56 | 00:00:00 | |
| NBG1-10 | 2026-08-31 23:10:27 | 49.39553 | 12.32516 | 104° | 122km/h | 7517m | 3.7m/s | -26.4°C | 9.5% | 394.0hPa | 2.9V | 04:56:00 | 01:04:51 | 00:00:00 | |
| DO9HM | 2026-08-31 23:10:26 | 49.39553 | 12.32516 | 104° | 117km/h | 7517m | 3.8m/s | -26.4°C | 8.4% | 394.1hPa | 2.9V | 04:57:00 | 00:00:00 | 00:00:00 | |
| DO3MHA-11 | 2026-08-31 23:10:22 | 49.39593 | 12.32290 | 108° | 122km/h | 7488m | 7.2m/s | -26.2°C | 9.9% | 395.6hPa | 2.9V | 00:00:00 | 01:04:46 | 00:00:00 | |
| OE5DXL-15 | 2026-08-31 23:10:19 | 49.39620 | 12.32152 | 107° | 124km/h | 7472m | 7.3m/s | -26.1°C | 10.0% | 396.5hPa | 2.9V | 04:57:00 | 00:00:00 | 00:00:00 | |
| DO3MHA-11 | 2026-08-31 23:10:12 | 49.39678 | 12.31836 | 103° | 126km/h | 7431m | 5.3m/s | -25.8°C | 10.5% | 398.6hPa | 2.9V | 04:57:00 | 01:04:36 | 00:00:00 | |
| OE5DRO-10 | 2026-08-31 23:10:09 | 49.39700 | 12.31687 | 103° | 124km/h | 7416m | 4.3m/s | -25.7°C | 10.5% | 399.5hPa | 2.9V | 00:00:00 | 00:00:00 | 00:00:00 | |
| DL6DJ-15 | 2026-08-31 23:10:07 | 49.39713 | 12.31591 | 101° | 122km/h | 7408m | 5.7m/s | -25.7°C | 9.4% | 400.0hPa | 2.9V | 00:00:00 | 00:00:00 | 00:00:00 | |
| DO9HM | 2026-08-31 23:10:06 | 49.39713 | 12.31591 | 103° | 124km/h | 7408m | 5.7m/s | -25.7°C | 9.4% | 400.0hPa | 2.9V | 04:58:00 | 00:00:00 | 00:00:00 | |
| DO3MHA-11 | 2026-08-31 23:10:02 | 49.39750 | 12.31361 | 107° | 128km/h | 7378m | 7.2m/s | -25.4°C | 10.1% | 401.5hPa | 2.9V | 00:00:00 | 01:04:26 | 00:00:00 | |
| DF2AP-13 | 2026-08-31 23:09:56 | 49.39806 | 12.31073 | 107° | 119km/h | 7340m | 7.0m/s | -25.3°C | 8.2% | 403.7hPa | 2.9V | 00:00:00 | 01:04:20 | 00:00:00 | |
| DO3MHA-11 | 2026-08-31 23:09:52 | 49.39842 | 12.30885 | 106° | 111km/h | 7316m | 7.9m/s | -25.1°C | 7.5% | 405.1hPa | 2.9V | 00:00:00 | 01:04:16 | 00:00:00 | |
| OE5DRO-10 | 2026-08-31 23:09:50 | 49.39856 | 12.30798 | 105° | 117km/h | 7305m | 5.0m/s | -25.0°C | 6.9% | 405.7hPa | 2.9V | 04:57:00 | 00:00:00 | 00:00:00 | |
| NBG1-10 | 2026-08-31 23:09:49 | 49.39863 | 12.30756 | 104° | 117km/h | 7298m | 8.0m/s | -25.0°C | 6.9% | 406.1hPa | 2.9V | 00:00:00 | 01:04:13 | 00:00:00 | |
| DO9HM | 2026-08-31 23:09:47 | 49.39877 | 12.30673 | 107° | 110km/h | 7287m | 4.3m/s | -24.9°C | 6.1% | 406.8hPa | 2.9V | 04:58:00 | 00:00:00 | 00:00:00 | |
| OE3JTB-15 | 2026-08-31 23:09:43 | 49.39912 | 12.30512 | 111° | 111km/h | 7266m | 5.6m/s | 0°C | 0% | 0hPa | 2.9V | 00:00:00 | 01:04:07 | 00:00:00 | |
| DO3MHA-11 | 2026-08-31 23:09:42 | 49.39921 | 12.30471 | 110° | 119km/h | 7262m | 4.0m/s | -24.7°C | 6.7% | 408.1hPa | 2.9V | 00:00:00 | 01:04:06 | 00:00:00 | |
| DL6DJ-15 | 2026-08-31 23:09:36 | 49.39967 | 12.30208 | 100° | 119km/h | 7230m | 6.3m/s | -24.6°C | 5.8% | 410.1hPa | 2.9V | 00:00:00 | 00:00:00 | 00:00:00 | |
| DO3MHA-11 | 2026-08-31 23:09:32 | 49.39994 | 12.30021 | 104° | 120km/h | 7205m | 7.0m/s | -24.4°C | 6.4% | 411.4hPa | 2.9V | 00:00:00 | 01:03:56 | 00:00:00 | |
| OE5DRO-10 | 2026-08-31 23:09:30 | 49.40009 | 12.29926 | 105° | 120km/h | 7193m | 6.4m/s | -24.4°C | 6.4% | 412.0hPa | 2.9V | 00:00:00 | 00:00:00 | 00:00:00 | |
| DO9HM | 2026-08-31 23:09:26 | 49.40031 | 12.29792 | 103° | 115km/h | 7174m | 5.6m/s | -24.4°C | 5.4% | 413.2hPa | 2.7V | 04:58:00 | 00:00:00 | 00:00:00 | |
| DO3MHA-11 | 2026-08-31 23:09:22 | 49.40059 | 12.29566 | 102° | 126km/h | 7142m | 6.6m/s | -24.1°C | 5.9% | 414.8hPa | 2.7V | 04:58:00 | 01:03:46 | 00:00:00 | |
| OE5DXL-15 | 2026-08-31 23:09:19 | 49.40081 | 12.29422 | 106° | 120km/h | 7127m | 6.7m/s | -24.2°C | 5.8% | 415.8hPa | 2.7V | 00:00:00 | 00:00:00 | 00:00:00 | |
| DO3MHA-11 | 2026-08-31 23:09:12 | 49.40140 | 12.29097 | 102° | 119km/h | 7090m | 6.5m/s | -24.2°C | 5.7% | 417.7hPa | 2.9V | 00:00:00 | 01:03:36 | 00:00:00 | |
| OE5DRO-10 | 2026-08-31 23:09:11 | 49.40145 | 12.29052 | 99° | 119km/h | 7083m | 6.9m/s | -24.2°C | 5.6% | 418.2hPa | 2.9V | 00:00:00 | 00:00:00 | 00:00:00 | |
| DO9HM | 2026-08-31 23:09:06 | 49.40162 | 12.28867 | 100° | 120km/h | 7057m | 5.4m/s | -24.1°C | 4.7% | 419.7hPa | 2.9V | 04:58:00 | 00:00:00 | 00:00:00 | |
| DL6DJ-15 | 2026-08-31 23:09:05 | 49.40174 | 12.28777 | 103° | 117km/h | 7046m | 6.6m/s | -24.1°C | 4.6% | 420.3hPa | 2.9V | 00:00:00 | 00:00:00 | 00:00:00 | |
| DO3MHA-11 | 2026-08-31 23:09:02 | 49.40198 | 12.28647 | 107° | 117km/h | 7030m | 5.9m/s | -24.0°C | 5.1% | 421.2hPa | 2.9V | 00:00:00 | 01:03:26 | 00:00:00 | |
| DF2AP-13 | 2026-08-31 23:08:53 | 49.40256 | 12.28248 | 105° | 106km/h | 6983m | 5.8m/s | -23.9°C | 4.4% | 423.9hPa | 2.9V | 00:00:00 | 01:03:17 | 00:00:00 | |
| DO3MHA-11 | 2026-08-31 23:08:52 | 49.40263 | 12.28203 | 105° | 113km/h | 6978m | 4.3m/s | -23.9°C | 4.4% | 424.2hPa | 2.9V | 00:00:00 | 01:03:16 | 00:00:00 | |
| OE5DRO-10 | 2026-08-31 23:08:51 | 49.40271 | 12.28158 | 106° | 111km/h | 6974m | 4.7m/s | -23.9°C | 4.3% | 424.5hPa | 2.9V | 00:00:00 | 00:00:00 | 00:00:00 | |
| OE5DXL-15 | 2026-08-31 23:08:49 | 49.40287 | 12.28070 | 106° | 110km/h | 6964m | 5.3m/s | -23.8°C | 4.2% | 425.0hPa | 2.9V | 00:00:00 | 00:00:00 | 00:00:00 | |
| DO9HM | 2026-08-31 23:08:45 | 49.40308 | 12.27940 | 103° | 111km/h | 6949m | 3.7m/s | -23.8°C | 3.4% | 425.9hPa | 2.9V | 04:58:00 | 00:00:00 | 00:00:00 | |
| NBG1-10 | 2026-08-31 23:08:43 | 49.40326 | 12.27818 | 104° | 108km/h | 6936m | 4.0m/s | -23.7°C | 3.8% | 426.7hPa | 2.9V | 00:00:00 | 01:03:07 | 00:00:00 | |
| DO3MHA-11 | 2026-08-31 23:08:42 | 49.40333 | 12.27779 | 106° | 108km/h | 6933m | 2.4m/s | -23.7°C | 3.8% | 426.9hPa | 2.9V | 00:00:00 | 01:03:06 | 00:00:00 | |
| DL6DJ-15 | 2026-08-31 23:08:34 | 49.40387 | 12.27454 | 102° | 111km/h | 6900m | 4.4m/s | -23.6°C | 3.3% | 428.8hPa | 2.9V | 00:00:00 | 00:00:00 | 00:00:00 | |
| DO8TBO-1 | 2026-08-31 23:08:33 | 49.40392 | 12.27411 | 102° | 104km/h | 6896m | 3.2m/s | -23.5°C | 3.9% | 429.0hPa | 2.9V | 00:00:00 | 01:02:57 | 00:00:00 | |
| DO3MHA-11 | 2026-08-31 23:08:32 | 49.40398 | 12.27369 | 102° | 108km/h | 6893m | 4.6m/s | -23.5°C | 4.0% | 429.3hPa | 2.9V | 04:58:00 | 01:02:56 | 00:00:00 | |
| DO9HM | 2026-08-31 23:08:25 | 49.40435 | 12.27124 | 105° | 106km/h | 6869m | 3.8m/s | -23.4°C | 3.5% | 430.7hPa | 2.9V | 04:59:00 | 00:00:00 | 00:00:00 | |
| DO3MHA-11 | 2026-08-31 23:08:22 | 49.40462 | 12.26963 | 105° | 106km/h | 6854m | 4.5m/s | -23.3°C | 4.3% | 431.6hPa | 2.9V | 00:00:00 | 01:02:46 | 00:00:00 | |
| OE5DXL-15 | 2026-08-31 23:08:19 | 49.40482 | 12.26843 | 106° | 106km/h | 6843m | 4.2m/s | -23.3°C | 4.4% | 432.3hPa | 2.9V | 00:00:00 | 00:00:00 | 00:00:00 | |
| DO3MHA-11 | 2026-08-31 23:08:12 | 49.40529 | 12.26565 | 104° | 104km/h | 6817m | 3.9m/s | -23.2°C | 4.5% | 433.8hPa | 2.9V | 00:00:00 | 01:02:36 | 00:00:00 | |
| NBG1-10 | 2026-08-31 23:08:10 | 49.40541 | 12.26485 | 104° | 106km/h | 6811m | 3.9m/s | -23.2°C | 4.4% | 434.2hPa | 2.9V | 00:00:00 | 01:02:34 | 00:00:00 | |
| DO9HM | 2026-08-31 23:08:04 | 49.40573 | 12.26288 | 106° | 106km/h | 6789m | 4.1m/s | -23.2°C | 3.9% | 435.6hPa | 2.9V | 04:59:00 | 00:00:00 | 00:00:00 | |
| DL6DJ-15 | 2026-08-31 23:08:03 | 49.40588 | 12.26210 | 107° | 104km/h | 6782m | 4.3m/s | -23.1°C | 3.9% | 436.0hPa | 2.9V | 00:00:00 | 00:00:00 | 00:00:00 | |
| DO3MHA-11 | 2026-08-31 23:08:02 | 49.40596 | 12.26171 | 108° | 102km/h | 6778m | 4.5m/s | -23.0°C | 4.5% | 436.1hPa | 2.9V | 00:00:00 | 01:02:26 | 00:00:00 | |
| DO8TBO-1 | 2026-08-31 23:07:56 | 49.40641 | 12.25950 | 107° | 97km/h | 6754m | 3.4m/s | -22.9°C | 4.7% | 437.6hPa | 2.9V | 04:59:00 | 01:02:20 | 00:00:00 | |
| DF2AP-13 | 2026-08-31 23:07:54 | 49.40655 | 12.25870 | 103° | 102km/h | 6746m | 4.0m/s | -22.9°C | 4.7% | 438.1hPa | 2.9V | 04:59:00 | 01:02:18 | 00:00:00 | |
| DO3MHA-11 | 2026-08-31 23:07:52 | 49.40667 | 12.25786 | 102° | 110km/h | 6739m | 4.4m/s | -22.8°C | 4.8% | 438.5hPa | 2.9V | 00:00:00 | 01:02:16 | 00:00:00 | |
| OE5DXL-15 | 2026-08-31 23:07:49 | 49.40682 | 12.25658 | 101° | 99km/h | 6729m | 4.3m/s | -22.9°C | 5.2% | 439.0hPa | 2.9V | 04:59:00 | 00:00:00 | 00:00:00 | |
| OE3JTB-15 | 2026-08-31 23:07:45 | 49.40706 | 12.25494 | 104° | 95km/h | 6703m | 7.5m/s | 0°C | 0% | 0hPa | 2.9V | 00:00:00 | 00:00:00 | 00:00:00 | |
| DO9HM | 2026-08-31 23:07:44 | 49.40706 | 12.25494 | 105° | 111km/h | 6703m | 7.5m/s | -22.8°C | 4.7% | 440.5hPa | 2.9V | 04:59:00 | 00:00:00 | 00:00:00 | |
| DO3MHA-11 | 2026-08-31 23:07:42 | 49.40726 | 12.25372 | 103° | 100km/h | 6685m | 4.2m/s | -22.8°C | 5.7% | 441.7hPa | 2.9V | 04:59:00 | 01:02:06 | 00:00:00 | |
| OE5DRO-10 | 2026-08-31 23:07:40 | 49.40737 | 12.25294 | 103° | 88km/h | 6674m | 7.0m/s | 0°C | 0% | 0hPa | 2.7V | 00:00:00 | 00:00:00 | 00:00:00 | |
| NBG1-10 | 2026-08-31 23:07:37 | 49.40754 | 12.25177 | 103° | 84km/h | 6654m | 5.4m/s | -22.6°C | 5.9% | 443.7hPa | 2.7V | 00:00:00 | 01:02:01 | 00:00:00 | |
| DO3MHA-11 | 2026-08-31 23:07:32 | 49.40778 | 12.24990 | 99° | 91km/h | 6627m | 6.8m/s | -22.5°C | 6.1% | 445.2hPa | 2.9V | 00:00:00 | 01:01:56 | 00:00:00 | |
| DF2AP-13 | 2026-08-31 23:07:24 | 49.40809 | 12.24710 | 104° | 80km/h | 6589m | 5.2m/s | -22.3°C | 6.2% | 447.6hPa | 2.9V | 00:00:00 | 01:01:48 | 00:00:00 | |
| DO3MHA-11 | 2026-08-31 23:07:22 | 49.40819 | 12.24642 | 103° | 77km/h | 6578m | 4.8m/s | -22.2°C | 6.2% | 448.3hPa | 2.9V | 00:00:00 | 01:01:46 | 00:00:00 | |
| DO8TBO-1 | 2026-08-31 23:07:21 | 49.40823 | 12.24610 | 101° | 78km/h | 6574m | 3.2m/s | -22.2°C | 6.2% | 448.5hPa | 2.9V | 00:00:00 | 01:01:45 | 00:00:00 | |
| OE5DXL-15 | 2026-08-31 23:07:19 | 49.40832 | 12.24549 | 104° | 80km/h | 6564m | 5.7m/s | -22.1°C | 6.2% | 449.0hPa | 2.9V | 00:00:00 | 00:00:00 | 00:00:00 | |
| OE5DRO-10 | 2026-08-31 23:07:17 | 49.40840 | 12.24494 | 105° | 78km/h | 6557m | 4.0m/s | 0°C | 0% | 0hPa | 2.9V | 00:00:00 | 00:00:00 | 00:00:00 | |
| DO3MHA-11 | 2026-08-31 23:07:12 | 49.40860 | 12.24351 | 100° | 78km/h | 6533m | 6.6m/s | -22.0°C | 7.2% | 450.8hPa | 2.9V | 00:00:00 | 01:01:36 | 00:00:00 | |
| NBG1-10 | 2026-08-31 23:07:04 | 49.40895 | 12.24112 | 105° | 84km/h | 6483m | 4.8m/s | -21.9°C | 10.0% | 453.9hPa | 2.9V | 00:00:00 | 01:01:28 | 00:00:00 | |
| DO9HM | 2026-08-31 23:07:03 | 49.40895 | 12.24112 | 106° | 78km/h | 6483m | 4.9m/s | -22.0°C | 9.2% | 453.9hPa | 2.9V | 05:00:00 | 00:00:00 | 00:00:00 | |
| DO3MHA-11 | 2026-08-31 23:07:02 | 49.40906 | 12.24053 | 108° | 86km/h | 6472m | 4.4m/s | -21.9°C | 9.3% | 454.6hPa | 2.9V | 00:00:00 | 01:01:26 | 00:00:00 | |
| DL6DJ-15 | 2026-08-31 23:07:01 | 49.40912 | 12.24024 | 106° | 80km/h | 6468m | 4.3m/s | -21.9°C | 7.7% | 454.9hPa | 2.9V | 00:00:00 | 00:00:00 | 00:00:00 | |
| OE5DRO-10 | 2026-08-31 23:06:58 | 49.40927 | 12.23927 | 101° | 86km/h | 6456m | 4.0m/s | 0°C | 0% | 0hPa | 2.9V | 00:00:00 | 00:00:00 | 00:00:00 | |
| DF2AP-13 | 2026-08-31 23:06:54 | 49.40942 | 12.23792 | 101° | 80km/h | 6438m | 5.4m/s | 0°C | 0% | 0hPa | 2.9V | 00:00:00 | 01:01:18 | 00:00:00 | |
| DO3MHA-11 | 2026-08-31 23:06:52 | 49.40951 | 12.23731 | 105° | 84km/h | 6429m | 2.9m/s | -21.5°C | 6.5% | 457.2hPa | 2.9V | 00:00:00 | 01:01:16 | 00:00:00 | |
| DO8TBO-1 | 2026-08-31 23:06:51 | 49.40956 | 12.23701 | 105° | 84km/h | 6425m | 5.0m/s | -21.5°C | 6.5% | 457.4hPa | 2.9V | 05:00:00 | 01:01:15 | 00:00:00 | |
| DO9HM | 2026-08-31 23:06:43 | 49.40992 | 12.23444 | 103° | 84km/h | 6393m | 3.7m/s | -21.2°C | 5.7% | 459.5hPa | 2.9V | 05:01:00 | 00:00:00 | 00:00:00 | |
| DO3MHA-11 | 2026-08-31 23:06:42 | 49.40996 | 12.23412 | 102° | 84km/h | 6389m | 3.8m/s | -21.2°C | 6.4% | 459.7hPa | 2.9V | 05:00:00 | 01:01:06 | 00:00:00 | |
| OE5DRO-10 | 2026-08-31 23:06:39 | 49.41008 | 12.23314 | 102° | 82km/h | 6378m | 4.5m/s | 0°C | 0% | 0hPa | 2.7V | 00:00:00 | 00:00:00 | 00:00:00 | |
| DO3MHA-11 | 2026-08-31 23:06:32 | 49.41030 | 12.23095 | 99° | 86km/h | 6352m | 2.5m/s | -20.8°C | 6.3% | 462.0hPa | 2.7V | 00:00:00 | 01:00:56 | 00:00:00 | |
| NBG1-10 | 2026-08-31 23:06:31 | 49.41033 | 12.23064 | 98° | 84km/h | 6349m | 3.7m/s | -20.8°C | 6.3% | 462.2hPa | 2.7V | 00:00:00 | 01:00:55 | 00:00:00 | |
| DL6DJ-15 | 2026-08-31 23:06:30 | 49.41036 | 12.23033 | 97° | 80km/h | 6345m | 4.0m/s | -20.8°C | 5.7% | 462.5hPa | 2.7V | 00:00:00 | 00:00:00 | 00:00:00 | |
| DO3MHA-11 | 2026-08-31 23:06:22 | 49.41062 | 12.22765 | 99° | 78km/h | 6317m | 4.7m/s | -20.5°C | 6.3% | 464.3hPa | 2.7V | 00:00:00 | 01:00:46 | 00:00:00 | |
| DO8TBO-1 | 2026-08-31 23:06:20 | 49.41067 | 12.22706 | 96° | 84km/h | 6309m | 3.3m/s | -20.4°C | 6.3% | 464.8hPa | 2.7V | 00:00:00 | 01:00:44 | 00:00:00 | |
| OE5DXL-15 | 2026-08-31 23:06:19 | 49.41068 | 12.22677 | 96° | 84km/h | 6305m | 4.4m/s | -20.3°C | 6.3% | 465.0hPa | 2.7V | 05:01:00 | 00:00:00 | 00:00:00 | |
| DO3MHA-11 | 2026-08-31 23:06:12 | 49.41085 | 12.22458 | 99° | 86km/h | 6275m | 3.2m/s | -20.1°C | 6.7% | 466.9hPa | 2.9V | 00:00:00 | 01:00:36 | 00:00:00 | |
| DO3MHA-11 | 2026-08-31 23:06:02 | 49.41105 | 12.22129 | 104° | 88km/h | 6237m | 4.1m/s | -19.8°C | 7.1% | 469.3hPa | 2.9V | 00:00:00 | 01:00:26 | 00:00:00 | |
| DL6DJ-15 | 2026-08-31 23:05:59 | 49.41121 | 12.22034 | 105° | 84km/h | 6227m | 3.0m/s | -19.8°C | 0% | 470.0hPa | 2.9V | 00:00:00 | 00:00:00 | 00:00:00 | |
| DO3MHA-11 | 2026-08-31 23:05:52 | 49.41155 | 12.21801 | 102° | 82km/h | 6195m | 6.8m/s | -19.5°C | 7.2% | 472.0hPa | 2.9V | 00:00:00 | 01:00:16 | 00:00:00 | |
| NBG1-10 | 2026-08-31 23:05:50 | 49.41161 | 12.21741 | 98° | 82km/h | 6182m | 5.9m/s | -19.5°C | 7.5% | 472.8hPa | 2.9V | 00:00:00 | 01:00:14 | 00:00:00 | |
| OE5DXL-15 | 2026-08-31 23:05:49 | 49.41163 | 12.21711 | 94° | 84km/h | 6177m | 4.3m/s | -19.4°C | 7.6% | 473.2hPa | 2.9V | 00:00:00 | 00:00:00 | 00:00:00 | |
| DF2AP-13 | 2026-08-31 23:05:45 | 49.41169 | 12.21587 | 97° | 84km/h | 6154m | 4.7m/s | 0°C | 0% | 0hPa | 2.9V | 00:00:00 | 01:00:09 | 00:00:00 | |
| OE5DRO-10 | 2026-08-31 23:05:43 | 49.41174 | 12.21519 | 98° | 88km/h | 6144m | 5.5m/s | 0°C | 0% | 0hPa | 2.9V | 00:00:00 | 00:00:00 | 00:00:00 | |
| DO3MHA-11 | 2026-08-31 23:05:42 | 49.41177 | 12.21485 | 97° | 82km/h | 6139m | 4.2m/s | -19.2°C | 8.2% | 475.7hPa | 2.9V | 05:01:00 | 01:00:06 | 00:00:00 | |
| DO9HM | 2026-08-31 23:05:41 | 49.41177 | 12.21485 | 98° | 88km/h | 6139m | 4.2m/s | -19.3°C | 7.6% | 475.7hPa | 2.7V | 00:00:00 | 00:00:00 | 00:00:00 | |
| OE3JTB-15 | 2026-08-31 23:05:38 | 49.41185 | 12.21355 | 95° | 82km/h | 6123m | 4.5m/s | 0°C | 0% | 0hPa | 2.7V | 00:00:00 | 00:00:00 | 00:00:00 | |
| DO3MHA-11 | 2026-08-31 23:05:32 | 49.41199 | 12.21171 | 99° | 89km/h | 6098m | 3.6m/s | -18.9°C | 8.7% | 478.3hPa | 2.7V | 00:00:00 | 00:59:56 | 00:00:00 | |
| DL6DJ-15 | 2026-08-31 23:05:28 | 49.41209 | 12.21037 | 96° | 91km/h | 6082m | 4.2m/s | -18.9°C | 8.4% | 479.3hPa | 2.7V | 00:00:00 | 00:00:00 | 00:00:00 | |
| DO3MHA-11 | 2026-08-31 23:05:22 | 49.41220 | 12.20824 | 97° | 77km/h | 6060m | 5.1m/s | -18.6°C | 9.5% | 480.6hPa | 2.7V | 00:00:00 | 00:59:46 | 00:00:00 | |
| DO8TBO-1 | 2026-08-31 23:05:20 | 49.41226 | 12.20767 | 102° | 82km/h | 6048m | 5.7m/s | -18.5°C | 9.3% | 481.3hPa | 2.7V | 00:00:00 | 00:59:44 | 00:00:00 | |
| OE5DXL-15 | 2026-08-31 23:05:19 | 49.41230 | 12.20740 | 104° | 82km/h | 6041m | 7.6m/s | -18.5°C | 9.3% | 481.7hPa | 2.9V | 00:00:00 | 00:00:00 | 00:00:00 | |
| DO9HM | 2026-08-31 23:05:18 | 49.41230 | 12.20740 | 105° | 71km/h | 6041m | 7.6m/s | -18.5°C | 8.7% | 481.8hPa | 2.9V | 00:00:00 | 00:00:00 | 00:00:00 | |
| NBG1-10 | 2026-08-31 23:05:17 | 49.41239 | 12.20684 | 104° | 82km/h | 6030m | 3.4m/s | -18.4°C | 9.5% | 482.5hPa | 2.9V | 00:00:00 | 00:59:41 | 00:00:00 | |
| DF2AP-13 | 2026-08-31 23:05:15 | 49.41248 | 12.20626 | 102° | 82km/h | 6020m | 6.6m/s | 0°C | 0% | 0hPa | 2.9V | 00:00:00 | 00:59:39 | 00:00:00 | |
| DO3MHA-11 | 2026-08-31 23:05:12 | 49.41259 | 12.20532 | 101° | 84km/h | 6000m | 6.3m/s | -18.1°C | 9.6% | 484.4hPa | 2.9V | 00:00:00 | 00:59:36 | 00:00:00 | |
| DO3MHA-11 | 2026-08-31 23:05:02 | 49.41281 | 12.20211 | 95° | 82km/h | 5948m | 5.1m/s | -17.8°C | 11.5% | 487.8hPa | 2.9V | 00:00:00 | 00:59:26 | 00:00:00 | |
| DL6DJ-15 | 2026-08-31 23:04:57 | 49.41294 | 12.20018 | 97° | 82km/h | 5925m | 4.2m/s | -17.6°C | 10.9% | 489.4hPa | 2.9V | 00:00:00 | 00:00:00 | 00:00:00 | |
| DO3MHA-11 | 2026-08-31 23:04:52 | 49.41304 | 12.19892 | 97° | 82km/h | 5911m | 2.2m/s | -17.5°C | 11.5% | 490.3hPa | 2.9V | 00:00:00 | 00:59:16 | 00:00:00 | |
| DO8TBO-1 | 2026-08-31 23:04:50 | 49.41309 | 12.19827 | 94° | 82km/h | 5905m | 3.8m/s | -17.4°C | 11.4% | 490.7hPa | 2.9V | 00:00:00 | 00:59:14 | 00:00:00 | |
| OE5DXL-15 | 2026-08-31 23:04:49 | 49.41310 | 12.19793 | 93° | 82km/h | 5901m | 3.1m/s | -17.4°C | 11.4% | 491.0hPa | 2.9V | 00:00:00 | 00:00:00 | 00:00:00 | |
| DF2AP-13 | 2026-08-31 23:04:45 | 49.41310 | 12.19664 | 92° | 80km/h | 5888m | 3.9m/s | 0°C | 0% | 0hPa | 2.9V | 00:00:00 | 00:59:09 | 00:00:00 | |
| NBG1-10 | 2026-08-31 23:04:44 | 49.41311 | 12.19633 | 93° | 80km/h | 5883m | 4.4m/s | -17.2°C | 11.2% | 492.2hPa | 2.9V | 00:00:00 | 00:59:08 | 00:00:00 | |
| DO3MHA-11 | 2026-08-31 23:04:42 | 49.41315 | 12.19570 | 97° | 82km/h | 5875m | 2.9m/s | -17.2°C | 11.2% | 492.6hPa | 2.9V | 05:02:00 | 00:59:06 | 00:00:00 | |
| DO9HM | 2026-08-31 23:04:37 | 49.41321 | 12.19449 | 95° | 77km/h | 5857m | 3.5m/s | -17.1°C | 10.3% | 493.7hPa | 2.9V | 00:00:00 | 00:00:00 | 00:00:00 | |
| DO3MHA-11 | 2026-08-31 23:04:32 | 49.41327 | 12.19250 | 90° | 86km/h | 5835m | 2.9m/s | -16.8°C | 10.7% | 495.1hPa | 2.9V | 00:00:00 | 00:58:56 | 00:00:00 | |
| DL6DJ-15 | 2026-08-31 23:04:26 | 49.41343 | 12.19007 | 99° | 75km/h | 5805m | 5.4m/s | -16.6°C | 10.2% | 497.1hPa | 2.9V | 00:00:00 | 00:00:00 | 00:00:00 | |
| DO3MHA-11 | 2026-08-31 23:04:22 | 49.41351 | 12.18924 | 99° | 75km/h | 5788m | 5.3m/s | -16.4°C | 10.8% | 498.4hPa | 2.9V | 00:00:00 | 00:58:46 | 00:00:00 | |
| DO8TBO-1 | 2026-08-31 23:04:20 | 49.41357 | 12.18869 | 101° | 78km/h | 5778m | 4.5m/s | -16.3°C | 10.8% | 499.0hPa | 2.9V | 00:00:00 | 00:58:44 | 00:00:00 | |
| DO9HM | 2026-08-31 23:04:17 | 49.41368 | 12.18782 | 102° | 77km/h | 5762m | 4.6m/s | -16.3°C | 10.4% | 500.1hPa | 2.9V | 00:00:00 | 00:00:00 | 00:00:00 | |
| DO3MHA-11 | 2026-08-31 23:04:12 | 49.41384 | 12.18632 | 97° | 80km/h | 5739m | 4.6m/s | -16.2°C | 13.5% | 501.6hPa | 2.9V | 00:00:00 | 00:58:36 | 00:00:00 | |
| NBG1-10 | 2026-08-31 23:04:10 | 49.41388 | 12.18571 | 95° | 77km/h | 5730m | 4.1m/s | -16.2°C | 13.6% | 502.2hPa | 2.9V | 05:03:00 | 00:58:34 | 00:00:00 | |
| OE5DXL-15 | 2026-08-31 23:04:07 | 49.41393 | 12.18480 | 94° | 75km/h | 5718m | 2.0m/s | -16.1°C | 13.8% | 503.1hPa | 2.9V | 00:00:00 | 00:00:00 | 00:00:00 | |
| DO3MHA-11 | 2026-08-31 23:04:02 | 49.41408 | 12.18324 | 99° | 80km/h | 5700m | 2.1m/s | -16.0°C | 14.7% | 504.3hPa | 2.9V | 00:00:00 | 00:58:26 | 00:00:00 | |
| DL6DJ-15 | 2026-08-31 23:03:55 | 49.41419 | 12.18075 | 88° | 77km/h | 5666m | 5.0m/s | -15.8°C | 14.4% | 506.6hPa | 2.9V | 00:00:00 | 00:00:00 | 00:00:00 | |
| DO3MHA-11 | 2026-08-31 23:03:52 | 49.41419 | 12.18015 | 91° | 75km/h | 5658m | 3.0m/s | -15.7°C | 15.4% | 507.2hPa | 2.9V | 00:00:00 | 00:58:16 | 00:00:00 | |
| DO8TBO-1 | 2026-08-31 23:03:50 | 49.41420 | 12.17957 | 92° | 75km/h | 5649m | 4.6m/s | -15.7°C | 15.6% | 507.7hPa | 2.9V | 05:03:00 | 00:58:14 | 00:00:00 | |
| DO3MHA-11 | 2026-08-31 23:03:42 | 49.41421 | 12.17729 | 86° | 75km/h | 5624m | 2.7m/s | -15.6°C | 17.6% | 509.5hPa | 2.7V | 05:03:00 | 00:58:06 | 00:00:00 | |
| NBG1-10 | 2026-08-31 23:03:37 | 49.41417 | 12.17585 | 89° | 71km/h | 5610m | 3.5m/s | -15.5°C | 17.8% | 510.6hPa | 2.9V | 00:00:00 | 00:58:01 | 00:00:00 | |
| DO9HM | 2026-08-31 23:03:36 | 49.41416 | 12.17557 | 90° | 73km/h | 5606m | 3.6m/s | -15.5°C | 16.9% | 510.8hPa | 2.9V | 05:04:00 | 00:00:00 | 00:00:00 | |
| OE5DXL-15 | 2026-08-31 23:03:33 | 49.41416 | 12.17470 | 90° | 71km/h | 5596m | 3.2m/s | -15.4°C | 17.6% | 511.4hPa | 2.9V | 00:00:00 | 00:00:00 | 00:00:00 | |
| DO3MHA-11 | 2026-08-31 23:03:32 | 49.41416 | 12.17440 | 92° | 77km/h | 5594m | 2.7m/s | -15.3°C | 17.6% | 511.5hPa | 2.9V | 00:00:00 | 00:57:56 | 00:00:00 | |
| DL6DJ-15 | 2026-08-31 23:03:24 | 49.41405 | 12.17175 | 84° | 80km/h | 5566m | 1.4m/s | -15.2°C | 18.9% | 513.5hPa | 2.9V | 00:00:00 | 00:00:00 | 00:00:00 | |
| DO3MHA-11 | 2026-08-31 23:03:22 | 49.41403 | 12.17144 | 87° | 69km/h | 5563m | 3.9m/s | -15.2°C | 20.1% | 513.7hPa | 2.9V | 00:00:00 | 00:57:46 | 00:00:00 | |
| DO8TBO-1 | 2026-08-31 23:03:20 | 49.41402 | 12.17083 | 91° | 69km/h | 5553m | 6.0m/s | -15.1°C | 20.8% | 514.3hPa | 2.9V | 00:00:00 | 00:57:44 | 00:00:00 | |
| DO9HM | 2026-08-31 23:03:14 | 49.41401 | 12.16951 | 90° | 62km/h | 5523m | 5.3m/s | -14.9°C | 19.2% | 516.5hPa | 2.9V | 05:04:00 | 00:00:00 | 00:00:00 | |
| DO3MHA-11 | 2026-08-31 23:03:12 | 49.41401 | 12.16877 | 92° | 66km/h | 5510m | 3.8m/s | -14.8°C | 20.2% | 517.3hPa | 2.9V | 00:00:00 | 00:57:36 | 00:00:00 | |
| NBG1-10 | 2026-08-31 23:03:04 | 49.41409 | 12.16677 | 95° | 77km/h | 5472m | 4.4m/s | -14.4°C | 19.6% | 519.9hPa | 2.9V | 00:00:00 | 00:57:28 | 00:00:00 | |
| OE5DXL-15 | 2026-08-31 23:03:03 | 49.41410 | 12.16651 | 92° | 77km/h | 5468m | 5.5m/s | -14.4°C | 19.5% | 520.2hPa | 2.9V | 05:04:00 | 00:00:00 | 00:00:00 | |
| DO3MHA-11 | 2026-08-31 23:03:02 | 49.41410 | 12.16625 | 90° | 75km/h | 5462m | 4.9m/s | -14.3°C | 19.4% | 520.5hPa | 2.9V | 00:00:00 | 00:57:26 | 00:00:00 | |
| DL6DJ-15 | 2026-08-31 23:02:53 | 49.41413 | 12.16337 | 87° | 68km/h | 5424m | 2.2m/s | -14.1°C | 18.9% | 523.1hPa | 2.9V | 00:00:00 | 00:00:00 | 00:00:00 | |
| DO3MHA-11 | 2026-08-31 23:02:52 | 49.41413 | 12.16337 | 88° | 75km/h | 5424m | 2.2m/s | -14.0°C | 19.7% | 523.1hPa | 2.9V | 00:00:00 | 00:57:16 | 00:00:00 | |
| DO8TBO-1 | 2026-08-31 23:02:50 | 49.41412 | 12.16283 | 90° | 77km/h | 5420m | 3.9m/s | -14.0°C | 19.8% | 523.4hPa | 2.9V | 00:00:00 | 00:57:14 | 00:00:00 | |
| DO3MHA-11 | 2026-08-31 23:02:42 | 49.41435 | 12.16048 | 99° | 84km/h | 5395m | 2.9m/s | -13.9°C | 20.0% | 525.2hPa | 2.9V | 05:04:00 | 00:57:06 | 00:00:00 | |
| OE5DXL-15 | 2026-08-31 23:02:33 | 49.41456 | 12.15754 | 91° | 75km/h | 5355m | 5.3m/s | 0°C | 0% | 0hPa | 2.9V | 00:00:00 | 00:00:00 | 00:00:00 | |
| DO3MHA-11 | 2026-08-31 23:02:32 | 49.41455 | 12.15724 | 89° | 69km/h | 5350m | 4.9m/s | -13.5°C | 20.7% | 528.3hPa | 2.9V | 00:00:00 | 00:56:56 | 00:00:00 | |
| NBG1-10 | 2026-08-31 23:02:31 | 49.41455 | 12.15696 | 86° | 75km/h | 5344m | 6.5m/s | -13.5°C | 20.6% | 528.8hPa | 2.9V | 00:00:00 | 00:56:55 | 00:00:00 | |
| DO3MHA-11 | 2026-08-31 23:02:22 | 49.41442 | 12.15456 | 87° | 75km/h | 5307m | 6.3m/s | -13.3°C | 20.9% | 531.2hPa | 2.9V | 00:00:00 | 00:56:46 | 00:00:00 | |
| DL6DJ-15 | 2026-08-31 23:02:21 | 49.41441 | 12.15426 | 85° | 78km/h | 5301m | 5.4m/s | -13.3°C | 20.0% | 531.6hPa | 2.9V | 00:00:00 | 00:00:00 | 00:00:00 | |
| DO8TBO-1 | 2026-08-31 23:02:20 | 49.41439 | 12.15395 | 86° | 75km/h | 5297m | 4.6m/s | -13.2°C | 21.0% | 532.0hPa | 2.9V | 00:00:00 | 00:56:44 | 00:00:00 | |
| DO9HM | 2026-08-31 23:02:13 | 49.41439 | 12.15220 | 95° | 69km/h | 5271m | 3.1m/s | -13.0°C | 20.6% | 533.9hPa | 2.9V | 05:05:00 | 00:00:00 | 00:00:00 | |
| DO3MHA-11 | 2026-08-31 23:02:12 | 49.41441 | 12.15165 | 91° | 80km/h | 5264m | 3.3m/s | -12.9°C | 21.9% | 534.3hPa | 2.9V | 00:00:00 | 00:56:36 | 00:00:00 | |
| OE5DXL-15 | 2026-08-31 23:02:03 | 49.41436 | 12.14881 | 89° | 71km/h | 5240m | 4.2m/s | 0°C | 0% | 0hPa | 2.7V | 00:00:00 | 00:00:00 | 00:00:00 | |
| DO3MHA-11 | 2026-08-31 23:02:02 | 49.41435 | 12.14854 | 87° | 66km/h | 5236m | 4.1m/s | -12.8°C | 19.3% | 536.4hPa | 2.7V | 00:00:00 | 00:56:26 | 00:00:00 | |
| NBG1-10 | 2026-08-31 23:01:58 | 49.41427 | 12.14751 | 85° | 73km/h | 5222m | 2.3m/s | -12.7°C | 18.4% | 537.3hPa | 2.7V | 00:00:00 | 00:56:22 | 00:00:00 | |
| DO9HM | 2026-08-31 23:01:52 | 49.41419 | 12.14599 | 88° | 69km/h | 5194m | 6.0m/s | -12.5°C | 17.9% | 539.1hPa | 2.7V | 05:05:00 | 00:00:00 | 00:00:00 | |
| DO8TBO-1 | 2026-08-31 23:01:50 | 49.41416 | 12.14542 | 87° | 75km/h | 5186m | 3.7m/s | -12.4°C | 18.8% | 539.8hPa | 2.7V | 00:00:00 | 00:56:14 | 00:00:00 | |
| DO3MHA-11 | 2026-08-31 23:01:42 | 49.41410 | 12.14312 | 88° | 77km/h | 5159m | 3.0m/s | -12.3°C | 19.2% | 541.7hPa | 2.7V | 05:05:00 | 00:56:06 | 00:00:00 | |
| OE5DXL-15 | 2026-08-31 23:01:33 | 49.41407 | 12.14045 | 91° | 75km/h | 5133m | 4.3m/s | 0°C | 0% | 0hPa | 2.7V | 00:00:00 | 00:00:00 | 00:00:00 | |
| DO3MHA-11 | 2026-08-31 23:01:32 | 49.41407 | 12.14016 | 92° | 75km/h | 5129m | 2.7m/s | -12.1°C | 19.8% | 543.7hPa | 2.7V | 00:00:00 | 00:55:56 | 00:00:00 | |
| DO9HM | 2026-08-31 23:01:31 | 49.41407 | 12.14016 | 92° | 77km/h | 5129m | 2.8m/s | -12.2°C | 19.1% | 543.8hPa | 2.7V | 05:06:00 | 00:00:00 | 00:00:00 | |
| NBG1-10 | 2026-08-31 23:01:25 | 49.41405 | 12.13820 | 86° | 75km/h | 5109m | 2.4m/s | -12.0°C | 20.4% | 545.2hPa | 2.7V | 00:00:00 | 00:55:49 | 00:00:00 | |
| DO3MHA-11 | 2026-08-31 23:01:22 | 49.41399 | 12.13727 | 84° | 80km/h | 5101m | 3.7m/s | -11.9°C | 20.5% | 545.8hPa | 2.7V | 00:00:00 | 00:55:46 | 00:00:00 | |
| DO8TBO-1 | 2026-08-31 23:01:20 | 49.41395 | 12.13664 | 85° | 75km/h | 5096m | 2.8m/s | -11.9°C | 20.7% | 546.1hPa | 2.7V | 00:00:00 | 00:55:44 | 00:00:00 | |
| DL6DJ-15 | 2026-08-31 23:01:19 | 49.41393 | 12.13632 | 86° | 86km/h | 5093m | 4.4m/s | -12.0°C | 20.2% | 546.4hPa | 2.7V | 00:00:00 | 00:00:00 | 00:00:00 | |
| DO3MHA-11 | 2026-08-31 23:01:12 | 49.41402 | 12.13417 | 97° | 73km/h | 5060m | 6.2m/s | -11.9°C | 27.7% | 548.5hPa | 2.7V | 00:00:00 | 00:55:36 | 00:00:00 | |
| DO9HM | 2026-08-31 23:01:11 | 49.41404 | 12.13388 | 96° | 75km/h | 5054m | 5.9m/s | -12.0°C | 26.8% | 549.0hPa | 2.9V | 05:06:00 | 00:00:00 | 00:00:00 | |
| DO3MHA-11 | 2026-08-31 23:01:02 | 49.41396 | 12.13135 | 83° | 73km/h | 5016m | 3.5m/s | -11.7°C | 22.8% | 551.8hPa | 2.9V | 00:00:00 | 00:55:26 | 00:00:00 | |
| DL6DJ-15 | 2026-08-31 23:00:48 | 49.41367 | 12.12741 | 78° | 73km/h | 4975m | 3.2m/s | -11.5°C | 23.3% | 555.0hPa | 2.9V | 00:00:00 | 00:00:00 | 00:00:00 | |
| DO3MHA-11 | 2026-08-31 23:00:42 | 49.41351 | 12.12577 | 83° | 78km/h | 4956m | 3.8m/s | -11.4°C | 24.2% | 556.3hPa | 2.9V | 05:06:00 | 00:55:06 | 00:00:00 | |
| DB0NH | 2026-08-31 23:00:40 | 49.41347 | 12.12519 | 85° | 73km/h | 4951m | 2.1m/s | -11.4°C | 25.9% | 556.5hPa | 2.9V | 00:00:00 | 00:55:04 | 00:00:00 | |
| DO3MHA-11 | 2026-08-31 23:00:32 | 49.41342 | 12.12276 | 82° | 73km/h | 4927m | 5.6m/s | -11.5°C | 34.7% | 558.5hPa | 2.9V | 00:00:00 | 00:54:56 | 00:00:00 | |
| DO9HM | 2026-08-31 23:00:30 | 49.41339 | 12.12247 | 82° | 75km/h | 4921m | 6.8m/s | -11.5°C | 33.4% | 559.0hPa | 2.9V | 05:07:00 | 00:00:00 | 00:00:00 | |
| DO3MHA-11 | 2026-08-31 23:00:22 | 49.41330 | 12.11993 | 83° | 73km/h | 4883m | 4.7m/s | -11.1°C | 33.5% | 561.8hPa | 2.9V | 00:00:00 | 00:54:46 | 00:00:00 | |
| DO8TBO-1 | 2026-08-31 23:00:20 | 49.41323 | 12.11937 | 78° | 77km/h | 4876m | 1.7m/s | -11.1°C | 33.3% | 562.4hPa | 2.9V | 00:00:00 | 00:54:44 | 00:00:00 | |
| NBG1-10 | 2026-08-31 23:00:19 | 49.41319 | 12.11908 | 79° | 77km/h | 4874m | 3.4m/s | -11.0°C | 32.8% | 562.5hPa | 2.9V | 00:00:00 | 00:54:43 | 00:00:00 | |
| DL6DJ-15 | 2026-08-31 23:00:17 | 49.41310 | 12.11850 | 75° | 73km/h | 4867m | 3.1m/s | -11.0°C | 31.7% | 563.0hPa | 2.9V | 00:00:00 | 00:00:00 | 00:00:00 | |
| DO3MHA-11 | 2026-08-31 23:00:12 | 49.41292 | 12.11720 | 87° | 78km/h | 4849m | 4.6m/s | -10.8°C | 33.0% | 564.3hPa | 2.9V | 00:00:00 | 00:54:36 | 00:00:00 | |
| DO9HM | 2026-08-31 23:00:10 | 49.41291 | 12.11662 | 91° | 80km/h | 4840m | 5.3m/s | -10.8°C | 31.8% | 564.9hPa | 2.9V | 05:07:00 | 00:00:00 | 00:00:00 | |
| OE5DXL-15 | 2026-08-31 23:00:04 | 49.41297 | 12.11479 | 94° | 80km/h | 4817m | 7.1m/s | 0°C | 0% | 0hPa | 2.9V | 00:00:00 | 00:54:28 | 00:00:00 | |
| DO3MHA-11 | 2026-08-31 23:00:02 | 49.41298 | 12.11419 | 91° | 84km/h | 4805m | 4.6m/s | -10.4°C | 31.6% | 567.6hPa | 2.9V | 00:00:00 | 00:54:26 | 00:00:00 | |
| DO3MHA-11 | 2026-08-31 22:59:52 | 49.41300 | 12.11097 | 89° | 68km/h | 4762m | 5.3m/s | -10.0°C | 32.2% | 570.7hPa | 2.9V | 00:00:00 | 00:54:16 | 00:00:00 | |
| DO8TBO-1 | 2026-08-31 22:59:50 | 49.41299 | 12.11044 | 85° | 71km/h | 4751m | 5.5m/s | 0°C | 0% | 0hPa | 2.9V | 00:00:00 | 00:54:14 | 00:00:00 | |
| DO9HM | 2026-08-31 22:59:48 | 49.41295 | 12.10996 | 85° | 64km/h | 4741m | 5.4m/s | -9.8°C | 30.5% | 572.3hPa | 2.9V | 05:08:00 | 00:00:00 | 00:00:00 | |
| NBG1-10 | 2026-08-31 22:59:46 | 49.41292 | 12.10946 | 87° | 75km/h | 4733m | 5.0m/s | -9.7°C | 31.2% | 572.8hPa | 2.9V | 00:00:00 | 00:54:10 | 00:00:00 | |
| DO3MHA-11 | 2026-08-31 22:59:42 | 49.41296 | 12.10841 | 98° | 71km/h | 4715m | 4.2m/s | -9.6°C | 31.1% | 574.1hPa | 2.9V | 05:07:00 | 00:54:06 | 00:00:00 | |
| DB0NH | 2026-08-31 22:59:40 | 49.41301 | 12.10785 | 95° | 75km/h | 4708m | 2.0m/s | -9.5°C | 31.0% | 574.5hPa | 2.9V | 00:00:00 | 00:54:04 | 00:00:00 | |
| DO3MHA-11 | 2026-08-31 22:59:32 | 49.41287 | 12.10568 | 76° | 77km/h | 4669m | 3.7m/s | -9.2°C | 31.1% | 577.4hPa | 2.9V | 00:00:00 | 00:53:56 | 00:00:00 | |
| OE5DXL-15 | 2026-08-31 22:59:27 | 49.41267 | 12.10426 | 80° | 80km/h | 4646m | 4.8m/s | 0°C | 0% | 0hPa | 2.9V | 00:00:00 | 00:00:00 | 00:00:00 | |
| DO3MHA-11 | 2026-08-31 22:59:22 | 49.41251 | 12.10271 | 84° | 78km/h | 4624m | 4.0m/s | -8.8°C | 29.5% | 580.8hPa | 2.9V | 00:00:00 | 00:53:46 | 00:00:00 | |
| DO8TBO-1 | 2026-08-31 22:59:20 | 49.41247 | 12.10208 | 84° | 71km/h | 4614m | 6.0m/s | 0°C | 0% | 0hPa | 2.9V | 00:00:00 | 00:53:44 | 00:00:00 | |
| DL6DJ-15 | 2026-08-31 22:59:15 | 49.41239 | 12.10051 | 88° | 71km/h | 4591m | 5.2m/s | -8.6°C | 28.6% | 583.4hPa | 2.9V | 00:00:00 | 00:00:00 | 00:00:00 | |
| NBG1-10 | 2026-08-31 22:59:13 | 49.41240 | 12.09997 | 96° | 68km/h | 4581m | 5.9m/s | -8.4°C | 28.9% | 584.1hPa | 2.9V | 00:00:00 | 00:53:37 | 00:00:00 | |
| DO3MHA-11 | 2026-08-31 22:59:12 | 49.41241 | 12.09972 | 95° | 62km/h | 4575m | 4.7m/s | -8.4°C | 28.7% | 584.5hPa | 2.9V | 00:00:00 | 00:53:36 | 00:00:00 | |
| DB0NH | 2026-08-31 22:59:10 | 49.41243 | 12.09927 | 93° | 69km/h | 4568m | 1.9m/s | -8.4°C | 27.6% | 585.1hPa | 2.9V | 00:00:00 | 00:53:34 | 00:00:00 | |
| DO9HM | 2026-08-31 22:59:07 | 49.41241 | 12.09862 | 87° | 57km/h | 4560m | 5.0m/s | -8.3°C | 26.6% | 585.8hPa | 2.9V | 05:09:00 | 00:00:00 | 00:00:00 | |
| DO3MHA-11 | 2026-08-31 22:59:02 | 49.41232 | 12.09730 | 87° | 78km/h | 4527m | 5.3m/s | -8.0°C | 26.9% | 588.0hPa | 2.9V | 00:00:00 | 00:53:26 | 00:00:00 | |
| DL6DJ-15 | 2026-08-31 22:58:44 | 49.41244 | 12.09230 | 93° | 69km/h | 4441m | 5.1m/s | -7.5°C | 27.9% | 594.6hPa | 2.9V | 00:00:00 | 00:00:00 | 00:00:00 | |
| DO3MHA-11 | 2026-08-31 22:58:42 | 49.41245 | 12.09176 | 92° | 69km/h | 4432m | 2.9m/s | -7.3°C | 29.8% | 595.3hPa | 2.9V | 05:08:00 | 00:53:06 | 00:00:00 | |
| DB0NH | 2026-08-31 22:58:40 | 49.41247 | 12.09122 | 94° | 71km/h | 4424m | 5.2m/s | -7.3°C | 31.9% | 596.0hPa | 2.9V | 05:08:00 | 00:53:04 | 00:00:00 | |
| DO3MHA-11 | 2026-08-31 22:58:32 | 49.41261 | 12.08906 | 89° | 69km/h | 4389m | 5.8m/s | -7.1°C | 33.7% | 598.7hPa | 2.9V | 00:00:00 | 00:52:56 | 00:00:00 | |
| DO9HM | 2026-08-31 22:58:25 | 49.41270 | 12.08740 | 102° | 75km/h | 4359m | 5.1m/s | -7.3°C | 38.8% | 601.2hPa | 2.9V | 05:09:00 | 00:00:00 | 00:00:00 | |
| DO3MHA-11 | 2026-08-31 22:58:22 | 49.41281 | 12.08640 | 96° | 73km/h | 4341m | 4.9m/s | -7.1°C | 39.6% | 602.4hPa | 2.9V | 00:00:00 | 00:52:46 | 00:00:00 | |
| DO8TBO-1 | 2026-08-31 22:58:20 | 49.41280 | 12.08592 | 86° | 78km/h | 4331m | 6.4m/s | 0°C | 0% | 0hPa | 2.9V | 00:00:00 | 00:52:44 | 00:00:00 | |
| DL6DJ-15 | 2026-08-31 22:58:13 | 49.41260 | 12.08382 | 84° | 77km/h | 4291m | 4.7m/s | -6.7°C | 35.6% | 606.2hPa | 2.9V | 00:00:00 | 00:00:00 | 00:00:00 | |
| DO3MHA-11 | 2026-08-31 22:58:12 | 49.41259 | 12.08352 | 86° | 75km/h | 4287m | 4.9m/s | -6.6°C | 36.0% | 606.6hPa | 2.9V | 00:00:00 | 00:52:36 | 00:00:00 | |
| DB0NH | 2026-08-31 22:58:10 | 49.41257 | 12.08290 | 89° | 73km/h | 4273m | 7.5m/s | -6.5°C | 35.3% | 607.6hPa | 2.9V | 00:00:00 | 00:52:34 | 00:00:00 | |
| NBG1-10 | 2026-08-31 22:58:07 | 49.41255 | 12.08203 | 84° | 73km/h | 4255m | 4.9m/s | -6.3°C | 35.8% | 609.3hPa | 2.9V | 00:00:00 | 00:52:31 | 00:00:00 | |
| DO9HM | 2026-08-31 22:58:04 | 49.41250 | 12.08148 | 79° | 71km/h | 4244m | 5.6m/s | -6.4°C | 37.2% | 610.1hPa | 2.9V | 05:09:00 | 00:00:00 | 00:00:00 | |
| DO3MHA-11 | 2026-08-31 22:58:02 | 49.41240 | 12.08071 | 80° | 69km/h | 4231m | 4.3m/s | -6.3°C | 38.2% | 611.0hPa | 2.9V | 00:00:00 | 00:52:26 | 00:00:00 | |
| DO3MHA-11 | 2026-08-31 22:57:52 | 49.41225 | 12.07797 | 85° | 73km/h | 4177m | 4.1m/s | -5.8°C | 36.1% | 615.2hPa | 2.9V | 00:00:00 | 00:52:16 | 00:00:00 | |
| DO8TBO-1 | 2026-08-31 22:57:48 | 49.41214 | 12.07671 | 82° | 69km/h | 4161m | 5.7m/s | 0°C | 0% | 0hPa | 2.9V | 00:00:00 | 00:52:12 | 00:00:00 | |
| DO9HM | 2026-08-31 22:57:43 | 49.41208 | 12.07568 | 92° | 64km/h | 4136m | 5.9m/s | -5.4°C | 34.4% | 618.5hPa | 2.9V | 05:09:00 | 00:00:00 | 00:00:00 | |
| DO3MHA-11 | 2026-08-31 22:57:42 | 49.41211 | 12.07515 | 97° | 73km/h | 4126m | 4.1m/s | -5.3°C | 34.9% | 619.3hPa | 2.9V | 05:09:00 | 00:52:06 | 00:00:00 | |
| NBG1-10 | 2026-08-31 22:57:34 | 49.41210 | 12.07288 | 78° | 71km/h | 4087m | 6.0m/s | -4.9°C | 33.5% | 622.3hPa | 2.9V | 05:09:00 | 00:51:58 | 00:00:00 | |
| DB0NH | 2026-08-31 22:57:33 | 49.41206 | 12.07262 | 75° | 71km/h | 4082m | 4.8m/s | -4.9°C | 33.4% | 622.8hPa | 2.9V | 00:00:00 | 00:51:57 | 00:00:00 | |
| DO3MHA-11 | 2026-08-31 22:57:32 | 49.41201 | 12.07238 | 75° | 77km/h | 4077m | 4.1m/s | -4.8°C | 32.9% | 623.2hPa | 2.9V | 00:00:00 | 00:51:56 | 00:00:00 | |
| DO3MHA-11 | 2026-08-31 22:57:22 | 49.41167 | 12.06941 | 79° | 75km/h | 4025m | 3.3m/s | -4.4°C | 31.0% | 627.2hPa | 2.9V | 00:00:00 | 00:51:46 | 00:00:00 | |
| DO3MHA-11 | 2026-08-31 22:57:12 | 49.41140 | 12.06660 | 95° | 64km/h | 3971m | 3.6m/s | -4.0°C | 31.5% | 631.5hPa | 2.9V | 00:00:00 | 00:51:36 | 00:00:00 | |
| DL6DJ-15 | 2026-08-31 22:57:11 | 49.41142 | 12.06605 | 94° | 66km/h | 3964m | 4.7m/s | -4.0°C | 30.9% | 632.1hPa | 2.9V | 00:00:00 | 00:00:00 | 00:00:00 | |
| DO3MHA-11 | 2026-08-31 22:57:02 | 49.41125 | 12.06419 | 84° | 71km/h | 3925m | 4.6m/s | -3.7°C | 32.0% | 635.1hPa | 2.9V | 00:00:00 | 00:51:26 | 00:00:00 | |
| NBG1-10 | 2026-08-31 22:57:01 | 49.41124 | 12.06398 | 90° | 69km/h | 3921m | 4.0m/s | -3.7°C | 32.3% | 635.4hPa | 2.9V | 00:00:00 | 00:51:25 | 00:00:00 | |
| DO3MHA-11 | 2026-08-31 22:56:52 | 49.41123 | 12.06139 | 83° | 68km/h | 3876m | 4.2m/s | -3.3°C | 36.9% | 639.0hPa | 2.9V | 00:00:00 | 00:51:16 | 00:00:00 | |
| DO3MHA-11 | 2026-08-31 22:56:42 | 49.41105 | 12.05886 | 85° | 73km/h | 3825m | 3.3m/s | -2.9°C | 40.3% | 643.5hPa | 2.9V | 05:10:00 | 00:51:06 | 00:00:00 | |
| DO9HM | 2026-08-31 22:56:41 | 49.41105 | 12.05886 | 85° | 57km/h | 3825m | 3.3m/s | -3.0°C | 39.8% | 643.6hPa | 2.9V | 05:10:00 | 00:00:00 | 00:00:00 | |
| DL6DJ-15 | 2026-08-31 22:56:40 | 49.41100 | 12.05815 | 82° | 69km/h | 3808m | 6.3m/s | -2.9°C | 39.6% | 644.6hPa | 2.9V | 00:00:00 | 00:00:00 | 00:00:00 | |
| DO3MHA-11 | 2026-08-31 22:56:32 | 49.41103 | 12.05604 | 99° | 71km/h | 3768m | 5.5m/s | -2.6°C | 40.1% | 647.8hPa | 2.9V | 00:00:00 | 00:50:56 | 00:00:00 | |
| NBG1-10 | 2026-08-31 22:56:28 | 49.41106 | 12.05499 | 89° | 71km/h | 3744m | 6.6m/s | -2.4°C | 40.3% | 649.8hPa | 2.9V | 00:00:00 | 00:50:52 | 00:00:00 | |
| DO3MHA-11 | 2026-08-31 22:56:22 | 49.41099 | 12.05327 | 89° | 66km/h | 3720m | 3.9m/s | -2.2°C | 35.2% | 652.1hPa | 2.9V | 00:00:00 | 00:50:46 | 00:00:00 | |
| DO9HM | 2026-08-31 22:56:21 | 49.41099 | 12.05327 | 90° | 75km/h | 3720m | 3.9m/s | -2.2°C | 34.8% | 652.2hPa | 2.9V | 05:11:00 | 00:00:00 | 00:00:00 | |
| DO3MHA-11 | 2026-08-31 22:56:12 | 49.41110 | 12.05073 | 89° | 75km/h | 3680m | 4.4m/s | -2.2°C | 39.5% | 655.2hPa | 2.9V | 00:00:00 | 00:50:36 | 00:00:00 | |
| DL6DJ-15 | 2026-08-31 22:56:09 | 49.41102 | 12.04949 | 78° | 77km/h | 3658m | 4.9m/s | -2.2°C | 39.8% | 657.0hPa | 2.9V | 00:00:00 | 00:00:00 | 00:00:00 | |
| DO3MHA-11 | 2026-08-31 22:56:02 | 49.41088 | 12.04785 | 91° | 71km/h | 3629m | 7.0m/s | -2.1°C | 38.9% | 659.4hPa | 2.9V | 00:00:00 | 00:50:26 | 00:00:00 | |
| DO9HM | 2026-08-31 22:56:00 | 49.41088 | 12.04756 | 92° | 75km/h | 3623m | 6.8m/s | -2.1°C | 38.5% | 660.0hPa | 2.9V | 05:11:00 | 00:00:00 | 00:00:00 | |
| NBG1-10 | 2026-08-31 22:55:55 | 49.41085 | 12.04592 | 93° | 71km/h | 3598m | 3.2m/s | -2.2°C | 44.7% | 662.1hPa | 2.9V | 00:00:00 | 00:50:19 | 00:00:00 | |
| DO3MHA-11 | 2026-08-31 22:55:52 | 49.41091 | 12.04509 | 102° | 71km/h | 3586m | 3.6m/s | -2.2°C | 46.4% | 663.3hPa | 2.9V | 00:00:00 | 00:50:16 | 00:00:00 | |
| DO3MHA-11 | 2026-08-31 22:55:42 | 49.41092 | 12.04239 | 88° | 69km/h | 3539m | 6.6m/s | -1.9°C | 46.4% | 667.0hPa | 2.9V | 05:11:00 | 00:50:06 | 00:00:00 | |
| DO9HM | 2026-08-31 22:55:40 | 49.41095 | 12.04182 | 98° | 73km/h | 3527m | 4.4m/s | -1.8°C | 45.4% | 667.9hPa | 2.9V | 05:12:00 | 00:00:00 | 00:00:00 | |
| DL6DJ-15 | 2026-08-31 22:55:37 | 49.41104 | 12.04100 | 101° | 68km/h | 3513m | 3.5m/s | -1.8°C | 44.9% | 668.9hPa | 2.9V | 00:00:00 | 00:00:00 | 00:00:00 | |
| DO3MHA-11 | 2026-08-31 22:55:32 | 49.41107 | 12.03974 | 82° | 71km/h | 3493m | 5.4m/s | -1.6°C | 45.7% | 670.6hPa | 2.9V | 00:00:00 | 00:49:56 | 00:00:00 | |
| DO3MHA-11 | 2026-08-31 22:55:22 | 49.41080 | 12.03703 | 88° | 73km/h | 3449m | 4.5m/s | -1.8°C | 51.5% | 674.4hPa | 2.9V | 00:00:00 | 00:49:46 | 00:00:00 | |
| DO9HM | 2026-08-31 22:55:18 | 49.41084 | 12.03629 | 102° | 71km/h | 3433m | 5.3m/s | -1.7°C | 52.1% | 675.8hPa | 2.9V | 05:12:00 | 00:00:00 | 00:00:00 | |
| DO3MHA-11 | 2026-08-31 22:55:12 | 49.41102 | 12.03420 | 93° | 77km/h | 3399m | 5.6m/s | -1.4°C | 57.0% | 678.7hPa | 2.9V | 00:00:00 | 00:49:36 | 00:00:00 | |
| DL6DJ-15 | 2026-08-31 22:55:06 | 49.41102 | 12.03232 | 88° | 77km/h | 3370m | 2.6m/s | -1.8°C | 75.7% | 681.3hPa | 3.0V | 00:00:00 | 00:00:00 | 00:00:00 | |
| DO3MHA-11 | 2026-08-31 22:55:02 | 49.41109 | 12.03122 | 106° | 82km/h | 3349m | 5.1m/s | -2.0°C | 70.2% | 682.9hPa | 3.0V | 00:00:00 | 00:49:26 | 00:00:00 | |
| DO9HM | 2026-08-31 22:54:56 | 49.41130 | 12.02965 | 96° | 88km/h | 3324m | 4.8m/s | -2.5°C | 0% | 685.0hPa | 3.0V | 05:12:00 | 00:00:00 | 00:00:00 | |
| DO3MHA-11 | 2026-08-31 22:54:52 | 49.41135 | 12.02810 | 97° | 75km/h | 3293m | 5.2m/s | -2.7°C | 98.2% | 687.7hPa | 3.0V | 00:00:00 | 00:49:16 | 00:00:00 | |
| NBG1-10 | 2026-08-31 22:54:49 | 49.41143 | 12.02720 | 99° | 71km/h | 3272m | 7.5m/s | -2.6°C | 97.9% | 689.6hPa | 3.0V | 00:00:00 | 00:49:13 | 00:00:00 | |
| DO3MHA-11 | 2026-08-31 22:54:42 | 49.41150 | 12.02524 | 95° | 69km/h | 3224m | 5.5m/s | -2.2°C | 95.1% | 693.9hPa | 3.0V | 05:12:00 | 00:49:06 | 00:00:00 | |
| DO9HM | 2026-08-31 22:54:37 | 49.41167 | 12.02394 | 105° | 77km/h | 3204m | 4.2m/s | -2.0°C | 0% | 0hPa | 2.9V | 05:13:00 | 00:00:00 | 00:00:00 | |
| DL6DJ-15 | 2026-08-31 22:54:35 | 49.41176 | 12.02337 | 103° | 73km/h | 3196m | 2.5m/s | -2.0°C | 93.2% | 696.3hPa | 2.9V | 00:00:00 | 00:00:00 | 00:00:00 | |
| DO3MHA-11 | 2026-08-31 22:54:32 | 49.41192 | 12.02263 | 106° | 68km/h | 3187m | 2.2m/s | -1.9°C | 93.7% | 697.1hPa | 2.9V | 00:00:00 | 00:48:56 | 00:00:00 | |
| DO3MHA-11 | 2026-08-31 22:54:22 | 49.41215 | 12.02002 | 93° | 69km/h | 3142m | 4.2m/s | -1.4°C | 91.7% | 701.2hPa | 2.9V | 00:00:00 | 00:48:46 | 00:00:00 | |
| NBG1-10 | 2026-08-31 22:54:16 | 49.41218 | 12.01830 | 97° | 66km/h | 3117m | 6.7m/s | -1.2°C | 90.5% | 703.3hPa | 2.9V | 05:13:00 | 00:48:40 | 00:00:00 | |
| DO9HM | 2026-08-31 22:54:14 | 49.41223 | 12.01784 | 107° | 60km/h | 3104m | 5.3m/s | -1.2°C | 0% | 0hPa | 2.9V | 05:13:00 | 00:00:00 | 00:00:00 | |
| DO3MHA-11 | 2026-08-31 22:54:12 | 49.41234 | 12.01741 | 114° | 69km/h | 3094m | 4.8m/s | -1.1°C | 90.6% | 705.1hPa | 2.9V | 00:00:00 | 00:48:36 | 00:00:00 | |
| DL6DJ-15 | 2026-08-31 22:54:04 | 49.41257 | 12.01532 | 92° | 75km/h | 3057m | 3.8m/s | -0.8°C | 88.5% | 708.4hPa | 2.9V | 00:00:00 | 00:00:00 | 00:00:00 | |
| DO3MHA-11 | 2026-08-31 22:54:02 | 49.41259 | 12.01473 | 97° | 68km/h | 3052m | 2.8m/s | -0.7°C | 89.3% | 708.9hPa | 2.9V | 00:00:00 | 00:48:26 | 00:00:00 | |
| DO3MHA-11 | 2026-08-31 22:53:52 | 49.41305 | 12.01230 | 101° | 66km/h | 3012m | 5.0m/s | -0.3°C | 87.7% | 712.5hPa | 2.9V | 00:00:00 | 00:48:16 | 00:00:00 | |
| NBG1-10 | 2026-08-31 22:53:43 | 49.41327 | 12.01003 | 110° | 66km/h | 2969m | 4.6m/s | 0.0°C | 85.5% | 716.5hPa | 2.9V | 00:00:00 | 00:48:07 | 00:00:00 | |
| DO3MHA-11 | 2026-08-31 22:53:42 | 49.41333 | 12.00977 | 112° | 62km/h | 2964m | 6.2m/s | 0.1°C | 85.2% | 716.9hPa | 2.9V | 05:13:00 | 00:48:06 | 00:00:00 | |
| DO3MHA-11 | 2026-08-31 22:53:32 | 49.41366 | 12.00747 | 112° | 69km/h | 2915m | 6.9m/s | 0.5°C | 83.9% | 721.2hPa | 2.9V | 00:00:00 | 00:47:56 | 00:00:00 | |
| DO9HM | 2026-08-31 22:53:30 | 49.41380 | 12.00697 | 113° | 75km/h | 2904m | 6.5m/s | 0°C | 0% | 0hPa | 2.9V | 05:14:00 | 00:00:00 | 00:00:00 | |
| DO3MHA-11 | 2026-08-31 22:53:22 | 49.41434 | 12.00498 | 114° | 60km/h | 2872m | 3.2m/s | 0.8°C | 83.0% | 725.3hPa | 2.9V | 00:00:00 | 00:47:46 | 00:00:00 | |
| DO3MHA-11 | 2026-08-31 22:53:12 | 49.41469 | 12.00268 | 93° | 77km/h | 2829m | 4.6m/s | 1.0°C | 83.4% | 728.9hPa | 2.9V | 00:00:00 | 00:47:36 | 00:00:00 | |
| NBG1-10 | 2026-08-31 22:53:10 | 49.41472 | 12.00208 | 96° | 71km/h | 2821m | 4.6m/s | 1.1°C | 83.0% | 729.9hPa | 3.0V | 00:00:00 | 00:47:34 | 00:00:00 | |
| DO3MHA-11 | 2026-08-31 22:53:02 | 49.41515 | 11.99979 | 110° | 71km/h | 2782m | 4.0m/s | 1.4°C | 82.2% | 733.3hPa | 3.0V | 00:00:00 | 00:47:26 | 00:00:00 | |
| DO9HM | 2026-08-31 22:52:58 | 49.41529 | 11.99901 | 104° | 75km/h | 2766m | 5.9m/s | 0°C | 0% | 0hPa | 3.0V | 00:00:00 | 00:00:00 | 00:00:00 | |
| DB0NH | 2026-08-31 22:52:57 | 49.41538 | 11.99842 | 103° | 71km/h | 2755m | 7.8m/s | 1.6°C | 81.1% | 735.9hPa | 3.0V | 00:00:00 | 00:47:21 | 00:00:00 | |
| DO3MHA-11 | 2026-08-31 22:52:52 | 49.41553 | 11.99712 | 103° | 66km/h | 2730m | 4.3m/s | 1.8°C | 80.4% | 738.3hPa | 3.0V | 00:00:00 | 00:47:16 | 00:00:00 | |
| DO3MHA-11 | 2026-08-31 22:52:42 | 49.41574 | 11.99453 | 102° | 73km/h | 2694m | 3.6m/s | 2.0°C | 82.6% | 741.3hPa | 3.0V | 05:14:00 | 00:47:06 | 00:00:00 | |
| DO9HM | 2026-08-31 22:52:38 | 49.41596 | 11.99347 | 116° | 69km/h | 2672m | 4.9m/s | 0°C | 0% | 0hPa | 3.0V | 00:00:00 | 00:00:00 | 00:00:00 | |
| NBG1-10 | 2026-08-31 22:52:37 | 49.41604 | 11.99323 | 116° | 68km/h | 2669m | 3.7m/s | 2.2°C | 82.9% | 743.7hPa | 3.0V | 00:00:00 | 00:47:01 | 00:00:00 | |
| DO3MHA-11 | 2026-08-31 22:52:32 | 49.41635 | 11.99182 | 103° | 66km/h | 2648m | 4.5m/s | 2.2°C | 83.9% | 745.3hPa | 3.0V | 00:00:00 | 00:46:56 | 00:00:00 | |
| DL6DJ-15 | 2026-08-31 22:52:31 | 49.41638 | 11.99152 | 98° | 75km/h | 2644m | 3.1m/s | 2.3°C | -1.0% | 745.8hPa | 3.0V | 00:00:00 | 00:00:00 | 00:00:00 | |
| DB0NH | 2026-08-31 22:52:27 | 49.41649 | 11.99051 | 106° | 66km/h | 2626m | 5.0m/s | 2.4°C | 84.3% | 747.4hPa | 3.0V | 00:00:00 | 00:46:51 | 00:00:00 | |
| DO3MHA-11 | 2026-08-31 22:52:22 | 49.41677 | 11.98941 | 113° | 73km/h | 2599m | 4.4m/s | 2.6°C | 81.8% | 750.0hPa | 3.0V | 00:00:00 | 00:46:46 | 00:00:00 | |
| DO3MHA-11 | 2026-08-31 22:52:13 | 49.41710 | 11.98664 | 100° | 60km/h | 2558m | 5.3m/s | 2.8°C | 80.2% | 753.7hPa | 3.0V | 00:00:00 | 00:46:36 | 00:00:00 | |
| NBG1-10 | 2026-08-31 22:52:04 | 49.41757 | 11.98489 | 103° | 66km/h | 2518m | 3.6m/s | 3.1°C | 78.3% | 757.3hPa | 3.0V | 00:00:00 | 00:46:28 | 00:00:00 | |
| DO3MHA-11 | 2026-08-31 22:52:02 | 49.41761 | 11.98443 | 96° | 73km/h | 2510m | 5.6m/s | 3.2°C | 78.2% | 758.2hPa | 3.0V | 00:00:00 | 00:46:26 | 00:00:00 | |
| DL6DJ-15 | 2026-08-31 22:52:00 | 49.41767 | 11.98362 | 96° | 75km/h | 2492m | 3.2m/s | 3.3°C | -1.0% | 759.7hPa | 3.0V | 00:00:00 | 00:00:00 | 00:00:00 | |
| DB0NH | 2026-08-31 22:51:57 | 49.41773 | 11.98303 | 102° | 66km/h | 2485m | 5.5m/s | 3.2°C | 80.8% | 760.4hPa | 3.0V | 00:00:00 | 00:46:21 | 00:00:00 | |
| DO3MHA-11 | 2026-08-31 22:51:52 | 49.41793 | 11.98161 | 102° | 68km/h | 2460m | 6.4m/s | 3.0°C | 84.5% | 762.9hPa | 3.0V | 00:00:00 | 00:46:16 | 00:00:00 | |
| DO3MHA-11 | 2026-08-31 22:51:42 | 49.41812 | 11.97907 | 103° | 58km/h | 2407m | 4.2m/s | 3.6°C | 80.6% | 768.1hPa | 3.0V | 05:15:00 | 00:46:06 | 00:00:00 | |
| DO3MHA-11 | 2026-08-31 22:51:32 | 49.41853 | 11.97687 | 106° | 68km/h | 2353m | 8.6m/s | 4.1°C | 76.2% | 773.0hPa | 3.0V | 00:00:00 | 00:45:56 | 00:00:00 | |
| NBG1-10 | 2026-08-31 22:51:31 | 49.41858 | 11.97664 | 108° | 62km/h | 2346m | 7.0m/s | 4.1°C | 75.7% | 773.7hPa | 3.0V | 00:00:00 | 00:45:55 | 00:00:00 | |
| DL6DJ-15 | 2026-08-31 22:51:29 | 49.41869 | 11.97620 | 111° | 62km/h | 2334m | 2.8m/s | 0°C | -1.0% | 775.0hPa | 3.0V | 00:00:00 | 00:00:00 | 00:00:00 | |
| DB0NH | 2026-08-31 22:51:27 | 49.41882 | 11.97573 | 109° | 62km/h | 2327m | 4.2m/s | 4.3°C | 75.0% | 775.6hPa | 3.0V | 05:15:00 | 00:45:51 | 00:00:00 | |
| DO3MHA-11 | 2026-08-31 22:51:22 | 49.41900 | 11.97438 | 96° | 58km/h | 2307m | 3.9m/s | 4.4°C | 75.2% | 777.5hPa | 2.9V | 00:00:00 | 00:45:46 | 00:00:00 | |
| DO3MHA-11 | 2026-08-31 22:51:12 | 49.41933 | 11.97218 | 102° | 62km/h | 2255m | 5.4m/s | 4.7°C | 79.6% | 782.4hPa | 2.9V | 00:00:00 | 00:45:36 | 00:00:00 | |
| DO3MHA-11 | 2026-08-31 22:51:02 | 49.41952 | 11.96986 | 110° | 58km/h | 2202m | 7.3m/s | 5.0°C | 82.3% | 787.7hPa | 2.9V | 00:00:00 | 00:45:26 | 00:00:00 | |
| NBG1-10 | 2026-08-31 22:50:58 | 49.41972 | 11.96892 | 104° | 66km/h | 2180m | 5.0m/s | 5.1°C | 83.2% | 789.8hPa | 2.9V | 05:16:00 | 00:45:22 | 00:00:00 | |
| DB0NH | 2026-08-31 22:50:57 | 49.41976 | 11.96867 | 102° | 64km/h | 2174m | 6.4m/s | 5.1°C | 82.7% | 790.3hPa | 2.9V | 00:00:00 | 00:45:21 | 00:00:00 | |
| DO3MHA-11 | 2026-08-31 22:50:52 | 49.41991 | 11.96764 | 115° | 69km/h | 2149m | 5.1m/s | 5.3°C | 83.2% | 792.9hPa | 2.9V | 00:00:00 | 00:45:16 | 00:00:00 | |
| DO3MHA-11 | 2026-08-31 22:50:42 | 49.42057 | 11.96517 | 117° | 60km/h | 2097m | 3.5m/s | 5.6°C | 82.9% | 798.0hPa | 2.9V | 05:16:00 | 00:45:06 | 00:00:00 | |
| DO3MHA-11 | 2026-08-31 22:50:32 | 49.42094 | 11.96292 | 102° | 71km/h | 2050m | 4.9m/s | 5.8°C | 84.5% | 802.3hPa | 2.9V | 00:00:00 | 00:44:56 | 00:00:00 | |
| DB0NH | 2026-08-31 22:50:27 | 49.42121 | 11.96156 | 111° | 62km/h | 2025m | 8.3m/s | 5.9°C | 86.4% | 804.8hPa | 2.9V | 00:00:00 | 00:44:51 | 00:00:00 | |
| NBG1-10 | 2026-08-31 22:50:25 | 49.42135 | 11.96104 | 114° | 62km/h | 2010m | 7.2m/s | 5.9°C | 87.1% | 806.2hPa | 2.9V | 00:00:00 | 00:44:49 | 00:00:00 | |
| DO3MHA-11 | 2026-08-31 22:50:22 | 49.42156 | 11.96038 | 114° | 64km/h | 1995m | 4.7m/s | 6.0°C | 86.1% | 807.8hPa | 2.9V | 00:00:00 | 00:44:46 | 00:00:00 | |
| DO3MHA-11 | 2026-08-31 22:50:12 | 49.42189 | 11.95794 | 105° | 58km/h | 1949m | 3.7m/s | 6.2°C | 88.6% | 812.2hPa | 2.9V | 00:00:00 | 00:44:36 | 00:00:00 | |
| DO3MHA-11 | 2026-08-31 22:50:02 | 49.42226 | 11.95579 | 104° | 62km/h | 1900m | 3.1m/s | 6.6°C | 89.2% | 816.8hPa | 3.0V | 00:00:00 | 00:44:26 | 00:00:00 | |
| DB0NH | 2026-08-31 22:49:57 | 49.42237 | 11.95464 | 97° | 62km/h | 1882m | 3.3m/s | 6.7°C | 90.2% | 818.8hPa | 3.0V | 00:00:00 | 00:44:21 | 00:00:00 | |
| NBG1-10 | 2026-08-31 22:49:52 | 49.42247 | 11.95338 | 104° | 62km/h | 1860m | 3.7m/s | 6.9°C | 86.6% | 821.1hPa | 2.9V | 00:00:00 | 00:44:16 | 00:00:00 | |
| DO3MHA-11 | 2026-08-31 22:49:52 | 49.42247 | 11.95338 | 104° | 64km/h | 1860m | 3.7m/s | 6.9°C | 86.6% | 821.1hPa | 2.9V | 00:00:00 | 00:44:16 | 00:00:00 | |
| DO3MHA-11 | 2026-08-31 22:49:42 | 49.42296 | 11.95105 | 96° | 62km/h | 1809m | 7.8m/s | 7.3°C | 84.5% | 826.3hPa | 2.9V | 05:17:00 | 00:44:06 | 00:00:00 | |
| DO3MHA-11 | 2026-08-31 22:49:32 | 49.42339 | 11.94877 | 102° | 58km/h | 1757m | 4.4m/s | 7.5°C | 89.1% | 831.4hPa | 3.0V | 00:00:00 | 00:43:56 | 00:00:00 | |
| DB0NH | 2026-08-31 22:49:27 | 49.42355 | 11.94771 | 112° | 58km/h | 1732m | 5.9m/s | 7.7°C | 90.1% | 834.2hPa | 3.0V | 00:00:00 | 00:43:51 | 00:00:00 | |
| DO3MHA-11 | 2026-08-31 22:49:22 | 49.42390 | 11.94671 | 120° | 64km/h | 1707m | 5.8m/s | 7.8°C | 91.6% | 836.7hPa | 3.0V | 00:00:00 | 00:43:46 | 00:00:00 | |
| NBG1-10 | 2026-08-31 22:49:19 | 49.42415 | 11.94601 | 120° | 55km/h | 1693m | 3.6m/s | 7.9°C | 91.8% | 838.0hPa | 3.0V | 00:00:00 | 00:43:43 | 00:00:00 | |
| DO3MHA-11 | 2026-08-31 22:49:12 | 49.42449 | 11.94447 | 108° | 58km/h | 1659m | 5.9m/s | 8.2°C | 92.8% | 841.5hPa | 3.0V | 00:00:00 | 00:43:36 | 00:00:00 | |
| DO3MHA-11 | 2026-08-31 22:49:02 | 49.42489 | 11.94232 | 95° | 47km/h | 1606m | 4.9m/s | 8.6°C | 92.5% | 847.1hPa | 3.0V | 00:00:00 | 00:43:26 | 00:00:00 | |
| DB0NH | 2026-08-31 22:48:57 | 49.42502 | 11.94143 | 118° | 53km/h | 1580m | 4.6m/s | 0°C | 0% | 0hPa | 3.0V | 00:00:00 | 00:43:21 | 00:00:00 | |
| DO3MHA-11 | 2026-08-31 22:48:52 | 49.42531 | 11.94062 | 118° | 49km/h | 1554m | 6.0m/s | 9.0°C | 92.0% | 852.0hPa | 3.0V | 00:00:00 | 00:43:16 | 00:00:00 | |
| NBG1-10 | 2026-08-31 22:48:46 | 49.42554 | 11.93946 | 96° | 53km/h | 1517m | 6.2m/s | 9.4°C | 90.6% | 856.0hPa | 3.0V | 00:00:00 | 00:43:10 | 00:00:00 | |
| DO3MHA-11 | 2026-08-31 22:48:42 | 49.42567 | 11.93882 | 116° | 58km/h | 1495m | 5.7m/s | 9.6°C | 89.7% | 858.2hPa | 3.0V | 05:18:00 | 00:43:06 | 00:00:00 | |
| DO3MHA-11 | 2026-08-31 22:48:32 | 49.42625 | 11.93675 | 105° | 51km/h | 1447m | 8.4m/s | 10.0°C | 88.5% | 863.2hPa | 0V | 00:00:00 | 00:42:56 | 00:00:00 | |
| DB0NH | 2026-08-31 22:48:27 | 49.42633 | 11.93566 | 93° | 53km/h | 1408m | 7.7m/s | 0°C | 0% | 0hPa | 0V | 00:00:00 | 00:42:51 | 00:00:00 | |
| DO3MHA-11 | 2026-08-31 22:48:22 | 49.42638 | 11.93479 | 97° | 53km/h | 1383m | 4.3m/s | 0°C | 0% | 0hPa | 0V | 00:00:00 | 00:42:46 | 00:00:00 | |
| NBG1-10 | 2026-08-31 22:48:13 | 49.42668 | 11.93296 | 119° | 60km/h | 1340m | 4.9m/s | 0°C | 0% | 0hPa | 0V | 00:00:00 | 00:42:37 | 00:00:00 | |
| DO3MHA-11 | 2026-08-31 22:48:12 | 49.42674 | 11.93278 | 120° | 58km/h | 1335m | 5.3m/s | 0°C | 0% | 0hPa | 0V | 00:00:00 | 00:42:36 | 00:00:00 | |
| DO3MHA-11 | 2026-08-31 22:48:02 | 49.42721 | 11.93065 | 109° | 58km/h | 1282m | 4.6m/s | 0°C | 0% | 0hPa | 0V | 00:00:00 | 00:42:26 | 00:00:00 | |
| DO3MHA-11 | 2026-08-31 22:47:52 | 49.42761 | 11.92846 | 107° | 62km/h | 1236m | 5.1m/s | 0°C | 0% | 0hPa | 0V | 00:00:00 | 00:42:16 | 00:00:00 | |
| DO3MHA-11 | 2026-08-31 22:47:42 | 49.42791 | 11.92607 | 114° | 64km/h | 1187m | 5.7m/s | 0°C | 0% | 0hPa | 0V | 00:00:00 | 00:42:06 | 00:00:00 | |
| NBG1-10 | 2026-08-31 22:47:40 | 49.42805 | 11.92562 | 117° | 62km/h | 1176m | 5.2m/s | 0°C | 0% | 0hPa | 0V | 00:00:00 | 00:42:04 | 00:00:00 |